<?xml version="1.0" encoding="UTF-8" standalone="no" ?>
<gpx xmlns="http://www.topografix.com/GPX/1/1" xmlns:xsi="http://www.w3.org/2001/XMLSchema-instance" xsi:schemaLocation="http://www.topografix.com/GPX/1/1 http://www.topografix.com/GPX/1/1/gpx.xsd" version="1.1" creator="VisuGPX - https://www.visugpx.com">
  <metadata>
    <name>Guebwiller Petit Ballon Grand Ballon en 3 jours</name>
  </metadata>
  <wpt lat="47.90734" lon="7.21642">
    <ele>288.9</ele>
    <name><![CDATA[Départ]]></name>
    <type><![CDATA[ville]]></type>
  </wpt>
  <wpt lat="47.90504" lon="7.0897">
    <ele>1230.6</ele>
    <name><![CDATA[Haag]]></name>
    <type><![CDATA[restaurant]]></type>
  </wpt>
  <wpt lat="47.91182" lon="7.10421">
    <ele>1245</ele>
    <name><![CDATA[Roedelen]]></name>
    <type><![CDATA[refuge]]></type>
  </wpt>
  <wpt lat="47.9827" lon="7.11924">
    <ele>1130.5</ele>
    <name><![CDATA[Rothenbrunnen]]></name>
    <type><![CDATA[hotel]]></type>
  </wpt>
  <wpt lat="47.90084" lon="7.09841">
    <ele>1422</ele>
    <type><![CDATA[sommet]]></type>
  </wpt>
  <wpt lat="47.98049" lon="7.12603">
    <ele>1269.7</ele>
    <type><![CDATA[sommet]]></type>
  </wpt>
  <trk>
    <name><![CDATA[Tracé]]></name>
    <extensions>
      <line xmlns="http://www.topografix.com/GPX/gpx_style/0/2">
        <color>0000FF</color>
        <width>4</width>
      </line>
    </extensions>
    <trkseg>
      <trkpt lat="47.90719" lon="7.21653">
        <ele>291</ele>
        <time>2023-05-27T07:00:26Z</time>
      </trkpt>
      <trkpt lat="47.90719" lon="7.21666">
        <ele>291</ele>
        <time>2023-05-27T07:00:57Z</time>
      </trkpt>
      <trkpt lat="47.90717" lon="7.21679">
        <ele>291</ele>
        <time>2023-05-27T07:01:04Z</time>
      </trkpt>
      <trkpt lat="47.90714" lon="7.21688">
        <ele>291</ele>
        <time>2023-05-27T07:01:15Z</time>
      </trkpt>
      <trkpt lat="47.90719" lon="7.21698">
        <ele>291</ele>
        <time>2023-05-27T07:01:21Z</time>
      </trkpt>
      <trkpt lat="47.90717" lon="7.21707">
        <ele>291</ele>
        <time>2023-05-27T07:02:48Z</time>
      </trkpt>
      <trkpt lat="47.90722" lon="7.2172">
        <ele>291</ele>
        <time>2023-05-27T07:02:56Z</time>
      </trkpt>
      <trkpt lat="47.90728" lon="7.21732">
        <ele>291</ele>
        <time>2023-05-27T07:03:05Z</time>
      </trkpt>
      <trkpt lat="47.90737" lon="7.21736">
        <ele>291</ele>
        <time>2023-05-27T07:03:13Z</time>
      </trkpt>
      <trkpt lat="47.90747" lon="7.21738">
        <ele>291</ele>
        <time>2023-05-27T07:03:23Z</time>
      </trkpt>
      <trkpt lat="47.90754" lon="7.21732">
        <ele>291</ele>
        <time>2023-05-27T07:03:43Z</time>
      </trkpt>
      <trkpt lat="47.90764" lon="7.21734">
        <ele>292</ele>
        <time>2023-05-27T07:03:55Z</time>
      </trkpt>
      <trkpt lat="47.90773" lon="7.21739">
        <ele>292</ele>
        <time>2023-05-27T07:04:05Z</time>
      </trkpt>
      <trkpt lat="47.90783" lon="7.21737">
        <ele>293</ele>
        <time>2023-05-27T07:04:14Z</time>
      </trkpt>
      <trkpt lat="47.90792" lon="7.21742">
        <ele>293</ele>
        <time>2023-05-27T07:04:23Z</time>
      </trkpt>
      <trkpt lat="47.90801" lon="7.21747">
        <ele>294</ele>
        <time>2023-05-27T07:04:36Z</time>
      </trkpt>
      <trkpt lat="47.9081" lon="7.21747">
        <ele>295</ele>
        <time>2023-05-27T07:04:48Z</time>
      </trkpt>
      <trkpt lat="47.90819" lon="7.21754">
        <ele>296</ele>
        <time>2023-05-27T07:04:57Z</time>
      </trkpt>
      <trkpt lat="47.90824" lon="7.21766">
        <ele>297</ele>
        <time>2023-05-27T07:05:07Z</time>
      </trkpt>
      <trkpt lat="47.90823" lon="7.21779">
        <ele>298</ele>
        <time>2023-05-27T07:05:18Z</time>
      </trkpt>
      <trkpt lat="47.90823" lon="7.21793">
        <ele>299</ele>
        <time>2023-05-27T07:05:28Z</time>
      </trkpt>
      <trkpt lat="47.9082" lon="7.21807">
        <ele>300</ele>
        <time>2023-05-27T07:05:38Z</time>
      </trkpt>
      <trkpt lat="47.90816" lon="7.21819">
        <ele>301</ele>
        <time>2023-05-27T07:05:48Z</time>
      </trkpt>
      <trkpt lat="47.90813" lon="7.21832">
        <ele>302</ele>
        <time>2023-05-27T07:05:59Z</time>
      </trkpt>
      <trkpt lat="47.90809" lon="7.21845">
        <ele>303</ele>
        <time>2023-05-27T07:06:10Z</time>
      </trkpt>
      <trkpt lat="47.90806" lon="7.21858">
        <ele>304</ele>
        <time>2023-05-27T07:06:23Z</time>
      </trkpt>
      <trkpt lat="47.90801" lon="7.21869">
        <ele>305</ele>
        <time>2023-05-27T07:06:33Z</time>
      </trkpt>
      <trkpt lat="47.90797" lon="7.21882">
        <ele>306</ele>
        <time>2023-05-27T07:06:43Z</time>
      </trkpt>
      <trkpt lat="47.90794" lon="7.21896">
        <ele>307</ele>
        <time>2023-05-27T07:06:53Z</time>
      </trkpt>
      <trkpt lat="47.9079" lon="7.21909">
        <ele>307</ele>
        <time>2023-05-27T07:07:03Z</time>
      </trkpt>
      <trkpt lat="47.90787" lon="7.21922">
        <ele>308</ele>
        <time>2023-05-27T07:07:14Z</time>
      </trkpt>
      <trkpt lat="47.90783" lon="7.21935">
        <ele>309</ele>
        <time>2023-05-27T07:07:24Z</time>
      </trkpt>
      <trkpt lat="47.90777" lon="7.21944">
        <ele>310</ele>
        <time>2023-05-27T07:07:33Z</time>
      </trkpt>
      <trkpt lat="47.9077" lon="7.21954">
        <ele>310</ele>
        <time>2023-05-27T07:07:43Z</time>
      </trkpt>
      <trkpt lat="47.90764" lon="7.21965">
        <ele>311</ele>
        <time>2023-05-27T07:07:53Z</time>
      </trkpt>
      <trkpt lat="47.90759" lon="7.21976">
        <ele>312</ele>
        <time>2023-05-27T07:08:04Z</time>
      </trkpt>
      <trkpt lat="47.90758" lon="7.21987">
        <ele>313</ele>
        <time>2023-05-27T07:08:18Z</time>
      </trkpt>
      <trkpt lat="47.90767" lon="7.21987">
        <ele>314</ele>
        <time>2023-05-27T07:08:30Z</time>
      </trkpt>
      <trkpt lat="47.90776" lon="7.21984">
        <ele>316</ele>
        <time>2023-05-27T07:08:42Z</time>
      </trkpt>
      <trkpt lat="47.90785" lon="7.2198">
        <ele>317</ele>
        <time>2023-05-27T07:08:54Z</time>
      </trkpt>
      <trkpt lat="47.90794" lon="7.21974">
        <ele>318</ele>
        <time>2023-05-27T07:09:06Z</time>
      </trkpt>
      <trkpt lat="47.90801" lon="7.21964">
        <ele>320</ele>
        <time>2023-05-27T07:09:17Z</time>
      </trkpt>
      <trkpt lat="47.90809" lon="7.21956">
        <ele>321</ele>
        <time>2023-05-27T07:09:27Z</time>
      </trkpt>
      <trkpt lat="47.90817" lon="7.2195">
        <ele>322</ele>
        <time>2023-05-27T07:09:36Z</time>
      </trkpt>
      <trkpt lat="47.90824" lon="7.2194">
        <ele>323</ele>
        <time>2023-05-27T07:09:47Z</time>
      </trkpt>
      <trkpt lat="47.9083" lon="7.2193">
        <ele>323</ele>
        <time>2023-05-27T07:09:56Z</time>
      </trkpt>
      <trkpt lat="47.90837" lon="7.2192">
        <ele>323</ele>
        <time>2023-05-27T07:10:06Z</time>
      </trkpt>
      <trkpt lat="47.90844" lon="7.21911">
        <ele>324</ele>
        <time>2023-05-27T07:10:15Z</time>
      </trkpt>
      <trkpt lat="47.90852" lon="7.21901">
        <ele>324</ele>
        <time>2023-05-27T07:10:24Z</time>
      </trkpt>
      <trkpt lat="47.90858" lon="7.21891">
        <ele>324</ele>
        <time>2023-05-27T07:10:33Z</time>
      </trkpt>
      <trkpt lat="47.90864" lon="7.2188">
        <ele>325</ele>
        <time>2023-05-27T07:10:43Z</time>
      </trkpt>
      <trkpt lat="47.90869" lon="7.21867">
        <ele>325</ele>
        <time>2023-05-27T07:10:53Z</time>
      </trkpt>
      <trkpt lat="47.90873" lon="7.21854">
        <ele>326</ele>
        <time>2023-05-27T07:11:03Z</time>
      </trkpt>
      <trkpt lat="47.90877" lon="7.21841">
        <ele>326</ele>
        <time>2023-05-27T07:11:13Z</time>
      </trkpt>
      <trkpt lat="47.9088" lon="7.21828">
        <ele>327</ele>
        <time>2023-05-27T07:11:23Z</time>
      </trkpt>
      <trkpt lat="47.90888" lon="7.21824">
        <ele>328</ele>
        <time>2023-05-27T07:11:33Z</time>
      </trkpt>
      <trkpt lat="47.90887" lon="7.21838">
        <ele>329</ele>
        <time>2023-05-27T07:11:42Z</time>
      </trkpt>
      <trkpt lat="47.90884" lon="7.21851">
        <ele>330</ele>
        <time>2023-05-27T07:11:52Z</time>
      </trkpt>
      <trkpt lat="47.90882" lon="7.21865">
        <ele>331</ele>
        <time>2023-05-27T07:12:02Z</time>
      </trkpt>
      <trkpt lat="47.9088" lon="7.21878">
        <ele>332</ele>
        <time>2023-05-27T07:12:12Z</time>
      </trkpt>
      <trkpt lat="47.9088" lon="7.21892">
        <ele>333</ele>
        <time>2023-05-27T07:12:22Z</time>
      </trkpt>
      <trkpt lat="47.90879" lon="7.21907">
        <ele>334</ele>
        <time>2023-05-27T07:12:32Z</time>
      </trkpt>
      <trkpt lat="47.90878" lon="7.21921">
        <ele>335</ele>
        <time>2023-05-27T07:12:42Z</time>
      </trkpt>
      <trkpt lat="47.90877" lon="7.21935">
        <ele>335</ele>
        <time>2023-05-27T07:12:53Z</time>
      </trkpt>
      <trkpt lat="47.90876" lon="7.21949">
        <ele>336</ele>
        <time>2023-05-27T07:13:03Z</time>
      </trkpt>
      <trkpt lat="47.90874" lon="7.21963">
        <ele>337</ele>
        <time>2023-05-27T07:13:15Z</time>
      </trkpt>
      <trkpt lat="47.90872" lon="7.21976">
        <ele>338</ele>
        <time>2023-05-27T07:13:26Z</time>
      </trkpt>
      <trkpt lat="47.90865" lon="7.21986">
        <ele>340</ele>
        <time>2023-05-27T07:13:38Z</time>
      </trkpt>
      <trkpt lat="47.90858" lon="7.21993">
        <ele>341</ele>
        <time>2023-05-27T07:13:49Z</time>
      </trkpt>
      <trkpt lat="47.90851" lon="7.22002">
        <ele>342</ele>
        <time>2023-05-27T07:14:01Z</time>
      </trkpt>
      <trkpt lat="47.90842" lon="7.22006">
        <ele>344</ele>
        <time>2023-05-27T07:14:12Z</time>
      </trkpt>
      <trkpt lat="47.90832" lon="7.2201">
        <ele>344</ele>
        <time>2023-05-27T07:14:20Z</time>
      </trkpt>
      <trkpt lat="47.90823" lon="7.22016">
        <ele>345</ele>
        <time>2023-05-27T07:14:29Z</time>
      </trkpt>
      <trkpt lat="47.90814" lon="7.22023">
        <ele>345</ele>
        <time>2023-05-27T07:14:38Z</time>
      </trkpt>
      <trkpt lat="47.90806" lon="7.22032">
        <ele>346</ele>
        <time>2023-05-27T07:14:47Z</time>
      </trkpt>
      <trkpt lat="47.908" lon="7.22041">
        <ele>346</ele>
        <time>2023-05-27T07:14:55Z</time>
      </trkpt>
      <trkpt lat="47.90792" lon="7.2205">
        <ele>346</ele>
        <time>2023-05-27T07:15:04Z</time>
      </trkpt>
      <trkpt lat="47.90784" lon="7.22058">
        <ele>346</ele>
        <time>2023-05-27T07:15:13Z</time>
      </trkpt>
      <trkpt lat="47.90776" lon="7.22064">
        <ele>346</ele>
        <time>2023-05-27T07:15:22Z</time>
      </trkpt>
      <trkpt lat="47.90768" lon="7.22071">
        <ele>347</ele>
        <time>2023-05-27T07:15:32Z</time>
      </trkpt>
      <trkpt lat="47.90759" lon="7.22078">
        <ele>347</ele>
        <time>2023-05-27T07:15:42Z</time>
      </trkpt>
      <trkpt lat="47.90751" lon="7.22085">
        <ele>347</ele>
        <time>2023-05-27T07:15:53Z</time>
      </trkpt>
      <trkpt lat="47.90742" lon="7.22089">
        <ele>348</ele>
        <time>2023-05-27T07:16:02Z</time>
      </trkpt>
      <trkpt lat="47.90732" lon="7.22094">
        <ele>349</ele>
        <time>2023-05-27T07:16:11Z</time>
      </trkpt>
      <trkpt lat="47.90723" lon="7.22097">
        <ele>349</ele>
        <time>2023-05-27T07:16:19Z</time>
      </trkpt>
      <trkpt lat="47.90714" lon="7.22099">
        <ele>350</ele>
        <time>2023-05-27T07:16:27Z</time>
      </trkpt>
      <trkpt lat="47.90704" lon="7.22101">
        <ele>350</ele>
        <time>2023-05-27T07:16:37Z</time>
      </trkpt>
      <trkpt lat="47.90695" lon="7.22104">
        <ele>350</ele>
        <time>2023-05-27T07:16:46Z</time>
      </trkpt>
      <trkpt lat="47.90687" lon="7.2211">
        <ele>350</ele>
        <time>2023-05-27T07:16:54Z</time>
      </trkpt>
      <trkpt lat="47.90679" lon="7.22117">
        <ele>350</ele>
        <time>2023-05-27T07:17:02Z</time>
      </trkpt>
      <trkpt lat="47.90669" lon="7.22123">
        <ele>350</ele>
        <time>2023-05-27T07:17:12Z</time>
      </trkpt>
      <trkpt lat="47.90661" lon="7.22128">
        <ele>350</ele>
        <time>2023-05-27T07:17:21Z</time>
      </trkpt>
      <trkpt lat="47.90653" lon="7.22134">
        <ele>350</ele>
        <time>2023-05-27T07:17:30Z</time>
      </trkpt>
      <trkpt lat="47.90644" lon="7.2214">
        <ele>350</ele>
        <time>2023-05-27T07:17:40Z</time>
      </trkpt>
      <trkpt lat="47.90635" lon="7.22146">
        <ele>351</ele>
        <time>2023-05-27T07:17:49Z</time>
      </trkpt>
      <trkpt lat="47.90627" lon="7.22152">
        <ele>351</ele>
        <time>2023-05-27T07:17:58Z</time>
      </trkpt>
      <trkpt lat="47.90618" lon="7.22159">
        <ele>351</ele>
        <time>2023-05-27T07:18:07Z</time>
      </trkpt>
      <trkpt lat="47.90612" lon="7.22169">
        <ele>351</ele>
        <time>2023-05-27T07:18:16Z</time>
      </trkpt>
      <trkpt lat="47.90606" lon="7.22181">
        <ele>351</ele>
        <time>2023-05-27T07:18:25Z</time>
      </trkpt>
      <trkpt lat="47.90599" lon="7.22192">
        <ele>351</ele>
        <time>2023-05-27T07:18:34Z</time>
      </trkpt>
      <trkpt lat="47.90593" lon="7.22202">
        <ele>351</ele>
        <time>2023-05-27T07:18:54Z</time>
      </trkpt>
      <trkpt lat="47.9059" lon="7.22215">
        <ele>351</ele>
        <time>2023-05-27T07:19:03Z</time>
      </trkpt>
      <trkpt lat="47.90589" lon="7.22229">
        <ele>351</ele>
        <time>2023-05-27T07:19:15Z</time>
      </trkpt>
      <trkpt lat="47.9059" lon="7.22243">
        <ele>352</ele>
        <time>2023-05-27T07:19:49Z</time>
      </trkpt>
      <trkpt lat="47.90589" lon="7.22257">
        <ele>352</ele>
        <time>2023-05-27T07:19:58Z</time>
      </trkpt>
      <trkpt lat="47.90588" lon="7.22271">
        <ele>352</ele>
        <time>2023-05-27T07:20:06Z</time>
      </trkpt>
      <trkpt lat="47.90588" lon="7.22285">
        <ele>352</ele>
        <time>2023-05-27T07:20:16Z</time>
      </trkpt>
      <trkpt lat="47.90591" lon="7.22299">
        <ele>352</ele>
        <time>2023-05-27T07:20:25Z</time>
      </trkpt>
      <trkpt lat="47.90596" lon="7.22312">
        <ele>352</ele>
        <time>2023-05-27T07:20:35Z</time>
      </trkpt>
      <trkpt lat="47.906" lon="7.22324">
        <ele>352</ele>
        <time>2023-05-27T07:20:43Z</time>
      </trkpt>
      <trkpt lat="47.90606" lon="7.22336">
        <ele>352</ele>
        <time>2023-05-27T07:20:52Z</time>
      </trkpt>
      <trkpt lat="47.90613" lon="7.22345">
        <ele>352</ele>
        <time>2023-05-27T07:21:01Z</time>
      </trkpt>
      <trkpt lat="47.90621" lon="7.22352">
        <ele>352</ele>
        <time>2023-05-27T07:21:10Z</time>
      </trkpt>
      <trkpt lat="47.90629" lon="7.22359">
        <ele>352</ele>
        <time>2023-05-27T07:21:19Z</time>
      </trkpt>
      <trkpt lat="47.90637" lon="7.22368">
        <ele>352</ele>
        <time>2023-05-27T07:21:28Z</time>
      </trkpt>
      <trkpt lat="47.90644" lon="7.22379">
        <ele>352</ele>
        <time>2023-05-27T07:21:37Z</time>
      </trkpt>
      <trkpt lat="47.9065" lon="7.2239">
        <ele>352</ele>
        <time>2023-05-27T07:21:46Z</time>
      </trkpt>
      <trkpt lat="47.90658" lon="7.224">
        <ele>352</ele>
        <time>2023-05-27T07:21:56Z</time>
      </trkpt>
      <trkpt lat="47.90665" lon="7.22407">
        <ele>352</ele>
        <time>2023-05-27T07:22:05Z</time>
      </trkpt>
      <trkpt lat="47.90673" lon="7.22416">
        <ele>352</ele>
        <time>2023-05-27T07:22:14Z</time>
      </trkpt>
      <trkpt lat="47.90681" lon="7.22424">
        <ele>351</ele>
        <time>2023-05-27T07:22:24Z</time>
      </trkpt>
      <trkpt lat="47.90688" lon="7.22433">
        <ele>351</ele>
        <time>2023-05-27T07:22:33Z</time>
      </trkpt>
      <trkpt lat="47.90696" lon="7.2244">
        <ele>351</ele>
        <time>2023-05-27T07:22:45Z</time>
      </trkpt>
      <trkpt lat="47.90705" lon="7.2244">
        <ele>351</ele>
        <time>2023-05-27T07:22:57Z</time>
      </trkpt>
      <trkpt lat="47.90714" lon="7.2244">
        <ele>351</ele>
        <time>2023-05-27T07:23:10Z</time>
      </trkpt>
      <trkpt lat="47.90724" lon="7.22441">
        <ele>353</ele>
        <time>2023-05-27T07:23:22Z</time>
      </trkpt>
      <trkpt lat="47.90733" lon="7.22441">
        <ele>354</ele>
        <time>2023-05-27T07:23:34Z</time>
      </trkpt>
      <trkpt lat="47.90742" lon="7.22443">
        <ele>355</ele>
        <time>2023-05-27T07:23:46Z</time>
      </trkpt>
      <trkpt lat="47.90751" lon="7.22444">
        <ele>357</ele>
        <time>2023-05-27T07:23:58Z</time>
      </trkpt>
      <trkpt lat="47.90761" lon="7.22443">
        <ele>358</ele>
        <time>2023-05-27T07:24:10Z</time>
      </trkpt>
      <trkpt lat="47.9077" lon="7.22446">
        <ele>360</ele>
        <time>2023-05-27T07:24:23Z</time>
      </trkpt>
      <trkpt lat="47.90779" lon="7.22448">
        <ele>362</ele>
        <time>2023-05-27T07:24:34Z</time>
      </trkpt>
      <trkpt lat="47.90788" lon="7.22451">
        <ele>363</ele>
        <time>2023-05-27T07:24:47Z</time>
      </trkpt>
      <trkpt lat="47.90797" lon="7.22453">
        <ele>364</ele>
        <time>2023-05-27T07:24:58Z</time>
      </trkpt>
      <trkpt lat="47.90806" lon="7.2246">
        <ele>366</ele>
        <time>2023-05-27T07:25:09Z</time>
      </trkpt>
      <trkpt lat="47.90814" lon="7.22464">
        <ele>367</ele>
        <time>2023-05-27T07:25:19Z</time>
      </trkpt>
      <trkpt lat="47.90823" lon="7.22468">
        <ele>368</ele>
        <time>2023-05-27T07:25:30Z</time>
      </trkpt>
      <trkpt lat="47.90832" lon="7.22474">
        <ele>369</ele>
        <time>2023-05-27T07:25:41Z</time>
      </trkpt>
      <trkpt lat="47.9084" lon="7.22479">
        <ele>371</ele>
        <time>2023-05-27T07:25:52Z</time>
      </trkpt>
      <trkpt lat="47.90849" lon="7.22485">
        <ele>373</ele>
        <time>2023-05-27T07:26:05Z</time>
      </trkpt>
      <trkpt lat="47.90857" lon="7.22491">
        <ele>375</ele>
        <time>2023-05-27T07:26:17Z</time>
      </trkpt>
      <trkpt lat="47.90866" lon="7.22497">
        <ele>377</ele>
        <time>2023-05-27T07:26:29Z</time>
      </trkpt>
      <trkpt lat="47.90875" lon="7.22502">
        <ele>379</ele>
        <time>2023-05-27T07:26:42Z</time>
      </trkpt>
      <trkpt lat="47.90884" lon="7.22508">
        <ele>380</ele>
        <time>2023-05-27T07:26:54Z</time>
      </trkpt>
      <trkpt lat="47.90893" lon="7.22506">
        <ele>381</ele>
        <time>2023-05-27T07:27:06Z</time>
      </trkpt>
      <trkpt lat="47.90903" lon="7.22504">
        <ele>383</ele>
        <time>2023-05-27T07:27:18Z</time>
      </trkpt>
      <trkpt lat="47.9091" lon="7.22496">
        <ele>384</ele>
        <time>2023-05-27T07:27:29Z</time>
      </trkpt>
      <trkpt lat="47.90916" lon="7.22486">
        <ele>386</ele>
        <time>2023-05-27T07:27:39Z</time>
      </trkpt>
      <trkpt lat="47.90922" lon="7.22474">
        <ele>387</ele>
        <time>2023-05-27T07:27:51Z</time>
      </trkpt>
      <trkpt lat="47.90925" lon="7.22461">
        <ele>388</ele>
        <time>2023-05-27T07:28:02Z</time>
      </trkpt>
      <trkpt lat="47.90931" lon="7.2245">
        <ele>389</ele>
        <time>2023-05-27T07:28:13Z</time>
      </trkpt>
      <trkpt lat="47.90935" lon="7.22437">
        <ele>390</ele>
        <time>2023-05-27T07:28:25Z</time>
      </trkpt>
      <trkpt lat="47.90931" lon="7.22425">
        <ele>392</ele>
        <time>2023-05-27T07:28:38Z</time>
      </trkpt>
      <trkpt lat="47.90922" lon="7.22423">
        <ele>393</ele>
        <time>2023-05-27T07:28:50Z</time>
      </trkpt>
      <trkpt lat="47.90913" lon="7.22421">
        <ele>395</ele>
        <time>2023-05-27T07:29:01Z</time>
      </trkpt>
      <trkpt lat="47.90904" lon="7.2242">
        <ele>396</ele>
        <time>2023-05-27T07:29:10Z</time>
      </trkpt>
      <trkpt lat="47.90894" lon="7.22419">
        <ele>397</ele>
        <time>2023-05-27T07:29:20Z</time>
      </trkpt>
      <trkpt lat="47.90885" lon="7.22419">
        <ele>398</ele>
        <time>2023-05-27T07:29:30Z</time>
      </trkpt>
      <trkpt lat="47.90875" lon="7.22418">
        <ele>399</ele>
        <time>2023-05-27T07:29:39Z</time>
      </trkpt>
      <trkpt lat="47.90866" lon="7.22418">
        <ele>399</ele>
        <time>2023-05-27T07:29:48Z</time>
      </trkpt>
      <trkpt lat="47.90856" lon="7.22414">
        <ele>400</ele>
        <time>2023-05-27T07:29:57Z</time>
      </trkpt>
      <trkpt lat="47.90847" lon="7.22409">
        <ele>401</ele>
        <time>2023-05-27T07:30:07Z</time>
      </trkpt>
      <trkpt lat="47.9084" lon="7.224">
        <ele>402</ele>
        <time>2023-05-27T07:30:56Z</time>
      </trkpt>
      <trkpt lat="47.90831" lon="7.22395">
        <ele>402</ele>
        <time>2023-05-27T07:31:07Z</time>
      </trkpt>
      <trkpt lat="47.90823" lon="7.2239">
        <ele>402</ele>
        <time>2023-05-27T07:31:16Z</time>
      </trkpt>
      <trkpt lat="47.90814" lon="7.22384">
        <ele>401</ele>
        <time>2023-05-27T07:31:23Z</time>
      </trkpt>
      <trkpt lat="47.90806" lon="7.22376">
        <ele>401</ele>
        <time>2023-05-27T07:31:30Z</time>
      </trkpt>
      <trkpt lat="47.90798" lon="7.22368">
        <ele>400</ele>
        <time>2023-05-27T07:31:38Z</time>
      </trkpt>
      <trkpt lat="47.90789" lon="7.22364">
        <ele>400</ele>
        <time>2023-05-27T07:31:47Z</time>
      </trkpt>
      <trkpt lat="47.90779" lon="7.22363">
        <ele>400</ele>
        <time>2023-05-27T07:31:55Z</time>
      </trkpt>
      <trkpt lat="47.9077" lon="7.22362">
        <ele>399</ele>
        <time>2023-05-27T07:32:03Z</time>
      </trkpt>
      <trkpt lat="47.90761" lon="7.22361">
        <ele>399</ele>
        <time>2023-05-27T07:32:12Z</time>
      </trkpt>
      <trkpt lat="47.90751" lon="7.22358">
        <ele>398</ele>
        <time>2023-05-27T07:32:21Z</time>
      </trkpt>
      <trkpt lat="47.90742" lon="7.22352">
        <ele>397</ele>
        <time>2023-05-27T07:32:30Z</time>
      </trkpt>
      <trkpt lat="47.90733" lon="7.22348">
        <ele>396</ele>
        <time>2023-05-27T07:32:40Z</time>
      </trkpt>
      <trkpt lat="47.90724" lon="7.22342">
        <ele>394</ele>
        <time>2023-05-27T07:32:49Z</time>
      </trkpt>
      <trkpt lat="47.90716" lon="7.22335">
        <ele>394</ele>
        <time>2023-05-27T07:32:57Z</time>
      </trkpt>
      <trkpt lat="47.90707" lon="7.22331">
        <ele>393</ele>
        <time>2023-05-27T07:33:06Z</time>
      </trkpt>
      <trkpt lat="47.90698" lon="7.22323">
        <ele>392</ele>
        <time>2023-05-27T07:33:15Z</time>
      </trkpt>
      <trkpt lat="47.90692" lon="7.22311">
        <ele>391</ele>
        <time>2023-05-27T07:33:24Z</time>
      </trkpt>
      <trkpt lat="47.90689" lon="7.22298">
        <ele>390</ele>
        <time>2023-05-27T07:33:33Z</time>
      </trkpt>
      <trkpt lat="47.90691" lon="7.22284">
        <ele>389</ele>
        <time>2023-05-27T07:33:41Z</time>
      </trkpt>
      <trkpt lat="47.90696" lon="7.22272">
        <ele>388</ele>
        <time>2023-05-27T07:33:48Z</time>
      </trkpt>
      <trkpt lat="47.90701" lon="7.2226">
        <ele>388</ele>
        <time>2023-05-27T07:33:56Z</time>
      </trkpt>
      <trkpt lat="47.90706" lon="7.22249">
        <ele>387</ele>
        <time>2023-05-27T07:34:05Z</time>
      </trkpt>
      <trkpt lat="47.90706" lon="7.22237">
        <ele>386</ele>
        <time>2023-05-27T07:34:18Z</time>
      </trkpt>
      <trkpt lat="47.90698" lon="7.22239">
        <ele>385</ele>
        <time>2023-05-27T07:34:30Z</time>
      </trkpt>
      <trkpt lat="47.90689" lon="7.22244">
        <ele>385</ele>
        <time>2023-05-27T07:34:42Z</time>
      </trkpt>
      <trkpt lat="47.9068" lon="7.22249">
        <ele>384</ele>
        <time>2023-05-27T07:34:51Z</time>
      </trkpt>
      <trkpt lat="47.90671" lon="7.2225">
        <ele>383</ele>
        <time>2023-05-27T07:35:00Z</time>
      </trkpt>
      <trkpt lat="47.90661" lon="7.22255">
        <ele>383</ele>
        <time>2023-05-27T07:35:08Z</time>
      </trkpt>
      <trkpt lat="47.90652" lon="7.22258">
        <ele>382</ele>
        <time>2023-05-27T07:35:16Z</time>
      </trkpt>
      <trkpt lat="47.90643" lon="7.2226">
        <ele>382</ele>
        <time>2023-05-27T07:35:27Z</time>
      </trkpt>
      <trkpt lat="47.90634" lon="7.22266">
        <ele>382</ele>
        <time>2023-05-27T07:35:36Z</time>
      </trkpt>
      <trkpt lat="47.90635" lon="7.22263">
        <ele>382</ele>
        <time>2023-05-27T07:39:14Z</time>
      </trkpt>
      <trkpt lat="47.90643" lon="7.22258">
        <ele>382</ele>
        <time>2023-05-27T07:39:22Z</time>
      </trkpt>
      <trkpt lat="47.90652" lon="7.22254">
        <ele>382</ele>
        <time>2023-05-27T07:39:31Z</time>
      </trkpt>
      <trkpt lat="47.90661" lon="7.2225">
        <ele>382</ele>
        <time>2023-05-27T07:39:40Z</time>
      </trkpt>
      <trkpt lat="47.90671" lon="7.22247">
        <ele>382</ele>
        <time>2023-05-27T07:39:48Z</time>
      </trkpt>
      <trkpt lat="47.9068" lon="7.22245">
        <ele>382</ele>
        <time>2023-05-27T07:39:56Z</time>
      </trkpt>
      <trkpt lat="47.9069" lon="7.2224">
        <ele>382</ele>
        <time>2023-05-27T07:40:03Z</time>
      </trkpt>
      <trkpt lat="47.90699" lon="7.22236">
        <ele>382</ele>
        <time>2023-05-27T07:40:10Z</time>
      </trkpt>
      <trkpt lat="47.90708" lon="7.22232">
        <ele>383</ele>
        <time>2023-05-27T07:40:17Z</time>
      </trkpt>
      <trkpt lat="47.90716" lon="7.22226">
        <ele>383</ele>
        <time>2023-05-27T07:40:24Z</time>
      </trkpt>
      <trkpt lat="47.90724" lon="7.22219">
        <ele>383</ele>
        <time>2023-05-27T07:40:30Z</time>
      </trkpt>
      <trkpt lat="47.90733" lon="7.22216">
        <ele>383</ele>
        <time>2023-05-27T07:40:38Z</time>
      </trkpt>
      <trkpt lat="47.90743" lon="7.22216">
        <ele>384</ele>
        <time>2023-05-27T07:40:46Z</time>
      </trkpt>
      <trkpt lat="47.90752" lon="7.22219">
        <ele>384</ele>
        <time>2023-05-27T07:40:55Z</time>
      </trkpt>
      <trkpt lat="47.90761" lon="7.22216">
        <ele>384</ele>
        <time>2023-05-27T07:41:06Z</time>
      </trkpt>
      <trkpt lat="47.9077" lon="7.2221">
        <ele>384</ele>
        <time>2023-05-27T07:41:15Z</time>
      </trkpt>
      <trkpt lat="47.90778" lon="7.22201">
        <ele>385</ele>
        <time>2023-05-27T07:41:36Z</time>
      </trkpt>
      <trkpt lat="47.90787" lon="7.22201">
        <ele>385</ele>
        <time>2023-05-27T07:41:50Z</time>
      </trkpt>
      <trkpt lat="47.90797" lon="7.22199">
        <ele>385</ele>
        <time>2023-05-27T07:42:02Z</time>
      </trkpt>
      <trkpt lat="47.90805" lon="7.22204">
        <ele>386</ele>
        <time>2023-05-27T07:42:13Z</time>
      </trkpt>
      <trkpt lat="47.90815" lon="7.22206">
        <ele>387</ele>
        <time>2023-05-27T07:42:25Z</time>
      </trkpt>
      <trkpt lat="47.90824" lon="7.22203">
        <ele>388</ele>
        <time>2023-05-27T07:42:36Z</time>
      </trkpt>
      <trkpt lat="47.90831" lon="7.22195">
        <ele>389</ele>
        <time>2023-05-27T07:42:45Z</time>
      </trkpt>
      <trkpt lat="47.90839" lon="7.22189">
        <ele>390</ele>
        <time>2023-05-27T07:42:55Z</time>
      </trkpt>
      <trkpt lat="47.90846" lon="7.22179">
        <ele>392</ele>
        <time>2023-05-27T07:43:06Z</time>
      </trkpt>
      <trkpt lat="47.90854" lon="7.22174">
        <ele>394</ele>
        <time>2023-05-27T07:43:18Z</time>
      </trkpt>
      <trkpt lat="47.90863" lon="7.2217">
        <ele>396</ele>
        <time>2023-05-27T07:43:35Z</time>
      </trkpt>
      <trkpt lat="47.90871" lon="7.22164">
        <ele>398</ele>
        <time>2023-05-27T07:43:49Z</time>
      </trkpt>
      <trkpt lat="47.90879" lon="7.22159">
        <ele>401</ele>
        <time>2023-05-27T07:44:05Z</time>
      </trkpt>
      <trkpt lat="47.90889" lon="7.22157">
        <ele>403</ele>
        <time>2023-05-27T07:44:19Z</time>
      </trkpt>
      <trkpt lat="47.90899" lon="7.22156">
        <ele>405</ele>
        <time>2023-05-27T07:44:31Z</time>
      </trkpt>
      <trkpt lat="47.90908" lon="7.22157">
        <ele>407</ele>
        <time>2023-05-27T07:44:42Z</time>
      </trkpt>
      <trkpt lat="47.90917" lon="7.22158">
        <ele>408</ele>
        <time>2023-05-27T07:44:55Z</time>
      </trkpt>
      <trkpt lat="47.90926" lon="7.2216">
        <ele>409</ele>
        <time>2023-05-27T07:45:06Z</time>
      </trkpt>
      <trkpt lat="47.90936" lon="7.22161">
        <ele>411</ele>
        <time>2023-05-27T07:45:17Z</time>
      </trkpt>
      <trkpt lat="47.90946" lon="7.22161">
        <ele>412</ele>
        <time>2023-05-27T07:45:29Z</time>
      </trkpt>
      <trkpt lat="47.90955" lon="7.22163">
        <ele>414</ele>
        <time>2023-05-27T07:45:42Z</time>
      </trkpt>
      <trkpt lat="47.90964" lon="7.22162">
        <ele>415</ele>
        <time>2023-05-27T07:45:54Z</time>
      </trkpt>
      <trkpt lat="47.90973" lon="7.2216">
        <ele>417</ele>
        <time>2023-05-27T07:46:05Z</time>
      </trkpt>
      <trkpt lat="47.90983" lon="7.22161">
        <ele>418</ele>
        <time>2023-05-27T07:46:16Z</time>
      </trkpt>
      <trkpt lat="47.90992" lon="7.22163">
        <ele>420</ele>
        <time>2023-05-27T07:46:27Z</time>
      </trkpt>
      <trkpt lat="47.91002" lon="7.22163">
        <ele>421</ele>
        <time>2023-05-27T07:46:37Z</time>
      </trkpt>
      <trkpt lat="47.91011" lon="7.22164">
        <ele>422</ele>
        <time>2023-05-27T07:46:48Z</time>
      </trkpt>
      <trkpt lat="47.9102" lon="7.2217">
        <ele>423</ele>
        <time>2023-05-27T07:47:00Z</time>
      </trkpt>
      <trkpt lat="47.91029" lon="7.22175">
        <ele>424</ele>
        <time>2023-05-27T07:47:09Z</time>
      </trkpt>
      <trkpt lat="47.91038" lon="7.22174">
        <ele>425</ele>
        <time>2023-05-27T07:47:19Z</time>
      </trkpt>
      <trkpt lat="47.91046" lon="7.22166">
        <ele>425</ele>
        <time>2023-05-27T07:47:28Z</time>
      </trkpt>
      <trkpt lat="47.9105" lon="7.22153">
        <ele>426</ele>
        <time>2023-05-27T07:47:40Z</time>
      </trkpt>
      <trkpt lat="47.91048" lon="7.22138">
        <ele>427</ele>
        <time>2023-05-27T07:48:15Z</time>
      </trkpt>
      <trkpt lat="47.91046" lon="7.22125">
        <ele>428</ele>
        <time>2023-05-27T07:48:31Z</time>
      </trkpt>
      <trkpt lat="47.91041" lon="7.22112">
        <ele>428</ele>
        <time>2023-05-27T07:48:43Z</time>
      </trkpt>
      <trkpt lat="47.91039" lon="7.22098">
        <ele>428</ele>
        <time>2023-05-27T07:48:52Z</time>
      </trkpt>
      <trkpt lat="47.91036" lon="7.22085">
        <ele>427</ele>
        <time>2023-05-27T07:49:00Z</time>
      </trkpt>
      <trkpt lat="47.91034" lon="7.2207">
        <ele>427</ele>
        <time>2023-05-27T07:49:08Z</time>
      </trkpt>
      <trkpt lat="47.91034" lon="7.22056">
        <ele>427</ele>
        <time>2023-05-27T07:49:16Z</time>
      </trkpt>
      <trkpt lat="47.91033" lon="7.22041">
        <ele>427</ele>
        <time>2023-05-27T07:49:24Z</time>
      </trkpt>
      <trkpt lat="47.91033" lon="7.22027">
        <ele>427</ele>
        <time>2023-05-27T07:49:32Z</time>
      </trkpt>
      <trkpt lat="47.91033" lon="7.22013">
        <ele>427</ele>
        <time>2023-05-27T07:49:40Z</time>
      </trkpt>
      <trkpt lat="47.91034" lon="7.21999">
        <ele>427</ele>
        <time>2023-05-27T07:49:48Z</time>
      </trkpt>
      <trkpt lat="47.91034" lon="7.21985">
        <ele>427</ele>
        <time>2023-05-27T07:49:56Z</time>
      </trkpt>
      <trkpt lat="47.91035" lon="7.21971">
        <ele>427</ele>
        <time>2023-05-27T07:50:04Z</time>
      </trkpt>
      <trkpt lat="47.91037" lon="7.21957">
        <ele>427</ele>
        <time>2023-05-27T07:50:13Z</time>
      </trkpt>
      <trkpt lat="47.91041" lon="7.21942">
        <ele>427</ele>
        <time>2023-05-27T07:50:22Z</time>
      </trkpt>
      <trkpt lat="47.91044" lon="7.2193">
        <ele>427</ele>
        <time>2023-05-27T07:50:30Z</time>
      </trkpt>
      <trkpt lat="47.91047" lon="7.21916">
        <ele>428</ele>
        <time>2023-05-27T07:50:56Z</time>
      </trkpt>
      <trkpt lat="47.91053" lon="7.21906">
        <ele>428</ele>
        <time>2023-05-27T07:51:04Z</time>
      </trkpt>
      <trkpt lat="47.91058" lon="7.21894">
        <ele>428</ele>
        <time>2023-05-27T07:51:13Z</time>
      </trkpt>
      <trkpt lat="47.91064" lon="7.21882">
        <ele>428</ele>
        <time>2023-05-27T07:51:23Z</time>
      </trkpt>
      <trkpt lat="47.91069" lon="7.21871">
        <ele>429</ele>
        <time>2023-05-27T07:51:32Z</time>
      </trkpt>
      <trkpt lat="47.91074" lon="7.21859">
        <ele>429</ele>
        <time>2023-05-27T07:51:42Z</time>
      </trkpt>
      <trkpt lat="47.91079" lon="7.21847">
        <ele>430</ele>
        <time>2023-05-27T07:51:52Z</time>
      </trkpt>
      <trkpt lat="47.9108" lon="7.21834">
        <ele>431</ele>
        <time>2023-05-27T07:52:02Z</time>
      </trkpt>
      <trkpt lat="47.91082" lon="7.2182">
        <ele>432</ele>
        <time>2023-05-27T07:52:12Z</time>
      </trkpt>
      <trkpt lat="47.91084" lon="7.21806">
        <ele>432</ele>
        <time>2023-05-27T07:52:21Z</time>
      </trkpt>
      <trkpt lat="47.91089" lon="7.21794">
        <ele>433</ele>
        <time>2023-05-27T07:52:30Z</time>
      </trkpt>
      <trkpt lat="47.91095" lon="7.21782">
        <ele>433</ele>
        <time>2023-05-27T07:52:38Z</time>
      </trkpt>
      <trkpt lat="47.91102" lon="7.21773">
        <ele>433</ele>
        <time>2023-05-27T07:52:47Z</time>
      </trkpt>
      <trkpt lat="47.9111" lon="7.21764">
        <ele>434</ele>
        <time>2023-05-27T07:52:57Z</time>
      </trkpt>
      <trkpt lat="47.91116" lon="7.21753">
        <ele>434</ele>
        <time>2023-05-27T07:53:06Z</time>
      </trkpt>
      <trkpt lat="47.91122" lon="7.21741">
        <ele>435</ele>
        <time>2023-05-27T07:53:15Z</time>
      </trkpt>
      <trkpt lat="47.91128" lon="7.2173">
        <ele>435</ele>
        <time>2023-05-27T07:53:26Z</time>
      </trkpt>
      <trkpt lat="47.91136" lon="7.21721">
        <ele>435</ele>
        <time>2023-05-27T07:53:35Z</time>
      </trkpt>
      <trkpt lat="47.91144" lon="7.21712">
        <ele>435</ele>
        <time>2023-05-27T07:53:44Z</time>
      </trkpt>
      <trkpt lat="47.91152" lon="7.21705">
        <ele>436</ele>
        <time>2023-05-27T07:53:52Z</time>
      </trkpt>
      <trkpt lat="47.91158" lon="7.21695">
        <ele>436</ele>
        <time>2023-05-27T07:54:02Z</time>
      </trkpt>
      <trkpt lat="47.91164" lon="7.21684">
        <ele>436</ele>
        <time>2023-05-27T07:54:11Z</time>
      </trkpt>
      <trkpt lat="47.91169" lon="7.21673">
        <ele>436</ele>
        <time>2023-05-27T07:54:20Z</time>
      </trkpt>
      <trkpt lat="47.91175" lon="7.21661">
        <ele>436</ele>
        <time>2023-05-27T07:54:28Z</time>
      </trkpt>
      <trkpt lat="47.91181" lon="7.21651">
        <ele>436</ele>
        <time>2023-05-27T07:54:36Z</time>
      </trkpt>
      <trkpt lat="47.91188" lon="7.21641">
        <ele>435</ele>
        <time>2023-05-27T07:54:44Z</time>
      </trkpt>
      <trkpt lat="47.91193" lon="7.21629">
        <ele>435</ele>
        <time>2023-05-27T07:54:53Z</time>
      </trkpt>
      <trkpt lat="47.912" lon="7.21618">
        <ele>435</ele>
        <time>2023-05-27T07:55:01Z</time>
      </trkpt>
      <trkpt lat="47.91208" lon="7.21611">
        <ele>435</ele>
        <time>2023-05-27T07:55:10Z</time>
      </trkpt>
      <trkpt lat="47.91218" lon="7.21605">
        <ele>434</ele>
        <time>2023-05-27T07:55:20Z</time>
      </trkpt>
      <trkpt lat="47.91227" lon="7.216">
        <ele>434</ele>
        <time>2023-05-27T07:55:28Z</time>
      </trkpt>
      <trkpt lat="47.91236" lon="7.21596">
        <ele>433</ele>
        <time>2023-05-27T07:55:36Z</time>
      </trkpt>
      <trkpt lat="47.91245" lon="7.21591">
        <ele>433</ele>
        <time>2023-05-27T07:55:47Z</time>
      </trkpt>
      <trkpt lat="47.91254" lon="7.21588">
        <ele>433</ele>
        <time>2023-05-27T07:55:57Z</time>
      </trkpt>
      <trkpt lat="47.91264" lon="7.21585">
        <ele>433</ele>
        <time>2023-05-27T07:56:05Z</time>
      </trkpt>
      <trkpt lat="47.91272" lon="7.21579">
        <ele>433</ele>
        <time>2023-05-27T07:56:14Z</time>
      </trkpt>
      <trkpt lat="47.9128" lon="7.21571">
        <ele>432</ele>
        <time>2023-05-27T07:56:23Z</time>
      </trkpt>
      <trkpt lat="47.91288" lon="7.21562">
        <ele>432</ele>
        <time>2023-05-27T07:56:32Z</time>
      </trkpt>
      <trkpt lat="47.91295" lon="7.21553">
        <ele>432</ele>
        <time>2023-05-27T07:56:40Z</time>
      </trkpt>
      <trkpt lat="47.91303" lon="7.21545">
        <ele>432</ele>
        <time>2023-05-27T07:56:52Z</time>
      </trkpt>
      <trkpt lat="47.91311" lon="7.21537">
        <ele>432</ele>
        <time>2023-05-27T07:57:00Z</time>
      </trkpt>
      <trkpt lat="47.91318" lon="7.21527">
        <ele>432</ele>
        <time>2023-05-27T07:57:07Z</time>
      </trkpt>
      <trkpt lat="47.91326" lon="7.21517">
        <ele>431</ele>
        <time>2023-05-27T07:57:15Z</time>
      </trkpt>
      <trkpt lat="47.91333" lon="7.21508">
        <ele>431</ele>
        <time>2023-05-27T07:57:24Z</time>
      </trkpt>
      <trkpt lat="47.91341" lon="7.215">
        <ele>431</ele>
        <time>2023-05-27T07:57:32Z</time>
      </trkpt>
      <trkpt lat="47.91349" lon="7.21492">
        <ele>431</ele>
        <time>2023-05-27T07:57:41Z</time>
      </trkpt>
      <trkpt lat="47.91357" lon="7.21483">
        <ele>430</ele>
        <time>2023-05-27T07:57:51Z</time>
      </trkpt>
      <trkpt lat="47.91364" lon="7.21474">
        <ele>431</ele>
        <time>2023-05-27T07:58:00Z</time>
      </trkpt>
      <trkpt lat="47.91371" lon="7.21466">
        <ele>431</ele>
        <time>2023-05-27T07:58:09Z</time>
      </trkpt>
      <trkpt lat="47.91379" lon="7.21456">
        <ele>431</ele>
        <time>2023-05-27T07:58:18Z</time>
      </trkpt>
      <trkpt lat="47.91386" lon="7.21446">
        <ele>431</ele>
        <time>2023-05-27T07:58:28Z</time>
      </trkpt>
      <trkpt lat="47.91393" lon="7.21437">
        <ele>432</ele>
        <time>2023-05-27T07:58:37Z</time>
      </trkpt>
      <trkpt lat="47.91401" lon="7.2143">
        <ele>432</ele>
        <time>2023-05-27T07:58:45Z</time>
      </trkpt>
      <trkpt lat="47.9141" lon="7.21424">
        <ele>432</ele>
        <time>2023-05-27T07:58:53Z</time>
      </trkpt>
      <trkpt lat="47.91419" lon="7.21419">
        <ele>432</ele>
        <time>2023-05-27T07:59:01Z</time>
      </trkpt>
      <trkpt lat="47.91427" lon="7.21412">
        <ele>433</ele>
        <time>2023-05-27T07:59:10Z</time>
      </trkpt>
      <trkpt lat="47.91436" lon="7.21405">
        <ele>433</ele>
        <time>2023-05-27T07:59:19Z</time>
      </trkpt>
      <trkpt lat="47.91443" lon="7.21397">
        <ele>433</ele>
        <time>2023-05-27T07:59:26Z</time>
      </trkpt>
      <trkpt lat="47.91452" lon="7.21389">
        <ele>433</ele>
        <time>2023-05-27T07:59:33Z</time>
      </trkpt>
      <trkpt lat="47.91459" lon="7.21381">
        <ele>433</ele>
        <time>2023-05-27T07:59:53Z</time>
      </trkpt>
      <trkpt lat="47.91465" lon="7.21371">
        <ele>434</ele>
        <time>2023-05-27T08:00:01Z</time>
      </trkpt>
      <trkpt lat="47.91473" lon="7.21363">
        <ele>434</ele>
        <time>2023-05-27T08:00:09Z</time>
      </trkpt>
      <trkpt lat="47.91481" lon="7.21355">
        <ele>434</ele>
        <time>2023-05-27T08:00:17Z</time>
      </trkpt>
      <trkpt lat="47.91489" lon="7.21347">
        <ele>434</ele>
        <time>2023-05-27T08:00:25Z</time>
      </trkpt>
      <trkpt lat="47.91497" lon="7.2134">
        <ele>433</ele>
        <time>2023-05-27T08:00:33Z</time>
      </trkpt>
      <trkpt lat="47.91505" lon="7.21331">
        <ele>433</ele>
        <time>2023-05-27T08:00:41Z</time>
      </trkpt>
      <trkpt lat="47.91513" lon="7.21325">
        <ele>433</ele>
        <time>2023-05-27T08:00:49Z</time>
      </trkpt>
      <trkpt lat="47.91522" lon="7.21317">
        <ele>433</ele>
        <time>2023-05-27T08:00:57Z</time>
      </trkpt>
      <trkpt lat="47.91531" lon="7.2131">
        <ele>432</ele>
        <time>2023-05-27T08:01:05Z</time>
      </trkpt>
      <trkpt lat="47.9154" lon="7.21304">
        <ele>432</ele>
        <time>2023-05-27T08:01:13Z</time>
      </trkpt>
      <trkpt lat="47.91549" lon="7.213">
        <ele>432</ele>
        <time>2023-05-27T08:01:20Z</time>
      </trkpt>
      <trkpt lat="47.91559" lon="7.21297">
        <ele>432</ele>
        <time>2023-05-27T08:01:28Z</time>
      </trkpt>
      <trkpt lat="47.91567" lon="7.21295">
        <ele>432</ele>
        <time>2023-05-27T08:01:36Z</time>
      </trkpt>
      <trkpt lat="47.91577" lon="7.21294">
        <ele>431</ele>
        <time>2023-05-27T08:01:44Z</time>
      </trkpt>
      <trkpt lat="47.91587" lon="7.21292">
        <ele>431</ele>
        <time>2023-05-27T08:01:53Z</time>
      </trkpt>
      <trkpt lat="47.91596" lon="7.21289">
        <ele>431</ele>
        <time>2023-05-27T08:02:02Z</time>
      </trkpt>
      <trkpt lat="47.91605" lon="7.21287">
        <ele>431</ele>
        <time>2023-05-27T08:02:10Z</time>
      </trkpt>
      <trkpt lat="47.91615" lon="7.21286">
        <ele>431</ele>
        <time>2023-05-27T08:02:18Z</time>
      </trkpt>
      <trkpt lat="47.91624" lon="7.21285">
        <ele>431</ele>
        <time>2023-05-27T08:02:26Z</time>
      </trkpt>
      <trkpt lat="47.91634" lon="7.21286">
        <ele>431</ele>
        <time>2023-05-27T08:02:34Z</time>
      </trkpt>
      <trkpt lat="47.91642" lon="7.21291">
        <ele>431</ele>
        <time>2023-05-27T08:02:41Z</time>
      </trkpt>
      <trkpt lat="47.91651" lon="7.21295">
        <ele>432</ele>
        <time>2023-05-27T08:02:48Z</time>
      </trkpt>
      <trkpt lat="47.9166" lon="7.21298">
        <ele>432</ele>
        <time>2023-05-27T08:02:56Z</time>
      </trkpt>
      <trkpt lat="47.9167" lon="7.213">
        <ele>432</ele>
        <time>2023-05-27T08:03:05Z</time>
      </trkpt>
      <trkpt lat="47.91679" lon="7.21305">
        <ele>432</ele>
        <time>2023-05-27T08:03:14Z</time>
      </trkpt>
      <trkpt lat="47.91687" lon="7.21312">
        <ele>432</ele>
        <time>2023-05-27T08:03:21Z</time>
      </trkpt>
      <trkpt lat="47.91694" lon="7.2132">
        <ele>431</ele>
        <time>2023-05-27T08:03:27Z</time>
      </trkpt>
      <trkpt lat="47.91702" lon="7.21327">
        <ele>431</ele>
        <time>2023-05-27T08:03:34Z</time>
      </trkpt>
      <trkpt lat="47.91711" lon="7.21334">
        <ele>431</ele>
        <time>2023-05-27T08:03:42Z</time>
      </trkpt>
      <trkpt lat="47.91719" lon="7.2134">
        <ele>431</ele>
        <time>2023-05-27T08:03:50Z</time>
      </trkpt>
      <trkpt lat="47.91728" lon="7.21345">
        <ele>431</ele>
        <time>2023-05-27T08:03:58Z</time>
      </trkpt>
      <trkpt lat="47.91737" lon="7.21344">
        <ele>431</ele>
        <time>2023-05-27T08:04:09Z</time>
      </trkpt>
      <trkpt lat="47.91747" lon="7.21343">
        <ele>431</ele>
        <time>2023-05-27T08:04:19Z</time>
      </trkpt>
      <trkpt lat="47.91756" lon="7.21345">
        <ele>431</ele>
        <time>2023-05-27T08:04:27Z</time>
      </trkpt>
      <trkpt lat="47.91765" lon="7.21345">
        <ele>430</ele>
        <time>2023-05-27T08:04:36Z</time>
      </trkpt>
      <trkpt lat="47.91775" lon="7.21344">
        <ele>429</ele>
        <time>2023-05-27T08:04:46Z</time>
      </trkpt>
      <trkpt lat="47.91785" lon="7.21342">
        <ele>428</ele>
        <time>2023-05-27T08:04:56Z</time>
      </trkpt>
      <trkpt lat="47.91794" lon="7.21341">
        <ele>427</ele>
        <time>2023-05-27T08:05:05Z</time>
      </trkpt>
      <trkpt lat="47.91804" lon="7.21341">
        <ele>426</ele>
        <time>2023-05-27T08:05:13Z</time>
      </trkpt>
      <trkpt lat="47.91813" lon="7.21338">
        <ele>425</ele>
        <time>2023-05-27T08:05:21Z</time>
      </trkpt>
      <trkpt lat="47.91822" lon="7.21334">
        <ele>424</ele>
        <time>2023-05-27T08:05:31Z</time>
      </trkpt>
      <trkpt lat="47.91831" lon="7.21331">
        <ele>423</ele>
        <time>2023-05-27T08:05:43Z</time>
      </trkpt>
      <trkpt lat="47.9184" lon="7.21329">
        <ele>422</ele>
        <time>2023-05-27T08:05:55Z</time>
      </trkpt>
      <trkpt lat="47.91849" lon="7.21331">
        <ele>421</ele>
        <time>2023-05-27T08:06:10Z</time>
      </trkpt>
      <trkpt lat="47.91859" lon="7.21331">
        <ele>421</ele>
        <time>2023-05-27T08:06:22Z</time>
      </trkpt>
      <trkpt lat="47.91868" lon="7.2133">
        <ele>422</ele>
        <time>2023-05-27T08:06:32Z</time>
      </trkpt>
      <trkpt lat="47.91878" lon="7.21329">
        <ele>423</ele>
        <time>2023-05-27T08:06:42Z</time>
      </trkpt>
      <trkpt lat="47.91887" lon="7.21327">
        <ele>424</ele>
        <time>2023-05-27T08:06:53Z</time>
      </trkpt>
      <trkpt lat="47.91897" lon="7.21323">
        <ele>425</ele>
        <time>2023-05-27T08:07:04Z</time>
      </trkpt>
      <trkpt lat="47.91906" lon="7.21319">
        <ele>426</ele>
        <time>2023-05-27T08:07:16Z</time>
      </trkpt>
      <trkpt lat="47.91915" lon="7.21314">
        <ele>427</ele>
        <time>2023-05-27T08:07:28Z</time>
      </trkpt>
      <trkpt lat="47.91923" lon="7.21308">
        <ele>428</ele>
        <time>2023-05-27T08:07:39Z</time>
      </trkpt>
      <trkpt lat="47.9193" lon="7.21299">
        <ele>430</ele>
        <time>2023-05-27T08:07:51Z</time>
      </trkpt>
      <trkpt lat="47.91936" lon="7.21289">
        <ele>431</ele>
        <time>2023-05-27T08:08:03Z</time>
      </trkpt>
      <trkpt lat="47.91944" lon="7.2128">
        <ele>433</ele>
        <time>2023-05-27T08:08:14Z</time>
      </trkpt>
      <trkpt lat="47.91949" lon="7.21269">
        <ele>434</ele>
        <time>2023-05-27T08:08:25Z</time>
      </trkpt>
      <trkpt lat="47.91955" lon="7.21258">
        <ele>436</ele>
        <time>2023-05-27T08:08:37Z</time>
      </trkpt>
      <trkpt lat="47.91957" lon="7.21245">
        <ele>436</ele>
        <time>2023-05-27T08:08:46Z</time>
      </trkpt>
      <trkpt lat="47.91961" lon="7.21232">
        <ele>438</ele>
        <time>2023-05-27T08:08:56Z</time>
      </trkpt>
      <trkpt lat="47.91965" lon="7.21219">
        <ele>440</ele>
        <time>2023-05-27T08:09:08Z</time>
      </trkpt>
      <trkpt lat="47.91968" lon="7.21206">
        <ele>442</ele>
        <time>2023-05-27T08:09:30Z</time>
      </trkpt>
      <trkpt lat="47.9197" lon="7.21193">
        <ele>443</ele>
        <time>2023-05-27T08:09:40Z</time>
      </trkpt>
      <trkpt lat="47.91974" lon="7.2118">
        <ele>443</ele>
        <time>2023-05-27T08:09:49Z</time>
      </trkpt>
      <trkpt lat="47.91977" lon="7.21167">
        <ele>444</ele>
        <time>2023-05-27T08:09:59Z</time>
      </trkpt>
      <trkpt lat="47.91979" lon="7.21153">
        <ele>445</ele>
        <time>2023-05-27T08:10:09Z</time>
      </trkpt>
      <trkpt lat="47.91981" lon="7.21139">
        <ele>446</ele>
        <time>2023-05-27T08:10:19Z</time>
      </trkpt>
      <trkpt lat="47.91983" lon="7.21124">
        <ele>447</ele>
        <time>2023-05-27T08:10:31Z</time>
      </trkpt>
      <trkpt lat="47.91987" lon="7.21111">
        <ele>447</ele>
        <time>2023-05-27T08:10:41Z</time>
      </trkpt>
      <trkpt lat="47.91989" lon="7.21098">
        <ele>448</ele>
        <time>2023-05-27T08:10:51Z</time>
      </trkpt>
      <trkpt lat="47.91993" lon="7.21085">
        <ele>449</ele>
        <time>2023-05-27T08:11:00Z</time>
      </trkpt>
      <trkpt lat="47.91997" lon="7.21072">
        <ele>450</ele>
        <time>2023-05-27T08:11:10Z</time>
      </trkpt>
      <trkpt lat="47.92001" lon="7.2106">
        <ele>451</ele>
        <time>2023-05-27T08:11:19Z</time>
      </trkpt>
      <trkpt lat="47.92006" lon="7.21047">
        <ele>452</ele>
        <time>2023-05-27T08:11:28Z</time>
      </trkpt>
      <trkpt lat="47.92011" lon="7.21035">
        <ele>453</ele>
        <time>2023-05-27T08:11:37Z</time>
      </trkpt>
      <trkpt lat="47.92016" lon="7.21024">
        <ele>453</ele>
        <time>2023-05-27T08:11:45Z</time>
      </trkpt>
      <trkpt lat="47.92022" lon="7.21013">
        <ele>454</ele>
        <time>2023-05-27T08:11:54Z</time>
      </trkpt>
      <trkpt lat="47.92029" lon="7.21003">
        <ele>456</ele>
        <time>2023-05-27T08:12:04Z</time>
      </trkpt>
      <trkpt lat="47.92036" lon="7.20995">
        <ele>457</ele>
        <time>2023-05-27T08:12:15Z</time>
      </trkpt>
      <trkpt lat="47.92044" lon="7.20988">
        <ele>457</ele>
        <time>2023-05-27T08:12:26Z</time>
      </trkpt>
      <trkpt lat="47.92053" lon="7.20985">
        <ele>458</ele>
        <time>2023-05-27T08:12:36Z</time>
      </trkpt>
      <trkpt lat="47.92062" lon="7.20982">
        <ele>460</ele>
        <time>2023-05-27T08:12:47Z</time>
      </trkpt>
      <trkpt lat="47.92071" lon="7.20981">
        <ele>460</ele>
        <time>2023-05-27T08:12:56Z</time>
      </trkpt>
      <trkpt lat="47.92081" lon="7.20979">
        <ele>461</ele>
        <time>2023-05-27T08:13:06Z</time>
      </trkpt>
      <trkpt lat="47.9209" lon="7.2098">
        <ele>461</ele>
        <time>2023-05-27T08:13:16Z</time>
      </trkpt>
      <trkpt lat="47.92099" lon="7.20981">
        <ele>462</ele>
        <time>2023-05-27T08:13:25Z</time>
      </trkpt>
      <trkpt lat="47.92109" lon="7.20981">
        <ele>462</ele>
        <time>2023-05-27T08:13:36Z</time>
      </trkpt>
      <trkpt lat="47.92118" lon="7.20976">
        <ele>463</ele>
        <time>2023-05-27T08:13:45Z</time>
      </trkpt>
      <trkpt lat="47.92127" lon="7.20969">
        <ele>463</ele>
        <time>2023-05-27T08:13:52Z</time>
      </trkpt>
      <trkpt lat="47.92136" lon="7.20963">
        <ele>463</ele>
        <time>2023-05-27T08:13:58Z</time>
      </trkpt>
      <trkpt lat="47.92144" lon="7.20958">
        <ele>463</ele>
        <time>2023-05-27T08:14:05Z</time>
      </trkpt>
      <trkpt lat="47.92153" lon="7.20953">
        <ele>463</ele>
        <time>2023-05-27T08:14:11Z</time>
      </trkpt>
      <trkpt lat="47.92162" lon="7.20947">
        <ele>464</ele>
        <time>2023-05-27T08:14:19Z</time>
      </trkpt>
      <trkpt lat="47.92171" lon="7.20948">
        <ele>464</ele>
        <time>2023-05-27T08:14:31Z</time>
      </trkpt>
      <trkpt lat="47.9218" lon="7.20949">
        <ele>464</ele>
        <time>2023-05-27T08:14:40Z</time>
      </trkpt>
      <trkpt lat="47.92189" lon="7.20946">
        <ele>465</ele>
        <time>2023-05-27T08:14:56Z</time>
      </trkpt>
      <trkpt lat="47.92196" lon="7.20949">
        <ele>465</ele>
        <time>2023-05-27T08:15:10Z</time>
      </trkpt>
      <trkpt lat="47.92205" lon="7.20944">
        <ele>465</ele>
        <time>2023-05-27T08:15:21Z</time>
      </trkpt>
      <trkpt lat="47.92214" lon="7.20939">
        <ele>466</ele>
        <time>2023-05-27T08:15:31Z</time>
      </trkpt>
      <trkpt lat="47.92222" lon="7.20934">
        <ele>466</ele>
        <time>2023-05-27T08:15:41Z</time>
      </trkpt>
      <trkpt lat="47.92231" lon="7.20931">
        <ele>467</ele>
        <time>2023-05-27T08:15:51Z</time>
      </trkpt>
      <trkpt lat="47.9224" lon="7.20926">
        <ele>467</ele>
        <time>2023-05-27T08:16:00Z</time>
      </trkpt>
      <trkpt lat="47.92249" lon="7.20921">
        <ele>468</ele>
        <time>2023-05-27T08:16:09Z</time>
      </trkpt>
      <trkpt lat="47.92258" lon="7.20914">
        <ele>469</ele>
        <time>2023-05-27T08:16:18Z</time>
      </trkpt>
      <trkpt lat="47.92267" lon="7.20908">
        <ele>469</ele>
        <time>2023-05-27T08:16:29Z</time>
      </trkpt>
      <trkpt lat="47.92276" lon="7.20905">
        <ele>470</ele>
        <time>2023-05-27T08:16:39Z</time>
      </trkpt>
      <trkpt lat="47.92284" lon="7.20898">
        <ele>470</ele>
        <time>2023-05-27T08:16:49Z</time>
      </trkpt>
      <trkpt lat="47.92292" lon="7.20891">
        <ele>471</ele>
        <time>2023-05-27T08:16:59Z</time>
      </trkpt>
      <trkpt lat="47.92302" lon="7.20887">
        <ele>471</ele>
        <time>2023-05-27T08:17:10Z</time>
      </trkpt>
      <trkpt lat="47.92311" lon="7.20885">
        <ele>472</ele>
        <time>2023-05-27T08:17:23Z</time>
      </trkpt>
      <trkpt lat="47.9232" lon="7.20891">
        <ele>473</ele>
        <time>2023-05-27T08:17:43Z</time>
      </trkpt>
      <trkpt lat="47.92329" lon="7.20892">
        <ele>473</ele>
        <time>2023-05-27T08:17:52Z</time>
      </trkpt>
      <trkpt lat="47.92339" lon="7.20892">
        <ele>474</ele>
        <time>2023-05-27T08:18:04Z</time>
      </trkpt>
      <trkpt lat="47.92348" lon="7.20893">
        <ele>475</ele>
        <time>2023-05-27T08:18:16Z</time>
      </trkpt>
      <trkpt lat="47.92358" lon="7.2089">
        <ele>477</ele>
        <time>2023-05-27T08:18:28Z</time>
      </trkpt>
      <trkpt lat="47.92366" lon="7.20885">
        <ele>478</ele>
        <time>2023-05-27T08:18:40Z</time>
      </trkpt>
      <trkpt lat="47.92375" lon="7.2088">
        <ele>479</ele>
        <time>2023-05-27T08:18:50Z</time>
      </trkpt>
      <trkpt lat="47.92383" lon="7.20876">
        <ele>479</ele>
        <time>2023-05-27T08:18:59Z</time>
      </trkpt>
      <trkpt lat="47.92393" lon="7.20872">
        <ele>481</ele>
        <time>2023-05-27T08:19:12Z</time>
      </trkpt>
      <trkpt lat="47.92402" lon="7.20869">
        <ele>482</ele>
        <time>2023-05-27T08:19:22Z</time>
      </trkpt>
      <trkpt lat="47.92411" lon="7.20866">
        <ele>483</ele>
        <time>2023-05-27T08:19:32Z</time>
      </trkpt>
      <trkpt lat="47.9242" lon="7.20864">
        <ele>483</ele>
        <time>2023-05-27T08:19:41Z</time>
      </trkpt>
      <trkpt lat="47.92429" lon="7.20864">
        <ele>485</ele>
        <time>2023-05-27T08:19:54Z</time>
      </trkpt>
      <trkpt lat="47.92438" lon="7.2086">
        <ele>486</ele>
        <time>2023-05-27T08:20:05Z</time>
      </trkpt>
      <trkpt lat="47.92447" lon="7.2086">
        <ele>486</ele>
        <time>2023-05-27T08:20:14Z</time>
      </trkpt>
      <trkpt lat="47.92456" lon="7.20856">
        <ele>488</ele>
        <time>2023-05-27T08:20:25Z</time>
      </trkpt>
      <trkpt lat="47.92465" lon="7.20854">
        <ele>489</ele>
        <time>2023-05-27T08:20:40Z</time>
      </trkpt>
      <trkpt lat="47.92475" lon="7.20853">
        <ele>491</ele>
        <time>2023-05-27T08:20:52Z</time>
      </trkpt>
      <trkpt lat="47.92484" lon="7.20851">
        <ele>492</ele>
        <time>2023-05-27T08:21:04Z</time>
      </trkpt>
      <trkpt lat="47.92492" lon="7.20844">
        <ele>493</ele>
        <time>2023-05-27T08:21:16Z</time>
      </trkpt>
      <trkpt lat="47.92501" lon="7.2084">
        <ele>494</ele>
        <time>2023-05-27T08:21:27Z</time>
      </trkpt>
      <trkpt lat="47.92508" lon="7.20832">
        <ele>495</ele>
        <time>2023-05-27T08:21:37Z</time>
      </trkpt>
      <trkpt lat="47.92512" lon="7.20819">
        <ele>501</ele>
        <time>2023-05-27T08:26:40Z</time>
      </trkpt>
      <trkpt lat="47.92511" lon="7.20806">
        <ele>501</ele>
        <time>2023-05-27T08:27:18Z</time>
      </trkpt>
      <trkpt lat="47.92512" lon="7.20792">
        <ele>501</ele>
        <time>2023-05-27T08:27:31Z</time>
      </trkpt>
      <trkpt lat="47.92509" lon="7.20778">
        <ele>501</ele>
        <time>2023-05-27T08:27:41Z</time>
      </trkpt>
      <trkpt lat="47.92503" lon="7.20767">
        <ele>501</ele>
        <time>2023-05-27T08:27:51Z</time>
      </trkpt>
      <trkpt lat="47.92497" lon="7.20755">
        <ele>501</ele>
        <time>2023-05-27T08:28:01Z</time>
      </trkpt>
      <trkpt lat="47.92494" lon="7.20742">
        <ele>501</ele>
        <time>2023-05-27T08:28:09Z</time>
      </trkpt>
      <trkpt lat="47.92491" lon="7.20729">
        <ele>500</ele>
        <time>2023-05-27T08:28:19Z</time>
      </trkpt>
      <trkpt lat="47.92486" lon="7.20717">
        <ele>500</ele>
        <time>2023-05-27T08:28:28Z</time>
      </trkpt>
      <trkpt lat="47.92481" lon="7.20705">
        <ele>500</ele>
        <time>2023-05-27T08:28:47Z</time>
      </trkpt>
      <trkpt lat="47.92477" lon="7.20692">
        <ele>500</ele>
        <time>2023-05-27T08:28:55Z</time>
      </trkpt>
      <trkpt lat="47.92473" lon="7.20678">
        <ele>499</ele>
        <time>2023-05-27T08:29:04Z</time>
      </trkpt>
      <trkpt lat="47.92471" lon="7.20665">
        <ele>499</ele>
        <time>2023-05-27T08:29:12Z</time>
      </trkpt>
      <trkpt lat="47.92469" lon="7.20651">
        <ele>499</ele>
        <time>2023-05-27T08:29:22Z</time>
      </trkpt>
      <trkpt lat="47.9247" lon="7.20637">
        <ele>499</ele>
        <time>2023-05-27T08:29:31Z</time>
      </trkpt>
      <trkpt lat="47.9247" lon="7.20622">
        <ele>500</ele>
        <time>2023-05-27T08:29:39Z</time>
      </trkpt>
      <trkpt lat="47.9247" lon="7.20608">
        <ele>500</ele>
        <time>2023-05-27T08:29:48Z</time>
      </trkpt>
      <trkpt lat="47.92475" lon="7.20595">
        <ele>499</ele>
        <time>2023-05-27T08:29:58Z</time>
      </trkpt>
      <trkpt lat="47.92475" lon="7.20582">
        <ele>499</ele>
        <time>2023-05-27T08:30:06Z</time>
      </trkpt>
      <trkpt lat="47.92472" lon="7.20569">
        <ele>499</ele>
        <time>2023-05-27T08:30:15Z</time>
      </trkpt>
      <trkpt lat="47.92468" lon="7.20556">
        <ele>498</ele>
        <time>2023-05-27T08:30:26Z</time>
      </trkpt>
      <trkpt lat="47.92467" lon="7.20543">
        <ele>498</ele>
        <time>2023-05-27T08:30:39Z</time>
      </trkpt>
      <trkpt lat="47.92465" lon="7.20529">
        <ele>498</ele>
        <time>2023-05-27T08:30:51Z</time>
      </trkpt>
      <trkpt lat="47.92467" lon="7.20517">
        <ele>499</ele>
        <time>2023-05-27T08:31:03Z</time>
      </trkpt>
      <trkpt lat="47.92476" lon="7.20523">
        <ele>501</ele>
        <time>2023-05-27T08:31:27Z</time>
      </trkpt>
      <trkpt lat="47.92483" lon="7.20528">
        <ele>506</ele>
        <time>2023-05-27T08:31:59Z</time>
      </trkpt>
      <trkpt lat="47.92487" lon="7.20516">
        <ele>508</ele>
        <time>2023-05-27T08:32:16Z</time>
      </trkpt>
      <trkpt lat="47.92489" lon="7.20502">
        <ele>510</ele>
        <time>2023-05-27T08:32:30Z</time>
      </trkpt>
      <trkpt lat="47.92485" lon="7.2049">
        <ele>512</ele>
        <time>2023-05-27T08:32:42Z</time>
      </trkpt>
      <trkpt lat="47.92483" lon="7.20476">
        <ele>513</ele>
        <time>2023-05-27T08:32:53Z</time>
      </trkpt>
      <trkpt lat="47.92484" lon="7.20462">
        <ele>513</ele>
        <time>2023-05-27T08:33:01Z</time>
      </trkpt>
      <trkpt lat="47.92487" lon="7.20448">
        <ele>513</ele>
        <time>2023-05-27T08:33:10Z</time>
      </trkpt>
      <trkpt lat="47.92488" lon="7.20437">
        <ele>514</ele>
        <time>2023-05-27T08:34:59Z</time>
      </trkpt>
      <trkpt lat="47.92496" lon="7.20431">
        <ele>514</ele>
        <time>2023-05-27T08:35:08Z</time>
      </trkpt>
      <trkpt lat="47.92503" lon="7.20421">
        <ele>514</ele>
        <time>2023-05-27T08:35:17Z</time>
      </trkpt>
      <trkpt lat="47.9251" lon="7.20411">
        <ele>514</ele>
        <time>2023-05-27T08:35:26Z</time>
      </trkpt>
      <trkpt lat="47.92517" lon="7.20401">
        <ele>514</ele>
        <time>2023-05-27T08:35:36Z</time>
      </trkpt>
      <trkpt lat="47.92524" lon="7.20392">
        <ele>514</ele>
        <time>2023-05-27T08:35:44Z</time>
      </trkpt>
      <trkpt lat="47.92532" lon="7.20385">
        <ele>514</ele>
        <time>2023-05-27T08:35:50Z</time>
      </trkpt>
      <trkpt lat="47.92539" lon="7.20377">
        <ele>514</ele>
        <time>2023-05-27T08:35:56Z</time>
      </trkpt>
      <trkpt lat="47.92547" lon="7.2037">
        <ele>514</ele>
        <time>2023-05-27T08:36:03Z</time>
      </trkpt>
      <trkpt lat="47.92554" lon="7.2036">
        <ele>514</ele>
        <time>2023-05-27T08:36:13Z</time>
      </trkpt>
      <trkpt lat="47.92563" lon="7.20351">
        <ele>514</ele>
        <time>2023-05-27T08:36:22Z</time>
      </trkpt>
      <trkpt lat="47.92571" lon="7.20344">
        <ele>513</ele>
        <time>2023-05-27T08:36:31Z</time>
      </trkpt>
      <trkpt lat="47.92577" lon="7.20334">
        <ele>513</ele>
        <time>2023-05-27T08:36:42Z</time>
      </trkpt>
      <trkpt lat="47.92583" lon="7.20323">
        <ele>512</ele>
        <time>2023-05-27T08:36:51Z</time>
      </trkpt>
      <trkpt lat="47.9259" lon="7.20311">
        <ele>511</ele>
        <time>2023-05-27T08:37:00Z</time>
      </trkpt>
      <trkpt lat="47.92596" lon="7.203">
        <ele>511</ele>
        <time>2023-05-27T08:37:09Z</time>
      </trkpt>
      <trkpt lat="47.92598" lon="7.20287">
        <ele>510</ele>
        <time>2023-05-27T08:37:20Z</time>
      </trkpt>
      <trkpt lat="47.926" lon="7.20274">
        <ele>509</ele>
        <time>2023-05-27T08:37:29Z</time>
      </trkpt>
      <trkpt lat="47.92605" lon="7.20262">
        <ele>508</ele>
        <time>2023-05-27T08:37:41Z</time>
      </trkpt>
      <trkpt lat="47.92608" lon="7.20249">
        <ele>507</ele>
        <time>2023-05-27T08:37:49Z</time>
      </trkpt>
      <trkpt lat="47.92613" lon="7.20237">
        <ele>506</ele>
        <time>2023-05-27T08:37:58Z</time>
      </trkpt>
      <trkpt lat="47.92621" lon="7.20232">
        <ele>505</ele>
        <time>2023-05-27T08:38:13Z</time>
      </trkpt>
      <trkpt lat="47.9263" lon="7.20234">
        <ele>505</ele>
        <time>2023-05-27T08:38:27Z</time>
      </trkpt>
      <trkpt lat="47.92639" lon="7.20238">
        <ele>507</ele>
        <time>2023-05-27T08:38:42Z</time>
      </trkpt>
      <trkpt lat="47.92649" lon="7.20239">
        <ele>508</ele>
        <time>2023-05-27T08:38:56Z</time>
      </trkpt>
      <trkpt lat="47.92658" lon="7.20238">
        <ele>512</ele>
        <time>2023-05-27T08:39:19Z</time>
      </trkpt>
      <trkpt lat="47.92663" lon="7.20227">
        <ele>514</ele>
        <time>2023-05-27T08:39:36Z</time>
      </trkpt>
      <trkpt lat="47.92663" lon="7.20213">
        <ele>515</ele>
        <time>2023-05-27T08:39:50Z</time>
      </trkpt>
      <trkpt lat="47.92662" lon="7.20199">
        <ele>516</ele>
        <time>2023-05-27T08:40:03Z</time>
      </trkpt>
      <trkpt lat="47.92666" lon="7.20186">
        <ele>516</ele>
        <time>2023-05-27T08:40:13Z</time>
      </trkpt>
      <trkpt lat="47.92673" lon="7.20176">
        <ele>517</ele>
        <time>2023-05-27T08:40:22Z</time>
      </trkpt>
      <trkpt lat="47.92678" lon="7.20164">
        <ele>517</ele>
        <time>2023-05-27T08:40:32Z</time>
      </trkpt>
      <trkpt lat="47.92679" lon="7.20151">
        <ele>518</ele>
        <time>2023-05-27T08:40:45Z</time>
      </trkpt>
      <trkpt lat="47.92684" lon="7.20139">
        <ele>518</ele>
        <time>2023-05-27T08:40:56Z</time>
      </trkpt>
      <trkpt lat="47.92679" lon="7.20129">
        <ele>517</ele>
        <time>2023-05-27T08:41:15Z</time>
      </trkpt>
      <trkpt lat="47.92676" lon="7.20115">
        <ele>516</ele>
        <time>2023-05-27T08:41:27Z</time>
      </trkpt>
      <trkpt lat="47.92679" lon="7.20103">
        <ele>515</ele>
        <time>2023-05-27T08:41:42Z</time>
      </trkpt>
      <trkpt lat="47.92682" lon="7.20089">
        <ele>514</ele>
        <time>2023-05-27T08:41:52Z</time>
      </trkpt>
      <trkpt lat="47.92687" lon="7.20078">
        <ele>512</ele>
        <time>2023-05-27T08:42:01Z</time>
      </trkpt>
      <trkpt lat="47.92688" lon="7.20064">
        <ele>512</ele>
        <time>2023-05-27T08:42:12Z</time>
      </trkpt>
      <trkpt lat="47.92695" lon="7.20054">
        <ele>511</ele>
        <time>2023-05-27T08:42:24Z</time>
      </trkpt>
      <trkpt lat="47.92703" lon="7.20046">
        <ele>512</ele>
        <time>2023-05-27T08:42:38Z</time>
      </trkpt>
      <trkpt lat="47.92707" lon="7.20034">
        <ele>513</ele>
        <time>2023-05-27T08:42:54Z</time>
      </trkpt>
      <trkpt lat="47.92706" lon="7.20021">
        <ele>510</ele>
        <time>2023-05-27T08:43:23Z</time>
      </trkpt>
      <trkpt lat="47.92708" lon="7.20007">
        <ele>509</ele>
        <time>2023-05-27T08:43:36Z</time>
      </trkpt>
      <trkpt lat="47.92716" lon="7.20002">
        <ele>508</ele>
        <time>2023-05-27T08:43:45Z</time>
      </trkpt>
      <trkpt lat="47.92725" lon="7.19999">
        <ele>507</ele>
        <time>2023-05-27T08:43:53Z</time>
      </trkpt>
      <trkpt lat="47.92733" lon="7.19993">
        <ele>507</ele>
        <time>2023-05-27T08:44:04Z</time>
      </trkpt>
      <trkpt lat="47.92742" lon="7.19991">
        <ele>506</ele>
        <time>2023-05-27T08:44:16Z</time>
      </trkpt>
      <trkpt lat="47.92751" lon="7.19985">
        <ele>505</ele>
        <time>2023-05-27T08:44:32Z</time>
      </trkpt>
      <trkpt lat="47.92754" lon="7.19973">
        <ele>505</ele>
        <time>2023-05-27T08:44:43Z</time>
      </trkpt>
      <trkpt lat="47.9276" lon="7.19963">
        <ele>504</ele>
        <time>2023-05-27T08:44:55Z</time>
      </trkpt>
      <trkpt lat="47.92767" lon="7.19952">
        <ele>504</ele>
        <time>2023-05-27T08:45:04Z</time>
      </trkpt>
      <trkpt lat="47.92777" lon="7.19948">
        <ele>504</ele>
        <time>2023-05-27T08:45:13Z</time>
      </trkpt>
      <trkpt lat="47.92786" lon="7.19944">
        <ele>504</ele>
        <time>2023-05-27T08:45:23Z</time>
      </trkpt>
      <trkpt lat="47.92795" lon="7.19943">
        <ele>504</ele>
        <time>2023-05-27T08:45:38Z</time>
      </trkpt>
      <trkpt lat="47.92805" lon="7.19943">
        <ele>504</ele>
        <time>2023-05-27T08:45:49Z</time>
      </trkpt>
      <trkpt lat="47.92813" lon="7.19939">
        <ele>504</ele>
        <time>2023-05-27T08:45:58Z</time>
      </trkpt>
      <trkpt lat="47.92821" lon="7.1993">
        <ele>504</ele>
        <time>2023-05-27T08:46:07Z</time>
      </trkpt>
      <trkpt lat="47.92829" lon="7.19927">
        <ele>503</ele>
        <time>2023-05-27T08:46:20Z</time>
      </trkpt>
      <trkpt lat="47.92835" lon="7.19931">
        <ele>503</ele>
        <time>2023-05-27T08:46:36Z</time>
      </trkpt>
      <trkpt lat="47.92844" lon="7.19935">
        <ele>503</ele>
        <time>2023-05-27T08:47:10Z</time>
      </trkpt>
      <trkpt lat="47.92851" lon="7.19943">
        <ele>503</ele>
        <time>2023-05-27T08:47:20Z</time>
      </trkpt>
      <trkpt lat="47.92859" lon="7.1995">
        <ele>503</ele>
        <time>2023-05-27T08:47:33Z</time>
      </trkpt>
      <trkpt lat="47.92868" lon="7.1995">
        <ele>504</ele>
        <time>2023-05-27T08:47:45Z</time>
      </trkpt>
      <trkpt lat="47.92872" lon="7.1994">
        <ele>504</ele>
        <time>2023-05-27T08:47:58Z</time>
      </trkpt>
      <trkpt lat="47.92871" lon="7.19926">
        <ele>503</ele>
        <time>2023-05-27T08:48:14Z</time>
      </trkpt>
      <trkpt lat="47.92875" lon="7.19914">
        <ele>503</ele>
        <time>2023-05-27T08:48:29Z</time>
      </trkpt>
      <trkpt lat="47.9287" lon="7.19904">
        <ele>504</ele>
        <time>2023-05-27T08:49:03Z</time>
      </trkpt>
      <trkpt lat="47.92861" lon="7.199">
        <ele>504</ele>
        <time>2023-05-27T08:49:16Z</time>
      </trkpt>
      <trkpt lat="47.92851" lon="7.19897">
        <ele>504</ele>
        <time>2023-05-27T08:49:26Z</time>
      </trkpt>
      <trkpt lat="47.92844" lon="7.19889">
        <ele>504</ele>
        <time>2023-05-27T08:49:48Z</time>
      </trkpt>
      <trkpt lat="47.92844" lon="7.19876">
        <ele>503</ele>
        <time>2023-05-27T08:50:10Z</time>
      </trkpt>
      <trkpt lat="47.92852" lon="7.19869">
        <ele>501</ele>
        <time>2023-05-27T08:50:27Z</time>
      </trkpt>
      <trkpt lat="47.92861" lon="7.19866">
        <ele>499</ele>
        <time>2023-05-27T08:50:41Z</time>
      </trkpt>
      <trkpt lat="47.92867" lon="7.19862">
        <ele>494</ele>
        <time>2023-05-27T08:51:03Z</time>
      </trkpt>
      <trkpt lat="47.92871" lon="7.19853">
        <ele>490</ele>
        <time>2023-05-27T08:51:25Z</time>
      </trkpt>
      <trkpt lat="47.92876" lon="7.19845">
        <ele>485</ele>
        <time>2023-05-27T08:51:50Z</time>
      </trkpt>
      <trkpt lat="47.92874" lon="7.19835">
        <ele>482</ele>
        <time>2023-05-27T08:52:06Z</time>
      </trkpt>
      <trkpt lat="47.92866" lon="7.19829">
        <ele>480</ele>
        <time>2023-05-27T08:52:19Z</time>
      </trkpt>
      <trkpt lat="47.92857" lon="7.19823">
        <ele>478</ele>
        <time>2023-05-27T08:52:31Z</time>
      </trkpt>
      <trkpt lat="47.9285" lon="7.19815">
        <ele>476</ele>
        <time>2023-05-27T08:52:41Z</time>
      </trkpt>
      <trkpt lat="47.92841" lon="7.1981">
        <ele>475</ele>
        <time>2023-05-27T08:52:52Z</time>
      </trkpt>
      <trkpt lat="47.92833" lon="7.19804">
        <ele>473</ele>
        <time>2023-05-27T08:53:04Z</time>
      </trkpt>
      <trkpt lat="47.92824" lon="7.19797">
        <ele>472</ele>
        <time>2023-05-27T08:53:16Z</time>
      </trkpt>
      <trkpt lat="47.92825" lon="7.19784">
        <ele>470</ele>
        <time>2023-05-27T08:53:28Z</time>
      </trkpt>
      <trkpt lat="47.92832" lon="7.19774">
        <ele>468</ele>
        <time>2023-05-27T08:53:42Z</time>
      </trkpt>
      <trkpt lat="47.92831" lon="7.19762">
        <ele>464</ele>
        <time>2023-05-27T08:54:07Z</time>
      </trkpt>
      <trkpt lat="47.92837" lon="7.1975">
        <ele>462</ele>
        <time>2023-05-27T08:54:21Z</time>
      </trkpt>
      <trkpt lat="47.92845" lon="7.19742">
        <ele>461</ele>
        <time>2023-05-27T08:54:31Z</time>
      </trkpt>
      <trkpt lat="47.92854" lon="7.19743">
        <ele>459</ele>
        <time>2023-05-27T08:54:42Z</time>
      </trkpt>
      <trkpt lat="47.92864" lon="7.19741">
        <ele>456</ele>
        <time>2023-05-27T08:55:01Z</time>
      </trkpt>
      <trkpt lat="47.92868" lon="7.19729">
        <ele>453</ele>
        <time>2023-05-27T08:55:17Z</time>
      </trkpt>
      <trkpt lat="47.92875" lon="7.19723">
        <ele>450</ele>
        <time>2023-05-27T08:55:38Z</time>
      </trkpt>
      <trkpt lat="47.92869" lon="7.19713">
        <ele>448</ele>
        <time>2023-05-27T08:55:53Z</time>
      </trkpt>
      <trkpt lat="47.92866" lon="7.19702">
        <ele>446</ele>
        <time>2023-05-27T08:56:06Z</time>
      </trkpt>
      <trkpt lat="47.92875" lon="7.19703">
        <ele>445</ele>
        <time>2023-05-27T08:56:21Z</time>
      </trkpt>
      <trkpt lat="47.92884" lon="7.19707">
        <ele>444</ele>
        <time>2023-05-27T08:56:33Z</time>
      </trkpt>
      <trkpt lat="47.92894" lon="7.19712">
        <ele>444</ele>
        <time>2023-05-27T08:56:44Z</time>
      </trkpt>
      <trkpt lat="47.92902" lon="7.19714">
        <ele>444</ele>
        <time>2023-05-27T08:56:54Z</time>
      </trkpt>
      <trkpt lat="47.92912" lon="7.19715">
        <ele>444</ele>
        <time>2023-05-27T08:57:07Z</time>
      </trkpt>
      <trkpt lat="47.92921" lon="7.19717">
        <ele>445</ele>
        <time>2023-05-27T08:57:16Z</time>
      </trkpt>
      <trkpt lat="47.9293" lon="7.19721">
        <ele>445</ele>
        <time>2023-05-27T08:57:25Z</time>
      </trkpt>
      <trkpt lat="47.92939" lon="7.19726">
        <ele>445</ele>
        <time>2023-05-27T08:57:35Z</time>
      </trkpt>
      <trkpt lat="47.92948" lon="7.19732">
        <ele>445</ele>
        <time>2023-05-27T08:57:43Z</time>
      </trkpt>
      <trkpt lat="47.92957" lon="7.19731">
        <ele>446</ele>
        <time>2023-05-27T08:57:59Z</time>
      </trkpt>
      <trkpt lat="47.92966" lon="7.19727">
        <ele>446</ele>
        <time>2023-05-27T08:58:14Z</time>
      </trkpt>
      <trkpt lat="47.92972" lon="7.19717">
        <ele>445</ele>
        <time>2023-05-27T08:58:27Z</time>
      </trkpt>
      <trkpt lat="47.92976" lon="7.19704">
        <ele>444</ele>
        <time>2023-05-27T08:58:38Z</time>
      </trkpt>
      <trkpt lat="47.92975" lon="7.19693">
        <ele>440</ele>
        <time>2023-05-27T08:59:09Z</time>
      </trkpt>
      <trkpt lat="47.92965" lon="7.1969">
        <ele>438</ele>
        <time>2023-05-27T08:59:22Z</time>
      </trkpt>
      <trkpt lat="47.92957" lon="7.19688">
        <ele>436</ele>
        <time>2023-05-27T08:59:33Z</time>
      </trkpt>
      <trkpt lat="47.92948" lon="7.19683">
        <ele>434</ele>
        <time>2023-05-27T09:00:36Z</time>
      </trkpt>
      <trkpt lat="47.9294" lon="7.19677">
        <ele>433</ele>
        <time>2023-05-27T09:00:49Z</time>
      </trkpt>
      <trkpt lat="47.92931" lon="7.19674">
        <ele>433</ele>
        <time>2023-05-27T09:01:00Z</time>
      </trkpt>
      <trkpt lat="47.92922" lon="7.19668">
        <ele>432</ele>
        <time>2023-05-27T09:01:11Z</time>
      </trkpt>
      <trkpt lat="47.92917" lon="7.19655">
        <ele>431</ele>
        <time>2023-05-27T09:01:20Z</time>
      </trkpt>
      <trkpt lat="47.9291" lon="7.19647">
        <ele>430</ele>
        <time>2023-05-27T09:01:29Z</time>
      </trkpt>
      <trkpt lat="47.92903" lon="7.19638">
        <ele>427</ele>
        <time>2023-05-27T09:02:00Z</time>
      </trkpt>
      <trkpt lat="47.92896" lon="7.19628">
        <ele>426</ele>
        <time>2023-05-27T09:02:11Z</time>
      </trkpt>
      <trkpt lat="47.92891" lon="7.19619">
        <ele>425</ele>
        <time>2023-05-27T09:02:23Z</time>
      </trkpt>
      <trkpt lat="47.92891" lon="7.19606">
        <ele>423</ele>
        <time>2023-05-27T09:02:51Z</time>
      </trkpt>
      <trkpt lat="47.92895" lon="7.19594">
        <ele>421</ele>
        <time>2023-05-27T09:03:13Z</time>
      </trkpt>
      <trkpt lat="47.92903" lon="7.19588">
        <ele>421</ele>
        <time>2023-05-27T09:03:25Z</time>
      </trkpt>
      <trkpt lat="47.92912" lon="7.19586">
        <ele>419</ele>
        <time>2023-05-27T09:03:55Z</time>
      </trkpt>
      <trkpt lat="47.9292" lon="7.1958">
        <ele>419</ele>
        <time>2023-05-27T09:04:07Z</time>
      </trkpt>
      <trkpt lat="47.9293" lon="7.19579">
        <ele>417</ele>
        <time>2023-05-27T09:04:19Z</time>
      </trkpt>
      <trkpt lat="47.92939" lon="7.19576">
        <ele>417</ele>
        <time>2023-05-27T09:04:29Z</time>
      </trkpt>
      <trkpt lat="47.92947" lon="7.19568">
        <ele>416</ele>
        <time>2023-05-27T09:04:37Z</time>
      </trkpt>
      <trkpt lat="47.92953" lon="7.19558">
        <ele>415</ele>
        <time>2023-05-27T09:04:46Z</time>
      </trkpt>
      <trkpt lat="47.92959" lon="7.19546">
        <ele>414</ele>
        <time>2023-05-27T09:04:55Z</time>
      </trkpt>
      <trkpt lat="47.92963" lon="7.19534">
        <ele>414</ele>
        <time>2023-05-27T09:05:04Z</time>
      </trkpt>
      <trkpt lat="47.92967" lon="7.19523">
        <ele>413</ele>
        <time>2023-05-27T09:05:13Z</time>
      </trkpt>
      <trkpt lat="47.92974" lon="7.19513">
        <ele>413</ele>
        <time>2023-05-27T09:05:23Z</time>
      </trkpt>
      <trkpt lat="47.92979" lon="7.19501">
        <ele>413</ele>
        <time>2023-05-27T09:05:32Z</time>
      </trkpt>
      <trkpt lat="47.92982" lon="7.19488">
        <ele>413</ele>
        <time>2023-05-27T09:05:42Z</time>
      </trkpt>
      <trkpt lat="47.92985" lon="7.19474">
        <ele>413</ele>
        <time>2023-05-27T09:05:51Z</time>
      </trkpt>
      <trkpt lat="47.92989" lon="7.19462">
        <ele>413</ele>
        <time>2023-05-27T09:06:00Z</time>
      </trkpt>
      <trkpt lat="47.92993" lon="7.19448">
        <ele>412</ele>
        <time>2023-05-27T09:06:08Z</time>
      </trkpt>
      <trkpt lat="47.92997" lon="7.19437">
        <ele>412</ele>
        <time>2023-05-27T09:06:16Z</time>
      </trkpt>
      <trkpt lat="47.93002" lon="7.19424">
        <ele>412</ele>
        <time>2023-05-27T09:06:26Z</time>
      </trkpt>
      <trkpt lat="47.93005" lon="7.1941">
        <ele>411</ele>
        <time>2023-05-27T09:06:35Z</time>
      </trkpt>
      <trkpt lat="47.93009" lon="7.19398">
        <ele>411</ele>
        <time>2023-05-27T09:06:43Z</time>
      </trkpt>
      <trkpt lat="47.93015" lon="7.19387">
        <ele>411</ele>
        <time>2023-05-27T09:06:52Z</time>
      </trkpt>
      <trkpt lat="47.93021" lon="7.19377">
        <ele>411</ele>
        <time>2023-05-27T09:07:01Z</time>
      </trkpt>
      <trkpt lat="47.93028" lon="7.19366">
        <ele>411</ele>
        <time>2023-05-27T09:07:10Z</time>
      </trkpt>
      <trkpt lat="47.93036" lon="7.19358">
        <ele>410</ele>
        <time>2023-05-27T09:07:50Z</time>
      </trkpt>
      <trkpt lat="47.9304" lon="7.19347">
        <ele>410</ele>
        <time>2023-05-27T09:08:02Z</time>
      </trkpt>
      <trkpt lat="47.93046" lon="7.19336">
        <ele>410</ele>
        <time>2023-05-27T09:08:14Z</time>
      </trkpt>
      <trkpt lat="47.93052" lon="7.19325">
        <ele>410</ele>
        <time>2023-05-27T09:08:25Z</time>
      </trkpt>
      <trkpt lat="47.9306" lon="7.19316">
        <ele>409</ele>
        <time>2023-05-27T09:08:37Z</time>
      </trkpt>
      <trkpt lat="47.93068" lon="7.19307">
        <ele>408</ele>
        <time>2023-05-27T09:08:48Z</time>
      </trkpt>
      <trkpt lat="47.93076" lon="7.193">
        <ele>408</ele>
        <time>2023-05-27T09:08:58Z</time>
      </trkpt>
      <trkpt lat="47.93084" lon="7.1929">
        <ele>407</ele>
        <time>2023-05-27T09:09:11Z</time>
      </trkpt>
      <trkpt lat="47.93092" lon="7.19283">
        <ele>407</ele>
        <time>2023-05-27T09:09:20Z</time>
      </trkpt>
      <trkpt lat="47.93099" lon="7.19273">
        <ele>407</ele>
        <time>2023-05-27T09:09:30Z</time>
      </trkpt>
      <trkpt lat="47.93106" lon="7.19263">
        <ele>406</ele>
        <time>2023-05-27T09:09:40Z</time>
      </trkpt>
      <trkpt lat="47.93113" lon="7.19254">
        <ele>405</ele>
        <time>2023-05-27T09:09:48Z</time>
      </trkpt>
      <trkpt lat="47.93121" lon="7.19245">
        <ele>405</ele>
        <time>2023-05-27T09:09:57Z</time>
      </trkpt>
      <trkpt lat="47.93128" lon="7.19236">
        <ele>404</ele>
        <time>2023-05-27T09:10:06Z</time>
      </trkpt>
      <trkpt lat="47.93135" lon="7.19228">
        <ele>404</ele>
        <time>2023-05-27T09:10:14Z</time>
      </trkpt>
      <trkpt lat="47.93143" lon="7.19219">
        <ele>403</ele>
        <time>2023-05-27T09:10:24Z</time>
      </trkpt>
      <trkpt lat="47.93151" lon="7.1921">
        <ele>403</ele>
        <time>2023-05-27T09:10:34Z</time>
      </trkpt>
      <trkpt lat="47.93158" lon="7.19202">
        <ele>402</ele>
        <time>2023-05-27T09:10:45Z</time>
      </trkpt>
      <trkpt lat="47.93165" lon="7.19191">
        <ele>401</ele>
        <time>2023-05-27T09:10:54Z</time>
      </trkpt>
      <trkpt lat="47.93169" lon="7.19179">
        <ele>401</ele>
        <time>2023-05-27T09:11:05Z</time>
      </trkpt>
      <trkpt lat="47.93176" lon="7.19167">
        <ele>400</ele>
        <time>2023-05-27T09:11:16Z</time>
      </trkpt>
      <trkpt lat="47.93182" lon="7.19158">
        <ele>399</ele>
        <time>2023-05-27T09:11:26Z</time>
      </trkpt>
      <trkpt lat="47.93188" lon="7.19147">
        <ele>398</ele>
        <time>2023-05-27T09:11:35Z</time>
      </trkpt>
      <trkpt lat="47.93195" lon="7.19136">
        <ele>398</ele>
        <time>2023-05-27T09:11:44Z</time>
      </trkpt>
      <trkpt lat="47.93202" lon="7.19127">
        <ele>398</ele>
        <time>2023-05-27T09:11:52Z</time>
      </trkpt>
      <trkpt lat="47.93208" lon="7.19117">
        <ele>397</ele>
        <time>2023-05-27T09:12:02Z</time>
      </trkpt>
      <trkpt lat="47.93216" lon="7.19108">
        <ele>396</ele>
        <time>2023-05-27T09:12:12Z</time>
      </trkpt>
      <trkpt lat="47.93224" lon="7.191">
        <ele>396</ele>
        <time>2023-05-27T09:12:20Z</time>
      </trkpt>
      <trkpt lat="47.93232" lon="7.19094">
        <ele>395</ele>
        <time>2023-05-27T09:12:28Z</time>
      </trkpt>
      <trkpt lat="47.9324" lon="7.19086">
        <ele>394</ele>
        <time>2023-05-27T09:12:36Z</time>
      </trkpt>
      <trkpt lat="47.93249" lon="7.19079">
        <ele>394</ele>
        <time>2023-05-27T09:12:45Z</time>
      </trkpt>
      <trkpt lat="47.93256" lon="7.19072">
        <ele>393</ele>
        <time>2023-05-27T09:12:53Z</time>
      </trkpt>
      <trkpt lat="47.93265" lon="7.19065">
        <ele>392</ele>
        <time>2023-05-27T09:13:03Z</time>
      </trkpt>
      <trkpt lat="47.93272" lon="7.19057">
        <ele>390</ele>
        <time>2023-05-27T09:13:13Z</time>
      </trkpt>
      <trkpt lat="47.9328" lon="7.19049">
        <ele>390</ele>
        <time>2023-05-27T09:13:22Z</time>
      </trkpt>
      <trkpt lat="47.93288" lon="7.19041">
        <ele>389</ele>
        <time>2023-05-27T09:13:31Z</time>
      </trkpt>
      <trkpt lat="47.93297" lon="7.19033">
        <ele>388</ele>
        <time>2023-05-27T09:13:38Z</time>
      </trkpt>
      <trkpt lat="47.93304" lon="7.19026">
        <ele>387</ele>
        <time>2023-05-27T09:13:46Z</time>
      </trkpt>
      <trkpt lat="47.93312" lon="7.19018">
        <ele>386</ele>
        <time>2023-05-27T09:13:56Z</time>
      </trkpt>
      <trkpt lat="47.93319" lon="7.19008">
        <ele>385</ele>
        <time>2023-05-27T09:14:07Z</time>
      </trkpt>
      <trkpt lat="47.93322" lon="7.18995">
        <ele>384</ele>
        <time>2023-05-27T09:14:22Z</time>
      </trkpt>
      <trkpt lat="47.93324" lon="7.18981">
        <ele>382</ele>
        <time>2023-05-27T09:14:33Z</time>
      </trkpt>
      <trkpt lat="47.93324" lon="7.18967">
        <ele>381</ele>
        <time>2023-05-27T09:14:43Z</time>
      </trkpt>
      <trkpt lat="47.93326" lon="7.18954">
        <ele>381</ele>
        <time>2023-05-27T09:14:51Z</time>
      </trkpt>
      <trkpt lat="47.93324" lon="7.18941">
        <ele>380</ele>
        <time>2023-05-27T09:15:00Z</time>
      </trkpt>
      <trkpt lat="47.93325" lon="7.18927">
        <ele>379</ele>
        <time>2023-05-27T09:15:09Z</time>
      </trkpt>
      <trkpt lat="47.93326" lon="7.18913">
        <ele>378</ele>
        <time>2023-05-27T09:15:18Z</time>
      </trkpt>
      <trkpt lat="47.93327" lon="7.189">
        <ele>377</ele>
        <time>2023-05-27T09:15:28Z</time>
      </trkpt>
      <trkpt lat="47.93329" lon="7.18887">
        <ele>376</ele>
        <time>2023-05-27T09:15:38Z</time>
      </trkpt>
      <trkpt lat="47.93331" lon="7.18873">
        <ele>375</ele>
        <time>2023-05-27T09:15:48Z</time>
      </trkpt>
      <trkpt lat="47.93333" lon="7.18859">
        <ele>374</ele>
        <time>2023-05-27T09:15:58Z</time>
      </trkpt>
      <trkpt lat="47.93335" lon="7.18845">
        <ele>373</ele>
        <time>2023-05-27T09:16:08Z</time>
      </trkpt>
      <trkpt lat="47.93338" lon="7.18831">
        <ele>371</ele>
        <time>2023-05-27T09:16:18Z</time>
      </trkpt>
      <trkpt lat="47.93341" lon="7.18818">
        <ele>370</ele>
        <time>2023-05-27T09:16:28Z</time>
      </trkpt>
      <trkpt lat="47.93343" lon="7.18804">
        <ele>370</ele>
        <time>2023-05-27T09:16:38Z</time>
      </trkpt>
      <trkpt lat="47.93347" lon="7.18791">
        <ele>369</ele>
        <time>2023-05-27T09:16:50Z</time>
      </trkpt>
      <trkpt lat="47.9335" lon="7.18778">
        <ele>368</ele>
        <time>2023-05-27T09:17:00Z</time>
      </trkpt>
      <trkpt lat="47.93355" lon="7.18766">
        <ele>367</ele>
        <time>2023-05-27T09:17:09Z</time>
      </trkpt>
      <trkpt lat="47.93363" lon="7.18758">
        <ele>367</ele>
        <time>2023-05-27T09:17:19Z</time>
      </trkpt>
      <trkpt lat="47.93371" lon="7.18752">
        <ele>367</ele>
        <time>2023-05-27T09:17:29Z</time>
      </trkpt>
      <trkpt lat="47.93379" lon="7.18743">
        <ele>367</ele>
        <time>2023-05-27T09:17:39Z</time>
      </trkpt>
      <trkpt lat="47.93385" lon="7.18734">
        <ele>368</ele>
        <time>2023-05-27T09:17:48Z</time>
      </trkpt>
      <trkpt lat="47.93393" lon="7.18726">
        <ele>368</ele>
        <time>2023-05-27T09:17:58Z</time>
      </trkpt>
      <trkpt lat="47.93401" lon="7.18718">
        <ele>369</ele>
        <time>2023-05-27T09:18:10Z</time>
      </trkpt>
      <trkpt lat="47.93409" lon="7.18711">
        <ele>369</ele>
        <time>2023-05-27T09:18:21Z</time>
      </trkpt>
      <trkpt lat="47.93417" lon="7.18703">
        <ele>370</ele>
        <time>2023-05-27T09:18:41Z</time>
      </trkpt>
      <trkpt lat="47.93425" lon="7.18696">
        <ele>371</ele>
        <time>2023-05-27T09:18:53Z</time>
      </trkpt>
      <trkpt lat="47.93434" lon="7.18691">
        <ele>371</ele>
        <time>2023-05-27T09:19:05Z</time>
      </trkpt>
      <trkpt lat="47.93443" lon="7.18684">
        <ele>373</ele>
        <time>2023-05-27T09:19:31Z</time>
      </trkpt>
      <trkpt lat="47.93452" lon="7.18681">
        <ele>374</ele>
        <time>2023-05-27T09:19:41Z</time>
      </trkpt>
      <trkpt lat="47.93461" lon="7.18677">
        <ele>374</ele>
        <time>2023-05-27T09:19:52Z</time>
      </trkpt>
      <trkpt lat="47.9347" lon="7.1868">
        <ele>375</ele>
        <time>2023-05-27T09:20:01Z</time>
      </trkpt>
      <trkpt lat="47.9348" lon="7.18679">
        <ele>375</ele>
        <time>2023-05-27T09:20:09Z</time>
      </trkpt>
      <trkpt lat="47.93489" lon="7.18679">
        <ele>376</ele>
        <time>2023-05-27T09:20:18Z</time>
      </trkpt>
      <trkpt lat="47.93498" lon="7.18677">
        <ele>377</ele>
        <time>2023-05-27T09:20:29Z</time>
      </trkpt>
      <trkpt lat="47.93506" lon="7.1867">
        <ele>378</ele>
        <time>2023-05-27T09:20:39Z</time>
      </trkpt>
      <trkpt lat="47.93515" lon="7.18664">
        <ele>378</ele>
        <time>2023-05-27T09:20:48Z</time>
      </trkpt>
      <trkpt lat="47.93524" lon="7.18659">
        <ele>378</ele>
        <time>2023-05-27T09:20:57Z</time>
      </trkpt>
      <trkpt lat="47.93533" lon="7.18654">
        <ele>378</ele>
        <time>2023-05-27T09:21:06Z</time>
      </trkpt>
      <trkpt lat="47.93541" lon="7.18646">
        <ele>378</ele>
        <time>2023-05-27T09:21:15Z</time>
      </trkpt>
      <trkpt lat="47.9355" lon="7.1864">
        <ele>378</ele>
        <time>2023-05-27T09:21:24Z</time>
      </trkpt>
      <trkpt lat="47.93559" lon="7.18636">
        <ele>378</ele>
        <time>2023-05-27T09:21:32Z</time>
      </trkpt>
      <trkpt lat="47.93569" lon="7.18631">
        <ele>377</ele>
        <time>2023-05-27T09:21:40Z</time>
      </trkpt>
      <trkpt lat="47.93578" lon="7.18627">
        <ele>377</ele>
        <time>2023-05-27T09:21:48Z</time>
      </trkpt>
      <trkpt lat="47.93587" lon="7.18623">
        <ele>377</ele>
        <time>2023-05-27T09:21:56Z</time>
      </trkpt>
      <trkpt lat="47.93597" lon="7.1862">
        <ele>377</ele>
        <time>2023-05-27T09:22:04Z</time>
      </trkpt>
      <trkpt lat="47.93606" lon="7.18618">
        <ele>377</ele>
        <time>2023-05-27T09:22:11Z</time>
      </trkpt>
      <trkpt lat="47.93616" lon="7.18618">
        <ele>377</ele>
        <time>2023-05-27T09:22:18Z</time>
      </trkpt>
      <trkpt lat="47.93626" lon="7.18619">
        <ele>377</ele>
        <time>2023-05-27T09:22:26Z</time>
      </trkpt>
      <trkpt lat="47.93635" lon="7.1862">
        <ele>377</ele>
        <time>2023-05-27T09:22:34Z</time>
      </trkpt>
      <trkpt lat="47.93644" lon="7.18622">
        <ele>377</ele>
        <time>2023-05-27T09:22:41Z</time>
      </trkpt>
      <trkpt lat="47.93654" lon="7.18623">
        <ele>377</ele>
        <time>2023-05-27T09:22:49Z</time>
      </trkpt>
      <trkpt lat="47.93663" lon="7.18626">
        <ele>377</ele>
        <time>2023-05-27T09:22:57Z</time>
      </trkpt>
      <trkpt lat="47.93673" lon="7.1863">
        <ele>377</ele>
        <time>2023-05-27T09:23:06Z</time>
      </trkpt>
      <trkpt lat="47.93682" lon="7.18633">
        <ele>377</ele>
        <time>2023-05-27T09:23:14Z</time>
      </trkpt>
      <trkpt lat="47.93691" lon="7.18637">
        <ele>377</ele>
        <time>2023-05-27T09:23:23Z</time>
      </trkpt>
      <trkpt lat="47.937" lon="7.18639">
        <ele>378</ele>
        <time>2023-05-27T09:23:33Z</time>
      </trkpt>
      <trkpt lat="47.9371" lon="7.18643">
        <ele>378</ele>
        <time>2023-05-27T09:23:42Z</time>
      </trkpt>
      <trkpt lat="47.93719" lon="7.18648">
        <ele>378</ele>
        <time>2023-05-27T09:23:52Z</time>
      </trkpt>
      <trkpt lat="47.93728" lon="7.18652">
        <ele>379</ele>
        <time>2023-05-27T09:24:01Z</time>
      </trkpt>
      <trkpt lat="47.93738" lon="7.18656">
        <ele>379</ele>
        <time>2023-05-27T09:24:12Z</time>
      </trkpt>
      <trkpt lat="47.93747" lon="7.18659">
        <ele>380</ele>
        <time>2023-05-27T09:24:23Z</time>
      </trkpt>
      <trkpt lat="47.93756" lon="7.18666">
        <ele>381</ele>
        <time>2023-05-27T09:24:35Z</time>
      </trkpt>
      <trkpt lat="47.93764" lon="7.18671">
        <ele>381</ele>
        <time>2023-05-27T09:24:46Z</time>
      </trkpt>
      <trkpt lat="47.93773" lon="7.18675">
        <ele>382</ele>
        <time>2023-05-27T09:24:56Z</time>
      </trkpt>
      <trkpt lat="47.93783" lon="7.18678">
        <ele>383</ele>
        <time>2023-05-27T09:25:04Z</time>
      </trkpt>
      <trkpt lat="47.93792" lon="7.18681">
        <ele>383</ele>
        <time>2023-05-27T09:25:13Z</time>
      </trkpt>
      <trkpt lat="47.93802" lon="7.18684">
        <ele>384</ele>
        <time>2023-05-27T09:25:22Z</time>
      </trkpt>
      <trkpt lat="47.93811" lon="7.18688">
        <ele>384</ele>
        <time>2023-05-27T09:25:31Z</time>
      </trkpt>
      <trkpt lat="47.9382" lon="7.18691">
        <ele>385</ele>
        <time>2023-05-27T09:25:40Z</time>
      </trkpt>
      <trkpt lat="47.93829" lon="7.18694">
        <ele>385</ele>
        <time>2023-05-27T09:25:49Z</time>
      </trkpt>
      <trkpt lat="47.93838" lon="7.18697">
        <ele>386</ele>
        <time>2023-05-27T09:25:57Z</time>
      </trkpt>
      <trkpt lat="47.93848" lon="7.187">
        <ele>386</ele>
        <time>2023-05-27T09:26:06Z</time>
      </trkpt>
      <trkpt lat="47.93857" lon="7.18702">
        <ele>386</ele>
        <time>2023-05-27T09:26:15Z</time>
      </trkpt>
      <trkpt lat="47.93866" lon="7.18705">
        <ele>386</ele>
        <time>2023-05-27T09:26:24Z</time>
      </trkpt>
      <trkpt lat="47.93875" lon="7.18711">
        <ele>387</ele>
        <time>2023-05-27T09:26:33Z</time>
      </trkpt>
      <trkpt lat="47.93883" lon="7.18718">
        <ele>387</ele>
        <time>2023-05-27T09:26:41Z</time>
      </trkpt>
      <trkpt lat="47.93892" lon="7.18722">
        <ele>387</ele>
        <time>2023-05-27T09:26:49Z</time>
      </trkpt>
      <trkpt lat="47.93901" lon="7.18727">
        <ele>387</ele>
        <time>2023-05-27T09:26:57Z</time>
      </trkpt>
      <trkpt lat="47.9391" lon="7.18731">
        <ele>387</ele>
        <time>2023-05-27T09:27:06Z</time>
      </trkpt>
      <trkpt lat="47.93919" lon="7.18735">
        <ele>387</ele>
        <time>2023-05-27T09:27:15Z</time>
      </trkpt>
      <trkpt lat="47.93928" lon="7.18734">
        <ele>387</ele>
        <time>2023-05-27T09:27:24Z</time>
      </trkpt>
      <trkpt lat="47.93937" lon="7.18734">
        <ele>387</ele>
        <time>2023-05-27T09:27:34Z</time>
      </trkpt>
      <trkpt lat="47.93946" lon="7.18734">
        <ele>387</ele>
        <time>2023-05-27T09:27:43Z</time>
      </trkpt>
      <trkpt lat="47.93955" lon="7.18735">
        <ele>387</ele>
        <time>2023-05-27T09:27:52Z</time>
      </trkpt>
      <trkpt lat="47.93965" lon="7.18734">
        <ele>387</ele>
        <time>2023-05-27T09:28:02Z</time>
      </trkpt>
      <trkpt lat="47.93974" lon="7.18735">
        <ele>388</ele>
        <time>2023-05-27T09:28:13Z</time>
      </trkpt>
      <trkpt lat="47.93982" lon="7.1874">
        <ele>388</ele>
        <time>2023-05-27T09:28:24Z</time>
      </trkpt>
      <trkpt lat="47.93991" lon="7.18746">
        <ele>388</ele>
        <time>2023-05-27T09:28:35Z</time>
      </trkpt>
      <trkpt lat="47.94" lon="7.18752">
        <ele>389</ele>
        <time>2023-05-27T09:28:46Z</time>
      </trkpt>
      <trkpt lat="47.94009" lon="7.18754">
        <ele>389</ele>
        <time>2023-05-27T09:28:54Z</time>
      </trkpt>
      <trkpt lat="47.94018" lon="7.18754">
        <ele>390</ele>
        <time>2023-05-27T09:29:04Z</time>
      </trkpt>
      <trkpt lat="47.94027" lon="7.18752">
        <ele>391</ele>
        <time>2023-05-27T09:29:14Z</time>
      </trkpt>
      <trkpt lat="47.94037" lon="7.18754">
        <ele>391</ele>
        <time>2023-05-27T09:29:24Z</time>
      </trkpt>
      <trkpt lat="47.94046" lon="7.18753">
        <ele>392</ele>
        <time>2023-05-27T09:29:34Z</time>
      </trkpt>
      <trkpt lat="47.94056" lon="7.18752">
        <ele>393</ele>
        <time>2023-05-27T09:29:45Z</time>
      </trkpt>
      <trkpt lat="47.94064" lon="7.18752">
        <ele>394</ele>
        <time>2023-05-27T09:29:54Z</time>
      </trkpt>
      <trkpt lat="47.94074" lon="7.18754">
        <ele>394</ele>
        <time>2023-05-27T09:30:03Z</time>
      </trkpt>
      <trkpt lat="47.94083" lon="7.18756">
        <ele>395</ele>
        <time>2023-05-27T09:30:12Z</time>
      </trkpt>
      <trkpt lat="47.94092" lon="7.18755">
        <ele>396</ele>
        <time>2023-05-27T09:30:21Z</time>
      </trkpt>
      <trkpt lat="47.94101" lon="7.18752">
        <ele>396</ele>
        <time>2023-05-27T09:30:31Z</time>
      </trkpt>
      <trkpt lat="47.9411" lon="7.18748">
        <ele>397</ele>
        <time>2023-05-27T09:30:40Z</time>
      </trkpt>
      <trkpt lat="47.94119" lon="7.18744">
        <ele>397</ele>
        <time>2023-05-27T09:30:51Z</time>
      </trkpt>
      <trkpt lat="47.94128" lon="7.1874">
        <ele>398</ele>
        <time>2023-05-27T09:31:03Z</time>
      </trkpt>
      <trkpt lat="47.94137" lon="7.18738">
        <ele>399</ele>
        <time>2023-05-27T09:31:14Z</time>
      </trkpt>
      <trkpt lat="47.94147" lon="7.18737">
        <ele>399</ele>
        <time>2023-05-27T09:31:23Z</time>
      </trkpt>
      <trkpt lat="47.94156" lon="7.18738">
        <ele>400</ele>
        <time>2023-05-27T09:31:31Z</time>
      </trkpt>
      <trkpt lat="47.94166" lon="7.18736">
        <ele>400</ele>
        <time>2023-05-27T09:31:39Z</time>
      </trkpt>
      <trkpt lat="47.94175" lon="7.18736">
        <ele>401</ele>
        <time>2023-05-27T09:31:48Z</time>
      </trkpt>
      <trkpt lat="47.94185" lon="7.18736">
        <ele>401</ele>
        <time>2023-05-27T09:31:57Z</time>
      </trkpt>
      <trkpt lat="47.94194" lon="7.18737">
        <ele>402</ele>
        <time>2023-05-27T09:32:05Z</time>
      </trkpt>
      <trkpt lat="47.94203" lon="7.18738">
        <ele>402</ele>
        <time>2023-05-27T09:32:14Z</time>
      </trkpt>
      <trkpt lat="47.94213" lon="7.18739">
        <ele>403</ele>
        <time>2023-05-27T09:32:23Z</time>
      </trkpt>
      <trkpt lat="47.94222" lon="7.18739">
        <ele>403</ele>
        <time>2023-05-27T09:32:31Z</time>
      </trkpt>
      <trkpt lat="47.94231" lon="7.18738">
        <ele>404</ele>
        <time>2023-05-27T09:32:42Z</time>
      </trkpt>
      <trkpt lat="47.94241" lon="7.18739">
        <ele>404</ele>
        <time>2023-05-27T09:32:51Z</time>
      </trkpt>
      <trkpt lat="47.9425" lon="7.18738">
        <ele>405</ele>
        <time>2023-05-27T09:32:59Z</time>
      </trkpt>
      <trkpt lat="47.9426" lon="7.18737">
        <ele>405</ele>
        <time>2023-05-27T09:33:11Z</time>
      </trkpt>
      <trkpt lat="47.94269" lon="7.1874">
        <ele>405</ele>
        <time>2023-05-27T09:33:21Z</time>
      </trkpt>
      <trkpt lat="47.94278" lon="7.1874">
        <ele>406</ele>
        <time>2023-05-27T09:33:29Z</time>
      </trkpt>
      <trkpt lat="47.94288" lon="7.18744">
        <ele>406</ele>
        <time>2023-05-27T09:33:38Z</time>
      </trkpt>
      <trkpt lat="47.94298" lon="7.18745">
        <ele>406</ele>
        <time>2023-05-27T09:33:47Z</time>
      </trkpt>
      <trkpt lat="47.94307" lon="7.18748">
        <ele>407</ele>
        <time>2023-05-27T09:33:57Z</time>
      </trkpt>
      <trkpt lat="47.94317" lon="7.18749">
        <ele>407</ele>
        <time>2023-05-27T09:34:07Z</time>
      </trkpt>
      <trkpt lat="47.94326" lon="7.1875">
        <ele>408</ele>
        <time>2023-05-27T09:34:15Z</time>
      </trkpt>
      <trkpt lat="47.94336" lon="7.18751">
        <ele>408</ele>
        <time>2023-05-27T09:34:24Z</time>
      </trkpt>
      <trkpt lat="47.94346" lon="7.18753">
        <ele>409</ele>
        <time>2023-05-27T09:34:33Z</time>
      </trkpt>
      <trkpt lat="47.94356" lon="7.18755">
        <ele>409</ele>
        <time>2023-05-27T09:34:41Z</time>
      </trkpt>
      <trkpt lat="47.94365" lon="7.18757">
        <ele>410</ele>
        <time>2023-05-27T09:34:49Z</time>
      </trkpt>
      <trkpt lat="47.94374" lon="7.1876">
        <ele>410</ele>
        <time>2023-05-27T09:34:57Z</time>
      </trkpt>
      <trkpt lat="47.94383" lon="7.18764">
        <ele>411</ele>
        <time>2023-05-27T09:35:06Z</time>
      </trkpt>
      <trkpt lat="47.94392" lon="7.18769">
        <ele>411</ele>
        <time>2023-05-27T09:35:15Z</time>
      </trkpt>
      <trkpt lat="47.94402" lon="7.18773">
        <ele>412</ele>
        <time>2023-05-27T09:35:24Z</time>
      </trkpt>
      <trkpt lat="47.94411" lon="7.18775">
        <ele>413</ele>
        <time>2023-05-27T09:35:33Z</time>
      </trkpt>
      <trkpt lat="47.9442" lon="7.18777">
        <ele>413</ele>
        <time>2023-05-27T09:35:44Z</time>
      </trkpt>
      <trkpt lat="47.94427" lon="7.18767">
        <ele>414</ele>
        <time>2023-05-27T09:36:14Z</time>
      </trkpt>
      <trkpt lat="47.94433" lon="7.18756">
        <ele>414</ele>
        <time>2023-05-27T09:36:25Z</time>
      </trkpt>
      <trkpt lat="47.9444" lon="7.18748">
        <ele>414</ele>
        <time>2023-05-27T09:36:35Z</time>
      </trkpt>
      <trkpt lat="47.94446" lon="7.18752">
        <ele>413</ele>
        <time>2023-05-27T09:38:01Z</time>
      </trkpt>
      <trkpt lat="47.9444" lon="7.18762">
        <ele>413</ele>
        <time>2023-05-27T09:38:19Z</time>
      </trkpt>
      <trkpt lat="47.94433" lon="7.18771">
        <ele>414</ele>
        <time>2023-05-27T09:38:29Z</time>
      </trkpt>
      <trkpt lat="47.94429" lon="7.18782">
        <ele>414</ele>
        <time>2023-05-27T09:38:45Z</time>
      </trkpt>
      <trkpt lat="47.94438" lon="7.18784">
        <ele>415</ele>
        <time>2023-05-27T09:38:58Z</time>
      </trkpt>
      <trkpt lat="47.94447" lon="7.18787">
        <ele>415</ele>
        <time>2023-05-27T09:39:08Z</time>
      </trkpt>
      <trkpt lat="47.94456" lon="7.18791">
        <ele>416</ele>
        <time>2023-05-27T09:39:18Z</time>
      </trkpt>
      <trkpt lat="47.94465" lon="7.18795">
        <ele>417</ele>
        <time>2023-05-27T09:39:28Z</time>
      </trkpt>
      <trkpt lat="47.94474" lon="7.18797">
        <ele>417</ele>
        <time>2023-05-27T09:39:36Z</time>
      </trkpt>
      <trkpt lat="47.94483" lon="7.18801">
        <ele>417</ele>
        <time>2023-05-27T09:39:45Z</time>
      </trkpt>
      <trkpt lat="47.94492" lon="7.18804">
        <ele>418</ele>
        <time>2023-05-27T09:39:54Z</time>
      </trkpt>
      <trkpt lat="47.94502" lon="7.18808">
        <ele>418</ele>
        <time>2023-05-27T09:40:02Z</time>
      </trkpt>
      <trkpt lat="47.9451" lon="7.18813">
        <ele>419</ele>
        <time>2023-05-27T09:40:12Z</time>
      </trkpt>
      <trkpt lat="47.94519" lon="7.18816">
        <ele>419</ele>
        <time>2023-05-27T09:40:21Z</time>
      </trkpt>
      <trkpt lat="47.94528" lon="7.18819">
        <ele>419</ele>
        <time>2023-05-27T09:40:30Z</time>
      </trkpt>
      <trkpt lat="47.94537" lon="7.18822">
        <ele>420</ele>
        <time>2023-05-27T09:40:39Z</time>
      </trkpt>
      <trkpt lat="47.94547" lon="7.18825">
        <ele>420</ele>
        <time>2023-05-27T09:40:48Z</time>
      </trkpt>
      <trkpt lat="47.94555" lon="7.1883">
        <ele>420</ele>
        <time>2023-05-27T09:40:56Z</time>
      </trkpt>
      <trkpt lat="47.94565" lon="7.18836">
        <ele>421</ele>
        <time>2023-05-27T09:41:05Z</time>
      </trkpt>
      <trkpt lat="47.94573" lon="7.18841">
        <ele>421</ele>
        <time>2023-05-27T09:41:13Z</time>
      </trkpt>
      <trkpt lat="47.94582" lon="7.18846">
        <ele>422</ele>
        <time>2023-05-27T09:41:22Z</time>
      </trkpt>
      <trkpt lat="47.94591" lon="7.18851">
        <ele>422</ele>
        <time>2023-05-27T09:41:31Z</time>
      </trkpt>
      <trkpt lat="47.946" lon="7.18854">
        <ele>422</ele>
        <time>2023-05-27T09:41:39Z</time>
      </trkpt>
      <trkpt lat="47.94609" lon="7.18858">
        <ele>423</ele>
        <time>2023-05-27T09:41:48Z</time>
      </trkpt>
      <trkpt lat="47.94618" lon="7.18862">
        <ele>424</ele>
        <time>2023-05-27T09:41:57Z</time>
      </trkpt>
      <trkpt lat="47.94628" lon="7.18864">
        <ele>424</ele>
        <time>2023-05-27T09:42:06Z</time>
      </trkpt>
      <trkpt lat="47.94637" lon="7.18865">
        <ele>424</ele>
        <time>2023-05-27T09:42:15Z</time>
      </trkpt>
      <trkpt lat="47.94646" lon="7.18866">
        <ele>425</ele>
        <time>2023-05-27T09:42:23Z</time>
      </trkpt>
      <trkpt lat="47.94656" lon="7.1887">
        <ele>425</ele>
        <time>2023-05-27T09:42:32Z</time>
      </trkpt>
      <trkpt lat="47.94664" lon="7.18878">
        <ele>426</ele>
        <time>2023-05-27T09:42:40Z</time>
      </trkpt>
      <trkpt lat="47.9467" lon="7.18889">
        <ele>426</ele>
        <time>2023-05-27T09:42:50Z</time>
      </trkpt>
      <trkpt lat="47.94677" lon="7.189">
        <ele>427</ele>
        <time>2023-05-27T09:42:59Z</time>
      </trkpt>
      <trkpt lat="47.94683" lon="7.1891">
        <ele>427</ele>
        <time>2023-05-27T09:43:07Z</time>
      </trkpt>
      <trkpt lat="47.94691" lon="7.18919">
        <ele>428</ele>
        <time>2023-05-27T09:43:16Z</time>
      </trkpt>
      <trkpt lat="47.94699" lon="7.18928">
        <ele>429</ele>
        <time>2023-05-27T09:43:25Z</time>
      </trkpt>
      <trkpt lat="47.94708" lon="7.18933">
        <ele>429</ele>
        <time>2023-05-27T09:43:35Z</time>
      </trkpt>
      <trkpt lat="47.94716" lon="7.1894">
        <ele>431</ele>
        <time>2023-05-27T09:43:49Z</time>
      </trkpt>
      <trkpt lat="47.94719" lon="7.18952">
        <ele>433</ele>
        <time>2023-05-27T09:44:25Z</time>
      </trkpt>
      <trkpt lat="47.9472" lon="7.18967">
        <ele>434</ele>
        <time>2023-05-27T09:46:32Z</time>
      </trkpt>
      <trkpt lat="47.9472" lon="7.1898">
        <ele>434</ele>
        <time>2023-05-27T09:46:44Z</time>
      </trkpt>
      <trkpt lat="47.94723" lon="7.18993">
        <ele>435</ele>
        <time>2023-05-27T09:46:58Z</time>
      </trkpt>
      <trkpt lat="47.94728" lon="7.19006">
        <ele>435</ele>
        <time>2023-05-27T09:47:09Z</time>
      </trkpt>
      <trkpt lat="47.94735" lon="7.19015">
        <ele>437</ele>
        <time>2023-05-27T09:47:22Z</time>
      </trkpt>
      <trkpt lat="47.94744" lon="7.1902">
        <ele>438</ele>
        <time>2023-05-27T09:47:35Z</time>
      </trkpt>
      <trkpt lat="47.94753" lon="7.19022">
        <ele>439</ele>
        <time>2023-05-27T09:47:45Z</time>
      </trkpt>
      <trkpt lat="47.94761" lon="7.19027">
        <ele>440</ele>
        <time>2023-05-27T09:47:54Z</time>
      </trkpt>
      <trkpt lat="47.9477" lon="7.19031">
        <ele>440</ele>
        <time>2023-05-27T09:48:03Z</time>
      </trkpt>
      <trkpt lat="47.94778" lon="7.19038">
        <ele>441</ele>
        <time>2023-05-27T09:48:11Z</time>
      </trkpt>
      <trkpt lat="47.94786" lon="7.19044">
        <ele>441</ele>
        <time>2023-05-27T09:48:20Z</time>
      </trkpt>
      <trkpt lat="47.94795" lon="7.19048">
        <ele>442</ele>
        <time>2023-05-27T09:48:30Z</time>
      </trkpt>
      <trkpt lat="47.94804" lon="7.19051">
        <ele>443</ele>
        <time>2023-05-27T09:48:40Z</time>
      </trkpt>
      <trkpt lat="47.94813" lon="7.19053">
        <ele>444</ele>
        <time>2023-05-27T09:48:49Z</time>
      </trkpt>
      <trkpt lat="47.94822" lon="7.19055">
        <ele>444</ele>
        <time>2023-05-27T09:48:58Z</time>
      </trkpt>
      <trkpt lat="47.94831" lon="7.19058">
        <ele>445</ele>
        <time>2023-05-27T09:49:09Z</time>
      </trkpt>
      <trkpt lat="47.94841" lon="7.19062">
        <ele>446</ele>
        <time>2023-05-27T09:49:19Z</time>
      </trkpt>
      <trkpt lat="47.9485" lon="7.19065">
        <ele>447</ele>
        <time>2023-05-27T09:49:30Z</time>
      </trkpt>
      <trkpt lat="47.9486" lon="7.1907">
        <ele>447</ele>
        <time>2023-05-27T09:49:40Z</time>
      </trkpt>
      <trkpt lat="47.94869" lon="7.19075">
        <ele>448</ele>
        <time>2023-05-27T09:49:49Z</time>
      </trkpt>
      <trkpt lat="47.94878" lon="7.1908">
        <ele>449</ele>
        <time>2023-05-27T09:49:58Z</time>
      </trkpt>
      <trkpt lat="47.94886" lon="7.19085">
        <ele>449</ele>
        <time>2023-05-27T09:50:08Z</time>
      </trkpt>
      <trkpt lat="47.94895" lon="7.19092">
        <ele>450</ele>
        <time>2023-05-27T09:50:19Z</time>
      </trkpt>
      <trkpt lat="47.94904" lon="7.19097">
        <ele>450</ele>
        <time>2023-05-27T09:50:29Z</time>
      </trkpt>
      <trkpt lat="47.94913" lon="7.19101">
        <ele>451</ele>
        <time>2023-05-27T09:50:39Z</time>
      </trkpt>
      <trkpt lat="47.94922" lon="7.19102">
        <ele>452</ele>
        <time>2023-05-27T09:50:50Z</time>
      </trkpt>
      <trkpt lat="47.94931" lon="7.19101">
        <ele>453</ele>
        <time>2023-05-27T09:51:00Z</time>
      </trkpt>
      <trkpt lat="47.9494" lon="7.19103">
        <ele>453</ele>
        <time>2023-05-27T09:51:10Z</time>
      </trkpt>
      <trkpt lat="47.9495" lon="7.19106">
        <ele>454</ele>
        <time>2023-05-27T09:51:20Z</time>
      </trkpt>
      <trkpt lat="47.94959" lon="7.19109">
        <ele>456</ele>
        <time>2023-05-27T09:51:31Z</time>
      </trkpt>
      <trkpt lat="47.94969" lon="7.19113">
        <ele>457</ele>
        <time>2023-05-27T09:51:40Z</time>
      </trkpt>
      <trkpt lat="47.94977" lon="7.19119">
        <ele>458</ele>
        <time>2023-05-27T09:51:50Z</time>
      </trkpt>
      <trkpt lat="47.94986" lon="7.19124">
        <ele>459</ele>
        <time>2023-05-27T09:52:00Z</time>
      </trkpt>
      <trkpt lat="47.94995" lon="7.19128">
        <ele>460</ele>
        <time>2023-05-27T09:52:11Z</time>
      </trkpt>
      <trkpt lat="47.95004" lon="7.19132">
        <ele>461</ele>
        <time>2023-05-27T09:52:22Z</time>
      </trkpt>
      <trkpt lat="47.95012" lon="7.19136">
        <ele>462</ele>
        <time>2023-05-27T09:52:33Z</time>
      </trkpt>
      <trkpt lat="47.95021" lon="7.19143">
        <ele>463</ele>
        <time>2023-05-27T09:52:44Z</time>
      </trkpt>
      <trkpt lat="47.9503" lon="7.19147">
        <ele>464</ele>
        <time>2023-05-27T09:52:54Z</time>
      </trkpt>
      <trkpt lat="47.95039" lon="7.19151">
        <ele>465</ele>
        <time>2023-05-27T09:53:04Z</time>
      </trkpt>
      <trkpt lat="47.95048" lon="7.19153">
        <ele>466</ele>
        <time>2023-05-27T09:53:14Z</time>
      </trkpt>
      <trkpt lat="47.95058" lon="7.19156">
        <ele>467</ele>
        <time>2023-05-27T09:53:24Z</time>
      </trkpt>
      <trkpt lat="47.95067" lon="7.19155">
        <ele>468</ele>
        <time>2023-05-27T09:53:34Z</time>
      </trkpt>
      <trkpt lat="47.95077" lon="7.19154">
        <ele>468</ele>
        <time>2023-05-27T09:53:44Z</time>
      </trkpt>
      <trkpt lat="47.95086" lon="7.19153">
        <ele>469</ele>
        <time>2023-05-27T09:53:55Z</time>
      </trkpt>
      <trkpt lat="47.95095" lon="7.19153">
        <ele>470</ele>
        <time>2023-05-27T09:54:05Z</time>
      </trkpt>
      <trkpt lat="47.95105" lon="7.19152">
        <ele>471</ele>
        <time>2023-05-27T09:54:15Z</time>
      </trkpt>
      <trkpt lat="47.95114" lon="7.19151">
        <ele>472</ele>
        <time>2023-05-27T09:54:25Z</time>
      </trkpt>
      <trkpt lat="47.95123" lon="7.19148">
        <ele>472</ele>
        <time>2023-05-27T09:54:35Z</time>
      </trkpt>
      <trkpt lat="47.95133" lon="7.19148">
        <ele>473</ele>
        <time>2023-05-27T09:54:45Z</time>
      </trkpt>
      <trkpt lat="47.95143" lon="7.19148">
        <ele>474</ele>
        <time>2023-05-27T09:54:54Z</time>
      </trkpt>
      <trkpt lat="47.95151" lon="7.19153">
        <ele>475</ele>
        <time>2023-05-27T09:55:05Z</time>
      </trkpt>
      <trkpt lat="47.9516" lon="7.19157">
        <ele>475</ele>
        <time>2023-05-27T09:55:14Z</time>
      </trkpt>
      <trkpt lat="47.95169" lon="7.19163">
        <ele>476</ele>
        <time>2023-05-27T09:55:23Z</time>
      </trkpt>
      <trkpt lat="47.95178" lon="7.19168">
        <ele>477</ele>
        <time>2023-05-27T09:55:34Z</time>
      </trkpt>
      <trkpt lat="47.95185" lon="7.19178">
        <ele>478</ele>
        <time>2023-05-27T09:55:45Z</time>
      </trkpt>
      <trkpt lat="47.95193" lon="7.19186">
        <ele>479</ele>
        <time>2023-05-27T09:55:54Z</time>
      </trkpt>
      <trkpt lat="47.95201" lon="7.19193">
        <ele>480</ele>
        <time>2023-05-27T09:56:06Z</time>
      </trkpt>
      <trkpt lat="47.9521" lon="7.19195">
        <ele>482</ele>
        <time>2023-05-27T09:56:17Z</time>
      </trkpt>
      <trkpt lat="47.95219" lon="7.19197">
        <ele>483</ele>
        <time>2023-05-27T09:56:29Z</time>
      </trkpt>
      <trkpt lat="47.95228" lon="7.19202">
        <ele>484</ele>
        <time>2023-05-27T09:56:39Z</time>
      </trkpt>
      <trkpt lat="47.95237" lon="7.19206">
        <ele>484</ele>
        <time>2023-05-27T09:56:47Z</time>
      </trkpt>
      <trkpt lat="47.95246" lon="7.1921">
        <ele>485</ele>
        <time>2023-05-27T09:56:57Z</time>
      </trkpt>
      <trkpt lat="47.95254" lon="7.19218">
        <ele>486</ele>
        <time>2023-05-27T09:57:06Z</time>
      </trkpt>
      <trkpt lat="47.95262" lon="7.19224">
        <ele>487</ele>
        <time>2023-05-27T09:57:15Z</time>
      </trkpt>
      <trkpt lat="47.95269" lon="7.19232">
        <ele>487</ele>
        <time>2023-05-27T09:57:23Z</time>
      </trkpt>
      <trkpt lat="47.95276" lon="7.19242">
        <ele>488</ele>
        <time>2023-05-27T09:57:32Z</time>
      </trkpt>
      <trkpt lat="47.95285" lon="7.19247">
        <ele>489</ele>
        <time>2023-05-27T09:57:42Z</time>
      </trkpt>
      <trkpt lat="47.95294" lon="7.1925">
        <ele>489</ele>
        <time>2023-05-27T09:57:51Z</time>
      </trkpt>
      <trkpt lat="47.95304" lon="7.19256">
        <ele>490</ele>
        <time>2023-05-27T09:58:00Z</time>
      </trkpt>
      <trkpt lat="47.95312" lon="7.19262">
        <ele>490</ele>
        <time>2023-05-27T09:58:08Z</time>
      </trkpt>
      <trkpt lat="47.95321" lon="7.19266">
        <ele>491</ele>
        <time>2023-05-27T09:58:18Z</time>
      </trkpt>
      <trkpt lat="47.9533" lon="7.19271">
        <ele>491</ele>
        <time>2023-05-27T09:58:29Z</time>
      </trkpt>
      <trkpt lat="47.95339" lon="7.19272">
        <ele>492</ele>
        <time>2023-05-27T09:58:39Z</time>
      </trkpt>
      <trkpt lat="47.95348" lon="7.19277">
        <ele>492</ele>
        <time>2023-05-27T09:58:48Z</time>
      </trkpt>
      <trkpt lat="47.95356" lon="7.19282">
        <ele>492</ele>
        <time>2023-05-27T09:58:57Z</time>
      </trkpt>
      <trkpt lat="47.95362" lon="7.19273">
        <ele>492</ele>
        <time>2023-05-27T09:59:07Z</time>
      </trkpt>
      <trkpt lat="47.95368" lon="7.19275">
        <ele>492</ele>
        <time>2023-05-27T10:00:39Z</time>
      </trkpt>
      <trkpt lat="47.95373" lon="7.19263">
        <ele>492</ele>
        <time>2023-05-27T10:00:50Z</time>
      </trkpt>
      <trkpt lat="47.95377" lon="7.1925">
        <ele>492</ele>
        <time>2023-05-27T10:01:01Z</time>
      </trkpt>
      <trkpt lat="47.95381" lon="7.19237">
        <ele>492</ele>
        <time>2023-05-27T10:01:12Z</time>
      </trkpt>
      <trkpt lat="47.95386" lon="7.19225">
        <ele>492</ele>
        <time>2023-05-27T10:01:24Z</time>
      </trkpt>
      <trkpt lat="47.95388" lon="7.19211">
        <ele>492</ele>
        <time>2023-05-27T10:01:34Z</time>
      </trkpt>
      <trkpt lat="47.9539" lon="7.19198">
        <ele>492</ele>
        <time>2023-05-27T10:01:57Z</time>
      </trkpt>
      <trkpt lat="47.95391" lon="7.19184">
        <ele>492</ele>
        <time>2023-05-27T10:02:08Z</time>
      </trkpt>
      <trkpt lat="47.95393" lon="7.19171">
        <ele>493</ele>
        <time>2023-05-27T10:02:25Z</time>
      </trkpt>
      <trkpt lat="47.95396" lon="7.19157">
        <ele>493</ele>
        <time>2023-05-27T10:02:46Z</time>
      </trkpt>
      <trkpt lat="47.95392" lon="7.19146">
        <ele>493</ele>
        <time>2023-05-27T10:03:00Z</time>
      </trkpt>
      <trkpt lat="47.95392" lon="7.19132">
        <ele>494</ele>
        <time>2023-05-27T10:03:15Z</time>
      </trkpt>
      <trkpt lat="47.95392" lon="7.19118">
        <ele>494</ele>
        <time>2023-05-27T10:03:30Z</time>
      </trkpt>
      <trkpt lat="47.95391" lon="7.19104">
        <ele>495</ele>
        <time>2023-05-27T10:03:43Z</time>
      </trkpt>
      <trkpt lat="47.95392" lon="7.1909">
        <ele>496</ele>
        <time>2023-05-27T10:03:54Z</time>
      </trkpt>
      <trkpt lat="47.95393" lon="7.19077">
        <ele>496</ele>
        <time>2023-05-27T10:04:04Z</time>
      </trkpt>
      <trkpt lat="47.95395" lon="7.19063">
        <ele>497</ele>
        <time>2023-05-27T10:04:17Z</time>
      </trkpt>
      <trkpt lat="47.95395" lon="7.19049">
        <ele>498</ele>
        <time>2023-05-27T10:04:28Z</time>
      </trkpt>
      <trkpt lat="47.95394" lon="7.19036">
        <ele>499</ele>
        <time>2023-05-27T10:04:39Z</time>
      </trkpt>
      <trkpt lat="47.95392" lon="7.19022">
        <ele>499</ele>
        <time>2023-05-27T10:04:49Z</time>
      </trkpt>
      <trkpt lat="47.95393" lon="7.19008">
        <ele>500</ele>
        <time>2023-05-27T10:04:58Z</time>
      </trkpt>
      <trkpt lat="47.95393" lon="7.18994">
        <ele>501</ele>
        <time>2023-05-27T10:05:08Z</time>
      </trkpt>
      <trkpt lat="47.95395" lon="7.18981">
        <ele>502</ele>
        <time>2023-05-27T10:05:18Z</time>
      </trkpt>
      <trkpt lat="47.95394" lon="7.18966">
        <ele>503</ele>
        <time>2023-05-27T10:05:28Z</time>
      </trkpt>
      <trkpt lat="47.95387" lon="7.18958">
        <ele>504</ele>
        <time>2023-05-27T10:05:41Z</time>
      </trkpt>
      <trkpt lat="47.95378" lon="7.18962">
        <ele>505</ele>
        <time>2023-05-27T10:05:59Z</time>
      </trkpt>
      <trkpt lat="47.95369" lon="7.18966">
        <ele>505</ele>
        <time>2023-05-27T10:06:08Z</time>
      </trkpt>
      <trkpt lat="47.9536" lon="7.18962">
        <ele>505</ele>
        <time>2023-05-27T10:06:18Z</time>
      </trkpt>
      <trkpt lat="47.95352" lon="7.18954">
        <ele>505</ele>
        <time>2023-05-27T10:06:28Z</time>
      </trkpt>
      <trkpt lat="47.95343" lon="7.18949">
        <ele>505</ele>
        <time>2023-05-27T10:06:39Z</time>
      </trkpt>
      <trkpt lat="47.95335" lon="7.18944">
        <ele>505</ele>
        <time>2023-05-27T10:06:45Z</time>
      </trkpt>
      <trkpt lat="47.95326" lon="7.18938">
        <ele>505</ele>
        <time>2023-05-27T10:06:51Z</time>
      </trkpt>
      <trkpt lat="47.95317" lon="7.18936">
        <ele>504</ele>
        <time>2023-05-27T10:07:01Z</time>
      </trkpt>
      <trkpt lat="47.95309" lon="7.18929">
        <ele>504</ele>
        <time>2023-05-27T10:07:10Z</time>
      </trkpt>
      <trkpt lat="47.95302" lon="7.1892">
        <ele>504</ele>
        <time>2023-05-27T10:07:20Z</time>
      </trkpt>
      <trkpt lat="47.95293" lon="7.18916">
        <ele>504</ele>
        <time>2023-05-27T10:07:32Z</time>
      </trkpt>
      <trkpt lat="47.95284" lon="7.18913">
        <ele>503</ele>
        <time>2023-05-27T10:07:42Z</time>
      </trkpt>
      <trkpt lat="47.95275" lon="7.18908">
        <ele>502</ele>
        <time>2023-05-27T10:07:53Z</time>
      </trkpt>
      <trkpt lat="47.95268" lon="7.18896">
        <ele>502</ele>
        <time>2023-05-27T10:08:01Z</time>
      </trkpt>
      <trkpt lat="47.95265" lon="7.18882">
        <ele>502</ele>
        <time>2023-05-27T10:08:09Z</time>
      </trkpt>
      <trkpt lat="47.95263" lon="7.18869">
        <ele>502</ele>
        <time>2023-05-27T10:08:17Z</time>
      </trkpt>
      <trkpt lat="47.95262" lon="7.18854">
        <ele>502</ele>
        <time>2023-05-27T10:08:26Z</time>
      </trkpt>
      <trkpt lat="47.95261" lon="7.1884">
        <ele>502</ele>
        <time>2023-05-27T10:08:37Z</time>
      </trkpt>
      <trkpt lat="47.95261" lon="7.18825">
        <ele>502</ele>
        <time>2023-05-27T10:08:47Z</time>
      </trkpt>
      <trkpt lat="47.95257" lon="7.18812">
        <ele>502</ele>
        <time>2023-05-27T10:08:56Z</time>
      </trkpt>
      <trkpt lat="47.95253" lon="7.188">
        <ele>503</ele>
        <time>2023-05-27T10:09:04Z</time>
      </trkpt>
      <trkpt lat="47.95248" lon="7.18787">
        <ele>503</ele>
        <time>2023-05-27T10:09:14Z</time>
      </trkpt>
      <trkpt lat="47.95247" lon="7.18773">
        <ele>504</ele>
        <time>2023-05-27T10:09:26Z</time>
      </trkpt>
      <trkpt lat="47.95246" lon="7.18759">
        <ele>504</ele>
        <time>2023-05-27T10:09:35Z</time>
      </trkpt>
      <trkpt lat="47.95245" lon="7.18745">
        <ele>505</ele>
        <time>2023-05-27T10:09:44Z</time>
      </trkpt>
      <trkpt lat="47.95243" lon="7.18732">
        <ele>505</ele>
        <time>2023-05-27T10:09:54Z</time>
      </trkpt>
      <trkpt lat="47.95241" lon="7.18717">
        <ele>506</ele>
        <time>2023-05-27T10:10:03Z</time>
      </trkpt>
      <trkpt lat="47.9524" lon="7.18703">
        <ele>507</ele>
        <time>2023-05-27T10:10:15Z</time>
      </trkpt>
      <trkpt lat="47.95239" lon="7.18689">
        <ele>507</ele>
        <time>2023-05-27T10:10:25Z</time>
      </trkpt>
      <trkpt lat="47.95238" lon="7.18675">
        <ele>508</ele>
        <time>2023-05-27T10:10:35Z</time>
      </trkpt>
      <trkpt lat="47.95237" lon="7.18661">
        <ele>508</ele>
        <time>2023-05-27T10:10:43Z</time>
      </trkpt>
      <trkpt lat="47.95237" lon="7.18648">
        <ele>509</ele>
        <time>2023-05-27T10:10:51Z</time>
      </trkpt>
      <trkpt lat="47.95238" lon="7.18633">
        <ele>511</ele>
        <time>2023-05-27T10:11:38Z</time>
      </trkpt>
      <trkpt lat="47.95239" lon="7.18619">
        <ele>511</ele>
        <time>2023-05-27T10:11:49Z</time>
      </trkpt>
      <trkpt lat="47.95238" lon="7.18606">
        <ele>511</ele>
        <time>2023-05-27T10:12:00Z</time>
      </trkpt>
      <trkpt lat="47.95233" lon="7.18593">
        <ele>512</ele>
        <time>2023-05-27T10:12:11Z</time>
      </trkpt>
      <trkpt lat="47.9523" lon="7.1858">
        <ele>512</ele>
        <time>2023-05-27T10:12:22Z</time>
      </trkpt>
      <trkpt lat="47.95228" lon="7.18566">
        <ele>513</ele>
        <time>2023-05-27T10:12:33Z</time>
      </trkpt>
      <trkpt lat="47.95224" lon="7.18553">
        <ele>514</ele>
        <time>2023-05-27T10:12:44Z</time>
      </trkpt>
      <trkpt lat="47.95223" lon="7.1854">
        <ele>515</ele>
        <time>2023-05-27T10:12:56Z</time>
      </trkpt>
      <trkpt lat="47.95222" lon="7.18526">
        <ele>516</ele>
        <time>2023-05-27T10:13:09Z</time>
      </trkpt>
      <trkpt lat="47.95218" lon="7.18513">
        <ele>518</ele>
        <time>2023-05-27T10:13:23Z</time>
      </trkpt>
      <trkpt lat="47.95219" lon="7.18499">
        <ele>520</ele>
        <time>2023-05-27T10:13:37Z</time>
      </trkpt>
      <trkpt lat="47.95218" lon="7.18486">
        <ele>521</ele>
        <time>2023-05-27T10:13:51Z</time>
      </trkpt>
      <trkpt lat="47.95217" lon="7.18472">
        <ele>523</ele>
        <time>2023-05-27T10:14:03Z</time>
      </trkpt>
      <trkpt lat="47.95216" lon="7.18457">
        <ele>524</ele>
        <time>2023-05-27T10:14:15Z</time>
      </trkpt>
      <trkpt lat="47.95216" lon="7.18443">
        <ele>526</ele>
        <time>2023-05-27T10:14:25Z</time>
      </trkpt>
      <trkpt lat="47.95218" lon="7.18429">
        <ele>526</ele>
        <time>2023-05-27T10:14:35Z</time>
      </trkpt>
      <trkpt lat="47.9522" lon="7.18415">
        <ele>527</ele>
        <time>2023-05-27T10:14:45Z</time>
      </trkpt>
      <trkpt lat="47.95224" lon="7.18402">
        <ele>527</ele>
        <time>2023-05-27T10:14:54Z</time>
      </trkpt>
      <trkpt lat="47.95229" lon="7.1839">
        <ele>527</ele>
        <time>2023-05-27T10:15:04Z</time>
      </trkpt>
      <trkpt lat="47.95234" lon="7.18379">
        <ele>527</ele>
        <time>2023-05-27T10:15:13Z</time>
      </trkpt>
      <trkpt lat="47.95234" lon="7.18365">
        <ele>527</ele>
        <time>2023-05-27T10:15:26Z</time>
      </trkpt>
      <trkpt lat="47.95229" lon="7.18354">
        <ele>528</ele>
        <time>2023-05-27T10:15:41Z</time>
      </trkpt>
      <trkpt lat="47.95223" lon="7.18343">
        <ele>530</ele>
        <time>2023-05-27T10:15:57Z</time>
      </trkpt>
      <trkpt lat="47.95218" lon="7.1833">
        <ele>532</ele>
        <time>2023-05-27T10:16:07Z</time>
      </trkpt>
      <trkpt lat="47.95212" lon="7.1832">
        <ele>533</ele>
        <time>2023-05-27T10:16:18Z</time>
      </trkpt>
      <trkpt lat="47.95205" lon="7.18309">
        <ele>534</ele>
        <time>2023-05-27T10:16:31Z</time>
      </trkpt>
      <trkpt lat="47.95198" lon="7.18301">
        <ele>535</ele>
        <time>2023-05-27T10:16:41Z</time>
      </trkpt>
      <trkpt lat="47.9519" lon="7.18292">
        <ele>536</ele>
        <time>2023-05-27T10:16:52Z</time>
      </trkpt>
      <trkpt lat="47.95183" lon="7.18284">
        <ele>538</ele>
        <time>2023-05-27T10:17:03Z</time>
      </trkpt>
      <trkpt lat="47.95175" lon="7.18274">
        <ele>539</ele>
        <time>2023-05-27T10:17:16Z</time>
      </trkpt>
      <trkpt lat="47.95169" lon="7.18265">
        <ele>541</ele>
        <time>2023-05-27T10:17:27Z</time>
      </trkpt>
      <trkpt lat="47.95163" lon="7.18254">
        <ele>542</ele>
        <time>2023-05-27T10:17:38Z</time>
      </trkpt>
      <trkpt lat="47.95156" lon="7.18245">
        <ele>543</ele>
        <time>2023-05-27T10:17:50Z</time>
      </trkpt>
      <trkpt lat="47.95151" lon="7.18233">
        <ele>546</ele>
        <time>2023-05-27T10:18:23Z</time>
      </trkpt>
      <trkpt lat="47.95147" lon="7.18219">
        <ele>547</ele>
        <time>2023-05-27T10:19:07Z</time>
      </trkpt>
      <trkpt lat="47.95143" lon="7.18211">
        <ele>547</ele>
        <time>2023-05-27T10:19:38Z</time>
      </trkpt>
      <trkpt lat="47.95148" lon="7.18205">
        <ele>548</ele>
        <time>2023-05-27T10:19:52Z</time>
      </trkpt>
      <trkpt lat="47.95157" lon="7.18209">
        <ele>548</ele>
        <time>2023-05-27T10:20:03Z</time>
      </trkpt>
      <trkpt lat="47.95167" lon="7.18214">
        <ele>550</ele>
        <time>2023-05-27T10:20:17Z</time>
      </trkpt>
      <trkpt lat="47.95176" lon="7.18214">
        <ele>551</ele>
        <time>2023-05-27T10:20:29Z</time>
      </trkpt>
      <trkpt lat="47.95185" lon="7.18217">
        <ele>552</ele>
        <time>2023-05-27T10:20:40Z</time>
      </trkpt>
      <trkpt lat="47.95194" lon="7.18218">
        <ele>554</ele>
        <time>2023-05-27T10:20:52Z</time>
      </trkpt>
      <trkpt lat="47.95203" lon="7.18215">
        <ele>555</ele>
        <time>2023-05-27T10:21:04Z</time>
      </trkpt>
      <trkpt lat="47.95212" lon="7.18211">
        <ele>557</ele>
        <time>2023-05-27T10:21:17Z</time>
      </trkpt>
      <trkpt lat="47.95221" lon="7.18208">
        <ele>558</ele>
        <time>2023-05-27T10:21:30Z</time>
      </trkpt>
      <trkpt lat="47.9523" lon="7.18206">
        <ele>560</ele>
        <time>2023-05-27T10:21:42Z</time>
      </trkpt>
      <trkpt lat="47.9524" lon="7.18206">
        <ele>561</ele>
        <time>2023-05-27T10:21:51Z</time>
      </trkpt>
      <trkpt lat="47.9525" lon="7.18206">
        <ele>562</ele>
        <time>2023-05-27T10:22:01Z</time>
      </trkpt>
      <trkpt lat="47.95259" lon="7.18208">
        <ele>564</ele>
        <time>2023-05-27T10:22:13Z</time>
      </trkpt>
      <trkpt lat="47.95268" lon="7.18209">
        <ele>566</ele>
        <time>2023-05-27T10:22:24Z</time>
      </trkpt>
      <trkpt lat="47.95277" lon="7.18207">
        <ele>567</ele>
        <time>2023-05-27T10:22:36Z</time>
      </trkpt>
      <trkpt lat="47.95287" lon="7.18208">
        <ele>569</ele>
        <time>2023-05-27T10:22:47Z</time>
      </trkpt>
      <trkpt lat="47.95297" lon="7.18208">
        <ele>570</ele>
        <time>2023-05-27T10:22:58Z</time>
      </trkpt>
      <trkpt lat="47.95307" lon="7.1821">
        <ele>571</ele>
        <time>2023-05-27T10:23:07Z</time>
      </trkpt>
      <trkpt lat="47.95315" lon="7.18209">
        <ele>573</ele>
        <time>2023-05-27T10:23:20Z</time>
      </trkpt>
      <trkpt lat="47.95325" lon="7.18212">
        <ele>575</ele>
        <time>2023-05-27T10:23:33Z</time>
      </trkpt>
      <trkpt lat="47.95334" lon="7.18213">
        <ele>576</ele>
        <time>2023-05-27T10:23:43Z</time>
      </trkpt>
      <trkpt lat="47.95343" lon="7.18212">
        <ele>578</ele>
        <time>2023-05-27T10:23:56Z</time>
      </trkpt>
      <trkpt lat="47.95352" lon="7.18215">
        <ele>579</ele>
        <time>2023-05-27T10:24:05Z</time>
      </trkpt>
      <trkpt lat="47.95361" lon="7.18215">
        <ele>581</ele>
        <time>2023-05-27T10:24:19Z</time>
      </trkpt>
      <trkpt lat="47.9537" lon="7.18216">
        <ele>582</ele>
        <time>2023-05-27T10:24:31Z</time>
      </trkpt>
      <trkpt lat="47.95379" lon="7.18214">
        <ele>584</ele>
        <time>2023-05-27T10:24:43Z</time>
      </trkpt>
      <trkpt lat="47.95389" lon="7.18217">
        <ele>586</ele>
        <time>2023-05-27T10:24:54Z</time>
      </trkpt>
      <trkpt lat="47.95397" lon="7.1822">
        <ele>588</ele>
        <time>2023-05-27T10:25:07Z</time>
      </trkpt>
      <trkpt lat="47.95407" lon="7.18221">
        <ele>590</ele>
        <time>2023-05-27T10:25:22Z</time>
      </trkpt>
      <trkpt lat="47.95416" lon="7.18223">
        <ele>592</ele>
        <time>2023-05-27T10:25:33Z</time>
      </trkpt>
      <trkpt lat="47.95425" lon="7.18227">
        <ele>594</ele>
        <time>2023-05-27T10:25:56Z</time>
      </trkpt>
      <trkpt lat="47.95422" lon="7.18215">
        <ele>598</ele>
        <time>2023-05-27T10:26:23Z</time>
      </trkpt>
      <trkpt lat="47.9543" lon="7.18209">
        <ele>601</ele>
        <time>2023-05-27T10:26:37Z</time>
      </trkpt>
      <trkpt lat="47.95423" lon="7.182">
        <ele>606</ele>
        <time>2023-05-27T10:27:23Z</time>
      </trkpt>
      <trkpt lat="47.95421" lon="7.18189">
        <ele>609</ele>
        <time>2023-05-27T10:29:50Z</time>
      </trkpt>
      <trkpt lat="47.95414" lon="7.18179">
        <ele>609</ele>
        <time>2023-05-27T10:30:03Z</time>
      </trkpt>
      <trkpt lat="47.95407" lon="7.1817">
        <ele>609</ele>
        <time>2023-05-27T10:30:14Z</time>
      </trkpt>
      <trkpt lat="47.954" lon="7.1816">
        <ele>610</ele>
        <time>2023-05-27T10:30:24Z</time>
      </trkpt>
      <trkpt lat="47.95393" lon="7.18151">
        <ele>610</ele>
        <time>2023-05-27T10:30:33Z</time>
      </trkpt>
      <trkpt lat="47.9539" lon="7.18139">
        <ele>611</ele>
        <time>2023-05-27T10:30:42Z</time>
      </trkpt>
      <trkpt lat="47.95388" lon="7.18125">
        <ele>611</ele>
        <time>2023-05-27T10:30:51Z</time>
      </trkpt>
      <trkpt lat="47.9539" lon="7.18111">
        <ele>613</ele>
        <time>2023-05-27T10:31:10Z</time>
      </trkpt>
      <trkpt lat="47.95394" lon="7.18098">
        <ele>614</ele>
        <time>2023-05-27T10:31:20Z</time>
      </trkpt>
      <trkpt lat="47.954" lon="7.18087">
        <ele>614</ele>
        <time>2023-05-27T10:31:31Z</time>
      </trkpt>
      <trkpt lat="47.95407" lon="7.18076">
        <ele>615</ele>
        <time>2023-05-27T10:31:42Z</time>
      </trkpt>
      <trkpt lat="47.95414" lon="7.18068">
        <ele>616</ele>
        <time>2023-05-27T10:31:52Z</time>
      </trkpt>
      <trkpt lat="47.95423" lon="7.1806">
        <ele>617</ele>
        <time>2023-05-27T10:32:02Z</time>
      </trkpt>
      <trkpt lat="47.95431" lon="7.18052">
        <ele>617</ele>
        <time>2023-05-27T10:32:11Z</time>
      </trkpt>
      <trkpt lat="47.95438" lon="7.18044">
        <ele>618</ele>
        <time>2023-05-27T10:32:21Z</time>
      </trkpt>
      <trkpt lat="47.95446" lon="7.18036">
        <ele>620</ele>
        <time>2023-05-27T10:32:32Z</time>
      </trkpt>
      <trkpt lat="47.95455" lon="7.1803">
        <ele>621</ele>
        <time>2023-05-27T10:32:41Z</time>
      </trkpt>
      <trkpt lat="47.95464" lon="7.18024">
        <ele>621</ele>
        <time>2023-05-27T10:32:51Z</time>
      </trkpt>
      <trkpt lat="47.95473" lon="7.18018">
        <ele>622</ele>
        <time>2023-05-27T10:33:01Z</time>
      </trkpt>
      <trkpt lat="47.95481" lon="7.18013">
        <ele>622</ele>
        <time>2023-05-27T10:33:10Z</time>
      </trkpt>
      <trkpt lat="47.9549" lon="7.18009">
        <ele>623</ele>
        <time>2023-05-27T10:33:20Z</time>
      </trkpt>
      <trkpt lat="47.95499" lon="7.18005">
        <ele>624</ele>
        <time>2023-05-27T10:33:30Z</time>
      </trkpt>
      <trkpt lat="47.95508" lon="7.18">
        <ele>625</ele>
        <time>2023-05-27T10:33:40Z</time>
      </trkpt>
      <trkpt lat="47.95515" lon="7.17991">
        <ele>626</ele>
        <time>2023-05-27T10:33:50Z</time>
      </trkpt>
      <trkpt lat="47.9552" lon="7.1798">
        <ele>627</ele>
        <time>2023-05-27T10:33:59Z</time>
      </trkpt>
      <trkpt lat="47.95523" lon="7.17967">
        <ele>628</ele>
        <time>2023-05-27T10:34:10Z</time>
      </trkpt>
      <trkpt lat="47.95525" lon="7.17953">
        <ele>630</ele>
        <time>2023-05-27T10:34:22Z</time>
      </trkpt>
      <trkpt lat="47.95524" lon="7.1794">
        <ele>631</ele>
        <time>2023-05-27T10:34:35Z</time>
      </trkpt>
      <trkpt lat="47.95523" lon="7.17926">
        <ele>632</ele>
        <time>2023-05-27T10:34:49Z</time>
      </trkpt>
      <trkpt lat="47.95519" lon="7.17913">
        <ele>634</ele>
        <time>2023-05-27T10:35:01Z</time>
      </trkpt>
      <trkpt lat="47.95515" lon="7.179">
        <ele>635</ele>
        <time>2023-05-27T10:35:13Z</time>
      </trkpt>
      <trkpt lat="47.95512" lon="7.17886">
        <ele>637</ele>
        <time>2023-05-27T10:35:24Z</time>
      </trkpt>
      <trkpt lat="47.9551" lon="7.17873">
        <ele>638</ele>
        <time>2023-05-27T10:35:34Z</time>
      </trkpt>
      <trkpt lat="47.95506" lon="7.17861">
        <ele>639</ele>
        <time>2023-05-27T10:35:44Z</time>
      </trkpt>
      <trkpt lat="47.95502" lon="7.17847">
        <ele>640</ele>
        <time>2023-05-27T10:35:55Z</time>
      </trkpt>
      <trkpt lat="47.95496" lon="7.17837">
        <ele>641</ele>
        <time>2023-05-27T10:36:06Z</time>
      </trkpt>
      <trkpt lat="47.95492" lon="7.17824">
        <ele>642</ele>
        <time>2023-05-27T10:36:16Z</time>
      </trkpt>
      <trkpt lat="47.95485" lon="7.17814">
        <ele>643</ele>
        <time>2023-05-27T10:36:27Z</time>
      </trkpt>
      <trkpt lat="47.95479" lon="7.17803">
        <ele>644</ele>
        <time>2023-05-27T10:36:37Z</time>
      </trkpt>
      <trkpt lat="47.95473" lon="7.17792">
        <ele>645</ele>
        <time>2023-05-27T10:36:47Z</time>
      </trkpt>
      <trkpt lat="47.95465" lon="7.17783">
        <ele>645</ele>
        <time>2023-05-27T10:36:56Z</time>
      </trkpt>
      <trkpt lat="47.9546" lon="7.17772">
        <ele>646</ele>
        <time>2023-05-27T10:37:05Z</time>
      </trkpt>
      <trkpt lat="47.95456" lon="7.17759">
        <ele>647</ele>
        <time>2023-05-27T10:37:15Z</time>
      </trkpt>
      <trkpt lat="47.95454" lon="7.17745">
        <ele>647</ele>
        <time>2023-05-27T10:37:24Z</time>
      </trkpt>
      <trkpt lat="47.95454" lon="7.17732">
        <ele>648</ele>
        <time>2023-05-27T10:37:32Z</time>
      </trkpt>
      <trkpt lat="47.95456" lon="7.17718">
        <ele>648</ele>
        <time>2023-05-27T10:37:41Z</time>
      </trkpt>
      <trkpt lat="47.95461" lon="7.17707">
        <ele>649</ele>
        <time>2023-05-27T10:37:51Z</time>
      </trkpt>
      <trkpt lat="47.95466" lon="7.17694">
        <ele>649</ele>
        <time>2023-05-27T10:38:02Z</time>
      </trkpt>
      <trkpt lat="47.9547" lon="7.17681">
        <ele>650</ele>
        <time>2023-05-27T10:38:12Z</time>
      </trkpt>
      <trkpt lat="47.95476" lon="7.1767">
        <ele>650</ele>
        <time>2023-05-27T10:38:23Z</time>
      </trkpt>
      <trkpt lat="47.95482" lon="7.17658">
        <ele>650</ele>
        <time>2023-05-27T10:38:32Z</time>
      </trkpt>
      <trkpt lat="47.95488" lon="7.17648">
        <ele>651</ele>
        <time>2023-05-27T10:38:41Z</time>
      </trkpt>
      <trkpt lat="47.95495" lon="7.17638">
        <ele>651</ele>
        <time>2023-05-27T10:38:50Z</time>
      </trkpt>
      <trkpt lat="47.95502" lon="7.17629">
        <ele>652</ele>
        <time>2023-05-27T10:38:59Z</time>
      </trkpt>
      <trkpt lat="47.95511" lon="7.17624">
        <ele>652</ele>
        <time>2023-05-27T10:39:09Z</time>
      </trkpt>
      <trkpt lat="47.9552" lon="7.17618">
        <ele>653</ele>
        <time>2023-05-27T10:39:18Z</time>
      </trkpt>
      <trkpt lat="47.95529" lon="7.17613">
        <ele>653</ele>
        <time>2023-05-27T10:39:28Z</time>
      </trkpt>
      <trkpt lat="47.95538" lon="7.17609">
        <ele>654</ele>
        <time>2023-05-27T10:39:38Z</time>
      </trkpt>
      <trkpt lat="47.95547" lon="7.17606">
        <ele>655</ele>
        <time>2023-05-27T10:39:47Z</time>
      </trkpt>
      <trkpt lat="47.95556" lon="7.17604">
        <ele>655</ele>
        <time>2023-05-27T10:39:55Z</time>
      </trkpt>
      <trkpt lat="47.95566" lon="7.17606">
        <ele>656</ele>
        <time>2023-05-27T10:40:05Z</time>
      </trkpt>
      <trkpt lat="47.95576" lon="7.17606">
        <ele>656</ele>
        <time>2023-05-27T10:40:15Z</time>
      </trkpt>
      <trkpt lat="47.95583" lon="7.1761">
        <ele>657</ele>
        <time>2023-05-27T10:40:25Z</time>
      </trkpt>
      <trkpt lat="47.95587" lon="7.17609">
        <ele>658</ele>
        <time>2023-05-27T10:42:01Z</time>
      </trkpt>
      <trkpt lat="47.95596" lon="7.17604">
        <ele>658</ele>
        <time>2023-05-27T10:42:19Z</time>
      </trkpt>
      <trkpt lat="47.95603" lon="7.17598">
        <ele>658</ele>
        <time>2023-05-27T10:42:41Z</time>
      </trkpt>
      <trkpt lat="47.95597" lon="7.17588">
        <ele>656</ele>
        <time>2023-05-27T10:42:58Z</time>
      </trkpt>
      <trkpt lat="47.95595" lon="7.1758">
        <ele>654</ele>
        <time>2023-05-27T10:43:48Z</time>
      </trkpt>
      <trkpt lat="47.95603" lon="7.17579">
        <ele>654</ele>
        <time>2023-05-27T10:44:31Z</time>
      </trkpt>
      <trkpt lat="47.9561" lon="7.17587">
        <ele>655</ele>
        <time>2023-05-27T10:44:45Z</time>
      </trkpt>
      <trkpt lat="47.95615" lon="7.17599">
        <ele>655</ele>
        <time>2023-05-27T10:44:55Z</time>
      </trkpt>
      <trkpt lat="47.95608" lon="7.17607">
        <ele>656</ele>
        <time>2023-05-27T10:45:07Z</time>
      </trkpt>
      <trkpt lat="47.956" lon="7.1761">
        <ele>659</ele>
        <time>2023-05-27T11:01:26Z</time>
      </trkpt>
      <trkpt lat="47.95593" lon="7.17615">
        <ele>659</ele>
        <time>2023-05-27T11:29:15Z</time>
      </trkpt>
      <trkpt lat="47.95587" lon="7.17608">
        <ele>659</ele>
        <time>2023-05-27T11:32:52Z</time>
      </trkpt>
      <trkpt lat="47.95593" lon="7.17607">
        <ele>659</ele>
        <time>2023-05-27T11:36:47Z</time>
      </trkpt>
      <trkpt lat="47.95602" lon="7.17608">
        <ele>659</ele>
        <time>2023-05-27T11:37:06Z</time>
      </trkpt>
      <trkpt lat="47.95611" lon="7.17606">
        <ele>660</ele>
        <time>2023-05-27T11:37:17Z</time>
      </trkpt>
      <trkpt lat="47.9562" lon="7.17607">
        <ele>660</ele>
        <time>2023-05-27T11:37:30Z</time>
      </trkpt>
      <trkpt lat="47.95629" lon="7.17612">
        <ele>661</ele>
        <time>2023-05-27T11:37:43Z</time>
      </trkpt>
      <trkpt lat="47.95637" lon="7.17619">
        <ele>662</ele>
        <time>2023-05-27T11:37:55Z</time>
      </trkpt>
      <trkpt lat="47.95645" lon="7.17628">
        <ele>663</ele>
        <time>2023-05-27T11:38:07Z</time>
      </trkpt>
      <trkpt lat="47.95653" lon="7.17637">
        <ele>664</ele>
        <time>2023-05-27T11:38:19Z</time>
      </trkpt>
      <trkpt lat="47.9566" lon="7.17645">
        <ele>666</ele>
        <time>2023-05-27T11:38:28Z</time>
      </trkpt>
      <trkpt lat="47.95665" lon="7.17657">
        <ele>667</ele>
        <time>2023-05-27T11:38:38Z</time>
      </trkpt>
      <trkpt lat="47.95671" lon="7.17669">
        <ele>668</ele>
        <time>2023-05-27T11:38:49Z</time>
      </trkpt>
      <trkpt lat="47.95679" lon="7.17676">
        <ele>668</ele>
        <time>2023-05-27T11:39:01Z</time>
      </trkpt>
      <trkpt lat="47.95687" lon="7.17678">
        <ele>670</ele>
        <time>2023-05-27T11:39:16Z</time>
      </trkpt>
      <trkpt lat="47.95696" lon="7.17672">
        <ele>671</ele>
        <time>2023-05-27T11:39:29Z</time>
      </trkpt>
      <trkpt lat="47.95694" lon="7.17663">
        <ele>675</ele>
        <time>2023-05-27T11:40:25Z</time>
      </trkpt>
      <trkpt lat="47.95691" lon="7.17651">
        <ele>675</ele>
        <time>2023-05-27T11:40:36Z</time>
      </trkpt>
      <trkpt lat="47.95697" lon="7.1764">
        <ele>675</ele>
        <time>2023-05-27T11:40:46Z</time>
      </trkpt>
      <trkpt lat="47.95701" lon="7.17628">
        <ele>676</ele>
        <time>2023-05-27T11:41:00Z</time>
      </trkpt>
      <trkpt lat="47.95706" lon="7.17616">
        <ele>678</ele>
        <time>2023-05-27T11:41:20Z</time>
      </trkpt>
      <trkpt lat="47.95707" lon="7.17603">
        <ele>679</ele>
        <time>2023-05-27T11:41:34Z</time>
      </trkpt>
      <trkpt lat="47.95708" lon="7.17589">
        <ele>681</ele>
        <time>2023-05-27T11:41:48Z</time>
      </trkpt>
      <trkpt lat="47.95709" lon="7.17575">
        <ele>683</ele>
        <time>2023-05-27T11:42:02Z</time>
      </trkpt>
      <trkpt lat="47.95714" lon="7.17563">
        <ele>684</ele>
        <time>2023-05-27T11:42:16Z</time>
      </trkpt>
      <trkpt lat="47.95717" lon="7.1755">
        <ele>686</ele>
        <time>2023-05-27T11:42:28Z</time>
      </trkpt>
      <trkpt lat="47.95718" lon="7.17536">
        <ele>688</ele>
        <time>2023-05-27T11:42:45Z</time>
      </trkpt>
      <trkpt lat="47.95715" lon="7.17523">
        <ele>690</ele>
        <time>2023-05-27T11:42:58Z</time>
      </trkpt>
      <trkpt lat="47.95713" lon="7.17509">
        <ele>691</ele>
        <time>2023-05-27T11:43:11Z</time>
      </trkpt>
      <trkpt lat="47.95711" lon="7.17495">
        <ele>693</ele>
        <time>2023-05-27T11:43:22Z</time>
      </trkpt>
      <trkpt lat="47.95709" lon="7.17481">
        <ele>694</ele>
        <time>2023-05-27T11:43:34Z</time>
      </trkpt>
      <trkpt lat="47.95707" lon="7.17467">
        <ele>695</ele>
        <time>2023-05-27T11:43:46Z</time>
      </trkpt>
      <trkpt lat="47.95707" lon="7.17453">
        <ele>697</ele>
        <time>2023-05-27T11:43:59Z</time>
      </trkpt>
      <trkpt lat="47.95708" lon="7.17439">
        <ele>699</ele>
        <time>2023-05-27T11:44:11Z</time>
      </trkpt>
      <trkpt lat="47.95706" lon="7.17425">
        <ele>701</ele>
        <time>2023-05-27T11:44:24Z</time>
      </trkpt>
      <trkpt lat="47.95704" lon="7.17412">
        <ele>703</ele>
        <time>2023-05-27T11:44:36Z</time>
      </trkpt>
      <trkpt lat="47.95699" lon="7.174">
        <ele>705</ele>
        <time>2023-05-27T11:44:49Z</time>
      </trkpt>
      <trkpt lat="47.95696" lon="7.17387">
        <ele>706</ele>
        <time>2023-05-27T11:44:59Z</time>
      </trkpt>
      <trkpt lat="47.95693" lon="7.17375">
        <ele>707</ele>
        <time>2023-05-27T11:45:10Z</time>
      </trkpt>
      <trkpt lat="47.95689" lon="7.17362">
        <ele>709</ele>
        <time>2023-05-27T11:45:23Z</time>
      </trkpt>
      <trkpt lat="47.95687" lon="7.17348">
        <ele>710</ele>
        <time>2023-05-27T11:45:38Z</time>
      </trkpt>
      <trkpt lat="47.95684" lon="7.17336">
        <ele>712</ele>
        <time>2023-05-27T11:45:51Z</time>
      </trkpt>
      <trkpt lat="47.95682" lon="7.17322">
        <ele>714</ele>
        <time>2023-05-27T11:46:02Z</time>
      </trkpt>
      <trkpt lat="47.95683" lon="7.17308">
        <ele>715</ele>
        <time>2023-05-27T11:46:13Z</time>
      </trkpt>
      <trkpt lat="47.95686" lon="7.17295">
        <ele>716</ele>
        <time>2023-05-27T11:46:22Z</time>
      </trkpt>
      <trkpt lat="47.95692" lon="7.17284">
        <ele>717</ele>
        <time>2023-05-27T11:46:33Z</time>
      </trkpt>
      <trkpt lat="47.957" lon="7.17276">
        <ele>718</ele>
        <time>2023-05-27T11:46:46Z</time>
      </trkpt>
      <trkpt lat="47.95707" lon="7.17268">
        <ele>721</ele>
        <time>2023-05-27T11:46:58Z</time>
      </trkpt>
      <trkpt lat="47.95715" lon="7.1726">
        <ele>722</ele>
        <time>2023-05-27T11:47:11Z</time>
      </trkpt>
      <trkpt lat="47.95723" lon="7.17255">
        <ele>724</ele>
        <time>2023-05-27T11:47:24Z</time>
      </trkpt>
      <trkpt lat="47.95732" lon="7.17253">
        <ele>725</ele>
        <time>2023-05-27T11:47:35Z</time>
      </trkpt>
      <trkpt lat="47.95742" lon="7.17252">
        <ele>726</ele>
        <time>2023-05-27T11:47:45Z</time>
      </trkpt>
      <trkpt lat="47.95752" lon="7.17251">
        <ele>728</ele>
        <time>2023-05-27T11:47:57Z</time>
      </trkpt>
      <trkpt lat="47.95761" lon="7.17253">
        <ele>729</ele>
        <time>2023-05-27T11:48:08Z</time>
      </trkpt>
      <trkpt lat="47.9577" lon="7.17256">
        <ele>731</ele>
        <time>2023-05-27T11:48:19Z</time>
      </trkpt>
      <trkpt lat="47.95779" lon="7.17259">
        <ele>732</ele>
        <time>2023-05-27T11:48:31Z</time>
      </trkpt>
      <trkpt lat="47.95788" lon="7.17263">
        <ele>734</ele>
        <time>2023-05-27T11:48:45Z</time>
      </trkpt>
      <trkpt lat="47.95797" lon="7.17259">
        <ele>735</ele>
        <time>2023-05-27T11:48:56Z</time>
      </trkpt>
      <trkpt lat="47.95806" lon="7.17258">
        <ele>737</ele>
        <time>2023-05-27T11:49:08Z</time>
      </trkpt>
      <trkpt lat="47.95815" lon="7.17257">
        <ele>738</ele>
        <time>2023-05-27T11:49:20Z</time>
      </trkpt>
      <trkpt lat="47.95825" lon="7.17254">
        <ele>740</ele>
        <time>2023-05-27T11:49:35Z</time>
      </trkpt>
      <trkpt lat="47.95834" lon="7.1725">
        <ele>742</ele>
        <time>2023-05-27T11:49:46Z</time>
      </trkpt>
      <trkpt lat="47.95843" lon="7.1725">
        <ele>743</ele>
        <time>2023-05-27T11:49:55Z</time>
      </trkpt>
      <trkpt lat="47.95852" lon="7.17255">
        <ele>744</ele>
        <time>2023-05-27T11:50:05Z</time>
      </trkpt>
      <trkpt lat="47.9586" lon="7.17259">
        <ele>744</ele>
        <time>2023-05-27T11:50:14Z</time>
      </trkpt>
      <trkpt lat="47.95869" lon="7.17265">
        <ele>744</ele>
        <time>2023-05-27T11:50:38Z</time>
      </trkpt>
      <trkpt lat="47.95878" lon="7.17263">
        <ele>744</ele>
        <time>2023-05-27T11:50:50Z</time>
      </trkpt>
      <trkpt lat="47.95883" lon="7.17272">
        <ele>744</ele>
        <time>2023-05-27T11:51:11Z</time>
      </trkpt>
      <trkpt lat="47.95892" lon="7.17266">
        <ele>744</ele>
        <time>2023-05-27T11:51:56Z</time>
      </trkpt>
      <trkpt lat="47.95901" lon="7.17262">
        <ele>744</ele>
        <time>2023-05-27T11:52:07Z</time>
      </trkpt>
      <trkpt lat="47.9591" lon="7.17259">
        <ele>744</ele>
        <time>2023-05-27T11:52:17Z</time>
      </trkpt>
      <trkpt lat="47.95919" lon="7.17258">
        <ele>745</ele>
        <time>2023-05-27T11:52:27Z</time>
      </trkpt>
      <trkpt lat="47.95928" lon="7.17256">
        <ele>745</ele>
        <time>2023-05-27T11:52:38Z</time>
      </trkpt>
      <trkpt lat="47.95938" lon="7.17255">
        <ele>746</ele>
        <time>2023-05-27T11:52:46Z</time>
      </trkpt>
      <trkpt lat="47.95947" lon="7.17258">
        <ele>746</ele>
        <time>2023-05-27T11:52:56Z</time>
      </trkpt>
      <trkpt lat="47.95956" lon="7.17262">
        <ele>747</ele>
        <time>2023-05-27T11:53:06Z</time>
      </trkpt>
      <trkpt lat="47.95964" lon="7.1727">
        <ele>748</ele>
        <time>2023-05-27T11:53:17Z</time>
      </trkpt>
      <trkpt lat="47.95972" lon="7.17277">
        <ele>748</ele>
        <time>2023-05-27T11:53:26Z</time>
      </trkpt>
      <trkpt lat="47.9598" lon="7.17285">
        <ele>749</ele>
        <time>2023-05-27T11:53:36Z</time>
      </trkpt>
      <trkpt lat="47.95989" lon="7.17289">
        <ele>749</ele>
        <time>2023-05-27T11:53:46Z</time>
      </trkpt>
      <trkpt lat="47.95997" lon="7.17295">
        <ele>750</ele>
        <time>2023-05-27T11:53:56Z</time>
      </trkpt>
      <trkpt lat="47.96006" lon="7.173">
        <ele>751</ele>
        <time>2023-05-27T11:54:06Z</time>
      </trkpt>
      <trkpt lat="47.96015" lon="7.17303">
        <ele>752</ele>
        <time>2023-05-27T11:54:15Z</time>
      </trkpt>
      <trkpt lat="47.96024" lon="7.17307">
        <ele>752</ele>
        <time>2023-05-27T11:54:25Z</time>
      </trkpt>
      <trkpt lat="47.96033" lon="7.17307">
        <ele>753</ele>
        <time>2023-05-27T11:54:34Z</time>
      </trkpt>
      <trkpt lat="47.96043" lon="7.17308">
        <ele>754</ele>
        <time>2023-05-27T11:54:45Z</time>
      </trkpt>
      <trkpt lat="47.96052" lon="7.17308">
        <ele>754</ele>
        <time>2023-05-27T11:54:56Z</time>
      </trkpt>
      <trkpt lat="47.96061" lon="7.17306">
        <ele>755</ele>
        <time>2023-05-27T11:55:07Z</time>
      </trkpt>
      <trkpt lat="47.9607" lon="7.17301">
        <ele>756</ele>
        <time>2023-05-27T11:55:17Z</time>
      </trkpt>
      <trkpt lat="47.96079" lon="7.17297">
        <ele>757</ele>
        <time>2023-05-27T11:55:27Z</time>
      </trkpt>
      <trkpt lat="47.96088" lon="7.17292">
        <ele>757</ele>
        <time>2023-05-27T11:55:36Z</time>
      </trkpt>
      <trkpt lat="47.96097" lon="7.17287">
        <ele>758</ele>
        <time>2023-05-27T11:55:45Z</time>
      </trkpt>
      <trkpt lat="47.96105" lon="7.17283">
        <ele>759</ele>
        <time>2023-05-27T11:55:55Z</time>
      </trkpt>
      <trkpt lat="47.96114" lon="7.1728">
        <ele>759</ele>
        <time>2023-05-27T11:56:05Z</time>
      </trkpt>
      <trkpt lat="47.96122" lon="7.17274">
        <ele>760</ele>
        <time>2023-05-27T11:56:15Z</time>
      </trkpt>
      <trkpt lat="47.96131" lon="7.1727">
        <ele>761</ele>
        <time>2023-05-27T11:56:25Z</time>
      </trkpt>
      <trkpt lat="47.96139" lon="7.17264">
        <ele>762</ele>
        <time>2023-05-27T11:56:34Z</time>
      </trkpt>
      <trkpt lat="47.96148" lon="7.17258">
        <ele>763</ele>
        <time>2023-05-27T11:56:43Z</time>
      </trkpt>
      <trkpt lat="47.96155" lon="7.1725">
        <ele>763</ele>
        <time>2023-05-27T11:56:53Z</time>
      </trkpt>
      <trkpt lat="47.96164" lon="7.17245">
        <ele>764</ele>
        <time>2023-05-27T11:57:03Z</time>
      </trkpt>
      <trkpt lat="47.96173" lon="7.17241">
        <ele>765</ele>
        <time>2023-05-27T11:57:12Z</time>
      </trkpt>
      <trkpt lat="47.96182" lon="7.17242">
        <ele>765</ele>
        <time>2023-05-27T11:57:21Z</time>
      </trkpt>
      <trkpt lat="47.96191" lon="7.17243">
        <ele>766</ele>
        <time>2023-05-27T11:57:29Z</time>
      </trkpt>
      <trkpt lat="47.96201" lon="7.17247">
        <ele>767</ele>
        <time>2023-05-27T11:57:37Z</time>
      </trkpt>
      <trkpt lat="47.96209" lon="7.17253">
        <ele>767</ele>
        <time>2023-05-27T11:57:46Z</time>
      </trkpt>
      <trkpt lat="47.96218" lon="7.1726">
        <ele>768</ele>
        <time>2023-05-27T11:57:56Z</time>
      </trkpt>
      <trkpt lat="47.96227" lon="7.17263">
        <ele>768</ele>
        <time>2023-05-27T11:58:05Z</time>
      </trkpt>
      <trkpt lat="47.96235" lon="7.1727">
        <ele>769</ele>
        <time>2023-05-27T11:58:15Z</time>
      </trkpt>
      <trkpt lat="47.96244" lon="7.17276">
        <ele>770</ele>
        <time>2023-05-27T11:58:24Z</time>
      </trkpt>
      <trkpt lat="47.96252" lon="7.17282">
        <ele>770</ele>
        <time>2023-05-27T11:58:33Z</time>
      </trkpt>
      <trkpt lat="47.96261" lon="7.17286">
        <ele>771</ele>
        <time>2023-05-27T11:58:44Z</time>
      </trkpt>
      <trkpt lat="47.9627" lon="7.17288">
        <ele>772</ele>
        <time>2023-05-27T11:58:53Z</time>
      </trkpt>
      <trkpt lat="47.96279" lon="7.1729">
        <ele>772</ele>
        <time>2023-05-27T11:59:03Z</time>
      </trkpt>
      <trkpt lat="47.96289" lon="7.1729">
        <ele>773</ele>
        <time>2023-05-27T11:59:13Z</time>
      </trkpt>
      <trkpt lat="47.96298" lon="7.1729">
        <ele>774</ele>
        <time>2023-05-27T11:59:24Z</time>
      </trkpt>
      <trkpt lat="47.96307" lon="7.17291">
        <ele>774</ele>
        <time>2023-05-27T11:59:32Z</time>
      </trkpt>
      <trkpt lat="47.96316" lon="7.17291">
        <ele>775</ele>
        <time>2023-05-27T11:59:41Z</time>
      </trkpt>
      <trkpt lat="47.96325" lon="7.17291">
        <ele>775</ele>
        <time>2023-05-27T11:59:51Z</time>
      </trkpt>
      <trkpt lat="47.96334" lon="7.17289">
        <ele>776</ele>
        <time>2023-05-27T12:00:01Z</time>
      </trkpt>
      <trkpt lat="47.96344" lon="7.17287">
        <ele>777</ele>
        <time>2023-05-27T12:00:11Z</time>
      </trkpt>
      <trkpt lat="47.96354" lon="7.17285">
        <ele>778</ele>
        <time>2023-05-27T12:00:20Z</time>
      </trkpt>
      <trkpt lat="47.96363" lon="7.1728">
        <ele>778</ele>
        <time>2023-05-27T12:00:31Z</time>
      </trkpt>
      <trkpt lat="47.9637" lon="7.17272">
        <ele>779</ele>
        <time>2023-05-27T12:00:40Z</time>
      </trkpt>
      <trkpt lat="47.96377" lon="7.17262">
        <ele>780</ele>
        <time>2023-05-27T12:00:52Z</time>
      </trkpt>
      <trkpt lat="47.96382" lon="7.1725">
        <ele>781</ele>
        <time>2023-05-27T12:01:03Z</time>
      </trkpt>
      <trkpt lat="47.96385" lon="7.17236">
        <ele>782</ele>
        <time>2023-05-27T12:01:15Z</time>
      </trkpt>
      <trkpt lat="47.96387" lon="7.17223">
        <ele>783</ele>
        <time>2023-05-27T12:01:25Z</time>
      </trkpt>
      <trkpt lat="47.96389" lon="7.1721">
        <ele>784</ele>
        <time>2023-05-27T12:01:35Z</time>
      </trkpt>
      <trkpt lat="47.96393" lon="7.17197">
        <ele>785</ele>
        <time>2023-05-27T12:01:45Z</time>
      </trkpt>
      <trkpt lat="47.96395" lon="7.17184">
        <ele>786</ele>
        <time>2023-05-27T12:01:55Z</time>
      </trkpt>
      <trkpt lat="47.96399" lon="7.17171">
        <ele>787</ele>
        <time>2023-05-27T12:02:05Z</time>
      </trkpt>
      <trkpt lat="47.96406" lon="7.17161">
        <ele>788</ele>
        <time>2023-05-27T12:02:14Z</time>
      </trkpt>
      <trkpt lat="47.96411" lon="7.1715">
        <ele>789</ele>
        <time>2023-05-27T12:02:23Z</time>
      </trkpt>
      <trkpt lat="47.96416" lon="7.17139">
        <ele>789</ele>
        <time>2023-05-27T12:02:32Z</time>
      </trkpt>
      <trkpt lat="47.96422" lon="7.17129">
        <ele>790</ele>
        <time>2023-05-27T12:02:42Z</time>
      </trkpt>
      <trkpt lat="47.96427" lon="7.17117">
        <ele>791</ele>
        <time>2023-05-27T12:02:52Z</time>
      </trkpt>
      <trkpt lat="47.96432" lon="7.17105">
        <ele>791</ele>
        <time>2023-05-27T12:03:01Z</time>
      </trkpt>
      <trkpt lat="47.96436" lon="7.17093">
        <ele>792</ele>
        <time>2023-05-27T12:03:11Z</time>
      </trkpt>
      <trkpt lat="47.96441" lon="7.17081">
        <ele>792</ele>
        <time>2023-05-27T12:03:21Z</time>
      </trkpt>
      <trkpt lat="47.96446" lon="7.17069">
        <ele>793</ele>
        <time>2023-05-27T12:03:30Z</time>
      </trkpt>
      <trkpt lat="47.9645" lon="7.17056">
        <ele>794</ele>
        <time>2023-05-27T12:03:40Z</time>
      </trkpt>
      <trkpt lat="47.96455" lon="7.17044">
        <ele>794</ele>
        <time>2023-05-27T12:03:49Z</time>
      </trkpt>
      <trkpt lat="47.9646" lon="7.17033">
        <ele>795</ele>
        <time>2023-05-27T12:03:59Z</time>
      </trkpt>
      <trkpt lat="47.96464" lon="7.17019">
        <ele>796</ele>
        <time>2023-05-27T12:04:10Z</time>
      </trkpt>
      <trkpt lat="47.9647" lon="7.17008">
        <ele>797</ele>
        <time>2023-05-27T12:04:21Z</time>
      </trkpt>
      <trkpt lat="47.96475" lon="7.16996">
        <ele>797</ele>
        <time>2023-05-27T12:04:31Z</time>
      </trkpt>
      <trkpt lat="47.9648" lon="7.16983">
        <ele>798</ele>
        <time>2023-05-27T12:04:40Z</time>
      </trkpt>
      <trkpt lat="47.96484" lon="7.16971">
        <ele>799</ele>
        <time>2023-05-27T12:04:48Z</time>
      </trkpt>
      <trkpt lat="47.96489" lon="7.16959">
        <ele>799</ele>
        <time>2023-05-27T12:04:58Z</time>
      </trkpt>
      <trkpt lat="47.96494" lon="7.16946">
        <ele>800</ele>
        <time>2023-05-27T12:05:08Z</time>
      </trkpt>
      <trkpt lat="47.96498" lon="7.16934">
        <ele>801</ele>
        <time>2023-05-27T12:05:18Z</time>
      </trkpt>
      <trkpt lat="47.96502" lon="7.16921">
        <ele>802</ele>
        <time>2023-05-27T12:05:27Z</time>
      </trkpt>
      <trkpt lat="47.96506" lon="7.16909">
        <ele>802</ele>
        <time>2023-05-27T12:05:35Z</time>
      </trkpt>
      <trkpt lat="47.96509" lon="7.16896">
        <ele>803</ele>
        <time>2023-05-27T12:05:44Z</time>
      </trkpt>
      <trkpt lat="47.96511" lon="7.16883">
        <ele>803</ele>
        <time>2023-05-27T12:05:54Z</time>
      </trkpt>
      <trkpt lat="47.96513" lon="7.16869">
        <ele>804</ele>
        <time>2023-05-27T12:06:05Z</time>
      </trkpt>
      <trkpt lat="47.96514" lon="7.16855">
        <ele>805</ele>
        <time>2023-05-27T12:06:17Z</time>
      </trkpt>
      <trkpt lat="47.96514" lon="7.16841">
        <ele>805</ele>
        <time>2023-05-27T12:06:27Z</time>
      </trkpt>
      <trkpt lat="47.96511" lon="7.16827">
        <ele>806</ele>
        <time>2023-05-27T12:06:39Z</time>
      </trkpt>
      <trkpt lat="47.96509" lon="7.16813">
        <ele>806</ele>
        <time>2023-05-27T12:06:50Z</time>
      </trkpt>
      <trkpt lat="47.96507" lon="7.16799">
        <ele>807</ele>
        <time>2023-05-27T12:07:01Z</time>
      </trkpt>
      <trkpt lat="47.96507" lon="7.16785">
        <ele>807</ele>
        <time>2023-05-27T12:07:10Z</time>
      </trkpt>
      <trkpt lat="47.96509" lon="7.16771">
        <ele>808</ele>
        <time>2023-05-27T12:07:18Z</time>
      </trkpt>
      <trkpt lat="47.96511" lon="7.16758">
        <ele>808</ele>
        <time>2023-05-27T12:07:26Z</time>
      </trkpt>
      <trkpt lat="47.96514" lon="7.16745">
        <ele>809</ele>
        <time>2023-05-27T12:07:34Z</time>
      </trkpt>
      <trkpt lat="47.9652" lon="7.16733">
        <ele>809</ele>
        <time>2023-05-27T12:07:43Z</time>
      </trkpt>
      <trkpt lat="47.96524" lon="7.1672">
        <ele>810</ele>
        <time>2023-05-27T12:07:52Z</time>
      </trkpt>
      <trkpt lat="47.9653" lon="7.16709">
        <ele>810</ele>
        <time>2023-05-27T12:08:00Z</time>
      </trkpt>
      <trkpt lat="47.96536" lon="7.16699">
        <ele>811</ele>
        <time>2023-05-27T12:08:14Z</time>
      </trkpt>
      <trkpt lat="47.96538" lon="7.16685">
        <ele>811</ele>
        <time>2023-05-27T12:08:24Z</time>
      </trkpt>
      <trkpt lat="47.96541" lon="7.16673">
        <ele>812</ele>
        <time>2023-05-27T12:08:33Z</time>
      </trkpt>
      <trkpt lat="47.96543" lon="7.16659">
        <ele>812</ele>
        <time>2023-05-27T12:08:43Z</time>
      </trkpt>
      <trkpt lat="47.96546" lon="7.16645">
        <ele>812</ele>
        <time>2023-05-27T12:08:52Z</time>
      </trkpt>
      <trkpt lat="47.9655" lon="7.16632">
        <ele>813</ele>
        <time>2023-05-27T12:09:01Z</time>
      </trkpt>
      <trkpt lat="47.96553" lon="7.16619">
        <ele>813</ele>
        <time>2023-05-27T12:09:10Z</time>
      </trkpt>
      <trkpt lat="47.96555" lon="7.16606">
        <ele>814</ele>
        <time>2023-05-27T12:09:19Z</time>
      </trkpt>
      <trkpt lat="47.96557" lon="7.16592">
        <ele>814</ele>
        <time>2023-05-27T12:09:29Z</time>
      </trkpt>
      <trkpt lat="47.96562" lon="7.16581">
        <ele>814</ele>
        <time>2023-05-27T12:09:40Z</time>
      </trkpt>
      <trkpt lat="47.9657" lon="7.16571">
        <ele>815</ele>
        <time>2023-05-27T12:09:49Z</time>
      </trkpt>
      <trkpt lat="47.96576" lon="7.16559">
        <ele>816</ele>
        <time>2023-05-27T12:09:58Z</time>
      </trkpt>
      <trkpt lat="47.96581" lon="7.16548">
        <ele>816</ele>
        <time>2023-05-27T12:10:07Z</time>
      </trkpt>
      <trkpt lat="47.96587" lon="7.16536">
        <ele>816</ele>
        <time>2023-05-27T12:10:16Z</time>
      </trkpt>
      <trkpt lat="47.96592" lon="7.16525">
        <ele>817</ele>
        <time>2023-05-27T12:10:23Z</time>
      </trkpt>
      <trkpt lat="47.96597" lon="7.16513">
        <ele>817</ele>
        <time>2023-05-27T12:10:33Z</time>
      </trkpt>
      <trkpt lat="47.96602" lon="7.16502">
        <ele>818</ele>
        <time>2023-05-27T12:10:42Z</time>
      </trkpt>
      <trkpt lat="47.96607" lon="7.16491">
        <ele>818</ele>
        <time>2023-05-27T12:10:51Z</time>
      </trkpt>
      <trkpt lat="47.96613" lon="7.16478">
        <ele>818</ele>
        <time>2023-05-27T12:11:00Z</time>
      </trkpt>
      <trkpt lat="47.96617" lon="7.16466">
        <ele>819</ele>
        <time>2023-05-27T12:11:10Z</time>
      </trkpt>
      <trkpt lat="47.96623" lon="7.16454">
        <ele>819</ele>
        <time>2023-05-27T12:11:19Z</time>
      </trkpt>
      <trkpt lat="47.96629" lon="7.16443">
        <ele>820</ele>
        <time>2023-05-27T12:11:28Z</time>
      </trkpt>
      <trkpt lat="47.96633" lon="7.1643">
        <ele>820</ele>
        <time>2023-05-27T12:11:37Z</time>
      </trkpt>
      <trkpt lat="47.96639" lon="7.16418">
        <ele>820</ele>
        <time>2023-05-27T12:11:46Z</time>
      </trkpt>
      <trkpt lat="47.96644" lon="7.16405">
        <ele>821</ele>
        <time>2023-05-27T12:11:57Z</time>
      </trkpt>
      <trkpt lat="47.96649" lon="7.16393">
        <ele>822</ele>
        <time>2023-05-27T12:12:07Z</time>
      </trkpt>
      <trkpt lat="47.96654" lon="7.16381">
        <ele>822</ele>
        <time>2023-05-27T12:12:16Z</time>
      </trkpt>
      <trkpt lat="47.96659" lon="7.16369">
        <ele>822</ele>
        <time>2023-05-27T12:12:26Z</time>
      </trkpt>
      <trkpt lat="47.96663" lon="7.16356">
        <ele>823</ele>
        <time>2023-05-27T12:12:34Z</time>
      </trkpt>
      <trkpt lat="47.96669" lon="7.16345">
        <ele>823</ele>
        <time>2023-05-27T12:12:42Z</time>
      </trkpt>
      <trkpt lat="47.96675" lon="7.16333">
        <ele>824</ele>
        <time>2023-05-27T12:12:52Z</time>
      </trkpt>
      <trkpt lat="47.96681" lon="7.16323">
        <ele>824</ele>
        <time>2023-05-27T12:12:59Z</time>
      </trkpt>
      <trkpt lat="47.96687" lon="7.16312">
        <ele>824</ele>
        <time>2023-05-27T12:13:06Z</time>
      </trkpt>
      <trkpt lat="47.96692" lon="7.16301">
        <ele>825</ele>
        <time>2023-05-27T12:13:16Z</time>
      </trkpt>
      <trkpt lat="47.96698" lon="7.16292">
        <ele>825</ele>
        <time>2023-05-27T12:13:25Z</time>
      </trkpt>
      <trkpt lat="47.96707" lon="7.16282">
        <ele>826</ele>
        <time>2023-05-27T12:13:33Z</time>
      </trkpt>
      <trkpt lat="47.96714" lon="7.16273">
        <ele>826</ele>
        <time>2023-05-27T12:13:41Z</time>
      </trkpt>
      <trkpt lat="47.96722" lon="7.16263">
        <ele>826</ele>
        <time>2023-05-27T12:13:50Z</time>
      </trkpt>
      <trkpt lat="47.96728" lon="7.16253">
        <ele>827</ele>
        <time>2023-05-27T12:13:59Z</time>
      </trkpt>
      <trkpt lat="47.96736" lon="7.16244">
        <ele>827</ele>
        <time>2023-05-27T12:14:08Z</time>
      </trkpt>
      <trkpt lat="47.96742" lon="7.16234">
        <ele>828</ele>
        <time>2023-05-27T12:14:17Z</time>
      </trkpt>
      <trkpt lat="47.96748" lon="7.16223">
        <ele>828</ele>
        <time>2023-05-27T12:14:27Z</time>
      </trkpt>
      <trkpt lat="47.96754" lon="7.16212">
        <ele>829</ele>
        <time>2023-05-27T12:14:36Z</time>
      </trkpt>
      <trkpt lat="47.9676" lon="7.16202">
        <ele>829</ele>
        <time>2023-05-27T12:14:45Z</time>
      </trkpt>
      <trkpt lat="47.96765" lon="7.16191">
        <ele>830</ele>
        <time>2023-05-27T12:14:54Z</time>
      </trkpt>
      <trkpt lat="47.96772" lon="7.1618">
        <ele>830</ele>
        <time>2023-05-27T12:15:02Z</time>
      </trkpt>
      <trkpt lat="47.96776" lon="7.16168">
        <ele>830</ele>
        <time>2023-05-27T12:15:11Z</time>
      </trkpt>
      <trkpt lat="47.96782" lon="7.16156">
        <ele>831</ele>
        <time>2023-05-27T12:15:20Z</time>
      </trkpt>
      <trkpt lat="47.96789" lon="7.16145">
        <ele>831</ele>
        <time>2023-05-27T12:15:28Z</time>
      </trkpt>
      <trkpt lat="47.96794" lon="7.16134">
        <ele>832</ele>
        <time>2023-05-27T12:15:36Z</time>
      </trkpt>
      <trkpt lat="47.96799" lon="7.16122">
        <ele>832</ele>
        <time>2023-05-27T12:15:45Z</time>
      </trkpt>
      <trkpt lat="47.96803" lon="7.1611">
        <ele>833</ele>
        <time>2023-05-27T12:15:54Z</time>
      </trkpt>
      <trkpt lat="47.96808" lon="7.16097">
        <ele>833</ele>
        <time>2023-05-27T12:16:04Z</time>
      </trkpt>
      <trkpt lat="47.96815" lon="7.16087">
        <ele>834</ele>
        <time>2023-05-27T12:16:13Z</time>
      </trkpt>
      <trkpt lat="47.96823" lon="7.16079">
        <ele>834</ele>
        <time>2023-05-27T12:16:21Z</time>
      </trkpt>
      <trkpt lat="47.96832" lon="7.16074">
        <ele>834</ele>
        <time>2023-05-27T12:16:30Z</time>
      </trkpt>
      <trkpt lat="47.96842" lon="7.1607">
        <ele>835</ele>
        <time>2023-05-27T12:16:39Z</time>
      </trkpt>
      <trkpt lat="47.96852" lon="7.16066">
        <ele>835</ele>
        <time>2023-05-27T12:16:47Z</time>
      </trkpt>
      <trkpt lat="47.96861" lon="7.16063">
        <ele>836</ele>
        <time>2023-05-27T12:16:55Z</time>
      </trkpt>
      <trkpt lat="47.96871" lon="7.16061">
        <ele>836</ele>
        <time>2023-05-27T12:17:06Z</time>
      </trkpt>
      <trkpt lat="47.96881" lon="7.16059">
        <ele>837</ele>
        <time>2023-05-27T12:17:14Z</time>
      </trkpt>
      <trkpt lat="47.9689" lon="7.16057">
        <ele>837</ele>
        <time>2023-05-27T12:17:21Z</time>
      </trkpt>
      <trkpt lat="47.96899" lon="7.16053">
        <ele>837</ele>
        <time>2023-05-27T12:17:30Z</time>
      </trkpt>
      <trkpt lat="47.96907" lon="7.16048">
        <ele>838</ele>
        <time>2023-05-27T12:17:39Z</time>
      </trkpt>
      <trkpt lat="47.96917" lon="7.16044">
        <ele>838</ele>
        <time>2023-05-27T12:17:50Z</time>
      </trkpt>
      <trkpt lat="47.96926" lon="7.16041">
        <ele>839</ele>
        <time>2023-05-27T12:18:00Z</time>
      </trkpt>
      <trkpt lat="47.96936" lon="7.16038">
        <ele>839</ele>
        <time>2023-05-27T12:18:09Z</time>
      </trkpt>
      <trkpt lat="47.96945" lon="7.16038">
        <ele>840</ele>
        <time>2023-05-27T12:18:17Z</time>
      </trkpt>
      <trkpt lat="47.96954" lon="7.16037">
        <ele>840</ele>
        <time>2023-05-27T12:18:25Z</time>
      </trkpt>
      <trkpt lat="47.96964" lon="7.16038">
        <ele>841</ele>
        <time>2023-05-27T12:18:34Z</time>
      </trkpt>
      <trkpt lat="47.96973" lon="7.1604">
        <ele>841</ele>
        <time>2023-05-27T12:18:42Z</time>
      </trkpt>
      <trkpt lat="47.96982" lon="7.16044">
        <ele>841</ele>
        <time>2023-05-27T12:18:50Z</time>
      </trkpt>
      <trkpt lat="47.96991" lon="7.16051">
        <ele>842</ele>
        <time>2023-05-27T12:18:58Z</time>
      </trkpt>
      <trkpt lat="47.96999" lon="7.1606">
        <ele>842</ele>
        <time>2023-05-27T12:19:06Z</time>
      </trkpt>
      <trkpt lat="47.97007" lon="7.16068">
        <ele>843</ele>
        <time>2023-05-27T12:19:14Z</time>
      </trkpt>
      <trkpt lat="47.97015" lon="7.16075">
        <ele>843</ele>
        <time>2023-05-27T12:19:22Z</time>
      </trkpt>
      <trkpt lat="47.97023" lon="7.16081">
        <ele>843</ele>
        <time>2023-05-27T12:19:30Z</time>
      </trkpt>
      <trkpt lat="47.97033" lon="7.16084">
        <ele>844</ele>
        <time>2023-05-27T12:19:39Z</time>
      </trkpt>
      <trkpt lat="47.97042" lon="7.16084">
        <ele>844</ele>
        <time>2023-05-27T12:19:49Z</time>
      </trkpt>
      <trkpt lat="47.97051" lon="7.16083">
        <ele>845</ele>
        <time>2023-05-27T12:20:00Z</time>
      </trkpt>
      <trkpt lat="47.9706" lon="7.16077">
        <ele>845</ele>
        <time>2023-05-27T12:20:10Z</time>
      </trkpt>
      <trkpt lat="47.97069" lon="7.16071">
        <ele>846</ele>
        <time>2023-05-27T12:20:18Z</time>
      </trkpt>
      <trkpt lat="47.97077" lon="7.16063">
        <ele>846</ele>
        <time>2023-05-27T12:20:27Z</time>
      </trkpt>
      <trkpt lat="47.97085" lon="7.16055">
        <ele>846</ele>
        <time>2023-05-27T12:20:35Z</time>
      </trkpt>
      <trkpt lat="47.9709" lon="7.16044">
        <ele>847</ele>
        <time>2023-05-27T12:20:45Z</time>
      </trkpt>
      <trkpt lat="47.97096" lon="7.16033">
        <ele>847</ele>
        <time>2023-05-27T12:20:55Z</time>
      </trkpt>
      <trkpt lat="47.97101" lon="7.1602">
        <ele>848</ele>
        <time>2023-05-27T12:21:04Z</time>
      </trkpt>
      <trkpt lat="47.97107" lon="7.16008">
        <ele>848</ele>
        <time>2023-05-27T12:21:12Z</time>
      </trkpt>
      <trkpt lat="47.97111" lon="7.15997">
        <ele>849</ele>
        <time>2023-05-27T12:21:20Z</time>
      </trkpt>
      <trkpt lat="47.97116" lon="7.15985">
        <ele>849</ele>
        <time>2023-05-27T12:21:29Z</time>
      </trkpt>
      <trkpt lat="47.97118" lon="7.15972">
        <ele>850</ele>
        <time>2023-05-27T12:21:58Z</time>
      </trkpt>
      <trkpt lat="47.97122" lon="7.15967">
        <ele>851</ele>
        <time>2023-05-27T12:23:26Z</time>
      </trkpt>
      <trkpt lat="47.97123" lon="7.15955">
        <ele>852</ele>
        <time>2023-05-27T12:26:53Z</time>
      </trkpt>
      <trkpt lat="47.97127" lon="7.15941">
        <ele>852</ele>
        <time>2023-05-27T12:27:06Z</time>
      </trkpt>
      <trkpt lat="47.9713" lon="7.15928">
        <ele>853</ele>
        <time>2023-05-27T12:27:18Z</time>
      </trkpt>
      <trkpt lat="47.97137" lon="7.15919">
        <ele>853</ele>
        <time>2023-05-27T12:27:29Z</time>
      </trkpt>
      <trkpt lat="47.97144" lon="7.15909">
        <ele>853</ele>
        <time>2023-05-27T12:27:43Z</time>
      </trkpt>
      <trkpt lat="47.97152" lon="7.15903">
        <ele>853</ele>
        <time>2023-05-27T12:27:54Z</time>
      </trkpt>
      <trkpt lat="47.97162" lon="7.15902">
        <ele>854</ele>
        <time>2023-05-27T12:28:02Z</time>
      </trkpt>
      <trkpt lat="47.97171" lon="7.15904">
        <ele>854</ele>
        <time>2023-05-27T12:28:10Z</time>
      </trkpt>
      <trkpt lat="47.97181" lon="7.15905">
        <ele>854</ele>
        <time>2023-05-27T12:28:21Z</time>
      </trkpt>
      <trkpt lat="47.9719" lon="7.15905">
        <ele>854</ele>
        <time>2023-05-27T12:28:31Z</time>
      </trkpt>
      <trkpt lat="47.97199" lon="7.15908">
        <ele>855</ele>
        <time>2023-05-27T12:28:48Z</time>
      </trkpt>
      <trkpt lat="47.97208" lon="7.15904">
        <ele>855</ele>
        <time>2023-05-27T12:28:58Z</time>
      </trkpt>
      <trkpt lat="47.97217" lon="7.159">
        <ele>856</ele>
        <time>2023-05-27T12:29:08Z</time>
      </trkpt>
      <trkpt lat="47.97226" lon="7.15896">
        <ele>856</ele>
        <time>2023-05-27T12:29:18Z</time>
      </trkpt>
      <trkpt lat="47.97235" lon="7.15893">
        <ele>856</ele>
        <time>2023-05-27T12:29:29Z</time>
      </trkpt>
      <trkpt lat="47.97244" lon="7.1589">
        <ele>857</ele>
        <time>2023-05-27T12:29:47Z</time>
      </trkpt>
      <trkpt lat="47.97253" lon="7.15888">
        <ele>857</ele>
        <time>2023-05-27T12:29:56Z</time>
      </trkpt>
      <trkpt lat="47.97263" lon="7.15887">
        <ele>858</ele>
        <time>2023-05-27T12:30:06Z</time>
      </trkpt>
      <trkpt lat="47.97273" lon="7.15886">
        <ele>858</ele>
        <time>2023-05-27T12:30:14Z</time>
      </trkpt>
      <trkpt lat="47.97282" lon="7.15884">
        <ele>858</ele>
        <time>2023-05-27T12:30:22Z</time>
      </trkpt>
      <trkpt lat="47.97291" lon="7.15881">
        <ele>859</ele>
        <time>2023-05-27T12:30:30Z</time>
      </trkpt>
      <trkpt lat="47.973" lon="7.15879">
        <ele>859</ele>
        <time>2023-05-27T12:30:38Z</time>
      </trkpt>
      <trkpt lat="47.97309" lon="7.15876">
        <ele>860</ele>
        <time>2023-05-27T12:30:48Z</time>
      </trkpt>
      <trkpt lat="47.97318" lon="7.15869">
        <ele>860</ele>
        <time>2023-05-27T12:30:59Z</time>
      </trkpt>
      <trkpt lat="47.97326" lon="7.15861">
        <ele>861</ele>
        <time>2023-05-27T12:31:08Z</time>
      </trkpt>
      <trkpt lat="47.97333" lon="7.15853">
        <ele>861</ele>
        <time>2023-05-27T12:31:17Z</time>
      </trkpt>
      <trkpt lat="47.97339" lon="7.15842">
        <ele>861</ele>
        <time>2023-05-27T12:31:27Z</time>
      </trkpt>
      <trkpt lat="47.97347" lon="7.15833">
        <ele>862</ele>
        <time>2023-05-27T12:31:37Z</time>
      </trkpt>
      <trkpt lat="47.97352" lon="7.15821">
        <ele>862</ele>
        <time>2023-05-27T12:31:47Z</time>
      </trkpt>
      <trkpt lat="47.97357" lon="7.15808">
        <ele>863</ele>
        <time>2023-05-27T12:31:57Z</time>
      </trkpt>
      <trkpt lat="47.9736" lon="7.15796">
        <ele>863</ele>
        <time>2023-05-27T12:32:07Z</time>
      </trkpt>
      <trkpt lat="47.9736" lon="7.15782">
        <ele>864</ele>
        <time>2023-05-27T12:32:17Z</time>
      </trkpt>
      <trkpt lat="47.97359" lon="7.15768">
        <ele>864</ele>
        <time>2023-05-27T12:32:27Z</time>
      </trkpt>
      <trkpt lat="47.9736" lon="7.15755">
        <ele>865</ele>
        <time>2023-05-27T12:32:37Z</time>
      </trkpt>
      <trkpt lat="47.97359" lon="7.15741">
        <ele>865</ele>
        <time>2023-05-27T12:32:48Z</time>
      </trkpt>
      <trkpt lat="47.97358" lon="7.15726">
        <ele>867</ele>
        <time>2023-05-27T12:32:58Z</time>
      </trkpt>
      <trkpt lat="47.97359" lon="7.15712">
        <ele>867</ele>
        <time>2023-05-27T12:33:07Z</time>
      </trkpt>
      <trkpt lat="47.9736" lon="7.15698">
        <ele>867</ele>
        <time>2023-05-27T12:33:15Z</time>
      </trkpt>
      <trkpt lat="47.97361" lon="7.15684">
        <ele>868</ele>
        <time>2023-05-27T12:33:23Z</time>
      </trkpt>
      <trkpt lat="47.97366" lon="7.15671">
        <ele>868</ele>
        <time>2023-05-27T12:33:31Z</time>
      </trkpt>
      <trkpt lat="47.97367" lon="7.15657">
        <ele>869</ele>
        <time>2023-05-27T12:33:41Z</time>
      </trkpt>
      <trkpt lat="47.97371" lon="7.15644">
        <ele>869</ele>
        <time>2023-05-27T12:33:50Z</time>
      </trkpt>
      <trkpt lat="47.97378" lon="7.15634">
        <ele>870</ele>
        <time>2023-05-27T12:33:58Z</time>
      </trkpt>
      <trkpt lat="47.97385" lon="7.15626">
        <ele>870</ele>
        <time>2023-05-27T12:34:06Z</time>
      </trkpt>
      <trkpt lat="47.97392" lon="7.15617">
        <ele>870</ele>
        <time>2023-05-27T12:34:15Z</time>
      </trkpt>
      <trkpt lat="47.974" lon="7.15608">
        <ele>871</ele>
        <time>2023-05-27T12:34:25Z</time>
      </trkpt>
      <trkpt lat="47.97408" lon="7.156">
        <ele>871</ele>
        <time>2023-05-27T12:34:33Z</time>
      </trkpt>
      <trkpt lat="47.97416" lon="7.15593">
        <ele>871</ele>
        <time>2023-05-27T12:34:43Z</time>
      </trkpt>
      <trkpt lat="47.97423" lon="7.15586">
        <ele>872</ele>
        <time>2023-05-27T12:34:51Z</time>
      </trkpt>
      <trkpt lat="47.97431" lon="7.15578">
        <ele>872</ele>
        <time>2023-05-27T12:35:00Z</time>
      </trkpt>
      <trkpt lat="47.9744" lon="7.15571">
        <ele>873</ele>
        <time>2023-05-27T12:35:10Z</time>
      </trkpt>
      <trkpt lat="47.9745" lon="7.15568">
        <ele>873</ele>
        <time>2023-05-27T12:35:20Z</time>
      </trkpt>
      <trkpt lat="47.97459" lon="7.15566">
        <ele>874</ele>
        <time>2023-05-27T12:35:28Z</time>
      </trkpt>
      <trkpt lat="47.97468" lon="7.15563">
        <ele>874</ele>
        <time>2023-05-27T12:35:37Z</time>
      </trkpt>
      <trkpt lat="47.97478" lon="7.15559">
        <ele>874</ele>
        <time>2023-05-27T12:35:45Z</time>
      </trkpt>
      <trkpt lat="47.97487" lon="7.15555">
        <ele>875</ele>
        <time>2023-05-27T12:35:53Z</time>
      </trkpt>
      <trkpt lat="47.97496" lon="7.15549">
        <ele>875</ele>
        <time>2023-05-27T12:36:02Z</time>
      </trkpt>
      <trkpt lat="47.97505" lon="7.15545">
        <ele>875</ele>
        <time>2023-05-27T12:36:11Z</time>
      </trkpt>
      <trkpt lat="47.97514" lon="7.1554">
        <ele>876</ele>
        <time>2023-05-27T12:36:21Z</time>
      </trkpt>
      <trkpt lat="47.97523" lon="7.15536">
        <ele>876</ele>
        <time>2023-05-27T12:36:30Z</time>
      </trkpt>
      <trkpt lat="47.97532" lon="7.15532">
        <ele>877</ele>
        <time>2023-05-27T12:36:38Z</time>
      </trkpt>
      <trkpt lat="47.97541" lon="7.15528">
        <ele>877</ele>
        <time>2023-05-27T12:36:49Z</time>
      </trkpt>
      <trkpt lat="47.9755" lon="7.15522">
        <ele>878</ele>
        <time>2023-05-27T12:37:00Z</time>
      </trkpt>
      <trkpt lat="47.97559" lon="7.15519">
        <ele>878</ele>
        <time>2023-05-27T12:37:10Z</time>
      </trkpt>
      <trkpt lat="47.97568" lon="7.15513">
        <ele>878</ele>
        <time>2023-05-27T12:37:19Z</time>
      </trkpt>
      <trkpt lat="47.97577" lon="7.15508">
        <ele>879</ele>
        <time>2023-05-27T12:37:28Z</time>
      </trkpt>
      <trkpt lat="47.97586" lon="7.15506">
        <ele>879</ele>
        <time>2023-05-27T12:37:35Z</time>
      </trkpt>
      <trkpt lat="47.97594" lon="7.155">
        <ele>879</ele>
        <time>2023-05-27T12:37:43Z</time>
      </trkpt>
      <trkpt lat="47.97603" lon="7.15494">
        <ele>880</ele>
        <time>2023-05-27T12:37:52Z</time>
      </trkpt>
      <trkpt lat="47.97612" lon="7.15489">
        <ele>880</ele>
        <time>2023-05-27T12:38:01Z</time>
      </trkpt>
      <trkpt lat="47.97621" lon="7.15486">
        <ele>881</ele>
        <time>2023-05-27T12:38:09Z</time>
      </trkpt>
      <trkpt lat="47.9763" lon="7.1548">
        <ele>881</ele>
        <time>2023-05-27T12:38:18Z</time>
      </trkpt>
      <trkpt lat="47.97639" lon="7.15475">
        <ele>882</ele>
        <time>2023-05-27T12:38:27Z</time>
      </trkpt>
      <trkpt lat="47.97648" lon="7.1547">
        <ele>882</ele>
        <time>2023-05-27T12:38:35Z</time>
      </trkpt>
      <trkpt lat="47.97657" lon="7.15465">
        <ele>883</ele>
        <time>2023-05-27T12:38:44Z</time>
      </trkpt>
      <trkpt lat="47.97666" lon="7.1546">
        <ele>883</ele>
        <time>2023-05-27T12:38:53Z</time>
      </trkpt>
      <trkpt lat="47.97675" lon="7.15458">
        <ele>883</ele>
        <time>2023-05-27T12:39:02Z</time>
      </trkpt>
      <trkpt lat="47.97684" lon="7.15455">
        <ele>884</ele>
        <time>2023-05-27T12:39:10Z</time>
      </trkpt>
      <trkpt lat="47.97693" lon="7.1545">
        <ele>884</ele>
        <time>2023-05-27T12:39:21Z</time>
      </trkpt>
      <trkpt lat="47.97702" lon="7.15449">
        <ele>884</ele>
        <time>2023-05-27T12:39:30Z</time>
      </trkpt>
      <trkpt lat="47.97712" lon="7.15449">
        <ele>885</ele>
        <time>2023-05-27T12:39:39Z</time>
      </trkpt>
      <trkpt lat="47.97721" lon="7.15449">
        <ele>886</ele>
        <time>2023-05-27T12:39:47Z</time>
      </trkpt>
      <trkpt lat="47.9773" lon="7.15447">
        <ele>886</ele>
        <time>2023-05-27T12:39:56Z</time>
      </trkpt>
      <trkpt lat="47.9774" lon="7.15443">
        <ele>886</ele>
        <time>2023-05-27T12:40:05Z</time>
      </trkpt>
      <trkpt lat="47.97749" lon="7.15438">
        <ele>887</ele>
        <time>2023-05-27T12:40:15Z</time>
      </trkpt>
      <trkpt lat="47.97757" lon="7.15432">
        <ele>889</ele>
        <time>2023-05-27T12:41:14Z</time>
      </trkpt>
      <trkpt lat="47.97765" lon="7.15424">
        <ele>889</ele>
        <time>2023-05-27T12:41:32Z</time>
      </trkpt>
      <trkpt lat="47.9777" lon="7.15419">
        <ele>889</ele>
        <time>2023-05-27T12:41:46Z</time>
      </trkpt>
      <trkpt lat="47.97772" lon="7.15417">
        <ele>889</ele>
        <time>2023-05-27T12:42:37Z</time>
      </trkpt>
      <trkpt lat="47.9777" lon="7.15403">
        <ele>889</ele>
        <time>2023-05-27T12:42:56Z</time>
      </trkpt>
      <trkpt lat="47.97766" lon="7.1539">
        <ele>889</ele>
        <time>2023-05-27T12:43:06Z</time>
      </trkpt>
      <trkpt lat="47.97762" lon="7.15378">
        <ele>888</ele>
        <time>2023-05-27T12:43:18Z</time>
      </trkpt>
      <trkpt lat="47.97759" lon="7.15364">
        <ele>888</ele>
        <time>2023-05-27T12:43:31Z</time>
      </trkpt>
      <trkpt lat="47.97756" lon="7.15351">
        <ele>888</ele>
        <time>2023-05-27T12:43:39Z</time>
      </trkpt>
      <trkpt lat="47.97754" lon="7.15338">
        <ele>887</ele>
        <time>2023-05-27T12:43:48Z</time>
      </trkpt>
      <trkpt lat="47.97751" lon="7.15325">
        <ele>887</ele>
        <time>2023-05-27T12:43:59Z</time>
      </trkpt>
      <trkpt lat="47.97746" lon="7.15313">
        <ele>887</ele>
        <time>2023-05-27T12:44:11Z</time>
      </trkpt>
      <trkpt lat="47.9774" lon="7.15302">
        <ele>886</ele>
        <time>2023-05-27T12:44:22Z</time>
      </trkpt>
      <trkpt lat="47.97735" lon="7.15289">
        <ele>886</ele>
        <time>2023-05-27T12:44:31Z</time>
      </trkpt>
      <trkpt lat="47.9773" lon="7.15277">
        <ele>886</ele>
        <time>2023-05-27T12:44:39Z</time>
      </trkpt>
      <trkpt lat="47.97726" lon="7.15265">
        <ele>885</ele>
        <time>2023-05-27T12:44:49Z</time>
      </trkpt>
      <trkpt lat="47.97721" lon="7.15253">
        <ele>885</ele>
        <time>2023-05-27T12:44:57Z</time>
      </trkpt>
      <trkpt lat="47.97716" lon="7.15241">
        <ele>885</ele>
        <time>2023-05-27T12:45:06Z</time>
      </trkpt>
      <trkpt lat="47.97713" lon="7.15228">
        <ele>884</ele>
        <time>2023-05-27T12:45:14Z</time>
      </trkpt>
      <trkpt lat="47.97708" lon="7.15216">
        <ele>884</ele>
        <time>2023-05-27T12:45:24Z</time>
      </trkpt>
      <trkpt lat="47.97705" lon="7.15203">
        <ele>884</ele>
        <time>2023-05-27T12:45:36Z</time>
      </trkpt>
      <trkpt lat="47.97701" lon="7.1519">
        <ele>883</ele>
        <time>2023-05-27T12:45:45Z</time>
      </trkpt>
      <trkpt lat="47.97698" lon="7.15178">
        <ele>883</ele>
        <time>2023-05-27T12:45:53Z</time>
      </trkpt>
      <trkpt lat="47.97694" lon="7.15164">
        <ele>883</ele>
        <time>2023-05-27T12:46:02Z</time>
      </trkpt>
      <trkpt lat="47.97692" lon="7.15151">
        <ele>883</ele>
        <time>2023-05-27T12:46:11Z</time>
      </trkpt>
      <trkpt lat="47.97691" lon="7.15137">
        <ele>882</ele>
        <time>2023-05-27T12:46:19Z</time>
      </trkpt>
      <trkpt lat="47.97691" lon="7.15122">
        <ele>882</ele>
        <time>2023-05-27T12:46:27Z</time>
      </trkpt>
      <trkpt lat="47.9769" lon="7.15108">
        <ele>881</ele>
        <time>2023-05-27T12:46:35Z</time>
      </trkpt>
      <trkpt lat="47.97687" lon="7.15093">
        <ele>881</ele>
        <time>2023-05-27T12:46:43Z</time>
      </trkpt>
      <trkpt lat="47.97684" lon="7.1508">
        <ele>881</ele>
        <time>2023-05-27T12:46:51Z</time>
      </trkpt>
      <trkpt lat="47.97684" lon="7.15065">
        <ele>880</ele>
        <time>2023-05-27T12:47:00Z</time>
      </trkpt>
      <trkpt lat="47.97682" lon="7.15051">
        <ele>880</ele>
        <time>2023-05-27T12:47:08Z</time>
      </trkpt>
      <trkpt lat="47.97684" lon="7.15037">
        <ele>880</ele>
        <time>2023-05-27T12:47:17Z</time>
      </trkpt>
      <trkpt lat="47.97682" lon="7.15023">
        <ele>879</ele>
        <time>2023-05-27T12:47:25Z</time>
      </trkpt>
      <trkpt lat="47.97682" lon="7.15008">
        <ele>879</ele>
        <time>2023-05-27T12:47:33Z</time>
      </trkpt>
      <trkpt lat="47.97682" lon="7.14993">
        <ele>878</ele>
        <time>2023-05-27T12:47:42Z</time>
      </trkpt>
      <trkpt lat="47.97682" lon="7.14979">
        <ele>878</ele>
        <time>2023-05-27T12:47:50Z</time>
      </trkpt>
      <trkpt lat="47.97682" lon="7.14965">
        <ele>877</ele>
        <time>2023-05-27T12:47:58Z</time>
      </trkpt>
      <trkpt lat="47.9768" lon="7.14951">
        <ele>877</ele>
        <time>2023-05-27T12:48:06Z</time>
      </trkpt>
      <trkpt lat="47.97679" lon="7.14937">
        <ele>877</ele>
        <time>2023-05-27T12:48:15Z</time>
      </trkpt>
      <trkpt lat="47.97677" lon="7.14922">
        <ele>876</ele>
        <time>2023-05-27T12:48:24Z</time>
      </trkpt>
      <trkpt lat="47.97675" lon="7.14908">
        <ele>876</ele>
        <time>2023-05-27T12:48:33Z</time>
      </trkpt>
      <trkpt lat="47.97672" lon="7.14895">
        <ele>876</ele>
        <time>2023-05-27T12:48:42Z</time>
      </trkpt>
      <trkpt lat="47.97668" lon="7.14882">
        <ele>876</ele>
        <time>2023-05-27T12:48:51Z</time>
      </trkpt>
      <trkpt lat="47.97663" lon="7.14869">
        <ele>876</ele>
        <time>2023-05-27T12:49:00Z</time>
      </trkpt>
      <trkpt lat="47.97659" lon="7.14857">
        <ele>876</ele>
        <time>2023-05-27T12:49:09Z</time>
      </trkpt>
      <trkpt lat="47.97654" lon="7.14844">
        <ele>875</ele>
        <time>2023-05-27T12:49:19Z</time>
      </trkpt>
      <trkpt lat="47.97649" lon="7.14832">
        <ele>875</ele>
        <time>2023-05-27T12:49:28Z</time>
      </trkpt>
      <trkpt lat="47.97641" lon="7.14824">
        <ele>875</ele>
        <time>2023-05-27T12:49:36Z</time>
      </trkpt>
      <trkpt lat="47.97633" lon="7.14815">
        <ele>875</ele>
        <time>2023-05-27T12:49:45Z</time>
      </trkpt>
      <trkpt lat="47.97626" lon="7.14807">
        <ele>875</ele>
        <time>2023-05-27T12:49:56Z</time>
      </trkpt>
      <trkpt lat="47.97625" lon="7.14792">
        <ele>875</ele>
        <time>2023-05-27T12:50:31Z</time>
      </trkpt>
      <trkpt lat="47.97619" lon="7.14781">
        <ele>875</ele>
        <time>2023-05-27T12:50:43Z</time>
      </trkpt>
      <trkpt lat="47.97616" lon="7.14779">
        <ele>876</ele>
        <time>2023-05-27T12:51:14Z</time>
      </trkpt>
      <trkpt lat="47.97624" lon="7.14787">
        <ele>876</ele>
        <time>2023-05-27T12:51:23Z</time>
      </trkpt>
      <trkpt lat="47.97633" lon="7.14787">
        <ele>876</ele>
        <time>2023-05-27T12:51:34Z</time>
      </trkpt>
      <trkpt lat="47.97642" lon="7.14784">
        <ele>875</ele>
        <time>2023-05-27T12:51:44Z</time>
      </trkpt>
      <trkpt lat="47.97646" lon="7.14771">
        <ele>875</ele>
        <time>2023-05-27T12:51:56Z</time>
      </trkpt>
      <trkpt lat="47.97653" lon="7.14768">
        <ele>875</ele>
        <time>2023-05-27T12:52:14Z</time>
      </trkpt>
      <trkpt lat="47.97662" lon="7.14764">
        <ele>876</ele>
        <time>2023-05-27T12:52:30Z</time>
      </trkpt>
      <trkpt lat="47.9767" lon="7.14759">
        <ele>876</ele>
        <time>2023-05-27T12:52:41Z</time>
      </trkpt>
      <trkpt lat="47.97679" lon="7.14754">
        <ele>876</ele>
        <time>2023-05-27T12:52:52Z</time>
      </trkpt>
      <trkpt lat="47.97687" lon="7.14747">
        <ele>877</ele>
        <time>2023-05-27T12:53:03Z</time>
      </trkpt>
      <trkpt lat="47.97695" lon="7.14739">
        <ele>878</ele>
        <time>2023-05-27T12:53:14Z</time>
      </trkpt>
      <trkpt lat="47.97703" lon="7.14731">
        <ele>878</ele>
        <time>2023-05-27T12:53:25Z</time>
      </trkpt>
      <trkpt lat="47.97709" lon="7.14721">
        <ele>879</ele>
        <time>2023-05-27T12:53:36Z</time>
      </trkpt>
      <trkpt lat="47.97717" lon="7.14714">
        <ele>879</ele>
        <time>2023-05-27T12:53:46Z</time>
      </trkpt>
      <trkpt lat="47.97726" lon="7.14707">
        <ele>880</ele>
        <time>2023-05-27T12:53:57Z</time>
      </trkpt>
      <trkpt lat="47.97733" lon="7.14698">
        <ele>881</ele>
        <time>2023-05-27T12:54:08Z</time>
      </trkpt>
      <trkpt lat="47.97737" lon="7.14688">
        <ele>882</ele>
        <time>2023-05-27T12:54:24Z</time>
      </trkpt>
      <trkpt lat="47.97728" lon="7.14691">
        <ele>883</ele>
        <time>2023-05-27T12:54:37Z</time>
      </trkpt>
      <trkpt lat="47.9772" lon="7.14696">
        <ele>884</ele>
        <time>2023-05-27T12:54:49Z</time>
      </trkpt>
      <trkpt lat="47.97711" lon="7.14699">
        <ele>885</ele>
        <time>2023-05-27T12:55:02Z</time>
      </trkpt>
      <trkpt lat="47.97702" lon="7.14702">
        <ele>886</ele>
        <time>2023-05-27T12:55:14Z</time>
      </trkpt>
      <trkpt lat="47.97692" lon="7.14703">
        <ele>888</ele>
        <time>2023-05-27T12:55:26Z</time>
      </trkpt>
      <trkpt lat="47.97683" lon="7.14708">
        <ele>889</ele>
        <time>2023-05-27T12:55:39Z</time>
      </trkpt>
      <trkpt lat="47.97674" lon="7.14707">
        <ele>890</ele>
        <time>2023-05-27T12:55:50Z</time>
      </trkpt>
      <trkpt lat="47.97671" lon="7.14697">
        <ele>892</ele>
        <time>2023-05-27T12:56:02Z</time>
      </trkpt>
      <trkpt lat="47.97674" lon="7.14684">
        <ele>893</ele>
        <time>2023-05-27T12:56:13Z</time>
      </trkpt>
      <trkpt lat="47.9768" lon="7.14673">
        <ele>894</ele>
        <time>2023-05-27T12:56:23Z</time>
      </trkpt>
      <trkpt lat="47.97688" lon="7.14663">
        <ele>895</ele>
        <time>2023-05-27T12:56:33Z</time>
      </trkpt>
      <trkpt lat="47.97695" lon="7.14653">
        <ele>896</ele>
        <time>2023-05-27T12:56:42Z</time>
      </trkpt>
      <trkpt lat="47.97703" lon="7.14644">
        <ele>897</ele>
        <time>2023-05-27T12:56:52Z</time>
      </trkpt>
      <trkpt lat="47.97709" lon="7.14635">
        <ele>898</ele>
        <time>2023-05-27T12:57:02Z</time>
      </trkpt>
      <trkpt lat="47.97717" lon="7.14625">
        <ele>899</ele>
        <time>2023-05-27T12:57:13Z</time>
      </trkpt>
      <trkpt lat="47.97723" lon="7.14616">
        <ele>900</ele>
        <time>2023-05-27T12:57:23Z</time>
      </trkpt>
      <trkpt lat="47.97731" lon="7.14607">
        <ele>901</ele>
        <time>2023-05-27T12:57:34Z</time>
      </trkpt>
      <trkpt lat="47.97738" lon="7.146">
        <ele>902</ele>
        <time>2023-05-27T12:57:43Z</time>
      </trkpt>
      <trkpt lat="47.97746" lon="7.14591">
        <ele>903</ele>
        <time>2023-05-27T12:57:53Z</time>
      </trkpt>
      <trkpt lat="47.97754" lon="7.14583">
        <ele>904</ele>
        <time>2023-05-27T12:58:04Z</time>
      </trkpt>
      <trkpt lat="47.97763" lon="7.14576">
        <ele>905</ele>
        <time>2023-05-27T12:58:15Z</time>
      </trkpt>
      <trkpt lat="47.97771" lon="7.14569">
        <ele>906</ele>
        <time>2023-05-27T12:58:26Z</time>
      </trkpt>
      <trkpt lat="47.97778" lon="7.1456">
        <ele>908</ele>
        <time>2023-05-27T12:58:37Z</time>
      </trkpt>
      <trkpt lat="47.97783" lon="7.14548">
        <ele>909</ele>
        <time>2023-05-27T12:58:47Z</time>
      </trkpt>
      <trkpt lat="47.97787" lon="7.14535">
        <ele>910</ele>
        <time>2023-05-27T12:58:58Z</time>
      </trkpt>
      <trkpt lat="47.97785" lon="7.14522">
        <ele>911</ele>
        <time>2023-05-27T12:59:11Z</time>
      </trkpt>
      <trkpt lat="47.97784" lon="7.14508">
        <ele>912</ele>
        <time>2023-05-27T12:59:21Z</time>
      </trkpt>
      <trkpt lat="47.97785" lon="7.14495">
        <ele>914</ele>
        <time>2023-05-27T12:59:31Z</time>
      </trkpt>
      <trkpt lat="47.97788" lon="7.14481">
        <ele>915</ele>
        <time>2023-05-27T12:59:40Z</time>
      </trkpt>
      <trkpt lat="47.97789" lon="7.14467">
        <ele>916</ele>
        <time>2023-05-27T12:59:49Z</time>
      </trkpt>
      <trkpt lat="47.97791" lon="7.14454">
        <ele>917</ele>
        <time>2023-05-27T12:59:58Z</time>
      </trkpt>
      <trkpt lat="47.97795" lon="7.14441">
        <ele>918</ele>
        <time>2023-05-27T13:00:10Z</time>
      </trkpt>
      <trkpt lat="47.97802" lon="7.14433">
        <ele>920</ele>
        <time>2023-05-27T13:00:24Z</time>
      </trkpt>
      <trkpt lat="47.9781" lon="7.14425">
        <ele>921</ele>
        <time>2023-05-27T13:00:33Z</time>
      </trkpt>
      <trkpt lat="47.97818" lon="7.14419">
        <ele>922</ele>
        <time>2023-05-27T13:00:44Z</time>
      </trkpt>
      <trkpt lat="47.97826" lon="7.14413">
        <ele>923</ele>
        <time>2023-05-27T13:00:55Z</time>
      </trkpt>
      <trkpt lat="47.97834" lon="7.14406">
        <ele>925</ele>
        <time>2023-05-27T13:01:07Z</time>
      </trkpt>
      <trkpt lat="47.97842" lon="7.14398">
        <ele>926</ele>
        <time>2023-05-27T13:01:14Z</time>
      </trkpt>
      <trkpt lat="47.9785" lon="7.14392">
        <ele>927</ele>
        <time>2023-05-27T13:01:24Z</time>
      </trkpt>
      <trkpt lat="47.97859" lon="7.14386">
        <ele>928</ele>
        <time>2023-05-27T13:01:34Z</time>
      </trkpt>
      <trkpt lat="47.97869" lon="7.14384">
        <ele>930</ele>
        <time>2023-05-27T13:01:43Z</time>
      </trkpt>
      <trkpt lat="47.97878" lon="7.14384">
        <ele>931</ele>
        <time>2023-05-27T13:01:52Z</time>
      </trkpt>
      <trkpt lat="47.97888" lon="7.14383">
        <ele>931</ele>
        <time>2023-05-27T13:02:01Z</time>
      </trkpt>
      <trkpt lat="47.97897" lon="7.14383">
        <ele>932</ele>
        <time>2023-05-27T13:02:11Z</time>
      </trkpt>
      <trkpt lat="47.97907" lon="7.1438">
        <ele>933</ele>
        <time>2023-05-27T13:02:22Z</time>
      </trkpt>
      <trkpt lat="47.97912" lon="7.1437">
        <ele>934</ele>
        <time>2023-05-27T13:02:34Z</time>
      </trkpt>
      <trkpt lat="47.97906" lon="7.14361">
        <ele>934</ele>
        <time>2023-05-27T13:02:48Z</time>
      </trkpt>
      <trkpt lat="47.97897" lon="7.1436">
        <ele>935</ele>
        <time>2023-05-27T13:02:58Z</time>
      </trkpt>
      <trkpt lat="47.97887" lon="7.14359">
        <ele>936</ele>
        <time>2023-05-27T13:03:08Z</time>
      </trkpt>
      <trkpt lat="47.97878" lon="7.14358">
        <ele>937</ele>
        <time>2023-05-27T13:03:18Z</time>
      </trkpt>
      <trkpt lat="47.97869" lon="7.14354">
        <ele>938</ele>
        <time>2023-05-27T13:03:30Z</time>
      </trkpt>
      <trkpt lat="47.9786" lon="7.14351">
        <ele>940</ele>
        <time>2023-05-27T13:03:42Z</time>
      </trkpt>
      <trkpt lat="47.97851" lon="7.14348">
        <ele>941</ele>
        <time>2023-05-27T13:03:53Z</time>
      </trkpt>
      <trkpt lat="47.97842" lon="7.14344">
        <ele>943</ele>
        <time>2023-05-27T13:04:03Z</time>
      </trkpt>
      <trkpt lat="47.97833" lon="7.14339">
        <ele>944</ele>
        <time>2023-05-27T13:04:13Z</time>
      </trkpt>
      <trkpt lat="47.97825" lon="7.14331">
        <ele>945</ele>
        <time>2023-05-27T13:04:23Z</time>
      </trkpt>
      <trkpt lat="47.97816" lon="7.14326">
        <ele>946</ele>
        <time>2023-05-27T13:04:34Z</time>
      </trkpt>
      <trkpt lat="47.97807" lon="7.14326">
        <ele>949</ele>
        <time>2023-05-27T13:04:45Z</time>
      </trkpt>
      <trkpt lat="47.97797" lon="7.14326">
        <ele>950</ele>
        <time>2023-05-27T13:04:56Z</time>
      </trkpt>
      <trkpt lat="47.97789" lon="7.1433">
        <ele>951</ele>
        <time>2023-05-27T13:05:06Z</time>
      </trkpt>
      <trkpt lat="47.9778" lon="7.14331">
        <ele>952</ele>
        <time>2023-05-27T13:05:15Z</time>
      </trkpt>
      <trkpt lat="47.97771" lon="7.14327">
        <ele>953</ele>
        <time>2023-05-27T13:05:25Z</time>
      </trkpt>
      <trkpt lat="47.97771" lon="7.14314">
        <ele>954</ele>
        <time>2023-05-27T13:05:36Z</time>
      </trkpt>
      <trkpt lat="47.97777" lon="7.14305">
        <ele>955</ele>
        <time>2023-05-27T13:05:46Z</time>
      </trkpt>
      <trkpt lat="47.97785" lon="7.14297">
        <ele>956</ele>
        <time>2023-05-27T13:05:54Z</time>
      </trkpt>
      <trkpt lat="47.97793" lon="7.14292">
        <ele>957</ele>
        <time>2023-05-27T13:06:04Z</time>
      </trkpt>
      <trkpt lat="47.97802" lon="7.14287">
        <ele>958</ele>
        <time>2023-05-27T13:06:13Z</time>
      </trkpt>
      <trkpt lat="47.97811" lon="7.14282">
        <ele>959</ele>
        <time>2023-05-27T13:06:23Z</time>
      </trkpt>
      <trkpt lat="47.97819" lon="7.14274">
        <ele>960</ele>
        <time>2023-05-27T13:06:33Z</time>
      </trkpt>
      <trkpt lat="47.97826" lon="7.14266">
        <ele>961</ele>
        <time>2023-05-27T13:06:43Z</time>
      </trkpt>
      <trkpt lat="47.97832" lon="7.14255">
        <ele>962</ele>
        <time>2023-05-27T13:06:54Z</time>
      </trkpt>
      <trkpt lat="47.97836" lon="7.14243">
        <ele>963</ele>
        <time>2023-05-27T13:07:03Z</time>
      </trkpt>
      <trkpt lat="47.97837" lon="7.14229">
        <ele>964</ele>
        <time>2023-05-27T13:07:13Z</time>
      </trkpt>
      <trkpt lat="47.97838" lon="7.14216">
        <ele>965</ele>
        <time>2023-05-27T13:07:23Z</time>
      </trkpt>
      <trkpt lat="47.97839" lon="7.14202">
        <ele>967</ele>
        <time>2023-05-27T13:07:34Z</time>
      </trkpt>
      <trkpt lat="47.9784" lon="7.14188">
        <ele>968</ele>
        <time>2023-05-27T13:07:45Z</time>
      </trkpt>
      <trkpt lat="47.9784" lon="7.14174">
        <ele>969</ele>
        <time>2023-05-27T13:07:56Z</time>
      </trkpt>
      <trkpt lat="47.97841" lon="7.14161">
        <ele>970</ele>
        <time>2023-05-27T13:08:06Z</time>
      </trkpt>
      <trkpt lat="47.97841" lon="7.14146">
        <ele>972</ele>
        <time>2023-05-27T13:08:17Z</time>
      </trkpt>
      <trkpt lat="47.9784" lon="7.14132">
        <ele>974</ele>
        <time>2023-05-27T13:08:28Z</time>
      </trkpt>
      <trkpt lat="47.97841" lon="7.14117">
        <ele>975</ele>
        <time>2023-05-27T13:08:38Z</time>
      </trkpt>
      <trkpt lat="47.97842" lon="7.14106">
        <ele>980</ele>
        <time>2023-05-27T13:17:36Z</time>
      </trkpt>
      <trkpt lat="47.97838" lon="7.14092">
        <ele>980</ele>
        <time>2023-05-27T13:18:02Z</time>
      </trkpt>
      <trkpt lat="47.9784" lon="7.14078">
        <ele>980</ele>
        <time>2023-05-27T13:18:16Z</time>
      </trkpt>
      <trkpt lat="47.9784" lon="7.14064">
        <ele>981</ele>
        <time>2023-05-27T13:18:29Z</time>
      </trkpt>
      <trkpt lat="47.97841" lon="7.1405">
        <ele>982</ele>
        <time>2023-05-27T13:18:42Z</time>
      </trkpt>
      <trkpt lat="47.97841" lon="7.14036">
        <ele>983</ele>
        <time>2023-05-27T13:18:54Z</time>
      </trkpt>
      <trkpt lat="47.97841" lon="7.14022">
        <ele>985</ele>
        <time>2023-05-27T13:19:07Z</time>
      </trkpt>
      <trkpt lat="47.97842" lon="7.14008">
        <ele>986</ele>
        <time>2023-05-27T13:19:19Z</time>
      </trkpt>
      <trkpt lat="47.97843" lon="7.13995">
        <ele>987</ele>
        <time>2023-05-27T13:19:29Z</time>
      </trkpt>
      <trkpt lat="47.97845" lon="7.13981">
        <ele>988</ele>
        <time>2023-05-27T13:19:39Z</time>
      </trkpt>
      <trkpt lat="47.97848" lon="7.13968">
        <ele>989</ele>
        <time>2023-05-27T13:19:49Z</time>
      </trkpt>
      <trkpt lat="47.97852" lon="7.13955">
        <ele>991</ele>
        <time>2023-05-27T13:19:59Z</time>
      </trkpt>
      <trkpt lat="47.97855" lon="7.13941">
        <ele>992</ele>
        <time>2023-05-27T13:20:10Z</time>
      </trkpt>
      <trkpt lat="47.97857" lon="7.13928">
        <ele>993</ele>
        <time>2023-05-27T13:20:22Z</time>
      </trkpt>
      <trkpt lat="47.97861" lon="7.13915">
        <ele>994</ele>
        <time>2023-05-27T13:20:34Z</time>
      </trkpt>
      <trkpt lat="47.97864" lon="7.13902">
        <ele>996</ele>
        <time>2023-05-27T13:20:44Z</time>
      </trkpt>
      <trkpt lat="47.97867" lon="7.13889">
        <ele>997</ele>
        <time>2023-05-27T13:20:53Z</time>
      </trkpt>
      <trkpt lat="47.97872" lon="7.13877">
        <ele>998</ele>
        <time>2023-05-27T13:21:04Z</time>
      </trkpt>
      <trkpt lat="47.97878" lon="7.13867">
        <ele>999</ele>
        <time>2023-05-27T13:21:14Z</time>
      </trkpt>
      <trkpt lat="47.97884" lon="7.13857">
        <ele>1000</ele>
        <time>2023-05-27T13:21:24Z</time>
      </trkpt>
      <trkpt lat="47.97891" lon="7.13849">
        <ele>1001</ele>
        <time>2023-05-27T13:21:35Z</time>
      </trkpt>
      <trkpt lat="47.97898" lon="7.1384">
        <ele>1003</ele>
        <time>2023-05-27T13:21:48Z</time>
      </trkpt>
      <trkpt lat="47.97903" lon="7.13829">
        <ele>1005</ele>
        <time>2023-05-27T13:22:02Z</time>
      </trkpt>
      <trkpt lat="47.97908" lon="7.13817">
        <ele>1006</ele>
        <time>2023-05-27T13:22:14Z</time>
      </trkpt>
      <trkpt lat="47.97913" lon="7.13805">
        <ele>1007</ele>
        <time>2023-05-27T13:22:26Z</time>
      </trkpt>
      <trkpt lat="47.97917" lon="7.13792">
        <ele>1008</ele>
        <time>2023-05-27T13:22:38Z</time>
      </trkpt>
      <trkpt lat="47.97919" lon="7.13779">
        <ele>1009</ele>
        <time>2023-05-27T13:22:51Z</time>
      </trkpt>
      <trkpt lat="47.97921" lon="7.13765">
        <ele>1011</ele>
        <time>2023-05-27T13:23:03Z</time>
      </trkpt>
      <trkpt lat="47.97924" lon="7.13752">
        <ele>1012</ele>
        <time>2023-05-27T13:23:15Z</time>
      </trkpt>
      <trkpt lat="47.97923" lon="7.13738">
        <ele>1014</ele>
        <time>2023-05-27T13:23:27Z</time>
      </trkpt>
      <trkpt lat="47.97926" lon="7.13724">
        <ele>1015</ele>
        <time>2023-05-27T13:23:38Z</time>
      </trkpt>
      <trkpt lat="47.97929" lon="7.13711">
        <ele>1016</ele>
        <time>2023-05-27T13:23:48Z</time>
      </trkpt>
      <trkpt lat="47.97932" lon="7.13699">
        <ele>1017</ele>
        <time>2023-05-27T13:23:58Z</time>
      </trkpt>
      <trkpt lat="47.97936" lon="7.13685">
        <ele>1018</ele>
        <time>2023-05-27T13:24:11Z</time>
      </trkpt>
      <trkpt lat="47.97941" lon="7.13673">
        <ele>1020</ele>
        <time>2023-05-27T13:24:22Z</time>
      </trkpt>
      <trkpt lat="47.97944" lon="7.13659">
        <ele>1021</ele>
        <time>2023-05-27T13:24:34Z</time>
      </trkpt>
      <trkpt lat="47.9795" lon="7.13648">
        <ele>1022</ele>
        <time>2023-05-27T13:24:44Z</time>
      </trkpt>
      <trkpt lat="47.97954" lon="7.13636">
        <ele>1023</ele>
        <time>2023-05-27T13:24:55Z</time>
      </trkpt>
      <trkpt lat="47.97959" lon="7.13624">
        <ele>1024</ele>
        <time>2023-05-27T13:25:06Z</time>
      </trkpt>
      <trkpt lat="47.97963" lon="7.13612">
        <ele>1026</ele>
        <time>2023-05-27T13:25:17Z</time>
      </trkpt>
      <trkpt lat="47.9797" lon="7.13601">
        <ele>1027</ele>
        <time>2023-05-27T13:25:33Z</time>
      </trkpt>
      <trkpt lat="47.97978" lon="7.13593">
        <ele>1029</ele>
        <time>2023-05-27T13:25:47Z</time>
      </trkpt>
      <trkpt lat="47.97984" lon="7.13583">
        <ele>1030</ele>
        <time>2023-05-27T13:25:58Z</time>
      </trkpt>
      <trkpt lat="47.97991" lon="7.13572">
        <ele>1032</ele>
        <time>2023-05-27T13:26:07Z</time>
      </trkpt>
      <trkpt lat="47.97997" lon="7.13562">
        <ele>1033</ele>
        <time>2023-05-27T13:26:17Z</time>
      </trkpt>
      <trkpt lat="47.98005" lon="7.13553">
        <ele>1034</ele>
        <time>2023-05-27T13:26:28Z</time>
      </trkpt>
      <trkpt lat="47.98012" lon="7.13545">
        <ele>1036</ele>
        <time>2023-05-27T13:26:39Z</time>
      </trkpt>
      <trkpt lat="47.98017" lon="7.13533">
        <ele>1037</ele>
        <time>2023-05-27T13:26:50Z</time>
      </trkpt>
      <trkpt lat="47.98021" lon="7.13521">
        <ele>1039</ele>
        <time>2023-05-27T13:27:05Z</time>
      </trkpt>
      <trkpt lat="47.98025" lon="7.13507">
        <ele>1041</ele>
        <time>2023-05-27T13:27:17Z</time>
      </trkpt>
      <trkpt lat="47.98029" lon="7.13495">
        <ele>1042</ele>
        <time>2023-05-27T13:27:28Z</time>
      </trkpt>
      <trkpt lat="47.98034" lon="7.13483">
        <ele>1043</ele>
        <time>2023-05-27T13:27:39Z</time>
      </trkpt>
      <trkpt lat="47.98038" lon="7.13471">
        <ele>1044</ele>
        <time>2023-05-27T13:27:51Z</time>
      </trkpt>
      <trkpt lat="47.9804" lon="7.13457">
        <ele>1046</ele>
        <time>2023-05-27T13:28:03Z</time>
      </trkpt>
      <trkpt lat="47.98042" lon="7.13444">
        <ele>1047</ele>
        <time>2023-05-27T13:28:13Z</time>
      </trkpt>
      <trkpt lat="47.98047" lon="7.13432">
        <ele>1048</ele>
        <time>2023-05-27T13:28:23Z</time>
      </trkpt>
      <trkpt lat="47.98055" lon="7.13425">
        <ele>1049</ele>
        <time>2023-05-27T13:28:33Z</time>
      </trkpt>
      <trkpt lat="47.98065" lon="7.13425">
        <ele>1050</ele>
        <time>2023-05-27T13:28:43Z</time>
      </trkpt>
      <trkpt lat="47.98074" lon="7.13427">
        <ele>1051</ele>
        <time>2023-05-27T13:28:54Z</time>
      </trkpt>
      <trkpt lat="47.98083" lon="7.13431">
        <ele>1052</ele>
        <time>2023-05-27T13:29:03Z</time>
      </trkpt>
      <trkpt lat="47.98091" lon="7.13435">
        <ele>1053</ele>
        <time>2023-05-27T13:29:12Z</time>
      </trkpt>
      <trkpt lat="47.981" lon="7.1344">
        <ele>1054</ele>
        <time>2023-05-27T13:29:22Z</time>
      </trkpt>
      <trkpt lat="47.98109" lon="7.13444">
        <ele>1056</ele>
        <time>2023-05-27T13:29:35Z</time>
      </trkpt>
      <trkpt lat="47.98118" lon="7.13444">
        <ele>1057</ele>
        <time>2023-05-27T13:29:44Z</time>
      </trkpt>
      <trkpt lat="47.98126" lon="7.13447">
        <ele>1058</ele>
        <time>2023-05-27T13:29:56Z</time>
      </trkpt>
      <trkpt lat="47.98135" lon="7.13448">
        <ele>1059</ele>
        <time>2023-05-27T13:30:08Z</time>
      </trkpt>
      <trkpt lat="47.98144" lon="7.13446">
        <ele>1060</ele>
        <time>2023-05-27T13:30:19Z</time>
      </trkpt>
      <trkpt lat="47.98154" lon="7.13445">
        <ele>1061</ele>
        <time>2023-05-27T13:30:30Z</time>
      </trkpt>
      <trkpt lat="47.98163" lon="7.1344">
        <ele>1063</ele>
        <time>2023-05-27T13:30:42Z</time>
      </trkpt>
      <trkpt lat="47.98172" lon="7.13435">
        <ele>1064</ele>
        <time>2023-05-27T13:30:56Z</time>
      </trkpt>
      <trkpt lat="47.9818" lon="7.13429">
        <ele>1065</ele>
        <time>2023-05-27T13:31:06Z</time>
      </trkpt>
      <trkpt lat="47.98187" lon="7.13422">
        <ele>1067</ele>
        <time>2023-05-27T13:31:17Z</time>
      </trkpt>
      <trkpt lat="47.98194" lon="7.13412">
        <ele>1068</ele>
        <time>2023-05-27T13:31:30Z</time>
      </trkpt>
      <trkpt lat="47.98201" lon="7.13403">
        <ele>1069</ele>
        <time>2023-05-27T13:31:43Z</time>
      </trkpt>
      <trkpt lat="47.98207" lon="7.13392">
        <ele>1071</ele>
        <time>2023-05-27T13:31:57Z</time>
      </trkpt>
      <trkpt lat="47.98213" lon="7.13381">
        <ele>1072</ele>
        <time>2023-05-27T13:32:10Z</time>
      </trkpt>
      <trkpt lat="47.98218" lon="7.1337">
        <ele>1073</ele>
        <time>2023-05-27T13:32:23Z</time>
      </trkpt>
      <trkpt lat="47.98224" lon="7.1336">
        <ele>1074</ele>
        <time>2023-05-27T13:32:35Z</time>
      </trkpt>
      <trkpt lat="47.98231" lon="7.13349">
        <ele>1076</ele>
        <time>2023-05-27T13:32:48Z</time>
      </trkpt>
      <trkpt lat="47.98236" lon="7.13337">
        <ele>1077</ele>
        <time>2023-05-27T13:33:01Z</time>
      </trkpt>
      <trkpt lat="47.98242" lon="7.13327">
        <ele>1079</ele>
        <time>2023-05-27T13:33:13Z</time>
      </trkpt>
      <trkpt lat="47.98248" lon="7.13317">
        <ele>1080</ele>
        <time>2023-05-27T13:33:25Z</time>
      </trkpt>
      <trkpt lat="47.98255" lon="7.13306">
        <ele>1081</ele>
        <time>2023-05-27T13:33:38Z</time>
      </trkpt>
      <trkpt lat="47.98261" lon="7.13296">
        <ele>1083</ele>
        <time>2023-05-27T13:33:54Z</time>
      </trkpt>
      <trkpt lat="47.98267" lon="7.13287">
        <ele>1085</ele>
        <time>2023-05-27T13:34:07Z</time>
      </trkpt>
      <trkpt lat="47.98275" lon="7.13279">
        <ele>1086</ele>
        <time>2023-05-27T13:34:18Z</time>
      </trkpt>
      <trkpt lat="47.98283" lon="7.13273">
        <ele>1087</ele>
        <time>2023-05-27T13:34:29Z</time>
      </trkpt>
      <trkpt lat="47.98292" lon="7.1327">
        <ele>1088</ele>
        <time>2023-05-27T13:34:40Z</time>
      </trkpt>
      <trkpt lat="47.98302" lon="7.13268">
        <ele>1090</ele>
        <time>2023-05-27T13:34:53Z</time>
      </trkpt>
      <trkpt lat="47.98311" lon="7.13266">
        <ele>1090</ele>
        <time>2023-05-27T13:35:06Z</time>
      </trkpt>
      <trkpt lat="47.98319" lon="7.13266">
        <ele>1094</ele>
        <time>2023-05-27T13:37:43Z</time>
      </trkpt>
      <trkpt lat="47.98329" lon="7.13267">
        <ele>1095</ele>
        <time>2023-05-27T13:39:02Z</time>
      </trkpt>
      <trkpt lat="47.98338" lon="7.13268">
        <ele>1095</ele>
        <time>2023-05-27T13:39:15Z</time>
      </trkpt>
      <trkpt lat="47.98347" lon="7.13269">
        <ele>1097</ele>
        <time>2023-05-27T13:39:28Z</time>
      </trkpt>
      <trkpt lat="47.98356" lon="7.13271">
        <ele>1098</ele>
        <time>2023-05-27T13:39:42Z</time>
      </trkpt>
      <trkpt lat="47.98364" lon="7.13276">
        <ele>1100</ele>
        <time>2023-05-27T13:39:55Z</time>
      </trkpt>
      <trkpt lat="47.98373" lon="7.13281">
        <ele>1102</ele>
        <time>2023-05-27T13:40:14Z</time>
      </trkpt>
      <trkpt lat="47.98383" lon="7.13285">
        <ele>1104</ele>
        <time>2023-05-27T13:40:28Z</time>
      </trkpt>
      <trkpt lat="47.98392" lon="7.13285">
        <ele>1106</ele>
        <time>2023-05-27T13:40:42Z</time>
      </trkpt>
      <trkpt lat="47.98401" lon="7.13288">
        <ele>1108</ele>
        <time>2023-05-27T13:40:57Z</time>
      </trkpt>
      <trkpt lat="47.98409" lon="7.13294">
        <ele>1109</ele>
        <time>2023-05-27T13:41:10Z</time>
      </trkpt>
      <trkpt lat="47.98418" lon="7.13298">
        <ele>1111</ele>
        <time>2023-05-27T13:41:24Z</time>
      </trkpt>
      <trkpt lat="47.98425" lon="7.13307">
        <ele>1114</ele>
        <time>2023-05-27T13:41:38Z</time>
      </trkpt>
      <trkpt lat="47.98434" lon="7.1331">
        <ele>1116</ele>
        <time>2023-05-27T13:41:50Z</time>
      </trkpt>
      <trkpt lat="47.98443" lon="7.13314">
        <ele>1117</ele>
        <time>2023-05-27T13:42:01Z</time>
      </trkpt>
      <trkpt lat="47.98452" lon="7.13318">
        <ele>1119</ele>
        <time>2023-05-27T13:42:18Z</time>
      </trkpt>
      <trkpt lat="47.98461" lon="7.13316">
        <ele>1121</ele>
        <time>2023-05-27T13:42:33Z</time>
      </trkpt>
      <trkpt lat="47.9847" lon="7.13311">
        <ele>1123</ele>
        <time>2023-05-27T13:42:46Z</time>
      </trkpt>
      <trkpt lat="47.98477" lon="7.13302">
        <ele>1124</ele>
        <time>2023-05-27T13:43:01Z</time>
      </trkpt>
      <trkpt lat="47.98484" lon="7.13293">
        <ele>1127</ele>
        <time>2023-05-27T13:43:20Z</time>
      </trkpt>
      <trkpt lat="47.98482" lon="7.13279">
        <ele>1129</ele>
        <time>2023-05-27T13:43:32Z</time>
      </trkpt>
      <trkpt lat="47.98487" lon="7.13267">
        <ele>1130</ele>
        <time>2023-05-27T13:43:44Z</time>
      </trkpt>
      <trkpt lat="47.98491" lon="7.13255">
        <ele>1131</ele>
        <time>2023-05-27T13:43:56Z</time>
      </trkpt>
      <trkpt lat="47.98497" lon="7.13245">
        <ele>1133</ele>
        <time>2023-05-27T13:44:12Z</time>
      </trkpt>
      <trkpt lat="47.98501" lon="7.13232">
        <ele>1134</ele>
        <time>2023-05-27T13:44:25Z</time>
      </trkpt>
      <trkpt lat="47.98505" lon="7.1322">
        <ele>1135</ele>
        <time>2023-05-27T13:44:39Z</time>
      </trkpt>
      <trkpt lat="47.9851" lon="7.13208">
        <ele>1137</ele>
        <time>2023-05-27T13:44:53Z</time>
      </trkpt>
      <trkpt lat="47.98513" lon="7.13195">
        <ele>1138</ele>
        <time>2023-05-27T13:45:08Z</time>
      </trkpt>
      <trkpt lat="47.98517" lon="7.13183">
        <ele>1140</ele>
        <time>2023-05-27T13:45:22Z</time>
      </trkpt>
      <trkpt lat="47.98524" lon="7.13176">
        <ele>1142</ele>
        <time>2023-05-27T13:45:45Z</time>
      </trkpt>
      <trkpt lat="47.98527" lon="7.13163">
        <ele>1143</ele>
        <time>2023-05-27T13:45:59Z</time>
      </trkpt>
      <trkpt lat="47.98531" lon="7.13151">
        <ele>1144</ele>
        <time>2023-05-27T13:46:12Z</time>
      </trkpt>
      <trkpt lat="47.98536" lon="7.13139">
        <ele>1145</ele>
        <time>2023-05-27T13:46:26Z</time>
      </trkpt>
      <trkpt lat="47.9854" lon="7.13127">
        <ele>1146</ele>
        <time>2023-05-27T13:46:41Z</time>
      </trkpt>
      <trkpt lat="47.98544" lon="7.13114">
        <ele>1148</ele>
        <time>2023-05-27T13:46:54Z</time>
      </trkpt>
      <trkpt lat="47.98549" lon="7.13102">
        <ele>1149</ele>
        <time>2023-05-27T13:47:08Z</time>
      </trkpt>
      <trkpt lat="47.98548" lon="7.13088">
        <ele>1150</ele>
        <time>2023-05-27T13:47:21Z</time>
      </trkpt>
      <trkpt lat="47.98552" lon="7.13076">
        <ele>1152</ele>
        <time>2023-05-27T13:47:35Z</time>
      </trkpt>
      <trkpt lat="47.98557" lon="7.13064">
        <ele>1153</ele>
        <time>2023-05-27T13:47:47Z</time>
      </trkpt>
      <trkpt lat="47.9856" lon="7.1305">
        <ele>1154</ele>
        <time>2023-05-27T13:47:59Z</time>
      </trkpt>
      <trkpt lat="47.98564" lon="7.13037">
        <ele>1155</ele>
        <time>2023-05-27T13:48:11Z</time>
      </trkpt>
      <trkpt lat="47.98563" lon="7.13024">
        <ele>1157</ele>
        <time>2023-05-27T13:48:23Z</time>
      </trkpt>
      <trkpt lat="47.9856" lon="7.13013">
        <ele>1158</ele>
        <time>2023-05-27T13:48:42Z</time>
      </trkpt>
      <trkpt lat="47.98551" lon="7.13017">
        <ele>1161</ele>
        <time>2023-05-27T13:54:39Z</time>
      </trkpt>
      <trkpt lat="47.98544" lon="7.13012">
        <ele>1162</ele>
        <time>2023-05-27T13:55:12Z</time>
      </trkpt>
      <trkpt lat="47.98534" lon="7.13011">
        <ele>1163</ele>
        <time>2023-05-27T13:55:24Z</time>
      </trkpt>
      <trkpt lat="47.98525" lon="7.13008">
        <ele>1164</ele>
        <time>2023-05-27T13:55:37Z</time>
      </trkpt>
      <trkpt lat="47.98516" lon="7.13009">
        <ele>1165</ele>
        <time>2023-05-27T13:55:51Z</time>
      </trkpt>
      <trkpt lat="47.98507" lon="7.13007">
        <ele>1167</ele>
        <time>2023-05-27T13:56:08Z</time>
      </trkpt>
      <trkpt lat="47.98498" lon="7.13003">
        <ele>1168</ele>
        <time>2023-05-27T13:56:20Z</time>
      </trkpt>
      <trkpt lat="47.9849" lon="7.12998">
        <ele>1170</ele>
        <time>2023-05-27T13:56:32Z</time>
      </trkpt>
      <trkpt lat="47.98481" lon="7.12991">
        <ele>1171</ele>
        <time>2023-05-27T13:56:44Z</time>
      </trkpt>
      <trkpt lat="47.98473" lon="7.12987">
        <ele>1173</ele>
        <time>2023-05-27T13:56:55Z</time>
      </trkpt>
      <trkpt lat="47.98466" lon="7.12996">
        <ele>1174</ele>
        <time>2023-05-27T13:57:10Z</time>
      </trkpt>
      <trkpt lat="47.98456" lon="7.12996">
        <ele>1176</ele>
        <time>2023-05-27T13:57:20Z</time>
      </trkpt>
      <trkpt lat="47.98447" lon="7.13001">
        <ele>1178</ele>
        <time>2023-05-27T13:57:33Z</time>
      </trkpt>
      <trkpt lat="47.98438" lon="7.13003">
        <ele>1180</ele>
        <time>2023-05-27T13:57:47Z</time>
      </trkpt>
      <trkpt lat="47.98428" lon="7.12999">
        <ele>1181</ele>
        <time>2023-05-27T13:57:57Z</time>
      </trkpt>
      <trkpt lat="47.9842" lon="7.12995">
        <ele>1183</ele>
        <time>2023-05-27T13:58:08Z</time>
      </trkpt>
      <trkpt lat="47.9841" lon="7.12995">
        <ele>1184</ele>
        <time>2023-05-27T13:58:21Z</time>
      </trkpt>
      <trkpt lat="47.98401" lon="7.12999">
        <ele>1185</ele>
        <time>2023-05-27T13:58:32Z</time>
      </trkpt>
      <trkpt lat="47.98392" lon="7.13001">
        <ele>1187</ele>
        <time>2023-05-27T13:58:43Z</time>
      </trkpt>
      <trkpt lat="47.98383" lon="7.13">
        <ele>1188</ele>
        <time>2023-05-27T13:58:53Z</time>
      </trkpt>
      <trkpt lat="47.98374" lon="7.12997">
        <ele>1189</ele>
        <time>2023-05-27T13:59:04Z</time>
      </trkpt>
      <trkpt lat="47.98366" lon="7.12992">
        <ele>1190</ele>
        <time>2023-05-27T13:59:14Z</time>
      </trkpt>
      <trkpt lat="47.98358" lon="7.12985">
        <ele>1192</ele>
        <time>2023-05-27T13:59:27Z</time>
      </trkpt>
      <trkpt lat="47.9835" lon="7.12976">
        <ele>1193</ele>
        <time>2023-05-27T13:59:39Z</time>
      </trkpt>
      <trkpt lat="47.98343" lon="7.12966">
        <ele>1194</ele>
        <time>2023-05-27T13:59:49Z</time>
      </trkpt>
      <trkpt lat="47.98336" lon="7.12957">
        <ele>1196</ele>
        <time>2023-05-27T14:00:00Z</time>
      </trkpt>
      <trkpt lat="47.98328" lon="7.1295">
        <ele>1197</ele>
        <time>2023-05-27T14:00:11Z</time>
      </trkpt>
      <trkpt lat="47.98322" lon="7.12941">
        <ele>1199</ele>
        <time>2023-05-27T14:00:22Z</time>
      </trkpt>
      <trkpt lat="47.98318" lon="7.12928">
        <ele>1200</ele>
        <time>2023-05-27T14:00:31Z</time>
      </trkpt>
      <trkpt lat="47.98312" lon="7.12918">
        <ele>1201</ele>
        <time>2023-05-27T14:00:43Z</time>
      </trkpt>
      <trkpt lat="47.98304" lon="7.1291">
        <ele>1202</ele>
        <time>2023-05-27T14:00:56Z</time>
      </trkpt>
      <trkpt lat="47.98295" lon="7.12908">
        <ele>1204</ele>
        <time>2023-05-27T14:01:10Z</time>
      </trkpt>
      <trkpt lat="47.98287" lon="7.12905">
        <ele>1206</ele>
        <time>2023-05-27T14:01:27Z</time>
      </trkpt>
      <trkpt lat="47.98278" lon="7.12903">
        <ele>1208</ele>
        <time>2023-05-27T14:01:43Z</time>
      </trkpt>
      <trkpt lat="47.9827" lon="7.12896">
        <ele>1210</ele>
        <time>2023-05-27T14:01:58Z</time>
      </trkpt>
      <trkpt lat="47.98262" lon="7.12904">
        <ele>1213</ele>
        <time>2023-05-27T14:02:17Z</time>
      </trkpt>
      <trkpt lat="47.98255" lon="7.12913">
        <ele>1214</ele>
        <time>2023-05-27T14:02:30Z</time>
      </trkpt>
      <trkpt lat="47.98248" lon="7.12922">
        <ele>1215</ele>
        <time>2023-05-27T14:02:41Z</time>
      </trkpt>
      <trkpt lat="47.98239" lon="7.12924">
        <ele>1217</ele>
        <time>2023-05-27T14:02:59Z</time>
      </trkpt>
      <trkpt lat="47.98233" lon="7.12913">
        <ele>1221</ele>
        <time>2023-05-27T14:03:28Z</time>
      </trkpt>
      <trkpt lat="47.98227" lon="7.12903">
        <ele>1224</ele>
        <time>2023-05-27T14:03:47Z</time>
      </trkpt>
      <trkpt lat="47.98219" lon="7.12903">
        <ele>1226</ele>
        <time>2023-05-27T14:04:03Z</time>
      </trkpt>
      <trkpt lat="47.98209" lon="7.12905">
        <ele>1230</ele>
        <time>2023-05-27T14:04:31Z</time>
      </trkpt>
      <trkpt lat="47.982" lon="7.12907">
        <ele>1232</ele>
        <time>2023-05-27T14:04:43Z</time>
      </trkpt>
      <trkpt lat="47.98191" lon="7.12912">
        <ele>1234</ele>
        <time>2023-05-27T14:04:56Z</time>
      </trkpt>
      <trkpt lat="47.98182" lon="7.12913">
        <ele>1236</ele>
        <time>2023-05-27T14:05:08Z</time>
      </trkpt>
      <trkpt lat="47.98173" lon="7.12914">
        <ele>1238</ele>
        <time>2023-05-27T14:05:19Z</time>
      </trkpt>
      <trkpt lat="47.98163" lon="7.12913">
        <ele>1239</ele>
        <time>2023-05-27T14:05:32Z</time>
      </trkpt>
      <trkpt lat="47.98154" lon="7.12912">
        <ele>1241</ele>
        <time>2023-05-27T14:05:48Z</time>
      </trkpt>
      <trkpt lat="47.98145" lon="7.12908">
        <ele>1243</ele>
        <time>2023-05-27T14:06:00Z</time>
      </trkpt>
      <trkpt lat="47.98137" lon="7.12902">
        <ele>1245</ele>
        <time>2023-05-27T14:06:14Z</time>
      </trkpt>
      <trkpt lat="47.98129" lon="7.12896">
        <ele>1246</ele>
        <time>2023-05-27T14:06:29Z</time>
      </trkpt>
      <trkpt lat="47.98121" lon="7.12891">
        <ele>1247</ele>
        <time>2023-05-27T14:06:41Z</time>
      </trkpt>
      <trkpt lat="47.98111" lon="7.12893">
        <ele>1249</ele>
        <time>2023-05-27T14:06:51Z</time>
      </trkpt>
      <trkpt lat="47.98102" lon="7.12894">
        <ele>1250</ele>
        <time>2023-05-27T14:07:02Z</time>
      </trkpt>
      <trkpt lat="47.98094" lon="7.12889">
        <ele>1251</ele>
        <time>2023-05-27T14:07:13Z</time>
      </trkpt>
      <trkpt lat="47.98095" lon="7.1288">
        <ele>1253</ele>
        <time>2023-05-27T14:07:29Z</time>
      </trkpt>
      <trkpt lat="47.98096" lon="7.12868">
        <ele>1257</ele>
        <time>2023-05-27T14:07:54Z</time>
      </trkpt>
      <trkpt lat="47.98097" lon="7.12855">
        <ele>1259</ele>
        <time>2023-05-27T14:08:05Z</time>
      </trkpt>
      <trkpt lat="47.98095" lon="7.12841">
        <ele>1261</ele>
        <time>2023-05-27T14:08:19Z</time>
      </trkpt>
      <trkpt lat="47.98094" lon="7.12827">
        <ele>1263</ele>
        <time>2023-05-27T14:08:33Z</time>
      </trkpt>
      <trkpt lat="47.98091" lon="7.12813">
        <ele>1264</ele>
        <time>2023-05-27T14:08:44Z</time>
      </trkpt>
      <trkpt lat="47.98089" lon="7.12799">
        <ele>1265</ele>
        <time>2023-05-27T14:08:55Z</time>
      </trkpt>
      <trkpt lat="47.98085" lon="7.12785">
        <ele>1266</ele>
        <time>2023-05-27T14:09:06Z</time>
      </trkpt>
      <trkpt lat="47.98082" lon="7.12773">
        <ele>1267</ele>
        <time>2023-05-27T14:09:16Z</time>
      </trkpt>
      <trkpt lat="47.98077" lon="7.12761">
        <ele>1267</ele>
        <time>2023-05-27T14:09:26Z</time>
      </trkpt>
      <trkpt lat="47.98076" lon="7.12747">
        <ele>1268</ele>
        <time>2023-05-27T14:09:37Z</time>
      </trkpt>
      <trkpt lat="47.98076" lon="7.12733">
        <ele>1269</ele>
        <time>2023-05-27T14:09:48Z</time>
      </trkpt>
      <trkpt lat="47.98076" lon="7.1272">
        <ele>1270</ele>
        <time>2023-05-27T14:09:58Z</time>
      </trkpt>
      <trkpt lat="47.98074" lon="7.12706">
        <ele>1270</ele>
        <time>2023-05-27T14:10:08Z</time>
      </trkpt>
      <trkpt lat="47.98068" lon="7.12697">
        <ele>1271</ele>
        <time>2023-05-27T14:10:18Z</time>
      </trkpt>
      <trkpt lat="47.98061" lon="7.12687">
        <ele>1272</ele>
        <time>2023-05-27T14:10:28Z</time>
      </trkpt>
      <trkpt lat="47.98058" lon="7.12673">
        <ele>1272</ele>
        <time>2023-05-27T14:10:39Z</time>
      </trkpt>
      <trkpt lat="47.98057" lon="7.12659">
        <ele>1273</ele>
        <time>2023-05-27T14:10:50Z</time>
      </trkpt>
      <trkpt lat="47.9806" lon="7.12646">
        <ele>1273</ele>
        <time>2023-05-27T14:11:01Z</time>
      </trkpt>
      <trkpt lat="47.98061" lon="7.12633">
        <ele>1274</ele>
        <time>2023-05-27T14:11:12Z</time>
      </trkpt>
      <trkpt lat="47.98061" lon="7.1262">
        <ele>1274</ele>
        <time>2023-05-27T14:11:26Z</time>
      </trkpt>
      <trkpt lat="47.98063" lon="7.1261">
        <ele>1276</ele>
        <time>2023-05-27T14:12:06Z</time>
      </trkpt>
      <trkpt lat="47.98053" lon="7.12609">
        <ele>1276</ele>
        <time>2023-05-27T14:12:31Z</time>
      </trkpt>
      <trkpt lat="47.98055" lon="7.12605">
        <ele>1276</ele>
        <time>2023-05-27T14:45:55Z</time>
      </trkpt>
      <trkpt lat="47.98063" lon="7.12602">
        <ele>1278</ele>
        <time>2023-05-27T14:46:23Z</time>
      </trkpt>
      <trkpt lat="47.98059" lon="7.12592">
        <ele>1278</ele>
        <time>2023-05-27T14:46:46Z</time>
      </trkpt>
      <trkpt lat="47.98059" lon="7.12578">
        <ele>1278</ele>
        <time>2023-05-27T14:47:02Z</time>
      </trkpt>
      <trkpt lat="47.9806" lon="7.12565">
        <ele>1278</ele>
        <time>2023-05-27T14:47:14Z</time>
      </trkpt>
      <trkpt lat="47.98059" lon="7.12551">
        <ele>1278</ele>
        <time>2023-05-27T14:47:44Z</time>
      </trkpt>
      <trkpt lat="47.98059" lon="7.12538">
        <ele>1276</ele>
        <time>2023-05-27T14:48:04Z</time>
      </trkpt>
      <trkpt lat="47.98061" lon="7.12524">
        <ele>1275</ele>
        <time>2023-05-27T14:48:19Z</time>
      </trkpt>
      <trkpt lat="47.98064" lon="7.12511">
        <ele>1274</ele>
        <time>2023-05-27T14:48:34Z</time>
      </trkpt>
      <trkpt lat="47.98061" lon="7.12498">
        <ele>1272</ele>
        <time>2023-05-27T14:48:50Z</time>
      </trkpt>
      <trkpt lat="47.98057" lon="7.12486">
        <ele>1269</ele>
        <time>2023-05-27T14:49:04Z</time>
      </trkpt>
      <trkpt lat="47.98053" lon="7.12474">
        <ele>1268</ele>
        <time>2023-05-27T14:49:16Z</time>
      </trkpt>
      <trkpt lat="47.98049" lon="7.12461">
        <ele>1265</ele>
        <time>2023-05-27T14:49:29Z</time>
      </trkpt>
      <trkpt lat="47.98046" lon="7.12448">
        <ele>1262</ele>
        <time>2023-05-27T14:49:44Z</time>
      </trkpt>
      <trkpt lat="47.98043" lon="7.12435">
        <ele>1259</ele>
        <time>2023-05-27T14:50:00Z</time>
      </trkpt>
      <trkpt lat="47.98039" lon="7.12422">
        <ele>1255</ele>
        <time>2023-05-27T14:50:16Z</time>
      </trkpt>
      <trkpt lat="47.98037" lon="7.12409">
        <ele>1253</ele>
        <time>2023-05-27T14:50:32Z</time>
      </trkpt>
      <trkpt lat="47.98033" lon="7.12396">
        <ele>1249</ele>
        <time>2023-05-27T14:50:48Z</time>
      </trkpt>
      <trkpt lat="47.98031" lon="7.12383">
        <ele>1246</ele>
        <time>2023-05-27T14:51:05Z</time>
      </trkpt>
      <trkpt lat="47.98029" lon="7.12369">
        <ele>1243</ele>
        <time>2023-05-27T14:51:21Z</time>
      </trkpt>
      <trkpt lat="47.98027" lon="7.12356">
        <ele>1241</ele>
        <time>2023-05-27T14:51:36Z</time>
      </trkpt>
      <trkpt lat="47.98025" lon="7.12343">
        <ele>1238</ele>
        <time>2023-05-27T14:51:51Z</time>
      </trkpt>
      <trkpt lat="47.98022" lon="7.1233">
        <ele>1235</ele>
        <time>2023-05-27T14:52:07Z</time>
      </trkpt>
      <trkpt lat="47.9802" lon="7.12317">
        <ele>1231</ele>
        <time>2023-05-27T14:52:23Z</time>
      </trkpt>
      <trkpt lat="47.98018" lon="7.12303">
        <ele>1230</ele>
        <time>2023-05-27T14:52:37Z</time>
      </trkpt>
      <trkpt lat="47.98016" lon="7.1229">
        <ele>1227</ele>
        <time>2023-05-27T14:52:50Z</time>
      </trkpt>
      <trkpt lat="47.98015" lon="7.12276">
        <ele>1225</ele>
        <time>2023-05-27T14:53:02Z</time>
      </trkpt>
      <trkpt lat="47.98015" lon="7.12262">
        <ele>1224</ele>
        <time>2023-05-27T14:53:12Z</time>
      </trkpt>
      <trkpt lat="47.98014" lon="7.12248">
        <ele>1221</ele>
        <time>2023-05-27T14:53:25Z</time>
      </trkpt>
      <trkpt lat="47.98014" lon="7.12234">
        <ele>1220</ele>
        <time>2023-05-27T14:53:37Z</time>
      </trkpt>
      <trkpt lat="47.98014" lon="7.1222">
        <ele>1218</ele>
        <time>2023-05-27T14:53:51Z</time>
      </trkpt>
      <trkpt lat="47.98018" lon="7.12212">
        <ele>1216</ele>
        <time>2023-05-27T14:54:06Z</time>
      </trkpt>
      <trkpt lat="47.98027" lon="7.12216">
        <ele>1214</ele>
        <time>2023-05-27T14:54:15Z</time>
      </trkpt>
      <trkpt lat="47.98037" lon="7.12219">
        <ele>1213</ele>
        <time>2023-05-27T14:54:24Z</time>
      </trkpt>
      <trkpt lat="47.98045" lon="7.12223">
        <ele>1212</ele>
        <time>2023-05-27T14:54:33Z</time>
      </trkpt>
      <trkpt lat="47.98056" lon="7.12224">
        <ele>1212</ele>
        <time>2023-05-27T14:54:55Z</time>
      </trkpt>
      <trkpt lat="47.98062" lon="7.12214">
        <ele>1211</ele>
        <time>2023-05-27T14:55:08Z</time>
      </trkpt>
      <trkpt lat="47.98066" lon="7.12201">
        <ele>1209</ele>
        <time>2023-05-27T14:55:22Z</time>
      </trkpt>
      <trkpt lat="47.9807" lon="7.12189">
        <ele>1208</ele>
        <time>2023-05-27T14:55:32Z</time>
      </trkpt>
      <trkpt lat="47.98077" lon="7.12178">
        <ele>1205</ele>
        <time>2023-05-27T14:55:44Z</time>
      </trkpt>
      <trkpt lat="47.98084" lon="7.1217">
        <ele>1203</ele>
        <time>2023-05-27T14:55:55Z</time>
      </trkpt>
      <trkpt lat="47.9809" lon="7.1216">
        <ele>1201</ele>
        <time>2023-05-27T14:56:06Z</time>
      </trkpt>
      <trkpt lat="47.98097" lon="7.12151">
        <ele>1199</ele>
        <time>2023-05-27T14:56:17Z</time>
      </trkpt>
      <trkpt lat="47.98105" lon="7.12144">
        <ele>1196</ele>
        <time>2023-05-27T14:56:28Z</time>
      </trkpt>
      <trkpt lat="47.98114" lon="7.12138">
        <ele>1193</ele>
        <time>2023-05-27T14:56:38Z</time>
      </trkpt>
      <trkpt lat="47.98121" lon="7.12129">
        <ele>1191</ele>
        <time>2023-05-27T14:56:51Z</time>
      </trkpt>
      <trkpt lat="47.98129" lon="7.12122">
        <ele>1189</ele>
        <time>2023-05-27T14:57:03Z</time>
      </trkpt>
      <trkpt lat="47.98137" lon="7.12114">
        <ele>1187</ele>
        <time>2023-05-27T14:57:14Z</time>
      </trkpt>
      <trkpt lat="47.98145" lon="7.12105">
        <ele>1185</ele>
        <time>2023-05-27T14:57:25Z</time>
      </trkpt>
      <trkpt lat="47.98154" lon="7.12098">
        <ele>1184</ele>
        <time>2023-05-27T14:57:36Z</time>
      </trkpt>
      <trkpt lat="47.98162" lon="7.12091">
        <ele>1183</ele>
        <time>2023-05-27T14:57:46Z</time>
      </trkpt>
      <trkpt lat="47.98171" lon="7.12087">
        <ele>1179</ele>
        <time>2023-05-27T15:00:00Z</time>
      </trkpt>
      <trkpt lat="47.98178" lon="7.12079">
        <ele>1179</ele>
        <time>2023-05-27T15:00:12Z</time>
      </trkpt>
      <trkpt lat="47.98185" lon="7.1207">
        <ele>1178</ele>
        <time>2023-05-27T15:00:25Z</time>
      </trkpt>
      <trkpt lat="47.98192" lon="7.1206">
        <ele>1177</ele>
        <time>2023-05-27T15:00:36Z</time>
      </trkpt>
      <trkpt lat="47.98199" lon="7.12052">
        <ele>1175</ele>
        <time>2023-05-27T15:00:47Z</time>
      </trkpt>
      <trkpt lat="47.98206" lon="7.12044">
        <ele>1173</ele>
        <time>2023-05-27T15:00:58Z</time>
      </trkpt>
      <trkpt lat="47.98213" lon="7.12036">
        <ele>1171</ele>
        <time>2023-05-27T15:01:12Z</time>
      </trkpt>
      <trkpt lat="47.9822" lon="7.12028">
        <ele>1169</ele>
        <time>2023-05-27T15:01:24Z</time>
      </trkpt>
      <trkpt lat="47.98229" lon="7.12022">
        <ele>1167</ele>
        <time>2023-05-27T15:01:35Z</time>
      </trkpt>
      <trkpt lat="47.98237" lon="7.12017">
        <ele>1165</ele>
        <time>2023-05-27T15:01:51Z</time>
      </trkpt>
      <trkpt lat="47.98245" lon="7.12008">
        <ele>1163</ele>
        <time>2023-05-27T15:02:02Z</time>
      </trkpt>
      <trkpt lat="47.98254" lon="7.12003">
        <ele>1161</ele>
        <time>2023-05-27T15:02:20Z</time>
      </trkpt>
      <trkpt lat="47.98261" lon="7.11997">
        <ele>1159</ele>
        <time>2023-05-27T15:02:32Z</time>
      </trkpt>
      <trkpt lat="47.98269" lon="7.1199">
        <ele>1157</ele>
        <time>2023-05-27T15:02:45Z</time>
      </trkpt>
      <trkpt lat="47.98278" lon="7.11983">
        <ele>1154</ele>
        <time>2023-05-27T15:03:00Z</time>
      </trkpt>
      <trkpt lat="47.98285" lon="7.11974">
        <ele>1151</ele>
        <time>2023-05-27T15:03:22Z</time>
      </trkpt>
      <trkpt lat="47.98293" lon="7.11968">
        <ele>1148</ele>
        <time>2023-05-27T15:03:40Z</time>
      </trkpt>
      <trkpt lat="47.98297" lon="7.11955">
        <ele>1145</ele>
        <time>2023-05-27T15:04:14Z</time>
      </trkpt>
      <trkpt lat="47.98294" lon="7.11944">
        <ele>1144</ele>
        <time>2023-05-27T15:04:23Z</time>
      </trkpt>
      <trkpt lat="47.98286" lon="7.1194">
        <ele>1143</ele>
        <time>2023-05-27T15:04:34Z</time>
      </trkpt>
      <trkpt lat="47.98277" lon="7.11937">
        <ele>1142</ele>
        <time>2023-05-27T15:04:45Z</time>
      </trkpt>
      <trkpt lat="47.98268" lon="7.11934">
        <ele>1142</ele>
        <time>2023-05-27T15:04:58Z</time>
      </trkpt>
      <trkpt lat="47.98267" lon="7.11941">
        <ele>1142</ele>
        <time>2023-05-27T15:05:08Z</time>
      </trkpt>
      <trkpt lat="47.98261" lon="7.11924">
        <ele>1129</ele>
        <time>2023-05-28T06:49:04Z</time>
      </trkpt>
      <trkpt lat="47.98251" lon="7.11923">
        <ele>1129</ele>
        <time>2023-05-28T06:49:16Z</time>
      </trkpt>
      <trkpt lat="47.98242" lon="7.11925">
        <ele>1129</ele>
        <time>2023-05-28T06:49:28Z</time>
      </trkpt>
      <trkpt lat="47.98234" lon="7.11933">
        <ele>1129</ele>
        <time>2023-05-28T06:49:57Z</time>
      </trkpt>
      <trkpt lat="47.98224" lon="7.11936">
        <ele>1129</ele>
        <time>2023-05-28T06:50:07Z</time>
      </trkpt>
      <trkpt lat="47.98215" lon="7.1194">
        <ele>1129</ele>
        <time>2023-05-28T06:50:17Z</time>
      </trkpt>
      <trkpt lat="47.98206" lon="7.11944">
        <ele>1129</ele>
        <time>2023-05-28T06:50:27Z</time>
      </trkpt>
      <trkpt lat="47.98197" lon="7.11948">
        <ele>1129</ele>
        <time>2023-05-28T06:50:36Z</time>
      </trkpt>
      <trkpt lat="47.98188" lon="7.11953">
        <ele>1130</ele>
        <time>2023-05-28T06:50:45Z</time>
      </trkpt>
      <trkpt lat="47.9818" lon="7.1196">
        <ele>1130</ele>
        <time>2023-05-28T06:50:55Z</time>
      </trkpt>
      <trkpt lat="47.98172" lon="7.11967">
        <ele>1130</ele>
        <time>2023-05-28T06:51:07Z</time>
      </trkpt>
      <trkpt lat="47.98164" lon="7.11974">
        <ele>1131</ele>
        <time>2023-05-28T06:51:19Z</time>
      </trkpt>
      <trkpt lat="47.98156" lon="7.1198">
        <ele>1132</ele>
        <time>2023-05-28T06:51:31Z</time>
      </trkpt>
      <trkpt lat="47.98147" lon="7.11984">
        <ele>1133</ele>
        <time>2023-05-28T06:51:42Z</time>
      </trkpt>
      <trkpt lat="47.98142" lon="7.11995">
        <ele>1134</ele>
        <time>2023-05-28T06:51:54Z</time>
      </trkpt>
      <trkpt lat="47.98133" lon="7.12">
        <ele>1135</ele>
        <time>2023-05-28T06:52:05Z</time>
      </trkpt>
      <trkpt lat="47.98124" lon="7.12001">
        <ele>1136</ele>
        <time>2023-05-28T06:52:24Z</time>
      </trkpt>
      <trkpt lat="47.98115" lon="7.12003">
        <ele>1138</ele>
        <time>2023-05-28T06:52:36Z</time>
      </trkpt>
      <trkpt lat="47.98106" lon="7.12005">
        <ele>1139</ele>
        <time>2023-05-28T06:52:49Z</time>
      </trkpt>
      <trkpt lat="47.98096" lon="7.12007">
        <ele>1140</ele>
        <time>2023-05-28T06:53:04Z</time>
      </trkpt>
      <trkpt lat="47.98088" lon="7.12011">
        <ele>1141</ele>
        <time>2023-05-28T06:53:17Z</time>
      </trkpt>
      <trkpt lat="47.98079" lon="7.12006">
        <ele>1143</ele>
        <time>2023-05-28T06:53:30Z</time>
      </trkpt>
      <trkpt lat="47.98073" lon="7.11995">
        <ele>1144</ele>
        <time>2023-05-28T06:53:43Z</time>
      </trkpt>
      <trkpt lat="47.98069" lon="7.11982">
        <ele>1145</ele>
        <time>2023-05-28T06:53:55Z</time>
      </trkpt>
      <trkpt lat="47.98065" lon="7.1197">
        <ele>1147</ele>
        <time>2023-05-28T06:54:06Z</time>
      </trkpt>
      <trkpt lat="47.9806" lon="7.11958">
        <ele>1148</ele>
        <time>2023-05-28T06:54:18Z</time>
      </trkpt>
      <trkpt lat="47.98054" lon="7.11949">
        <ele>1149</ele>
        <time>2023-05-28T06:54:31Z</time>
      </trkpt>
      <trkpt lat="47.98045" lon="7.11943">
        <ele>1150</ele>
        <time>2023-05-28T06:54:43Z</time>
      </trkpt>
      <trkpt lat="47.98037" lon="7.11939">
        <ele>1152</ele>
        <time>2023-05-28T06:54:55Z</time>
      </trkpt>
      <trkpt lat="47.98028" lon="7.11934">
        <ele>1153</ele>
        <time>2023-05-28T06:55:08Z</time>
      </trkpt>
      <trkpt lat="47.9802" lon="7.11928">
        <ele>1154</ele>
        <time>2023-05-28T06:55:22Z</time>
      </trkpt>
      <trkpt lat="47.98011" lon="7.11923">
        <ele>1156</ele>
        <time>2023-05-28T06:55:35Z</time>
      </trkpt>
      <trkpt lat="47.98002" lon="7.1192">
        <ele>1157</ele>
        <time>2023-05-28T06:55:49Z</time>
      </trkpt>
      <trkpt lat="47.97993" lon="7.11916">
        <ele>1159</ele>
        <time>2023-05-28T06:56:04Z</time>
      </trkpt>
      <trkpt lat="47.97984" lon="7.11913">
        <ele>1161</ele>
        <time>2023-05-28T06:56:16Z</time>
      </trkpt>
      <trkpt lat="47.97976" lon="7.11909">
        <ele>1162</ele>
        <time>2023-05-28T06:56:29Z</time>
      </trkpt>
      <trkpt lat="47.97967" lon="7.11904">
        <ele>1163</ele>
        <time>2023-05-28T06:56:44Z</time>
      </trkpt>
      <trkpt lat="47.97958" lon="7.11899">
        <ele>1165</ele>
        <time>2023-05-28T06:56:56Z</time>
      </trkpt>
      <trkpt lat="47.97949" lon="7.11896">
        <ele>1166</ele>
        <time>2023-05-28T06:57:08Z</time>
      </trkpt>
      <trkpt lat="47.9794" lon="7.11893">
        <ele>1167</ele>
        <time>2023-05-28T06:57:20Z</time>
      </trkpt>
      <trkpt lat="47.97931" lon="7.11888">
        <ele>1169</ele>
        <time>2023-05-28T06:57:32Z</time>
      </trkpt>
      <trkpt lat="47.97922" lon="7.11885">
        <ele>1170</ele>
        <time>2023-05-28T06:57:43Z</time>
      </trkpt>
      <trkpt lat="47.97914" lon="7.11881">
        <ele>1171</ele>
        <time>2023-05-28T06:57:56Z</time>
      </trkpt>
      <trkpt lat="47.97905" lon="7.11878">
        <ele>1173</ele>
        <time>2023-05-28T06:58:10Z</time>
      </trkpt>
      <trkpt lat="47.97896" lon="7.11872">
        <ele>1174</ele>
        <time>2023-05-28T06:58:23Z</time>
      </trkpt>
      <trkpt lat="47.9789" lon="7.11862">
        <ele>1175</ele>
        <time>2023-05-28T06:58:34Z</time>
      </trkpt>
      <trkpt lat="47.97884" lon="7.1185">
        <ele>1176</ele>
        <time>2023-05-28T06:59:00Z</time>
      </trkpt>
      <trkpt lat="47.97885" lon="7.11836">
        <ele>1177</ele>
        <time>2023-05-28T06:59:34Z</time>
      </trkpt>
      <trkpt lat="47.97882" lon="7.11823">
        <ele>1177</ele>
        <time>2023-05-28T06:59:45Z</time>
      </trkpt>
      <trkpt lat="47.9788" lon="7.1181">
        <ele>1177</ele>
        <time>2023-05-28T06:59:56Z</time>
      </trkpt>
      <trkpt lat="47.97877" lon="7.11796">
        <ele>1178</ele>
        <time>2023-05-28T07:00:07Z</time>
      </trkpt>
      <trkpt lat="47.97875" lon="7.11783">
        <ele>1178</ele>
        <time>2023-05-28T07:00:19Z</time>
      </trkpt>
      <trkpt lat="47.97872" lon="7.1177">
        <ele>1180</ele>
        <time>2023-05-28T07:00:32Z</time>
      </trkpt>
      <trkpt lat="47.9787" lon="7.11756">
        <ele>1181</ele>
        <time>2023-05-28T07:00:44Z</time>
      </trkpt>
      <trkpt lat="47.97868" lon="7.11742">
        <ele>1182</ele>
        <time>2023-05-28T07:00:57Z</time>
      </trkpt>
      <trkpt lat="47.97868" lon="7.11728">
        <ele>1183</ele>
        <time>2023-05-28T07:01:08Z</time>
      </trkpt>
      <trkpt lat="47.97869" lon="7.11714">
        <ele>1184</ele>
        <time>2023-05-28T07:01:19Z</time>
      </trkpt>
      <trkpt lat="47.97872" lon="7.11699">
        <ele>1186</ele>
        <time>2023-05-28T07:01:30Z</time>
      </trkpt>
      <trkpt lat="47.97875" lon="7.11686">
        <ele>1186</ele>
        <time>2023-05-28T07:01:39Z</time>
      </trkpt>
      <trkpt lat="47.97879" lon="7.11673">
        <ele>1187</ele>
        <time>2023-05-28T07:01:51Z</time>
      </trkpt>
      <trkpt lat="47.97881" lon="7.11659">
        <ele>1187</ele>
        <time>2023-05-28T07:02:02Z</time>
      </trkpt>
      <trkpt lat="47.97883" lon="7.11645">
        <ele>1188</ele>
        <time>2023-05-28T07:02:15Z</time>
      </trkpt>
      <trkpt lat="47.97884" lon="7.11632">
        <ele>1188</ele>
        <time>2023-05-28T07:02:23Z</time>
      </trkpt>
      <trkpt lat="47.97884" lon="7.11618">
        <ele>1188</ele>
        <time>2023-05-28T07:02:31Z</time>
      </trkpt>
      <trkpt lat="47.97885" lon="7.11605">
        <ele>1188</ele>
        <time>2023-05-28T07:02:40Z</time>
      </trkpt>
      <trkpt lat="47.97887" lon="7.1159">
        <ele>1188</ele>
        <time>2023-05-28T07:02:50Z</time>
      </trkpt>
      <trkpt lat="47.97888" lon="7.11576">
        <ele>1188</ele>
        <time>2023-05-28T07:02:59Z</time>
      </trkpt>
      <trkpt lat="47.97889" lon="7.11562">
        <ele>1188</ele>
        <time>2023-05-28T07:03:08Z</time>
      </trkpt>
      <trkpt lat="47.9789" lon="7.11548">
        <ele>1187</ele>
        <time>2023-05-28T07:03:18Z</time>
      </trkpt>
      <trkpt lat="47.9789" lon="7.11534">
        <ele>1187</ele>
        <time>2023-05-28T07:03:28Z</time>
      </trkpt>
      <trkpt lat="47.97892" lon="7.11519">
        <ele>1187</ele>
        <time>2023-05-28T07:03:37Z</time>
      </trkpt>
      <trkpt lat="47.97893" lon="7.11505">
        <ele>1187</ele>
        <time>2023-05-28T07:03:45Z</time>
      </trkpt>
      <trkpt lat="47.97895" lon="7.11491">
        <ele>1186</ele>
        <time>2023-05-28T07:03:53Z</time>
      </trkpt>
      <trkpt lat="47.97895" lon="7.11476">
        <ele>1186</ele>
        <time>2023-05-28T07:04:03Z</time>
      </trkpt>
      <trkpt lat="47.97895" lon="7.11462">
        <ele>1185</ele>
        <time>2023-05-28T07:04:13Z</time>
      </trkpt>
      <trkpt lat="47.97893" lon="7.11448">
        <ele>1184</ele>
        <time>2023-05-28T07:04:23Z</time>
      </trkpt>
      <trkpt lat="47.97891" lon="7.11435">
        <ele>1184</ele>
        <time>2023-05-28T07:04:34Z</time>
      </trkpt>
      <trkpt lat="47.97888" lon="7.11422">
        <ele>1183</ele>
        <time>2023-05-28T07:04:43Z</time>
      </trkpt>
      <trkpt lat="47.97885" lon="7.11409">
        <ele>1183</ele>
        <time>2023-05-28T07:04:54Z</time>
      </trkpt>
      <trkpt lat="47.97883" lon="7.11395">
        <ele>1183</ele>
        <time>2023-05-28T07:05:04Z</time>
      </trkpt>
      <trkpt lat="47.97881" lon="7.11381">
        <ele>1182</ele>
        <time>2023-05-28T07:05:13Z</time>
      </trkpt>
      <trkpt lat="47.97878" lon="7.11367">
        <ele>1181</ele>
        <time>2023-05-28T07:05:24Z</time>
      </trkpt>
      <trkpt lat="47.97875" lon="7.11353">
        <ele>1181</ele>
        <time>2023-05-28T07:05:34Z</time>
      </trkpt>
      <trkpt lat="47.97872" lon="7.1134">
        <ele>1180</ele>
        <time>2023-05-28T07:05:44Z</time>
      </trkpt>
      <trkpt lat="47.97868" lon="7.11326">
        <ele>1179</ele>
        <time>2023-05-28T07:05:53Z</time>
      </trkpt>
      <trkpt lat="47.97863" lon="7.11313">
        <ele>1179</ele>
        <time>2023-05-28T07:06:02Z</time>
      </trkpt>
      <trkpt lat="47.97859" lon="7.11301">
        <ele>1178</ele>
        <time>2023-05-28T07:06:11Z</time>
      </trkpt>
      <trkpt lat="47.97854" lon="7.11289">
        <ele>1178</ele>
        <time>2023-05-28T07:06:21Z</time>
      </trkpt>
      <trkpt lat="47.97852" lon="7.11276">
        <ele>1178</ele>
        <time>2023-05-28T07:06:33Z</time>
      </trkpt>
      <trkpt lat="47.9785" lon="7.11262">
        <ele>1178</ele>
        <time>2023-05-28T07:06:42Z</time>
      </trkpt>
      <trkpt lat="47.97847" lon="7.11249">
        <ele>1178</ele>
        <time>2023-05-28T07:06:51Z</time>
      </trkpt>
      <trkpt lat="47.97843" lon="7.11235">
        <ele>1178</ele>
        <time>2023-05-28T07:07:00Z</time>
      </trkpt>
      <trkpt lat="47.9784" lon="7.11221">
        <ele>1178</ele>
        <time>2023-05-28T07:07:10Z</time>
      </trkpt>
      <trkpt lat="47.97838" lon="7.11208">
        <ele>1178</ele>
        <time>2023-05-28T07:07:19Z</time>
      </trkpt>
      <trkpt lat="47.97834" lon="7.11195">
        <ele>1178</ele>
        <time>2023-05-28T07:07:27Z</time>
      </trkpt>
      <trkpt lat="47.97831" lon="7.11182">
        <ele>1178</ele>
        <time>2023-05-28T07:07:36Z</time>
      </trkpt>
      <trkpt lat="47.97827" lon="7.11169">
        <ele>1178</ele>
        <time>2023-05-28T07:07:46Z</time>
      </trkpt>
      <trkpt lat="47.97821" lon="7.11158">
        <ele>1178</ele>
        <time>2023-05-28T07:07:58Z</time>
      </trkpt>
      <trkpt lat="47.97814" lon="7.11147">
        <ele>1179</ele>
        <time>2023-05-28T07:08:09Z</time>
      </trkpt>
      <trkpt lat="47.97807" lon="7.11138">
        <ele>1181</ele>
        <time>2023-05-28T07:08:20Z</time>
      </trkpt>
      <trkpt lat="47.97803" lon="7.11125">
        <ele>1182</ele>
        <time>2023-05-28T07:08:32Z</time>
      </trkpt>
      <trkpt lat="47.97799" lon="7.11112">
        <ele>1183</ele>
        <time>2023-05-28T07:08:56Z</time>
      </trkpt>
      <trkpt lat="47.97795" lon="7.11099">
        <ele>1184</ele>
        <time>2023-05-28T07:09:07Z</time>
      </trkpt>
      <trkpt lat="47.9779" lon="7.11086">
        <ele>1184</ele>
        <time>2023-05-28T07:09:17Z</time>
      </trkpt>
      <trkpt lat="47.97786" lon="7.11073">
        <ele>1184</ele>
        <time>2023-05-28T07:09:27Z</time>
      </trkpt>
      <trkpt lat="47.97783" lon="7.1106">
        <ele>1185</ele>
        <time>2023-05-28T07:09:39Z</time>
      </trkpt>
      <trkpt lat="47.97778" lon="7.11047">
        <ele>1185</ele>
        <time>2023-05-28T07:09:48Z</time>
      </trkpt>
      <trkpt lat="47.97774" lon="7.11034">
        <ele>1185</ele>
        <time>2023-05-28T07:09:57Z</time>
      </trkpt>
      <trkpt lat="47.97773" lon="7.11021">
        <ele>1185</ele>
        <time>2023-05-28T07:10:06Z</time>
      </trkpt>
      <trkpt lat="47.97771" lon="7.11007">
        <ele>1185</ele>
        <time>2023-05-28T07:10:16Z</time>
      </trkpt>
      <trkpt lat="47.97768" lon="7.10993">
        <ele>1185</ele>
        <time>2023-05-28T07:10:27Z</time>
      </trkpt>
      <trkpt lat="47.97765" lon="7.1098">
        <ele>1185</ele>
        <time>2023-05-28T07:10:36Z</time>
      </trkpt>
      <trkpt lat="47.97763" lon="7.10966">
        <ele>1184</ele>
        <time>2023-05-28T07:10:47Z</time>
      </trkpt>
      <trkpt lat="47.9776" lon="7.10953">
        <ele>1184</ele>
        <time>2023-05-28T07:10:55Z</time>
      </trkpt>
      <trkpt lat="47.97757" lon="7.1094">
        <ele>1184</ele>
        <time>2023-05-28T07:11:03Z</time>
      </trkpt>
      <trkpt lat="47.97752" lon="7.10928">
        <ele>1183</ele>
        <time>2023-05-28T07:11:12Z</time>
      </trkpt>
      <trkpt lat="47.97746" lon="7.10917">
        <ele>1184</ele>
        <time>2023-05-28T07:11:31Z</time>
      </trkpt>
      <trkpt lat="47.9774" lon="7.10905">
        <ele>1184</ele>
        <time>2023-05-28T07:11:42Z</time>
      </trkpt>
      <trkpt lat="47.97735" lon="7.10893">
        <ele>1184</ele>
        <time>2023-05-28T07:11:51Z</time>
      </trkpt>
      <trkpt lat="47.97731" lon="7.1088">
        <ele>1184</ele>
        <time>2023-05-28T07:12:00Z</time>
      </trkpt>
      <trkpt lat="47.97727" lon="7.10867">
        <ele>1184</ele>
        <time>2023-05-28T07:12:09Z</time>
      </trkpt>
      <trkpt lat="47.97723" lon="7.10854">
        <ele>1184</ele>
        <time>2023-05-28T07:12:18Z</time>
      </trkpt>
      <trkpt lat="47.97719" lon="7.10842">
        <ele>1184</ele>
        <time>2023-05-28T07:12:27Z</time>
      </trkpt>
      <trkpt lat="47.97715" lon="7.10828">
        <ele>1184</ele>
        <time>2023-05-28T07:12:36Z</time>
      </trkpt>
      <trkpt lat="47.97712" lon="7.10815">
        <ele>1184</ele>
        <time>2023-05-28T07:12:45Z</time>
      </trkpt>
      <trkpt lat="47.97706" lon="7.10804">
        <ele>1184</ele>
        <time>2023-05-28T07:13:00Z</time>
      </trkpt>
      <trkpt lat="47.97701" lon="7.10793">
        <ele>1185</ele>
        <time>2023-05-28T07:13:14Z</time>
      </trkpt>
      <trkpt lat="47.97695" lon="7.10783">
        <ele>1186</ele>
        <time>2023-05-28T07:13:25Z</time>
      </trkpt>
      <trkpt lat="47.9769" lon="7.10772">
        <ele>1187</ele>
        <time>2023-05-28T07:13:37Z</time>
      </trkpt>
      <trkpt lat="47.97684" lon="7.1076">
        <ele>1187</ele>
        <time>2023-05-28T07:13:49Z</time>
      </trkpt>
      <trkpt lat="47.97679" lon="7.10749">
        <ele>1189</ele>
        <time>2023-05-28T07:14:02Z</time>
      </trkpt>
      <trkpt lat="47.97674" lon="7.10738">
        <ele>1190</ele>
        <time>2023-05-28T07:14:13Z</time>
      </trkpt>
      <trkpt lat="47.97667" lon="7.10728">
        <ele>1191</ele>
        <time>2023-05-28T07:14:23Z</time>
      </trkpt>
      <trkpt lat="47.97662" lon="7.10715">
        <ele>1192</ele>
        <time>2023-05-28T07:14:32Z</time>
      </trkpt>
      <trkpt lat="47.97656" lon="7.10704">
        <ele>1193</ele>
        <time>2023-05-28T07:14:42Z</time>
      </trkpt>
      <trkpt lat="47.97651" lon="7.10693">
        <ele>1194</ele>
        <time>2023-05-28T07:14:57Z</time>
      </trkpt>
      <trkpt lat="47.97646" lon="7.10681">
        <ele>1194</ele>
        <time>2023-05-28T07:15:06Z</time>
      </trkpt>
      <trkpt lat="47.9764" lon="7.1067">
        <ele>1195</ele>
        <time>2023-05-28T07:15:15Z</time>
      </trkpt>
      <trkpt lat="47.97634" lon="7.1066">
        <ele>1195</ele>
        <time>2023-05-28T07:15:24Z</time>
      </trkpt>
      <trkpt lat="47.97628" lon="7.10649">
        <ele>1195</ele>
        <time>2023-05-28T07:15:33Z</time>
      </trkpt>
      <trkpt lat="47.97619" lon="7.10643">
        <ele>1196</ele>
        <time>2023-05-28T07:15:44Z</time>
      </trkpt>
      <trkpt lat="47.97611" lon="7.10637">
        <ele>1196</ele>
        <time>2023-05-28T07:15:53Z</time>
      </trkpt>
      <trkpt lat="47.97603" lon="7.10629">
        <ele>1197</ele>
        <time>2023-05-28T07:16:02Z</time>
      </trkpt>
      <trkpt lat="47.97594" lon="7.10623">
        <ele>1199</ele>
        <time>2023-05-28T07:16:20Z</time>
      </trkpt>
      <trkpt lat="47.97586" lon="7.10615">
        <ele>1199</ele>
        <time>2023-05-28T07:16:30Z</time>
      </trkpt>
      <trkpt lat="47.97578" lon="7.10608">
        <ele>1200</ele>
        <time>2023-05-28T07:16:39Z</time>
      </trkpt>
      <trkpt lat="47.9757" lon="7.10603">
        <ele>1200</ele>
        <time>2023-05-28T07:16:48Z</time>
      </trkpt>
      <trkpt lat="47.97561" lon="7.10598">
        <ele>1201</ele>
        <time>2023-05-28T07:16:57Z</time>
      </trkpt>
      <trkpt lat="47.97552" lon="7.10592">
        <ele>1201</ele>
        <time>2023-05-28T07:17:06Z</time>
      </trkpt>
      <trkpt lat="47.97544" lon="7.10586">
        <ele>1202</ele>
        <time>2023-05-28T07:17:15Z</time>
      </trkpt>
      <trkpt lat="47.97535" lon="7.10582">
        <ele>1202</ele>
        <time>2023-05-28T07:17:24Z</time>
      </trkpt>
      <trkpt lat="47.97526" lon="7.10577">
        <ele>1202</ele>
        <time>2023-05-28T07:17:33Z</time>
      </trkpt>
      <trkpt lat="47.97517" lon="7.10573">
        <ele>1202</ele>
        <time>2023-05-28T07:17:43Z</time>
      </trkpt>
      <trkpt lat="47.97508" lon="7.10568">
        <ele>1202</ele>
        <time>2023-05-28T07:17:54Z</time>
      </trkpt>
      <trkpt lat="47.975" lon="7.10561">
        <ele>1203</ele>
        <time>2023-05-28T07:18:04Z</time>
      </trkpt>
      <trkpt lat="47.97492" lon="7.10554">
        <ele>1202</ele>
        <time>2023-05-28T07:18:13Z</time>
      </trkpt>
      <trkpt lat="47.97483" lon="7.1055">
        <ele>1202</ele>
        <time>2023-05-28T07:18:23Z</time>
      </trkpt>
      <trkpt lat="47.97475" lon="7.10545">
        <ele>1202</ele>
        <time>2023-05-28T07:18:32Z</time>
      </trkpt>
      <trkpt lat="47.97467" lon="7.10536">
        <ele>1202</ele>
        <time>2023-05-28T07:18:42Z</time>
      </trkpt>
      <trkpt lat="47.97459" lon="7.10528">
        <ele>1202</ele>
        <time>2023-05-28T07:18:51Z</time>
      </trkpt>
      <trkpt lat="47.9745" lon="7.1052">
        <ele>1202</ele>
        <time>2023-05-28T07:19:00Z</time>
      </trkpt>
      <trkpt lat="47.97441" lon="7.10515">
        <ele>1202</ele>
        <time>2023-05-28T07:19:09Z</time>
      </trkpt>
      <trkpt lat="47.97432" lon="7.10513">
        <ele>1202</ele>
        <time>2023-05-28T07:19:19Z</time>
      </trkpt>
      <trkpt lat="47.97423" lon="7.10511">
        <ele>1202</ele>
        <time>2023-05-28T07:19:29Z</time>
      </trkpt>
      <trkpt lat="47.97415" lon="7.10506">
        <ele>1202</ele>
        <time>2023-05-28T07:19:39Z</time>
      </trkpt>
      <trkpt lat="47.97406" lon="7.10499">
        <ele>1202</ele>
        <time>2023-05-28T07:19:49Z</time>
      </trkpt>
      <trkpt lat="47.97397" lon="7.10494">
        <ele>1203</ele>
        <time>2023-05-28T07:19:58Z</time>
      </trkpt>
      <trkpt lat="47.9739" lon="7.10486">
        <ele>1203</ele>
        <time>2023-05-28T07:20:07Z</time>
      </trkpt>
      <trkpt lat="47.97382" lon="7.10479">
        <ele>1203</ele>
        <time>2023-05-28T07:20:17Z</time>
      </trkpt>
      <trkpt lat="47.97373" lon="7.10473">
        <ele>1202</ele>
        <time>2023-05-28T07:20:27Z</time>
      </trkpt>
      <trkpt lat="47.97365" lon="7.10466">
        <ele>1202</ele>
        <time>2023-05-28T07:20:39Z</time>
      </trkpt>
      <trkpt lat="47.97355" lon="7.10461">
        <ele>1203</ele>
        <time>2023-05-28T07:20:50Z</time>
      </trkpt>
      <trkpt lat="47.97348" lon="7.10454">
        <ele>1203</ele>
        <time>2023-05-28T07:21:00Z</time>
      </trkpt>
      <trkpt lat="47.9734" lon="7.10447">
        <ele>1202</ele>
        <time>2023-05-28T07:21:11Z</time>
      </trkpt>
      <trkpt lat="47.97332" lon="7.1044">
        <ele>1202</ele>
        <time>2023-05-28T07:21:23Z</time>
      </trkpt>
      <trkpt lat="47.97323" lon="7.10433">
        <ele>1201</ele>
        <time>2023-05-28T07:21:36Z</time>
      </trkpt>
      <trkpt lat="47.97314" lon="7.1043">
        <ele>1199</ele>
        <time>2023-05-28T07:21:51Z</time>
      </trkpt>
      <trkpt lat="47.97305" lon="7.10428">
        <ele>1198</ele>
        <time>2023-05-28T07:22:03Z</time>
      </trkpt>
      <trkpt lat="47.97296" lon="7.1043">
        <ele>1196</ele>
        <time>2023-05-28T07:22:16Z</time>
      </trkpt>
      <trkpt lat="47.97287" lon="7.10432">
        <ele>1194</ele>
        <time>2023-05-28T07:22:32Z</time>
      </trkpt>
      <trkpt lat="47.97278" lon="7.10432">
        <ele>1193</ele>
        <time>2023-05-28T07:22:44Z</time>
      </trkpt>
      <trkpt lat="47.97269" lon="7.10435">
        <ele>1192</ele>
        <time>2023-05-28T07:23:00Z</time>
      </trkpt>
      <trkpt lat="47.97261" lon="7.1044">
        <ele>1189</ele>
        <time>2023-05-28T07:23:16Z</time>
      </trkpt>
      <trkpt lat="47.97251" lon="7.1044">
        <ele>1187</ele>
        <time>2023-05-28T07:23:33Z</time>
      </trkpt>
      <trkpt lat="47.97242" lon="7.10439">
        <ele>1186</ele>
        <time>2023-05-28T07:23:44Z</time>
      </trkpt>
      <trkpt lat="47.97233" lon="7.10441">
        <ele>1184</ele>
        <time>2023-05-28T07:23:57Z</time>
      </trkpt>
      <trkpt lat="47.97224" lon="7.10445">
        <ele>1182</ele>
        <time>2023-05-28T07:24:10Z</time>
      </trkpt>
      <trkpt lat="47.97215" lon="7.10446">
        <ele>1179</ele>
        <time>2023-05-28T07:24:26Z</time>
      </trkpt>
      <trkpt lat="47.97207" lon="7.1044">
        <ele>1174</ele>
        <time>2023-05-28T07:25:43Z</time>
      </trkpt>
      <trkpt lat="47.97206" lon="7.10426">
        <ele>1173</ele>
        <time>2023-05-28T07:25:57Z</time>
      </trkpt>
      <trkpt lat="47.97204" lon="7.10413">
        <ele>1172</ele>
        <time>2023-05-28T07:26:11Z</time>
      </trkpt>
      <trkpt lat="47.97205" lon="7.10398">
        <ele>1171</ele>
        <time>2023-05-28T07:26:23Z</time>
      </trkpt>
      <trkpt lat="47.97206" lon="7.10384">
        <ele>1170</ele>
        <time>2023-05-28T07:26:34Z</time>
      </trkpt>
      <trkpt lat="47.97205" lon="7.1037">
        <ele>1169</ele>
        <time>2023-05-28T07:26:47Z</time>
      </trkpt>
      <trkpt lat="47.97206" lon="7.10357">
        <ele>1167</ele>
        <time>2023-05-28T07:27:01Z</time>
      </trkpt>
      <trkpt lat="47.97208" lon="7.10344">
        <ele>1166</ele>
        <time>2023-05-28T07:27:12Z</time>
      </trkpt>
      <trkpt lat="47.972" lon="7.10336">
        <ele>1165</ele>
        <time>2023-05-28T07:27:25Z</time>
      </trkpt>
      <trkpt lat="47.97194" lon="7.10325">
        <ele>1164</ele>
        <time>2023-05-28T07:27:35Z</time>
      </trkpt>
      <trkpt lat="47.97187" lon="7.10314">
        <ele>1162</ele>
        <time>2023-05-28T07:27:46Z</time>
      </trkpt>
      <trkpt lat="47.9718" lon="7.10306">
        <ele>1161</ele>
        <time>2023-05-28T07:27:56Z</time>
      </trkpt>
      <trkpt lat="47.97173" lon="7.10295">
        <ele>1160</ele>
        <time>2023-05-28T07:28:09Z</time>
      </trkpt>
      <trkpt lat="47.97166" lon="7.10286">
        <ele>1157</ele>
        <time>2023-05-28T07:28:25Z</time>
      </trkpt>
      <trkpt lat="47.97161" lon="7.10276">
        <ele>1155</ele>
        <time>2023-05-28T07:28:36Z</time>
      </trkpt>
      <trkpt lat="47.97161" lon="7.10261">
        <ele>1154</ele>
        <time>2023-05-28T07:28:44Z</time>
      </trkpt>
      <trkpt lat="47.97155" lon="7.10252">
        <ele>1148</ele>
        <time>2023-05-28T07:32:54Z</time>
      </trkpt>
      <trkpt lat="47.97149" lon="7.1024">
        <ele>1147</ele>
        <time>2023-05-28T07:33:04Z</time>
      </trkpt>
      <trkpt lat="47.97144" lon="7.10229">
        <ele>1147</ele>
        <time>2023-05-28T07:33:14Z</time>
      </trkpt>
      <trkpt lat="47.97139" lon="7.10217">
        <ele>1146</ele>
        <time>2023-05-28T07:33:24Z</time>
      </trkpt>
      <trkpt lat="47.97132" lon="7.10207">
        <ele>1146</ele>
        <time>2023-05-28T07:33:34Z</time>
      </trkpt>
      <trkpt lat="47.97126" lon="7.10196">
        <ele>1145</ele>
        <time>2023-05-28T07:33:43Z</time>
      </trkpt>
      <trkpt lat="47.97123" lon="7.10184">
        <ele>1144</ele>
        <time>2023-05-28T07:33:51Z</time>
      </trkpt>
      <trkpt lat="47.97118" lon="7.10172">
        <ele>1144</ele>
        <time>2023-05-28T07:34:00Z</time>
      </trkpt>
      <trkpt lat="47.97112" lon="7.10161">
        <ele>1143</ele>
        <time>2023-05-28T07:34:10Z</time>
      </trkpt>
      <trkpt lat="47.97106" lon="7.1015">
        <ele>1142</ele>
        <time>2023-05-28T07:34:20Z</time>
      </trkpt>
      <trkpt lat="47.971" lon="7.10139">
        <ele>1140</ele>
        <time>2023-05-28T07:34:30Z</time>
      </trkpt>
      <trkpt lat="47.97095" lon="7.10127">
        <ele>1139</ele>
        <time>2023-05-28T07:34:39Z</time>
      </trkpt>
      <trkpt lat="47.9709" lon="7.10114">
        <ele>1137</ele>
        <time>2023-05-28T07:34:48Z</time>
      </trkpt>
      <trkpt lat="47.97085" lon="7.10102">
        <ele>1136</ele>
        <time>2023-05-28T07:34:57Z</time>
      </trkpt>
      <trkpt lat="47.9708" lon="7.1009">
        <ele>1135</ele>
        <time>2023-05-28T07:35:06Z</time>
      </trkpt>
      <trkpt lat="47.97074" lon="7.10078">
        <ele>1134</ele>
        <time>2023-05-28T07:35:15Z</time>
      </trkpt>
      <trkpt lat="47.97071" lon="7.10066">
        <ele>1133</ele>
        <time>2023-05-28T07:35:24Z</time>
      </trkpt>
      <trkpt lat="47.97065" lon="7.10054">
        <ele>1132</ele>
        <time>2023-05-28T07:35:34Z</time>
      </trkpt>
      <trkpt lat="47.97058" lon="7.10043">
        <ele>1131</ele>
        <time>2023-05-28T07:35:43Z</time>
      </trkpt>
      <trkpt lat="47.97052" lon="7.10032">
        <ele>1130</ele>
        <time>2023-05-28T07:35:52Z</time>
      </trkpt>
      <trkpt lat="47.97046" lon="7.1002">
        <ele>1129</ele>
        <time>2023-05-28T07:36:01Z</time>
      </trkpt>
      <trkpt lat="47.97041" lon="7.10009">
        <ele>1129</ele>
        <time>2023-05-28T07:36:10Z</time>
      </trkpt>
      <trkpt lat="47.97036" lon="7.09997">
        <ele>1128</ele>
        <time>2023-05-28T07:36:19Z</time>
      </trkpt>
      <trkpt lat="47.97032" lon="7.09985">
        <ele>1127</ele>
        <time>2023-05-28T07:36:27Z</time>
      </trkpt>
      <trkpt lat="47.97027" lon="7.09973">
        <ele>1126</ele>
        <time>2023-05-28T07:36:35Z</time>
      </trkpt>
      <trkpt lat="47.97021" lon="7.09961">
        <ele>1125</ele>
        <time>2023-05-28T07:36:44Z</time>
      </trkpt>
      <trkpt lat="47.97016" lon="7.09948">
        <ele>1124</ele>
        <time>2023-05-28T07:36:53Z</time>
      </trkpt>
      <trkpt lat="47.97013" lon="7.09934">
        <ele>1124</ele>
        <time>2023-05-28T07:37:02Z</time>
      </trkpt>
      <trkpt lat="47.9701" lon="7.09922">
        <ele>1124</ele>
        <time>2023-05-28T07:37:10Z</time>
      </trkpt>
      <trkpt lat="47.97004" lon="7.09911">
        <ele>1124</ele>
        <time>2023-05-28T07:37:19Z</time>
      </trkpt>
      <trkpt lat="47.96998" lon="7.099">
        <ele>1124</ele>
        <time>2023-05-28T07:37:29Z</time>
      </trkpt>
      <trkpt lat="47.96992" lon="7.09889">
        <ele>1124</ele>
        <time>2023-05-28T07:37:38Z</time>
      </trkpt>
      <trkpt lat="47.96984" lon="7.09882">
        <ele>1124</ele>
        <time>2023-05-28T07:37:47Z</time>
      </trkpt>
      <trkpt lat="47.9698" lon="7.09869">
        <ele>1123</ele>
        <time>2023-05-28T07:37:56Z</time>
      </trkpt>
      <trkpt lat="47.96974" lon="7.09857">
        <ele>1123</ele>
        <time>2023-05-28T07:38:05Z</time>
      </trkpt>
      <trkpt lat="47.96969" lon="7.09845">
        <ele>1122</ele>
        <time>2023-05-28T07:38:14Z</time>
      </trkpt>
      <trkpt lat="47.96962" lon="7.09834">
        <ele>1121</ele>
        <time>2023-05-28T07:38:23Z</time>
      </trkpt>
      <trkpt lat="47.96956" lon="7.09823">
        <ele>1121</ele>
        <time>2023-05-28T07:38:32Z</time>
      </trkpt>
      <trkpt lat="47.96951" lon="7.09811">
        <ele>1120</ele>
        <time>2023-05-28T07:38:40Z</time>
      </trkpt>
      <trkpt lat="47.96945" lon="7.09799">
        <ele>1120</ele>
        <time>2023-05-28T07:38:48Z</time>
      </trkpt>
      <trkpt lat="47.96939" lon="7.09789">
        <ele>1119</ele>
        <time>2023-05-28T07:39:09Z</time>
      </trkpt>
      <trkpt lat="47.96934" lon="7.09778">
        <ele>1119</ele>
        <time>2023-05-28T07:39:35Z</time>
      </trkpt>
      <trkpt lat="47.96928" lon="7.09767">
        <ele>1119</ele>
        <time>2023-05-28T07:39:47Z</time>
      </trkpt>
      <trkpt lat="47.96925" lon="7.09754">
        <ele>1119</ele>
        <time>2023-05-28T07:39:58Z</time>
      </trkpt>
      <trkpt lat="47.96919" lon="7.09744">
        <ele>1119</ele>
        <time>2023-05-28T07:40:12Z</time>
      </trkpt>
      <trkpt lat="47.96915" lon="7.09732">
        <ele>1120</ele>
        <time>2023-05-28T07:40:22Z</time>
      </trkpt>
      <trkpt lat="47.96909" lon="7.09721">
        <ele>1120</ele>
        <time>2023-05-28T07:40:33Z</time>
      </trkpt>
      <trkpt lat="47.96903" lon="7.09711">
        <ele>1121</ele>
        <time>2023-05-28T07:40:44Z</time>
      </trkpt>
      <trkpt lat="47.96896" lon="7.09701">
        <ele>1122</ele>
        <time>2023-05-28T07:40:55Z</time>
      </trkpt>
      <trkpt lat="47.96891" lon="7.09691">
        <ele>1123</ele>
        <time>2023-05-28T07:41:05Z</time>
      </trkpt>
      <trkpt lat="47.96884" lon="7.09681">
        <ele>1123</ele>
        <time>2023-05-28T07:41:16Z</time>
      </trkpt>
      <trkpt lat="47.96879" lon="7.09669">
        <ele>1124</ele>
        <time>2023-05-28T07:41:28Z</time>
      </trkpt>
      <trkpt lat="47.96874" lon="7.09658">
        <ele>1125</ele>
        <time>2023-05-28T07:41:39Z</time>
      </trkpt>
      <trkpt lat="47.96868" lon="7.09647">
        <ele>1126</ele>
        <time>2023-05-28T07:41:50Z</time>
      </trkpt>
      <trkpt lat="47.96864" lon="7.09635">
        <ele>1127</ele>
        <time>2023-05-28T07:42:02Z</time>
      </trkpt>
      <trkpt lat="47.96858" lon="7.09623">
        <ele>1128</ele>
        <time>2023-05-28T07:42:14Z</time>
      </trkpt>
      <trkpt lat="47.96853" lon="7.09612">
        <ele>1129</ele>
        <time>2023-05-28T07:42:28Z</time>
      </trkpt>
      <trkpt lat="47.96846" lon="7.09602">
        <ele>1132</ele>
        <time>2023-05-28T07:42:51Z</time>
      </trkpt>
      <trkpt lat="47.9684" lon="7.09591">
        <ele>1134</ele>
        <time>2023-05-28T07:43:07Z</time>
      </trkpt>
      <trkpt lat="47.96838" lon="7.09578">
        <ele>1139</ele>
        <time>2023-05-28T07:44:21Z</time>
      </trkpt>
      <trkpt lat="47.96832" lon="7.09567">
        <ele>1139</ele>
        <time>2023-05-28T07:44:37Z</time>
      </trkpt>
      <trkpt lat="47.96826" lon="7.09557">
        <ele>1140</ele>
        <time>2023-05-28T07:44:49Z</time>
      </trkpt>
      <trkpt lat="47.9682" lon="7.09548">
        <ele>1141</ele>
        <time>2023-05-28T07:45:03Z</time>
      </trkpt>
      <trkpt lat="47.96815" lon="7.09538">
        <ele>1143</ele>
        <time>2023-05-28T07:45:16Z</time>
      </trkpt>
      <trkpt lat="47.96807" lon="7.09528">
        <ele>1144</ele>
        <time>2023-05-28T07:45:28Z</time>
      </trkpt>
      <trkpt lat="47.96802" lon="7.09517">
        <ele>1145</ele>
        <time>2023-05-28T07:45:39Z</time>
      </trkpt>
      <trkpt lat="47.96795" lon="7.09507">
        <ele>1147</ele>
        <time>2023-05-28T07:45:50Z</time>
      </trkpt>
      <trkpt lat="47.96789" lon="7.09495">
        <ele>1149</ele>
        <time>2023-05-28T07:46:09Z</time>
      </trkpt>
      <trkpt lat="47.96782" lon="7.09488">
        <ele>1150</ele>
        <time>2023-05-28T07:46:18Z</time>
      </trkpt>
      <trkpt lat="47.96775" lon="7.09478">
        <ele>1150</ele>
        <time>2023-05-28T07:46:28Z</time>
      </trkpt>
      <trkpt lat="47.96768" lon="7.09469">
        <ele>1151</ele>
        <time>2023-05-28T07:46:38Z</time>
      </trkpt>
      <trkpt lat="47.96761" lon="7.0946">
        <ele>1151</ele>
        <time>2023-05-28T07:46:47Z</time>
      </trkpt>
      <trkpt lat="47.96755" lon="7.09449">
        <ele>1152</ele>
        <time>2023-05-28T07:46:58Z</time>
      </trkpt>
      <trkpt lat="47.96749" lon="7.09439">
        <ele>1153</ele>
        <time>2023-05-28T07:47:09Z</time>
      </trkpt>
      <trkpt lat="47.96742" lon="7.0943">
        <ele>1153</ele>
        <time>2023-05-28T07:47:18Z</time>
      </trkpt>
      <trkpt lat="47.96734" lon="7.09422">
        <ele>1154</ele>
        <time>2023-05-28T07:47:28Z</time>
      </trkpt>
      <trkpt lat="47.96728" lon="7.09411">
        <ele>1155</ele>
        <time>2023-05-28T07:47:38Z</time>
      </trkpt>
      <trkpt lat="47.96722" lon="7.09402">
        <ele>1156</ele>
        <time>2023-05-28T07:47:51Z</time>
      </trkpt>
      <trkpt lat="47.96714" lon="7.09394">
        <ele>1158</ele>
        <time>2023-05-28T07:48:10Z</time>
      </trkpt>
      <trkpt lat="47.96708" lon="7.09384">
        <ele>1160</ele>
        <time>2023-05-28T07:48:31Z</time>
      </trkpt>
      <trkpt lat="47.96702" lon="7.09374">
        <ele>1162</ele>
        <time>2023-05-28T07:48:46Z</time>
      </trkpt>
      <trkpt lat="47.96694" lon="7.09368">
        <ele>1164</ele>
        <time>2023-05-28T07:49:01Z</time>
      </trkpt>
      <trkpt lat="47.96689" lon="7.09356">
        <ele>1166</ele>
        <time>2023-05-28T07:49:15Z</time>
      </trkpt>
      <trkpt lat="47.96684" lon="7.09344">
        <ele>1167</ele>
        <time>2023-05-28T07:49:26Z</time>
      </trkpt>
      <trkpt lat="47.96681" lon="7.09331">
        <ele>1167</ele>
        <time>2023-05-28T07:49:36Z</time>
      </trkpt>
      <trkpt lat="47.96677" lon="7.09318">
        <ele>1168</ele>
        <time>2023-05-28T07:49:45Z</time>
      </trkpt>
      <trkpt lat="47.96669" lon="7.09311">
        <ele>1169</ele>
        <time>2023-05-28T07:49:55Z</time>
      </trkpt>
      <trkpt lat="47.96664" lon="7.093">
        <ele>1169</ele>
        <time>2023-05-28T07:50:06Z</time>
      </trkpt>
      <trkpt lat="47.96662" lon="7.09287">
        <ele>1169</ele>
        <time>2023-05-28T07:50:19Z</time>
      </trkpt>
      <trkpt lat="47.96656" lon="7.09277">
        <ele>1170</ele>
        <time>2023-05-28T07:50:30Z</time>
      </trkpt>
      <trkpt lat="47.96651" lon="7.09265">
        <ele>1171</ele>
        <time>2023-05-28T07:50:41Z</time>
      </trkpt>
      <trkpt lat="47.9665" lon="7.09251">
        <ele>1172</ele>
        <time>2023-05-28T07:50:51Z</time>
      </trkpt>
      <trkpt lat="47.96646" lon="7.09239">
        <ele>1173</ele>
        <time>2023-05-28T07:51:05Z</time>
      </trkpt>
      <trkpt lat="47.96645" lon="7.09226">
        <ele>1174</ele>
        <time>2023-05-28T07:51:18Z</time>
      </trkpt>
      <trkpt lat="47.96641" lon="7.09213">
        <ele>1176</ele>
        <time>2023-05-28T07:51:31Z</time>
      </trkpt>
      <trkpt lat="47.96636" lon="7.09201">
        <ele>1177</ele>
        <time>2023-05-28T07:51:44Z</time>
      </trkpt>
      <trkpt lat="47.96629" lon="7.0919">
        <ele>1180</ele>
        <time>2023-05-28T07:52:07Z</time>
      </trkpt>
      <trkpt lat="47.96623" lon="7.09179">
        <ele>1182</ele>
        <time>2023-05-28T07:52:22Z</time>
      </trkpt>
      <trkpt lat="47.96619" lon="7.09167">
        <ele>1185</ele>
        <time>2023-05-28T07:52:44Z</time>
      </trkpt>
      <trkpt lat="47.96614" lon="7.09157">
        <ele>1187</ele>
        <time>2023-05-28T07:53:02Z</time>
      </trkpt>
      <trkpt lat="47.96609" lon="7.09145">
        <ele>1189</ele>
        <time>2023-05-28T07:53:18Z</time>
      </trkpt>
      <trkpt lat="47.96606" lon="7.09132">
        <ele>1191</ele>
        <time>2023-05-28T07:53:37Z</time>
      </trkpt>
      <trkpt lat="47.96601" lon="7.09121">
        <ele>1193</ele>
        <time>2023-05-28T07:53:55Z</time>
      </trkpt>
      <trkpt lat="47.96596" lon="7.09109">
        <ele>1195</ele>
        <time>2023-05-28T07:54:19Z</time>
      </trkpt>
      <trkpt lat="47.96595" lon="7.09096">
        <ele>1196</ele>
        <time>2023-05-28T07:54:34Z</time>
      </trkpt>
      <trkpt lat="47.96589" lon="7.09085">
        <ele>1199</ele>
        <time>2023-05-28T07:54:51Z</time>
      </trkpt>
      <trkpt lat="47.96587" lon="7.09071">
        <ele>1200</ele>
        <time>2023-05-28T07:55:07Z</time>
      </trkpt>
      <trkpt lat="47.96582" lon="7.0906">
        <ele>1202</ele>
        <time>2023-05-28T07:55:26Z</time>
      </trkpt>
      <trkpt lat="47.96578" lon="7.09047">
        <ele>1204</ele>
        <time>2023-05-28T07:55:40Z</time>
      </trkpt>
      <trkpt lat="47.96576" lon="7.09034">
        <ele>1205</ele>
        <time>2023-05-28T07:55:55Z</time>
      </trkpt>
      <trkpt lat="47.96571" lon="7.09023">
        <ele>1206</ele>
        <time>2023-05-28T07:56:10Z</time>
      </trkpt>
      <trkpt lat="47.96566" lon="7.09012">
        <ele>1208</ele>
        <time>2023-05-28T07:56:25Z</time>
      </trkpt>
      <trkpt lat="47.96563" lon="7.08999">
        <ele>1209</ele>
        <time>2023-05-28T07:56:38Z</time>
      </trkpt>
      <trkpt lat="47.9656" lon="7.08986">
        <ele>1211</ele>
        <time>2023-05-28T07:56:50Z</time>
      </trkpt>
      <trkpt lat="47.96559" lon="7.08973">
        <ele>1212</ele>
        <time>2023-05-28T07:57:03Z</time>
      </trkpt>
      <trkpt lat="47.96554" lon="7.08961">
        <ele>1213</ele>
        <time>2023-05-28T07:57:16Z</time>
      </trkpt>
      <trkpt lat="47.96551" lon="7.08949">
        <ele>1214</ele>
        <time>2023-05-28T07:57:27Z</time>
      </trkpt>
      <trkpt lat="47.96544" lon="7.0894">
        <ele>1214</ele>
        <time>2023-05-28T07:57:40Z</time>
      </trkpt>
      <trkpt lat="47.96536" lon="7.08934">
        <ele>1215</ele>
        <time>2023-05-28T07:57:55Z</time>
      </trkpt>
      <trkpt lat="47.9653" lon="7.08923">
        <ele>1216</ele>
        <time>2023-05-28T07:58:08Z</time>
      </trkpt>
      <trkpt lat="47.96523" lon="7.08914">
        <ele>1218</ele>
        <time>2023-05-28T07:58:25Z</time>
      </trkpt>
      <trkpt lat="47.96514" lon="7.0891">
        <ele>1218</ele>
        <time>2023-05-28T07:58:38Z</time>
      </trkpt>
      <trkpt lat="47.96505" lon="7.08904">
        <ele>1219</ele>
        <time>2023-05-28T07:58:51Z</time>
      </trkpt>
      <trkpt lat="47.96496" lon="7.08902">
        <ele>1220</ele>
        <time>2023-05-28T07:59:03Z</time>
      </trkpt>
      <trkpt lat="47.96487" lon="7.08898">
        <ele>1221</ele>
        <time>2023-05-28T07:59:14Z</time>
      </trkpt>
      <trkpt lat="47.96478" lon="7.08897">
        <ele>1221</ele>
        <time>2023-05-28T07:59:25Z</time>
      </trkpt>
      <trkpt lat="47.9647" lon="7.08892">
        <ele>1222</ele>
        <time>2023-05-28T07:59:39Z</time>
      </trkpt>
      <trkpt lat="47.96461" lon="7.08886">
        <ele>1223</ele>
        <time>2023-05-28T07:59:53Z</time>
      </trkpt>
      <trkpt lat="47.96453" lon="7.08881">
        <ele>1224</ele>
        <time>2023-05-28T08:00:08Z</time>
      </trkpt>
      <trkpt lat="47.96446" lon="7.08872">
        <ele>1225</ele>
        <time>2023-05-28T08:00:31Z</time>
      </trkpt>
      <trkpt lat="47.96443" lon="7.08859">
        <ele>1227</ele>
        <time>2023-05-28T08:00:46Z</time>
      </trkpt>
      <trkpt lat="47.96439" lon="7.08847">
        <ele>1229</ele>
        <time>2023-05-28T08:01:13Z</time>
      </trkpt>
      <trkpt lat="47.96433" lon="7.08836">
        <ele>1231</ele>
        <time>2023-05-28T08:01:27Z</time>
      </trkpt>
      <trkpt lat="47.96427" lon="7.08825">
        <ele>1233</ele>
        <time>2023-05-28T08:01:44Z</time>
      </trkpt>
      <trkpt lat="47.96421" lon="7.08815">
        <ele>1234</ele>
        <time>2023-05-28T08:01:59Z</time>
      </trkpt>
      <trkpt lat="47.96415" lon="7.08805">
        <ele>1235</ele>
        <time>2023-05-28T08:02:11Z</time>
      </trkpt>
      <trkpt lat="47.96409" lon="7.08795">
        <ele>1236</ele>
        <time>2023-05-28T08:02:22Z</time>
      </trkpt>
      <trkpt lat="47.96402" lon="7.08786">
        <ele>1237</ele>
        <time>2023-05-28T08:02:33Z</time>
      </trkpt>
      <trkpt lat="47.96395" lon="7.08777">
        <ele>1238</ele>
        <time>2023-05-28T08:02:45Z</time>
      </trkpt>
      <trkpt lat="47.96388" lon="7.08768">
        <ele>1238</ele>
        <time>2023-05-28T08:02:57Z</time>
      </trkpt>
      <trkpt lat="47.96382" lon="7.08758">
        <ele>1239</ele>
        <time>2023-05-28T08:03:10Z</time>
      </trkpt>
      <trkpt lat="47.96376" lon="7.08747">
        <ele>1239</ele>
        <time>2023-05-28T08:03:24Z</time>
      </trkpt>
      <trkpt lat="47.96369" lon="7.08739">
        <ele>1240</ele>
        <time>2023-05-28T08:03:38Z</time>
      </trkpt>
      <trkpt lat="47.96362" lon="7.0873">
        <ele>1240</ele>
        <time>2023-05-28T08:03:49Z</time>
      </trkpt>
      <trkpt lat="47.96356" lon="7.0872">
        <ele>1241</ele>
        <time>2023-05-28T08:04:00Z</time>
      </trkpt>
      <trkpt lat="47.96349" lon="7.08711">
        <ele>1241</ele>
        <time>2023-05-28T08:04:12Z</time>
      </trkpt>
      <trkpt lat="47.96342" lon="7.08701">
        <ele>1241</ele>
        <time>2023-05-28T08:04:23Z</time>
      </trkpt>
      <trkpt lat="47.96334" lon="7.08693">
        <ele>1241</ele>
        <time>2023-05-28T08:04:34Z</time>
      </trkpt>
      <trkpt lat="47.96328" lon="7.08684">
        <ele>1242</ele>
        <time>2023-05-28T08:04:44Z</time>
      </trkpt>
      <trkpt lat="47.9632" lon="7.08674">
        <ele>1242</ele>
        <time>2023-05-28T08:04:55Z</time>
      </trkpt>
      <trkpt lat="47.96313" lon="7.08664">
        <ele>1242</ele>
        <time>2023-05-28T08:05:06Z</time>
      </trkpt>
      <trkpt lat="47.96306" lon="7.08656">
        <ele>1242</ele>
        <time>2023-05-28T08:05:17Z</time>
      </trkpt>
      <trkpt lat="47.96299" lon="7.08648">
        <ele>1242</ele>
        <time>2023-05-28T08:05:29Z</time>
      </trkpt>
      <trkpt lat="47.96292" lon="7.08638">
        <ele>1243</ele>
        <time>2023-05-28T08:05:41Z</time>
      </trkpt>
      <trkpt lat="47.96286" lon="7.08628">
        <ele>1244</ele>
        <time>2023-05-28T08:05:53Z</time>
      </trkpt>
      <trkpt lat="47.9628" lon="7.08617">
        <ele>1245</ele>
        <time>2023-05-28T08:06:05Z</time>
      </trkpt>
      <trkpt lat="47.96273" lon="7.08606">
        <ele>1245</ele>
        <time>2023-05-28T08:06:16Z</time>
      </trkpt>
      <trkpt lat="47.96267" lon="7.08596">
        <ele>1246</ele>
        <time>2023-05-28T08:06:27Z</time>
      </trkpt>
      <trkpt lat="47.96261" lon="7.08585">
        <ele>1246</ele>
        <time>2023-05-28T08:06:38Z</time>
      </trkpt>
      <trkpt lat="47.96256" lon="7.08573">
        <ele>1246</ele>
        <time>2023-05-28T08:06:49Z</time>
      </trkpt>
      <trkpt lat="47.96251" lon="7.0856">
        <ele>1246</ele>
        <time>2023-05-28T08:07:00Z</time>
      </trkpt>
      <trkpt lat="47.96246" lon="7.08547">
        <ele>1247</ele>
        <time>2023-05-28T08:07:11Z</time>
      </trkpt>
      <trkpt lat="47.96245" lon="7.08533">
        <ele>1247</ele>
        <time>2023-05-28T08:07:22Z</time>
      </trkpt>
      <trkpt lat="47.9624" lon="7.08522">
        <ele>1247</ele>
        <time>2023-05-28T08:07:34Z</time>
      </trkpt>
      <trkpt lat="47.96235" lon="7.0851">
        <ele>1247</ele>
        <time>2023-05-28T08:07:49Z</time>
      </trkpt>
      <trkpt lat="47.96229" lon="7.08499">
        <ele>1247</ele>
        <time>2023-05-28T08:08:00Z</time>
      </trkpt>
      <trkpt lat="47.96225" lon="7.08487">
        <ele>1245</ele>
        <time>2023-05-28T08:08:11Z</time>
      </trkpt>
      <trkpt lat="47.96218" lon="7.08476">
        <ele>1245</ele>
        <time>2023-05-28T08:08:22Z</time>
      </trkpt>
      <trkpt lat="47.96211" lon="7.08467">
        <ele>1244</ele>
        <time>2023-05-28T08:08:33Z</time>
      </trkpt>
      <trkpt lat="47.96204" lon="7.08457">
        <ele>1244</ele>
        <time>2023-05-28T08:08:44Z</time>
      </trkpt>
      <trkpt lat="47.96198" lon="7.08447">
        <ele>1243</ele>
        <time>2023-05-28T08:08:55Z</time>
      </trkpt>
      <trkpt lat="47.96191" lon="7.08436">
        <ele>1243</ele>
        <time>2023-05-28T08:09:05Z</time>
      </trkpt>
      <trkpt lat="47.96184" lon="7.08426">
        <ele>1243</ele>
        <time>2023-05-28T08:09:15Z</time>
      </trkpt>
      <trkpt lat="47.96177" lon="7.08416">
        <ele>1242</ele>
        <time>2023-05-28T08:09:25Z</time>
      </trkpt>
      <trkpt lat="47.9617" lon="7.08407">
        <ele>1242</ele>
        <time>2023-05-28T08:09:35Z</time>
      </trkpt>
      <trkpt lat="47.96163" lon="7.08397">
        <ele>1242</ele>
        <time>2023-05-28T08:09:45Z</time>
      </trkpt>
      <trkpt lat="47.96155" lon="7.08388">
        <ele>1242</ele>
        <time>2023-05-28T08:09:55Z</time>
      </trkpt>
      <trkpt lat="47.96147" lon="7.08381">
        <ele>1242</ele>
        <time>2023-05-28T08:10:05Z</time>
      </trkpt>
      <trkpt lat="47.96139" lon="7.08372">
        <ele>1242</ele>
        <time>2023-05-28T08:10:15Z</time>
      </trkpt>
      <trkpt lat="47.96131" lon="7.08365">
        <ele>1242</ele>
        <time>2023-05-28T08:10:25Z</time>
      </trkpt>
      <trkpt lat="47.96123" lon="7.08358">
        <ele>1241</ele>
        <time>2023-05-28T08:10:35Z</time>
      </trkpt>
      <trkpt lat="47.96115" lon="7.08351">
        <ele>1242</ele>
        <time>2023-05-28T08:10:45Z</time>
      </trkpt>
      <trkpt lat="47.96106" lon="7.0835">
        <ele>1244</ele>
        <time>2023-05-28T08:13:16Z</time>
      </trkpt>
      <trkpt lat="47.96097" lon="7.08348">
        <ele>1244</ele>
        <time>2023-05-28T08:13:26Z</time>
      </trkpt>
      <trkpt lat="47.96088" lon="7.08346">
        <ele>1245</ele>
        <time>2023-05-28T08:13:35Z</time>
      </trkpt>
      <trkpt lat="47.96078" lon="7.08344">
        <ele>1245</ele>
        <time>2023-05-28T08:13:45Z</time>
      </trkpt>
      <trkpt lat="47.96069" lon="7.08342">
        <ele>1245</ele>
        <time>2023-05-28T08:13:54Z</time>
      </trkpt>
      <trkpt lat="47.96059" lon="7.08341">
        <ele>1245</ele>
        <time>2023-05-28T08:14:04Z</time>
      </trkpt>
      <trkpt lat="47.9605" lon="7.0834">
        <ele>1245</ele>
        <time>2023-05-28T08:14:14Z</time>
      </trkpt>
      <trkpt lat="47.96041" lon="7.08337">
        <ele>1245</ele>
        <time>2023-05-28T08:14:24Z</time>
      </trkpt>
      <trkpt lat="47.96032" lon="7.08335">
        <ele>1245</ele>
        <time>2023-05-28T08:14:33Z</time>
      </trkpt>
      <trkpt lat="47.96022" lon="7.08329">
        <ele>1245</ele>
        <time>2023-05-28T08:14:42Z</time>
      </trkpt>
      <trkpt lat="47.96013" lon="7.08328">
        <ele>1244</ele>
        <time>2023-05-28T08:14:51Z</time>
      </trkpt>
      <trkpt lat="47.96004" lon="7.08326">
        <ele>1244</ele>
        <time>2023-05-28T08:15:00Z</time>
      </trkpt>
      <trkpt lat="47.95995" lon="7.08323">
        <ele>1244</ele>
        <time>2023-05-28T08:15:08Z</time>
      </trkpt>
      <trkpt lat="47.95985" lon="7.0832">
        <ele>1244</ele>
        <time>2023-05-28T08:15:17Z</time>
      </trkpt>
      <trkpt lat="47.95975" lon="7.08319">
        <ele>1243</ele>
        <time>2023-05-28T08:16:03Z</time>
      </trkpt>
      <trkpt lat="47.95966" lon="7.08317">
        <ele>1243</ele>
        <time>2023-05-28T08:16:16Z</time>
      </trkpt>
      <trkpt lat="47.95958" lon="7.08312">
        <ele>1244</ele>
        <time>2023-05-28T08:16:28Z</time>
      </trkpt>
      <trkpt lat="47.95948" lon="7.08311">
        <ele>1244</ele>
        <time>2023-05-28T08:16:39Z</time>
      </trkpt>
      <trkpt lat="47.95939" lon="7.08306">
        <ele>1245</ele>
        <time>2023-05-28T08:16:52Z</time>
      </trkpt>
      <trkpt lat="47.95929" lon="7.08304">
        <ele>1245</ele>
        <time>2023-05-28T08:17:02Z</time>
      </trkpt>
      <trkpt lat="47.9592" lon="7.083">
        <ele>1246</ele>
        <time>2023-05-28T08:17:11Z</time>
      </trkpt>
      <trkpt lat="47.95911" lon="7.08295">
        <ele>1246</ele>
        <time>2023-05-28T08:17:23Z</time>
      </trkpt>
      <trkpt lat="47.95902" lon="7.08292">
        <ele>1247</ele>
        <time>2023-05-28T08:17:34Z</time>
      </trkpt>
      <trkpt lat="47.95893" lon="7.08291">
        <ele>1248</ele>
        <time>2023-05-28T08:17:46Z</time>
      </trkpt>
      <trkpt lat="47.95884" lon="7.08287">
        <ele>1249</ele>
        <time>2023-05-28T08:18:00Z</time>
      </trkpt>
      <trkpt lat="47.95875" lon="7.08284">
        <ele>1250</ele>
        <time>2023-05-28T08:18:11Z</time>
      </trkpt>
      <trkpt lat="47.95867" lon="7.08278">
        <ele>1251</ele>
        <time>2023-05-28T08:18:20Z</time>
      </trkpt>
      <trkpt lat="47.95858" lon="7.08274">
        <ele>1252</ele>
        <time>2023-05-28T08:18:30Z</time>
      </trkpt>
      <trkpt lat="47.95849" lon="7.08272">
        <ele>1253</ele>
        <time>2023-05-28T08:18:40Z</time>
      </trkpt>
      <trkpt lat="47.9584" lon="7.08273">
        <ele>1254</ele>
        <time>2023-05-28T08:18:50Z</time>
      </trkpt>
      <trkpt lat="47.9583" lon="7.08273">
        <ele>1255</ele>
        <time>2023-05-28T08:19:00Z</time>
      </trkpt>
      <trkpt lat="47.95821" lon="7.08271">
        <ele>1255</ele>
        <time>2023-05-28T08:19:08Z</time>
      </trkpt>
      <trkpt lat="47.95812" lon="7.08268">
        <ele>1255</ele>
        <time>2023-05-28T08:19:17Z</time>
      </trkpt>
      <trkpt lat="47.95803" lon="7.08267">
        <ele>1256</ele>
        <time>2023-05-28T08:19:27Z</time>
      </trkpt>
      <trkpt lat="47.95793" lon="7.08268">
        <ele>1256</ele>
        <time>2023-05-28T08:19:37Z</time>
      </trkpt>
      <trkpt lat="47.95784" lon="7.08268">
        <ele>1257</ele>
        <time>2023-05-28T08:19:46Z</time>
      </trkpt>
      <trkpt lat="47.95775" lon="7.08267">
        <ele>1257</ele>
        <time>2023-05-28T08:19:56Z</time>
      </trkpt>
      <trkpt lat="47.95765" lon="7.08266">
        <ele>1258</ele>
        <time>2023-05-28T08:20:05Z</time>
      </trkpt>
      <trkpt lat="47.95756" lon="7.08265">
        <ele>1258</ele>
        <time>2023-05-28T08:20:14Z</time>
      </trkpt>
      <trkpt lat="47.95746" lon="7.08265">
        <ele>1258</ele>
        <time>2023-05-28T08:20:24Z</time>
      </trkpt>
      <trkpt lat="47.95737" lon="7.08268">
        <ele>1259</ele>
        <time>2023-05-28T08:20:33Z</time>
      </trkpt>
      <trkpt lat="47.95727" lon="7.0827">
        <ele>1259</ele>
        <time>2023-05-28T08:20:42Z</time>
      </trkpt>
      <trkpt lat="47.95718" lon="7.08267">
        <ele>1259</ele>
        <time>2023-05-28T08:21:18Z</time>
      </trkpt>
      <trkpt lat="47.95709" lon="7.08264">
        <ele>1259</ele>
        <time>2023-05-28T08:21:28Z</time>
      </trkpt>
      <trkpt lat="47.957" lon="7.08262">
        <ele>1259</ele>
        <time>2023-05-28T08:21:37Z</time>
      </trkpt>
      <trkpt lat="47.9569" lon="7.08263">
        <ele>1259</ele>
        <time>2023-05-28T08:21:47Z</time>
      </trkpt>
      <trkpt lat="47.95681" lon="7.08267">
        <ele>1258</ele>
        <time>2023-05-28T08:21:56Z</time>
      </trkpt>
      <trkpt lat="47.95672" lon="7.08268">
        <ele>1258</ele>
        <time>2023-05-28T08:22:05Z</time>
      </trkpt>
      <trkpt lat="47.95662" lon="7.08268">
        <ele>1258</ele>
        <time>2023-05-28T08:22:14Z</time>
      </trkpt>
      <trkpt lat="47.95653" lon="7.08271">
        <ele>1258</ele>
        <time>2023-05-28T08:22:22Z</time>
      </trkpt>
      <trkpt lat="47.95644" lon="7.08272">
        <ele>1258</ele>
        <time>2023-05-28T08:22:30Z</time>
      </trkpt>
      <trkpt lat="47.95635" lon="7.08274">
        <ele>1258</ele>
        <time>2023-05-28T08:22:39Z</time>
      </trkpt>
      <trkpt lat="47.95626" lon="7.08278">
        <ele>1257</ele>
        <time>2023-05-28T08:22:48Z</time>
      </trkpt>
      <trkpt lat="47.95617" lon="7.08282">
        <ele>1257</ele>
        <time>2023-05-28T08:22:59Z</time>
      </trkpt>
      <trkpt lat="47.95608" lon="7.08286">
        <ele>1257</ele>
        <time>2023-05-28T08:23:09Z</time>
      </trkpt>
      <trkpt lat="47.95599" lon="7.08293">
        <ele>1256</ele>
        <time>2023-05-28T08:23:19Z</time>
      </trkpt>
      <trkpt lat="47.9559" lon="7.08297">
        <ele>1256</ele>
        <time>2023-05-28T08:23:26Z</time>
      </trkpt>
      <trkpt lat="47.95581" lon="7.08302">
        <ele>1256</ele>
        <time>2023-05-28T08:23:34Z</time>
      </trkpt>
      <trkpt lat="47.95574" lon="7.08309">
        <ele>1256</ele>
        <time>2023-05-28T08:23:44Z</time>
      </trkpt>
      <trkpt lat="47.95566" lon="7.08318">
        <ele>1256</ele>
        <time>2023-05-28T08:23:55Z</time>
      </trkpt>
      <trkpt lat="47.9556" lon="7.08328">
        <ele>1255</ele>
        <time>2023-05-28T08:24:04Z</time>
      </trkpt>
      <trkpt lat="47.95554" lon="7.08339">
        <ele>1254</ele>
        <time>2023-05-28T08:24:14Z</time>
      </trkpt>
      <trkpt lat="47.95548" lon="7.08348">
        <ele>1253</ele>
        <time>2023-05-28T08:24:25Z</time>
      </trkpt>
      <trkpt lat="47.95541" lon="7.0836">
        <ele>1252</ele>
        <time>2023-05-28T08:24:35Z</time>
      </trkpt>
      <trkpt lat="47.95537" lon="7.08372">
        <ele>1251</ele>
        <time>2023-05-28T08:24:44Z</time>
      </trkpt>
      <trkpt lat="47.95533" lon="7.08384">
        <ele>1250</ele>
        <time>2023-05-28T08:24:53Z</time>
      </trkpt>
      <trkpt lat="47.95526" lon="7.08394">
        <ele>1249</ele>
        <time>2023-05-28T08:25:01Z</time>
      </trkpt>
      <trkpt lat="47.95517" lon="7.08401">
        <ele>1248</ele>
        <time>2023-05-28T08:25:09Z</time>
      </trkpt>
      <trkpt lat="47.95508" lon="7.08406">
        <ele>1247</ele>
        <time>2023-05-28T08:25:17Z</time>
      </trkpt>
      <trkpt lat="47.95498" lon="7.08409">
        <ele>1247</ele>
        <time>2023-05-28T08:25:26Z</time>
      </trkpt>
      <trkpt lat="47.95489" lon="7.08409">
        <ele>1246</ele>
        <time>2023-05-28T08:25:35Z</time>
      </trkpt>
      <trkpt lat="47.95479" lon="7.0841">
        <ele>1245</ele>
        <time>2023-05-28T08:25:45Z</time>
      </trkpt>
      <trkpt lat="47.9547" lon="7.08411">
        <ele>1244</ele>
        <time>2023-05-28T08:25:54Z</time>
      </trkpt>
      <trkpt lat="47.95461" lon="7.08411">
        <ele>1243</ele>
        <time>2023-05-28T08:26:03Z</time>
      </trkpt>
      <trkpt lat="47.95451" lon="7.08408">
        <ele>1242</ele>
        <time>2023-05-28T08:26:11Z</time>
      </trkpt>
      <trkpt lat="47.95444" lon="7.08401">
        <ele>1242</ele>
        <time>2023-05-28T08:26:19Z</time>
      </trkpt>
      <trkpt lat="47.95438" lon="7.08389">
        <ele>1241</ele>
        <time>2023-05-28T08:26:28Z</time>
      </trkpt>
      <trkpt lat="47.95432" lon="7.08378">
        <ele>1241</ele>
        <time>2023-05-28T08:26:37Z</time>
      </trkpt>
      <trkpt lat="47.95426" lon="7.08366">
        <ele>1241</ele>
        <time>2023-05-28T08:26:46Z</time>
      </trkpt>
      <trkpt lat="47.95421" lon="7.08355">
        <ele>1241</ele>
        <time>2023-05-28T08:26:54Z</time>
      </trkpt>
      <trkpt lat="47.95415" lon="7.08344">
        <ele>1241</ele>
        <time>2023-05-28T08:27:03Z</time>
      </trkpt>
      <trkpt lat="47.95411" lon="7.0833">
        <ele>1241</ele>
        <time>2023-05-28T08:27:12Z</time>
      </trkpt>
      <trkpt lat="47.95407" lon="7.08317">
        <ele>1241</ele>
        <time>2023-05-28T08:27:21Z</time>
      </trkpt>
      <trkpt lat="47.95404" lon="7.08304">
        <ele>1241</ele>
        <time>2023-05-28T08:27:30Z</time>
      </trkpt>
      <trkpt lat="47.95402" lon="7.0829">
        <ele>1241</ele>
        <time>2023-05-28T08:27:39Z</time>
      </trkpt>
      <trkpt lat="47.95402" lon="7.08276">
        <ele>1241</ele>
        <time>2023-05-28T08:27:47Z</time>
      </trkpt>
      <trkpt lat="47.95402" lon="7.08261">
        <ele>1241</ele>
        <time>2023-05-28T08:27:56Z</time>
      </trkpt>
      <trkpt lat="47.95401" lon="7.08246">
        <ele>1241</ele>
        <time>2023-05-28T08:28:06Z</time>
      </trkpt>
      <trkpt lat="47.954" lon="7.08232">
        <ele>1241</ele>
        <time>2023-05-28T08:28:14Z</time>
      </trkpt>
      <trkpt lat="47.95397" lon="7.08218">
        <ele>1241</ele>
        <time>2023-05-28T08:28:22Z</time>
      </trkpt>
      <trkpt lat="47.95397" lon="7.08204">
        <ele>1241</ele>
        <time>2023-05-28T08:28:31Z</time>
      </trkpt>
      <trkpt lat="47.95394" lon="7.08191">
        <ele>1241</ele>
        <time>2023-05-28T08:28:45Z</time>
      </trkpt>
      <trkpt lat="47.95392" lon="7.08177">
        <ele>1241</ele>
        <time>2023-05-28T08:28:53Z</time>
      </trkpt>
      <trkpt lat="47.95391" lon="7.08162">
        <ele>1241</ele>
        <time>2023-05-28T08:29:01Z</time>
      </trkpt>
      <trkpt lat="47.9539" lon="7.08149">
        <ele>1241</ele>
        <time>2023-05-28T08:29:10Z</time>
      </trkpt>
      <trkpt lat="47.95389" lon="7.08134">
        <ele>1241</ele>
        <time>2023-05-28T08:29:19Z</time>
      </trkpt>
      <trkpt lat="47.95385" lon="7.08121">
        <ele>1241</ele>
        <time>2023-05-28T08:29:27Z</time>
      </trkpt>
      <trkpt lat="47.95382" lon="7.08108">
        <ele>1240</ele>
        <time>2023-05-28T08:29:36Z</time>
      </trkpt>
      <trkpt lat="47.95378" lon="7.08096">
        <ele>1240</ele>
        <time>2023-05-28T08:29:50Z</time>
      </trkpt>
      <trkpt lat="47.95375" lon="7.08083">
        <ele>1238</ele>
        <time>2023-05-28T08:30:07Z</time>
      </trkpt>
      <trkpt lat="47.95372" lon="7.08069">
        <ele>1236</ele>
        <time>2023-05-28T08:30:22Z</time>
      </trkpt>
      <trkpt lat="47.95368" lon="7.08057">
        <ele>1235</ele>
        <time>2023-05-28T08:30:40Z</time>
      </trkpt>
      <trkpt lat="47.95364" lon="7.08045">
        <ele>1233</ele>
        <time>2023-05-28T08:30:53Z</time>
      </trkpt>
      <trkpt lat="47.95359" lon="7.08034">
        <ele>1232</ele>
        <time>2023-05-28T08:31:03Z</time>
      </trkpt>
      <trkpt lat="47.95352" lon="7.08024">
        <ele>1231</ele>
        <time>2023-05-28T08:31:14Z</time>
      </trkpt>
      <trkpt lat="47.95345" lon="7.08015">
        <ele>1230</ele>
        <time>2023-05-28T08:31:29Z</time>
      </trkpt>
      <trkpt lat="47.95339" lon="7.08005">
        <ele>1228</ele>
        <time>2023-05-28T08:31:40Z</time>
      </trkpt>
      <trkpt lat="47.95332" lon="7.07995">
        <ele>1226</ele>
        <time>2023-05-28T08:31:51Z</time>
      </trkpt>
      <trkpt lat="47.95326" lon="7.07984">
        <ele>1224</ele>
        <time>2023-05-28T08:32:02Z</time>
      </trkpt>
      <trkpt lat="47.9532" lon="7.07974">
        <ele>1224</ele>
        <time>2023-05-28T08:32:10Z</time>
      </trkpt>
      <trkpt lat="47.95313" lon="7.07965">
        <ele>1222</ele>
        <time>2023-05-28T08:32:18Z</time>
      </trkpt>
      <trkpt lat="47.95305" lon="7.07957">
        <ele>1221</ele>
        <time>2023-05-28T08:32:27Z</time>
      </trkpt>
      <trkpt lat="47.95297" lon="7.0795">
        <ele>1220</ele>
        <time>2023-05-28T08:32:37Z</time>
      </trkpt>
      <trkpt lat="47.9529" lon="7.07942">
        <ele>1219</ele>
        <time>2023-05-28T08:32:46Z</time>
      </trkpt>
      <trkpt lat="47.95281" lon="7.07936">
        <ele>1218</ele>
        <time>2023-05-28T08:32:57Z</time>
      </trkpt>
      <trkpt lat="47.95274" lon="7.07927">
        <ele>1217</ele>
        <time>2023-05-28T08:33:09Z</time>
      </trkpt>
      <trkpt lat="47.95266" lon="7.07918">
        <ele>1214</ele>
        <time>2023-05-28T08:33:33Z</time>
      </trkpt>
      <trkpt lat="47.95261" lon="7.07908">
        <ele>1212</ele>
        <time>2023-05-28T08:34:38Z</time>
      </trkpt>
      <trkpt lat="47.95252" lon="7.07902">
        <ele>1212</ele>
        <time>2023-05-28T08:34:57Z</time>
      </trkpt>
      <trkpt lat="47.95244" lon="7.07894">
        <ele>1211</ele>
        <time>2023-05-28T08:35:13Z</time>
      </trkpt>
      <trkpt lat="47.95237" lon="7.07885">
        <ele>1210</ele>
        <time>2023-05-28T08:35:24Z</time>
      </trkpt>
      <trkpt lat="47.95231" lon="7.07876">
        <ele>1209</ele>
        <time>2023-05-28T08:35:34Z</time>
      </trkpt>
      <trkpt lat="47.95224" lon="7.07866">
        <ele>1208</ele>
        <time>2023-05-28T08:35:42Z</time>
      </trkpt>
      <trkpt lat="47.95217" lon="7.07857">
        <ele>1207</ele>
        <time>2023-05-28T08:35:51Z</time>
      </trkpt>
      <trkpt lat="47.95212" lon="7.07846">
        <ele>1206</ele>
        <time>2023-05-28T08:36:01Z</time>
      </trkpt>
      <trkpt lat="47.95209" lon="7.07832">
        <ele>1206</ele>
        <time>2023-05-28T08:36:10Z</time>
      </trkpt>
      <trkpt lat="47.95208" lon="7.07819">
        <ele>1205</ele>
        <time>2023-05-28T08:36:20Z</time>
      </trkpt>
      <trkpt lat="47.95207" lon="7.07804">
        <ele>1205</ele>
        <time>2023-05-28T08:36:28Z</time>
      </trkpt>
      <trkpt lat="47.95205" lon="7.0779">
        <ele>1205</ele>
        <time>2023-05-28T08:36:37Z</time>
      </trkpt>
      <trkpt lat="47.95205" lon="7.07776">
        <ele>1204</ele>
        <time>2023-05-28T08:36:46Z</time>
      </trkpt>
      <trkpt lat="47.95204" lon="7.07762">
        <ele>1204</ele>
        <time>2023-05-28T08:36:54Z</time>
      </trkpt>
      <trkpt lat="47.95204" lon="7.07748">
        <ele>1205</ele>
        <time>2023-05-28T08:37:05Z</time>
      </trkpt>
      <trkpt lat="47.95204" lon="7.07735">
        <ele>1205</ele>
        <time>2023-05-28T08:37:16Z</time>
      </trkpt>
      <trkpt lat="47.95205" lon="7.0772">
        <ele>1205</ele>
        <time>2023-05-28T08:37:25Z</time>
      </trkpt>
      <trkpt lat="47.95204" lon="7.07707">
        <ele>1206</ele>
        <time>2023-05-28T08:37:36Z</time>
      </trkpt>
      <trkpt lat="47.95204" lon="7.07692">
        <ele>1206</ele>
        <time>2023-05-28T08:37:48Z</time>
      </trkpt>
      <trkpt lat="47.95206" lon="7.07679">
        <ele>1207</ele>
        <time>2023-05-28T08:37:58Z</time>
      </trkpt>
      <trkpt lat="47.95206" lon="7.07664">
        <ele>1207</ele>
        <time>2023-05-28T08:38:09Z</time>
      </trkpt>
      <trkpt lat="47.95204" lon="7.0765">
        <ele>1207</ele>
        <time>2023-05-28T08:38:19Z</time>
      </trkpt>
      <trkpt lat="47.95203" lon="7.07635">
        <ele>1208</ele>
        <time>2023-05-28T08:38:29Z</time>
      </trkpt>
      <trkpt lat="47.95203" lon="7.07621">
        <ele>1208</ele>
        <time>2023-05-28T08:38:40Z</time>
      </trkpt>
      <trkpt lat="47.95202" lon="7.07607">
        <ele>1209</ele>
        <time>2023-05-28T08:38:50Z</time>
      </trkpt>
      <trkpt lat="47.952" lon="7.07593">
        <ele>1209</ele>
        <time>2023-05-28T08:38:59Z</time>
      </trkpt>
      <trkpt lat="47.95199" lon="7.0758">
        <ele>1210</ele>
        <time>2023-05-28T08:39:09Z</time>
      </trkpt>
      <trkpt lat="47.95199" lon="7.07566">
        <ele>1211</ele>
        <time>2023-05-28T08:39:20Z</time>
      </trkpt>
      <trkpt lat="47.95197" lon="7.07553">
        <ele>1211</ele>
        <time>2023-05-28T08:39:31Z</time>
      </trkpt>
      <trkpt lat="47.95197" lon="7.07539">
        <ele>1212</ele>
        <time>2023-05-28T08:39:40Z</time>
      </trkpt>
      <trkpt lat="47.95196" lon="7.07525">
        <ele>1213</ele>
        <time>2023-05-28T08:39:51Z</time>
      </trkpt>
      <trkpt lat="47.95196" lon="7.07511">
        <ele>1213</ele>
        <time>2023-05-28T08:40:01Z</time>
      </trkpt>
      <trkpt lat="47.95193" lon="7.07497">
        <ele>1214</ele>
        <time>2023-05-28T08:40:11Z</time>
      </trkpt>
      <trkpt lat="47.95188" lon="7.07485">
        <ele>1215</ele>
        <time>2023-05-28T08:40:20Z</time>
      </trkpt>
      <trkpt lat="47.95182" lon="7.07473">
        <ele>1215</ele>
        <time>2023-05-28T08:40:30Z</time>
      </trkpt>
      <trkpt lat="47.95179" lon="7.07461">
        <ele>1215</ele>
        <time>2023-05-28T08:40:41Z</time>
      </trkpt>
      <trkpt lat="47.95173" lon="7.0745">
        <ele>1215</ele>
        <time>2023-05-28T08:40:51Z</time>
      </trkpt>
      <trkpt lat="47.95167" lon="7.07438">
        <ele>1215</ele>
        <time>2023-05-28T08:41:00Z</time>
      </trkpt>
      <trkpt lat="47.95163" lon="7.07427">
        <ele>1214</ele>
        <time>2023-05-28T08:41:11Z</time>
      </trkpt>
      <trkpt lat="47.95158" lon="7.07415">
        <ele>1214</ele>
        <time>2023-05-28T08:41:22Z</time>
      </trkpt>
      <trkpt lat="47.95155" lon="7.07402">
        <ele>1214</ele>
        <time>2023-05-28T08:41:30Z</time>
      </trkpt>
      <trkpt lat="47.95151" lon="7.07388">
        <ele>1213</ele>
        <time>2023-05-28T08:41:38Z</time>
      </trkpt>
      <trkpt lat="47.95147" lon="7.07375">
        <ele>1213</ele>
        <time>2023-05-28T08:41:46Z</time>
      </trkpt>
      <trkpt lat="47.95141" lon="7.07364">
        <ele>1213</ele>
        <time>2023-05-28T08:41:55Z</time>
      </trkpt>
      <trkpt lat="47.95134" lon="7.07354">
        <ele>1212</ele>
        <time>2023-05-28T08:42:06Z</time>
      </trkpt>
      <trkpt lat="47.95126" lon="7.07346">
        <ele>1212</ele>
        <time>2023-05-28T08:42:16Z</time>
      </trkpt>
      <trkpt lat="47.95118" lon="7.07338">
        <ele>1212</ele>
        <time>2023-05-28T08:42:26Z</time>
      </trkpt>
      <trkpt lat="47.95108" lon="7.07335">
        <ele>1212</ele>
        <time>2023-05-28T08:42:36Z</time>
      </trkpt>
      <trkpt lat="47.95099" lon="7.07331">
        <ele>1212</ele>
        <time>2023-05-28T08:42:46Z</time>
      </trkpt>
      <trkpt lat="47.95089" lon="7.07328">
        <ele>1212</ele>
        <time>2023-05-28T08:42:58Z</time>
      </trkpt>
      <trkpt lat="47.9508" lon="7.07325">
        <ele>1213</ele>
        <time>2023-05-28T08:43:08Z</time>
      </trkpt>
      <trkpt lat="47.95071" lon="7.07322">
        <ele>1213</ele>
        <time>2023-05-28T08:43:16Z</time>
      </trkpt>
      <trkpt lat="47.95062" lon="7.07319">
        <ele>1212</ele>
        <time>2023-05-28T08:43:26Z</time>
      </trkpt>
      <trkpt lat="47.95052" lon="7.07315">
        <ele>1212</ele>
        <time>2023-05-28T08:43:37Z</time>
      </trkpt>
      <trkpt lat="47.95045" lon="7.07308">
        <ele>1212</ele>
        <time>2023-05-28T08:43:47Z</time>
      </trkpt>
      <trkpt lat="47.95036" lon="7.07302">
        <ele>1211</ele>
        <time>2023-05-28T08:43:57Z</time>
      </trkpt>
      <trkpt lat="47.95028" lon="7.07297">
        <ele>1210</ele>
        <time>2023-05-28T08:44:06Z</time>
      </trkpt>
      <trkpt lat="47.95019" lon="7.07292">
        <ele>1210</ele>
        <time>2023-05-28T08:44:17Z</time>
      </trkpt>
      <trkpt lat="47.95011" lon="7.07283">
        <ele>1209</ele>
        <time>2023-05-28T08:44:26Z</time>
      </trkpt>
      <trkpt lat="47.95004" lon="7.07274">
        <ele>1209</ele>
        <time>2023-05-28T08:44:35Z</time>
      </trkpt>
      <trkpt lat="47.94997" lon="7.07263">
        <ele>1208</ele>
        <time>2023-05-28T08:44:44Z</time>
      </trkpt>
      <trkpt lat="47.94989" lon="7.07255">
        <ele>1208</ele>
        <time>2023-05-28T08:44:54Z</time>
      </trkpt>
      <trkpt lat="47.94981" lon="7.0725">
        <ele>1207</ele>
        <time>2023-05-28T08:45:03Z</time>
      </trkpt>
      <trkpt lat="47.94973" lon="7.07241">
        <ele>1207</ele>
        <time>2023-05-28T08:45:12Z</time>
      </trkpt>
      <trkpt lat="47.94968" lon="7.0723">
        <ele>1206</ele>
        <time>2023-05-28T08:45:21Z</time>
      </trkpt>
      <trkpt lat="47.94962" lon="7.0722">
        <ele>1206</ele>
        <time>2023-05-28T08:45:30Z</time>
      </trkpt>
      <trkpt lat="47.94956" lon="7.0721">
        <ele>1205</ele>
        <time>2023-05-28T08:45:39Z</time>
      </trkpt>
      <trkpt lat="47.9495" lon="7.072">
        <ele>1205</ele>
        <time>2023-05-28T08:45:48Z</time>
      </trkpt>
      <trkpt lat="47.94944" lon="7.07188">
        <ele>1204</ele>
        <time>2023-05-28T08:45:56Z</time>
      </trkpt>
      <trkpt lat="47.94939" lon="7.07176">
        <ele>1204</ele>
        <time>2023-05-28T08:46:05Z</time>
      </trkpt>
      <trkpt lat="47.94933" lon="7.07164">
        <ele>1203</ele>
        <time>2023-05-28T08:46:15Z</time>
      </trkpt>
      <trkpt lat="47.94928" lon="7.07153">
        <ele>1203</ele>
        <time>2023-05-28T08:46:24Z</time>
      </trkpt>
      <trkpt lat="47.94923" lon="7.07141">
        <ele>1202</ele>
        <time>2023-05-28T08:46:34Z</time>
      </trkpt>
      <trkpt lat="47.94918" lon="7.07129">
        <ele>1202</ele>
        <time>2023-05-28T08:46:43Z</time>
      </trkpt>
      <trkpt lat="47.94913" lon="7.07117">
        <ele>1202</ele>
        <time>2023-05-28T08:46:52Z</time>
      </trkpt>
      <trkpt lat="47.9491" lon="7.07103">
        <ele>1201</ele>
        <time>2023-05-28T08:47:01Z</time>
      </trkpt>
      <trkpt lat="47.94908" lon="7.07089">
        <ele>1201</ele>
        <time>2023-05-28T08:47:10Z</time>
      </trkpt>
      <trkpt lat="47.94907" lon="7.07075">
        <ele>1201</ele>
        <time>2023-05-28T08:47:19Z</time>
      </trkpt>
      <trkpt lat="47.94905" lon="7.07062">
        <ele>1201</ele>
        <time>2023-05-28T08:47:28Z</time>
      </trkpt>
      <trkpt lat="47.94905" lon="7.07047">
        <ele>1200</ele>
        <time>2023-05-28T08:47:37Z</time>
      </trkpt>
      <trkpt lat="47.94904" lon="7.07033">
        <ele>1200</ele>
        <time>2023-05-28T08:47:46Z</time>
      </trkpt>
      <trkpt lat="47.94906" lon="7.07019">
        <ele>1200</ele>
        <time>2023-05-28T08:47:56Z</time>
      </trkpt>
      <trkpt lat="47.94907" lon="7.07006">
        <ele>1200</ele>
        <time>2023-05-28T08:48:04Z</time>
      </trkpt>
      <trkpt lat="47.94909" lon="7.06992">
        <ele>1199</ele>
        <time>2023-05-28T08:48:12Z</time>
      </trkpt>
      <trkpt lat="47.94913" lon="7.06979">
        <ele>1199</ele>
        <time>2023-05-28T08:48:21Z</time>
      </trkpt>
      <trkpt lat="47.94917" lon="7.06966">
        <ele>1199</ele>
        <time>2023-05-28T08:48:30Z</time>
      </trkpt>
      <trkpt lat="47.94922" lon="7.06955">
        <ele>1198</ele>
        <time>2023-05-28T08:48:39Z</time>
      </trkpt>
      <trkpt lat="47.94927" lon="7.06943">
        <ele>1198</ele>
        <time>2023-05-28T08:48:49Z</time>
      </trkpt>
      <trkpt lat="47.9493" lon="7.0693">
        <ele>1198</ele>
        <time>2023-05-28T08:48:57Z</time>
      </trkpt>
      <trkpt lat="47.94935" lon="7.06918">
        <ele>1198</ele>
        <time>2023-05-28T08:49:05Z</time>
      </trkpt>
      <trkpt lat="47.94939" lon="7.06905">
        <ele>1197</ele>
        <time>2023-05-28T08:49:14Z</time>
      </trkpt>
      <trkpt lat="47.94944" lon="7.06894">
        <ele>1197</ele>
        <time>2023-05-28T08:49:25Z</time>
      </trkpt>
      <trkpt lat="47.94949" lon="7.06881">
        <ele>1197</ele>
        <time>2023-05-28T08:49:35Z</time>
      </trkpt>
      <trkpt lat="47.94952" lon="7.06869">
        <ele>1196</ele>
        <time>2023-05-28T08:49:45Z</time>
      </trkpt>
      <trkpt lat="47.94956" lon="7.06856">
        <ele>1196</ele>
        <time>2023-05-28T08:49:56Z</time>
      </trkpt>
      <trkpt lat="47.94961" lon="7.06844">
        <ele>1195</ele>
        <time>2023-05-28T08:50:07Z</time>
      </trkpt>
      <trkpt lat="47.94965" lon="7.06831">
        <ele>1195</ele>
        <time>2023-05-28T08:50:15Z</time>
      </trkpt>
      <trkpt lat="47.94969" lon="7.06819">
        <ele>1195</ele>
        <time>2023-05-28T08:50:24Z</time>
      </trkpt>
      <trkpt lat="47.94973" lon="7.06806">
        <ele>1195</ele>
        <time>2023-05-28T08:50:35Z</time>
      </trkpt>
      <trkpt lat="47.94978" lon="7.06794">
        <ele>1194</ele>
        <time>2023-05-28T08:50:44Z</time>
      </trkpt>
      <trkpt lat="47.94981" lon="7.06781">
        <ele>1194</ele>
        <time>2023-05-28T08:50:53Z</time>
      </trkpt>
      <trkpt lat="47.94986" lon="7.06769">
        <ele>1194</ele>
        <time>2023-05-28T08:51:02Z</time>
      </trkpt>
      <trkpt lat="47.94988" lon="7.06755">
        <ele>1193</ele>
        <time>2023-05-28T08:51:12Z</time>
      </trkpt>
      <trkpt lat="47.94987" lon="7.06741">
        <ele>1193</ele>
        <time>2023-05-28T08:51:22Z</time>
      </trkpt>
      <trkpt lat="47.9499" lon="7.06727">
        <ele>1192</ele>
        <time>2023-05-28T08:51:32Z</time>
      </trkpt>
      <trkpt lat="47.94992" lon="7.06713">
        <ele>1192</ele>
        <time>2023-05-28T08:51:41Z</time>
      </trkpt>
      <trkpt lat="47.94995" lon="7.067">
        <ele>1191</ele>
        <time>2023-05-28T08:51:55Z</time>
      </trkpt>
      <trkpt lat="47.94999" lon="7.06687">
        <ele>1191</ele>
        <time>2023-05-28T08:52:06Z</time>
      </trkpt>
      <trkpt lat="47.95001" lon="7.06673">
        <ele>1191</ele>
        <time>2023-05-28T08:52:15Z</time>
      </trkpt>
      <trkpt lat="47.95005" lon="7.0666">
        <ele>1190</ele>
        <time>2023-05-28T08:52:26Z</time>
      </trkpt>
      <trkpt lat="47.95007" lon="7.06646">
        <ele>1190</ele>
        <time>2023-05-28T08:52:35Z</time>
      </trkpt>
      <trkpt lat="47.95008" lon="7.06633">
        <ele>1190</ele>
        <time>2023-05-28T08:52:44Z</time>
      </trkpt>
      <trkpt lat="47.95009" lon="7.06619">
        <ele>1190</ele>
        <time>2023-05-28T08:52:54Z</time>
      </trkpt>
      <trkpt lat="47.9501" lon="7.06604">
        <ele>1189</ele>
        <time>2023-05-28T08:53:04Z</time>
      </trkpt>
      <trkpt lat="47.95012" lon="7.06591">
        <ele>1189</ele>
        <time>2023-05-28T08:53:14Z</time>
      </trkpt>
      <trkpt lat="47.95014" lon="7.06577">
        <ele>1189</ele>
        <time>2023-05-28T08:53:24Z</time>
      </trkpt>
      <trkpt lat="47.95016" lon="7.06564">
        <ele>1189</ele>
        <time>2023-05-28T08:53:33Z</time>
      </trkpt>
      <trkpt lat="47.95017" lon="7.0655">
        <ele>1188</ele>
        <time>2023-05-28T08:53:42Z</time>
      </trkpt>
      <trkpt lat="47.95021" lon="7.0654">
        <ele>1187</ele>
        <time>2023-05-28T08:57:58Z</time>
      </trkpt>
      <trkpt lat="47.95023" lon="7.06526">
        <ele>1187</ele>
        <time>2023-05-28T08:58:10Z</time>
      </trkpt>
      <trkpt lat="47.95023" lon="7.06512">
        <ele>1187</ele>
        <time>2023-05-28T08:58:19Z</time>
      </trkpt>
      <trkpt lat="47.95024" lon="7.06498">
        <ele>1187</ele>
        <time>2023-05-28T08:58:26Z</time>
      </trkpt>
      <trkpt lat="47.95024" lon="7.06483">
        <ele>1187</ele>
        <time>2023-05-28T08:58:43Z</time>
      </trkpt>
      <trkpt lat="47.95025" lon="7.06475">
        <ele>1187</ele>
        <time>2023-05-28T08:59:05Z</time>
      </trkpt>
      <trkpt lat="47.95018" lon="7.06466">
        <ele>1188</ele>
        <time>2023-05-28T08:59:17Z</time>
      </trkpt>
      <trkpt lat="47.95012" lon="7.06455">
        <ele>1188</ele>
        <time>2023-05-28T08:59:29Z</time>
      </trkpt>
      <trkpt lat="47.95007" lon="7.06443">
        <ele>1188</ele>
        <time>2023-05-28T08:59:39Z</time>
      </trkpt>
      <trkpt lat="47.95002" lon="7.06431">
        <ele>1189</ele>
        <time>2023-05-28T08:59:50Z</time>
      </trkpt>
      <trkpt lat="47.94995" lon="7.06422">
        <ele>1189</ele>
        <time>2023-05-28T09:00:01Z</time>
      </trkpt>
      <trkpt lat="47.94989" lon="7.0641">
        <ele>1189</ele>
        <time>2023-05-28T09:00:10Z</time>
      </trkpt>
      <trkpt lat="47.94985" lon="7.06397">
        <ele>1189</ele>
        <time>2023-05-28T09:00:18Z</time>
      </trkpt>
      <trkpt lat="47.94981" lon="7.06384">
        <ele>1190</ele>
        <time>2023-05-28T09:00:27Z</time>
      </trkpt>
      <trkpt lat="47.94976" lon="7.06373">
        <ele>1190</ele>
        <time>2023-05-28T09:00:36Z</time>
      </trkpt>
      <trkpt lat="47.9497" lon="7.06362">
        <ele>1191</ele>
        <time>2023-05-28T09:00:45Z</time>
      </trkpt>
      <trkpt lat="47.94964" lon="7.06351">
        <ele>1192</ele>
        <time>2023-05-28T09:00:56Z</time>
      </trkpt>
      <trkpt lat="47.94957" lon="7.06341">
        <ele>1192</ele>
        <time>2023-05-28T09:01:06Z</time>
      </trkpt>
      <trkpt lat="47.94949" lon="7.06334">
        <ele>1193</ele>
        <time>2023-05-28T09:01:18Z</time>
      </trkpt>
      <trkpt lat="47.9494" lon="7.0633">
        <ele>1194</ele>
        <time>2023-05-28T09:01:30Z</time>
      </trkpt>
      <trkpt lat="47.9493" lon="7.06326">
        <ele>1195</ele>
        <time>2023-05-28T09:01:40Z</time>
      </trkpt>
      <trkpt lat="47.94922" lon="7.06323">
        <ele>1195</ele>
        <time>2023-05-28T09:01:49Z</time>
      </trkpt>
      <trkpt lat="47.94914" lon="7.06314">
        <ele>1195</ele>
        <time>2023-05-28T09:01:59Z</time>
      </trkpt>
      <trkpt lat="47.94907" lon="7.06306">
        <ele>1196</ele>
        <time>2023-05-28T09:02:07Z</time>
      </trkpt>
      <trkpt lat="47.949" lon="7.06298">
        <ele>1196</ele>
        <time>2023-05-28T09:02:16Z</time>
      </trkpt>
      <trkpt lat="47.94893" lon="7.06288">
        <ele>1197</ele>
        <time>2023-05-28T09:02:26Z</time>
      </trkpt>
      <trkpt lat="47.94886" lon="7.0628">
        <ele>1197</ele>
        <time>2023-05-28T09:02:36Z</time>
      </trkpt>
      <trkpt lat="47.94878" lon="7.06272">
        <ele>1198</ele>
        <time>2023-05-28T09:02:46Z</time>
      </trkpt>
      <trkpt lat="47.94871" lon="7.06262">
        <ele>1198</ele>
        <time>2023-05-28T09:02:56Z</time>
      </trkpt>
      <trkpt lat="47.94864" lon="7.06253">
        <ele>1199</ele>
        <time>2023-05-28T09:03:05Z</time>
      </trkpt>
      <trkpt lat="47.94858" lon="7.06242">
        <ele>1199</ele>
        <time>2023-05-28T09:03:14Z</time>
      </trkpt>
      <trkpt lat="47.94852" lon="7.06231">
        <ele>1199</ele>
        <time>2023-05-28T09:03:24Z</time>
      </trkpt>
      <trkpt lat="47.94845" lon="7.0622">
        <ele>1199</ele>
        <time>2023-05-28T09:03:34Z</time>
      </trkpt>
      <trkpt lat="47.94837" lon="7.06211">
        <ele>1200</ele>
        <time>2023-05-28T09:03:43Z</time>
      </trkpt>
      <trkpt lat="47.94831" lon="7.06201">
        <ele>1200</ele>
        <time>2023-05-28T09:03:52Z</time>
      </trkpt>
      <trkpt lat="47.94826" lon="7.06189">
        <ele>1200</ele>
        <time>2023-05-28T09:04:01Z</time>
      </trkpt>
      <trkpt lat="47.94822" lon="7.06176">
        <ele>1200</ele>
        <time>2023-05-28T09:04:11Z</time>
      </trkpt>
      <trkpt lat="47.94819" lon="7.06162">
        <ele>1201</ele>
        <time>2023-05-28T09:04:21Z</time>
      </trkpt>
      <trkpt lat="47.94816" lon="7.06149">
        <ele>1201</ele>
        <time>2023-05-28T09:04:30Z</time>
      </trkpt>
      <trkpt lat="47.94815" lon="7.06135">
        <ele>1201</ele>
        <time>2023-05-28T09:04:39Z</time>
      </trkpt>
      <trkpt lat="47.94813" lon="7.06121">
        <ele>1202</ele>
        <time>2023-05-28T09:04:48Z</time>
      </trkpt>
      <trkpt lat="47.9481" lon="7.06108">
        <ele>1202</ele>
        <time>2023-05-28T09:04:57Z</time>
      </trkpt>
      <trkpt lat="47.94807" lon="7.06095">
        <ele>1202</ele>
        <time>2023-05-28T09:05:07Z</time>
      </trkpt>
      <trkpt lat="47.94807" lon="7.0608">
        <ele>1203</ele>
        <time>2023-05-28T09:05:16Z</time>
      </trkpt>
      <trkpt lat="47.94805" lon="7.06066">
        <ele>1203</ele>
        <time>2023-05-28T09:05:27Z</time>
      </trkpt>
      <trkpt lat="47.94804" lon="7.06052">
        <ele>1203</ele>
        <time>2023-05-28T09:05:36Z</time>
      </trkpt>
      <trkpt lat="47.94803" lon="7.06038">
        <ele>1203</ele>
        <time>2023-05-28T09:05:45Z</time>
      </trkpt>
      <trkpt lat="47.94803" lon="7.06023">
        <ele>1203</ele>
        <time>2023-05-28T09:05:54Z</time>
      </trkpt>
      <trkpt lat="47.94803" lon="7.06009">
        <ele>1204</ele>
        <time>2023-05-28T09:06:04Z</time>
      </trkpt>
      <trkpt lat="47.94802" lon="7.05995">
        <ele>1204</ele>
        <time>2023-05-28T09:06:13Z</time>
      </trkpt>
      <trkpt lat="47.94802" lon="7.05981">
        <ele>1204</ele>
        <time>2023-05-28T09:06:22Z</time>
      </trkpt>
      <trkpt lat="47.94802" lon="7.05967">
        <ele>1204</ele>
        <time>2023-05-28T09:06:31Z</time>
      </trkpt>
      <trkpt lat="47.94802" lon="7.05953">
        <ele>1205</ele>
        <time>2023-05-28T09:06:41Z</time>
      </trkpt>
      <trkpt lat="47.94803" lon="7.05938">
        <ele>1205</ele>
        <time>2023-05-28T09:06:50Z</time>
      </trkpt>
      <trkpt lat="47.94802" lon="7.05925">
        <ele>1205</ele>
        <time>2023-05-28T09:07:01Z</time>
      </trkpt>
      <trkpt lat="47.94801" lon="7.05912">
        <ele>1206</ele>
        <time>2023-05-28T09:07:12Z</time>
      </trkpt>
      <trkpt lat="47.94801" lon="7.05898">
        <ele>1207</ele>
        <time>2023-05-28T09:07:20Z</time>
      </trkpt>
      <trkpt lat="47.94801" lon="7.05883">
        <ele>1207</ele>
        <time>2023-05-28T09:07:29Z</time>
      </trkpt>
      <trkpt lat="47.94801" lon="7.05869">
        <ele>1207</ele>
        <time>2023-05-28T09:07:39Z</time>
      </trkpt>
      <trkpt lat="47.948" lon="7.05855">
        <ele>1208</ele>
        <time>2023-05-28T09:07:50Z</time>
      </trkpt>
      <trkpt lat="47.948" lon="7.0584">
        <ele>1208</ele>
        <time>2023-05-28T09:08:02Z</time>
      </trkpt>
      <trkpt lat="47.94799" lon="7.05827">
        <ele>1209</ele>
        <time>2023-05-28T09:08:12Z</time>
      </trkpt>
      <trkpt lat="47.94799" lon="7.05813">
        <ele>1209</ele>
        <time>2023-05-28T09:08:21Z</time>
      </trkpt>
      <trkpt lat="47.94799" lon="7.05798">
        <ele>1210</ele>
        <time>2023-05-28T09:08:31Z</time>
      </trkpt>
      <trkpt lat="47.94798" lon="7.05784">
        <ele>1210</ele>
        <time>2023-05-28T09:08:40Z</time>
      </trkpt>
      <trkpt lat="47.94799" lon="7.05771">
        <ele>1210</ele>
        <time>2023-05-28T09:08:49Z</time>
      </trkpt>
      <trkpt lat="47.94799" lon="7.05757">
        <ele>1211</ele>
        <time>2023-05-28T09:08:58Z</time>
      </trkpt>
      <trkpt lat="47.94802" lon="7.05743">
        <ele>1211</ele>
        <time>2023-05-28T09:09:10Z</time>
      </trkpt>
      <trkpt lat="47.94801" lon="7.05729">
        <ele>1211</ele>
        <time>2023-05-28T09:09:20Z</time>
      </trkpt>
      <trkpt lat="47.948" lon="7.05715">
        <ele>1212</ele>
        <time>2023-05-28T09:09:32Z</time>
      </trkpt>
      <trkpt lat="47.94796" lon="7.05702">
        <ele>1212</ele>
        <time>2023-05-28T09:09:44Z</time>
      </trkpt>
      <trkpt lat="47.94796" lon="7.05689">
        <ele>1212</ele>
        <time>2023-05-28T09:09:55Z</time>
      </trkpt>
      <trkpt lat="47.94794" lon="7.05675">
        <ele>1212</ele>
        <time>2023-05-28T09:10:04Z</time>
      </trkpt>
      <trkpt lat="47.94792" lon="7.05661">
        <ele>1213</ele>
        <time>2023-05-28T09:10:12Z</time>
      </trkpt>
      <trkpt lat="47.94787" lon="7.0565">
        <ele>1213</ele>
        <time>2023-05-28T09:10:22Z</time>
      </trkpt>
      <trkpt lat="47.9478" lon="7.05641">
        <ele>1213</ele>
        <time>2023-05-28T09:10:31Z</time>
      </trkpt>
      <trkpt lat="47.94771" lon="7.05635">
        <ele>1213</ele>
        <time>2023-05-28T09:10:41Z</time>
      </trkpt>
      <trkpt lat="47.94762" lon="7.05629">
        <ele>1213</ele>
        <time>2023-05-28T09:10:51Z</time>
      </trkpt>
      <trkpt lat="47.94754" lon="7.05622">
        <ele>1213</ele>
        <time>2023-05-28T09:11:01Z</time>
      </trkpt>
      <trkpt lat="47.94745" lon="7.05617">
        <ele>1213</ele>
        <time>2023-05-28T09:11:11Z</time>
      </trkpt>
      <trkpt lat="47.94736" lon="7.05613">
        <ele>1213</ele>
        <time>2023-05-28T09:11:20Z</time>
      </trkpt>
      <trkpt lat="47.94727" lon="7.05609">
        <ele>1213</ele>
        <time>2023-05-28T09:11:29Z</time>
      </trkpt>
      <trkpt lat="47.94718" lon="7.05601">
        <ele>1212</ele>
        <time>2023-05-28T09:11:38Z</time>
      </trkpt>
      <trkpt lat="47.9471" lon="7.05593">
        <ele>1212</ele>
        <time>2023-05-28T09:11:47Z</time>
      </trkpt>
      <trkpt lat="47.94702" lon="7.05587">
        <ele>1212</ele>
        <time>2023-05-28T09:11:57Z</time>
      </trkpt>
      <trkpt lat="47.94693" lon="7.05581">
        <ele>1212</ele>
        <time>2023-05-28T09:12:07Z</time>
      </trkpt>
      <trkpt lat="47.94684" lon="7.05579">
        <ele>1211</ele>
        <time>2023-05-28T09:12:16Z</time>
      </trkpt>
      <trkpt lat="47.94674" lon="7.05574">
        <ele>1211</ele>
        <time>2023-05-28T09:12:25Z</time>
      </trkpt>
      <trkpt lat="47.94666" lon="7.05569">
        <ele>1211</ele>
        <time>2023-05-28T09:12:33Z</time>
      </trkpt>
      <trkpt lat="47.94657" lon="7.05568">
        <ele>1211</ele>
        <time>2023-05-28T09:12:42Z</time>
      </trkpt>
      <trkpt lat="47.94648" lon="7.05561">
        <ele>1211</ele>
        <time>2023-05-28T09:12:52Z</time>
      </trkpt>
      <trkpt lat="47.9464" lon="7.05553">
        <ele>1212</ele>
        <time>2023-05-28T09:13:01Z</time>
      </trkpt>
      <trkpt lat="47.94632" lon="7.05545">
        <ele>1212</ele>
        <time>2023-05-28T09:13:10Z</time>
      </trkpt>
      <trkpt lat="47.94624" lon="7.05538">
        <ele>1212</ele>
        <time>2023-05-28T09:13:20Z</time>
      </trkpt>
      <trkpt lat="47.94615" lon="7.05533">
        <ele>1213</ele>
        <time>2023-05-28T09:13:30Z</time>
      </trkpt>
      <trkpt lat="47.94606" lon="7.05527">
        <ele>1213</ele>
        <time>2023-05-28T09:13:40Z</time>
      </trkpt>
      <trkpt lat="47.94597" lon="7.05522">
        <ele>1214</ele>
        <time>2023-05-28T09:13:50Z</time>
      </trkpt>
      <trkpt lat="47.94588" lon="7.0552">
        <ele>1214</ele>
        <time>2023-05-28T09:13:59Z</time>
      </trkpt>
      <trkpt lat="47.94579" lon="7.05519">
        <ele>1215</ele>
        <time>2023-05-28T09:14:08Z</time>
      </trkpt>
      <trkpt lat="47.94569" lon="7.0552">
        <ele>1215</ele>
        <time>2023-05-28T09:14:18Z</time>
      </trkpt>
      <trkpt lat="47.94559" lon="7.0552">
        <ele>1216</ele>
        <time>2023-05-28T09:14:27Z</time>
      </trkpt>
      <trkpt lat="47.9455" lon="7.0552">
        <ele>1216</ele>
        <time>2023-05-28T09:14:36Z</time>
      </trkpt>
      <trkpt lat="47.94541" lon="7.0552">
        <ele>1216</ele>
        <time>2023-05-28T09:14:46Z</time>
      </trkpt>
      <trkpt lat="47.94532" lon="7.0552">
        <ele>1217</ele>
        <time>2023-05-28T09:14:55Z</time>
      </trkpt>
      <trkpt lat="47.94522" lon="7.05522">
        <ele>1217</ele>
        <time>2023-05-28T09:15:04Z</time>
      </trkpt>
      <trkpt lat="47.94513" lon="7.05524">
        <ele>1217</ele>
        <time>2023-05-28T09:15:14Z</time>
      </trkpt>
      <trkpt lat="47.94504" lon="7.05528">
        <ele>1217</ele>
        <time>2023-05-28T09:15:23Z</time>
      </trkpt>
      <trkpt lat="47.94494" lon="7.05529">
        <ele>1217</ele>
        <time>2023-05-28T09:15:32Z</time>
      </trkpt>
      <trkpt lat="47.94484" lon="7.05529">
        <ele>1218</ele>
        <time>2023-05-28T09:15:41Z</time>
      </trkpt>
      <trkpt lat="47.94475" lon="7.05524">
        <ele>1218</ele>
        <time>2023-05-28T09:15:49Z</time>
      </trkpt>
      <trkpt lat="47.94469" lon="7.05512">
        <ele>1218</ele>
        <time>2023-05-28T09:15:57Z</time>
      </trkpt>
      <trkpt lat="47.94468" lon="7.05499">
        <ele>1219</ele>
        <time>2023-05-28T09:16:04Z</time>
      </trkpt>
      <trkpt lat="47.9447" lon="7.05485">
        <ele>1219</ele>
        <time>2023-05-28T09:16:13Z</time>
      </trkpt>
      <trkpt lat="47.94474" lon="7.05472">
        <ele>1220</ele>
        <time>2023-05-28T09:16:22Z</time>
      </trkpt>
      <trkpt lat="47.94478" lon="7.05459">
        <ele>1220</ele>
        <time>2023-05-28T09:16:32Z</time>
      </trkpt>
      <trkpt lat="47.94483" lon="7.05447">
        <ele>1221</ele>
        <time>2023-05-28T09:16:41Z</time>
      </trkpt>
      <trkpt lat="47.94487" lon="7.05434">
        <ele>1221</ele>
        <time>2023-05-28T09:16:50Z</time>
      </trkpt>
      <trkpt lat="47.94491" lon="7.05422">
        <ele>1221</ele>
        <time>2023-05-28T09:16:59Z</time>
      </trkpt>
      <trkpt lat="47.94497" lon="7.05411">
        <ele>1221</ele>
        <time>2023-05-28T09:17:07Z</time>
      </trkpt>
      <trkpt lat="47.94501" lon="7.054">
        <ele>1222</ele>
        <time>2023-05-28T09:17:15Z</time>
      </trkpt>
      <trkpt lat="47.94506" lon="7.05387">
        <ele>1222</ele>
        <time>2023-05-28T09:17:24Z</time>
      </trkpt>
      <trkpt lat="47.9451" lon="7.05374">
        <ele>1222</ele>
        <time>2023-05-28T09:17:34Z</time>
      </trkpt>
      <trkpt lat="47.94515" lon="7.05362">
        <ele>1222</ele>
        <time>2023-05-28T09:17:43Z</time>
      </trkpt>
      <trkpt lat="47.94519" lon="7.05349">
        <ele>1223</ele>
        <time>2023-05-28T09:17:53Z</time>
      </trkpt>
      <trkpt lat="47.94524" lon="7.05337">
        <ele>1223</ele>
        <time>2023-05-28T09:18:02Z</time>
      </trkpt>
      <trkpt lat="47.94528" lon="7.05325">
        <ele>1223</ele>
        <time>2023-05-28T09:18:11Z</time>
      </trkpt>
      <trkpt lat="47.94532" lon="7.05313">
        <ele>1223</ele>
        <time>2023-05-28T09:18:21Z</time>
      </trkpt>
      <trkpt lat="47.94536" lon="7.05299">
        <ele>1223</ele>
        <time>2023-05-28T09:18:30Z</time>
      </trkpt>
      <trkpt lat="47.9454" lon="7.05286">
        <ele>1223</ele>
        <time>2023-05-28T09:18:39Z</time>
      </trkpt>
      <trkpt lat="47.94543" lon="7.05272">
        <ele>1223</ele>
        <time>2023-05-28T09:18:49Z</time>
      </trkpt>
      <trkpt lat="47.94546" lon="7.05259">
        <ele>1223</ele>
        <time>2023-05-28T09:18:58Z</time>
      </trkpt>
      <trkpt lat="47.94549" lon="7.05245">
        <ele>1223</ele>
        <time>2023-05-28T09:19:07Z</time>
      </trkpt>
      <trkpt lat="47.94551" lon="7.05231">
        <ele>1223</ele>
        <time>2023-05-28T09:19:16Z</time>
      </trkpt>
      <trkpt lat="47.94555" lon="7.05218">
        <ele>1223</ele>
        <time>2023-05-28T09:19:24Z</time>
      </trkpt>
      <trkpt lat="47.94557" lon="7.05204">
        <ele>1223</ele>
        <time>2023-05-28T09:19:33Z</time>
      </trkpt>
      <trkpt lat="47.94559" lon="7.0519">
        <ele>1223</ele>
        <time>2023-05-28T09:19:43Z</time>
      </trkpt>
      <trkpt lat="47.9456" lon="7.05177">
        <ele>1222</ele>
        <time>2023-05-28T09:19:52Z</time>
      </trkpt>
      <trkpt lat="47.94559" lon="7.05162">
        <ele>1222</ele>
        <time>2023-05-28T09:20:00Z</time>
      </trkpt>
      <trkpt lat="47.9456" lon="7.05147">
        <ele>1222</ele>
        <time>2023-05-28T09:20:08Z</time>
      </trkpt>
      <trkpt lat="47.94561" lon="7.05134">
        <ele>1222</ele>
        <time>2023-05-28T09:20:17Z</time>
      </trkpt>
      <trkpt lat="47.94562" lon="7.0512">
        <ele>1221</ele>
        <time>2023-05-28T09:20:28Z</time>
      </trkpt>
      <trkpt lat="47.94561" lon="7.05105">
        <ele>1220</ele>
        <time>2023-05-28T09:20:38Z</time>
      </trkpt>
      <trkpt lat="47.94561" lon="7.05091">
        <ele>1219</ele>
        <time>2023-05-28T09:20:47Z</time>
      </trkpt>
      <trkpt lat="47.94563" lon="7.05077">
        <ele>1219</ele>
        <time>2023-05-28T09:20:56Z</time>
      </trkpt>
      <trkpt lat="47.94562" lon="7.05062">
        <ele>1218</ele>
        <time>2023-05-28T09:21:06Z</time>
      </trkpt>
      <trkpt lat="47.94565" lon="7.05049">
        <ele>1217</ele>
        <time>2023-05-28T09:21:15Z</time>
      </trkpt>
      <trkpt lat="47.94567" lon="7.05035">
        <ele>1217</ele>
        <time>2023-05-28T09:21:24Z</time>
      </trkpt>
      <trkpt lat="47.94567" lon="7.05021">
        <ele>1216</ele>
        <time>2023-05-28T09:21:33Z</time>
      </trkpt>
      <trkpt lat="47.94567" lon="7.05008">
        <ele>1215</ele>
        <time>2023-05-28T09:21:44Z</time>
      </trkpt>
      <trkpt lat="47.94567" lon="7.04994">
        <ele>1214</ele>
        <time>2023-05-28T09:21:52Z</time>
      </trkpt>
      <trkpt lat="47.94566" lon="7.04979">
        <ele>1213</ele>
        <time>2023-05-28T09:22:01Z</time>
      </trkpt>
      <trkpt lat="47.94568" lon="7.04965">
        <ele>1212</ele>
        <time>2023-05-28T09:22:10Z</time>
      </trkpt>
      <trkpt lat="47.94568" lon="7.0495">
        <ele>1212</ele>
        <time>2023-05-28T09:22:19Z</time>
      </trkpt>
      <trkpt lat="47.94569" lon="7.04935">
        <ele>1211</ele>
        <time>2023-05-28T09:22:29Z</time>
      </trkpt>
      <trkpt lat="47.94571" lon="7.04921">
        <ele>1210</ele>
        <time>2023-05-28T09:22:37Z</time>
      </trkpt>
      <trkpt lat="47.94573" lon="7.04906">
        <ele>1209</ele>
        <time>2023-05-28T09:22:46Z</time>
      </trkpt>
      <trkpt lat="47.94575" lon="7.04893">
        <ele>1209</ele>
        <time>2023-05-28T09:22:56Z</time>
      </trkpt>
      <trkpt lat="47.94578" lon="7.0488">
        <ele>1208</ele>
        <time>2023-05-28T09:23:07Z</time>
      </trkpt>
      <trkpt lat="47.9458" lon="7.04866">
        <ele>1208</ele>
        <time>2023-05-28T09:23:15Z</time>
      </trkpt>
      <trkpt lat="47.94582" lon="7.04852">
        <ele>1207</ele>
        <time>2023-05-28T09:23:24Z</time>
      </trkpt>
      <trkpt lat="47.94585" lon="7.04838">
        <ele>1206</ele>
        <time>2023-05-28T09:23:34Z</time>
      </trkpt>
      <trkpt lat="47.94587" lon="7.04824">
        <ele>1205</ele>
        <time>2023-05-28T09:23:43Z</time>
      </trkpt>
      <trkpt lat="47.94591" lon="7.04812">
        <ele>1205</ele>
        <time>2023-05-28T09:23:51Z</time>
      </trkpt>
      <trkpt lat="47.94596" lon="7.04799">
        <ele>1204</ele>
        <time>2023-05-28T09:24:00Z</time>
      </trkpt>
      <trkpt lat="47.94602" lon="7.04788">
        <ele>1204</ele>
        <time>2023-05-28T09:24:08Z</time>
      </trkpt>
      <trkpt lat="47.94606" lon="7.04775">
        <ele>1204</ele>
        <time>2023-05-28T09:24:17Z</time>
      </trkpt>
      <trkpt lat="47.94613" lon="7.04765">
        <ele>1204</ele>
        <time>2023-05-28T09:24:26Z</time>
      </trkpt>
      <trkpt lat="47.94619" lon="7.04754">
        <ele>1204</ele>
        <time>2023-05-28T09:24:35Z</time>
      </trkpt>
      <trkpt lat="47.94625" lon="7.04744">
        <ele>1204</ele>
        <time>2023-05-28T09:24:45Z</time>
      </trkpt>
      <trkpt lat="47.94631" lon="7.04734">
        <ele>1204</ele>
        <time>2023-05-28T09:24:54Z</time>
      </trkpt>
      <trkpt lat="47.94639" lon="7.04723">
        <ele>1203</ele>
        <time>2023-05-28T09:25:03Z</time>
      </trkpt>
      <trkpt lat="47.94645" lon="7.04713">
        <ele>1203</ele>
        <time>2023-05-28T09:25:12Z</time>
      </trkpt>
      <trkpt lat="47.94652" lon="7.04704">
        <ele>1203</ele>
        <time>2023-05-28T09:25:21Z</time>
      </trkpt>
      <trkpt lat="47.94659" lon="7.04695">
        <ele>1203</ele>
        <time>2023-05-28T09:25:30Z</time>
      </trkpt>
      <trkpt lat="47.94666" lon="7.04686">
        <ele>1202</ele>
        <time>2023-05-28T09:25:39Z</time>
      </trkpt>
      <trkpt lat="47.94673" lon="7.04676">
        <ele>1202</ele>
        <time>2023-05-28T09:25:50Z</time>
      </trkpt>
      <trkpt lat="47.94678" lon="7.04664">
        <ele>1201</ele>
        <time>2023-05-28T09:26:39Z</time>
      </trkpt>
      <trkpt lat="47.94686" lon="7.0466">
        <ele>1201</ele>
        <time>2023-05-28T09:26:50Z</time>
      </trkpt>
      <trkpt lat="47.94694" lon="7.0465">
        <ele>1201</ele>
        <time>2023-05-28T09:26:58Z</time>
      </trkpt>
      <trkpt lat="47.94701" lon="7.04642">
        <ele>1201</ele>
        <time>2023-05-28T09:27:06Z</time>
      </trkpt>
      <trkpt lat="47.94709" lon="7.04634">
        <ele>1200</ele>
        <time>2023-05-28T09:27:17Z</time>
      </trkpt>
      <trkpt lat="47.94715" lon="7.04623">
        <ele>1200</ele>
        <time>2023-05-28T09:27:26Z</time>
      </trkpt>
      <trkpt lat="47.94719" lon="7.04611">
        <ele>1200</ele>
        <time>2023-05-28T09:27:35Z</time>
      </trkpt>
      <trkpt lat="47.94726" lon="7.04602">
        <ele>1200</ele>
        <time>2023-05-28T09:27:44Z</time>
      </trkpt>
      <trkpt lat="47.94733" lon="7.04593">
        <ele>1200</ele>
        <time>2023-05-28T09:27:53Z</time>
      </trkpt>
      <trkpt lat="47.9474" lon="7.04584">
        <ele>1199</ele>
        <time>2023-05-28T09:28:02Z</time>
      </trkpt>
      <trkpt lat="47.94746" lon="7.04574">
        <ele>1199</ele>
        <time>2023-05-28T09:28:13Z</time>
      </trkpt>
      <trkpt lat="47.94753" lon="7.04564">
        <ele>1199</ele>
        <time>2023-05-28T09:28:24Z</time>
      </trkpt>
      <trkpt lat="47.94759" lon="7.04554">
        <ele>1199</ele>
        <time>2023-05-28T09:28:45Z</time>
      </trkpt>
      <trkpt lat="47.94765" lon="7.04544">
        <ele>1199</ele>
        <time>2023-05-28T09:28:56Z</time>
      </trkpt>
      <trkpt lat="47.94772" lon="7.04533">
        <ele>1199</ele>
        <time>2023-05-28T09:29:06Z</time>
      </trkpt>
      <trkpt lat="47.94779" lon="7.04523">
        <ele>1200</ele>
        <time>2023-05-28T09:29:21Z</time>
      </trkpt>
      <trkpt lat="47.94787" lon="7.04528">
        <ele>1201</ele>
        <time>2023-05-28T09:30:02Z</time>
      </trkpt>
      <trkpt lat="47.94793" lon="7.04538">
        <ele>1201</ele>
        <time>2023-05-28T09:30:13Z</time>
      </trkpt>
      <trkpt lat="47.948" lon="7.04547">
        <ele>1202</ele>
        <time>2023-05-28T09:30:29Z</time>
      </trkpt>
      <trkpt lat="47.94807" lon="7.04557">
        <ele>1202</ele>
        <time>2023-05-28T09:30:44Z</time>
      </trkpt>
      <trkpt lat="47.94812" lon="7.04567">
        <ele>1203</ele>
        <time>2023-05-28T09:30:58Z</time>
      </trkpt>
      <trkpt lat="47.94811" lon="7.0457">
        <ele>1207</ele>
        <time>2023-05-28T09:36:52Z</time>
      </trkpt>
      <trkpt lat="47.94805" lon="7.0456">
        <ele>1207</ele>
        <time>2023-05-28T09:37:07Z</time>
      </trkpt>
      <trkpt lat="47.94798" lon="7.04552">
        <ele>1206</ele>
        <time>2023-05-28T09:37:19Z</time>
      </trkpt>
      <trkpt lat="47.9479" lon="7.04543">
        <ele>1205</ele>
        <time>2023-05-28T09:37:31Z</time>
      </trkpt>
      <trkpt lat="47.94784" lon="7.04534">
        <ele>1204</ele>
        <time>2023-05-28T09:37:51Z</time>
      </trkpt>
      <trkpt lat="47.94777" lon="7.04524">
        <ele>1202</ele>
        <time>2023-05-28T09:38:45Z</time>
      </trkpt>
      <trkpt lat="47.94774" lon="7.0451">
        <ele>1202</ele>
        <time>2023-05-28T09:38:59Z</time>
      </trkpt>
      <trkpt lat="47.94772" lon="7.04497">
        <ele>1201</ele>
        <time>2023-05-28T09:39:10Z</time>
      </trkpt>
      <trkpt lat="47.94768" lon="7.04484">
        <ele>1200</ele>
        <time>2023-05-28T09:39:23Z</time>
      </trkpt>
      <trkpt lat="47.94764" lon="7.04471">
        <ele>1200</ele>
        <time>2023-05-28T09:39:34Z</time>
      </trkpt>
      <trkpt lat="47.94761" lon="7.04458">
        <ele>1199</ele>
        <time>2023-05-28T09:39:44Z</time>
      </trkpt>
      <trkpt lat="47.94759" lon="7.04444">
        <ele>1198</ele>
        <time>2023-05-28T09:39:53Z</time>
      </trkpt>
      <trkpt lat="47.94756" lon="7.04431">
        <ele>1197</ele>
        <time>2023-05-28T09:40:04Z</time>
      </trkpt>
      <trkpt lat="47.94756" lon="7.04416">
        <ele>1196</ele>
        <time>2023-05-28T09:40:15Z</time>
      </trkpt>
      <trkpt lat="47.94758" lon="7.04403">
        <ele>1196</ele>
        <time>2023-05-28T09:40:23Z</time>
      </trkpt>
      <trkpt lat="47.9476" lon="7.04389">
        <ele>1195</ele>
        <time>2023-05-28T09:40:33Z</time>
      </trkpt>
      <trkpt lat="47.94762" lon="7.04375">
        <ele>1195</ele>
        <time>2023-05-28T09:40:43Z</time>
      </trkpt>
      <trkpt lat="47.94761" lon="7.04361">
        <ele>1195</ele>
        <time>2023-05-28T09:40:54Z</time>
      </trkpt>
      <trkpt lat="47.94763" lon="7.04347">
        <ele>1194</ele>
        <time>2023-05-28T09:41:03Z</time>
      </trkpt>
      <trkpt lat="47.94763" lon="7.04334">
        <ele>1194</ele>
        <time>2023-05-28T09:41:12Z</time>
      </trkpt>
      <trkpt lat="47.94764" lon="7.0432">
        <ele>1194</ele>
        <time>2023-05-28T09:41:22Z</time>
      </trkpt>
      <trkpt lat="47.94764" lon="7.04306">
        <ele>1193</ele>
        <time>2023-05-28T09:41:32Z</time>
      </trkpt>
      <trkpt lat="47.94765" lon="7.04292">
        <ele>1193</ele>
        <time>2023-05-28T09:41:43Z</time>
      </trkpt>
      <trkpt lat="47.94767" lon="7.04278">
        <ele>1193</ele>
        <time>2023-05-28T09:41:54Z</time>
      </trkpt>
      <trkpt lat="47.94769" lon="7.04264">
        <ele>1194</ele>
        <time>2023-05-28T09:42:05Z</time>
      </trkpt>
      <trkpt lat="47.94769" lon="7.0425">
        <ele>1194</ele>
        <time>2023-05-28T09:42:14Z</time>
      </trkpt>
      <trkpt lat="47.94768" lon="7.04236">
        <ele>1194</ele>
        <time>2023-05-28T09:42:23Z</time>
      </trkpt>
      <trkpt lat="47.94768" lon="7.04222">
        <ele>1194</ele>
        <time>2023-05-28T09:42:32Z</time>
      </trkpt>
      <trkpt lat="47.94769" lon="7.04208">
        <ele>1194</ele>
        <time>2023-05-28T09:42:43Z</time>
      </trkpt>
      <trkpt lat="47.9477" lon="7.04193">
        <ele>1194</ele>
        <time>2023-05-28T09:42:52Z</time>
      </trkpt>
      <trkpt lat="47.94772" lon="7.04179">
        <ele>1194</ele>
        <time>2023-05-28T09:43:03Z</time>
      </trkpt>
      <trkpt lat="47.94773" lon="7.04166">
        <ele>1194</ele>
        <time>2023-05-28T09:43:14Z</time>
      </trkpt>
      <trkpt lat="47.9477" lon="7.04153">
        <ele>1193</ele>
        <time>2023-05-28T09:43:23Z</time>
      </trkpt>
      <trkpt lat="47.94768" lon="7.04138">
        <ele>1193</ele>
        <time>2023-05-28T09:43:33Z</time>
      </trkpt>
      <trkpt lat="47.94765" lon="7.04125">
        <ele>1192</ele>
        <time>2023-05-28T09:43:42Z</time>
      </trkpt>
      <trkpt lat="47.94763" lon="7.04111">
        <ele>1191</ele>
        <time>2023-05-28T09:43:52Z</time>
      </trkpt>
      <trkpt lat="47.94761" lon="7.04097">
        <ele>1191</ele>
        <time>2023-05-28T09:44:01Z</time>
      </trkpt>
      <trkpt lat="47.9476" lon="7.04083">
        <ele>1191</ele>
        <time>2023-05-28T09:44:10Z</time>
      </trkpt>
      <trkpt lat="47.94758" lon="7.04069">
        <ele>1190</ele>
        <time>2023-05-28T09:44:21Z</time>
      </trkpt>
      <trkpt lat="47.94753" lon="7.04056">
        <ele>1189</ele>
        <time>2023-05-28T09:44:31Z</time>
      </trkpt>
      <trkpt lat="47.94751" lon="7.04043">
        <ele>1188</ele>
        <time>2023-05-28T09:44:42Z</time>
      </trkpt>
      <trkpt lat="47.94745" lon="7.04033">
        <ele>1187</ele>
        <time>2023-05-28T09:44:54Z</time>
      </trkpt>
      <trkpt lat="47.94739" lon="7.04021">
        <ele>1186</ele>
        <time>2023-05-28T09:45:06Z</time>
      </trkpt>
      <trkpt lat="47.94732" lon="7.04012">
        <ele>1185</ele>
        <time>2023-05-28T09:45:18Z</time>
      </trkpt>
      <trkpt lat="47.94725" lon="7.04003">
        <ele>1184</ele>
        <time>2023-05-28T09:45:30Z</time>
      </trkpt>
      <trkpt lat="47.94719" lon="7.03992">
        <ele>1183</ele>
        <time>2023-05-28T09:45:40Z</time>
      </trkpt>
      <trkpt lat="47.94714" lon="7.0398">
        <ele>1182</ele>
        <time>2023-05-28T09:45:50Z</time>
      </trkpt>
      <trkpt lat="47.94708" lon="7.0397">
        <ele>1181</ele>
        <time>2023-05-28T09:45:59Z</time>
      </trkpt>
      <trkpt lat="47.94704" lon="7.03957">
        <ele>1180</ele>
        <time>2023-05-28T09:46:07Z</time>
      </trkpt>
      <trkpt lat="47.94701" lon="7.03943">
        <ele>1180</ele>
        <time>2023-05-28T09:46:15Z</time>
      </trkpt>
      <trkpt lat="47.947" lon="7.03929">
        <ele>1179</ele>
        <time>2023-05-28T09:46:22Z</time>
      </trkpt>
      <trkpt lat="47.947" lon="7.03915">
        <ele>1179</ele>
        <time>2023-05-28T09:46:29Z</time>
      </trkpt>
      <trkpt lat="47.94701" lon="7.039">
        <ele>1178</ele>
        <time>2023-05-28T09:46:38Z</time>
      </trkpt>
      <trkpt lat="47.94701" lon="7.03886">
        <ele>1178</ele>
        <time>2023-05-28T09:46:49Z</time>
      </trkpt>
      <trkpt lat="47.947" lon="7.03872">
        <ele>1178</ele>
        <time>2023-05-28T09:47:00Z</time>
      </trkpt>
      <trkpt lat="47.94697" lon="7.03859">
        <ele>1177</ele>
        <time>2023-05-28T09:47:10Z</time>
      </trkpt>
      <trkpt lat="47.94695" lon="7.03845">
        <ele>1176</ele>
        <time>2023-05-28T09:47:19Z</time>
      </trkpt>
      <trkpt lat="47.94695" lon="7.03831">
        <ele>1176</ele>
        <time>2023-05-28T09:47:28Z</time>
      </trkpt>
      <trkpt lat="47.94699" lon="7.03819">
        <ele>1176</ele>
        <time>2023-05-28T09:47:36Z</time>
      </trkpt>
      <trkpt lat="47.94704" lon="7.03807">
        <ele>1176</ele>
        <time>2023-05-28T09:47:46Z</time>
      </trkpt>
      <trkpt lat="47.94708" lon="7.03793">
        <ele>1176</ele>
        <time>2023-05-28T09:47:56Z</time>
      </trkpt>
      <trkpt lat="47.94711" lon="7.0378">
        <ele>1176</ele>
        <time>2023-05-28T09:48:05Z</time>
      </trkpt>
      <trkpt lat="47.94715" lon="7.03768">
        <ele>1176</ele>
        <time>2023-05-28T09:48:15Z</time>
      </trkpt>
      <trkpt lat="47.9472" lon="7.03757">
        <ele>1177</ele>
        <time>2023-05-28T09:48:25Z</time>
      </trkpt>
      <trkpt lat="47.94726" lon="7.03745">
        <ele>1177</ele>
        <time>2023-05-28T09:48:35Z</time>
      </trkpt>
      <trkpt lat="47.94731" lon="7.03732">
        <ele>1177</ele>
        <time>2023-05-28T09:48:46Z</time>
      </trkpt>
      <trkpt lat="47.94737" lon="7.03722">
        <ele>1177</ele>
        <time>2023-05-28T09:48:56Z</time>
      </trkpt>
      <trkpt lat="47.94743" lon="7.03711">
        <ele>1178</ele>
        <time>2023-05-28T09:49:05Z</time>
      </trkpt>
      <trkpt lat="47.94749" lon="7.037">
        <ele>1178</ele>
        <time>2023-05-28T09:49:14Z</time>
      </trkpt>
      <trkpt lat="47.94755" lon="7.0369">
        <ele>1178</ele>
        <time>2023-05-28T09:49:25Z</time>
      </trkpt>
      <trkpt lat="47.94762" lon="7.0368">
        <ele>1178</ele>
        <time>2023-05-28T09:49:34Z</time>
      </trkpt>
      <trkpt lat="47.94765" lon="7.03667">
        <ele>1178</ele>
        <time>2023-05-28T09:49:43Z</time>
      </trkpt>
      <trkpt lat="47.94765" lon="7.03653">
        <ele>1178</ele>
        <time>2023-05-28T09:49:59Z</time>
      </trkpt>
      <trkpt lat="47.94767" lon="7.03639">
        <ele>1177</ele>
        <time>2023-05-28T09:50:13Z</time>
      </trkpt>
      <trkpt lat="47.94764" lon="7.03626">
        <ele>1176</ele>
        <time>2023-05-28T09:50:25Z</time>
      </trkpt>
      <trkpt lat="47.9476" lon="7.03613">
        <ele>1175</ele>
        <time>2023-05-28T09:50:36Z</time>
      </trkpt>
      <trkpt lat="47.94753" lon="7.03603">
        <ele>1174</ele>
        <time>2023-05-28T09:50:46Z</time>
      </trkpt>
      <trkpt lat="47.94745" lon="7.03603">
        <ele>1173</ele>
        <time>2023-05-28T09:51:20Z</time>
      </trkpt>
      <trkpt lat="47.94735" lon="7.03607">
        <ele>1172</ele>
        <time>2023-05-28T09:51:31Z</time>
      </trkpt>
      <trkpt lat="47.94726" lon="7.03608">
        <ele>1172</ele>
        <time>2023-05-28T09:51:40Z</time>
      </trkpt>
      <trkpt lat="47.94717" lon="7.03607">
        <ele>1171</ele>
        <time>2023-05-28T09:51:49Z</time>
      </trkpt>
      <trkpt lat="47.94708" lon="7.03602">
        <ele>1171</ele>
        <time>2023-05-28T09:51:58Z</time>
      </trkpt>
      <trkpt lat="47.94699" lon="7.03603">
        <ele>1170</ele>
        <time>2023-05-28T09:52:10Z</time>
      </trkpt>
      <trkpt lat="47.94691" lon="7.03606">
        <ele>1170</ele>
        <time>2023-05-28T09:52:27Z</time>
      </trkpt>
      <trkpt lat="47.94682" lon="7.03611">
        <ele>1169</ele>
        <time>2023-05-28T09:52:38Z</time>
      </trkpt>
      <trkpt lat="47.94673" lon="7.03617">
        <ele>1169</ele>
        <time>2023-05-28T09:52:48Z</time>
      </trkpt>
      <trkpt lat="47.94664" lon="7.03621">
        <ele>1169</ele>
        <time>2023-05-28T09:52:57Z</time>
      </trkpt>
      <trkpt lat="47.94657" lon="7.03631">
        <ele>1169</ele>
        <time>2023-05-28T09:53:08Z</time>
      </trkpt>
      <trkpt lat="47.9465" lon="7.0364">
        <ele>1169</ele>
        <time>2023-05-28T09:53:19Z</time>
      </trkpt>
      <trkpt lat="47.94642" lon="7.03647">
        <ele>1169</ele>
        <time>2023-05-28T09:53:28Z</time>
      </trkpt>
      <trkpt lat="47.94632" lon="7.03651">
        <ele>1168</ele>
        <time>2023-05-28T09:53:37Z</time>
      </trkpt>
      <trkpt lat="47.94623" lon="7.03655">
        <ele>1168</ele>
        <time>2023-05-28T09:53:45Z</time>
      </trkpt>
      <trkpt lat="47.94614" lon="7.03653">
        <ele>1168</ele>
        <time>2023-05-28T09:53:57Z</time>
      </trkpt>
      <trkpt lat="47.94604" lon="7.03652">
        <ele>1168</ele>
        <time>2023-05-28T09:54:08Z</time>
      </trkpt>
      <trkpt lat="47.94595" lon="7.03652">
        <ele>1168</ele>
        <time>2023-05-28T09:54:18Z</time>
      </trkpt>
      <trkpt lat="47.94585" lon="7.03652">
        <ele>1168</ele>
        <time>2023-05-28T09:54:28Z</time>
      </trkpt>
      <trkpt lat="47.94576" lon="7.03648">
        <ele>1168</ele>
        <time>2023-05-28T09:54:36Z</time>
      </trkpt>
      <trkpt lat="47.94567" lon="7.03645">
        <ele>1168</ele>
        <time>2023-05-28T09:54:45Z</time>
      </trkpt>
      <trkpt lat="47.94558" lon="7.03641">
        <ele>1167</ele>
        <time>2023-05-28T09:54:53Z</time>
      </trkpt>
      <trkpt lat="47.94549" lon="7.03636">
        <ele>1167</ele>
        <time>2023-05-28T09:55:03Z</time>
      </trkpt>
      <trkpt lat="47.94539" lon="7.03632">
        <ele>1167</ele>
        <time>2023-05-28T09:55:13Z</time>
      </trkpt>
      <trkpt lat="47.94531" lon="7.03626">
        <ele>1166</ele>
        <time>2023-05-28T09:55:21Z</time>
      </trkpt>
      <trkpt lat="47.94522" lon="7.0362">
        <ele>1166</ele>
        <time>2023-05-28T09:55:31Z</time>
      </trkpt>
      <trkpt lat="47.94513" lon="7.03614">
        <ele>1165</ele>
        <time>2023-05-28T09:55:39Z</time>
      </trkpt>
      <trkpt lat="47.94506" lon="7.03607">
        <ele>1165</ele>
        <time>2023-05-28T09:55:48Z</time>
      </trkpt>
      <trkpt lat="47.945" lon="7.03596">
        <ele>1164</ele>
        <time>2023-05-28T09:55:58Z</time>
      </trkpt>
      <trkpt lat="47.94496" lon="7.03584">
        <ele>1164</ele>
        <time>2023-05-28T09:56:08Z</time>
      </trkpt>
      <trkpt lat="47.94492" lon="7.03571">
        <ele>1164</ele>
        <time>2023-05-28T09:56:18Z</time>
      </trkpt>
      <trkpt lat="47.94489" lon="7.03558">
        <ele>1164</ele>
        <time>2023-05-28T09:56:28Z</time>
      </trkpt>
      <trkpt lat="47.94485" lon="7.03545">
        <ele>1165</ele>
        <time>2023-05-28T09:56:40Z</time>
      </trkpt>
      <trkpt lat="47.94482" lon="7.03532">
        <ele>1165</ele>
        <time>2023-05-28T09:56:51Z</time>
      </trkpt>
      <trkpt lat="47.94479" lon="7.03517">
        <ele>1166</ele>
        <time>2023-05-28T09:57:00Z</time>
      </trkpt>
      <trkpt lat="47.94477" lon="7.03503">
        <ele>1166</ele>
        <time>2023-05-28T09:57:10Z</time>
      </trkpt>
      <trkpt lat="47.94476" lon="7.03488">
        <ele>1167</ele>
        <time>2023-05-28T09:57:20Z</time>
      </trkpt>
      <trkpt lat="47.94475" lon="7.03474">
        <ele>1167</ele>
        <time>2023-05-28T09:57:30Z</time>
      </trkpt>
      <trkpt lat="47.94471" lon="7.0346">
        <ele>1167</ele>
        <time>2023-05-28T09:57:40Z</time>
      </trkpt>
      <trkpt lat="47.94468" lon="7.03446">
        <ele>1167</ele>
        <time>2023-05-28T09:57:49Z</time>
      </trkpt>
      <trkpt lat="47.94465" lon="7.03433">
        <ele>1167</ele>
        <time>2023-05-28T09:57:58Z</time>
      </trkpt>
      <trkpt lat="47.94465" lon="7.03418">
        <ele>1167</ele>
        <time>2023-05-28T09:58:08Z</time>
      </trkpt>
      <trkpt lat="47.94468" lon="7.03406">
        <ele>1168</ele>
        <time>2023-05-28T09:58:18Z</time>
      </trkpt>
      <trkpt lat="47.94472" lon="7.03393">
        <ele>1168</ele>
        <time>2023-05-28T09:58:30Z</time>
      </trkpt>
      <trkpt lat="47.94476" lon="7.0338">
        <ele>1169</ele>
        <time>2023-05-28T09:58:41Z</time>
      </trkpt>
      <trkpt lat="47.9448" lon="7.03368">
        <ele>1170</ele>
        <time>2023-05-28T09:58:51Z</time>
      </trkpt>
      <trkpt lat="47.94483" lon="7.03355">
        <ele>1170</ele>
        <time>2023-05-28T09:59:03Z</time>
      </trkpt>
      <trkpt lat="47.94484" lon="7.03341">
        <ele>1171</ele>
        <time>2023-05-28T09:59:13Z</time>
      </trkpt>
      <trkpt lat="47.94483" lon="7.03327">
        <ele>1172</ele>
        <time>2023-05-28T09:59:25Z</time>
      </trkpt>
      <trkpt lat="47.94482" lon="7.03313">
        <ele>1172</ele>
        <time>2023-05-28T09:59:36Z</time>
      </trkpt>
      <trkpt lat="47.94481" lon="7.03299">
        <ele>1173</ele>
        <time>2023-05-28T09:59:46Z</time>
      </trkpt>
      <trkpt lat="47.94481" lon="7.03285">
        <ele>1173</ele>
        <time>2023-05-28T09:59:55Z</time>
      </trkpt>
      <trkpt lat="47.9448" lon="7.03271">
        <ele>1173</ele>
        <time>2023-05-28T10:00:05Z</time>
      </trkpt>
      <trkpt lat="47.94475" lon="7.03259">
        <ele>1173</ele>
        <time>2023-05-28T10:00:14Z</time>
      </trkpt>
      <trkpt lat="47.94472" lon="7.03245">
        <ele>1173</ele>
        <time>2023-05-28T10:00:23Z</time>
      </trkpt>
      <trkpt lat="47.94471" lon="7.03231">
        <ele>1172</ele>
        <time>2023-05-28T10:00:33Z</time>
      </trkpt>
      <trkpt lat="47.94472" lon="7.03217">
        <ele>1172</ele>
        <time>2023-05-28T10:00:42Z</time>
      </trkpt>
      <trkpt lat="47.94475" lon="7.03203">
        <ele>1172</ele>
        <time>2023-05-28T10:00:51Z</time>
      </trkpt>
      <trkpt lat="47.94478" lon="7.03189">
        <ele>1172</ele>
        <time>2023-05-28T10:01:02Z</time>
      </trkpt>
      <trkpt lat="47.94477" lon="7.03176">
        <ele>1171</ele>
        <time>2023-05-28T10:01:13Z</time>
      </trkpt>
      <trkpt lat="47.94471" lon="7.03165">
        <ele>1171</ele>
        <time>2023-05-28T10:01:23Z</time>
      </trkpt>
      <trkpt lat="47.94465" lon="7.03154">
        <ele>1171</ele>
        <time>2023-05-28T10:01:33Z</time>
      </trkpt>
      <trkpt lat="47.94458" lon="7.03144">
        <ele>1170</ele>
        <time>2023-05-28T10:01:43Z</time>
      </trkpt>
      <trkpt lat="47.9445" lon="7.03136">
        <ele>1170</ele>
        <time>2023-05-28T10:01:53Z</time>
      </trkpt>
      <trkpt lat="47.94441" lon="7.03131">
        <ele>1169</ele>
        <time>2023-05-28T10:02:03Z</time>
      </trkpt>
      <trkpt lat="47.94433" lon="7.03125">
        <ele>1169</ele>
        <time>2023-05-28T10:02:12Z</time>
      </trkpt>
      <trkpt lat="47.94425" lon="7.03117">
        <ele>1168</ele>
        <time>2023-05-28T10:02:20Z</time>
      </trkpt>
      <trkpt lat="47.94416" lon="7.03112">
        <ele>1168</ele>
        <time>2023-05-28T10:02:29Z</time>
      </trkpt>
      <trkpt lat="47.94407" lon="7.03109">
        <ele>1167</ele>
        <time>2023-05-28T10:02:38Z</time>
      </trkpt>
      <trkpt lat="47.94398" lon="7.03106">
        <ele>1167</ele>
        <time>2023-05-28T10:02:46Z</time>
      </trkpt>
      <trkpt lat="47.9439" lon="7.031">
        <ele>1166</ele>
        <time>2023-05-28T10:02:59Z</time>
      </trkpt>
      <trkpt lat="47.94382" lon="7.03095">
        <ele>1166</ele>
        <time>2023-05-28T10:03:13Z</time>
      </trkpt>
      <trkpt lat="47.94374" lon="7.03087">
        <ele>1166</ele>
        <time>2023-05-28T10:03:25Z</time>
      </trkpt>
      <trkpt lat="47.94366" lon="7.03084">
        <ele>1165</ele>
        <time>2023-05-28T10:03:38Z</time>
      </trkpt>
      <trkpt lat="47.94356" lon="7.03085">
        <ele>1164</ele>
        <time>2023-05-28T10:03:49Z</time>
      </trkpt>
      <trkpt lat="47.94346" lon="7.03085">
        <ele>1163</ele>
        <time>2023-05-28T10:03:58Z</time>
      </trkpt>
      <trkpt lat="47.94336" lon="7.03087">
        <ele>1162</ele>
        <time>2023-05-28T10:04:07Z</time>
      </trkpt>
      <trkpt lat="47.94327" lon="7.03088">
        <ele>1160</ele>
        <time>2023-05-28T10:04:19Z</time>
      </trkpt>
      <trkpt lat="47.94317" lon="7.03092">
        <ele>1159</ele>
        <time>2023-05-28T10:04:30Z</time>
      </trkpt>
      <trkpt lat="47.94308" lon="7.03094">
        <ele>1158</ele>
        <time>2023-05-28T10:04:38Z</time>
      </trkpt>
      <trkpt lat="47.94298" lon="7.03096">
        <ele>1157</ele>
        <time>2023-05-28T10:04:49Z</time>
      </trkpt>
      <trkpt lat="47.94288" lon="7.03096">
        <ele>1156</ele>
        <time>2023-05-28T10:05:00Z</time>
      </trkpt>
      <trkpt lat="47.94279" lon="7.03094">
        <ele>1155</ele>
        <time>2023-05-28T10:05:09Z</time>
      </trkpt>
      <trkpt lat="47.94271" lon="7.03086">
        <ele>1154</ele>
        <time>2023-05-28T10:05:19Z</time>
      </trkpt>
      <trkpt lat="47.94263" lon="7.03076">
        <ele>1154</ele>
        <time>2023-05-28T10:05:29Z</time>
      </trkpt>
      <trkpt lat="47.94255" lon="7.0307">
        <ele>1153</ele>
        <time>2023-05-28T10:05:39Z</time>
      </trkpt>
      <trkpt lat="47.94246" lon="7.03066">
        <ele>1152</ele>
        <time>2023-05-28T10:05:48Z</time>
      </trkpt>
      <trkpt lat="47.94237" lon="7.03064">
        <ele>1151</ele>
        <time>2023-05-28T10:05:57Z</time>
      </trkpt>
      <trkpt lat="47.94229" lon="7.03058">
        <ele>1150</ele>
        <time>2023-05-28T10:06:06Z</time>
      </trkpt>
      <trkpt lat="47.94222" lon="7.03048">
        <ele>1150</ele>
        <time>2023-05-28T10:06:20Z</time>
      </trkpt>
      <trkpt lat="47.94215" lon="7.03039">
        <ele>1149</ele>
        <time>2023-05-28T10:06:30Z</time>
      </trkpt>
      <trkpt lat="47.94209" lon="7.0303">
        <ele>1148</ele>
        <time>2023-05-28T10:06:39Z</time>
      </trkpt>
      <trkpt lat="47.942" lon="7.03022">
        <ele>1148</ele>
        <time>2023-05-28T10:06:50Z</time>
      </trkpt>
      <trkpt lat="47.94198" lon="7.03009">
        <ele>1145</ele>
        <time>2023-05-28T10:07:18Z</time>
      </trkpt>
      <trkpt lat="47.94191" lon="7.02999">
        <ele>1144</ele>
        <time>2023-05-28T10:07:33Z</time>
      </trkpt>
      <trkpt lat="47.94185" lon="7.02988">
        <ele>1144</ele>
        <time>2023-05-28T10:07:45Z</time>
      </trkpt>
      <trkpt lat="47.94177" lon="7.02983">
        <ele>1143</ele>
        <time>2023-05-28T10:07:56Z</time>
      </trkpt>
      <trkpt lat="47.94175" lon="7.02993">
        <ele>1143</ele>
        <time>2023-05-28T10:08:09Z</time>
      </trkpt>
      <trkpt lat="47.94177" lon="7.03006">
        <ele>1142</ele>
        <time>2023-05-28T10:08:21Z</time>
      </trkpt>
      <trkpt lat="47.94177" lon="7.03021">
        <ele>1142</ele>
        <time>2023-05-28T10:08:32Z</time>
      </trkpt>
      <trkpt lat="47.94177" lon="7.03035">
        <ele>1142</ele>
        <time>2023-05-28T10:08:42Z</time>
      </trkpt>
      <trkpt lat="47.94177" lon="7.03048">
        <ele>1142</ele>
        <time>2023-05-28T10:08:52Z</time>
      </trkpt>
      <trkpt lat="47.94175" lon="7.03062">
        <ele>1142</ele>
        <time>2023-05-28T10:09:09Z</time>
      </trkpt>
      <trkpt lat="47.94175" lon="7.03076">
        <ele>1143</ele>
        <time>2023-05-28T10:09:19Z</time>
      </trkpt>
      <trkpt lat="47.94177" lon="7.0309">
        <ele>1143</ele>
        <time>2023-05-28T10:09:31Z</time>
      </trkpt>
      <trkpt lat="47.94177" lon="7.03104">
        <ele>1144</ele>
        <time>2023-05-28T10:09:43Z</time>
      </trkpt>
      <trkpt lat="47.94176" lon="7.03118">
        <ele>1144</ele>
        <time>2023-05-28T10:09:54Z</time>
      </trkpt>
      <trkpt lat="47.94175" lon="7.03133">
        <ele>1146</ele>
        <time>2023-05-28T10:10:26Z</time>
      </trkpt>
      <trkpt lat="47.94173" lon="7.03147">
        <ele>1146</ele>
        <time>2023-05-28T10:10:37Z</time>
      </trkpt>
      <trkpt lat="47.94171" lon="7.03162">
        <ele>1146</ele>
        <time>2023-05-28T10:10:47Z</time>
      </trkpt>
      <trkpt lat="47.94167" lon="7.03175">
        <ele>1146</ele>
        <time>2023-05-28T10:10:56Z</time>
      </trkpt>
      <trkpt lat="47.94164" lon="7.03189">
        <ele>1147</ele>
        <time>2023-05-28T10:11:05Z</time>
      </trkpt>
      <trkpt lat="47.9416" lon="7.03201">
        <ele>1147</ele>
        <time>2023-05-28T10:11:14Z</time>
      </trkpt>
      <trkpt lat="47.94157" lon="7.03214">
        <ele>1147</ele>
        <time>2023-05-28T10:11:23Z</time>
      </trkpt>
      <trkpt lat="47.94153" lon="7.03226">
        <ele>1147</ele>
        <time>2023-05-28T10:11:32Z</time>
      </trkpt>
      <trkpt lat="47.94149" lon="7.03239">
        <ele>1147</ele>
        <time>2023-05-28T10:11:42Z</time>
      </trkpt>
      <trkpt lat="47.94145" lon="7.03252">
        <ele>1147</ele>
        <time>2023-05-28T10:11:53Z</time>
      </trkpt>
      <trkpt lat="47.94143" lon="7.03266">
        <ele>1147</ele>
        <time>2023-05-28T10:12:03Z</time>
      </trkpt>
      <trkpt lat="47.9414" lon="7.03279">
        <ele>1148</ele>
        <time>2023-05-28T10:12:13Z</time>
      </trkpt>
      <trkpt lat="47.94137" lon="7.03292">
        <ele>1148</ele>
        <time>2023-05-28T10:12:23Z</time>
      </trkpt>
      <trkpt lat="47.94133" lon="7.03305">
        <ele>1149</ele>
        <time>2023-05-28T10:12:33Z</time>
      </trkpt>
      <trkpt lat="47.94128" lon="7.03317">
        <ele>1149</ele>
        <time>2023-05-28T10:12:43Z</time>
      </trkpt>
      <trkpt lat="47.94123" lon="7.03329">
        <ele>1149</ele>
        <time>2023-05-28T10:12:53Z</time>
      </trkpt>
      <trkpt lat="47.94116" lon="7.03339">
        <ele>1150</ele>
        <time>2023-05-28T10:13:02Z</time>
      </trkpt>
      <trkpt lat="47.9411" lon="7.03351">
        <ele>1151</ele>
        <time>2023-05-28T10:13:13Z</time>
      </trkpt>
      <trkpt lat="47.94103" lon="7.0336">
        <ele>1151</ele>
        <time>2023-05-28T10:13:24Z</time>
      </trkpt>
      <trkpt lat="47.94095" lon="7.03366">
        <ele>1152</ele>
        <time>2023-05-28T10:13:34Z</time>
      </trkpt>
      <trkpt lat="47.94088" lon="7.03375">
        <ele>1152</ele>
        <time>2023-05-28T10:13:43Z</time>
      </trkpt>
      <trkpt lat="47.9408" lon="7.03383">
        <ele>1153</ele>
        <time>2023-05-28T10:13:53Z</time>
      </trkpt>
      <trkpt lat="47.94071" lon="7.03388">
        <ele>1154</ele>
        <time>2023-05-28T10:14:02Z</time>
      </trkpt>
      <trkpt lat="47.94061" lon="7.03389">
        <ele>1154</ele>
        <time>2023-05-28T10:14:12Z</time>
      </trkpt>
      <trkpt lat="47.94053" lon="7.03385">
        <ele>1155</ele>
        <time>2023-05-28T10:14:21Z</time>
      </trkpt>
      <trkpt lat="47.94044" lon="7.0338">
        <ele>1156</ele>
        <time>2023-05-28T10:14:31Z</time>
      </trkpt>
      <trkpt lat="47.94035" lon="7.03376">
        <ele>1156</ele>
        <time>2023-05-28T10:14:42Z</time>
      </trkpt>
      <trkpt lat="47.94025" lon="7.03372">
        <ele>1157</ele>
        <time>2023-05-28T10:14:52Z</time>
      </trkpt>
      <trkpt lat="47.94016" lon="7.03369">
        <ele>1157</ele>
        <time>2023-05-28T10:15:03Z</time>
      </trkpt>
      <trkpt lat="47.94007" lon="7.03366">
        <ele>1157</ele>
        <time>2023-05-28T10:15:12Z</time>
      </trkpt>
      <trkpt lat="47.93998" lon="7.03362">
        <ele>1157</ele>
        <time>2023-05-28T10:15:19Z</time>
      </trkpt>
      <trkpt lat="47.93989" lon="7.03356">
        <ele>1157</ele>
        <time>2023-05-28T10:15:27Z</time>
      </trkpt>
      <trkpt lat="47.93981" lon="7.03348">
        <ele>1157</ele>
        <time>2023-05-28T10:15:36Z</time>
      </trkpt>
      <trkpt lat="47.93973" lon="7.03339">
        <ele>1157</ele>
        <time>2023-05-28T10:15:47Z</time>
      </trkpt>
      <trkpt lat="47.93965" lon="7.03331">
        <ele>1157</ele>
        <time>2023-05-28T10:15:57Z</time>
      </trkpt>
      <trkpt lat="47.93957" lon="7.03324">
        <ele>1157</ele>
        <time>2023-05-28T10:16:06Z</time>
      </trkpt>
      <trkpt lat="47.9395" lon="7.03317">
        <ele>1157</ele>
        <time>2023-05-28T10:16:15Z</time>
      </trkpt>
      <trkpt lat="47.93941" lon="7.0331">
        <ele>1157</ele>
        <time>2023-05-28T10:16:24Z</time>
      </trkpt>
      <trkpt lat="47.93933" lon="7.03303">
        <ele>1157</ele>
        <time>2023-05-28T10:16:34Z</time>
      </trkpt>
      <trkpt lat="47.93926" lon="7.03295">
        <ele>1157</ele>
        <time>2023-05-28T10:16:44Z</time>
      </trkpt>
      <trkpt lat="47.93918" lon="7.03288">
        <ele>1156</ele>
        <time>2023-05-28T10:16:54Z</time>
      </trkpt>
      <trkpt lat="47.9391" lon="7.0328">
        <ele>1156</ele>
        <time>2023-05-28T10:17:04Z</time>
      </trkpt>
      <trkpt lat="47.93901" lon="7.03275">
        <ele>1156</ele>
        <time>2023-05-28T10:17:13Z</time>
      </trkpt>
      <trkpt lat="47.93893" lon="7.03268">
        <ele>1155</ele>
        <time>2023-05-28T10:17:22Z</time>
      </trkpt>
      <trkpt lat="47.93886" lon="7.0326">
        <ele>1155</ele>
        <time>2023-05-28T10:17:31Z</time>
      </trkpt>
      <trkpt lat="47.93879" lon="7.03251">
        <ele>1154</ele>
        <time>2023-05-28T10:17:40Z</time>
      </trkpt>
      <trkpt lat="47.93871" lon="7.03243">
        <ele>1154</ele>
        <time>2023-05-28T10:17:50Z</time>
      </trkpt>
      <trkpt lat="47.93863" lon="7.03236">
        <ele>1154</ele>
        <time>2023-05-28T10:17:59Z</time>
      </trkpt>
      <trkpt lat="47.93855" lon="7.03231">
        <ele>1153</ele>
        <time>2023-05-28T10:18:10Z</time>
      </trkpt>
      <trkpt lat="47.93846" lon="7.03225">
        <ele>1153</ele>
        <time>2023-05-28T10:18:22Z</time>
      </trkpt>
      <trkpt lat="47.93838" lon="7.03221">
        <ele>1152</ele>
        <time>2023-05-28T10:18:32Z</time>
      </trkpt>
      <trkpt lat="47.93829" lon="7.03215">
        <ele>1152</ele>
        <time>2023-05-28T10:18:44Z</time>
      </trkpt>
      <trkpt lat="47.93821" lon="7.03209">
        <ele>1151</ele>
        <time>2023-05-28T10:18:54Z</time>
      </trkpt>
      <trkpt lat="47.93812" lon="7.03203">
        <ele>1151</ele>
        <time>2023-05-28T10:19:04Z</time>
      </trkpt>
      <trkpt lat="47.93804" lon="7.03197">
        <ele>1150</ele>
        <time>2023-05-28T10:19:15Z</time>
      </trkpt>
      <trkpt lat="47.93796" lon="7.03189">
        <ele>1150</ele>
        <time>2023-05-28T10:19:25Z</time>
      </trkpt>
      <trkpt lat="47.93788" lon="7.03182">
        <ele>1149</ele>
        <time>2023-05-28T10:19:36Z</time>
      </trkpt>
      <trkpt lat="47.9378" lon="7.03174">
        <ele>1148</ele>
        <time>2023-05-28T10:19:48Z</time>
      </trkpt>
      <trkpt lat="47.93771" lon="7.03169">
        <ele>1147</ele>
        <time>2023-05-28T10:20:13Z</time>
      </trkpt>
      <trkpt lat="47.93762" lon="7.03164">
        <ele>1146</ele>
        <time>2023-05-28T10:20:26Z</time>
      </trkpt>
      <trkpt lat="47.93754" lon="7.03156">
        <ele>1146</ele>
        <time>2023-05-28T10:20:39Z</time>
      </trkpt>
      <trkpt lat="47.93746" lon="7.03149">
        <ele>1145</ele>
        <time>2023-05-28T10:20:50Z</time>
      </trkpt>
      <trkpt lat="47.93738" lon="7.03142">
        <ele>1144</ele>
        <time>2023-05-28T10:21:01Z</time>
      </trkpt>
      <trkpt lat="47.9373" lon="7.03135">
        <ele>1144</ele>
        <time>2023-05-28T10:21:11Z</time>
      </trkpt>
      <trkpt lat="47.93721" lon="7.03129">
        <ele>1143</ele>
        <time>2023-05-28T10:21:23Z</time>
      </trkpt>
      <trkpt lat="47.93713" lon="7.03122">
        <ele>1141</ele>
        <time>2023-05-28T10:21:36Z</time>
      </trkpt>
      <trkpt lat="47.93704" lon="7.03116">
        <ele>1141</ele>
        <time>2023-05-28T10:21:47Z</time>
      </trkpt>
      <trkpt lat="47.93696" lon="7.03109">
        <ele>1140</ele>
        <time>2023-05-28T10:21:58Z</time>
      </trkpt>
      <trkpt lat="47.93688" lon="7.03103">
        <ele>1139</ele>
        <time>2023-05-28T10:22:08Z</time>
      </trkpt>
      <trkpt lat="47.93678" lon="7.03097">
        <ele>1139</ele>
        <time>2023-05-28T10:22:18Z</time>
      </trkpt>
      <trkpt lat="47.9367" lon="7.03092">
        <ele>1138</ele>
        <time>2023-05-28T10:22:29Z</time>
      </trkpt>
      <trkpt lat="47.93661" lon="7.03086">
        <ele>1137</ele>
        <time>2023-05-28T10:22:41Z</time>
      </trkpt>
      <trkpt lat="47.93653" lon="7.03082">
        <ele>1136</ele>
        <time>2023-05-28T10:22:54Z</time>
      </trkpt>
      <trkpt lat="47.93644" lon="7.03077">
        <ele>1135</ele>
        <time>2023-05-28T10:23:23Z</time>
      </trkpt>
      <trkpt lat="47.93636" lon="7.03072">
        <ele>1134</ele>
        <time>2023-05-28T10:23:37Z</time>
      </trkpt>
      <trkpt lat="47.93629" lon="7.03063">
        <ele>1134</ele>
        <time>2023-05-28T10:23:47Z</time>
      </trkpt>
      <trkpt lat="47.93622" lon="7.03053">
        <ele>1134</ele>
        <time>2023-05-28T10:23:59Z</time>
      </trkpt>
      <trkpt lat="47.93617" lon="7.03042">
        <ele>1134</ele>
        <time>2023-05-28T10:24:09Z</time>
      </trkpt>
      <trkpt lat="47.93611" lon="7.03032">
        <ele>1134</ele>
        <time>2023-05-28T10:24:20Z</time>
      </trkpt>
      <trkpt lat="47.93605" lon="7.0302">
        <ele>1134</ele>
        <time>2023-05-28T10:24:31Z</time>
      </trkpt>
      <trkpt lat="47.93599" lon="7.03008">
        <ele>1134</ele>
        <time>2023-05-28T10:24:42Z</time>
      </trkpt>
      <trkpt lat="47.93596" lon="7.02994">
        <ele>1134</ele>
        <time>2023-05-28T10:24:53Z</time>
      </trkpt>
      <trkpt lat="47.93593" lon="7.02981">
        <ele>1134</ele>
        <time>2023-05-28T10:25:04Z</time>
      </trkpt>
      <trkpt lat="47.9359" lon="7.02968">
        <ele>1134</ele>
        <time>2023-05-28T10:25:19Z</time>
      </trkpt>
      <trkpt lat="47.93585" lon="7.02956">
        <ele>1134</ele>
        <time>2023-05-28T10:25:31Z</time>
      </trkpt>
      <trkpt lat="47.93578" lon="7.02946">
        <ele>1134</ele>
        <time>2023-05-28T10:25:42Z</time>
      </trkpt>
      <trkpt lat="47.93572" lon="7.02935">
        <ele>1134</ele>
        <time>2023-05-28T10:25:52Z</time>
      </trkpt>
      <trkpt lat="47.93566" lon="7.02924">
        <ele>1134</ele>
        <time>2023-05-28T10:26:02Z</time>
      </trkpt>
      <trkpt lat="47.9356" lon="7.02914">
        <ele>1133</ele>
        <time>2023-05-28T10:26:25Z</time>
      </trkpt>
      <trkpt lat="47.93554" lon="7.02903">
        <ele>1133</ele>
        <time>2023-05-28T10:26:42Z</time>
      </trkpt>
      <trkpt lat="47.93548" lon="7.02892">
        <ele>1132</ele>
        <time>2023-05-28T10:26:51Z</time>
      </trkpt>
      <trkpt lat="47.93542" lon="7.02881">
        <ele>1132</ele>
        <time>2023-05-28T10:27:00Z</time>
      </trkpt>
      <trkpt lat="47.93536" lon="7.02869">
        <ele>1132</ele>
        <time>2023-05-28T10:27:09Z</time>
      </trkpt>
      <trkpt lat="47.9353" lon="7.02859">
        <ele>1131</ele>
        <time>2023-05-28T10:27:19Z</time>
      </trkpt>
      <trkpt lat="47.93525" lon="7.02847">
        <ele>1131</ele>
        <time>2023-05-28T10:27:28Z</time>
      </trkpt>
      <trkpt lat="47.93521" lon="7.02835">
        <ele>1131</ele>
        <time>2023-05-28T10:27:37Z</time>
      </trkpt>
      <trkpt lat="47.93516" lon="7.02824">
        <ele>1130</ele>
        <time>2023-05-28T10:27:49Z</time>
      </trkpt>
      <trkpt lat="47.9351" lon="7.02815">
        <ele>1129</ele>
        <time>2023-05-28T10:28:29Z</time>
      </trkpt>
      <trkpt lat="47.93502" lon="7.02806">
        <ele>1129</ele>
        <time>2023-05-28T10:28:38Z</time>
      </trkpt>
      <trkpt lat="47.93495" lon="7.02797">
        <ele>1129</ele>
        <time>2023-05-28T10:28:48Z</time>
      </trkpt>
      <trkpt lat="47.93488" lon="7.02787">
        <ele>1129</ele>
        <time>2023-05-28T10:28:59Z</time>
      </trkpt>
      <trkpt lat="47.93481" lon="7.02778">
        <ele>1129</ele>
        <time>2023-05-28T10:29:09Z</time>
      </trkpt>
      <trkpt lat="47.93474" lon="7.02769">
        <ele>1128</ele>
        <time>2023-05-28T10:29:19Z</time>
      </trkpt>
      <trkpt lat="47.93466" lon="7.02761">
        <ele>1128</ele>
        <time>2023-05-28T10:29:29Z</time>
      </trkpt>
      <trkpt lat="47.93459" lon="7.02752">
        <ele>1128</ele>
        <time>2023-05-28T10:29:39Z</time>
      </trkpt>
      <trkpt lat="47.93452" lon="7.02743">
        <ele>1128</ele>
        <time>2023-05-28T10:29:50Z</time>
      </trkpt>
      <trkpt lat="47.93445" lon="7.02734">
        <ele>1128</ele>
        <time>2023-05-28T10:30:02Z</time>
      </trkpt>
      <trkpt lat="47.93437" lon="7.02726">
        <ele>1129</ele>
        <time>2023-05-28T10:30:39Z</time>
      </trkpt>
      <trkpt lat="47.93429" lon="7.02718">
        <ele>1129</ele>
        <time>2023-05-28T10:30:49Z</time>
      </trkpt>
      <trkpt lat="47.93422" lon="7.0271">
        <ele>1129</ele>
        <time>2023-05-28T10:31:00Z</time>
      </trkpt>
      <trkpt lat="47.93414" lon="7.027">
        <ele>1129</ele>
        <time>2023-05-28T10:31:11Z</time>
      </trkpt>
      <trkpt lat="47.93407" lon="7.02691">
        <ele>1129</ele>
        <time>2023-05-28T10:31:21Z</time>
      </trkpt>
      <trkpt lat="47.93399" lon="7.02683">
        <ele>1129</ele>
        <time>2023-05-28T10:31:31Z</time>
      </trkpt>
      <trkpt lat="47.93392" lon="7.02674">
        <ele>1129</ele>
        <time>2023-05-28T10:31:42Z</time>
      </trkpt>
      <trkpt lat="47.93384" lon="7.02667">
        <ele>1129</ele>
        <time>2023-05-28T10:31:53Z</time>
      </trkpt>
      <trkpt lat="47.93376" lon="7.02658">
        <ele>1129</ele>
        <time>2023-05-28T10:32:05Z</time>
      </trkpt>
      <trkpt lat="47.9337" lon="7.02649">
        <ele>1130</ele>
        <time>2023-05-28T10:32:15Z</time>
      </trkpt>
      <trkpt lat="47.93362" lon="7.0264">
        <ele>1130</ele>
        <time>2023-05-28T10:32:24Z</time>
      </trkpt>
      <trkpt lat="47.93355" lon="7.02631">
        <ele>1130</ele>
        <time>2023-05-28T10:32:32Z</time>
      </trkpt>
      <trkpt lat="47.93347" lon="7.02621">
        <ele>1130</ele>
        <time>2023-05-28T10:32:41Z</time>
      </trkpt>
      <trkpt lat="47.93339" lon="7.02613">
        <ele>1130</ele>
        <time>2023-05-28T10:32:50Z</time>
      </trkpt>
      <trkpt lat="47.93331" lon="7.02605">
        <ele>1130</ele>
        <time>2023-05-28T10:32:59Z</time>
      </trkpt>
      <trkpt lat="47.93323" lon="7.02598">
        <ele>1130</ele>
        <time>2023-05-28T10:33:09Z</time>
      </trkpt>
      <trkpt lat="47.93315" lon="7.02591">
        <ele>1130</ele>
        <time>2023-05-28T10:33:19Z</time>
      </trkpt>
      <trkpt lat="47.93307" lon="7.02583">
        <ele>1130</ele>
        <time>2023-05-28T10:33:28Z</time>
      </trkpt>
      <trkpt lat="47.93299" lon="7.02575">
        <ele>1130</ele>
        <time>2023-05-28T10:33:37Z</time>
      </trkpt>
      <trkpt lat="47.93292" lon="7.02566">
        <ele>1130</ele>
        <time>2023-05-28T10:33:46Z</time>
      </trkpt>
      <trkpt lat="47.93284" lon="7.02557">
        <ele>1130</ele>
        <time>2023-05-28T10:33:55Z</time>
      </trkpt>
      <trkpt lat="47.93279" lon="7.02546">
        <ele>1131</ele>
        <time>2023-05-28T10:34:36Z</time>
      </trkpt>
      <trkpt lat="47.93276" lon="7.02555">
        <ele>1128</ele>
        <time>2023-05-28T11:16:47Z</time>
      </trkpt>
      <trkpt lat="47.93274" lon="7.0254">
        <ele>1129</ele>
        <time>2023-05-28T11:18:52Z</time>
      </trkpt>
      <trkpt lat="47.93271" lon="7.02527">
        <ele>1130</ele>
        <time>2023-05-28T11:19:12Z</time>
      </trkpt>
      <trkpt lat="47.93265" lon="7.02516">
        <ele>1131</ele>
        <time>2023-05-28T11:19:25Z</time>
      </trkpt>
      <trkpt lat="47.93261" lon="7.02503">
        <ele>1131</ele>
        <time>2023-05-28T11:19:38Z</time>
      </trkpt>
      <trkpt lat="47.93259" lon="7.0249">
        <ele>1131</ele>
        <time>2023-05-28T11:20:09Z</time>
      </trkpt>
      <trkpt lat="47.93257" lon="7.02477">
        <ele>1132</ele>
        <time>2023-05-28T11:20:20Z</time>
      </trkpt>
      <trkpt lat="47.93252" lon="7.02466">
        <ele>1132</ele>
        <time>2023-05-28T11:20:32Z</time>
      </trkpt>
      <trkpt lat="47.93245" lon="7.02457">
        <ele>1132</ele>
        <time>2023-05-28T11:20:48Z</time>
      </trkpt>
      <trkpt lat="47.93235" lon="7.02455">
        <ele>1132</ele>
        <time>2023-05-28T11:21:00Z</time>
      </trkpt>
      <trkpt lat="47.93226" lon="7.02455">
        <ele>1132</ele>
        <time>2023-05-28T11:21:11Z</time>
      </trkpt>
      <trkpt lat="47.93217" lon="7.02452">
        <ele>1133</ele>
        <time>2023-05-28T11:21:25Z</time>
      </trkpt>
      <trkpt lat="47.9321" lon="7.02442">
        <ele>1133</ele>
        <time>2023-05-28T11:21:36Z</time>
      </trkpt>
      <trkpt lat="47.93203" lon="7.02435">
        <ele>1134</ele>
        <time>2023-05-28T11:21:47Z</time>
      </trkpt>
      <trkpt lat="47.93194" lon="7.0243">
        <ele>1134</ele>
        <time>2023-05-28T11:21:59Z</time>
      </trkpt>
      <trkpt lat="47.93185" lon="7.02429">
        <ele>1135</ele>
        <time>2023-05-28T11:22:11Z</time>
      </trkpt>
      <trkpt lat="47.93176" lon="7.02427">
        <ele>1135</ele>
        <time>2023-05-28T11:22:21Z</time>
      </trkpt>
      <trkpt lat="47.93166" lon="7.02427">
        <ele>1135</ele>
        <time>2023-05-28T11:22:31Z</time>
      </trkpt>
      <trkpt lat="47.93157" lon="7.02426">
        <ele>1135</ele>
        <time>2023-05-28T11:22:43Z</time>
      </trkpt>
      <trkpt lat="47.93147" lon="7.02427">
        <ele>1135</ele>
        <time>2023-05-28T11:22:53Z</time>
      </trkpt>
      <trkpt lat="47.93137" lon="7.02426">
        <ele>1134</ele>
        <time>2023-05-28T11:23:01Z</time>
      </trkpt>
      <trkpt lat="47.93128" lon="7.02425">
        <ele>1134</ele>
        <time>2023-05-28T11:23:09Z</time>
      </trkpt>
      <trkpt lat="47.93118" lon="7.02423">
        <ele>1134</ele>
        <time>2023-05-28T11:23:19Z</time>
      </trkpt>
      <trkpt lat="47.93109" lon="7.02423">
        <ele>1134</ele>
        <time>2023-05-28T11:23:28Z</time>
      </trkpt>
      <trkpt lat="47.931" lon="7.02424">
        <ele>1133</ele>
        <time>2023-05-28T11:23:37Z</time>
      </trkpt>
      <trkpt lat="47.93091" lon="7.02422">
        <ele>1133</ele>
        <time>2023-05-28T11:23:46Z</time>
      </trkpt>
      <trkpt lat="47.93082" lon="7.02417">
        <ele>1133</ele>
        <time>2023-05-28T11:23:55Z</time>
      </trkpt>
      <trkpt lat="47.93073" lon="7.02411">
        <ele>1133</ele>
        <time>2023-05-28T11:24:04Z</time>
      </trkpt>
      <trkpt lat="47.93065" lon="7.02403">
        <ele>1133</ele>
        <time>2023-05-28T11:24:14Z</time>
      </trkpt>
      <trkpt lat="47.93058" lon="7.02394">
        <ele>1133</ele>
        <time>2023-05-28T11:24:23Z</time>
      </trkpt>
      <trkpt lat="47.9305" lon="7.02386">
        <ele>1133</ele>
        <time>2023-05-28T11:24:35Z</time>
      </trkpt>
      <trkpt lat="47.93042" lon="7.02388">
        <ele>1133</ele>
        <time>2023-05-28T11:24:51Z</time>
      </trkpt>
      <trkpt lat="47.93037" lon="7.02399">
        <ele>1133</ele>
        <time>2023-05-28T11:25:01Z</time>
      </trkpt>
      <trkpt lat="47.93033" lon="7.02412">
        <ele>1133</ele>
        <time>2023-05-28T11:25:13Z</time>
      </trkpt>
      <trkpt lat="47.9303" lon="7.02425">
        <ele>1133</ele>
        <time>2023-05-28T11:25:22Z</time>
      </trkpt>
      <trkpt lat="47.93028" lon="7.02439">
        <ele>1133</ele>
        <time>2023-05-28T11:25:31Z</time>
      </trkpt>
      <trkpt lat="47.93028" lon="7.02452">
        <ele>1133</ele>
        <time>2023-05-28T11:25:39Z</time>
      </trkpt>
      <trkpt lat="47.93028" lon="7.02467">
        <ele>1133</ele>
        <time>2023-05-28T11:25:48Z</time>
      </trkpt>
      <trkpt lat="47.93028" lon="7.02482">
        <ele>1133</ele>
        <time>2023-05-28T11:25:57Z</time>
      </trkpt>
      <trkpt lat="47.93028" lon="7.02496">
        <ele>1133</ele>
        <time>2023-05-28T11:26:05Z</time>
      </trkpt>
      <trkpt lat="47.93027" lon="7.02511">
        <ele>1133</ele>
        <time>2023-05-28T11:26:13Z</time>
      </trkpt>
      <trkpt lat="47.93028" lon="7.02524">
        <ele>1133</ele>
        <time>2023-05-28T11:26:21Z</time>
      </trkpt>
      <trkpt lat="47.93027" lon="7.02538">
        <ele>1133</ele>
        <time>2023-05-28T11:26:29Z</time>
      </trkpt>
      <trkpt lat="47.93027" lon="7.02552">
        <ele>1133</ele>
        <time>2023-05-28T11:26:38Z</time>
      </trkpt>
      <trkpt lat="47.93026" lon="7.02566">
        <ele>1133</ele>
        <time>2023-05-28T11:26:48Z</time>
      </trkpt>
      <trkpt lat="47.93023" lon="7.0258">
        <ele>1133</ele>
        <time>2023-05-28T11:26:59Z</time>
      </trkpt>
      <trkpt lat="47.93021" lon="7.02594">
        <ele>1134</ele>
        <time>2023-05-28T11:27:09Z</time>
      </trkpt>
      <trkpt lat="47.9302" lon="7.02608">
        <ele>1134</ele>
        <time>2023-05-28T11:27:19Z</time>
      </trkpt>
      <trkpt lat="47.93015" lon="7.02621">
        <ele>1134</ele>
        <time>2023-05-28T11:27:28Z</time>
      </trkpt>
      <trkpt lat="47.93011" lon="7.02632">
        <ele>1134</ele>
        <time>2023-05-28T11:27:36Z</time>
      </trkpt>
      <trkpt lat="47.93006" lon="7.02645">
        <ele>1135</ele>
        <time>2023-05-28T11:27:45Z</time>
      </trkpt>
      <trkpt lat="47.93" lon="7.02656">
        <ele>1135</ele>
        <time>2023-05-28T11:27:54Z</time>
      </trkpt>
      <trkpt lat="47.92993" lon="7.02667">
        <ele>1135</ele>
        <time>2023-05-28T11:28:05Z</time>
      </trkpt>
      <trkpt lat="47.92984" lon="7.02673">
        <ele>1135</ele>
        <time>2023-05-28T11:28:15Z</time>
      </trkpt>
      <trkpt lat="47.92976" lon="7.02679">
        <ele>1135</ele>
        <time>2023-05-28T11:28:24Z</time>
      </trkpt>
      <trkpt lat="47.92967" lon="7.02684">
        <ele>1135</ele>
        <time>2023-05-28T11:28:34Z</time>
      </trkpt>
      <trkpt lat="47.92957" lon="7.02687">
        <ele>1135</ele>
        <time>2023-05-28T11:28:45Z</time>
      </trkpt>
      <trkpt lat="47.92948" lon="7.0269">
        <ele>1135</ele>
        <time>2023-05-28T11:28:55Z</time>
      </trkpt>
      <trkpt lat="47.92938" lon="7.02691">
        <ele>1135</ele>
        <time>2023-05-28T11:29:05Z</time>
      </trkpt>
      <trkpt lat="47.9293" lon="7.02695">
        <ele>1135</ele>
        <time>2023-05-28T11:29:16Z</time>
      </trkpt>
      <trkpt lat="47.92922" lon="7.02702">
        <ele>1136</ele>
        <time>2023-05-28T11:29:27Z</time>
      </trkpt>
      <trkpt lat="47.92917" lon="7.02714">
        <ele>1137</ele>
        <time>2023-05-28T11:29:38Z</time>
      </trkpt>
      <trkpt lat="47.92913" lon="7.02726">
        <ele>1138</ele>
        <time>2023-05-28T11:29:50Z</time>
      </trkpt>
      <trkpt lat="47.92911" lon="7.02739">
        <ele>1139</ele>
        <time>2023-05-28T11:30:01Z</time>
      </trkpt>
      <trkpt lat="47.92909" lon="7.02753">
        <ele>1139</ele>
        <time>2023-05-28T11:30:12Z</time>
      </trkpt>
      <trkpt lat="47.92907" lon="7.02766">
        <ele>1140</ele>
        <time>2023-05-28T11:30:24Z</time>
      </trkpt>
      <trkpt lat="47.92908" lon="7.0278">
        <ele>1142</ele>
        <time>2023-05-28T11:30:40Z</time>
      </trkpt>
      <trkpt lat="47.9291" lon="7.02794">
        <ele>1144</ele>
        <time>2023-05-28T11:30:55Z</time>
      </trkpt>
      <trkpt lat="47.9291" lon="7.02807">
        <ele>1145</ele>
        <time>2023-05-28T11:31:06Z</time>
      </trkpt>
      <trkpt lat="47.92909" lon="7.02821">
        <ele>1146</ele>
        <time>2023-05-28T11:31:16Z</time>
      </trkpt>
      <trkpt lat="47.92907" lon="7.02834">
        <ele>1147</ele>
        <time>2023-05-28T11:31:28Z</time>
      </trkpt>
      <trkpt lat="47.92906" lon="7.02848">
        <ele>1148</ele>
        <time>2023-05-28T11:31:41Z</time>
      </trkpt>
      <trkpt lat="47.92906" lon="7.02862">
        <ele>1148</ele>
        <time>2023-05-28T11:31:52Z</time>
      </trkpt>
      <trkpt lat="47.92904" lon="7.02876">
        <ele>1149</ele>
        <time>2023-05-28T11:32:02Z</time>
      </trkpt>
      <trkpt lat="47.92901" lon="7.02889">
        <ele>1149</ele>
        <time>2023-05-28T11:32:11Z</time>
      </trkpt>
      <trkpt lat="47.92897" lon="7.02903">
        <ele>1150</ele>
        <time>2023-05-28T11:32:21Z</time>
      </trkpt>
      <trkpt lat="47.92894" lon="7.02916">
        <ele>1150</ele>
        <time>2023-05-28T11:32:32Z</time>
      </trkpt>
      <trkpt lat="47.9289" lon="7.02929">
        <ele>1151</ele>
        <time>2023-05-28T11:32:48Z</time>
      </trkpt>
      <trkpt lat="47.92888" lon="7.02943">
        <ele>1151</ele>
        <time>2023-05-28T11:33:00Z</time>
      </trkpt>
      <trkpt lat="47.92886" lon="7.02956">
        <ele>1152</ele>
        <time>2023-05-28T11:33:11Z</time>
      </trkpt>
      <trkpt lat="47.92885" lon="7.02969">
        <ele>1152</ele>
        <time>2023-05-28T11:33:23Z</time>
      </trkpt>
      <trkpt lat="47.92883" lon="7.02982">
        <ele>1153</ele>
        <time>2023-05-28T11:33:35Z</time>
      </trkpt>
      <trkpt lat="47.9288" lon="7.02995">
        <ele>1154</ele>
        <time>2023-05-28T11:33:46Z</time>
      </trkpt>
      <trkpt lat="47.92874" lon="7.03007">
        <ele>1154</ele>
        <time>2023-05-28T11:33:56Z</time>
      </trkpt>
      <trkpt lat="47.92869" lon="7.03018">
        <ele>1154</ele>
        <time>2023-05-28T11:34:08Z</time>
      </trkpt>
      <trkpt lat="47.92864" lon="7.0303">
        <ele>1155</ele>
        <time>2023-05-28T11:34:19Z</time>
      </trkpt>
      <trkpt lat="47.92858" lon="7.03041">
        <ele>1155</ele>
        <time>2023-05-28T11:34:27Z</time>
      </trkpt>
      <trkpt lat="47.92853" lon="7.03053">
        <ele>1155</ele>
        <time>2023-05-28T11:34:35Z</time>
      </trkpt>
      <trkpt lat="47.92849" lon="7.03065">
        <ele>1156</ele>
        <time>2023-05-28T11:34:44Z</time>
      </trkpt>
      <trkpt lat="47.92841" lon="7.03071">
        <ele>1156</ele>
        <time>2023-05-28T11:35:05Z</time>
      </trkpt>
      <trkpt lat="47.92833" lon="7.03081">
        <ele>1156</ele>
        <time>2023-05-28T11:35:17Z</time>
      </trkpt>
      <trkpt lat="47.92825" lon="7.03089">
        <ele>1155</ele>
        <time>2023-05-28T11:35:27Z</time>
      </trkpt>
      <trkpt lat="47.92816" lon="7.03096">
        <ele>1155</ele>
        <time>2023-05-28T11:35:36Z</time>
      </trkpt>
      <trkpt lat="47.92808" lon="7.03104">
        <ele>1155</ele>
        <time>2023-05-28T11:35:44Z</time>
      </trkpt>
      <trkpt lat="47.92799" lon="7.03111">
        <ele>1155</ele>
        <time>2023-05-28T11:35:52Z</time>
      </trkpt>
      <trkpt lat="47.9279" lon="7.03116">
        <ele>1155</ele>
        <time>2023-05-28T11:36:02Z</time>
      </trkpt>
      <trkpt lat="47.92781" lon="7.03121">
        <ele>1154</ele>
        <time>2023-05-28T11:36:12Z</time>
      </trkpt>
      <trkpt lat="47.92772" lon="7.03128">
        <ele>1155</ele>
        <time>2023-05-28T11:36:22Z</time>
      </trkpt>
      <trkpt lat="47.92763" lon="7.03134">
        <ele>1155</ele>
        <time>2023-05-28T11:36:30Z</time>
      </trkpt>
      <trkpt lat="47.92754" lon="7.03137">
        <ele>1155</ele>
        <time>2023-05-28T11:36:39Z</time>
      </trkpt>
      <trkpt lat="47.92745" lon="7.0314">
        <ele>1155</ele>
        <time>2023-05-28T11:36:48Z</time>
      </trkpt>
      <trkpt lat="47.92737" lon="7.03144">
        <ele>1155</ele>
        <time>2023-05-28T11:36:59Z</time>
      </trkpt>
      <trkpt lat="47.92727" lon="7.03146">
        <ele>1155</ele>
        <time>2023-05-28T11:37:08Z</time>
      </trkpt>
      <trkpt lat="47.92718" lon="7.03146">
        <ele>1155</ele>
        <time>2023-05-28T11:37:16Z</time>
      </trkpt>
      <trkpt lat="47.92709" lon="7.03146">
        <ele>1155</ele>
        <time>2023-05-28T11:37:26Z</time>
      </trkpt>
      <trkpt lat="47.927" lon="7.03147">
        <ele>1156</ele>
        <time>2023-05-28T11:37:35Z</time>
      </trkpt>
      <trkpt lat="47.92691" lon="7.0315">
        <ele>1156</ele>
        <time>2023-05-28T11:37:44Z</time>
      </trkpt>
      <trkpt lat="47.92681" lon="7.03155">
        <ele>1157</ele>
        <time>2023-05-28T11:37:53Z</time>
      </trkpt>
      <trkpt lat="47.92672" lon="7.03156">
        <ele>1157</ele>
        <time>2023-05-28T11:38:03Z</time>
      </trkpt>
      <trkpt lat="47.92663" lon="7.03159">
        <ele>1158</ele>
        <time>2023-05-28T11:38:13Z</time>
      </trkpt>
      <trkpt lat="47.92654" lon="7.03161">
        <ele>1158</ele>
        <time>2023-05-28T11:38:22Z</time>
      </trkpt>
      <trkpt lat="47.92645" lon="7.03164">
        <ele>1158</ele>
        <time>2023-05-28T11:38:33Z</time>
      </trkpt>
      <trkpt lat="47.92635" lon="7.03163">
        <ele>1159</ele>
        <time>2023-05-28T11:38:45Z</time>
      </trkpt>
      <trkpt lat="47.92625" lon="7.03162">
        <ele>1159</ele>
        <time>2023-05-28T11:38:54Z</time>
      </trkpt>
      <trkpt lat="47.92616" lon="7.03165">
        <ele>1159</ele>
        <time>2023-05-28T11:39:02Z</time>
      </trkpt>
      <trkpt lat="47.92607" lon="7.03167">
        <ele>1160</ele>
        <time>2023-05-28T11:39:10Z</time>
      </trkpt>
      <trkpt lat="47.92597" lon="7.03168">
        <ele>1160</ele>
        <time>2023-05-28T11:39:20Z</time>
      </trkpt>
      <trkpt lat="47.92588" lon="7.03166">
        <ele>1160</ele>
        <time>2023-05-28T11:39:34Z</time>
      </trkpt>
      <trkpt lat="47.92579" lon="7.0317">
        <ele>1160</ele>
        <time>2023-05-28T11:40:18Z</time>
      </trkpt>
      <trkpt lat="47.92586" lon="7.03161">
        <ele>1160</ele>
        <time>2023-05-28T11:40:28Z</time>
      </trkpt>
      <trkpt lat="47.9259" lon="7.03151">
        <ele>1160</ele>
        <time>2023-05-28T11:40:39Z</time>
      </trkpt>
      <trkpt lat="47.92587" lon="7.03139">
        <ele>1162</ele>
        <time>2023-05-28T11:41:04Z</time>
      </trkpt>
      <trkpt lat="47.92583" lon="7.03125">
        <ele>1163</ele>
        <time>2023-05-28T11:41:16Z</time>
      </trkpt>
      <trkpt lat="47.92577" lon="7.03114">
        <ele>1165</ele>
        <time>2023-05-28T11:41:33Z</time>
      </trkpt>
      <trkpt lat="47.92574" lon="7.03102">
        <ele>1166</ele>
        <time>2023-05-28T11:41:46Z</time>
      </trkpt>
      <trkpt lat="47.92572" lon="7.03089">
        <ele>1168</ele>
        <time>2023-05-28T11:41:58Z</time>
      </trkpt>
      <trkpt lat="47.92565" lon="7.0308">
        <ele>1170</ele>
        <time>2023-05-28T11:42:11Z</time>
      </trkpt>
      <trkpt lat="47.92555" lon="7.03077">
        <ele>1171</ele>
        <time>2023-05-28T11:42:23Z</time>
      </trkpt>
      <trkpt lat="47.92546" lon="7.03076">
        <ele>1172</ele>
        <time>2023-05-28T11:42:35Z</time>
      </trkpt>
      <trkpt lat="47.92543" lon="7.03062">
        <ele>1173</ele>
        <time>2023-05-28T11:42:46Z</time>
      </trkpt>
      <trkpt lat="47.92544" lon="7.03049">
        <ele>1174</ele>
        <time>2023-05-28T11:42:56Z</time>
      </trkpt>
      <trkpt lat="47.92547" lon="7.03039">
        <ele>1176</ele>
        <time>2023-05-28T11:43:15Z</time>
      </trkpt>
      <trkpt lat="47.92542" lon="7.03037">
        <ele>1177</ele>
        <time>2023-05-28T11:43:34Z</time>
      </trkpt>
      <trkpt lat="47.92533" lon="7.03038">
        <ele>1178</ele>
        <time>2023-05-28T11:43:46Z</time>
      </trkpt>
      <trkpt lat="47.92524" lon="7.03035">
        <ele>1179</ele>
        <time>2023-05-28T11:43:56Z</time>
      </trkpt>
      <trkpt lat="47.92514" lon="7.03034">
        <ele>1179</ele>
        <time>2023-05-28T11:44:06Z</time>
      </trkpt>
      <trkpt lat="47.92505" lon="7.03032">
        <ele>1179</ele>
        <time>2023-05-28T11:44:18Z</time>
      </trkpt>
      <trkpt lat="47.92496" lon="7.0303">
        <ele>1180</ele>
        <time>2023-05-28T11:44:30Z</time>
      </trkpt>
      <trkpt lat="47.92486" lon="7.0303">
        <ele>1180</ele>
        <time>2023-05-28T11:44:41Z</time>
      </trkpt>
      <trkpt lat="47.92477" lon="7.03028">
        <ele>1181</ele>
        <time>2023-05-28T11:44:51Z</time>
      </trkpt>
      <trkpt lat="47.92468" lon="7.03026">
        <ele>1182</ele>
        <time>2023-05-28T11:45:01Z</time>
      </trkpt>
      <trkpt lat="47.92458" lon="7.03026">
        <ele>1182</ele>
        <time>2023-05-28T11:45:11Z</time>
      </trkpt>
      <trkpt lat="47.92449" lon="7.03027">
        <ele>1182</ele>
        <time>2023-05-28T11:45:22Z</time>
      </trkpt>
      <trkpt lat="47.9244" lon="7.03029">
        <ele>1183</ele>
        <time>2023-05-28T11:45:33Z</time>
      </trkpt>
      <trkpt lat="47.92427" lon="7.03007">
        <ele>1184</ele>
        <time>2023-05-28T11:47:56Z</time>
      </trkpt>
      <trkpt lat="47.92419" lon="7.03006">
        <ele>1185</ele>
        <time>2023-05-28T11:48:09Z</time>
      </trkpt>
      <trkpt lat="47.92415" lon="7.03019">
        <ele>1185</ele>
        <time>2023-05-28T11:49:42Z</time>
      </trkpt>
      <trkpt lat="47.92412" lon="7.03033">
        <ele>1185</ele>
        <time>2023-05-28T11:49:52Z</time>
      </trkpt>
      <trkpt lat="47.9241" lon="7.03046">
        <ele>1184</ele>
        <time>2023-05-28T11:52:00Z</time>
      </trkpt>
      <trkpt lat="47.92404" lon="7.03055">
        <ele>1184</ele>
        <time>2023-05-28T11:52:09Z</time>
      </trkpt>
      <trkpt lat="47.92395" lon="7.03059">
        <ele>1184</ele>
        <time>2023-05-28T11:52:17Z</time>
      </trkpt>
      <trkpt lat="47.92387" lon="7.03066">
        <ele>1184</ele>
        <time>2023-05-28T11:52:26Z</time>
      </trkpt>
      <trkpt lat="47.92378" lon="7.03073">
        <ele>1183</ele>
        <time>2023-05-28T11:52:35Z</time>
      </trkpt>
      <trkpt lat="47.92371" lon="7.0308">
        <ele>1183</ele>
        <time>2023-05-28T11:52:43Z</time>
      </trkpt>
      <trkpt lat="47.92363" lon="7.03088">
        <ele>1183</ele>
        <time>2023-05-28T11:52:52Z</time>
      </trkpt>
      <trkpt lat="47.92356" lon="7.03098">
        <ele>1183</ele>
        <time>2023-05-28T11:53:01Z</time>
      </trkpt>
      <trkpt lat="47.92349" lon="7.03109">
        <ele>1182</ele>
        <time>2023-05-28T11:53:10Z</time>
      </trkpt>
      <trkpt lat="47.92343" lon="7.0312">
        <ele>1182</ele>
        <time>2023-05-28T11:53:20Z</time>
      </trkpt>
      <trkpt lat="47.92337" lon="7.0313">
        <ele>1182</ele>
        <time>2023-05-28T11:53:30Z</time>
      </trkpt>
      <trkpt lat="47.92331" lon="7.03143">
        <ele>1181</ele>
        <time>2023-05-28T11:53:39Z</time>
      </trkpt>
      <trkpt lat="47.92327" lon="7.03155">
        <ele>1181</ele>
        <time>2023-05-28T11:53:48Z</time>
      </trkpt>
      <trkpt lat="47.92323" lon="7.03168">
        <ele>1181</ele>
        <time>2023-05-28T11:53:56Z</time>
      </trkpt>
      <trkpt lat="47.92321" lon="7.03183">
        <ele>1181</ele>
        <time>2023-05-28T11:54:04Z</time>
      </trkpt>
      <trkpt lat="47.92318" lon="7.03197">
        <ele>1180</ele>
        <time>2023-05-28T11:54:12Z</time>
      </trkpt>
      <trkpt lat="47.92315" lon="7.0321">
        <ele>1180</ele>
        <time>2023-05-28T11:54:20Z</time>
      </trkpt>
      <trkpt lat="47.92312" lon="7.03224">
        <ele>1180</ele>
        <time>2023-05-28T11:54:29Z</time>
      </trkpt>
      <trkpt lat="47.9231" lon="7.03237">
        <ele>1180</ele>
        <time>2023-05-28T11:54:37Z</time>
      </trkpt>
      <trkpt lat="47.92307" lon="7.03251">
        <ele>1180</ele>
        <time>2023-05-28T11:54:45Z</time>
      </trkpt>
      <trkpt lat="47.92304" lon="7.03265">
        <ele>1180</ele>
        <time>2023-05-28T11:54:54Z</time>
      </trkpt>
      <trkpt lat="47.92302" lon="7.03278">
        <ele>1179</ele>
        <time>2023-05-28T11:55:03Z</time>
      </trkpt>
      <trkpt lat="47.92299" lon="7.03292">
        <ele>1178</ele>
        <time>2023-05-28T11:55:12Z</time>
      </trkpt>
      <trkpt lat="47.92295" lon="7.03305">
        <ele>1178</ele>
        <time>2023-05-28T11:55:21Z</time>
      </trkpt>
      <trkpt lat="47.92292" lon="7.03319">
        <ele>1177</ele>
        <time>2023-05-28T11:55:30Z</time>
      </trkpt>
      <trkpt lat="47.92289" lon="7.03332">
        <ele>1177</ele>
        <time>2023-05-28T11:55:39Z</time>
      </trkpt>
      <trkpt lat="47.92287" lon="7.03345">
        <ele>1176</ele>
        <time>2023-05-28T11:55:48Z</time>
      </trkpt>
      <trkpt lat="47.92284" lon="7.0336">
        <ele>1176</ele>
        <time>2023-05-28T11:55:57Z</time>
      </trkpt>
      <trkpt lat="47.92281" lon="7.03374">
        <ele>1175</ele>
        <time>2023-05-28T11:56:06Z</time>
      </trkpt>
      <trkpt lat="47.92278" lon="7.03387">
        <ele>1174</ele>
        <time>2023-05-28T11:56:15Z</time>
      </trkpt>
      <trkpt lat="47.92275" lon="7.03401">
        <ele>1173</ele>
        <time>2023-05-28T11:56:24Z</time>
      </trkpt>
      <trkpt lat="47.92275" lon="7.03416">
        <ele>1173</ele>
        <time>2023-05-28T11:56:33Z</time>
      </trkpt>
      <trkpt lat="47.92278" lon="7.03429">
        <ele>1172</ele>
        <time>2023-05-28T11:56:42Z</time>
      </trkpt>
      <trkpt lat="47.92281" lon="7.03442">
        <ele>1172</ele>
        <time>2023-05-28T11:56:54Z</time>
      </trkpt>
      <trkpt lat="47.92279" lon="7.03455">
        <ele>1171</ele>
        <time>2023-05-28T11:57:07Z</time>
      </trkpt>
      <trkpt lat="47.9228" lon="7.03469">
        <ele>1171</ele>
        <time>2023-05-28T11:57:15Z</time>
      </trkpt>
      <trkpt lat="47.92282" lon="7.03483">
        <ele>1171</ele>
        <time>2023-05-28T11:57:24Z</time>
      </trkpt>
      <trkpt lat="47.92283" lon="7.03496">
        <ele>1171</ele>
        <time>2023-05-28T11:57:33Z</time>
      </trkpt>
      <trkpt lat="47.92285" lon="7.0351">
        <ele>1172</ele>
        <time>2023-05-28T11:57:42Z</time>
      </trkpt>
      <trkpt lat="47.92288" lon="7.03523">
        <ele>1172</ele>
        <time>2023-05-28T11:57:52Z</time>
      </trkpt>
      <trkpt lat="47.92293" lon="7.03534">
        <ele>1172</ele>
        <time>2023-05-28T11:58:04Z</time>
      </trkpt>
      <trkpt lat="47.92299" lon="7.03545">
        <ele>1172</ele>
        <time>2023-05-28T11:58:14Z</time>
      </trkpt>
      <trkpt lat="47.92301" lon="7.03559">
        <ele>1173</ele>
        <time>2023-05-28T11:58:24Z</time>
      </trkpt>
      <trkpt lat="47.92303" lon="7.03572">
        <ele>1173</ele>
        <time>2023-05-28T11:58:34Z</time>
      </trkpt>
      <trkpt lat="47.92304" lon="7.03586">
        <ele>1173</ele>
        <time>2023-05-28T11:58:44Z</time>
      </trkpt>
      <trkpt lat="47.92306" lon="7.036">
        <ele>1174</ele>
        <time>2023-05-28T11:58:54Z</time>
      </trkpt>
      <trkpt lat="47.92306" lon="7.03614">
        <ele>1175</ele>
        <time>2023-05-28T11:59:04Z</time>
      </trkpt>
      <trkpt lat="47.92306" lon="7.03629">
        <ele>1175</ele>
        <time>2023-05-28T11:59:16Z</time>
      </trkpt>
      <trkpt lat="47.92306" lon="7.03643">
        <ele>1176</ele>
        <time>2023-05-28T11:59:27Z</time>
      </trkpt>
      <trkpt lat="47.92305" lon="7.03657">
        <ele>1177</ele>
        <time>2023-05-28T11:59:38Z</time>
      </trkpt>
      <trkpt lat="47.92304" lon="7.03672">
        <ele>1177</ele>
        <time>2023-05-28T11:59:49Z</time>
      </trkpt>
      <trkpt lat="47.92302" lon="7.03685">
        <ele>1178</ele>
        <time>2023-05-28T11:59:59Z</time>
      </trkpt>
      <trkpt lat="47.92296" lon="7.03697">
        <ele>1180</ele>
        <time>2023-05-28T12:00:10Z</time>
      </trkpt>
      <trkpt lat="47.92293" lon="7.0371">
        <ele>1181</ele>
        <time>2023-05-28T12:00:21Z</time>
      </trkpt>
      <trkpt lat="47.9229" lon="7.03723">
        <ele>1182</ele>
        <time>2023-05-28T12:00:31Z</time>
      </trkpt>
      <trkpt lat="47.92285" lon="7.03735">
        <ele>1183</ele>
        <time>2023-05-28T12:00:42Z</time>
      </trkpt>
      <trkpt lat="47.92281" lon="7.03748">
        <ele>1185</ele>
        <time>2023-05-28T12:00:52Z</time>
      </trkpt>
      <trkpt lat="47.9228" lon="7.03761">
        <ele>1186</ele>
        <time>2023-05-28T12:01:02Z</time>
      </trkpt>
      <trkpt lat="47.92277" lon="7.03775">
        <ele>1187</ele>
        <time>2023-05-28T12:01:12Z</time>
      </trkpt>
      <trkpt lat="47.92273" lon="7.03787">
        <ele>1187</ele>
        <time>2023-05-28T12:01:22Z</time>
      </trkpt>
      <trkpt lat="47.92269" lon="7.038">
        <ele>1188</ele>
        <time>2023-05-28T12:01:32Z</time>
      </trkpt>
      <trkpt lat="47.92265" lon="7.03813">
        <ele>1189</ele>
        <time>2023-05-28T12:01:41Z</time>
      </trkpt>
      <trkpt lat="47.9226" lon="7.03824">
        <ele>1190</ele>
        <time>2023-05-28T12:01:51Z</time>
      </trkpt>
      <trkpt lat="47.92255" lon="7.03836">
        <ele>1190</ele>
        <time>2023-05-28T12:02:01Z</time>
      </trkpt>
      <trkpt lat="47.9225" lon="7.03848">
        <ele>1191</ele>
        <time>2023-05-28T12:02:11Z</time>
      </trkpt>
      <trkpt lat="47.92246" lon="7.03861">
        <ele>1192</ele>
        <time>2023-05-28T12:02:21Z</time>
      </trkpt>
      <trkpt lat="47.92242" lon="7.03873">
        <ele>1193</ele>
        <time>2023-05-28T12:02:31Z</time>
      </trkpt>
      <trkpt lat="47.92237" lon="7.03884">
        <ele>1194</ele>
        <time>2023-05-28T12:02:41Z</time>
      </trkpt>
      <trkpt lat="47.92233" lon="7.03896">
        <ele>1196</ele>
        <time>2023-05-28T12:02:51Z</time>
      </trkpt>
      <trkpt lat="47.92229" lon="7.03908">
        <ele>1197</ele>
        <time>2023-05-28T12:03:02Z</time>
      </trkpt>
      <trkpt lat="47.92224" lon="7.03921">
        <ele>1198</ele>
        <time>2023-05-28T12:03:13Z</time>
      </trkpt>
      <trkpt lat="47.92219" lon="7.03932">
        <ele>1200</ele>
        <time>2023-05-28T12:03:24Z</time>
      </trkpt>
      <trkpt lat="47.92212" lon="7.03942">
        <ele>1201</ele>
        <time>2023-05-28T12:03:35Z</time>
      </trkpt>
      <trkpt lat="47.92206" lon="7.03952">
        <ele>1203</ele>
        <time>2023-05-28T12:03:45Z</time>
      </trkpt>
      <trkpt lat="47.922" lon="7.03962">
        <ele>1204</ele>
        <time>2023-05-28T12:03:55Z</time>
      </trkpt>
      <trkpt lat="47.92194" lon="7.03973">
        <ele>1205</ele>
        <time>2023-05-28T12:04:05Z</time>
      </trkpt>
      <trkpt lat="47.92189" lon="7.03986">
        <ele>1207</ele>
        <time>2023-05-28T12:04:16Z</time>
      </trkpt>
      <trkpt lat="47.92186" lon="7.03999">
        <ele>1208</ele>
        <time>2023-05-28T12:04:26Z</time>
      </trkpt>
      <trkpt lat="47.92182" lon="7.04012">
        <ele>1209</ele>
        <time>2023-05-28T12:04:36Z</time>
      </trkpt>
      <trkpt lat="47.92178" lon="7.04024">
        <ele>1210</ele>
        <time>2023-05-28T12:04:46Z</time>
      </trkpt>
      <trkpt lat="47.92172" lon="7.04035">
        <ele>1210</ele>
        <time>2023-05-28T12:04:56Z</time>
      </trkpt>
      <trkpt lat="47.92165" lon="7.04044">
        <ele>1211</ele>
        <time>2023-05-28T12:05:05Z</time>
      </trkpt>
      <trkpt lat="47.92157" lon="7.04051">
        <ele>1211</ele>
        <time>2023-05-28T12:05:14Z</time>
      </trkpt>
      <trkpt lat="47.92149" lon="7.04059">
        <ele>1212</ele>
        <time>2023-05-28T12:05:24Z</time>
      </trkpt>
      <trkpt lat="47.9214" lon="7.04066">
        <ele>1213</ele>
        <time>2023-05-28T12:05:35Z</time>
      </trkpt>
      <trkpt lat="47.92133" lon="7.04076">
        <ele>1214</ele>
        <time>2023-05-28T12:05:46Z</time>
      </trkpt>
      <trkpt lat="47.92124" lon="7.04082">
        <ele>1215</ele>
        <time>2023-05-28T12:05:57Z</time>
      </trkpt>
      <trkpt lat="47.92117" lon="7.04089">
        <ele>1216</ele>
        <time>2023-05-28T12:06:07Z</time>
      </trkpt>
      <trkpt lat="47.92112" lon="7.041">
        <ele>1217</ele>
        <time>2023-05-28T12:06:19Z</time>
      </trkpt>
      <trkpt lat="47.92104" lon="7.04108">
        <ele>1219</ele>
        <time>2023-05-28T12:06:34Z</time>
      </trkpt>
      <trkpt lat="47.92097" lon="7.04117">
        <ele>1221</ele>
        <time>2023-05-28T12:06:46Z</time>
      </trkpt>
      <trkpt lat="47.92091" lon="7.04128">
        <ele>1221</ele>
        <time>2023-05-28T12:06:55Z</time>
      </trkpt>
      <trkpt lat="47.92083" lon="7.04136">
        <ele>1221</ele>
        <time>2023-05-28T12:07:04Z</time>
      </trkpt>
      <trkpt lat="47.92076" lon="7.04146">
        <ele>1221</ele>
        <time>2023-05-28T12:07:13Z</time>
      </trkpt>
      <trkpt lat="47.92067" lon="7.04155">
        <ele>1221</ele>
        <time>2023-05-28T12:07:22Z</time>
      </trkpt>
      <trkpt lat="47.92059" lon="7.04162">
        <ele>1221</ele>
        <time>2023-05-28T12:07:32Z</time>
      </trkpt>
      <trkpt lat="47.92051" lon="7.04168">
        <ele>1221</ele>
        <time>2023-05-28T12:07:42Z</time>
      </trkpt>
      <trkpt lat="47.92042" lon="7.04173">
        <ele>1222</ele>
        <time>2023-05-28T12:07:53Z</time>
      </trkpt>
      <trkpt lat="47.92036" lon="7.04182">
        <ele>1224</ele>
        <time>2023-05-28T12:08:08Z</time>
      </trkpt>
      <trkpt lat="47.9203" lon="7.04193">
        <ele>1226</ele>
        <time>2023-05-28T12:08:23Z</time>
      </trkpt>
      <trkpt lat="47.92024" lon="7.04202">
        <ele>1229</ele>
        <time>2023-05-28T12:08:40Z</time>
      </trkpt>
      <trkpt lat="47.92017" lon="7.04211">
        <ele>1234</ele>
        <time>2023-05-28T12:13:41Z</time>
      </trkpt>
      <trkpt lat="47.9201" lon="7.0422">
        <ele>1234</ele>
        <time>2023-05-28T12:13:56Z</time>
      </trkpt>
      <trkpt lat="47.92002" lon="7.04225">
        <ele>1233</ele>
        <time>2023-05-28T12:14:10Z</time>
      </trkpt>
      <trkpt lat="47.91993" lon="7.04228">
        <ele>1232</ele>
        <time>2023-05-28T12:14:20Z</time>
      </trkpt>
      <trkpt lat="47.91984" lon="7.04234">
        <ele>1231</ele>
        <time>2023-05-28T12:14:31Z</time>
      </trkpt>
      <trkpt lat="47.91975" lon="7.04235">
        <ele>1230</ele>
        <time>2023-05-28T12:14:49Z</time>
      </trkpt>
      <trkpt lat="47.91966" lon="7.04237">
        <ele>1230</ele>
        <time>2023-05-28T12:15:01Z</time>
      </trkpt>
      <trkpt lat="47.91957" lon="7.04239">
        <ele>1230</ele>
        <time>2023-05-28T12:15:13Z</time>
      </trkpt>
      <trkpt lat="47.91947" lon="7.04243">
        <ele>1231</ele>
        <time>2023-05-28T12:15:26Z</time>
      </trkpt>
      <trkpt lat="47.91938" lon="7.04247">
        <ele>1231</ele>
        <time>2023-05-28T12:15:37Z</time>
      </trkpt>
      <trkpt lat="47.9193" lon="7.04252">
        <ele>1232</ele>
        <time>2023-05-28T12:15:48Z</time>
      </trkpt>
      <trkpt lat="47.91922" lon="7.04261">
        <ele>1232</ele>
        <time>2023-05-28T12:15:59Z</time>
      </trkpt>
      <trkpt lat="47.91914" lon="7.04268">
        <ele>1233</ele>
        <time>2023-05-28T12:16:11Z</time>
      </trkpt>
      <trkpt lat="47.91905" lon="7.04273">
        <ele>1233</ele>
        <time>2023-05-28T12:16:25Z</time>
      </trkpt>
      <trkpt lat="47.91898" lon="7.04283">
        <ele>1233</ele>
        <time>2023-05-28T12:16:38Z</time>
      </trkpt>
      <trkpt lat="47.91891" lon="7.04292">
        <ele>1232</ele>
        <time>2023-05-28T12:16:51Z</time>
      </trkpt>
      <trkpt lat="47.91883" lon="7.04298">
        <ele>1231</ele>
        <time>2023-05-28T12:17:01Z</time>
      </trkpt>
      <trkpt lat="47.91875" lon="7.04305">
        <ele>1231</ele>
        <time>2023-05-28T12:17:10Z</time>
      </trkpt>
      <trkpt lat="47.91866" lon="7.04312">
        <ele>1230</ele>
        <time>2023-05-28T12:17:19Z</time>
      </trkpt>
      <trkpt lat="47.91858" lon="7.0432">
        <ele>1230</ele>
        <time>2023-05-28T12:17:28Z</time>
      </trkpt>
      <trkpt lat="47.91851" lon="7.04328">
        <ele>1229</ele>
        <time>2023-05-28T12:17:38Z</time>
      </trkpt>
      <trkpt lat="47.91844" lon="7.04336">
        <ele>1229</ele>
        <time>2023-05-28T12:17:47Z</time>
      </trkpt>
      <trkpt lat="47.91837" lon="7.04345">
        <ele>1229</ele>
        <time>2023-05-28T12:17:56Z</time>
      </trkpt>
      <trkpt lat="47.91829" lon="7.04354">
        <ele>1229</ele>
        <time>2023-05-28T12:18:05Z</time>
      </trkpt>
      <trkpt lat="47.91821" lon="7.04363">
        <ele>1229</ele>
        <time>2023-05-28T12:18:14Z</time>
      </trkpt>
      <trkpt lat="47.91813" lon="7.04371">
        <ele>1229</ele>
        <time>2023-05-28T12:18:23Z</time>
      </trkpt>
      <trkpt lat="47.91805" lon="7.04378">
        <ele>1229</ele>
        <time>2023-05-28T12:18:32Z</time>
      </trkpt>
      <trkpt lat="47.91798" lon="7.04386">
        <ele>1229</ele>
        <time>2023-05-28T12:18:44Z</time>
      </trkpt>
      <trkpt lat="47.91791" lon="7.04395">
        <ele>1231</ele>
        <time>2023-05-28T12:18:56Z</time>
      </trkpt>
      <trkpt lat="47.91784" lon="7.04404">
        <ele>1232</ele>
        <time>2023-05-28T12:19:08Z</time>
      </trkpt>
      <trkpt lat="47.91778" lon="7.04413">
        <ele>1234</ele>
        <time>2023-05-28T12:19:20Z</time>
      </trkpt>
      <trkpt lat="47.91772" lon="7.04424">
        <ele>1234</ele>
        <time>2023-05-28T12:19:33Z</time>
      </trkpt>
      <trkpt lat="47.91764" lon="7.04432">
        <ele>1236</ele>
        <time>2023-05-28T12:19:56Z</time>
      </trkpt>
      <trkpt lat="47.91755" lon="7.04438">
        <ele>1236</ele>
        <time>2023-05-28T12:20:07Z</time>
      </trkpt>
      <trkpt lat="47.91747" lon="7.04445">
        <ele>1235</ele>
        <time>2023-05-28T12:20:16Z</time>
      </trkpt>
      <trkpt lat="47.91739" lon="7.04451">
        <ele>1234</ele>
        <time>2023-05-28T12:20:25Z</time>
      </trkpt>
      <trkpt lat="47.91731" lon="7.04457">
        <ele>1233</ele>
        <time>2023-05-28T12:20:34Z</time>
      </trkpt>
      <trkpt lat="47.91722" lon="7.04462">
        <ele>1233</ele>
        <time>2023-05-28T12:20:43Z</time>
      </trkpt>
      <trkpt lat="47.91714" lon="7.0447">
        <ele>1232</ele>
        <time>2023-05-28T12:20:52Z</time>
      </trkpt>
      <trkpt lat="47.91705" lon="7.04476">
        <ele>1232</ele>
        <time>2023-05-28T12:21:02Z</time>
      </trkpt>
      <trkpt lat="47.91697" lon="7.04482">
        <ele>1231</ele>
        <time>2023-05-28T12:21:11Z</time>
      </trkpt>
      <trkpt lat="47.91688" lon="7.04489">
        <ele>1231</ele>
        <time>2023-05-28T12:21:20Z</time>
      </trkpt>
      <trkpt lat="47.9168" lon="7.04496">
        <ele>1231</ele>
        <time>2023-05-28T12:21:29Z</time>
      </trkpt>
      <trkpt lat="47.91672" lon="7.04502">
        <ele>1230</ele>
        <time>2023-05-28T12:21:38Z</time>
      </trkpt>
      <trkpt lat="47.91668" lon="7.04513">
        <ele>1230</ele>
        <time>2023-05-28T12:21:49Z</time>
      </trkpt>
      <trkpt lat="47.91663" lon="7.04508">
        <ele>1231</ele>
        <time>2023-05-28T12:24:02Z</time>
      </trkpt>
      <trkpt lat="47.91655" lon="7.04515">
        <ele>1230</ele>
        <time>2023-05-28T12:24:10Z</time>
      </trkpt>
      <trkpt lat="47.91646" lon="7.04521">
        <ele>1230</ele>
        <time>2023-05-28T12:24:19Z</time>
      </trkpt>
      <trkpt lat="47.91637" lon="7.04527">
        <ele>1230</ele>
        <time>2023-05-28T12:24:29Z</time>
      </trkpt>
      <trkpt lat="47.91628" lon="7.04532">
        <ele>1229</ele>
        <time>2023-05-28T12:24:41Z</time>
      </trkpt>
      <trkpt lat="47.91619" lon="7.04535">
        <ele>1228</ele>
        <time>2023-05-28T12:24:51Z</time>
      </trkpt>
      <trkpt lat="47.9161" lon="7.04537">
        <ele>1227</ele>
        <time>2023-05-28T12:25:00Z</time>
      </trkpt>
      <trkpt lat="47.91601" lon="7.04539">
        <ele>1225</ele>
        <time>2023-05-28T12:25:10Z</time>
      </trkpt>
      <trkpt lat="47.91592" lon="7.04542">
        <ele>1224</ele>
        <time>2023-05-28T12:25:19Z</time>
      </trkpt>
      <trkpt lat="47.91583" lon="7.04545">
        <ele>1223</ele>
        <time>2023-05-28T12:25:28Z</time>
      </trkpt>
      <trkpt lat="47.91574" lon="7.04549">
        <ele>1221</ele>
        <time>2023-05-28T12:25:38Z</time>
      </trkpt>
      <trkpt lat="47.91565" lon="7.04553">
        <ele>1220</ele>
        <time>2023-05-28T12:25:49Z</time>
      </trkpt>
      <trkpt lat="47.91556" lon="7.04557">
        <ele>1220</ele>
        <time>2023-05-28T12:25:59Z</time>
      </trkpt>
      <trkpt lat="47.91546" lon="7.04561">
        <ele>1219</ele>
        <time>2023-05-28T12:26:09Z</time>
      </trkpt>
      <trkpt lat="47.91538" lon="7.04565">
        <ele>1218</ele>
        <time>2023-05-28T12:26:19Z</time>
      </trkpt>
      <trkpt lat="47.91529" lon="7.04567">
        <ele>1217</ele>
        <time>2023-05-28T12:26:28Z</time>
      </trkpt>
      <trkpt lat="47.9152" lon="7.0457">
        <ele>1215</ele>
        <time>2023-05-28T12:26:37Z</time>
      </trkpt>
      <trkpt lat="47.91511" lon="7.04573">
        <ele>1214</ele>
        <time>2023-05-28T12:26:46Z</time>
      </trkpt>
      <trkpt lat="47.91501" lon="7.04577">
        <ele>1214</ele>
        <time>2023-05-28T12:26:55Z</time>
      </trkpt>
      <trkpt lat="47.91492" lon="7.04581">
        <ele>1212</ele>
        <time>2023-05-28T12:27:04Z</time>
      </trkpt>
      <trkpt lat="47.91483" lon="7.04584">
        <ele>1211</ele>
        <time>2023-05-28T12:27:12Z</time>
      </trkpt>
      <trkpt lat="47.91474" lon="7.04587">
        <ele>1210</ele>
        <time>2023-05-28T12:27:20Z</time>
      </trkpt>
      <trkpt lat="47.91465" lon="7.04591">
        <ele>1209</ele>
        <time>2023-05-28T12:27:29Z</time>
      </trkpt>
      <trkpt lat="47.91456" lon="7.04594">
        <ele>1209</ele>
        <time>2023-05-28T12:27:38Z</time>
      </trkpt>
      <trkpt lat="47.91446" lon="7.04597">
        <ele>1208</ele>
        <time>2023-05-28T12:27:47Z</time>
      </trkpt>
      <trkpt lat="47.91437" lon="7.046">
        <ele>1208</ele>
        <time>2023-05-28T12:27:55Z</time>
      </trkpt>
      <trkpt lat="47.91428" lon="7.04604">
        <ele>1207</ele>
        <time>2023-05-28T12:28:04Z</time>
      </trkpt>
      <trkpt lat="47.91419" lon="7.04608">
        <ele>1207</ele>
        <time>2023-05-28T12:28:13Z</time>
      </trkpt>
      <trkpt lat="47.91412" lon="7.04617">
        <ele>1206</ele>
        <time>2023-05-28T12:28:23Z</time>
      </trkpt>
      <trkpt lat="47.91404" lon="7.04625">
        <ele>1206</ele>
        <time>2023-05-28T12:28:32Z</time>
      </trkpt>
      <trkpt lat="47.91397" lon="7.04634">
        <ele>1205</ele>
        <time>2023-05-28T12:28:42Z</time>
      </trkpt>
      <trkpt lat="47.91391" lon="7.04645">
        <ele>1205</ele>
        <time>2023-05-28T12:28:52Z</time>
      </trkpt>
      <trkpt lat="47.91385" lon="7.04655">
        <ele>1204</ele>
        <time>2023-05-28T12:29:02Z</time>
      </trkpt>
      <trkpt lat="47.91378" lon="7.04665">
        <ele>1204</ele>
        <time>2023-05-28T12:29:12Z</time>
      </trkpt>
      <trkpt lat="47.9137" lon="7.04672">
        <ele>1204</ele>
        <time>2023-05-28T12:29:22Z</time>
      </trkpt>
      <trkpt lat="47.91363" lon="7.04682">
        <ele>1205</ele>
        <time>2023-05-28T12:29:33Z</time>
      </trkpt>
      <trkpt lat="47.91356" lon="7.04692">
        <ele>1205</ele>
        <time>2023-05-28T12:29:45Z</time>
      </trkpt>
      <trkpt lat="47.91349" lon="7.04702">
        <ele>1204</ele>
        <time>2023-05-28T12:29:58Z</time>
      </trkpt>
      <trkpt lat="47.91343" lon="7.04711">
        <ele>1203</ele>
        <time>2023-05-28T12:30:09Z</time>
      </trkpt>
      <trkpt lat="47.91336" lon="7.04721">
        <ele>1202</ele>
        <time>2023-05-28T12:30:21Z</time>
      </trkpt>
      <trkpt lat="47.9133" lon="7.0473">
        <ele>1201</ele>
        <time>2023-05-28T12:30:34Z</time>
      </trkpt>
      <trkpt lat="47.91323" lon="7.0474">
        <ele>1199</ele>
        <time>2023-05-28T12:30:49Z</time>
      </trkpt>
      <trkpt lat="47.91317" lon="7.0475">
        <ele>1198</ele>
        <time>2023-05-28T12:31:05Z</time>
      </trkpt>
      <trkpt lat="47.9131" lon="7.04759">
        <ele>1196</ele>
        <time>2023-05-28T12:31:21Z</time>
      </trkpt>
      <trkpt lat="47.91303" lon="7.04768">
        <ele>1194</ele>
        <time>2023-05-28T12:31:38Z</time>
      </trkpt>
      <trkpt lat="47.91299" lon="7.0478">
        <ele>1191</ele>
        <time>2023-05-28T12:31:53Z</time>
      </trkpt>
      <trkpt lat="47.91292" lon="7.04789">
        <ele>1189</ele>
        <time>2023-05-28T12:32:06Z</time>
      </trkpt>
      <trkpt lat="47.91284" lon="7.04797">
        <ele>1188</ele>
        <time>2023-05-28T12:32:19Z</time>
      </trkpt>
      <trkpt lat="47.91277" lon="7.04806">
        <ele>1185</ele>
        <time>2023-05-28T12:32:33Z</time>
      </trkpt>
      <trkpt lat="47.9127" lon="7.04816">
        <ele>1183</ele>
        <time>2023-05-28T12:32:46Z</time>
      </trkpt>
      <trkpt lat="47.91263" lon="7.04825">
        <ele>1182</ele>
        <time>2023-05-28T12:32:59Z</time>
      </trkpt>
      <trkpt lat="47.91257" lon="7.04835">
        <ele>1180</ele>
        <time>2023-05-28T12:33:09Z</time>
      </trkpt>
      <trkpt lat="47.9125" lon="7.04846">
        <ele>1179</ele>
        <time>2023-05-28T12:33:19Z</time>
      </trkpt>
      <trkpt lat="47.91241" lon="7.04853">
        <ele>1179</ele>
        <time>2023-05-28T12:33:28Z</time>
      </trkpt>
      <trkpt lat="47.91234" lon="7.04862">
        <ele>1178</ele>
        <time>2023-05-28T12:33:38Z</time>
      </trkpt>
      <trkpt lat="47.91227" lon="7.04871">
        <ele>1178</ele>
        <time>2023-05-28T12:33:48Z</time>
      </trkpt>
      <trkpt lat="47.9122" lon="7.04879">
        <ele>1177</ele>
        <time>2023-05-28T12:33:59Z</time>
      </trkpt>
      <trkpt lat="47.91214" lon="7.0489">
        <ele>1177</ele>
        <time>2023-05-28T12:34:09Z</time>
      </trkpt>
      <trkpt lat="47.91207" lon="7.049">
        <ele>1176</ele>
        <time>2023-05-28T12:34:20Z</time>
      </trkpt>
      <trkpt lat="47.91202" lon="7.04912">
        <ele>1176</ele>
        <time>2023-05-28T12:34:33Z</time>
      </trkpt>
      <trkpt lat="47.91196" lon="7.04922">
        <ele>1175</ele>
        <time>2023-05-28T12:34:52Z</time>
      </trkpt>
      <trkpt lat="47.91189" lon="7.04931">
        <ele>1175</ele>
        <time>2023-05-28T12:35:00Z</time>
      </trkpt>
      <trkpt lat="47.91181" lon="7.04939">
        <ele>1175</ele>
        <time>2023-05-28T12:35:10Z</time>
      </trkpt>
      <trkpt lat="47.91174" lon="7.04948">
        <ele>1174</ele>
        <time>2023-05-28T12:35:21Z</time>
      </trkpt>
      <trkpt lat="47.91167" lon="7.04958">
        <ele>1174</ele>
        <time>2023-05-28T12:35:35Z</time>
      </trkpt>
      <trkpt lat="47.91159" lon="7.04965">
        <ele>1175</ele>
        <time>2023-05-28T12:35:50Z</time>
      </trkpt>
      <trkpt lat="47.91152" lon="7.04973">
        <ele>1176</ele>
        <time>2023-05-28T12:36:07Z</time>
      </trkpt>
      <trkpt lat="47.91145" lon="7.04982">
        <ele>1176</ele>
        <time>2023-05-28T12:36:21Z</time>
      </trkpt>
      <trkpt lat="47.91138" lon="7.04991">
        <ele>1177</ele>
        <time>2023-05-28T12:36:36Z</time>
      </trkpt>
      <trkpt lat="47.91131" lon="7.04999">
        <ele>1178</ele>
        <time>2023-05-28T12:36:52Z</time>
      </trkpt>
      <trkpt lat="47.91126" lon="7.0501">
        <ele>1179</ele>
        <time>2023-05-28T12:37:09Z</time>
      </trkpt>
      <trkpt lat="47.91118" lon="7.05018">
        <ele>1181</ele>
        <time>2023-05-28T12:37:26Z</time>
      </trkpt>
      <trkpt lat="47.91113" lon="7.05028">
        <ele>1182</ele>
        <time>2023-05-28T12:37:38Z</time>
      </trkpt>
      <trkpt lat="47.91106" lon="7.05038">
        <ele>1184</ele>
        <time>2023-05-28T12:37:54Z</time>
      </trkpt>
      <trkpt lat="47.91099" lon="7.05048">
        <ele>1185</ele>
        <time>2023-05-28T12:38:06Z</time>
      </trkpt>
      <trkpt lat="47.91092" lon="7.05056">
        <ele>1186</ele>
        <time>2023-05-28T12:38:17Z</time>
      </trkpt>
      <trkpt lat="47.91085" lon="7.05065">
        <ele>1187</ele>
        <time>2023-05-28T12:38:29Z</time>
      </trkpt>
      <trkpt lat="47.9108" lon="7.05077">
        <ele>1188</ele>
        <time>2023-05-28T12:38:40Z</time>
      </trkpt>
      <trkpt lat="47.91074" lon="7.05088">
        <ele>1188</ele>
        <time>2023-05-28T12:38:50Z</time>
      </trkpt>
      <trkpt lat="47.91073" lon="7.05102">
        <ele>1188</ele>
        <time>2023-05-28T12:39:00Z</time>
      </trkpt>
      <trkpt lat="47.91072" lon="7.05115">
        <ele>1189</ele>
        <time>2023-05-28T12:39:10Z</time>
      </trkpt>
      <trkpt lat="47.91071" lon="7.05129">
        <ele>1189</ele>
        <time>2023-05-28T12:39:20Z</time>
      </trkpt>
      <trkpt lat="47.9107" lon="7.05143">
        <ele>1188</ele>
        <time>2023-05-28T12:39:31Z</time>
      </trkpt>
      <trkpt lat="47.9107" lon="7.05157">
        <ele>1187</ele>
        <time>2023-05-28T12:39:42Z</time>
      </trkpt>
      <trkpt lat="47.91069" lon="7.05171">
        <ele>1186</ele>
        <time>2023-05-28T12:39:52Z</time>
      </trkpt>
      <trkpt lat="47.91067" lon="7.05185">
        <ele>1185</ele>
        <time>2023-05-28T12:40:02Z</time>
      </trkpt>
      <trkpt lat="47.91067" lon="7.05198">
        <ele>1184</ele>
        <time>2023-05-28T12:40:11Z</time>
      </trkpt>
      <trkpt lat="47.91066" lon="7.05213">
        <ele>1183</ele>
        <time>2023-05-28T12:40:20Z</time>
      </trkpt>
      <trkpt lat="47.91065" lon="7.05226">
        <ele>1182</ele>
        <time>2023-05-28T12:40:30Z</time>
      </trkpt>
      <trkpt lat="47.91064" lon="7.05241">
        <ele>1182</ele>
        <time>2023-05-28T12:40:40Z</time>
      </trkpt>
      <trkpt lat="47.91065" lon="7.05256">
        <ele>1182</ele>
        <time>2023-05-28T12:40:49Z</time>
      </trkpt>
      <trkpt lat="47.91064" lon="7.0527">
        <ele>1182</ele>
        <time>2023-05-28T12:40:59Z</time>
      </trkpt>
      <trkpt lat="47.91067" lon="7.05282">
        <ele>1183</ele>
        <time>2023-05-28T12:41:12Z</time>
      </trkpt>
      <trkpt lat="47.91071" lon="7.05294">
        <ele>1184</ele>
        <time>2023-05-28T12:41:29Z</time>
      </trkpt>
      <trkpt lat="47.91074" lon="7.05308">
        <ele>1186</ele>
        <time>2023-05-28T12:41:48Z</time>
      </trkpt>
      <trkpt lat="47.91074" lon="7.05322">
        <ele>1188</ele>
        <time>2023-05-28T12:42:00Z</time>
      </trkpt>
      <trkpt lat="47.91071" lon="7.05335">
        <ele>1189</ele>
        <time>2023-05-28T12:42:12Z</time>
      </trkpt>
      <trkpt lat="47.9107" lon="7.05349">
        <ele>1191</ele>
        <time>2023-05-28T12:42:28Z</time>
      </trkpt>
      <trkpt lat="47.91071" lon="7.05363">
        <ele>1192</ele>
        <time>2023-05-28T12:42:42Z</time>
      </trkpt>
      <trkpt lat="47.91073" lon="7.05377">
        <ele>1194</ele>
        <time>2023-05-28T12:42:56Z</time>
      </trkpt>
      <trkpt lat="47.91074" lon="7.05391">
        <ele>1195</ele>
        <time>2023-05-28T12:43:09Z</time>
      </trkpt>
      <trkpt lat="47.91071" lon="7.05404">
        <ele>1197</ele>
        <time>2023-05-28T12:43:21Z</time>
      </trkpt>
      <trkpt lat="47.91073" lon="7.05418">
        <ele>1198</ele>
        <time>2023-05-28T12:43:33Z</time>
      </trkpt>
      <trkpt lat="47.91075" lon="7.05431">
        <ele>1199</ele>
        <time>2023-05-28T12:43:44Z</time>
      </trkpt>
      <trkpt lat="47.91077" lon="7.05445">
        <ele>1201</ele>
        <time>2023-05-28T12:43:56Z</time>
      </trkpt>
      <trkpt lat="47.91078" lon="7.05458">
        <ele>1202</ele>
        <time>2023-05-28T12:44:10Z</time>
      </trkpt>
      <trkpt lat="47.91079" lon="7.05471">
        <ele>1204</ele>
        <time>2023-05-28T12:44:26Z</time>
      </trkpt>
      <trkpt lat="47.91078" lon="7.05485">
        <ele>1205</ele>
        <time>2023-05-28T12:44:49Z</time>
      </trkpt>
      <trkpt lat="47.91079" lon="7.05499">
        <ele>1206</ele>
        <time>2023-05-28T12:44:59Z</time>
      </trkpt>
      <trkpt lat="47.91082" lon="7.05512">
        <ele>1206</ele>
        <time>2023-05-28T12:45:10Z</time>
      </trkpt>
      <trkpt lat="47.91084" lon="7.05526">
        <ele>1206</ele>
        <time>2023-05-28T12:45:21Z</time>
      </trkpt>
      <trkpt lat="47.91085" lon="7.05539">
        <ele>1206</ele>
        <time>2023-05-28T12:45:31Z</time>
      </trkpt>
      <trkpt lat="47.91086" lon="7.05553">
        <ele>1206</ele>
        <time>2023-05-28T12:45:51Z</time>
      </trkpt>
      <trkpt lat="47.91087" lon="7.05567">
        <ele>1206</ele>
        <time>2023-05-28T12:46:05Z</time>
      </trkpt>
      <trkpt lat="47.91086" lon="7.05581">
        <ele>1206</ele>
        <time>2023-05-28T12:46:14Z</time>
      </trkpt>
      <trkpt lat="47.91084" lon="7.05595">
        <ele>1206</ele>
        <time>2023-05-28T12:46:24Z</time>
      </trkpt>
      <trkpt lat="47.91081" lon="7.05608">
        <ele>1206</ele>
        <time>2023-05-28T12:46:34Z</time>
      </trkpt>
      <trkpt lat="47.9108" lon="7.05622">
        <ele>1207</ele>
        <time>2023-05-28T12:46:46Z</time>
      </trkpt>
      <trkpt lat="47.91081" lon="7.05635">
        <ele>1208</ele>
        <time>2023-05-28T12:46:57Z</time>
      </trkpt>
      <trkpt lat="47.91082" lon="7.05649">
        <ele>1208</ele>
        <time>2023-05-28T12:47:07Z</time>
      </trkpt>
      <trkpt lat="47.91081" lon="7.05664">
        <ele>1208</ele>
        <time>2023-05-28T12:47:17Z</time>
      </trkpt>
      <trkpt lat="47.91083" lon="7.05678">
        <ele>1208</ele>
        <time>2023-05-28T12:47:26Z</time>
      </trkpt>
      <trkpt lat="47.91082" lon="7.05692">
        <ele>1208</ele>
        <time>2023-05-28T12:47:36Z</time>
      </trkpt>
      <trkpt lat="47.91082" lon="7.05707">
        <ele>1208</ele>
        <time>2023-05-28T12:47:46Z</time>
      </trkpt>
      <trkpt lat="47.91082" lon="7.0572">
        <ele>1208</ele>
        <time>2023-05-28T12:48:01Z</time>
      </trkpt>
      <trkpt lat="47.91083" lon="7.05734">
        <ele>1207</ele>
        <time>2023-05-28T12:48:11Z</time>
      </trkpt>
      <trkpt lat="47.91085" lon="7.05748">
        <ele>1207</ele>
        <time>2023-05-28T12:48:21Z</time>
      </trkpt>
      <trkpt lat="47.9109" lon="7.0576">
        <ele>1207</ele>
        <time>2023-05-28T12:48:34Z</time>
      </trkpt>
      <trkpt lat="47.91093" lon="7.05773">
        <ele>1207</ele>
        <time>2023-05-28T12:48:45Z</time>
      </trkpt>
      <trkpt lat="47.91099" lon="7.05785">
        <ele>1208</ele>
        <time>2023-05-28T12:48:57Z</time>
      </trkpt>
      <trkpt lat="47.91099" lon="7.05799">
        <ele>1208</ele>
        <time>2023-05-28T12:49:07Z</time>
      </trkpt>
      <trkpt lat="47.911" lon="7.05813">
        <ele>1207</ele>
        <time>2023-05-28T12:49:16Z</time>
      </trkpt>
      <trkpt lat="47.91101" lon="7.05828">
        <ele>1207</ele>
        <time>2023-05-28T12:49:26Z</time>
      </trkpt>
      <trkpt lat="47.911" lon="7.05841">
        <ele>1207</ele>
        <time>2023-05-28T12:49:36Z</time>
      </trkpt>
      <trkpt lat="47.91104" lon="7.05854">
        <ele>1207</ele>
        <time>2023-05-28T12:49:49Z</time>
      </trkpt>
      <trkpt lat="47.91109" lon="7.05864">
        <ele>1206</ele>
        <time>2023-05-28T12:50:00Z</time>
      </trkpt>
      <trkpt lat="47.91115" lon="7.05876">
        <ele>1206</ele>
        <time>2023-05-28T12:50:13Z</time>
      </trkpt>
      <trkpt lat="47.91121" lon="7.05887">
        <ele>1206</ele>
        <time>2023-05-28T12:50:25Z</time>
      </trkpt>
      <trkpt lat="47.91126" lon="7.05899">
        <ele>1205</ele>
        <time>2023-05-28T12:50:38Z</time>
      </trkpt>
      <trkpt lat="47.91131" lon="7.0591">
        <ele>1203</ele>
        <time>2023-05-28T12:50:55Z</time>
      </trkpt>
      <trkpt lat="47.91138" lon="7.05919">
        <ele>1202</ele>
        <time>2023-05-28T12:51:04Z</time>
      </trkpt>
      <trkpt lat="47.91143" lon="7.0593">
        <ele>1201</ele>
        <time>2023-05-28T12:51:13Z</time>
      </trkpt>
      <trkpt lat="47.91146" lon="7.05943">
        <ele>1200</ele>
        <time>2023-05-28T12:51:24Z</time>
      </trkpt>
      <trkpt lat="47.91146" lon="7.05957">
        <ele>1199</ele>
        <time>2023-05-28T12:51:36Z</time>
      </trkpt>
      <trkpt lat="47.91151" lon="7.05969">
        <ele>1198</ele>
        <time>2023-05-28T12:51:47Z</time>
      </trkpt>
      <trkpt lat="47.91154" lon="7.05983">
        <ele>1198</ele>
        <time>2023-05-28T12:51:56Z</time>
      </trkpt>
      <trkpt lat="47.91157" lon="7.05997">
        <ele>1197</ele>
        <time>2023-05-28T12:52:05Z</time>
      </trkpt>
      <trkpt lat="47.91158" lon="7.0601">
        <ele>1196</ele>
        <time>2023-05-28T12:52:16Z</time>
      </trkpt>
      <trkpt lat="47.91158" lon="7.06024">
        <ele>1195</ele>
        <time>2023-05-28T12:52:33Z</time>
      </trkpt>
      <trkpt lat="47.91158" lon="7.06037">
        <ele>1195</ele>
        <time>2023-05-28T12:52:46Z</time>
      </trkpt>
      <trkpt lat="47.91158" lon="7.06051">
        <ele>1195</ele>
        <time>2023-05-28T12:52:59Z</time>
      </trkpt>
      <trkpt lat="47.91158" lon="7.06065">
        <ele>1196</ele>
        <time>2023-05-28T12:53:23Z</time>
      </trkpt>
      <trkpt lat="47.91157" lon="7.06078">
        <ele>1196</ele>
        <time>2023-05-28T12:53:35Z</time>
      </trkpt>
      <trkpt lat="47.91155" lon="7.06091">
        <ele>1196</ele>
        <time>2023-05-28T12:53:47Z</time>
      </trkpt>
      <trkpt lat="47.91152" lon="7.06104">
        <ele>1197</ele>
        <time>2023-05-28T12:53:57Z</time>
      </trkpt>
      <trkpt lat="47.9115" lon="7.06118">
        <ele>1197</ele>
        <time>2023-05-28T12:54:09Z</time>
      </trkpt>
      <trkpt lat="47.91146" lon="7.0613">
        <ele>1198</ele>
        <time>2023-05-28T12:54:20Z</time>
      </trkpt>
      <trkpt lat="47.91143" lon="7.06144">
        <ele>1198</ele>
        <time>2023-05-28T12:54:29Z</time>
      </trkpt>
      <trkpt lat="47.91138" lon="7.06156">
        <ele>1198</ele>
        <time>2023-05-28T12:54:40Z</time>
      </trkpt>
      <trkpt lat="47.91135" lon="7.06169">
        <ele>1198</ele>
        <time>2023-05-28T12:54:54Z</time>
      </trkpt>
      <trkpt lat="47.91132" lon="7.06182">
        <ele>1198</ele>
        <time>2023-05-28T12:55:05Z</time>
      </trkpt>
      <trkpt lat="47.9113" lon="7.06195">
        <ele>1199</ele>
        <time>2023-05-28T12:55:15Z</time>
      </trkpt>
      <trkpt lat="47.91127" lon="7.06209">
        <ele>1199</ele>
        <time>2023-05-28T12:55:25Z</time>
      </trkpt>
      <trkpt lat="47.91123" lon="7.06222">
        <ele>1199</ele>
        <time>2023-05-28T12:55:37Z</time>
      </trkpt>
      <trkpt lat="47.9112" lon="7.06236">
        <ele>1199</ele>
        <time>2023-05-28T12:55:47Z</time>
      </trkpt>
      <trkpt lat="47.91119" lon="7.0625">
        <ele>1199</ele>
        <time>2023-05-28T12:55:57Z</time>
      </trkpt>
      <trkpt lat="47.91119" lon="7.06264">
        <ele>1199</ele>
        <time>2023-05-28T12:56:07Z</time>
      </trkpt>
      <trkpt lat="47.91119" lon="7.06278">
        <ele>1199</ele>
        <time>2023-05-28T12:56:18Z</time>
      </trkpt>
      <trkpt lat="47.91119" lon="7.06292">
        <ele>1199</ele>
        <time>2023-05-28T12:56:27Z</time>
      </trkpt>
      <trkpt lat="47.9112" lon="7.06306">
        <ele>1199</ele>
        <time>2023-05-28T12:56:39Z</time>
      </trkpt>
      <trkpt lat="47.91117" lon="7.06319">
        <ele>1200</ele>
        <time>2023-05-28T12:56:49Z</time>
      </trkpt>
      <trkpt lat="47.91116" lon="7.06333">
        <ele>1200</ele>
        <time>2023-05-28T12:56:59Z</time>
      </trkpt>
      <trkpt lat="47.91114" lon="7.06346">
        <ele>1201</ele>
        <time>2023-05-28T12:57:07Z</time>
      </trkpt>
      <trkpt lat="47.9111" lon="7.06359">
        <ele>1201</ele>
        <time>2023-05-28T12:57:17Z</time>
      </trkpt>
      <trkpt lat="47.91106" lon="7.06372">
        <ele>1201</ele>
        <time>2023-05-28T12:57:26Z</time>
      </trkpt>
      <trkpt lat="47.91101" lon="7.06384">
        <ele>1201</ele>
        <time>2023-05-28T12:57:36Z</time>
      </trkpt>
      <trkpt lat="47.91096" lon="7.06395">
        <ele>1201</ele>
        <time>2023-05-28T12:57:45Z</time>
      </trkpt>
      <trkpt lat="47.91092" lon="7.06407">
        <ele>1201</ele>
        <time>2023-05-28T12:57:53Z</time>
      </trkpt>
      <trkpt lat="47.91088" lon="7.0642">
        <ele>1200</ele>
        <time>2023-05-28T12:58:02Z</time>
      </trkpt>
      <trkpt lat="47.91083" lon="7.06432">
        <ele>1200</ele>
        <time>2023-05-28T12:58:11Z</time>
      </trkpt>
      <trkpt lat="47.91076" lon="7.06442">
        <ele>1200</ele>
        <time>2023-05-28T12:58:21Z</time>
      </trkpt>
      <trkpt lat="47.91072" lon="7.06455">
        <ele>1200</ele>
        <time>2023-05-28T12:58:32Z</time>
      </trkpt>
      <trkpt lat="47.91068" lon="7.06468">
        <ele>1200</ele>
        <time>2023-05-28T12:58:41Z</time>
      </trkpt>
      <trkpt lat="47.91062" lon="7.06478">
        <ele>1200</ele>
        <time>2023-05-28T12:58:52Z</time>
      </trkpt>
      <trkpt lat="47.91057" lon="7.06489">
        <ele>1200</ele>
        <time>2023-05-28T12:59:02Z</time>
      </trkpt>
      <trkpt lat="47.91052" lon="7.065">
        <ele>1200</ele>
        <time>2023-05-28T12:59:16Z</time>
      </trkpt>
      <trkpt lat="47.91046" lon="7.06512">
        <ele>1200</ele>
        <time>2023-05-28T12:59:25Z</time>
      </trkpt>
      <trkpt lat="47.91039" lon="7.06522">
        <ele>1199</ele>
        <time>2023-05-28T12:59:35Z</time>
      </trkpt>
      <trkpt lat="47.91033" lon="7.06532">
        <ele>1199</ele>
        <time>2023-05-28T12:59:46Z</time>
      </trkpt>
      <trkpt lat="47.91027" lon="7.06542">
        <ele>1199</ele>
        <time>2023-05-28T12:59:56Z</time>
      </trkpt>
      <trkpt lat="47.91022" lon="7.06553">
        <ele>1199</ele>
        <time>2023-05-28T13:00:05Z</time>
      </trkpt>
      <trkpt lat="47.91016" lon="7.06563">
        <ele>1200</ele>
        <time>2023-05-28T13:00:14Z</time>
      </trkpt>
      <trkpt lat="47.91009" lon="7.06574">
        <ele>1200</ele>
        <time>2023-05-28T13:00:23Z</time>
      </trkpt>
      <trkpt lat="47.91003" lon="7.06585">
        <ele>1200</ele>
        <time>2023-05-28T13:00:32Z</time>
      </trkpt>
      <trkpt lat="47.90998" lon="7.06598">
        <ele>1200</ele>
        <time>2023-05-28T13:00:42Z</time>
      </trkpt>
      <trkpt lat="47.90991" lon="7.06608">
        <ele>1200</ele>
        <time>2023-05-28T13:00:52Z</time>
      </trkpt>
      <trkpt lat="47.90985" lon="7.06619">
        <ele>1200</ele>
        <time>2023-05-28T13:01:01Z</time>
      </trkpt>
      <trkpt lat="47.90979" lon="7.06629">
        <ele>1200</ele>
        <time>2023-05-28T13:01:10Z</time>
      </trkpt>
      <trkpt lat="47.90972" lon="7.06638">
        <ele>1200</ele>
        <time>2023-05-28T13:01:20Z</time>
      </trkpt>
      <trkpt lat="47.90965" lon="7.06647">
        <ele>1199</ele>
        <time>2023-05-28T13:01:29Z</time>
      </trkpt>
      <trkpt lat="47.90958" lon="7.06656">
        <ele>1198</ele>
        <time>2023-05-28T13:01:38Z</time>
      </trkpt>
      <trkpt lat="47.9095" lon="7.06663">
        <ele>1197</ele>
        <time>2023-05-28T13:01:53Z</time>
      </trkpt>
      <trkpt lat="47.90942" lon="7.0667">
        <ele>1195</ele>
        <time>2023-05-28T13:05:10Z</time>
      </trkpt>
      <trkpt lat="47.90933" lon="7.06672">
        <ele>1194</ele>
        <time>2023-05-28T13:05:19Z</time>
      </trkpt>
      <trkpt lat="47.90924" lon="7.06673">
        <ele>1194</ele>
        <time>2023-05-28T13:05:31Z</time>
      </trkpt>
      <trkpt lat="47.90916" lon="7.06668">
        <ele>1193</ele>
        <time>2023-05-28T13:05:45Z</time>
      </trkpt>
      <trkpt lat="47.90907" lon="7.06662">
        <ele>1192</ele>
        <time>2023-05-28T13:05:57Z</time>
      </trkpt>
      <trkpt lat="47.90897" lon="7.0666">
        <ele>1191</ele>
        <time>2023-05-28T13:06:09Z</time>
      </trkpt>
      <trkpt lat="47.90888" lon="7.06659">
        <ele>1189</ele>
        <time>2023-05-28T13:06:18Z</time>
      </trkpt>
      <trkpt lat="47.9088" lon="7.06655">
        <ele>1187</ele>
        <time>2023-05-28T13:06:29Z</time>
      </trkpt>
      <trkpt lat="47.90872" lon="7.06645">
        <ele>1183</ele>
        <time>2023-05-28T13:07:04Z</time>
      </trkpt>
      <trkpt lat="47.90862" lon="7.06645">
        <ele>1182</ele>
        <time>2023-05-28T13:07:16Z</time>
      </trkpt>
      <trkpt lat="47.90853" lon="7.06644">
        <ele>1181</ele>
        <time>2023-05-28T13:07:25Z</time>
      </trkpt>
      <trkpt lat="47.90844" lon="7.06641">
        <ele>1180</ele>
        <time>2023-05-28T13:07:37Z</time>
      </trkpt>
      <trkpt lat="47.90834" lon="7.06639">
        <ele>1179</ele>
        <time>2023-05-28T13:07:48Z</time>
      </trkpt>
      <trkpt lat="47.90825" lon="7.06638">
        <ele>1179</ele>
        <time>2023-05-28T13:07:59Z</time>
      </trkpt>
      <trkpt lat="47.90816" lon="7.06638">
        <ele>1178</ele>
        <time>2023-05-28T13:08:09Z</time>
      </trkpt>
      <trkpt lat="47.90807" lon="7.06638">
        <ele>1177</ele>
        <time>2023-05-28T13:08:19Z</time>
      </trkpt>
      <trkpt lat="47.90797" lon="7.06637">
        <ele>1176</ele>
        <time>2023-05-28T13:08:30Z</time>
      </trkpt>
      <trkpt lat="47.90788" lon="7.06638">
        <ele>1175</ele>
        <time>2023-05-28T13:08:51Z</time>
      </trkpt>
      <trkpt lat="47.90779" lon="7.06637">
        <ele>1174</ele>
        <time>2023-05-28T13:09:02Z</time>
      </trkpt>
      <trkpt lat="47.90769" lon="7.06637">
        <ele>1173</ele>
        <time>2023-05-28T13:09:12Z</time>
      </trkpt>
      <trkpt lat="47.9076" lon="7.06638">
        <ele>1173</ele>
        <time>2023-05-28T13:09:22Z</time>
      </trkpt>
      <trkpt lat="47.9075" lon="7.06638">
        <ele>1172</ele>
        <time>2023-05-28T13:09:34Z</time>
      </trkpt>
      <trkpt lat="47.90741" lon="7.06637">
        <ele>1172</ele>
        <time>2023-05-28T13:09:45Z</time>
      </trkpt>
      <trkpt lat="47.90731" lon="7.06635">
        <ele>1172</ele>
        <time>2023-05-28T13:09:55Z</time>
      </trkpt>
      <trkpt lat="47.90722" lon="7.06635">
        <ele>1173</ele>
        <time>2023-05-28T13:10:09Z</time>
      </trkpt>
      <trkpt lat="47.90713" lon="7.06635">
        <ele>1173</ele>
        <time>2023-05-28T13:10:20Z</time>
      </trkpt>
      <trkpt lat="47.90703" lon="7.06633">
        <ele>1174</ele>
        <time>2023-05-28T13:10:31Z</time>
      </trkpt>
      <trkpt lat="47.90695" lon="7.06631">
        <ele>1174</ele>
        <time>2023-05-28T13:10:42Z</time>
      </trkpt>
      <trkpt lat="47.90685" lon="7.06629">
        <ele>1175</ele>
        <time>2023-05-28T13:10:56Z</time>
      </trkpt>
      <trkpt lat="47.90675" lon="7.06628">
        <ele>1175</ele>
        <time>2023-05-28T13:11:07Z</time>
      </trkpt>
      <trkpt lat="47.90666" lon="7.06625">
        <ele>1176</ele>
        <time>2023-05-28T13:11:16Z</time>
      </trkpt>
      <trkpt lat="47.90657" lon="7.06622">
        <ele>1177</ele>
        <time>2023-05-28T13:11:32Z</time>
      </trkpt>
      <trkpt lat="47.90647" lon="7.06622">
        <ele>1178</ele>
        <time>2023-05-28T13:11:43Z</time>
      </trkpt>
      <trkpt lat="47.90638" lon="7.06623">
        <ele>1178</ele>
        <time>2023-05-28T13:11:54Z</time>
      </trkpt>
      <trkpt lat="47.90628" lon="7.06624">
        <ele>1179</ele>
        <time>2023-05-28T13:12:06Z</time>
      </trkpt>
      <trkpt lat="47.90619" lon="7.06623">
        <ele>1179</ele>
        <time>2023-05-28T13:12:17Z</time>
      </trkpt>
      <trkpt lat="47.9061" lon="7.06624">
        <ele>1180</ele>
        <time>2023-05-28T13:12:28Z</time>
      </trkpt>
      <trkpt lat="47.90601" lon="7.06626">
        <ele>1180</ele>
        <time>2023-05-28T13:12:39Z</time>
      </trkpt>
      <trkpt lat="47.90592" lon="7.06627">
        <ele>1180</ele>
        <time>2023-05-28T13:12:53Z</time>
      </trkpt>
      <trkpt lat="47.90583" lon="7.0663">
        <ele>1181</ele>
        <time>2023-05-28T13:13:04Z</time>
      </trkpt>
      <trkpt lat="47.90574" lon="7.06633">
        <ele>1181</ele>
        <time>2023-05-28T13:13:14Z</time>
      </trkpt>
      <trkpt lat="47.90564" lon="7.06635">
        <ele>1182</ele>
        <time>2023-05-28T13:13:25Z</time>
      </trkpt>
      <trkpt lat="47.90555" lon="7.06637">
        <ele>1182</ele>
        <time>2023-05-28T13:13:36Z</time>
      </trkpt>
      <trkpt lat="47.90546" lon="7.06641">
        <ele>1182</ele>
        <time>2023-05-28T13:13:46Z</time>
      </trkpt>
      <trkpt lat="47.90536" lon="7.06643">
        <ele>1183</ele>
        <time>2023-05-28T13:13:57Z</time>
      </trkpt>
      <trkpt lat="47.90528" lon="7.06647">
        <ele>1183</ele>
        <time>2023-05-28T13:14:06Z</time>
      </trkpt>
      <trkpt lat="47.9052" lon="7.06653">
        <ele>1184</ele>
        <time>2023-05-28T13:14:15Z</time>
      </trkpt>
      <trkpt lat="47.90511" lon="7.06657">
        <ele>1184</ele>
        <time>2023-05-28T13:14:24Z</time>
      </trkpt>
      <trkpt lat="47.90502" lon="7.06663">
        <ele>1185</ele>
        <time>2023-05-28T13:14:36Z</time>
      </trkpt>
      <trkpt lat="47.90494" lon="7.0667">
        <ele>1185</ele>
        <time>2023-05-28T13:14:47Z</time>
      </trkpt>
      <trkpt lat="47.90486" lon="7.06677">
        <ele>1186</ele>
        <time>2023-05-28T13:14:58Z</time>
      </trkpt>
      <trkpt lat="47.90478" lon="7.06683">
        <ele>1187</ele>
        <time>2023-05-28T13:15:10Z</time>
      </trkpt>
      <trkpt lat="47.90471" lon="7.06692">
        <ele>1187</ele>
        <time>2023-05-28T13:15:22Z</time>
      </trkpt>
      <trkpt lat="47.90464" lon="7.06703">
        <ele>1188</ele>
        <time>2023-05-28T13:15:33Z</time>
      </trkpt>
      <trkpt lat="47.90459" lon="7.06714">
        <ele>1189</ele>
        <time>2023-05-28T13:15:43Z</time>
      </trkpt>
      <trkpt lat="47.90453" lon="7.06724">
        <ele>1189</ele>
        <time>2023-05-28T13:15:52Z</time>
      </trkpt>
      <trkpt lat="47.90448" lon="7.06735">
        <ele>1190</ele>
        <time>2023-05-28T13:16:02Z</time>
      </trkpt>
      <trkpt lat="47.90445" lon="7.06748">
        <ele>1191</ele>
        <time>2023-05-28T13:16:12Z</time>
      </trkpt>
      <trkpt lat="47.90442" lon="7.06762">
        <ele>1191</ele>
        <time>2023-05-28T13:16:22Z</time>
      </trkpt>
      <trkpt lat="47.90437" lon="7.06774">
        <ele>1192</ele>
        <time>2023-05-28T13:16:31Z</time>
      </trkpt>
      <trkpt lat="47.90434" lon="7.06787">
        <ele>1192</ele>
        <time>2023-05-28T13:16:40Z</time>
      </trkpt>
      <trkpt lat="47.90431" lon="7.06801">
        <ele>1192</ele>
        <time>2023-05-28T13:16:49Z</time>
      </trkpt>
      <trkpt lat="47.90428" lon="7.06814">
        <ele>1191</ele>
        <time>2023-05-28T13:16:57Z</time>
      </trkpt>
      <trkpt lat="47.90426" lon="7.06827">
        <ele>1191</ele>
        <time>2023-05-28T13:17:06Z</time>
      </trkpt>
      <trkpt lat="47.90425" lon="7.06842">
        <ele>1191</ele>
        <time>2023-05-28T13:17:16Z</time>
      </trkpt>
      <trkpt lat="47.90423" lon="7.06856">
        <ele>1192</ele>
        <time>2023-05-28T13:17:26Z</time>
      </trkpt>
      <trkpt lat="47.9042" lon="7.06869">
        <ele>1192</ele>
        <time>2023-05-28T13:17:37Z</time>
      </trkpt>
      <trkpt lat="47.90417" lon="7.06883">
        <ele>1193</ele>
        <time>2023-05-28T13:17:48Z</time>
      </trkpt>
      <trkpt lat="47.90416" lon="7.06897">
        <ele>1193</ele>
        <time>2023-05-28T13:17:59Z</time>
      </trkpt>
      <trkpt lat="47.90414" lon="7.06911">
        <ele>1194</ele>
        <time>2023-05-28T13:18:10Z</time>
      </trkpt>
      <trkpt lat="47.90414" lon="7.06925">
        <ele>1195</ele>
        <time>2023-05-28T13:18:22Z</time>
      </trkpt>
      <trkpt lat="47.90412" lon="7.06938">
        <ele>1196</ele>
        <time>2023-05-28T13:18:35Z</time>
      </trkpt>
      <trkpt lat="47.9041" lon="7.06951">
        <ele>1197</ele>
        <time>2023-05-28T13:18:46Z</time>
      </trkpt>
      <trkpt lat="47.90409" lon="7.06966">
        <ele>1198</ele>
        <time>2023-05-28T13:18:59Z</time>
      </trkpt>
      <trkpt lat="47.90405" lon="7.06978">
        <ele>1200</ele>
        <time>2023-05-28T13:19:14Z</time>
      </trkpt>
      <trkpt lat="47.90405" lon="7.06991">
        <ele>1201</ele>
        <time>2023-05-28T13:19:28Z</time>
      </trkpt>
      <trkpt lat="47.90404" lon="7.07005">
        <ele>1203</ele>
        <time>2023-05-28T13:19:42Z</time>
      </trkpt>
      <trkpt lat="47.90404" lon="7.07019">
        <ele>1205</ele>
        <time>2023-05-28T13:19:56Z</time>
      </trkpt>
      <trkpt lat="47.90402" lon="7.07032">
        <ele>1206</ele>
        <time>2023-05-28T13:20:07Z</time>
      </trkpt>
      <trkpt lat="47.904" lon="7.07046">
        <ele>1207</ele>
        <time>2023-05-28T13:20:18Z</time>
      </trkpt>
      <trkpt lat="47.90397" lon="7.07059">
        <ele>1208</ele>
        <time>2023-05-28T13:20:27Z</time>
      </trkpt>
      <trkpt lat="47.90394" lon="7.07072">
        <ele>1209</ele>
        <time>2023-05-28T13:20:37Z</time>
      </trkpt>
      <trkpt lat="47.90393" lon="7.07087">
        <ele>1210</ele>
        <time>2023-05-28T13:20:46Z</time>
      </trkpt>
      <trkpt lat="47.9039" lon="7.07101">
        <ele>1210</ele>
        <time>2023-05-28T13:20:54Z</time>
      </trkpt>
      <trkpt lat="47.90385" lon="7.07114">
        <ele>1211</ele>
        <time>2023-05-28T13:21:04Z</time>
      </trkpt>
      <trkpt lat="47.90383" lon="7.07128">
        <ele>1212</ele>
        <time>2023-05-28T13:21:15Z</time>
      </trkpt>
      <trkpt lat="47.9038" lon="7.07142">
        <ele>1213</ele>
        <time>2023-05-28T13:21:25Z</time>
      </trkpt>
      <trkpt lat="47.90376" lon="7.07154">
        <ele>1213</ele>
        <time>2023-05-28T13:21:34Z</time>
      </trkpt>
      <trkpt lat="47.90371" lon="7.07165">
        <ele>1214</ele>
        <time>2023-05-28T13:21:46Z</time>
      </trkpt>
      <trkpt lat="47.90371" lon="7.0718">
        <ele>1215</ele>
        <time>2023-05-28T13:21:56Z</time>
      </trkpt>
      <trkpt lat="47.90369" lon="7.07194">
        <ele>1216</ele>
        <time>2023-05-28T13:22:06Z</time>
      </trkpt>
      <trkpt lat="47.90364" lon="7.07206">
        <ele>1217</ele>
        <time>2023-05-28T13:22:16Z</time>
      </trkpt>
      <trkpt lat="47.90361" lon="7.0722">
        <ele>1218</ele>
        <time>2023-05-28T13:22:27Z</time>
      </trkpt>
      <trkpt lat="47.90359" lon="7.07233">
        <ele>1219</ele>
        <time>2023-05-28T13:22:39Z</time>
      </trkpt>
      <trkpt lat="47.90356" lon="7.07246">
        <ele>1220</ele>
        <time>2023-05-28T13:22:49Z</time>
      </trkpt>
      <trkpt lat="47.90353" lon="7.07258">
        <ele>1221</ele>
        <time>2023-05-28T13:23:00Z</time>
      </trkpt>
      <trkpt lat="47.90351" lon="7.07272">
        <ele>1222</ele>
        <time>2023-05-28T13:23:12Z</time>
      </trkpt>
      <trkpt lat="47.90351" lon="7.07286">
        <ele>1223</ele>
        <time>2023-05-28T13:23:23Z</time>
      </trkpt>
      <trkpt lat="47.90349" lon="7.073">
        <ele>1224</ele>
        <time>2023-05-28T13:23:37Z</time>
      </trkpt>
      <trkpt lat="47.90346" lon="7.07313">
        <ele>1225</ele>
        <time>2023-05-28T13:23:51Z</time>
      </trkpt>
      <trkpt lat="47.90343" lon="7.07326">
        <ele>1226</ele>
        <time>2023-05-28T13:24:03Z</time>
      </trkpt>
      <trkpt lat="47.90342" lon="7.0734">
        <ele>1228</ele>
        <time>2023-05-28T13:24:15Z</time>
      </trkpt>
      <trkpt lat="47.90341" lon="7.07353">
        <ele>1229</ele>
        <time>2023-05-28T13:24:26Z</time>
      </trkpt>
      <trkpt lat="47.90339" lon="7.07366">
        <ele>1230</ele>
        <time>2023-05-28T13:24:36Z</time>
      </trkpt>
      <trkpt lat="47.90336" lon="7.0738">
        <ele>1231</ele>
        <time>2023-05-28T13:24:46Z</time>
      </trkpt>
      <trkpt lat="47.90333" lon="7.07394">
        <ele>1231</ele>
        <time>2023-05-28T13:24:57Z</time>
      </trkpt>
      <trkpt lat="47.90331" lon="7.07407">
        <ele>1231</ele>
        <time>2023-05-28T13:25:07Z</time>
      </trkpt>
      <trkpt lat="47.90327" lon="7.0742">
        <ele>1232</ele>
        <time>2023-05-28T13:25:17Z</time>
      </trkpt>
      <trkpt lat="47.90322" lon="7.07433">
        <ele>1232</ele>
        <time>2023-05-28T13:25:26Z</time>
      </trkpt>
      <trkpt lat="47.90318" lon="7.07446">
        <ele>1233</ele>
        <time>2023-05-28T13:25:35Z</time>
      </trkpt>
      <trkpt lat="47.90314" lon="7.07459">
        <ele>1233</ele>
        <time>2023-05-28T13:25:45Z</time>
      </trkpt>
      <trkpt lat="47.9031" lon="7.07472">
        <ele>1234</ele>
        <time>2023-05-28T13:25:55Z</time>
      </trkpt>
      <trkpt lat="47.90305" lon="7.07484">
        <ele>1234</ele>
        <time>2023-05-28T13:26:04Z</time>
      </trkpt>
      <trkpt lat="47.90298" lon="7.07494">
        <ele>1233</ele>
        <time>2023-05-28T13:26:11Z</time>
      </trkpt>
      <trkpt lat="47.90291" lon="7.07503">
        <ele>1233</ele>
        <time>2023-05-28T13:26:19Z</time>
      </trkpt>
      <trkpt lat="47.90283" lon="7.07512">
        <ele>1233</ele>
        <time>2023-05-28T13:26:28Z</time>
      </trkpt>
      <trkpt lat="47.90276" lon="7.0752">
        <ele>1233</ele>
        <time>2023-05-28T13:26:37Z</time>
      </trkpt>
      <trkpt lat="47.9027" lon="7.07531">
        <ele>1233</ele>
        <time>2023-05-28T13:26:44Z</time>
      </trkpt>
      <trkpt lat="47.90264" lon="7.07542">
        <ele>1233</ele>
        <time>2023-05-28T13:27:31Z</time>
      </trkpt>
      <trkpt lat="47.90255" lon="7.07549">
        <ele>1233</ele>
        <time>2023-05-28T13:27:40Z</time>
      </trkpt>
      <trkpt lat="47.90246" lon="7.07555">
        <ele>1233</ele>
        <time>2023-05-28T13:27:49Z</time>
      </trkpt>
      <trkpt lat="47.90237" lon="7.0756">
        <ele>1233</ele>
        <time>2023-05-28T13:28:00Z</time>
      </trkpt>
      <trkpt lat="47.90228" lon="7.07561">
        <ele>1232</ele>
        <time>2023-05-28T13:28:10Z</time>
      </trkpt>
      <trkpt lat="47.90219" lon="7.07556">
        <ele>1231</ele>
        <time>2023-05-28T13:28:19Z</time>
      </trkpt>
      <trkpt lat="47.90211" lon="7.07551">
        <ele>1231</ele>
        <time>2023-05-28T13:28:27Z</time>
      </trkpt>
      <trkpt lat="47.90202" lon="7.07547">
        <ele>1231</ele>
        <time>2023-05-28T13:28:34Z</time>
      </trkpt>
      <trkpt lat="47.90194" lon="7.07541">
        <ele>1230</ele>
        <time>2023-05-28T13:28:42Z</time>
      </trkpt>
      <trkpt lat="47.90185" lon="7.07536">
        <ele>1229</ele>
        <time>2023-05-28T13:28:52Z</time>
      </trkpt>
      <trkpt lat="47.90176" lon="7.0753">
        <ele>1229</ele>
        <time>2023-05-28T13:29:00Z</time>
      </trkpt>
      <trkpt lat="47.90167" lon="7.07524">
        <ele>1229</ele>
        <time>2023-05-28T13:29:09Z</time>
      </trkpt>
      <trkpt lat="47.90158" lon="7.0752">
        <ele>1228</ele>
        <time>2023-05-28T13:29:16Z</time>
      </trkpt>
      <trkpt lat="47.90149" lon="7.07516">
        <ele>1227</ele>
        <time>2023-05-28T13:29:25Z</time>
      </trkpt>
      <trkpt lat="47.90141" lon="7.0751">
        <ele>1227</ele>
        <time>2023-05-28T13:29:34Z</time>
      </trkpt>
      <trkpt lat="47.90132" lon="7.07505">
        <ele>1226</ele>
        <time>2023-05-28T13:29:43Z</time>
      </trkpt>
      <trkpt lat="47.90122" lon="7.07503">
        <ele>1226</ele>
        <time>2023-05-28T13:29:52Z</time>
      </trkpt>
      <trkpt lat="47.90113" lon="7.07502">
        <ele>1225</ele>
        <time>2023-05-28T13:30:01Z</time>
      </trkpt>
      <trkpt lat="47.90104" lon="7.07498">
        <ele>1225</ele>
        <time>2023-05-28T13:30:10Z</time>
      </trkpt>
      <trkpt lat="47.90095" lon="7.07494">
        <ele>1225</ele>
        <time>2023-05-28T13:30:18Z</time>
      </trkpt>
      <trkpt lat="47.90086" lon="7.0749">
        <ele>1224</ele>
        <time>2023-05-28T13:30:27Z</time>
      </trkpt>
      <trkpt lat="47.90076" lon="7.07487">
        <ele>1224</ele>
        <time>2023-05-28T13:30:35Z</time>
      </trkpt>
      <trkpt lat="47.90067" lon="7.07486">
        <ele>1224</ele>
        <time>2023-05-28T13:30:42Z</time>
      </trkpt>
      <trkpt lat="47.90058" lon="7.07485">
        <ele>1223</ele>
        <time>2023-05-28T13:30:52Z</time>
      </trkpt>
      <trkpt lat="47.90049" lon="7.07483">
        <ele>1223</ele>
        <time>2023-05-28T13:31:01Z</time>
      </trkpt>
      <trkpt lat="47.9004" lon="7.07481">
        <ele>1223</ele>
        <time>2023-05-28T13:31:10Z</time>
      </trkpt>
      <trkpt lat="47.9003" lon="7.07481">
        <ele>1222</ele>
        <time>2023-05-28T13:31:18Z</time>
      </trkpt>
      <trkpt lat="47.90021" lon="7.0748">
        <ele>1221</ele>
        <time>2023-05-28T13:31:28Z</time>
      </trkpt>
      <trkpt lat="47.90011" lon="7.0748">
        <ele>1220</ele>
        <time>2023-05-28T13:31:38Z</time>
      </trkpt>
      <trkpt lat="47.90001" lon="7.07477">
        <ele>1219</ele>
        <time>2023-05-28T13:31:47Z</time>
      </trkpt>
      <trkpt lat="47.89993" lon="7.07471">
        <ele>1219</ele>
        <time>2023-05-28T13:31:54Z</time>
      </trkpt>
      <trkpt lat="47.89985" lon="7.07464">
        <ele>1218</ele>
        <time>2023-05-28T13:32:01Z</time>
      </trkpt>
      <trkpt lat="47.89978" lon="7.07456">
        <ele>1218</ele>
        <time>2023-05-28T13:32:09Z</time>
      </trkpt>
      <trkpt lat="47.8997" lon="7.07447">
        <ele>1217</ele>
        <time>2023-05-28T13:32:18Z</time>
      </trkpt>
      <trkpt lat="47.89963" lon="7.07439">
        <ele>1217</ele>
        <time>2023-05-28T13:32:26Z</time>
      </trkpt>
      <trkpt lat="47.89956" lon="7.0743">
        <ele>1217</ele>
        <time>2023-05-28T13:32:33Z</time>
      </trkpt>
      <trkpt lat="47.89948" lon="7.07422">
        <ele>1217</ele>
        <time>2023-05-28T13:32:40Z</time>
      </trkpt>
      <trkpt lat="47.8994" lon="7.07413">
        <ele>1216</ele>
        <time>2023-05-28T13:32:49Z</time>
      </trkpt>
      <trkpt lat="47.89933" lon="7.07404">
        <ele>1215</ele>
        <time>2023-05-28T13:32:57Z</time>
      </trkpt>
      <trkpt lat="47.89926" lon="7.07395">
        <ele>1214</ele>
        <time>2023-05-28T13:33:06Z</time>
      </trkpt>
      <trkpt lat="47.89918" lon="7.07388">
        <ele>1213</ele>
        <time>2023-05-28T13:34:01Z</time>
      </trkpt>
      <trkpt lat="47.89913" lon="7.07377">
        <ele>1213</ele>
        <time>2023-05-28T13:35:56Z</time>
      </trkpt>
      <trkpt lat="47.89905" lon="7.07372">
        <ele>1212</ele>
        <time>2023-05-28T13:36:21Z</time>
      </trkpt>
      <trkpt lat="47.89895" lon="7.07367">
        <ele>1212</ele>
        <time>2023-05-28T13:36:32Z</time>
      </trkpt>
      <trkpt lat="47.89887" lon="7.07362">
        <ele>1211</ele>
        <time>2023-05-28T13:36:44Z</time>
      </trkpt>
      <trkpt lat="47.89878" lon="7.07356">
        <ele>1210</ele>
        <time>2023-05-28T13:36:56Z</time>
      </trkpt>
      <trkpt lat="47.89868" lon="7.07353">
        <ele>1210</ele>
        <time>2023-05-28T13:37:05Z</time>
      </trkpt>
      <trkpt lat="47.89859" lon="7.0735">
        <ele>1209</ele>
        <time>2023-05-28T13:37:21Z</time>
      </trkpt>
      <trkpt lat="47.8985" lon="7.07353">
        <ele>1209</ele>
        <time>2023-05-28T13:37:30Z</time>
      </trkpt>
      <trkpt lat="47.89841" lon="7.07359">
        <ele>1209</ele>
        <time>2023-05-28T13:37:40Z</time>
      </trkpt>
      <trkpt lat="47.89833" lon="7.07367">
        <ele>1209</ele>
        <time>2023-05-28T13:37:49Z</time>
      </trkpt>
      <trkpt lat="47.89826" lon="7.07376">
        <ele>1209</ele>
        <time>2023-05-28T13:37:58Z</time>
      </trkpt>
      <trkpt lat="47.89821" lon="7.07387">
        <ele>1209</ele>
        <time>2023-05-28T13:38:09Z</time>
      </trkpt>
      <trkpt lat="47.89815" lon="7.07398">
        <ele>1208</ele>
        <time>2023-05-28T13:38:17Z</time>
      </trkpt>
      <trkpt lat="47.89809" lon="7.07409">
        <ele>1208</ele>
        <time>2023-05-28T13:38:26Z</time>
      </trkpt>
      <trkpt lat="47.89804" lon="7.07422">
        <ele>1208</ele>
        <time>2023-05-28T13:38:35Z</time>
      </trkpt>
      <trkpt lat="47.89802" lon="7.07436">
        <ele>1208</ele>
        <time>2023-05-28T13:38:45Z</time>
      </trkpt>
      <trkpt lat="47.89799" lon="7.07448">
        <ele>1209</ele>
        <time>2023-05-28T13:38:55Z</time>
      </trkpt>
      <trkpt lat="47.89798" lon="7.07462">
        <ele>1209</ele>
        <time>2023-05-28T13:39:05Z</time>
      </trkpt>
      <trkpt lat="47.89797" lon="7.07476">
        <ele>1209</ele>
        <time>2023-05-28T13:39:15Z</time>
      </trkpt>
      <trkpt lat="47.89799" lon="7.0749">
        <ele>1209</ele>
        <time>2023-05-28T13:39:24Z</time>
      </trkpt>
      <trkpt lat="47.89798" lon="7.07503">
        <ele>1211</ele>
        <time>2023-05-28T13:40:46Z</time>
      </trkpt>
      <trkpt lat="47.89796" lon="7.07518">
        <ele>1210</ele>
        <time>2023-05-28T13:41:36Z</time>
      </trkpt>
      <trkpt lat="47.89796" lon="7.07532">
        <ele>1210</ele>
        <time>2023-05-28T13:41:44Z</time>
      </trkpt>
      <trkpt lat="47.89796" lon="7.07546">
        <ele>1209</ele>
        <time>2023-05-28T13:41:54Z</time>
      </trkpt>
      <trkpt lat="47.89798" lon="7.07559">
        <ele>1209</ele>
        <time>2023-05-28T13:42:03Z</time>
      </trkpt>
      <trkpt lat="47.89801" lon="7.07572">
        <ele>1209</ele>
        <time>2023-05-28T13:42:12Z</time>
      </trkpt>
      <trkpt lat="47.89805" lon="7.07585">
        <ele>1209</ele>
        <time>2023-05-28T13:42:21Z</time>
      </trkpt>
      <trkpt lat="47.89807" lon="7.07599">
        <ele>1209</ele>
        <time>2023-05-28T13:42:30Z</time>
      </trkpt>
      <trkpt lat="47.89811" lon="7.07612">
        <ele>1209</ele>
        <time>2023-05-28T13:42:38Z</time>
      </trkpt>
      <trkpt lat="47.89816" lon="7.07625">
        <ele>1210</ele>
        <time>2023-05-28T13:42:46Z</time>
      </trkpt>
      <trkpt lat="47.89821" lon="7.07636">
        <ele>1210</ele>
        <time>2023-05-28T13:42:53Z</time>
      </trkpt>
      <trkpt lat="47.89825" lon="7.07648">
        <ele>1210</ele>
        <time>2023-05-28T13:43:00Z</time>
      </trkpt>
      <trkpt lat="47.89829" lon="7.07661">
        <ele>1209</ele>
        <time>2023-05-28T13:43:09Z</time>
      </trkpt>
      <trkpt lat="47.89834" lon="7.07674">
        <ele>1209</ele>
        <time>2023-05-28T13:43:18Z</time>
      </trkpt>
      <trkpt lat="47.89838" lon="7.07687">
        <ele>1209</ele>
        <time>2023-05-28T13:43:27Z</time>
      </trkpt>
      <trkpt lat="47.89843" lon="7.07699">
        <ele>1208</ele>
        <time>2023-05-28T13:43:36Z</time>
      </trkpt>
      <trkpt lat="47.89849" lon="7.0771">
        <ele>1208</ele>
        <time>2023-05-28T13:43:46Z</time>
      </trkpt>
      <trkpt lat="47.89855" lon="7.0772">
        <ele>1207</ele>
        <time>2023-05-28T13:43:53Z</time>
      </trkpt>
      <trkpt lat="47.89862" lon="7.0773">
        <ele>1207</ele>
        <time>2023-05-28T13:44:00Z</time>
      </trkpt>
      <trkpt lat="47.89868" lon="7.0774">
        <ele>1206</ele>
        <time>2023-05-28T13:44:08Z</time>
      </trkpt>
      <trkpt lat="47.89875" lon="7.07751">
        <ele>1205</ele>
        <time>2023-05-28T13:44:16Z</time>
      </trkpt>
      <trkpt lat="47.89881" lon="7.07763">
        <ele>1205</ele>
        <time>2023-05-28T13:44:24Z</time>
      </trkpt>
      <trkpt lat="47.89888" lon="7.07774">
        <ele>1204</ele>
        <time>2023-05-28T13:44:31Z</time>
      </trkpt>
      <trkpt lat="47.89894" lon="7.07784">
        <ele>1204</ele>
        <time>2023-05-28T13:44:39Z</time>
      </trkpt>
      <trkpt lat="47.89898" lon="7.07798">
        <ele>1203</ele>
        <time>2023-05-28T13:44:49Z</time>
      </trkpt>
      <trkpt lat="47.89903" lon="7.07811">
        <ele>1202</ele>
        <time>2023-05-28T13:44:57Z</time>
      </trkpt>
      <trkpt lat="47.89908" lon="7.07825">
        <ele>1202</ele>
        <time>2023-05-28T13:45:05Z</time>
      </trkpt>
      <trkpt lat="47.89913" lon="7.07837">
        <ele>1201</ele>
        <time>2023-05-28T13:45:12Z</time>
      </trkpt>
      <trkpt lat="47.89917" lon="7.07849">
        <ele>1201</ele>
        <time>2023-05-28T13:45:20Z</time>
      </trkpt>
      <trkpt lat="47.89921" lon="7.07862">
        <ele>1200</ele>
        <time>2023-05-28T13:45:29Z</time>
      </trkpt>
      <trkpt lat="47.89924" lon="7.07875">
        <ele>1199</ele>
        <time>2023-05-28T13:45:38Z</time>
      </trkpt>
      <trkpt lat="47.89927" lon="7.07888">
        <ele>1199</ele>
        <time>2023-05-28T13:45:46Z</time>
      </trkpt>
      <trkpt lat="47.8993" lon="7.07901">
        <ele>1198</ele>
        <time>2023-05-28T13:45:54Z</time>
      </trkpt>
      <trkpt lat="47.89934" lon="7.07914">
        <ele>1197</ele>
        <time>2023-05-28T13:46:03Z</time>
      </trkpt>
      <trkpt lat="47.89936" lon="7.07927">
        <ele>1197</ele>
        <time>2023-05-28T13:46:11Z</time>
      </trkpt>
      <trkpt lat="47.89937" lon="7.07941">
        <ele>1196</ele>
        <time>2023-05-28T13:46:18Z</time>
      </trkpt>
      <trkpt lat="47.89941" lon="7.07955">
        <ele>1196</ele>
        <time>2023-05-28T13:46:26Z</time>
      </trkpt>
      <trkpt lat="47.89946" lon="7.07968">
        <ele>1196</ele>
        <time>2023-05-28T13:46:35Z</time>
      </trkpt>
      <trkpt lat="47.8995" lon="7.0798">
        <ele>1196</ele>
        <time>2023-05-28T13:46:43Z</time>
      </trkpt>
      <trkpt lat="47.89953" lon="7.07993">
        <ele>1196</ele>
        <time>2023-05-28T13:46:52Z</time>
      </trkpt>
      <trkpt lat="47.89958" lon="7.08005">
        <ele>1196</ele>
        <time>2023-05-28T13:47:00Z</time>
      </trkpt>
      <trkpt lat="47.89961" lon="7.08018">
        <ele>1195</ele>
        <time>2023-05-28T13:47:08Z</time>
      </trkpt>
      <trkpt lat="47.89963" lon="7.08032">
        <ele>1195</ele>
        <time>2023-05-28T13:47:16Z</time>
      </trkpt>
      <trkpt lat="47.89964" lon="7.08046">
        <ele>1195</ele>
        <time>2023-05-28T13:47:25Z</time>
      </trkpt>
      <trkpt lat="47.89965" lon="7.0806">
        <ele>1194</ele>
        <time>2023-05-28T13:47:36Z</time>
      </trkpt>
      <trkpt lat="47.89966" lon="7.08075">
        <ele>1194</ele>
        <time>2023-05-28T13:47:45Z</time>
      </trkpt>
      <trkpt lat="47.89968" lon="7.08089">
        <ele>1193</ele>
        <time>2023-05-28T13:47:54Z</time>
      </trkpt>
      <trkpt lat="47.89972" lon="7.08102">
        <ele>1192</ele>
        <time>2023-05-28T13:48:05Z</time>
      </trkpt>
      <trkpt lat="47.89976" lon="7.08114">
        <ele>1192</ele>
        <time>2023-05-28T13:48:13Z</time>
      </trkpt>
      <trkpt lat="47.89979" lon="7.08128">
        <ele>1191</ele>
        <time>2023-05-28T13:48:23Z</time>
      </trkpt>
      <trkpt lat="47.89981" lon="7.08141">
        <ele>1191</ele>
        <time>2023-05-28T13:48:33Z</time>
      </trkpt>
      <trkpt lat="47.89985" lon="7.08154">
        <ele>1190</ele>
        <time>2023-05-28T13:48:49Z</time>
      </trkpt>
      <trkpt lat="47.89988" lon="7.08168">
        <ele>1190</ele>
        <time>2023-05-28T13:49:00Z</time>
      </trkpt>
      <trkpt lat="47.89991" lon="7.08181">
        <ele>1189</ele>
        <time>2023-05-28T13:49:09Z</time>
      </trkpt>
      <trkpt lat="47.89993" lon="7.08194">
        <ele>1189</ele>
        <time>2023-05-28T13:49:18Z</time>
      </trkpt>
      <trkpt lat="47.89996" lon="7.08207">
        <ele>1188</ele>
        <time>2023-05-28T13:49:27Z</time>
      </trkpt>
      <trkpt lat="47.9" lon="7.08219">
        <ele>1188</ele>
        <time>2023-05-28T13:49:36Z</time>
      </trkpt>
      <trkpt lat="47.90004" lon="7.08232">
        <ele>1187</ele>
        <time>2023-05-28T13:49:46Z</time>
      </trkpt>
      <trkpt lat="47.9001" lon="7.08243">
        <ele>1187</ele>
        <time>2023-05-28T13:49:56Z</time>
      </trkpt>
      <trkpt lat="47.90016" lon="7.08254">
        <ele>1186</ele>
        <time>2023-05-28T13:50:06Z</time>
      </trkpt>
      <trkpt lat="47.90019" lon="7.08269">
        <ele>1186</ele>
        <time>2023-05-28T13:50:16Z</time>
      </trkpt>
      <trkpt lat="47.90021" lon="7.08282">
        <ele>1186</ele>
        <time>2023-05-28T13:50:25Z</time>
      </trkpt>
      <trkpt lat="47.90024" lon="7.08295">
        <ele>1185</ele>
        <time>2023-05-28T13:50:34Z</time>
      </trkpt>
      <trkpt lat="47.90029" lon="7.08308">
        <ele>1185</ele>
        <time>2023-05-28T13:50:44Z</time>
      </trkpt>
      <trkpt lat="47.90034" lon="7.0832">
        <ele>1184</ele>
        <time>2023-05-28T13:50:52Z</time>
      </trkpt>
      <trkpt lat="47.90039" lon="7.08331">
        <ele>1184</ele>
        <time>2023-05-28T13:50:59Z</time>
      </trkpt>
      <trkpt lat="47.90044" lon="7.08343">
        <ele>1183</ele>
        <time>2023-05-28T13:51:08Z</time>
      </trkpt>
      <trkpt lat="47.9005" lon="7.08355">
        <ele>1182</ele>
        <time>2023-05-28T13:51:17Z</time>
      </trkpt>
      <trkpt lat="47.90055" lon="7.08367">
        <ele>1182</ele>
        <time>2023-05-28T13:51:28Z</time>
      </trkpt>
      <trkpt lat="47.90058" lon="7.08381">
        <ele>1181</ele>
        <time>2023-05-28T13:51:38Z</time>
      </trkpt>
      <trkpt lat="47.90063" lon="7.08393">
        <ele>1180</ele>
        <time>2023-05-28T13:51:48Z</time>
      </trkpt>
      <trkpt lat="47.90068" lon="7.08405">
        <ele>1179</ele>
        <time>2023-05-28T13:51:56Z</time>
      </trkpt>
      <trkpt lat="47.90073" lon="7.08417">
        <ele>1179</ele>
        <time>2023-05-28T13:52:06Z</time>
      </trkpt>
      <trkpt lat="47.90077" lon="7.0843">
        <ele>1178</ele>
        <time>2023-05-28T13:52:15Z</time>
      </trkpt>
      <trkpt lat="47.90081" lon="7.08443">
        <ele>1178</ele>
        <time>2023-05-28T13:52:25Z</time>
      </trkpt>
      <trkpt lat="47.90085" lon="7.08456">
        <ele>1177</ele>
        <time>2023-05-28T13:52:33Z</time>
      </trkpt>
      <trkpt lat="47.90089" lon="7.08468">
        <ele>1176</ele>
        <time>2023-05-28T13:52:41Z</time>
      </trkpt>
      <trkpt lat="47.90096" lon="7.08479">
        <ele>1176</ele>
        <time>2023-05-28T13:52:50Z</time>
      </trkpt>
      <trkpt lat="47.90103" lon="7.08488">
        <ele>1175</ele>
        <time>2023-05-28T13:53:00Z</time>
      </trkpt>
      <trkpt lat="47.90108" lon="7.085">
        <ele>1174</ele>
        <time>2023-05-28T13:53:10Z</time>
      </trkpt>
      <trkpt lat="47.9011" lon="7.08514">
        <ele>1172</ele>
        <time>2023-05-28T13:53:21Z</time>
      </trkpt>
      <trkpt lat="47.90118" lon="7.08522">
        <ele>1172</ele>
        <time>2023-05-28T13:53:31Z</time>
      </trkpt>
      <trkpt lat="47.90127" lon="7.08526">
        <ele>1171</ele>
        <time>2023-05-28T13:53:41Z</time>
      </trkpt>
      <trkpt lat="47.90135" lon="7.08532">
        <ele>1171</ele>
        <time>2023-05-28T13:53:51Z</time>
      </trkpt>
      <trkpt lat="47.90143" lon="7.08539">
        <ele>1171</ele>
        <time>2023-05-28T13:54:01Z</time>
      </trkpt>
      <trkpt lat="47.90152" lon="7.08544">
        <ele>1171</ele>
        <time>2023-05-28T13:54:13Z</time>
      </trkpt>
      <trkpt lat="47.90161" lon="7.08547">
        <ele>1171</ele>
        <time>2023-05-28T13:54:26Z</time>
      </trkpt>
      <trkpt lat="47.9017" lon="7.08549">
        <ele>1172</ele>
        <time>2023-05-28T13:54:42Z</time>
      </trkpt>
      <trkpt lat="47.90178" lon="7.08555">
        <ele>1173</ele>
        <time>2023-05-28T13:54:53Z</time>
      </trkpt>
      <trkpt lat="47.90187" lon="7.08562">
        <ele>1174</ele>
        <time>2023-05-28T13:55:02Z</time>
      </trkpt>
      <trkpt lat="47.90193" lon="7.08571">
        <ele>1174</ele>
        <time>2023-05-28T13:55:10Z</time>
      </trkpt>
      <trkpt lat="47.902" lon="7.08582">
        <ele>1174</ele>
        <time>2023-05-28T13:55:18Z</time>
      </trkpt>
      <trkpt lat="47.90207" lon="7.08591">
        <ele>1175</ele>
        <time>2023-05-28T13:55:28Z</time>
      </trkpt>
      <trkpt lat="47.90215" lon="7.08598">
        <ele>1175</ele>
        <time>2023-05-28T13:55:40Z</time>
      </trkpt>
      <trkpt lat="47.90223" lon="7.08605">
        <ele>1176</ele>
        <time>2023-05-28T13:55:51Z</time>
      </trkpt>
      <trkpt lat="47.90231" lon="7.08613">
        <ele>1177</ele>
        <time>2023-05-28T13:56:02Z</time>
      </trkpt>
      <trkpt lat="47.90239" lon="7.0862">
        <ele>1178</ele>
        <time>2023-05-28T13:56:11Z</time>
      </trkpt>
      <trkpt lat="47.90246" lon="7.08629">
        <ele>1178</ele>
        <time>2023-05-28T13:56:19Z</time>
      </trkpt>
      <trkpt lat="47.90255" lon="7.08634">
        <ele>1179</ele>
        <time>2023-05-28T13:56:28Z</time>
      </trkpt>
      <trkpt lat="47.90262" lon="7.08644">
        <ele>1180</ele>
        <time>2023-05-28T13:56:38Z</time>
      </trkpt>
      <trkpt lat="47.9027" lon="7.08652">
        <ele>1181</ele>
        <time>2023-05-28T13:56:49Z</time>
      </trkpt>
      <trkpt lat="47.90279" lon="7.08657">
        <ele>1182</ele>
        <time>2023-05-28T13:57:02Z</time>
      </trkpt>
      <trkpt lat="47.90288" lon="7.08663">
        <ele>1183</ele>
        <time>2023-05-28T13:57:13Z</time>
      </trkpt>
      <trkpt lat="47.90296" lon="7.08668">
        <ele>1185</ele>
        <time>2023-05-28T13:57:27Z</time>
      </trkpt>
      <trkpt lat="47.90305" lon="7.08672">
        <ele>1186</ele>
        <time>2023-05-28T13:57:42Z</time>
      </trkpt>
      <trkpt lat="47.90313" lon="7.08679">
        <ele>1187</ele>
        <time>2023-05-28T13:57:54Z</time>
      </trkpt>
      <trkpt lat="47.90322" lon="7.08683">
        <ele>1189</ele>
        <time>2023-05-28T13:58:12Z</time>
      </trkpt>
      <trkpt lat="47.90329" lon="7.08692">
        <ele>1190</ele>
        <time>2023-05-28T13:58:20Z</time>
      </trkpt>
      <trkpt lat="47.90336" lon="7.08702">
        <ele>1191</ele>
        <time>2023-05-28T13:58:30Z</time>
      </trkpt>
      <trkpt lat="47.90344" lon="7.08711">
        <ele>1192</ele>
        <time>2023-05-28T13:58:42Z</time>
      </trkpt>
      <trkpt lat="47.90351" lon="7.0872">
        <ele>1193</ele>
        <time>2023-05-28T13:58:54Z</time>
      </trkpt>
      <trkpt lat="47.90358" lon="7.08727">
        <ele>1196</ele>
        <time>2023-05-28T13:59:22Z</time>
      </trkpt>
      <trkpt lat="47.90366" lon="7.08734">
        <ele>1197</ele>
        <time>2023-05-28T13:59:35Z</time>
      </trkpt>
      <trkpt lat="47.90375" lon="7.08739">
        <ele>1198</ele>
        <time>2023-05-28T13:59:47Z</time>
      </trkpt>
      <trkpt lat="47.90382" lon="7.08748">
        <ele>1199</ele>
        <time>2023-05-28T13:59:59Z</time>
      </trkpt>
      <trkpt lat="47.9039" lon="7.08755">
        <ele>1200</ele>
        <time>2023-05-28T14:00:11Z</time>
      </trkpt>
      <trkpt lat="47.90399" lon="7.08761">
        <ele>1202</ele>
        <time>2023-05-28T14:00:27Z</time>
      </trkpt>
      <trkpt lat="47.90406" lon="7.08769">
        <ele>1203</ele>
        <time>2023-05-28T14:00:43Z</time>
      </trkpt>
      <trkpt lat="47.90412" lon="7.0878">
        <ele>1205</ele>
        <time>2023-05-28T14:00:59Z</time>
      </trkpt>
      <trkpt lat="47.90416" lon="7.08793">
        <ele>1206</ele>
        <time>2023-05-28T14:01:14Z</time>
      </trkpt>
      <trkpt lat="47.90419" lon="7.08805">
        <ele>1208</ele>
        <time>2023-05-28T14:01:28Z</time>
      </trkpt>
      <trkpt lat="47.90421" lon="7.08818">
        <ele>1210</ele>
        <time>2023-05-28T14:01:44Z</time>
      </trkpt>
      <trkpt lat="47.90423" lon="7.08832">
        <ele>1211</ele>
        <time>2023-05-28T14:01:58Z</time>
      </trkpt>
      <trkpt lat="47.90425" lon="7.08846">
        <ele>1213</ele>
        <time>2023-05-28T14:02:12Z</time>
      </trkpt>
      <trkpt lat="47.90429" lon="7.08858">
        <ele>1215</ele>
        <time>2023-05-28T14:02:25Z</time>
      </trkpt>
      <trkpt lat="47.90432" lon="7.08871">
        <ele>1216</ele>
        <time>2023-05-28T14:02:36Z</time>
      </trkpt>
      <trkpt lat="47.90434" lon="7.08885">
        <ele>1216</ele>
        <time>2023-05-28T14:02:49Z</time>
      </trkpt>
      <trkpt lat="47.90438" lon="7.08897">
        <ele>1218</ele>
        <time>2023-05-28T14:03:02Z</time>
      </trkpt>
      <trkpt lat="47.90442" lon="7.0891">
        <ele>1219</ele>
        <time>2023-05-28T14:03:16Z</time>
      </trkpt>
      <trkpt lat="47.90447" lon="7.08921">
        <ele>1220</ele>
        <time>2023-05-28T14:03:34Z</time>
      </trkpt>
      <trkpt lat="47.90452" lon="7.08933">
        <ele>1221</ele>
        <time>2023-05-28T14:03:48Z</time>
      </trkpt>
      <trkpt lat="47.90458" lon="7.08943">
        <ele>1223</ele>
        <time>2023-05-28T14:04:00Z</time>
      </trkpt>
      <trkpt lat="47.90462" lon="7.08956">
        <ele>1224</ele>
        <time>2023-05-28T14:04:13Z</time>
      </trkpt>
      <trkpt lat="47.90468" lon="7.08967">
        <ele>1225</ele>
        <time>2023-05-28T14:04:27Z</time>
      </trkpt>
      <trkpt lat="47.90473" lon="7.08979">
        <ele>1227</ele>
        <time>2023-05-28T14:04:42Z</time>
      </trkpt>
      <trkpt lat="47.90482" lon="7.08985">
        <ele>1230</ele>
        <time>2023-05-28T14:05:18Z</time>
      </trkpt>
      <trkpt lat="47.90489" lon="7.08976">
        <ele>1230</ele>
        <time>2023-05-28T14:05:28Z</time>
      </trkpt>
      <trkpt lat="47.90497" lon="7.08971">
        <ele>1232</ele>
        <time>2023-05-28T14:06:25Z</time>
      </trkpt>
      <trkpt lat="47.90497" lon="7.08958">
        <ele>1233</ele>
        <time>2023-05-28T14:06:51Z</time>
      </trkpt>
      <trkpt lat="47.90507" lon="7.0896">
        <ele>1232</ele>
        <time>2023-05-28T14:07:54Z</time>
      </trkpt>
      <trkpt lat="47.90505" lon="7.08961">
        <ele>1233</ele>
        <time>2023-05-28T14:08:30Z</time>
      </trkpt>
      <trkpt lat="47.90502" lon="7.08959">
        <ele>1232</ele>
        <time>2023-05-28T14:10:33Z</time>
      </trkpt>
      <trkpt lat="47.905" lon="7.08953">
        <ele>1232</ele>
        <time>2023-05-28T14:11:03Z</time>
      </trkpt>
      <trkpt lat="47.90503" lon="7.0896">
        <ele>1232</ele>
        <time>2023-05-28T14:11:34Z</time>
      </trkpt>
      <trkpt lat="47.90505" lon="7.08961">
        <ele>1232</ele>
        <time>2023-05-28T14:12:15Z</time>
      </trkpt>
      <trkpt lat="47.90498" lon="7.08967">
        <ele>1232</ele>
        <time>2023-05-28T14:12:23Z</time>
      </trkpt>
      <trkpt lat="47.90495" lon="7.08972">
        <ele>1232</ele>
        <time>2023-05-28T14:19:41Z</time>
      </trkpt>
      <trkpt lat="47.90496" lon="7.08975">
        <ele>1232</ele>
        <time>2023-05-28T14:22:01Z</time>
      </trkpt>
      <trkpt lat="47.90493" lon="7.08987">
        <ele>1232</ele>
        <time>2023-05-28T14:22:14Z</time>
      </trkpt>
      <trkpt lat="47.9049" lon="7.08999">
        <ele>1232</ele>
        <time>2023-05-28T14:22:31Z</time>
      </trkpt>
      <trkpt lat="47.90497" lon="7.09009">
        <ele>1232</ele>
        <time>2023-05-28T14:22:43Z</time>
      </trkpt>
      <trkpt lat="47.90503" lon="7.0902">
        <ele>1233</ele>
        <time>2023-05-28T14:22:55Z</time>
      </trkpt>
      <trkpt lat="47.90508" lon="7.09032">
        <ele>1233</ele>
        <time>2023-05-28T14:23:07Z</time>
      </trkpt>
      <trkpt lat="47.90512" lon="7.09045">
        <ele>1233</ele>
        <time>2023-05-28T14:23:18Z</time>
      </trkpt>
      <trkpt lat="47.90513" lon="7.09059">
        <ele>1233</ele>
        <time>2023-05-28T14:23:39Z</time>
      </trkpt>
      <trkpt lat="47.90513" lon="7.09072">
        <ele>1233</ele>
        <time>2023-05-28T14:23:53Z</time>
      </trkpt>
      <trkpt lat="47.90513" lon="7.09086">
        <ele>1234</ele>
        <time>2023-05-28T14:24:05Z</time>
      </trkpt>
      <trkpt lat="47.90514" lon="7.091">
        <ele>1234</ele>
        <time>2023-05-28T14:24:18Z</time>
      </trkpt>
      <trkpt lat="47.90515" lon="7.09114">
        <ele>1234</ele>
        <time>2023-05-28T14:24:29Z</time>
      </trkpt>
      <trkpt lat="47.90516" lon="7.09128">
        <ele>1235</ele>
        <time>2023-05-28T14:24:40Z</time>
      </trkpt>
      <trkpt lat="47.90517" lon="7.09143">
        <ele>1236</ele>
        <time>2023-05-28T14:24:52Z</time>
      </trkpt>
      <trkpt lat="47.90518" lon="7.09157">
        <ele>1236</ele>
        <time>2023-05-28T14:25:04Z</time>
      </trkpt>
      <trkpt lat="47.90518" lon="7.09171">
        <ele>1236</ele>
        <time>2023-05-28T14:25:15Z</time>
      </trkpt>
      <trkpt lat="47.90519" lon="7.09185">
        <ele>1237</ele>
        <time>2023-05-28T14:25:26Z</time>
      </trkpt>
      <trkpt lat="47.9052" lon="7.09199">
        <ele>1237</ele>
        <time>2023-05-28T14:25:37Z</time>
      </trkpt>
      <trkpt lat="47.90523" lon="7.09211">
        <ele>1237</ele>
        <time>2023-05-28T14:25:48Z</time>
      </trkpt>
      <trkpt lat="47.90528" lon="7.09223">
        <ele>1238</ele>
        <time>2023-05-28T14:26:01Z</time>
      </trkpt>
      <trkpt lat="47.90533" lon="7.09235">
        <ele>1238</ele>
        <time>2023-05-28T14:26:11Z</time>
      </trkpt>
      <trkpt lat="47.90537" lon="7.09248">
        <ele>1238</ele>
        <time>2023-05-28T14:26:22Z</time>
      </trkpt>
      <trkpt lat="47.90541" lon="7.09261">
        <ele>1238</ele>
        <time>2023-05-28T14:26:33Z</time>
      </trkpt>
      <trkpt lat="47.90543" lon="7.09275">
        <ele>1239</ele>
        <time>2023-05-28T14:26:44Z</time>
      </trkpt>
      <trkpt lat="47.90546" lon="7.09288">
        <ele>1239</ele>
        <time>2023-05-28T14:26:55Z</time>
      </trkpt>
      <trkpt lat="47.90551" lon="7.093">
        <ele>1239</ele>
        <time>2023-05-28T14:27:07Z</time>
      </trkpt>
      <trkpt lat="47.90556" lon="7.09311">
        <ele>1239</ele>
        <time>2023-05-28T14:27:19Z</time>
      </trkpt>
      <trkpt lat="47.90562" lon="7.09322">
        <ele>1240</ele>
        <time>2023-05-28T14:27:32Z</time>
      </trkpt>
      <trkpt lat="47.90567" lon="7.09334">
        <ele>1240</ele>
        <time>2023-05-28T14:27:44Z</time>
      </trkpt>
      <trkpt lat="47.90571" lon="7.09346">
        <ele>1241</ele>
        <time>2023-05-28T14:27:56Z</time>
      </trkpt>
      <trkpt lat="47.90576" lon="7.09357">
        <ele>1242</ele>
        <time>2023-05-28T14:28:08Z</time>
      </trkpt>
      <trkpt lat="47.90582" lon="7.09369">
        <ele>1243</ele>
        <time>2023-05-28T14:28:19Z</time>
      </trkpt>
      <trkpt lat="47.90587" lon="7.09382">
        <ele>1244</ele>
        <time>2023-05-28T14:28:33Z</time>
      </trkpt>
      <trkpt lat="47.90591" lon="7.09394">
        <ele>1245</ele>
        <time>2023-05-28T14:28:44Z</time>
      </trkpt>
      <trkpt lat="47.90596" lon="7.09406">
        <ele>1246</ele>
        <time>2023-05-28T14:28:54Z</time>
      </trkpt>
      <trkpt lat="47.90601" lon="7.09418">
        <ele>1247</ele>
        <time>2023-05-28T14:29:03Z</time>
      </trkpt>
      <trkpt lat="47.90604" lon="7.09431">
        <ele>1248</ele>
        <time>2023-05-28T14:29:12Z</time>
      </trkpt>
      <trkpt lat="47.90609" lon="7.09443">
        <ele>1249</ele>
        <time>2023-05-28T14:29:21Z</time>
      </trkpt>
      <trkpt lat="47.90613" lon="7.09457">
        <ele>1250</ele>
        <time>2023-05-28T14:29:31Z</time>
      </trkpt>
      <trkpt lat="47.90615" lon="7.0947">
        <ele>1250</ele>
        <time>2023-05-28T14:29:40Z</time>
      </trkpt>
      <trkpt lat="47.90619" lon="7.09482">
        <ele>1250</ele>
        <time>2023-05-28T14:29:49Z</time>
      </trkpt>
      <trkpt lat="47.90623" lon="7.09495">
        <ele>1251</ele>
        <time>2023-05-28T14:29:59Z</time>
      </trkpt>
      <trkpt lat="47.90628" lon="7.09507">
        <ele>1251</ele>
        <time>2023-05-28T14:30:10Z</time>
      </trkpt>
      <trkpt lat="47.90633" lon="7.0952">
        <ele>1251</ele>
        <time>2023-05-28T14:30:20Z</time>
      </trkpt>
      <trkpt lat="47.90636" lon="7.09532">
        <ele>1251</ele>
        <time>2023-05-28T14:30:28Z</time>
      </trkpt>
      <trkpt lat="47.90639" lon="7.09546">
        <ele>1251</ele>
        <time>2023-05-28T14:30:37Z</time>
      </trkpt>
      <trkpt lat="47.90642" lon="7.09559">
        <ele>1251</ele>
        <time>2023-05-28T14:30:45Z</time>
      </trkpt>
      <trkpt lat="47.90645" lon="7.09572">
        <ele>1252</ele>
        <time>2023-05-28T14:30:54Z</time>
      </trkpt>
      <trkpt lat="47.90648" lon="7.09586">
        <ele>1252</ele>
        <time>2023-05-28T14:31:03Z</time>
      </trkpt>
      <trkpt lat="47.9065" lon="7.096">
        <ele>1252</ele>
        <time>2023-05-28T14:31:11Z</time>
      </trkpt>
      <trkpt lat="47.90652" lon="7.09614">
        <ele>1252</ele>
        <time>2023-05-28T14:31:20Z</time>
      </trkpt>
      <trkpt lat="47.90653" lon="7.09628">
        <ele>1252</ele>
        <time>2023-05-28T14:31:29Z</time>
      </trkpt>
      <trkpt lat="47.90654" lon="7.09642">
        <ele>1252</ele>
        <time>2023-05-28T14:31:38Z</time>
      </trkpt>
      <trkpt lat="47.90655" lon="7.09656">
        <ele>1252</ele>
        <time>2023-05-28T14:31:47Z</time>
      </trkpt>
      <trkpt lat="47.90656" lon="7.09671">
        <ele>1252</ele>
        <time>2023-05-28T14:31:56Z</time>
      </trkpt>
      <trkpt lat="47.90657" lon="7.09685">
        <ele>1252</ele>
        <time>2023-05-28T14:32:06Z</time>
      </trkpt>
      <trkpt lat="47.90658" lon="7.09699">
        <ele>1252</ele>
        <time>2023-05-28T14:32:17Z</time>
      </trkpt>
      <trkpt lat="47.9066" lon="7.09712">
        <ele>1252</ele>
        <time>2023-05-28T14:32:25Z</time>
      </trkpt>
      <trkpt lat="47.9066" lon="7.09725">
        <ele>1252</ele>
        <time>2023-05-28T14:32:34Z</time>
      </trkpt>
      <trkpt lat="47.9066" lon="7.09739">
        <ele>1252</ele>
        <time>2023-05-28T14:32:44Z</time>
      </trkpt>
      <trkpt lat="47.90663" lon="7.09753">
        <ele>1252</ele>
        <time>2023-05-28T14:32:53Z</time>
      </trkpt>
      <trkpt lat="47.90666" lon="7.09767">
        <ele>1252</ele>
        <time>2023-05-28T14:33:03Z</time>
      </trkpt>
      <trkpt lat="47.90669" lon="7.0978">
        <ele>1252</ele>
        <time>2023-05-28T14:33:12Z</time>
      </trkpt>
      <trkpt lat="47.9067" lon="7.09794">
        <ele>1252</ele>
        <time>2023-05-28T14:33:20Z</time>
      </trkpt>
      <trkpt lat="47.90671" lon="7.09808">
        <ele>1252</ele>
        <time>2023-05-28T14:33:28Z</time>
      </trkpt>
      <trkpt lat="47.90669" lon="7.09821">
        <ele>1252</ele>
        <time>2023-05-28T14:33:37Z</time>
      </trkpt>
      <trkpt lat="47.9067" lon="7.09835">
        <ele>1252</ele>
        <time>2023-05-28T14:33:46Z</time>
      </trkpt>
      <trkpt lat="47.90672" lon="7.09849">
        <ele>1252</ele>
        <time>2023-05-28T14:33:54Z</time>
      </trkpt>
      <trkpt lat="47.90674" lon="7.09863">
        <ele>1252</ele>
        <time>2023-05-28T14:34:03Z</time>
      </trkpt>
      <trkpt lat="47.90676" lon="7.09876">
        <ele>1252</ele>
        <time>2023-05-28T14:34:13Z</time>
      </trkpt>
      <trkpt lat="47.90677" lon="7.09889">
        <ele>1252</ele>
        <time>2023-05-28T14:34:22Z</time>
      </trkpt>
      <trkpt lat="47.90676" lon="7.09903">
        <ele>1252</ele>
        <time>2023-05-28T14:34:32Z</time>
      </trkpt>
      <trkpt lat="47.90681" lon="7.09915">
        <ele>1252</ele>
        <time>2023-05-28T14:34:46Z</time>
      </trkpt>
      <trkpt lat="47.90681" lon="7.09929">
        <ele>1252</ele>
        <time>2023-05-28T14:34:59Z</time>
      </trkpt>
      <trkpt lat="47.90683" lon="7.09942">
        <ele>1253</ele>
        <time>2023-05-28T14:35:19Z</time>
      </trkpt>
      <trkpt lat="47.90686" lon="7.09956">
        <ele>1253</ele>
        <time>2023-05-28T14:35:33Z</time>
      </trkpt>
      <trkpt lat="47.90687" lon="7.0997">
        <ele>1253</ele>
        <time>2023-05-28T14:35:51Z</time>
      </trkpt>
      <trkpt lat="47.90689" lon="7.09983">
        <ele>1254</ele>
        <time>2023-05-28T14:36:05Z</time>
      </trkpt>
      <trkpt lat="47.9069" lon="7.09996">
        <ele>1254</ele>
        <time>2023-05-28T14:36:16Z</time>
      </trkpt>
      <trkpt lat="47.90691" lon="7.1001">
        <ele>1255</ele>
        <time>2023-05-28T14:36:28Z</time>
      </trkpt>
      <trkpt lat="47.90695" lon="7.10024">
        <ele>1255</ele>
        <time>2023-05-28T14:36:38Z</time>
      </trkpt>
      <trkpt lat="47.90698" lon="7.10037">
        <ele>1255</ele>
        <time>2023-05-28T14:36:49Z</time>
      </trkpt>
      <trkpt lat="47.90699" lon="7.10051">
        <ele>1256</ele>
        <time>2023-05-28T14:37:02Z</time>
      </trkpt>
      <trkpt lat="47.90702" lon="7.10064">
        <ele>1257</ele>
        <time>2023-05-28T14:37:13Z</time>
      </trkpt>
      <trkpt lat="47.90702" lon="7.10078">
        <ele>1257</ele>
        <time>2023-05-28T14:37:26Z</time>
      </trkpt>
      <trkpt lat="47.90705" lon="7.10092">
        <ele>1258</ele>
        <time>2023-05-28T14:37:37Z</time>
      </trkpt>
      <trkpt lat="47.90709" lon="7.10105">
        <ele>1259</ele>
        <time>2023-05-28T14:37:48Z</time>
      </trkpt>
      <trkpt lat="47.90714" lon="7.10116">
        <ele>1260</ele>
        <time>2023-05-28T14:37:59Z</time>
      </trkpt>
      <trkpt lat="47.9072" lon="7.10127">
        <ele>1260</ele>
        <time>2023-05-28T14:38:12Z</time>
      </trkpt>
      <trkpt lat="47.90726" lon="7.10138">
        <ele>1260</ele>
        <time>2023-05-28T14:38:22Z</time>
      </trkpt>
      <trkpt lat="47.90731" lon="7.1015">
        <ele>1260</ele>
        <time>2023-05-28T14:38:33Z</time>
      </trkpt>
      <trkpt lat="47.90736" lon="7.10161">
        <ele>1260</ele>
        <time>2023-05-28T14:38:44Z</time>
      </trkpt>
      <trkpt lat="47.90742" lon="7.10172">
        <ele>1260</ele>
        <time>2023-05-28T14:38:57Z</time>
      </trkpt>
      <trkpt lat="47.90748" lon="7.10182">
        <ele>1260</ele>
        <time>2023-05-28T14:39:09Z</time>
      </trkpt>
      <trkpt lat="47.90755" lon="7.10192">
        <ele>1261</ele>
        <time>2023-05-28T14:39:23Z</time>
      </trkpt>
      <trkpt lat="47.90763" lon="7.10198">
        <ele>1262</ele>
        <time>2023-05-28T14:39:37Z</time>
      </trkpt>
      <trkpt lat="47.90771" lon="7.10204">
        <ele>1262</ele>
        <time>2023-05-28T14:39:48Z</time>
      </trkpt>
      <trkpt lat="47.90779" lon="7.1021">
        <ele>1262</ele>
        <time>2023-05-28T14:39:58Z</time>
      </trkpt>
      <trkpt lat="47.90788" lon="7.10217">
        <ele>1262</ele>
        <time>2023-05-28T14:40:08Z</time>
      </trkpt>
      <trkpt lat="47.90796" lon="7.10225">
        <ele>1262</ele>
        <time>2023-05-28T14:40:17Z</time>
      </trkpt>
      <trkpt lat="47.90804" lon="7.10233">
        <ele>1262</ele>
        <time>2023-05-28T14:40:27Z</time>
      </trkpt>
      <trkpt lat="47.90812" lon="7.1024">
        <ele>1262</ele>
        <time>2023-05-28T14:40:38Z</time>
      </trkpt>
      <trkpt lat="47.90821" lon="7.10245">
        <ele>1262</ele>
        <time>2023-05-28T14:40:48Z</time>
      </trkpt>
      <trkpt lat="47.90829" lon="7.1025">
        <ele>1262</ele>
        <time>2023-05-28T14:40:58Z</time>
      </trkpt>
      <trkpt lat="47.90838" lon="7.10255">
        <ele>1262</ele>
        <time>2023-05-28T14:41:09Z</time>
      </trkpt>
      <trkpt lat="47.90847" lon="7.10261">
        <ele>1262</ele>
        <time>2023-05-28T14:41:19Z</time>
      </trkpt>
      <trkpt lat="47.90855" lon="7.10268">
        <ele>1261</ele>
        <time>2023-05-28T14:41:29Z</time>
      </trkpt>
      <trkpt lat="47.90865" lon="7.10272">
        <ele>1261</ele>
        <time>2023-05-28T14:41:39Z</time>
      </trkpt>
      <trkpt lat="47.90874" lon="7.10276">
        <ele>1260</ele>
        <time>2023-05-28T14:41:49Z</time>
      </trkpt>
      <trkpt lat="47.90882" lon="7.1028">
        <ele>1260</ele>
        <time>2023-05-28T14:41:59Z</time>
      </trkpt>
      <trkpt lat="47.90891" lon="7.10286">
        <ele>1260</ele>
        <time>2023-05-28T14:42:09Z</time>
      </trkpt>
      <trkpt lat="47.909" lon="7.10292">
        <ele>1260</ele>
        <time>2023-05-28T14:42:18Z</time>
      </trkpt>
      <trkpt lat="47.90908" lon="7.103">
        <ele>1260</ele>
        <time>2023-05-28T14:42:27Z</time>
      </trkpt>
      <trkpt lat="47.90916" lon="7.10308">
        <ele>1260</ele>
        <time>2023-05-28T14:42:36Z</time>
      </trkpt>
      <trkpt lat="47.90924" lon="7.10314">
        <ele>1260</ele>
        <time>2023-05-28T14:42:46Z</time>
      </trkpt>
      <trkpt lat="47.90932" lon="7.10321">
        <ele>1260</ele>
        <time>2023-05-28T14:42:55Z</time>
      </trkpt>
      <trkpt lat="47.90941" lon="7.10327">
        <ele>1260</ele>
        <time>2023-05-28T14:43:06Z</time>
      </trkpt>
      <trkpt lat="47.90949" lon="7.10333">
        <ele>1259</ele>
        <time>2023-05-28T14:43:16Z</time>
      </trkpt>
      <trkpt lat="47.90957" lon="7.10339">
        <ele>1259</ele>
        <time>2023-05-28T14:43:26Z</time>
      </trkpt>
      <trkpt lat="47.90966" lon="7.10343">
        <ele>1259</ele>
        <time>2023-05-28T14:43:37Z</time>
      </trkpt>
      <trkpt lat="47.90975" lon="7.10347">
        <ele>1258</ele>
        <time>2023-05-28T14:43:48Z</time>
      </trkpt>
      <trkpt lat="47.90984" lon="7.10351">
        <ele>1258</ele>
        <time>2023-05-28T14:43:57Z</time>
      </trkpt>
      <trkpt lat="47.90993" lon="7.10353">
        <ele>1257</ele>
        <time>2023-05-28T14:44:07Z</time>
      </trkpt>
      <trkpt lat="47.91002" lon="7.10355">
        <ele>1257</ele>
        <time>2023-05-28T14:44:17Z</time>
      </trkpt>
      <trkpt lat="47.91011" lon="7.10357">
        <ele>1256</ele>
        <time>2023-05-28T14:44:28Z</time>
      </trkpt>
      <trkpt lat="47.9102" lon="7.1036">
        <ele>1256</ele>
        <time>2023-05-28T14:44:38Z</time>
      </trkpt>
      <trkpt lat="47.91029" lon="7.10366">
        <ele>1256</ele>
        <time>2023-05-28T14:44:47Z</time>
      </trkpt>
      <trkpt lat="47.91038" lon="7.10371">
        <ele>1256</ele>
        <time>2023-05-28T14:44:56Z</time>
      </trkpt>
      <trkpt lat="47.91046" lon="7.10376">
        <ele>1256</ele>
        <time>2023-05-28T14:45:06Z</time>
      </trkpt>
      <trkpt lat="47.91055" lon="7.10383">
        <ele>1256</ele>
        <time>2023-05-28T14:45:16Z</time>
      </trkpt>
      <trkpt lat="47.91063" lon="7.10391">
        <ele>1256</ele>
        <time>2023-05-28T14:45:26Z</time>
      </trkpt>
      <trkpt lat="47.91072" lon="7.10397">
        <ele>1256</ele>
        <time>2023-05-28T14:45:37Z</time>
      </trkpt>
      <trkpt lat="47.9108" lon="7.10402">
        <ele>1256</ele>
        <time>2023-05-28T14:45:47Z</time>
      </trkpt>
      <trkpt lat="47.91089" lon="7.10409">
        <ele>1256</ele>
        <time>2023-05-28T14:45:58Z</time>
      </trkpt>
      <trkpt lat="47.91099" lon="7.10413">
        <ele>1256</ele>
        <time>2023-05-28T14:46:08Z</time>
      </trkpt>
      <trkpt lat="47.91107" lon="7.10419">
        <ele>1255</ele>
        <time>2023-05-28T14:46:17Z</time>
      </trkpt>
      <trkpt lat="47.91116" lon="7.10425">
        <ele>1255</ele>
        <time>2023-05-28T14:46:26Z</time>
      </trkpt>
      <trkpt lat="47.91125" lon="7.10431">
        <ele>1255</ele>
        <time>2023-05-28T14:46:35Z</time>
      </trkpt>
      <trkpt lat="47.91133" lon="7.10437">
        <ele>1254</ele>
        <time>2023-05-28T14:46:45Z</time>
      </trkpt>
      <trkpt lat="47.91142" lon="7.10439">
        <ele>1254</ele>
        <time>2023-05-28T14:46:55Z</time>
      </trkpt>
      <trkpt lat="47.91151" lon="7.1044">
        <ele>1253</ele>
        <time>2023-05-28T14:47:06Z</time>
      </trkpt>
      <trkpt lat="47.9116" lon="7.1044">
        <ele>1252</ele>
        <time>2023-05-28T14:47:17Z</time>
      </trkpt>
      <trkpt lat="47.91169" lon="7.1044">
        <ele>1251</ele>
        <time>2023-05-28T14:47:27Z</time>
      </trkpt>
      <trkpt lat="47.91178" lon="7.10436">
        <ele>1250</ele>
        <time>2023-05-28T14:47:39Z</time>
      </trkpt>
      <trkpt lat="47.91176" lon="7.10425">
        <ele>1248</ele>
        <time>2023-05-28T14:48:08Z</time>
      </trkpt>
      <trkpt lat="47.91178" lon="7.1043">
        <ele>1248</ele>
        <time>2023-05-28T14:48:13Z</time>
      </trkpt>
      <trkpt lat="47.9118" lon="7.10433">
        <ele>1248</ele>
        <time>2023-05-28T16:36:53Z</time>
      </trkpt>
      <trkpt lat="47.91178" lon="7.10441">
        <ele>1250</ele>
        <time>2023-05-28T16:39:13Z</time>
      </trkpt>
      <trkpt lat="47.9117" lon="7.10447">
        <ele>1251</ele>
        <time>2023-05-28T16:39:33Z</time>
      </trkpt>
      <trkpt lat="47.9116" lon="7.10447">
        <ele>1251</ele>
        <time>2023-05-28T16:39:44Z</time>
      </trkpt>
      <trkpt lat="47.91151" lon="7.10448">
        <ele>1251</ele>
        <time>2023-05-28T16:39:56Z</time>
      </trkpt>
      <trkpt lat="47.91142" lon="7.10449">
        <ele>1252</ele>
        <time>2023-05-28T16:40:07Z</time>
      </trkpt>
      <trkpt lat="47.91134" lon="7.10446">
        <ele>1253</ele>
        <time>2023-05-28T16:40:18Z</time>
      </trkpt>
      <trkpt lat="47.91125" lon="7.10441">
        <ele>1254</ele>
        <time>2023-05-28T16:40:30Z</time>
      </trkpt>
      <trkpt lat="47.91116" lon="7.10437">
        <ele>1254</ele>
        <time>2023-05-28T16:40:41Z</time>
      </trkpt>
      <trkpt lat="47.91107" lon="7.10434">
        <ele>1255</ele>
        <time>2023-05-28T16:40:52Z</time>
      </trkpt>
      <trkpt lat="47.91099" lon="7.10426">
        <ele>1255</ele>
        <time>2023-05-28T16:41:04Z</time>
      </trkpt>
      <trkpt lat="47.91091" lon="7.10422">
        <ele>1256</ele>
        <time>2023-05-28T16:41:15Z</time>
      </trkpt>
      <trkpt lat="47.91082" lon="7.10416">
        <ele>1256</ele>
        <time>2023-05-28T16:41:26Z</time>
      </trkpt>
      <trkpt lat="47.91074" lon="7.1041">
        <ele>1257</ele>
        <time>2023-05-28T16:41:36Z</time>
      </trkpt>
      <trkpt lat="47.91065" lon="7.10404">
        <ele>1257</ele>
        <time>2023-05-28T16:41:47Z</time>
      </trkpt>
      <trkpt lat="47.91057" lon="7.10398">
        <ele>1257</ele>
        <time>2023-05-28T16:42:00Z</time>
      </trkpt>
      <trkpt lat="47.9105" lon="7.10389">
        <ele>1258</ele>
        <time>2023-05-28T16:42:12Z</time>
      </trkpt>
      <trkpt lat="47.91041" lon="7.10383">
        <ele>1258</ele>
        <time>2023-05-28T16:42:19Z</time>
      </trkpt>
      <trkpt lat="47.91032" lon="7.10379">
        <ele>1257</ele>
        <time>2023-05-28T16:42:30Z</time>
      </trkpt>
      <trkpt lat="47.91023" lon="7.10374">
        <ele>1257</ele>
        <time>2023-05-28T16:42:40Z</time>
      </trkpt>
      <trkpt lat="47.91014" lon="7.10369">
        <ele>1257</ele>
        <time>2023-05-28T16:42:51Z</time>
      </trkpt>
      <trkpt lat="47.91005" lon="7.10365">
        <ele>1257</ele>
        <time>2023-05-28T16:43:03Z</time>
      </trkpt>
      <trkpt lat="47.90996" lon="7.10364">
        <ele>1257</ele>
        <time>2023-05-28T16:43:13Z</time>
      </trkpt>
      <trkpt lat="47.90987" lon="7.1036">
        <ele>1257</ele>
        <time>2023-05-28T16:43:23Z</time>
      </trkpt>
      <trkpt lat="47.90978" lon="7.10355">
        <ele>1258</ele>
        <time>2023-05-28T16:43:48Z</time>
      </trkpt>
      <trkpt lat="47.9097" lon="7.10347">
        <ele>1259</ele>
        <time>2023-05-28T16:44:01Z</time>
      </trkpt>
      <trkpt lat="47.90961" lon="7.10341">
        <ele>1260</ele>
        <time>2023-05-28T16:44:14Z</time>
      </trkpt>
      <trkpt lat="47.90952" lon="7.10338">
        <ele>1260</ele>
        <time>2023-05-28T16:44:23Z</time>
      </trkpt>
      <trkpt lat="47.90944" lon="7.10333">
        <ele>1261</ele>
        <time>2023-05-28T16:44:34Z</time>
      </trkpt>
      <trkpt lat="47.90935" lon="7.10328">
        <ele>1261</ele>
        <time>2023-05-28T16:44:43Z</time>
      </trkpt>
      <trkpt lat="47.90927" lon="7.10321">
        <ele>1261</ele>
        <time>2023-05-28T16:44:53Z</time>
      </trkpt>
      <trkpt lat="47.90919" lon="7.10312">
        <ele>1262</ele>
        <time>2023-05-28T16:45:04Z</time>
      </trkpt>
      <trkpt lat="47.90909" lon="7.10308">
        <ele>1262</ele>
        <time>2023-05-28T16:45:11Z</time>
      </trkpt>
      <trkpt lat="47.909" lon="7.10305">
        <ele>1262</ele>
        <time>2023-05-28T16:45:17Z</time>
      </trkpt>
      <trkpt lat="47.90892" lon="7.10302">
        <ele>1262</ele>
        <time>2023-05-28T16:45:25Z</time>
      </trkpt>
      <trkpt lat="47.90882" lon="7.10298">
        <ele>1262</ele>
        <time>2023-05-28T16:45:35Z</time>
      </trkpt>
      <trkpt lat="47.90873" lon="7.10292">
        <ele>1262</ele>
        <time>2023-05-28T16:45:45Z</time>
      </trkpt>
      <trkpt lat="47.90864" lon="7.10287">
        <ele>1262</ele>
        <time>2023-05-28T16:45:57Z</time>
      </trkpt>
      <trkpt lat="47.90855" lon="7.10281">
        <ele>1262</ele>
        <time>2023-05-28T16:46:09Z</time>
      </trkpt>
      <trkpt lat="47.90847" lon="7.10275">
        <ele>1262</ele>
        <time>2023-05-28T16:46:21Z</time>
      </trkpt>
      <trkpt lat="47.90838" lon="7.10269">
        <ele>1263</ele>
        <time>2023-05-28T16:46:34Z</time>
      </trkpt>
      <trkpt lat="47.90829" lon="7.10265">
        <ele>1263</ele>
        <time>2023-05-28T16:46:47Z</time>
      </trkpt>
      <trkpt lat="47.90821" lon="7.1026">
        <ele>1264</ele>
        <time>2023-05-28T16:46:59Z</time>
      </trkpt>
      <trkpt lat="47.90812" lon="7.10254">
        <ele>1265</ele>
        <time>2023-05-28T16:47:08Z</time>
      </trkpt>
      <trkpt lat="47.90803" lon="7.10248">
        <ele>1265</ele>
        <time>2023-05-28T16:47:19Z</time>
      </trkpt>
      <trkpt lat="47.90795" lon="7.1024">
        <ele>1265</ele>
        <time>2023-05-28T16:47:31Z</time>
      </trkpt>
      <trkpt lat="47.90788" lon="7.10231">
        <ele>1265</ele>
        <time>2023-05-28T16:47:42Z</time>
      </trkpt>
      <trkpt lat="47.9078" lon="7.10225">
        <ele>1265</ele>
        <time>2023-05-28T16:47:51Z</time>
      </trkpt>
      <trkpt lat="47.90773" lon="7.10216">
        <ele>1265</ele>
        <time>2023-05-28T16:48:00Z</time>
      </trkpt>
      <trkpt lat="47.90764" lon="7.1021">
        <ele>1265</ele>
        <time>2023-05-28T16:48:10Z</time>
      </trkpt>
      <trkpt lat="47.90757" lon="7.10203">
        <ele>1265</ele>
        <time>2023-05-28T16:48:19Z</time>
      </trkpt>
      <trkpt lat="47.90749" lon="7.10195">
        <ele>1265</ele>
        <time>2023-05-28T16:48:27Z</time>
      </trkpt>
      <trkpt lat="47.90742" lon="7.10185">
        <ele>1265</ele>
        <time>2023-05-28T16:48:36Z</time>
      </trkpt>
      <trkpt lat="47.90735" lon="7.10174">
        <ele>1265</ele>
        <time>2023-05-28T16:48:45Z</time>
      </trkpt>
      <trkpt lat="47.90728" lon="7.10165">
        <ele>1264</ele>
        <time>2023-05-28T16:48:55Z</time>
      </trkpt>
      <trkpt lat="47.90721" lon="7.10153">
        <ele>1264</ele>
        <time>2023-05-28T16:49:05Z</time>
      </trkpt>
      <trkpt lat="47.90715" lon="7.10142">
        <ele>1263</ele>
        <time>2023-05-28T16:49:14Z</time>
      </trkpt>
      <trkpt lat="47.90709" lon="7.10131">
        <ele>1263</ele>
        <time>2023-05-28T16:49:24Z</time>
      </trkpt>
      <trkpt lat="47.90704" lon="7.1012">
        <ele>1263</ele>
        <time>2023-05-28T16:49:33Z</time>
      </trkpt>
      <trkpt lat="47.90702" lon="7.10106">
        <ele>1263</ele>
        <time>2023-05-28T16:49:43Z</time>
      </trkpt>
      <trkpt lat="47.907" lon="7.10091">
        <ele>1264</ele>
        <time>2023-05-28T16:49:54Z</time>
      </trkpt>
      <trkpt lat="47.90698" lon="7.10078">
        <ele>1264</ele>
        <time>2023-05-28T16:50:04Z</time>
      </trkpt>
      <trkpt lat="47.90696" lon="7.10065">
        <ele>1263</ele>
        <time>2023-05-28T16:50:15Z</time>
      </trkpt>
      <trkpt lat="47.90693" lon="7.10052">
        <ele>1262</ele>
        <time>2023-05-28T16:50:27Z</time>
      </trkpt>
      <trkpt lat="47.90692" lon="7.10037">
        <ele>1261</ele>
        <time>2023-05-28T16:50:36Z</time>
      </trkpt>
      <trkpt lat="47.90689" lon="7.10024">
        <ele>1261</ele>
        <time>2023-05-28T16:50:45Z</time>
      </trkpt>
      <trkpt lat="47.90687" lon="7.1001">
        <ele>1260</ele>
        <time>2023-05-28T16:50:54Z</time>
      </trkpt>
      <trkpt lat="47.90685" lon="7.09996">
        <ele>1260</ele>
        <time>2023-05-28T16:51:04Z</time>
      </trkpt>
      <trkpt lat="47.90682" lon="7.09983">
        <ele>1259</ele>
        <time>2023-05-28T16:51:14Z</time>
      </trkpt>
      <trkpt lat="47.9068" lon="7.09969">
        <ele>1259</ele>
        <time>2023-05-28T16:51:23Z</time>
      </trkpt>
      <trkpt lat="47.90677" lon="7.09955">
        <ele>1258</ele>
        <time>2023-05-28T16:51:33Z</time>
      </trkpt>
      <trkpt lat="47.90674" lon="7.09942">
        <ele>1257</ele>
        <time>2023-05-28T16:51:42Z</time>
      </trkpt>
      <trkpt lat="47.90672" lon="7.09928">
        <ele>1257</ele>
        <time>2023-05-28T16:51:51Z</time>
      </trkpt>
      <trkpt lat="47.90669" lon="7.09915">
        <ele>1257</ele>
        <time>2023-05-28T16:51:59Z</time>
      </trkpt>
      <trkpt lat="47.90668" lon="7.09901">
        <ele>1256</ele>
        <time>2023-05-28T16:52:08Z</time>
      </trkpt>
      <trkpt lat="47.90666" lon="7.09887">
        <ele>1256</ele>
        <time>2023-05-28T16:52:17Z</time>
      </trkpt>
      <trkpt lat="47.90665" lon="7.09873">
        <ele>1255</ele>
        <time>2023-05-28T16:52:26Z</time>
      </trkpt>
      <trkpt lat="47.90664" lon="7.09859">
        <ele>1255</ele>
        <time>2023-05-28T16:52:36Z</time>
      </trkpt>
      <trkpt lat="47.90664" lon="7.09845">
        <ele>1255</ele>
        <time>2023-05-28T16:52:46Z</time>
      </trkpt>
      <trkpt lat="47.90664" lon="7.0983">
        <ele>1255</ele>
        <time>2023-05-28T16:52:57Z</time>
      </trkpt>
      <trkpt lat="47.90664" lon="7.09815">
        <ele>1255</ele>
        <time>2023-05-28T16:53:06Z</time>
      </trkpt>
      <trkpt lat="47.90662" lon="7.09802">
        <ele>1254</ele>
        <time>2023-05-28T16:53:16Z</time>
      </trkpt>
      <trkpt lat="47.9066" lon="7.09787">
        <ele>1254</ele>
        <time>2023-05-28T16:53:26Z</time>
      </trkpt>
      <trkpt lat="47.90657" lon="7.09773">
        <ele>1254</ele>
        <time>2023-05-28T16:53:35Z</time>
      </trkpt>
      <trkpt lat="47.90655" lon="7.09759">
        <ele>1254</ele>
        <time>2023-05-28T16:53:45Z</time>
      </trkpt>
      <trkpt lat="47.90655" lon="7.09745">
        <ele>1254</ele>
        <time>2023-05-28T16:53:54Z</time>
      </trkpt>
      <trkpt lat="47.90654" lon="7.0973">
        <ele>1254</ele>
        <time>2023-05-28T16:54:02Z</time>
      </trkpt>
      <trkpt lat="47.90652" lon="7.09715">
        <ele>1255</ele>
        <time>2023-05-28T16:54:12Z</time>
      </trkpt>
      <trkpt lat="47.90651" lon="7.09701">
        <ele>1255</ele>
        <time>2023-05-28T16:54:23Z</time>
      </trkpt>
      <trkpt lat="47.9065" lon="7.09687">
        <ele>1255</ele>
        <time>2023-05-28T16:54:32Z</time>
      </trkpt>
      <trkpt lat="47.90649" lon="7.09673">
        <ele>1255</ele>
        <time>2023-05-28T16:54:41Z</time>
      </trkpt>
      <trkpt lat="47.90648" lon="7.09659">
        <ele>1255</ele>
        <time>2023-05-28T16:54:50Z</time>
      </trkpt>
      <trkpt lat="47.90647" lon="7.09645">
        <ele>1255</ele>
        <time>2023-05-28T16:54:58Z</time>
      </trkpt>
      <trkpt lat="47.90647" lon="7.0963">
        <ele>1255</ele>
        <time>2023-05-28T16:55:07Z</time>
      </trkpt>
      <trkpt lat="47.90646" lon="7.09616">
        <ele>1255</ele>
        <time>2023-05-28T16:55:16Z</time>
      </trkpt>
      <trkpt lat="47.90644" lon="7.09602">
        <ele>1255</ele>
        <time>2023-05-28T16:55:26Z</time>
      </trkpt>
      <trkpt lat="47.90641" lon="7.09588">
        <ele>1255</ele>
        <time>2023-05-28T16:55:36Z</time>
      </trkpt>
      <trkpt lat="47.90639" lon="7.09573">
        <ele>1255</ele>
        <time>2023-05-28T16:55:45Z</time>
      </trkpt>
      <trkpt lat="47.90637" lon="7.0956">
        <ele>1255</ele>
        <time>2023-05-28T16:55:53Z</time>
      </trkpt>
      <trkpt lat="47.90634" lon="7.09548">
        <ele>1256</ele>
        <time>2023-05-28T16:56:02Z</time>
      </trkpt>
      <trkpt lat="47.90631" lon="7.09535">
        <ele>1256</ele>
        <time>2023-05-28T16:56:11Z</time>
      </trkpt>
      <trkpt lat="47.90627" lon="7.09522">
        <ele>1256</ele>
        <time>2023-05-28T16:56:21Z</time>
      </trkpt>
      <trkpt lat="47.90624" lon="7.0951">
        <ele>1255</ele>
        <time>2023-05-28T16:56:30Z</time>
      </trkpt>
      <trkpt lat="47.90621" lon="7.09497">
        <ele>1255</ele>
        <time>2023-05-28T16:56:39Z</time>
      </trkpt>
      <trkpt lat="47.90616" lon="7.09484">
        <ele>1255</ele>
        <time>2023-05-28T16:56:47Z</time>
      </trkpt>
      <trkpt lat="47.90612" lon="7.09471">
        <ele>1255</ele>
        <time>2023-05-28T16:56:55Z</time>
      </trkpt>
      <trkpt lat="47.90608" lon="7.09458">
        <ele>1255</ele>
        <time>2023-05-28T16:57:04Z</time>
      </trkpt>
      <trkpt lat="47.90606" lon="7.09445">
        <ele>1255</ele>
        <time>2023-05-28T16:57:12Z</time>
      </trkpt>
      <trkpt lat="47.90602" lon="7.09432">
        <ele>1254</ele>
        <time>2023-05-28T16:57:20Z</time>
      </trkpt>
      <trkpt lat="47.90598" lon="7.0942">
        <ele>1254</ele>
        <time>2023-05-28T16:57:30Z</time>
      </trkpt>
      <trkpt lat="47.90593" lon="7.09408">
        <ele>1254</ele>
        <time>2023-05-28T16:57:42Z</time>
      </trkpt>
      <trkpt lat="47.90586" lon="7.09398">
        <ele>1254</ele>
        <time>2023-05-28T16:57:54Z</time>
      </trkpt>
      <trkpt lat="47.90581" lon="7.09385">
        <ele>1252</ele>
        <time>2023-05-28T16:58:05Z</time>
      </trkpt>
      <trkpt lat="47.90576" lon="7.09374">
        <ele>1252</ele>
        <time>2023-05-28T16:58:14Z</time>
      </trkpt>
      <trkpt lat="47.90572" lon="7.09362">
        <ele>1251</ele>
        <time>2023-05-28T16:58:22Z</time>
      </trkpt>
      <trkpt lat="47.90566" lon="7.0935">
        <ele>1250</ele>
        <time>2023-05-28T16:58:31Z</time>
      </trkpt>
      <trkpt lat="47.90561" lon="7.09338">
        <ele>1249</ele>
        <time>2023-05-28T16:58:40Z</time>
      </trkpt>
      <trkpt lat="47.90555" lon="7.09327">
        <ele>1248</ele>
        <time>2023-05-28T16:58:50Z</time>
      </trkpt>
      <trkpt lat="47.9055" lon="7.09315">
        <ele>1247</ele>
        <time>2023-05-28T16:58:59Z</time>
      </trkpt>
      <trkpt lat="47.90545" lon="7.09303">
        <ele>1247</ele>
        <time>2023-05-28T16:59:07Z</time>
      </trkpt>
      <trkpt lat="47.90541" lon="7.0929">
        <ele>1246</ele>
        <time>2023-05-28T16:59:15Z</time>
      </trkpt>
      <trkpt lat="47.90538" lon="7.09277">
        <ele>1245</ele>
        <time>2023-05-28T16:59:23Z</time>
      </trkpt>
      <trkpt lat="47.90535" lon="7.09263">
        <ele>1245</ele>
        <time>2023-05-28T16:59:32Z</time>
      </trkpt>
      <trkpt lat="47.90532" lon="7.09249">
        <ele>1244</ele>
        <time>2023-05-28T16:59:41Z</time>
      </trkpt>
      <trkpt lat="47.90528" lon="7.09235">
        <ele>1244</ele>
        <time>2023-05-28T16:59:50Z</time>
      </trkpt>
      <trkpt lat="47.90524" lon="7.09223">
        <ele>1243</ele>
        <time>2023-05-28T16:59:59Z</time>
      </trkpt>
      <trkpt lat="47.9052" lon="7.0921">
        <ele>1243</ele>
        <time>2023-05-28T17:00:08Z</time>
      </trkpt>
      <trkpt lat="47.90517" lon="7.09196">
        <ele>1243</ele>
        <time>2023-05-28T17:00:18Z</time>
      </trkpt>
      <trkpt lat="47.90515" lon="7.09183">
        <ele>1243</ele>
        <time>2023-05-28T17:00:27Z</time>
      </trkpt>
      <trkpt lat="47.90515" lon="7.09169">
        <ele>1242</ele>
        <time>2023-05-28T17:00:37Z</time>
      </trkpt>
      <trkpt lat="47.90515" lon="7.09154">
        <ele>1242</ele>
        <time>2023-05-28T17:00:47Z</time>
      </trkpt>
      <trkpt lat="47.90514" lon="7.09141">
        <ele>1242</ele>
        <time>2023-05-28T17:00:56Z</time>
      </trkpt>
      <trkpt lat="47.90513" lon="7.09127">
        <ele>1242</ele>
        <time>2023-05-28T17:01:05Z</time>
      </trkpt>
      <trkpt lat="47.90512" lon="7.09113">
        <ele>1242</ele>
        <time>2023-05-28T17:01:14Z</time>
      </trkpt>
      <trkpt lat="47.90511" lon="7.091">
        <ele>1241</ele>
        <time>2023-05-28T17:01:23Z</time>
      </trkpt>
      <trkpt lat="47.90511" lon="7.09086">
        <ele>1241</ele>
        <time>2023-05-28T17:01:32Z</time>
      </trkpt>
      <trkpt lat="47.9051" lon="7.09071">
        <ele>1241</ele>
        <time>2023-05-28T17:01:41Z</time>
      </trkpt>
      <trkpt lat="47.90509" lon="7.09058">
        <ele>1241</ele>
        <time>2023-05-28T17:01:50Z</time>
      </trkpt>
      <trkpt lat="47.90507" lon="7.09044">
        <ele>1241</ele>
        <time>2023-05-28T17:01:59Z</time>
      </trkpt>
      <trkpt lat="47.90503" lon="7.09032">
        <ele>1241</ele>
        <time>2023-05-28T17:02:09Z</time>
      </trkpt>
      <trkpt lat="47.90499" lon="7.0902">
        <ele>1240</ele>
        <time>2023-05-28T17:02:25Z</time>
      </trkpt>
      <trkpt lat="47.90493" lon="7.09008">
        <ele>1240</ele>
        <time>2023-05-28T17:02:36Z</time>
      </trkpt>
      <trkpt lat="47.90486" lon="7.08998">
        <ele>1240</ele>
        <time>2023-05-28T17:02:47Z</time>
      </trkpt>
      <trkpt lat="47.90484" lon="7.08984">
        <ele>1239</ele>
        <time>2023-05-28T17:02:57Z</time>
      </trkpt>
      <trkpt lat="47.90489" lon="7.08973">
        <ele>1239</ele>
        <time>2023-05-28T17:03:10Z</time>
      </trkpt>
      <trkpt lat="47.90495" lon="7.08963">
        <ele>1239</ele>
        <time>2023-05-28T17:03:34Z</time>
      </trkpt>
      <trkpt lat="47.90496" lon="7.08961">
        <ele>1239</ele>
        <time>2023-05-28T17:03:35Z</time>
      </trkpt>
      <trkpt lat="47.90519" lon="7.09028">
        <ele>1234</ele>
        <time>2023-05-28T18:57:21Z</time>
      </trkpt>
      <trkpt lat="47.9051" lon="7.0903">
        <ele>1234</ele>
        <time>2023-05-28T18:57:26Z</time>
      </trkpt>
      <trkpt lat="47.9051" lon="7.09043">
        <ele>1234</ele>
        <time>2023-05-28T18:57:35Z</time>
      </trkpt>
      <trkpt lat="47.9051" lon="7.09056">
        <ele>1234</ele>
        <time>2023-05-28T18:57:47Z</time>
      </trkpt>
      <trkpt lat="47.90511" lon="7.09071">
        <ele>1234</ele>
        <time>2023-05-28T18:57:58Z</time>
      </trkpt>
      <trkpt lat="47.9051" lon="7.09085">
        <ele>1234</ele>
        <time>2023-05-28T18:58:10Z</time>
      </trkpt>
      <trkpt lat="47.90511" lon="7.09099">
        <ele>1235</ele>
        <time>2023-05-28T18:58:21Z</time>
      </trkpt>
      <trkpt lat="47.90512" lon="7.09113">
        <ele>1235</ele>
        <time>2023-05-28T18:58:32Z</time>
      </trkpt>
      <trkpt lat="47.90513" lon="7.09127">
        <ele>1235</ele>
        <time>2023-05-28T18:58:42Z</time>
      </trkpt>
      <trkpt lat="47.90514" lon="7.0914">
        <ele>1235</ele>
        <time>2023-05-28T18:58:53Z</time>
      </trkpt>
      <trkpt lat="47.90515" lon="7.09154">
        <ele>1235</ele>
        <time>2023-05-28T18:59:03Z</time>
      </trkpt>
      <trkpt lat="47.90516" lon="7.09168">
        <ele>1235</ele>
        <time>2023-05-28T18:59:14Z</time>
      </trkpt>
      <trkpt lat="47.90517" lon="7.09182">
        <ele>1236</ele>
        <time>2023-05-28T18:59:25Z</time>
      </trkpt>
      <trkpt lat="47.90518" lon="7.09196">
        <ele>1236</ele>
        <time>2023-05-28T18:59:37Z</time>
      </trkpt>
      <trkpt lat="47.90521" lon="7.0921">
        <ele>1236</ele>
        <time>2023-05-28T18:59:52Z</time>
      </trkpt>
      <trkpt lat="47.90524" lon="7.09222">
        <ele>1236</ele>
        <time>2023-05-28T19:00:05Z</time>
      </trkpt>
      <trkpt lat="47.90529" lon="7.09235">
        <ele>1237</ele>
        <time>2023-05-28T19:00:17Z</time>
      </trkpt>
      <trkpt lat="47.90532" lon="7.09248">
        <ele>1237</ele>
        <time>2023-05-28T19:00:27Z</time>
      </trkpt>
      <trkpt lat="47.90535" lon="7.09261">
        <ele>1237</ele>
        <time>2023-05-28T19:00:38Z</time>
      </trkpt>
      <trkpt lat="47.90538" lon="7.09274">
        <ele>1237</ele>
        <time>2023-05-28T19:00:48Z</time>
      </trkpt>
      <trkpt lat="47.90542" lon="7.09287">
        <ele>1237</ele>
        <time>2023-05-28T19:00:58Z</time>
      </trkpt>
      <trkpt lat="47.90547" lon="7.093">
        <ele>1238</ele>
        <time>2023-05-28T19:01:09Z</time>
      </trkpt>
      <trkpt lat="47.90552" lon="7.0931">
        <ele>1238</ele>
        <time>2023-05-28T19:01:21Z</time>
      </trkpt>
      <trkpt lat="47.90558" lon="7.09322">
        <ele>1238</ele>
        <time>2023-05-28T19:01:33Z</time>
      </trkpt>
      <trkpt lat="47.90563" lon="7.09335">
        <ele>1238</ele>
        <time>2023-05-28T19:01:44Z</time>
      </trkpt>
      <trkpt lat="47.90568" lon="7.09346">
        <ele>1239</ele>
        <time>2023-05-28T19:01:54Z</time>
      </trkpt>
      <trkpt lat="47.90573" lon="7.09358">
        <ele>1239</ele>
        <time>2023-05-28T19:02:06Z</time>
      </trkpt>
      <trkpt lat="47.90579" lon="7.09368">
        <ele>1241</ele>
        <time>2023-05-28T19:02:18Z</time>
      </trkpt>
      <trkpt lat="47.90584" lon="7.0938">
        <ele>1241</ele>
        <time>2023-05-28T19:02:30Z</time>
      </trkpt>
      <trkpt lat="47.90587" lon="7.09392">
        <ele>1243</ele>
        <time>2023-05-28T19:02:42Z</time>
      </trkpt>
      <trkpt lat="47.90591" lon="7.09405">
        <ele>1243</ele>
        <time>2023-05-28T19:02:55Z</time>
      </trkpt>
      <trkpt lat="47.90597" lon="7.09416">
        <ele>1244</ele>
        <time>2023-05-28T19:03:06Z</time>
      </trkpt>
      <trkpt lat="47.90603" lon="7.09427">
        <ele>1246</ele>
        <time>2023-05-28T19:03:17Z</time>
      </trkpt>
      <trkpt lat="47.90606" lon="7.0944">
        <ele>1247</ele>
        <time>2023-05-28T19:03:28Z</time>
      </trkpt>
      <trkpt lat="47.90609" lon="7.09453">
        <ele>1247</ele>
        <time>2023-05-28T19:03:38Z</time>
      </trkpt>
      <trkpt lat="47.90613" lon="7.09466">
        <ele>1248</ele>
        <time>2023-05-28T19:03:48Z</time>
      </trkpt>
      <trkpt lat="47.90616" lon="7.09479">
        <ele>1248</ele>
        <time>2023-05-28T19:03:58Z</time>
      </trkpt>
      <trkpt lat="47.90619" lon="7.09492">
        <ele>1248</ele>
        <time>2023-05-28T19:04:09Z</time>
      </trkpt>
      <trkpt lat="47.90624" lon="7.09504">
        <ele>1248</ele>
        <time>2023-05-28T19:04:20Z</time>
      </trkpt>
      <trkpt lat="47.90627" lon="7.09518">
        <ele>1248</ele>
        <time>2023-05-28T19:04:32Z</time>
      </trkpt>
      <trkpt lat="47.9063" lon="7.09532">
        <ele>1248</ele>
        <time>2023-05-28T19:04:43Z</time>
      </trkpt>
      <trkpt lat="47.90634" lon="7.09545">
        <ele>1249</ele>
        <time>2023-05-28T19:04:53Z</time>
      </trkpt>
      <trkpt lat="47.90638" lon="7.09557">
        <ele>1249</ele>
        <time>2023-05-28T19:05:03Z</time>
      </trkpt>
      <trkpt lat="47.90641" lon="7.09571">
        <ele>1249</ele>
        <time>2023-05-28T19:05:14Z</time>
      </trkpt>
      <trkpt lat="47.90642" lon="7.09584">
        <ele>1249</ele>
        <time>2023-05-28T19:05:25Z</time>
      </trkpt>
      <trkpt lat="47.90644" lon="7.09598">
        <ele>1249</ele>
        <time>2023-05-28T19:05:36Z</time>
      </trkpt>
      <trkpt lat="47.90646" lon="7.09611">
        <ele>1249</ele>
        <time>2023-05-28T19:05:46Z</time>
      </trkpt>
      <trkpt lat="47.90648" lon="7.09625">
        <ele>1249</ele>
        <time>2023-05-28T19:05:56Z</time>
      </trkpt>
      <trkpt lat="47.90649" lon="7.09639">
        <ele>1248</ele>
        <time>2023-05-28T19:06:06Z</time>
      </trkpt>
      <trkpt lat="47.9065" lon="7.09653">
        <ele>1248</ele>
        <time>2023-05-28T19:06:17Z</time>
      </trkpt>
      <trkpt lat="47.90649" lon="7.09666">
        <ele>1248</ele>
        <time>2023-05-28T19:06:27Z</time>
      </trkpt>
      <trkpt lat="47.90649" lon="7.0968">
        <ele>1248</ele>
        <time>2023-05-28T19:06:39Z</time>
      </trkpt>
      <trkpt lat="47.90652" lon="7.09693">
        <ele>1248</ele>
        <time>2023-05-28T19:06:50Z</time>
      </trkpt>
      <trkpt lat="47.90653" lon="7.09707">
        <ele>1248</ele>
        <time>2023-05-28T19:07:01Z</time>
      </trkpt>
      <trkpt lat="47.90654" lon="7.09721">
        <ele>1248</ele>
        <time>2023-05-28T19:07:09Z</time>
      </trkpt>
      <trkpt lat="47.90656" lon="7.09735">
        <ele>1248</ele>
        <time>2023-05-28T19:07:19Z</time>
      </trkpt>
      <trkpt lat="47.90656" lon="7.09749">
        <ele>1248</ele>
        <time>2023-05-28T19:07:29Z</time>
      </trkpt>
      <trkpt lat="47.90656" lon="7.09763">
        <ele>1248</ele>
        <time>2023-05-28T19:07:39Z</time>
      </trkpt>
      <trkpt lat="47.90658" lon="7.09777">
        <ele>1248</ele>
        <time>2023-05-28T19:07:50Z</time>
      </trkpt>
      <trkpt lat="47.90662" lon="7.09791">
        <ele>1248</ele>
        <time>2023-05-28T19:08:00Z</time>
      </trkpt>
      <trkpt lat="47.90663" lon="7.09805">
        <ele>1247</ele>
        <time>2023-05-28T19:08:09Z</time>
      </trkpt>
      <trkpt lat="47.90664" lon="7.0982">
        <ele>1247</ele>
        <time>2023-05-28T19:08:18Z</time>
      </trkpt>
      <trkpt lat="47.90665" lon="7.09834">
        <ele>1247</ele>
        <time>2023-05-28T19:08:27Z</time>
      </trkpt>
      <trkpt lat="47.90666" lon="7.09847">
        <ele>1247</ele>
        <time>2023-05-28T19:08:37Z</time>
      </trkpt>
      <trkpt lat="47.90666" lon="7.09862">
        <ele>1247</ele>
        <time>2023-05-28T19:08:48Z</time>
      </trkpt>
      <trkpt lat="47.90667" lon="7.09875">
        <ele>1247</ele>
        <time>2023-05-28T19:08:59Z</time>
      </trkpt>
      <trkpt lat="47.90668" lon="7.0989">
        <ele>1248</ele>
        <time>2023-05-28T19:09:12Z</time>
      </trkpt>
      <trkpt lat="47.90669" lon="7.09903">
        <ele>1248</ele>
        <time>2023-05-28T19:09:20Z</time>
      </trkpt>
      <trkpt lat="47.90673" lon="7.09917">
        <ele>1248</ele>
        <time>2023-05-28T19:09:29Z</time>
      </trkpt>
      <trkpt lat="47.90676" lon="7.0993">
        <ele>1248</ele>
        <time>2023-05-28T19:09:58Z</time>
      </trkpt>
      <trkpt lat="47.90679" lon="7.09944">
        <ele>1248</ele>
        <time>2023-05-28T19:10:24Z</time>
      </trkpt>
      <trkpt lat="47.90681" lon="7.09958">
        <ele>1249</ele>
        <time>2023-05-28T19:10:34Z</time>
      </trkpt>
      <trkpt lat="47.90682" lon="7.09971">
        <ele>1249</ele>
        <time>2023-05-28T19:10:52Z</time>
      </trkpt>
      <trkpt lat="47.90685" lon="7.09984">
        <ele>1250</ele>
        <time>2023-05-28T19:11:02Z</time>
      </trkpt>
      <trkpt lat="47.90687" lon="7.09998">
        <ele>1250</ele>
        <time>2023-05-28T19:11:13Z</time>
      </trkpt>
      <trkpt lat="47.90689" lon="7.10011">
        <ele>1250</ele>
        <time>2023-05-28T19:11:23Z</time>
      </trkpt>
      <trkpt lat="47.90691" lon="7.10024">
        <ele>1251</ele>
        <time>2023-05-28T19:11:33Z</time>
      </trkpt>
      <trkpt lat="47.90693" lon="7.10039">
        <ele>1251</ele>
        <time>2023-05-28T19:11:44Z</time>
      </trkpt>
      <trkpt lat="47.90696" lon="7.10053">
        <ele>1252</ele>
        <time>2023-05-28T19:11:54Z</time>
      </trkpt>
      <trkpt lat="47.90698" lon="7.10066">
        <ele>1252</ele>
        <time>2023-05-28T19:12:04Z</time>
      </trkpt>
      <trkpt lat="47.907" lon="7.10081">
        <ele>1253</ele>
        <time>2023-05-28T19:12:15Z</time>
      </trkpt>
      <trkpt lat="47.90702" lon="7.10095">
        <ele>1254</ele>
        <time>2023-05-28T19:12:28Z</time>
      </trkpt>
      <trkpt lat="47.90704" lon="7.10108">
        <ele>1255</ele>
        <time>2023-05-28T19:12:39Z</time>
      </trkpt>
      <trkpt lat="47.90709" lon="7.1012">
        <ele>1256</ele>
        <time>2023-05-28T19:12:52Z</time>
      </trkpt>
      <trkpt lat="47.90715" lon="7.10132">
        <ele>1256</ele>
        <time>2023-05-28T19:13:03Z</time>
      </trkpt>
      <trkpt lat="47.90722" lon="7.10141">
        <ele>1256</ele>
        <time>2023-05-28T19:13:13Z</time>
      </trkpt>
      <trkpt lat="47.90729" lon="7.10151">
        <ele>1256</ele>
        <time>2023-05-28T19:13:22Z</time>
      </trkpt>
      <trkpt lat="47.90734" lon="7.10162">
        <ele>1255</ele>
        <time>2023-05-28T19:13:31Z</time>
      </trkpt>
      <trkpt lat="47.90741" lon="7.10172">
        <ele>1256</ele>
        <time>2023-05-28T19:13:42Z</time>
      </trkpt>
      <trkpt lat="47.90748" lon="7.10182">
        <ele>1256</ele>
        <time>2023-05-28T19:13:54Z</time>
      </trkpt>
      <trkpt lat="47.90754" lon="7.10193">
        <ele>1257</ele>
        <time>2023-05-28T19:14:07Z</time>
      </trkpt>
      <trkpt lat="47.90762" lon="7.10199">
        <ele>1258</ele>
        <time>2023-05-28T19:14:17Z</time>
      </trkpt>
      <trkpt lat="47.90771" lon="7.10204">
        <ele>1258</ele>
        <time>2023-05-28T19:14:26Z</time>
      </trkpt>
      <trkpt lat="47.90779" lon="7.1021">
        <ele>1258</ele>
        <time>2023-05-28T19:14:37Z</time>
      </trkpt>
      <trkpt lat="47.90787" lon="7.10217">
        <ele>1258</ele>
        <time>2023-05-28T19:14:47Z</time>
      </trkpt>
      <trkpt lat="47.90796" lon="7.10224">
        <ele>1258</ele>
        <time>2023-05-28T19:14:56Z</time>
      </trkpt>
      <trkpt lat="47.90803" lon="7.10233">
        <ele>1258</ele>
        <time>2023-05-28T19:15:07Z</time>
      </trkpt>
      <trkpt lat="47.90811" lon="7.1024">
        <ele>1258</ele>
        <time>2023-05-28T19:15:17Z</time>
      </trkpt>
      <trkpt lat="47.90819" lon="7.10246">
        <ele>1258</ele>
        <time>2023-05-28T19:15:26Z</time>
      </trkpt>
      <trkpt lat="47.90827" lon="7.10251">
        <ele>1258</ele>
        <time>2023-05-28T19:15:36Z</time>
      </trkpt>
      <trkpt lat="47.90837" lon="7.10256">
        <ele>1258</ele>
        <time>2023-05-28T19:15:46Z</time>
      </trkpt>
      <trkpt lat="47.90846" lon="7.10261">
        <ele>1258</ele>
        <time>2023-05-28T19:15:56Z</time>
      </trkpt>
      <trkpt lat="47.90855" lon="7.10266">
        <ele>1257</ele>
        <time>2023-05-28T19:16:05Z</time>
      </trkpt>
      <trkpt lat="47.90864" lon="7.10272">
        <ele>1257</ele>
        <time>2023-05-28T19:16:16Z</time>
      </trkpt>
      <trkpt lat="47.90873" lon="7.10275">
        <ele>1256</ele>
        <time>2023-05-28T19:16:26Z</time>
      </trkpt>
      <trkpt lat="47.90882" lon="7.1028">
        <ele>1256</ele>
        <time>2023-05-28T19:16:35Z</time>
      </trkpt>
      <trkpt lat="47.9089" lon="7.10284">
        <ele>1256</ele>
        <time>2023-05-28T19:16:45Z</time>
      </trkpt>
      <trkpt lat="47.90898" lon="7.10293">
        <ele>1256</ele>
        <time>2023-05-28T19:16:55Z</time>
      </trkpt>
      <trkpt lat="47.90906" lon="7.103">
        <ele>1255</ele>
        <time>2023-05-28T19:17:04Z</time>
      </trkpt>
      <trkpt lat="47.90915" lon="7.10306">
        <ele>1255</ele>
        <time>2023-05-28T19:17:13Z</time>
      </trkpt>
      <trkpt lat="47.90923" lon="7.10312">
        <ele>1255</ele>
        <time>2023-05-28T19:17:23Z</time>
      </trkpt>
      <trkpt lat="47.90932" lon="7.10319">
        <ele>1255</ele>
        <time>2023-05-28T19:17:34Z</time>
      </trkpt>
      <trkpt lat="47.9094" lon="7.10326">
        <ele>1255</ele>
        <time>2023-05-28T19:17:45Z</time>
      </trkpt>
      <trkpt lat="47.90947" lon="7.10333">
        <ele>1255</ele>
        <time>2023-05-28T19:17:55Z</time>
      </trkpt>
      <trkpt lat="47.90956" lon="7.10338">
        <ele>1255</ele>
        <time>2023-05-28T19:18:05Z</time>
      </trkpt>
      <trkpt lat="47.90965" lon="7.10342">
        <ele>1254</ele>
        <time>2023-05-28T19:18:16Z</time>
      </trkpt>
      <trkpt lat="47.90974" lon="7.10346">
        <ele>1254</ele>
        <time>2023-05-28T19:18:26Z</time>
      </trkpt>
      <trkpt lat="47.90983" lon="7.10349">
        <ele>1253</ele>
        <time>2023-05-28T19:18:36Z</time>
      </trkpt>
      <trkpt lat="47.90992" lon="7.10352">
        <ele>1253</ele>
        <time>2023-05-28T19:18:45Z</time>
      </trkpt>
      <trkpt lat="47.91001" lon="7.10354">
        <ele>1252</ele>
        <time>2023-05-28T19:18:54Z</time>
      </trkpt>
      <trkpt lat="47.9101" lon="7.10357">
        <ele>1252</ele>
        <time>2023-05-28T19:19:04Z</time>
      </trkpt>
      <trkpt lat="47.91019" lon="7.10361">
        <ele>1252</ele>
        <time>2023-05-28T19:19:13Z</time>
      </trkpt>
      <trkpt lat="47.91028" lon="7.10366">
        <ele>1251</ele>
        <time>2023-05-28T19:19:23Z</time>
      </trkpt>
      <trkpt lat="47.91037" lon="7.10371">
        <ele>1251</ele>
        <time>2023-05-28T19:19:33Z</time>
      </trkpt>
      <trkpt lat="47.91045" lon="7.10377">
        <ele>1251</ele>
        <time>2023-05-28T19:19:42Z</time>
      </trkpt>
      <trkpt lat="47.91054" lon="7.10382">
        <ele>1251</ele>
        <time>2023-05-28T19:19:51Z</time>
      </trkpt>
      <trkpt lat="47.91063" lon="7.10387">
        <ele>1251</ele>
        <time>2023-05-28T19:20:03Z</time>
      </trkpt>
      <trkpt lat="47.9107" lon="7.10396">
        <ele>1251</ele>
        <time>2023-05-28T19:20:12Z</time>
      </trkpt>
      <trkpt lat="47.91078" lon="7.10403">
        <ele>1251</ele>
        <time>2023-05-28T19:20:20Z</time>
      </trkpt>
      <trkpt lat="47.91087" lon="7.10408">
        <ele>1251</ele>
        <time>2023-05-28T19:20:29Z</time>
      </trkpt>
      <trkpt lat="47.91096" lon="7.10412">
        <ele>1251</ele>
        <time>2023-05-28T19:20:38Z</time>
      </trkpt>
      <trkpt lat="47.91105" lon="7.10417">
        <ele>1251</ele>
        <time>2023-05-28T19:20:47Z</time>
      </trkpt>
      <trkpt lat="47.91114" lon="7.10422">
        <ele>1251</ele>
        <time>2023-05-28T19:20:55Z</time>
      </trkpt>
      <trkpt lat="47.91122" lon="7.10428">
        <ele>1250</ele>
        <time>2023-05-28T19:21:03Z</time>
      </trkpt>
      <trkpt lat="47.9113" lon="7.10434">
        <ele>1250</ele>
        <time>2023-05-28T19:21:12Z</time>
      </trkpt>
      <trkpt lat="47.91139" lon="7.10439">
        <ele>1250</ele>
        <time>2023-05-28T19:21:21Z</time>
      </trkpt>
      <trkpt lat="47.91149" lon="7.1044">
        <ele>1249</ele>
        <time>2023-05-28T19:21:34Z</time>
      </trkpt>
      <trkpt lat="47.91158" lon="7.10439">
        <ele>1249</ele>
        <time>2023-05-28T19:21:46Z</time>
      </trkpt>
      <trkpt lat="47.91167" lon="7.10439">
        <ele>1248</ele>
        <time>2023-05-28T19:21:57Z</time>
      </trkpt>
      <trkpt lat="47.91177" lon="7.10438">
        <ele>1246</ele>
        <time>2023-05-28T19:22:08Z</time>
      </trkpt>
      <trkpt lat="47.91177" lon="7.10427">
        <ele>1245</ele>
        <time>2023-05-28T19:22:26Z</time>
      </trkpt>
      <trkpt lat="47.91175" lon="7.10422">
        <ele>1244</ele>
        <time>2023-05-28T19:22:30Z</time>
      </trkpt>
      <trkpt lat="47.91175" lon="7.10428">
        <ele>1245</ele>
        <time>2023-05-29T06:00:54Z</time>
      </trkpt>
      <trkpt lat="47.91183" lon="7.10437">
        <ele>1245</ele>
        <time>2023-05-29T06:01:29Z</time>
      </trkpt>
      <trkpt lat="47.91178" lon="7.10445">
        <ele>1245</ele>
        <time>2023-05-29T06:01:42Z</time>
      </trkpt>
      <trkpt lat="47.91168" lon="7.10445">
        <ele>1246</ele>
        <time>2023-05-29T06:01:54Z</time>
      </trkpt>
      <trkpt lat="47.91159" lon="7.10445">
        <ele>1246</ele>
        <time>2023-05-29T06:02:09Z</time>
      </trkpt>
      <trkpt lat="47.91149" lon="7.10447">
        <ele>1247</ele>
        <time>2023-05-29T06:02:24Z</time>
      </trkpt>
      <trkpt lat="47.91148" lon="7.10455">
        <ele>1249</ele>
        <time>2023-05-29T06:02:37Z</time>
      </trkpt>
      <trkpt lat="47.91156" lon="7.10463">
        <ele>1249</ele>
        <time>2023-05-29T06:02:49Z</time>
      </trkpt>
      <trkpt lat="47.9116" lon="7.10476">
        <ele>1250</ele>
        <time>2023-05-29T06:03:00Z</time>
      </trkpt>
      <trkpt lat="47.91165" lon="7.1049">
        <ele>1250</ele>
        <time>2023-05-29T06:03:07Z</time>
      </trkpt>
      <trkpt lat="47.9117" lon="7.10504">
        <ele>1250</ele>
        <time>2023-05-29T06:03:14Z</time>
      </trkpt>
      <trkpt lat="47.91171" lon="7.10517">
        <ele>1252</ele>
        <time>2023-05-29T06:03:28Z</time>
      </trkpt>
      <trkpt lat="47.91173" lon="7.10531">
        <ele>1252</ele>
        <time>2023-05-29T06:03:49Z</time>
      </trkpt>
      <trkpt lat="47.91175" lon="7.10546">
        <ele>1253</ele>
        <time>2023-05-29T06:03:58Z</time>
      </trkpt>
      <trkpt lat="47.91176" lon="7.1056">
        <ele>1253</ele>
        <time>2023-05-29T06:04:07Z</time>
      </trkpt>
      <trkpt lat="47.91171" lon="7.10571">
        <ele>1253</ele>
        <time>2023-05-29T06:04:27Z</time>
      </trkpt>
      <trkpt lat="47.91165" lon="7.10562">
        <ele>1253</ele>
        <time>2023-05-29T06:04:39Z</time>
      </trkpt>
      <trkpt lat="47.91159" lon="7.10551">
        <ele>1253</ele>
        <time>2023-05-29T06:04:49Z</time>
      </trkpt>
      <trkpt lat="47.91151" lon="7.10543">
        <ele>1254</ele>
        <time>2023-05-29T06:05:01Z</time>
      </trkpt>
      <trkpt lat="47.91144" lon="7.10535">
        <ele>1255</ele>
        <time>2023-05-29T06:05:14Z</time>
      </trkpt>
      <trkpt lat="47.91135" lon="7.10529">
        <ele>1257</ele>
        <time>2023-05-29T06:05:30Z</time>
      </trkpt>
      <trkpt lat="47.91127" lon="7.10523">
        <ele>1258</ele>
        <time>2023-05-29T06:05:44Z</time>
      </trkpt>
      <trkpt lat="47.91118" lon="7.1052">
        <ele>1260</ele>
        <time>2023-05-29T06:05:59Z</time>
      </trkpt>
      <trkpt lat="47.91109" lon="7.10517">
        <ele>1261</ele>
        <time>2023-05-29T06:06:13Z</time>
      </trkpt>
      <trkpt lat="47.911" lon="7.10514">
        <ele>1263</ele>
        <time>2023-05-29T06:06:27Z</time>
      </trkpt>
      <trkpt lat="47.91091" lon="7.1051">
        <ele>1264</ele>
        <time>2023-05-29T06:06:41Z</time>
      </trkpt>
      <trkpt lat="47.91082" lon="7.10508">
        <ele>1266</ele>
        <time>2023-05-29T06:06:55Z</time>
      </trkpt>
      <trkpt lat="47.91073" lon="7.10506">
        <ele>1268</ele>
        <time>2023-05-29T06:07:10Z</time>
      </trkpt>
      <trkpt lat="47.91063" lon="7.10503">
        <ele>1269</ele>
        <time>2023-05-29T06:07:24Z</time>
      </trkpt>
      <trkpt lat="47.91054" lon="7.10501">
        <ele>1270</ele>
        <time>2023-05-29T06:07:38Z</time>
      </trkpt>
      <trkpt lat="47.91045" lon="7.10499">
        <ele>1272</ele>
        <time>2023-05-29T06:07:53Z</time>
      </trkpt>
      <trkpt lat="47.91036" lon="7.10496">
        <ele>1273</ele>
        <time>2023-05-29T06:08:08Z</time>
      </trkpt>
      <trkpt lat="47.91027" lon="7.10493">
        <ele>1275</ele>
        <time>2023-05-29T06:08:22Z</time>
      </trkpt>
      <trkpt lat="47.91018" lon="7.10488">
        <ele>1277</ele>
        <time>2023-05-29T06:08:37Z</time>
      </trkpt>
      <trkpt lat="47.91009" lon="7.10485">
        <ele>1279</ele>
        <time>2023-05-29T06:08:52Z</time>
      </trkpt>
      <trkpt lat="47.91" lon="7.10483">
        <ele>1281</ele>
        <time>2023-05-29T06:09:06Z</time>
      </trkpt>
      <trkpt lat="47.90991" lon="7.10485">
        <ele>1282</ele>
        <time>2023-05-29T06:09:21Z</time>
      </trkpt>
      <trkpt lat="47.90982" lon="7.10486">
        <ele>1284</ele>
        <time>2023-05-29T06:09:36Z</time>
      </trkpt>
      <trkpt lat="47.90973" lon="7.10488">
        <ele>1285</ele>
        <time>2023-05-29T06:09:48Z</time>
      </trkpt>
      <trkpt lat="47.90963" lon="7.10489">
        <ele>1287</ele>
        <time>2023-05-29T06:10:01Z</time>
      </trkpt>
      <trkpt lat="47.90954" lon="7.1049">
        <ele>1288</ele>
        <time>2023-05-29T06:10:14Z</time>
      </trkpt>
      <trkpt lat="47.90945" lon="7.10489">
        <ele>1289</ele>
        <time>2023-05-29T06:10:27Z</time>
      </trkpt>
      <trkpt lat="47.90936" lon="7.10489">
        <ele>1291</ele>
        <time>2023-05-29T06:10:42Z</time>
      </trkpt>
      <trkpt lat="47.90927" lon="7.1049">
        <ele>1293</ele>
        <time>2023-05-29T06:10:57Z</time>
      </trkpt>
      <trkpt lat="47.90918" lon="7.10489">
        <ele>1294</ele>
        <time>2023-05-29T06:11:10Z</time>
      </trkpt>
      <trkpt lat="47.90908" lon="7.10489">
        <ele>1295</ele>
        <time>2023-05-29T06:11:23Z</time>
      </trkpt>
      <trkpt lat="47.90899" lon="7.1049">
        <ele>1297</ele>
        <time>2023-05-29T06:11:36Z</time>
      </trkpt>
      <trkpt lat="47.90889" lon="7.10492">
        <ele>1298</ele>
        <time>2023-05-29T06:11:49Z</time>
      </trkpt>
      <trkpt lat="47.9088" lon="7.10492">
        <ele>1299</ele>
        <time>2023-05-29T06:11:59Z</time>
      </trkpt>
      <trkpt lat="47.90871" lon="7.1049">
        <ele>1301</ele>
        <time>2023-05-29T06:12:11Z</time>
      </trkpt>
      <trkpt lat="47.90862" lon="7.10487">
        <ele>1301</ele>
        <time>2023-05-29T06:12:23Z</time>
      </trkpt>
      <trkpt lat="47.90853" lon="7.10484">
        <ele>1302</ele>
        <time>2023-05-29T06:12:33Z</time>
      </trkpt>
      <trkpt lat="47.90844" lon="7.10481">
        <ele>1303</ele>
        <time>2023-05-29T06:12:43Z</time>
      </trkpt>
      <trkpt lat="47.90835" lon="7.10477">
        <ele>1304</ele>
        <time>2023-05-29T06:12:54Z</time>
      </trkpt>
      <trkpt lat="47.90826" lon="7.10474">
        <ele>1305</ele>
        <time>2023-05-29T06:13:06Z</time>
      </trkpt>
      <trkpt lat="47.90817" lon="7.10471">
        <ele>1305</ele>
        <time>2023-05-29T06:13:17Z</time>
      </trkpt>
      <trkpt lat="47.90807" lon="7.10468">
        <ele>1306</ele>
        <time>2023-05-29T06:13:29Z</time>
      </trkpt>
      <trkpt lat="47.90798" lon="7.10464">
        <ele>1307</ele>
        <time>2023-05-29T06:13:39Z</time>
      </trkpt>
      <trkpt lat="47.9079" lon="7.1046">
        <ele>1308</ele>
        <time>2023-05-29T06:13:50Z</time>
      </trkpt>
      <trkpt lat="47.9078" lon="7.10456">
        <ele>1308</ele>
        <time>2023-05-29T06:14:03Z</time>
      </trkpt>
      <trkpt lat="47.9077" lon="7.10456">
        <ele>1309</ele>
        <time>2023-05-29T06:14:14Z</time>
      </trkpt>
      <trkpt lat="47.90761" lon="7.10453">
        <ele>1310</ele>
        <time>2023-05-29T06:14:25Z</time>
      </trkpt>
      <trkpt lat="47.90753" lon="7.10446">
        <ele>1311</ele>
        <time>2023-05-29T06:14:36Z</time>
      </trkpt>
      <trkpt lat="47.90744" lon="7.10439">
        <ele>1311</ele>
        <time>2023-05-29T06:14:48Z</time>
      </trkpt>
      <trkpt lat="47.90736" lon="7.10433">
        <ele>1312</ele>
        <time>2023-05-29T06:15:00Z</time>
      </trkpt>
      <trkpt lat="47.90728" lon="7.10425">
        <ele>1313</ele>
        <time>2023-05-29T06:15:12Z</time>
      </trkpt>
      <trkpt lat="47.90719" lon="7.1042">
        <ele>1314</ele>
        <time>2023-05-29T06:15:24Z</time>
      </trkpt>
      <trkpt lat="47.9071" lon="7.10416">
        <ele>1314</ele>
        <time>2023-05-29T06:15:36Z</time>
      </trkpt>
      <trkpt lat="47.90701" lon="7.10413">
        <ele>1315</ele>
        <time>2023-05-29T06:15:46Z</time>
      </trkpt>
      <trkpt lat="47.90692" lon="7.10415">
        <ele>1318</ele>
        <time>2023-05-29T06:16:24Z</time>
      </trkpt>
      <trkpt lat="47.90685" lon="7.10425">
        <ele>1319</ele>
        <time>2023-05-29T06:16:36Z</time>
      </trkpt>
      <trkpt lat="47.90679" lon="7.10435">
        <ele>1320</ele>
        <time>2023-05-29T06:16:53Z</time>
      </trkpt>
      <trkpt lat="47.9067" lon="7.10442">
        <ele>1322</ele>
        <time>2023-05-29T06:17:10Z</time>
      </trkpt>
      <trkpt lat="47.90663" lon="7.10447">
        <ele>1326</ele>
        <time>2023-05-29T06:17:36Z</time>
      </trkpt>
      <trkpt lat="47.90654" lon="7.1044">
        <ele>1326</ele>
        <time>2023-05-29T06:17:48Z</time>
      </trkpt>
      <trkpt lat="47.90646" lon="7.10434">
        <ele>1327</ele>
        <time>2023-05-29T06:17:59Z</time>
      </trkpt>
      <trkpt lat="47.90638" lon="7.10426">
        <ele>1326</ele>
        <time>2023-05-29T06:18:09Z</time>
      </trkpt>
      <trkpt lat="47.9063" lon="7.1042">
        <ele>1326</ele>
        <time>2023-05-29T06:18:20Z</time>
      </trkpt>
      <trkpt lat="47.90621" lon="7.10413">
        <ele>1326</ele>
        <time>2023-05-29T06:18:32Z</time>
      </trkpt>
      <trkpt lat="47.90612" lon="7.10408">
        <ele>1326</ele>
        <time>2023-05-29T06:18:43Z</time>
      </trkpt>
      <trkpt lat="47.90604" lon="7.10402">
        <ele>1326</ele>
        <time>2023-05-29T06:18:54Z</time>
      </trkpt>
      <trkpt lat="47.90595" lon="7.10397">
        <ele>1326</ele>
        <time>2023-05-29T06:19:04Z</time>
      </trkpt>
      <trkpt lat="47.90587" lon="7.1039">
        <ele>1327</ele>
        <time>2023-05-29T06:19:14Z</time>
      </trkpt>
      <trkpt lat="47.90579" lon="7.10383">
        <ele>1327</ele>
        <time>2023-05-29T06:19:24Z</time>
      </trkpt>
      <trkpt lat="47.90571" lon="7.10376">
        <ele>1328</ele>
        <time>2023-05-29T06:19:35Z</time>
      </trkpt>
      <trkpt lat="47.90562" lon="7.10369">
        <ele>1328</ele>
        <time>2023-05-29T06:19:47Z</time>
      </trkpt>
      <trkpt lat="47.90554" lon="7.10363">
        <ele>1329</ele>
        <time>2023-05-29T06:19:58Z</time>
      </trkpt>
      <trkpt lat="47.90546" lon="7.10355">
        <ele>1329</ele>
        <time>2023-05-29T06:20:08Z</time>
      </trkpt>
      <trkpt lat="47.90538" lon="7.10347">
        <ele>1330</ele>
        <time>2023-05-29T06:20:19Z</time>
      </trkpt>
      <trkpt lat="47.90532" lon="7.10336">
        <ele>1331</ele>
        <time>2023-05-29T06:20:31Z</time>
      </trkpt>
      <trkpt lat="47.90525" lon="7.10326">
        <ele>1331</ele>
        <time>2023-05-29T06:20:41Z</time>
      </trkpt>
      <trkpt lat="47.90517" lon="7.10319">
        <ele>1332</ele>
        <time>2023-05-29T06:20:52Z</time>
      </trkpt>
      <trkpt lat="47.90508" lon="7.10319">
        <ele>1333</ele>
        <time>2023-05-29T06:21:05Z</time>
      </trkpt>
      <trkpt lat="47.90499" lon="7.10315">
        <ele>1334</ele>
        <time>2023-05-29T06:21:16Z</time>
      </trkpt>
      <trkpt lat="47.90491" lon="7.10321">
        <ele>1335</ele>
        <time>2023-05-29T06:21:29Z</time>
      </trkpt>
      <trkpt lat="47.90484" lon="7.10328">
        <ele>1338</ele>
        <time>2023-05-29T06:22:35Z</time>
      </trkpt>
      <trkpt lat="47.90479" lon="7.10317">
        <ele>1338</ele>
        <time>2023-05-29T06:22:44Z</time>
      </trkpt>
      <trkpt lat="47.90476" lon="7.10303">
        <ele>1338</ele>
        <time>2023-05-29T06:23:05Z</time>
      </trkpt>
      <trkpt lat="47.90472" lon="7.10291">
        <ele>1339</ele>
        <time>2023-05-29T06:23:28Z</time>
      </trkpt>
      <trkpt lat="47.90467" lon="7.10279">
        <ele>1339</ele>
        <time>2023-05-29T06:23:39Z</time>
      </trkpt>
      <trkpt lat="47.90461" lon="7.10268">
        <ele>1339</ele>
        <time>2023-05-29T06:23:50Z</time>
      </trkpt>
      <trkpt lat="47.90454" lon="7.10259">
        <ele>1340</ele>
        <time>2023-05-29T06:24:01Z</time>
      </trkpt>
      <trkpt lat="47.90445" lon="7.10255">
        <ele>1341</ele>
        <time>2023-05-29T06:24:13Z</time>
      </trkpt>
      <trkpt lat="47.90436" lon="7.10253">
        <ele>1342</ele>
        <time>2023-05-29T06:24:24Z</time>
      </trkpt>
      <trkpt lat="47.90427" lon="7.10254">
        <ele>1344</ele>
        <time>2023-05-29T06:24:53Z</time>
      </trkpt>
      <trkpt lat="47.90418" lon="7.10255">
        <ele>1344</ele>
        <time>2023-05-29T06:25:04Z</time>
      </trkpt>
      <trkpt lat="47.90416" lon="7.10247">
        <ele>1346</ele>
        <time>2023-05-29T06:25:30Z</time>
      </trkpt>
      <trkpt lat="47.90409" lon="7.10255">
        <ele>1346</ele>
        <time>2023-05-29T06:26:46Z</time>
      </trkpt>
      <trkpt lat="47.90399" lon="7.10256">
        <ele>1346</ele>
        <time>2023-05-29T06:26:56Z</time>
      </trkpt>
      <trkpt lat="47.9039" lon="7.10258">
        <ele>1346</ele>
        <time>2023-05-29T06:27:10Z</time>
      </trkpt>
      <trkpt lat="47.9038" lon="7.10259">
        <ele>1346</ele>
        <time>2023-05-29T06:27:22Z</time>
      </trkpt>
      <trkpt lat="47.90371" lon="7.10261">
        <ele>1347</ele>
        <time>2023-05-29T06:27:34Z</time>
      </trkpt>
      <trkpt lat="47.90362" lon="7.10262">
        <ele>1348</ele>
        <time>2023-05-29T06:27:47Z</time>
      </trkpt>
      <trkpt lat="47.90353" lon="7.10262">
        <ele>1348</ele>
        <time>2023-05-29T06:27:58Z</time>
      </trkpt>
      <trkpt lat="47.90344" lon="7.10263">
        <ele>1349</ele>
        <time>2023-05-29T06:28:09Z</time>
      </trkpt>
      <trkpt lat="47.90334" lon="7.1026">
        <ele>1350</ele>
        <time>2023-05-29T06:28:19Z</time>
      </trkpt>
      <trkpt lat="47.90325" lon="7.10256">
        <ele>1351</ele>
        <time>2023-05-29T06:28:30Z</time>
      </trkpt>
      <trkpt lat="47.90316" lon="7.10252">
        <ele>1352</ele>
        <time>2023-05-29T06:28:40Z</time>
      </trkpt>
      <trkpt lat="47.90307" lon="7.10248">
        <ele>1353</ele>
        <time>2023-05-29T06:28:51Z</time>
      </trkpt>
      <trkpt lat="47.90298" lon="7.10244">
        <ele>1354</ele>
        <time>2023-05-29T06:29:02Z</time>
      </trkpt>
      <trkpt lat="47.90289" lon="7.10239">
        <ele>1355</ele>
        <time>2023-05-29T06:29:12Z</time>
      </trkpt>
      <trkpt lat="47.90281" lon="7.10233">
        <ele>1357</ele>
        <time>2023-05-29T06:29:50Z</time>
      </trkpt>
      <trkpt lat="47.90272" lon="7.10227">
        <ele>1358</ele>
        <time>2023-05-29T06:30:00Z</time>
      </trkpt>
      <trkpt lat="47.90263" lon="7.10221">
        <ele>1359</ele>
        <time>2023-05-29T06:30:11Z</time>
      </trkpt>
      <trkpt lat="47.90256" lon="7.10212">
        <ele>1359</ele>
        <time>2023-05-29T06:30:22Z</time>
      </trkpt>
      <trkpt lat="47.90251" lon="7.10201">
        <ele>1360</ele>
        <time>2023-05-29T06:30:32Z</time>
      </trkpt>
      <trkpt lat="47.90245" lon="7.1019">
        <ele>1361</ele>
        <time>2023-05-29T06:30:44Z</time>
      </trkpt>
      <trkpt lat="47.90238" lon="7.10181">
        <ele>1362</ele>
        <time>2023-05-29T06:30:54Z</time>
      </trkpt>
      <trkpt lat="47.90232" lon="7.10171">
        <ele>1363</ele>
        <time>2023-05-29T06:31:04Z</time>
      </trkpt>
      <trkpt lat="47.90225" lon="7.10161">
        <ele>1364</ele>
        <time>2023-05-29T06:31:14Z</time>
      </trkpt>
      <trkpt lat="47.90218" lon="7.10151">
        <ele>1365</ele>
        <time>2023-05-29T06:31:25Z</time>
      </trkpt>
      <trkpt lat="47.90211" lon="7.10141">
        <ele>1366</ele>
        <time>2023-05-29T06:31:35Z</time>
      </trkpt>
      <trkpt lat="47.90204" lon="7.10132">
        <ele>1366</ele>
        <time>2023-05-29T06:31:44Z</time>
      </trkpt>
      <trkpt lat="47.90197" lon="7.10123">
        <ele>1367</ele>
        <time>2023-05-29T06:31:53Z</time>
      </trkpt>
      <trkpt lat="47.90189" lon="7.10115">
        <ele>1367</ele>
        <time>2023-05-29T06:32:02Z</time>
      </trkpt>
      <trkpt lat="47.90181" lon="7.10109">
        <ele>1368</ele>
        <time>2023-05-29T06:32:13Z</time>
      </trkpt>
      <trkpt lat="47.90171" lon="7.10106">
        <ele>1369</ele>
        <time>2023-05-29T06:32:22Z</time>
      </trkpt>
      <trkpt lat="47.90161" lon="7.10103">
        <ele>1369</ele>
        <time>2023-05-29T06:32:31Z</time>
      </trkpt>
      <trkpt lat="47.90152" lon="7.10099">
        <ele>1370</ele>
        <time>2023-05-29T06:32:40Z</time>
      </trkpt>
      <trkpt lat="47.90143" lon="7.10094">
        <ele>1370</ele>
        <time>2023-05-29T06:32:50Z</time>
      </trkpt>
      <trkpt lat="47.90136" lon="7.10086">
        <ele>1373</ele>
        <time>2023-05-29T06:33:25Z</time>
      </trkpt>
      <trkpt lat="47.9014" lon="7.10075">
        <ele>1373</ele>
        <time>2023-05-29T06:33:35Z</time>
      </trkpt>
      <trkpt lat="47.9015" lon="7.10072">
        <ele>1374</ele>
        <time>2023-05-29T06:33:45Z</time>
      </trkpt>
      <trkpt lat="47.90159" lon="7.10071">
        <ele>1375</ele>
        <time>2023-05-29T06:33:56Z</time>
      </trkpt>
      <trkpt lat="47.90168" lon="7.10069">
        <ele>1376</ele>
        <time>2023-05-29T06:34:08Z</time>
      </trkpt>
      <trkpt lat="47.90177" lon="7.10067">
        <ele>1376</ele>
        <time>2023-05-29T06:34:18Z</time>
      </trkpt>
      <trkpt lat="47.90187" lon="7.10066">
        <ele>1377</ele>
        <time>2023-05-29T06:34:28Z</time>
      </trkpt>
      <trkpt lat="47.90196" lon="7.10066">
        <ele>1378</ele>
        <time>2023-05-29T06:34:38Z</time>
      </trkpt>
      <trkpt lat="47.90206" lon="7.10068">
        <ele>1379</ele>
        <time>2023-05-29T06:34:48Z</time>
      </trkpt>
      <trkpt lat="47.90215" lon="7.10068">
        <ele>1380</ele>
        <time>2023-05-29T06:34:58Z</time>
      </trkpt>
      <trkpt lat="47.90213" lon="7.10059">
        <ele>1382</ele>
        <time>2023-05-29T06:35:12Z</time>
      </trkpt>
      <trkpt lat="47.90205" lon="7.10052">
        <ele>1383</ele>
        <time>2023-05-29T06:35:24Z</time>
      </trkpt>
      <trkpt lat="47.90197" lon="7.10044">
        <ele>1385</ele>
        <time>2023-05-29T06:35:36Z</time>
      </trkpt>
      <trkpt lat="47.9019" lon="7.10035">
        <ele>1386</ele>
        <time>2023-05-29T06:35:47Z</time>
      </trkpt>
      <trkpt lat="47.90182" lon="7.10027">
        <ele>1387</ele>
        <time>2023-05-29T06:35:58Z</time>
      </trkpt>
      <trkpt lat="47.90175" lon="7.10019">
        <ele>1388</ele>
        <time>2023-05-29T06:36:10Z</time>
      </trkpt>
      <trkpt lat="47.90167" lon="7.10011">
        <ele>1390</ele>
        <time>2023-05-29T06:36:22Z</time>
      </trkpt>
      <trkpt lat="47.90158" lon="7.10003">
        <ele>1391</ele>
        <time>2023-05-29T06:36:34Z</time>
      </trkpt>
      <trkpt lat="47.9015" lon="7.09998">
        <ele>1393</ele>
        <time>2023-05-29T06:36:46Z</time>
      </trkpt>
      <trkpt lat="47.90141" lon="7.09993">
        <ele>1394</ele>
        <time>2023-05-29T06:36:58Z</time>
      </trkpt>
      <trkpt lat="47.90132" lon="7.09986">
        <ele>1396</ele>
        <time>2023-05-29T06:37:10Z</time>
      </trkpt>
      <trkpt lat="47.90124" lon="7.09981">
        <ele>1399</ele>
        <time>2023-05-29T06:37:47Z</time>
      </trkpt>
      <trkpt lat="47.90115" lon="7.09977">
        <ele>1399</ele>
        <time>2023-05-29T06:37:57Z</time>
      </trkpt>
      <trkpt lat="47.90106" lon="7.09973">
        <ele>1400</ele>
        <time>2023-05-29T06:38:07Z</time>
      </trkpt>
      <trkpt lat="47.90097" lon="7.09968">
        <ele>1401</ele>
        <time>2023-05-29T06:38:19Z</time>
      </trkpt>
      <trkpt lat="47.90089" lon="7.09962">
        <ele>1403</ele>
        <time>2023-05-29T06:38:30Z</time>
      </trkpt>
      <trkpt lat="47.9008" lon="7.09956">
        <ele>1404</ele>
        <time>2023-05-29T06:38:40Z</time>
      </trkpt>
      <trkpt lat="47.90071" lon="7.09951">
        <ele>1406</ele>
        <time>2023-05-29T06:38:50Z</time>
      </trkpt>
      <trkpt lat="47.90063" lon="7.09944">
        <ele>1406</ele>
        <time>2023-05-29T06:38:59Z</time>
      </trkpt>
      <trkpt lat="47.90055" lon="7.09937">
        <ele>1408</ele>
        <time>2023-05-29T06:39:09Z</time>
      </trkpt>
      <trkpt lat="47.90046" lon="7.09931">
        <ele>1410</ele>
        <time>2023-05-29T06:39:18Z</time>
      </trkpt>
      <trkpt lat="47.90038" lon="7.09924">
        <ele>1411</ele>
        <time>2023-05-29T06:39:27Z</time>
      </trkpt>
      <trkpt lat="47.9003" lon="7.09918">
        <ele>1412</ele>
        <time>2023-05-29T06:39:37Z</time>
      </trkpt>
      <trkpt lat="47.90021" lon="7.09916">
        <ele>1413</ele>
        <time>2023-05-29T06:39:59Z</time>
      </trkpt>
      <trkpt lat="47.90015" lon="7.09906">
        <ele>1413</ele>
        <time>2023-05-29T06:40:09Z</time>
      </trkpt>
      <trkpt lat="47.90018" lon="7.09911">
        <ele>1415</ele>
        <time>2023-05-29T06:41:39Z</time>
      </trkpt>
      <trkpt lat="47.90025" lon="7.09918">
        <ele>1415</ele>
        <time>2023-05-29T06:41:50Z</time>
      </trkpt>
      <trkpt lat="47.90033" lon="7.09913">
        <ele>1413</ele>
        <time>2023-05-29T06:42:48Z</time>
      </trkpt>
      <trkpt lat="47.90042" lon="7.09908">
        <ele>1414</ele>
        <time>2023-05-29T06:43:01Z</time>
      </trkpt>
      <trkpt lat="47.90047" lon="7.09896">
        <ele>1414</ele>
        <time>2023-05-29T06:43:14Z</time>
      </trkpt>
      <trkpt lat="47.90055" lon="7.0989">
        <ele>1415</ele>
        <time>2023-05-29T06:43:27Z</time>
      </trkpt>
      <trkpt lat="47.90063" lon="7.09883">
        <ele>1416</ele>
        <time>2023-05-29T06:43:42Z</time>
      </trkpt>
      <trkpt lat="47.90072" lon="7.09878">
        <ele>1417</ele>
        <time>2023-05-29T06:43:58Z</time>
      </trkpt>
      <trkpt lat="47.9008" lon="7.09871">
        <ele>1418</ele>
        <time>2023-05-29T06:44:14Z</time>
      </trkpt>
      <trkpt lat="47.90086" lon="7.09862">
        <ele>1420</ele>
        <time>2023-05-29T06:44:32Z</time>
      </trkpt>
      <trkpt lat="47.90092" lon="7.09852">
        <ele>1420</ele>
        <time>2023-05-29T06:44:46Z</time>
      </trkpt>
      <trkpt lat="47.90099" lon="7.09843">
        <ele>1419</ele>
        <time>2023-05-29T06:47:40Z</time>
      </trkpt>
      <trkpt lat="47.90108" lon="7.09841">
        <ele>1419</ele>
        <time>2023-05-29T06:47:50Z</time>
      </trkpt>
      <trkpt lat="47.90117" lon="7.09842">
        <ele>1419</ele>
        <time>2023-05-29T06:48:00Z</time>
      </trkpt>
      <trkpt lat="47.90112" lon="7.09833">
        <ele>1420</ele>
        <time>2023-05-29T06:48:26Z</time>
      </trkpt>
      <trkpt lat="47.90102" lon="7.09828">
        <ele>1422</ele>
        <time>2023-05-29T06:48:51Z</time>
      </trkpt>
      <trkpt lat="47.90096" lon="7.0982">
        <ele>1431</ele>
        <time>2023-05-29T06:50:32Z</time>
      </trkpt>
      <trkpt lat="47.90094" lon="7.0982">
        <ele>1431</ele>
        <time>2023-05-29T06:51:03Z</time>
      </trkpt>
      <trkpt lat="47.90101" lon="7.09826">
        <ele>1430</ele>
        <time>2023-05-29T06:51:16Z</time>
      </trkpt>
      <trkpt lat="47.9011" lon="7.0983">
        <ele>1427</ele>
        <time>2023-05-29T06:51:29Z</time>
      </trkpt>
      <trkpt lat="47.90119" lon="7.09834">
        <ele>1424</ele>
        <time>2023-05-29T06:51:46Z</time>
      </trkpt>
      <trkpt lat="47.90127" lon="7.0984">
        <ele>1421</ele>
        <time>2023-05-29T06:52:12Z</time>
      </trkpt>
      <trkpt lat="47.90136" lon="7.09847">
        <ele>1419</ele>
        <time>2023-05-29T06:52:31Z</time>
      </trkpt>
      <trkpt lat="47.90145" lon="7.09852">
        <ele>1419</ele>
        <time>2023-05-29T06:52:40Z</time>
      </trkpt>
      <trkpt lat="47.90153" lon="7.09857">
        <ele>1418</ele>
        <time>2023-05-29T06:52:50Z</time>
      </trkpt>
      <trkpt lat="47.90161" lon="7.09863">
        <ele>1416</ele>
        <time>2023-05-29T06:53:10Z</time>
      </trkpt>
      <trkpt lat="47.9017" lon="7.09868">
        <ele>1415</ele>
        <time>2023-05-29T06:53:22Z</time>
      </trkpt>
      <trkpt lat="47.90178" lon="7.09874">
        <ele>1415</ele>
        <time>2023-05-29T06:53:33Z</time>
      </trkpt>
      <trkpt lat="47.90187" lon="7.0988">
        <ele>1413</ele>
        <time>2023-05-29T06:54:00Z</time>
      </trkpt>
      <trkpt lat="47.90194" lon="7.09888">
        <ele>1412</ele>
        <time>2023-05-29T06:54:11Z</time>
      </trkpt>
      <trkpt lat="47.90203" lon="7.09893">
        <ele>1411</ele>
        <time>2023-05-29T06:54:24Z</time>
      </trkpt>
      <trkpt lat="47.90212" lon="7.09895">
        <ele>1410</ele>
        <time>2023-05-29T06:54:36Z</time>
      </trkpt>
      <trkpt lat="47.9022" lon="7.099">
        <ele>1410</ele>
        <time>2023-05-29T06:54:47Z</time>
      </trkpt>
      <trkpt lat="47.90229" lon="7.09905">
        <ele>1408</ele>
        <time>2023-05-29T06:55:02Z</time>
      </trkpt>
      <trkpt lat="47.90238" lon="7.0991">
        <ele>1407</ele>
        <time>2023-05-29T06:55:13Z</time>
      </trkpt>
      <trkpt lat="47.90247" lon="7.09916">
        <ele>1406</ele>
        <time>2023-05-29T06:55:23Z</time>
      </trkpt>
      <trkpt lat="47.90256" lon="7.09922">
        <ele>1405</ele>
        <time>2023-05-29T06:55:33Z</time>
      </trkpt>
      <trkpt lat="47.90263" lon="7.09931">
        <ele>1405</ele>
        <time>2023-05-29T06:55:43Z</time>
      </trkpt>
      <trkpt lat="47.9027" lon="7.09941">
        <ele>1405</ele>
        <time>2023-05-29T06:55:54Z</time>
      </trkpt>
      <trkpt lat="47.90279" lon="7.09948">
        <ele>1405</ele>
        <time>2023-05-29T06:56:05Z</time>
      </trkpt>
      <trkpt lat="47.90286" lon="7.09957">
        <ele>1406</ele>
        <time>2023-05-29T06:56:16Z</time>
      </trkpt>
      <trkpt lat="47.90293" lon="7.09965">
        <ele>1407</ele>
        <time>2023-05-29T06:56:26Z</time>
      </trkpt>
      <trkpt lat="47.90296" lon="7.09976">
        <ele>1409</ele>
        <time>2023-05-29T06:56:45Z</time>
      </trkpt>
      <trkpt lat="47.90295" lon="7.09978">
        <ele>1413</ele>
        <time>2023-05-29T07:00:05Z</time>
      </trkpt>
      <trkpt lat="47.90294" lon="7.09965">
        <ele>1412</ele>
        <time>2023-05-29T07:00:19Z</time>
      </trkpt>
      <trkpt lat="47.90286" lon="7.09957">
        <ele>1411</ele>
        <time>2023-05-29T07:00:39Z</time>
      </trkpt>
      <trkpt lat="47.90279" lon="7.09948">
        <ele>1410</ele>
        <time>2023-05-29T07:00:55Z</time>
      </trkpt>
      <trkpt lat="47.90271" lon="7.0994">
        <ele>1409</ele>
        <time>2023-05-29T07:01:09Z</time>
      </trkpt>
      <trkpt lat="47.90263" lon="7.09931">
        <ele>1406</ele>
        <time>2023-05-29T07:02:26Z</time>
      </trkpt>
      <trkpt lat="47.90266" lon="7.09921">
        <ele>1405</ele>
        <time>2023-05-29T07:03:30Z</time>
      </trkpt>
      <trkpt lat="47.90274" lon="7.09917">
        <ele>1405</ele>
        <time>2023-05-29T07:03:45Z</time>
      </trkpt>
      <trkpt lat="47.90284" lon="7.09912">
        <ele>1405</ele>
        <time>2023-05-29T07:04:00Z</time>
      </trkpt>
      <trkpt lat="47.90292" lon="7.09906">
        <ele>1404</ele>
        <time>2023-05-29T07:04:12Z</time>
      </trkpt>
      <trkpt lat="47.903" lon="7.099">
        <ele>1403</ele>
        <time>2023-05-29T07:04:30Z</time>
      </trkpt>
      <trkpt lat="47.90308" lon="7.09892">
        <ele>1402</ele>
        <time>2023-05-29T07:04:44Z</time>
      </trkpt>
      <trkpt lat="47.90317" lon="7.09887">
        <ele>1400</ele>
        <time>2023-05-29T07:04:56Z</time>
      </trkpt>
      <trkpt lat="47.90326" lon="7.09893">
        <ele>1399</ele>
        <time>2023-05-29T07:05:07Z</time>
      </trkpt>
      <trkpt lat="47.90334" lon="7.09898">
        <ele>1398</ele>
        <time>2023-05-29T07:05:20Z</time>
      </trkpt>
      <trkpt lat="47.90343" lon="7.09904">
        <ele>1396</ele>
        <time>2023-05-29T07:05:36Z</time>
      </trkpt>
      <trkpt lat="47.90351" lon="7.09912">
        <ele>1395</ele>
        <time>2023-05-29T07:05:55Z</time>
      </trkpt>
      <trkpt lat="47.90359" lon="7.09919">
        <ele>1393</ele>
        <time>2023-05-29T07:06:07Z</time>
      </trkpt>
      <trkpt lat="47.90368" lon="7.09926">
        <ele>1392</ele>
        <time>2023-05-29T07:06:20Z</time>
      </trkpt>
      <trkpt lat="47.90372" lon="7.09938">
        <ele>1388</ele>
        <time>2023-05-29T07:06:45Z</time>
      </trkpt>
      <trkpt lat="47.90379" lon="7.09948">
        <ele>1387</ele>
        <time>2023-05-29T07:06:55Z</time>
      </trkpt>
      <trkpt lat="47.90382" lon="7.09961">
        <ele>1386</ele>
        <time>2023-05-29T07:07:04Z</time>
      </trkpt>
      <trkpt lat="47.90386" lon="7.09973">
        <ele>1385</ele>
        <time>2023-05-29T07:07:15Z</time>
      </trkpt>
      <trkpt lat="47.90388" lon="7.09987">
        <ele>1383</ele>
        <time>2023-05-29T07:07:26Z</time>
      </trkpt>
      <trkpt lat="47.90392" lon="7.1">
        <ele>1381</ele>
        <time>2023-05-29T07:07:37Z</time>
      </trkpt>
      <trkpt lat="47.90395" lon="7.10013">
        <ele>1380</ele>
        <time>2023-05-29T07:07:47Z</time>
      </trkpt>
      <trkpt lat="47.90399" lon="7.10026">
        <ele>1378</ele>
        <time>2023-05-29T07:07:57Z</time>
      </trkpt>
      <trkpt lat="47.90402" lon="7.1004">
        <ele>1377</ele>
        <time>2023-05-29T07:08:08Z</time>
      </trkpt>
      <trkpt lat="47.90405" lon="7.10053">
        <ele>1375</ele>
        <time>2023-05-29T07:08:19Z</time>
      </trkpt>
      <trkpt lat="47.90408" lon="7.10067">
        <ele>1372</ele>
        <time>2023-05-29T07:08:31Z</time>
      </trkpt>
      <trkpt lat="47.90413" lon="7.10078">
        <ele>1370</ele>
        <time>2023-05-29T07:08:43Z</time>
      </trkpt>
      <trkpt lat="47.9042" lon="7.10088">
        <ele>1368</ele>
        <time>2023-05-29T07:08:55Z</time>
      </trkpt>
      <trkpt lat="47.9042" lon="7.10101">
        <ele>1366</ele>
        <time>2023-05-29T07:09:04Z</time>
      </trkpt>
      <trkpt lat="47.90422" lon="7.10115">
        <ele>1365</ele>
        <time>2023-05-29T07:09:12Z</time>
      </trkpt>
      <trkpt lat="47.90418" lon="7.10128">
        <ele>1364</ele>
        <time>2023-05-29T07:09:19Z</time>
      </trkpt>
      <trkpt lat="47.90416" lon="7.10142">
        <ele>1362</ele>
        <time>2023-05-29T07:09:29Z</time>
      </trkpt>
      <trkpt lat="47.90415" lon="7.10156">
        <ele>1361</ele>
        <time>2023-05-29T07:09:41Z</time>
      </trkpt>
      <trkpt lat="47.90414" lon="7.1017">
        <ele>1360</ele>
        <time>2023-05-29T07:09:52Z</time>
      </trkpt>
      <trkpt lat="47.90412" lon="7.10183">
        <ele>1358</ele>
        <time>2023-05-29T07:10:05Z</time>
      </trkpt>
      <trkpt lat="47.90411" lon="7.10197">
        <ele>1355</ele>
        <time>2023-05-29T07:10:18Z</time>
      </trkpt>
      <trkpt lat="47.9041" lon="7.10211">
        <ele>1353</ele>
        <time>2023-05-29T07:10:29Z</time>
      </trkpt>
      <trkpt lat="47.90412" lon="7.10225">
        <ele>1352</ele>
        <time>2023-05-29T07:10:39Z</time>
      </trkpt>
      <trkpt lat="47.90419" lon="7.10233">
        <ele>1350</ele>
        <time>2023-05-29T07:10:48Z</time>
      </trkpt>
      <trkpt lat="47.90425" lon="7.10245">
        <ele>1348</ele>
        <time>2023-05-29T07:10:59Z</time>
      </trkpt>
      <trkpt lat="47.90431" lon="7.10256">
        <ele>1346</ele>
        <time>2023-05-29T07:11:11Z</time>
      </trkpt>
      <trkpt lat="47.90437" lon="7.10267">
        <ele>1344</ele>
        <time>2023-05-29T07:11:21Z</time>
      </trkpt>
      <trkpt lat="47.9044" lon="7.1028">
        <ele>1343</ele>
        <time>2023-05-29T07:11:31Z</time>
      </trkpt>
      <trkpt lat="47.90443" lon="7.10293">
        <ele>1342</ele>
        <time>2023-05-29T07:11:45Z</time>
      </trkpt>
      <trkpt lat="47.90447" lon="7.10306">
        <ele>1340</ele>
        <time>2023-05-29T07:11:58Z</time>
      </trkpt>
      <trkpt lat="47.90449" lon="7.10319">
        <ele>1338</ele>
        <time>2023-05-29T07:12:08Z</time>
      </trkpt>
      <trkpt lat="47.90449" lon="7.10332">
        <ele>1337</ele>
        <time>2023-05-29T07:12:20Z</time>
      </trkpt>
      <trkpt lat="47.90442" lon="7.10339">
        <ele>1335</ele>
        <time>2023-05-29T07:12:32Z</time>
      </trkpt>
      <trkpt lat="47.90441" lon="7.10345">
        <ele>1334</ele>
        <time>2023-05-29T07:13:25Z</time>
      </trkpt>
      <trkpt lat="47.9045" lon="7.10351">
        <ele>1334</ele>
        <time>2023-05-29T07:13:36Z</time>
      </trkpt>
      <trkpt lat="47.90458" lon="7.10358">
        <ele>1334</ele>
        <time>2023-05-29T07:13:45Z</time>
      </trkpt>
      <trkpt lat="47.90466" lon="7.10356">
        <ele>1334</ele>
        <time>2023-05-29T07:13:56Z</time>
      </trkpt>
      <trkpt lat="47.90475" lon="7.10363">
        <ele>1334</ele>
        <time>2023-05-29T07:14:07Z</time>
      </trkpt>
      <trkpt lat="47.90478" lon="7.10377">
        <ele>1334</ele>
        <time>2023-05-29T07:14:16Z</time>
      </trkpt>
      <trkpt lat="47.90478" lon="7.10391">
        <ele>1334</ele>
        <time>2023-05-29T07:14:25Z</time>
      </trkpt>
      <trkpt lat="47.90473" lon="7.10402">
        <ele>1333</ele>
        <time>2023-05-29T07:14:56Z</time>
      </trkpt>
      <trkpt lat="47.90474" lon="7.1039">
        <ele>1333</ele>
        <time>2023-05-29T07:15:10Z</time>
      </trkpt>
      <trkpt lat="47.90476" lon="7.10376">
        <ele>1333</ele>
        <time>2023-05-29T07:15:19Z</time>
      </trkpt>
      <trkpt lat="47.9048" lon="7.10365">
        <ele>1333</ele>
        <time>2023-05-29T07:15:29Z</time>
      </trkpt>
      <trkpt lat="47.90488" lon="7.10356">
        <ele>1333</ele>
        <time>2023-05-29T07:15:39Z</time>
      </trkpt>
      <trkpt lat="47.90496" lon="7.1036">
        <ele>1334</ele>
        <time>2023-05-29T07:15:49Z</time>
      </trkpt>
      <trkpt lat="47.90502" lon="7.10371">
        <ele>1334</ele>
        <time>2023-05-29T07:16:00Z</time>
      </trkpt>
      <trkpt lat="47.90509" lon="7.10381">
        <ele>1334</ele>
        <time>2023-05-29T07:16:08Z</time>
      </trkpt>
      <trkpt lat="47.90514" lon="7.10392">
        <ele>1334</ele>
        <time>2023-05-29T07:16:17Z</time>
      </trkpt>
      <trkpt lat="47.90521" lon="7.10402">
        <ele>1334</ele>
        <time>2023-05-29T07:16:26Z</time>
      </trkpt>
      <trkpt lat="47.90526" lon="7.10413">
        <ele>1334</ele>
        <time>2023-05-29T07:16:34Z</time>
      </trkpt>
      <trkpt lat="47.9053" lon="7.10425">
        <ele>1334</ele>
        <time>2023-05-29T07:16:42Z</time>
      </trkpt>
      <trkpt lat="47.90536" lon="7.10437">
        <ele>1334</ele>
        <time>2023-05-29T07:16:51Z</time>
      </trkpt>
      <trkpt lat="47.90542" lon="7.10448">
        <ele>1333</ele>
        <time>2023-05-29T07:17:01Z</time>
      </trkpt>
      <trkpt lat="47.90541" lon="7.10452">
        <ele>1333</ele>
        <time>2023-05-29T07:17:12Z</time>
      </trkpt>
      <trkpt lat="47.90534" lon="7.10443">
        <ele>1333</ele>
        <time>2023-05-29T07:17:35Z</time>
      </trkpt>
      <trkpt lat="47.90528" lon="7.10433">
        <ele>1333</ele>
        <time>2023-05-29T07:17:44Z</time>
      </trkpt>
      <trkpt lat="47.90524" lon="7.10421">
        <ele>1333</ele>
        <time>2023-05-29T07:17:53Z</time>
      </trkpt>
      <trkpt lat="47.90519" lon="7.10409">
        <ele>1333</ele>
        <time>2023-05-29T07:18:02Z</time>
      </trkpt>
      <trkpt lat="47.90513" lon="7.10399">
        <ele>1333</ele>
        <time>2023-05-29T07:18:11Z</time>
      </trkpt>
      <trkpt lat="47.90507" lon="7.10388">
        <ele>1333</ele>
        <time>2023-05-29T07:18:20Z</time>
      </trkpt>
      <trkpt lat="47.90502" lon="7.10376">
        <ele>1334</ele>
        <time>2023-05-29T07:18:29Z</time>
      </trkpt>
      <trkpt lat="47.90496" lon="7.10365">
        <ele>1334</ele>
        <time>2023-05-29T07:18:38Z</time>
      </trkpt>
      <trkpt lat="47.90487" lon="7.10366">
        <ele>1333</ele>
        <time>2023-05-29T07:18:48Z</time>
      </trkpt>
      <trkpt lat="47.90479" lon="7.10374">
        <ele>1333</ele>
        <time>2023-05-29T07:18:57Z</time>
      </trkpt>
      <trkpt lat="47.90478" lon="7.10389">
        <ele>1334</ele>
        <time>2023-05-29T07:19:07Z</time>
      </trkpt>
      <trkpt lat="47.90476" lon="7.10403">
        <ele>1334</ele>
        <time>2023-05-29T07:19:16Z</time>
      </trkpt>
      <trkpt lat="47.90475" lon="7.10418">
        <ele>1334</ele>
        <time>2023-05-29T07:19:25Z</time>
      </trkpt>
      <trkpt lat="47.90473" lon="7.1042">
        <ele>1333</ele>
        <time>2023-05-29T07:19:40Z</time>
      </trkpt>
      <trkpt lat="47.90473" lon="7.10407">
        <ele>1333</ele>
        <time>2023-05-29T07:19:50Z</time>
      </trkpt>
      <trkpt lat="47.90472" lon="7.10395">
        <ele>1333</ele>
        <time>2023-05-29T07:20:02Z</time>
      </trkpt>
      <trkpt lat="47.90467" lon="7.10408">
        <ele>1333</ele>
        <time>2023-05-29T07:20:12Z</time>
      </trkpt>
      <trkpt lat="47.90461" lon="7.10416">
        <ele>1332</ele>
        <time>2023-05-29T07:20:23Z</time>
      </trkpt>
      <trkpt lat="47.90454" lon="7.10425">
        <ele>1331</ele>
        <time>2023-05-29T07:20:39Z</time>
      </trkpt>
      <trkpt lat="47.90446" lon="7.10434">
        <ele>1329</ele>
        <time>2023-05-29T07:20:57Z</time>
      </trkpt>
      <trkpt lat="47.90439" lon="7.10442">
        <ele>1327</ele>
        <time>2023-05-29T07:21:10Z</time>
      </trkpt>
      <trkpt lat="47.90436" lon="7.10455">
        <ele>1325</ele>
        <time>2023-05-29T07:21:25Z</time>
      </trkpt>
      <trkpt lat="47.90434" lon="7.10468">
        <ele>1323</ele>
        <time>2023-05-29T07:21:38Z</time>
      </trkpt>
      <trkpt lat="47.90433" lon="7.10467">
        <ele>1317</ele>
        <time>2023-05-29T07:22:41Z</time>
      </trkpt>
      <trkpt lat="47.90432" lon="7.10452">
        <ele>1317</ele>
        <time>2023-05-29T07:23:08Z</time>
      </trkpt>
      <trkpt lat="47.90437" lon="7.10442">
        <ele>1318</ele>
        <time>2023-05-29T07:23:23Z</time>
      </trkpt>
      <trkpt lat="47.90445" lon="7.10434">
        <ele>1320</ele>
        <time>2023-05-29T07:23:37Z</time>
      </trkpt>
      <trkpt lat="47.9045" lon="7.10427">
        <ele>1326</ele>
        <time>2023-05-29T07:25:05Z</time>
      </trkpt>
      <trkpt lat="47.90444" lon="7.10438">
        <ele>1326</ele>
        <time>2023-05-29T07:25:21Z</time>
      </trkpt>
      <trkpt lat="47.90437" lon="7.10445">
        <ele>1325</ele>
        <time>2023-05-29T07:25:32Z</time>
      </trkpt>
      <trkpt lat="47.90434" lon="7.10458">
        <ele>1324</ele>
        <time>2023-05-29T07:25:45Z</time>
      </trkpt>
      <trkpt lat="47.90433" lon="7.10472">
        <ele>1322</ele>
        <time>2023-05-29T07:25:56Z</time>
      </trkpt>
      <trkpt lat="47.90434" lon="7.10486">
        <ele>1320</ele>
        <time>2023-05-29T07:26:07Z</time>
      </trkpt>
      <trkpt lat="47.90436" lon="7.10499">
        <ele>1318</ele>
        <time>2023-05-29T07:26:21Z</time>
      </trkpt>
      <trkpt lat="47.90439" lon="7.10512">
        <ele>1316</ele>
        <time>2023-05-29T07:26:32Z</time>
      </trkpt>
      <trkpt lat="47.90441" lon="7.10525">
        <ele>1315</ele>
        <time>2023-05-29T07:26:44Z</time>
      </trkpt>
      <trkpt lat="47.90446" lon="7.10536">
        <ele>1313</ele>
        <time>2023-05-29T07:26:54Z</time>
      </trkpt>
      <trkpt lat="47.90452" lon="7.10547">
        <ele>1312</ele>
        <time>2023-05-29T07:27:02Z</time>
      </trkpt>
      <trkpt lat="47.90458" lon="7.10558">
        <ele>1310</ele>
        <time>2023-05-29T07:27:12Z</time>
      </trkpt>
      <trkpt lat="47.90462" lon="7.1057">
        <ele>1309</ele>
        <time>2023-05-29T07:27:22Z</time>
      </trkpt>
      <trkpt lat="47.90468" lon="7.10582">
        <ele>1308</ele>
        <time>2023-05-29T07:27:32Z</time>
      </trkpt>
      <trkpt lat="47.90473" lon="7.10594">
        <ele>1306</ele>
        <time>2023-05-29T07:27:44Z</time>
      </trkpt>
      <trkpt lat="47.90479" lon="7.10605">
        <ele>1304</ele>
        <time>2023-05-29T07:27:54Z</time>
      </trkpt>
      <trkpt lat="47.90486" lon="7.10614">
        <ele>1303</ele>
        <time>2023-05-29T07:28:02Z</time>
      </trkpt>
      <trkpt lat="47.90492" lon="7.10624">
        <ele>1302</ele>
        <time>2023-05-29T07:28:09Z</time>
      </trkpt>
      <trkpt lat="47.90499" lon="7.10633">
        <ele>1300</ele>
        <time>2023-05-29T07:28:18Z</time>
      </trkpt>
      <trkpt lat="47.90504" lon="7.10645">
        <ele>1298</ele>
        <time>2023-05-29T07:28:30Z</time>
      </trkpt>
      <trkpt lat="47.90507" lon="7.10659">
        <ele>1296</ele>
        <time>2023-05-29T07:28:43Z</time>
      </trkpt>
      <trkpt lat="47.90502" lon="7.1067">
        <ele>1295</ele>
        <time>2023-05-29T07:28:54Z</time>
      </trkpt>
      <trkpt lat="47.90493" lon="7.10675">
        <ele>1293</ele>
        <time>2023-05-29T07:29:04Z</time>
      </trkpt>
      <trkpt lat="47.90485" lon="7.10678">
        <ele>1291</ele>
        <time>2023-05-29T07:29:14Z</time>
      </trkpt>
      <trkpt lat="47.90475" lon="7.10679">
        <ele>1290</ele>
        <time>2023-05-29T07:29:25Z</time>
      </trkpt>
      <trkpt lat="47.90466" lon="7.10679">
        <ele>1289</ele>
        <time>2023-05-29T07:29:35Z</time>
      </trkpt>
      <trkpt lat="47.90457" lon="7.10675">
        <ele>1287</ele>
        <time>2023-05-29T07:29:45Z</time>
      </trkpt>
      <trkpt lat="47.90447" lon="7.10673">
        <ele>1286</ele>
        <time>2023-05-29T07:29:54Z</time>
      </trkpt>
      <trkpt lat="47.90438" lon="7.10671">
        <ele>1284</ele>
        <time>2023-05-29T07:30:04Z</time>
      </trkpt>
      <trkpt lat="47.90429" lon="7.1067">
        <ele>1282</ele>
        <time>2023-05-29T07:30:13Z</time>
      </trkpt>
      <trkpt lat="47.9042" lon="7.10669">
        <ele>1281</ele>
        <time>2023-05-29T07:30:23Z</time>
      </trkpt>
      <trkpt lat="47.90411" lon="7.10668">
        <ele>1279</ele>
        <time>2023-05-29T07:30:33Z</time>
      </trkpt>
      <trkpt lat="47.90401" lon="7.10666">
        <ele>1277</ele>
        <time>2023-05-29T07:30:43Z</time>
      </trkpt>
      <trkpt lat="47.90393" lon="7.10662">
        <ele>1276</ele>
        <time>2023-05-29T07:30:53Z</time>
      </trkpt>
      <trkpt lat="47.90383" lon="7.10659">
        <ele>1273</ele>
        <time>2023-05-29T07:31:06Z</time>
      </trkpt>
      <trkpt lat="47.90374" lon="7.10655">
        <ele>1272</ele>
        <time>2023-05-29T07:31:15Z</time>
      </trkpt>
      <trkpt lat="47.90365" lon="7.10653">
        <ele>1271</ele>
        <time>2023-05-29T07:31:25Z</time>
      </trkpt>
      <trkpt lat="47.90355" lon="7.10655">
        <ele>1269</ele>
        <time>2023-05-29T07:31:35Z</time>
      </trkpt>
      <trkpt lat="47.90347" lon="7.10658">
        <ele>1267</ele>
        <time>2023-05-29T07:31:46Z</time>
      </trkpt>
      <trkpt lat="47.90337" lon="7.10662">
        <ele>1265</ele>
        <time>2023-05-29T07:31:57Z</time>
      </trkpt>
      <trkpt lat="47.90328" lon="7.10666">
        <ele>1264</ele>
        <time>2023-05-29T07:32:05Z</time>
      </trkpt>
      <trkpt lat="47.90319" lon="7.10668">
        <ele>1259</ele>
        <time>2023-05-29T07:32:38Z</time>
      </trkpt>
      <trkpt lat="47.9031" lon="7.10672">
        <ele>1257</ele>
        <time>2023-05-29T07:32:51Z</time>
      </trkpt>
      <trkpt lat="47.90302" lon="7.10679">
        <ele>1256</ele>
        <time>2023-05-29T07:33:14Z</time>
      </trkpt>
      <trkpt lat="47.90293" lon="7.10683">
        <ele>1255</ele>
        <time>2023-05-29T07:33:22Z</time>
      </trkpt>
      <trkpt lat="47.90284" lon="7.10685">
        <ele>1254</ele>
        <time>2023-05-29T07:33:36Z</time>
      </trkpt>
      <trkpt lat="47.90275" lon="7.10691">
        <ele>1253</ele>
        <time>2023-05-29T07:33:50Z</time>
      </trkpt>
      <trkpt lat="47.90266" lon="7.10694">
        <ele>1252</ele>
        <time>2023-05-29T07:34:00Z</time>
      </trkpt>
      <trkpt lat="47.90257" lon="7.10698">
        <ele>1250</ele>
        <time>2023-05-29T07:34:11Z</time>
      </trkpt>
      <trkpt lat="47.9026" lon="7.10708">
        <ele>1248</ele>
        <time>2023-05-29T07:34:34Z</time>
      </trkpt>
      <trkpt lat="47.90262" lon="7.10722">
        <ele>1247</ele>
        <time>2023-05-29T07:34:48Z</time>
      </trkpt>
      <trkpt lat="47.90261" lon="7.10735">
        <ele>1245</ele>
        <time>2023-05-29T07:35:01Z</time>
      </trkpt>
      <trkpt lat="47.90264" lon="7.10745">
        <ele>1242</ele>
        <time>2023-05-29T07:35:25Z</time>
      </trkpt>
      <trkpt lat="47.90267" lon="7.10757">
        <ele>1241</ele>
        <time>2023-05-29T07:35:38Z</time>
      </trkpt>
      <trkpt lat="47.90271" lon="7.1077">
        <ele>1239</ele>
        <time>2023-05-29T07:35:51Z</time>
      </trkpt>
      <trkpt lat="47.90278" lon="7.1078">
        <ele>1238</ele>
        <time>2023-05-29T07:36:02Z</time>
      </trkpt>
      <trkpt lat="47.90282" lon="7.10794">
        <ele>1237</ele>
        <time>2023-05-29T07:36:12Z</time>
      </trkpt>
      <trkpt lat="47.90286" lon="7.10807">
        <ele>1235</ele>
        <time>2023-05-29T07:36:23Z</time>
      </trkpt>
      <trkpt lat="47.90291" lon="7.10818">
        <ele>1234</ele>
        <time>2023-05-29T07:36:34Z</time>
      </trkpt>
      <trkpt lat="47.90296" lon="7.1083">
        <ele>1232</ele>
        <time>2023-05-29T07:36:45Z</time>
      </trkpt>
      <trkpt lat="47.90301" lon="7.10842">
        <ele>1230</ele>
        <time>2023-05-29T07:36:56Z</time>
      </trkpt>
      <trkpt lat="47.90309" lon="7.10851">
        <ele>1229</ele>
        <time>2023-05-29T07:37:04Z</time>
      </trkpt>
      <trkpt lat="47.90316" lon="7.1086">
        <ele>1228</ele>
        <time>2023-05-29T07:37:14Z</time>
      </trkpt>
      <trkpt lat="47.90322" lon="7.10869">
        <ele>1224</ele>
        <time>2023-05-29T07:37:38Z</time>
      </trkpt>
      <trkpt lat="47.90326" lon="7.10882">
        <ele>1222</ele>
        <time>2023-05-29T07:37:56Z</time>
      </trkpt>
      <trkpt lat="47.9033" lon="7.10894">
        <ele>1220</ele>
        <time>2023-05-29T07:38:06Z</time>
      </trkpt>
      <trkpt lat="47.90335" lon="7.10906">
        <ele>1219</ele>
        <time>2023-05-29T07:38:16Z</time>
      </trkpt>
      <trkpt lat="47.90338" lon="7.1092">
        <ele>1218</ele>
        <time>2023-05-29T07:38:27Z</time>
      </trkpt>
      <trkpt lat="47.90345" lon="7.1093">
        <ele>1217</ele>
        <time>2023-05-29T07:38:38Z</time>
      </trkpt>
      <trkpt lat="47.90352" lon="7.1094">
        <ele>1215</ele>
        <time>2023-05-29T07:38:48Z</time>
      </trkpt>
      <trkpt lat="47.90356" lon="7.10952">
        <ele>1213</ele>
        <time>2023-05-29T07:39:01Z</time>
      </trkpt>
      <trkpt lat="47.90361" lon="7.10964">
        <ele>1212</ele>
        <time>2023-05-29T07:39:14Z</time>
      </trkpt>
      <trkpt lat="47.90367" lon="7.10973">
        <ele>1209</ele>
        <time>2023-05-29T07:39:26Z</time>
      </trkpt>
      <trkpt lat="47.90374" lon="7.10984">
        <ele>1208</ele>
        <time>2023-05-29T07:39:38Z</time>
      </trkpt>
      <trkpt lat="47.90381" lon="7.10993">
        <ele>1206</ele>
        <time>2023-05-29T07:39:47Z</time>
      </trkpt>
      <trkpt lat="47.90387" lon="7.11003">
        <ele>1205</ele>
        <time>2023-05-29T07:39:57Z</time>
      </trkpt>
      <trkpt lat="47.90393" lon="7.11014">
        <ele>1203</ele>
        <time>2023-05-29T07:40:08Z</time>
      </trkpt>
      <trkpt lat="47.90399" lon="7.11024">
        <ele>1201</ele>
        <time>2023-05-29T07:40:19Z</time>
      </trkpt>
      <trkpt lat="47.90407" lon="7.11032">
        <ele>1199</ele>
        <time>2023-05-29T07:40:32Z</time>
      </trkpt>
      <trkpt lat="47.90414" lon="7.11043">
        <ele>1197</ele>
        <time>2023-05-29T07:40:42Z</time>
      </trkpt>
      <trkpt lat="47.90421" lon="7.11053">
        <ele>1195</ele>
        <time>2023-05-29T07:40:51Z</time>
      </trkpt>
      <trkpt lat="47.90427" lon="7.11063">
        <ele>1195</ele>
        <time>2023-05-29T07:40:59Z</time>
      </trkpt>
      <trkpt lat="47.90433" lon="7.11073">
        <ele>1193</ele>
        <time>2023-05-29T07:41:08Z</time>
      </trkpt>
      <trkpt lat="47.90441" lon="7.11082">
        <ele>1191</ele>
        <time>2023-05-29T07:41:17Z</time>
      </trkpt>
      <trkpt lat="47.90446" lon="7.11094">
        <ele>1190</ele>
        <time>2023-05-29T07:41:29Z</time>
      </trkpt>
      <trkpt lat="47.9045" lon="7.11107">
        <ele>1188</ele>
        <time>2023-05-29T07:41:38Z</time>
      </trkpt>
      <trkpt lat="47.90454" lon="7.11119">
        <ele>1187</ele>
        <time>2023-05-29T07:41:47Z</time>
      </trkpt>
      <trkpt lat="47.90459" lon="7.11131">
        <ele>1186</ele>
        <time>2023-05-29T07:41:58Z</time>
      </trkpt>
      <trkpt lat="47.90463" lon="7.11143">
        <ele>1185</ele>
        <time>2023-05-29T07:42:10Z</time>
      </trkpt>
      <trkpt lat="47.90467" lon="7.11156">
        <ele>1183</ele>
        <time>2023-05-29T07:42:23Z</time>
      </trkpt>
      <trkpt lat="47.90469" lon="7.11168">
        <ele>1176</ele>
        <time>2023-05-29T07:43:54Z</time>
      </trkpt>
      <trkpt lat="47.90474" lon="7.11178">
        <ele>1176</ele>
        <time>2023-05-29T07:44:04Z</time>
      </trkpt>
      <trkpt lat="47.90483" lon="7.11185">
        <ele>1176</ele>
        <time>2023-05-29T07:44:16Z</time>
      </trkpt>
      <trkpt lat="47.90489" lon="7.11195">
        <ele>1175</ele>
        <time>2023-05-29T07:44:26Z</time>
      </trkpt>
      <trkpt lat="47.90493" lon="7.11206">
        <ele>1174</ele>
        <time>2023-05-29T07:44:38Z</time>
      </trkpt>
      <trkpt lat="47.90499" lon="7.11218">
        <ele>1173</ele>
        <time>2023-05-29T07:44:50Z</time>
      </trkpt>
      <trkpt lat="47.90506" lon="7.11228">
        <ele>1171</ele>
        <time>2023-05-29T07:45:08Z</time>
      </trkpt>
      <trkpt lat="47.9051" lon="7.11241">
        <ele>1169</ele>
        <time>2023-05-29T07:45:20Z</time>
      </trkpt>
      <trkpt lat="47.90513" lon="7.11254">
        <ele>1168</ele>
        <time>2023-05-29T07:45:30Z</time>
      </trkpt>
      <trkpt lat="47.90515" lon="7.11267">
        <ele>1166</ele>
        <time>2023-05-29T07:45:44Z</time>
      </trkpt>
      <trkpt lat="47.9052" lon="7.1128">
        <ele>1165</ele>
        <time>2023-05-29T07:45:55Z</time>
      </trkpt>
      <trkpt lat="47.90519" lon="7.11294">
        <ele>1163</ele>
        <time>2023-05-29T07:46:06Z</time>
      </trkpt>
      <trkpt lat="47.90519" lon="7.11307">
        <ele>1162</ele>
        <time>2023-05-29T07:46:15Z</time>
      </trkpt>
      <trkpt lat="47.90521" lon="7.11321">
        <ele>1160</ele>
        <time>2023-05-29T07:46:28Z</time>
      </trkpt>
      <trkpt lat="47.90523" lon="7.11335">
        <ele>1159</ele>
        <time>2023-05-29T07:46:39Z</time>
      </trkpt>
      <trkpt lat="47.90523" lon="7.11349">
        <ele>1157</ele>
        <time>2023-05-29T07:46:49Z</time>
      </trkpt>
      <trkpt lat="47.90522" lon="7.11362">
        <ele>1156</ele>
        <time>2023-05-29T07:46:58Z</time>
      </trkpt>
      <trkpt lat="47.90519" lon="7.11376">
        <ele>1155</ele>
        <time>2023-05-29T07:47:10Z</time>
      </trkpt>
      <trkpt lat="47.90517" lon="7.1139">
        <ele>1153</ele>
        <time>2023-05-29T07:47:24Z</time>
      </trkpt>
      <trkpt lat="47.90512" lon="7.11402">
        <ele>1151</ele>
        <time>2023-05-29T07:47:37Z</time>
      </trkpt>
      <trkpt lat="47.90509" lon="7.11416">
        <ele>1150</ele>
        <time>2023-05-29T07:47:50Z</time>
      </trkpt>
      <trkpt lat="47.90507" lon="7.11429">
        <ele>1148</ele>
        <time>2023-05-29T07:48:04Z</time>
      </trkpt>
      <trkpt lat="47.90508" lon="7.11442">
        <ele>1146</ele>
        <time>2023-05-29T07:48:16Z</time>
      </trkpt>
      <trkpt lat="47.90506" lon="7.11455">
        <ele>1145</ele>
        <time>2023-05-29T07:48:30Z</time>
      </trkpt>
      <trkpt lat="47.90504" lon="7.11468">
        <ele>1143</ele>
        <time>2023-05-29T07:48:42Z</time>
      </trkpt>
      <trkpt lat="47.90504" lon="7.11482">
        <ele>1141</ele>
        <time>2023-05-29T07:48:54Z</time>
      </trkpt>
      <trkpt lat="47.905" lon="7.11494">
        <ele>1139</ele>
        <time>2023-05-29T07:49:07Z</time>
      </trkpt>
      <trkpt lat="47.90498" lon="7.11507">
        <ele>1137</ele>
        <time>2023-05-29T07:49:21Z</time>
      </trkpt>
      <trkpt lat="47.90496" lon="7.11521">
        <ele>1136</ele>
        <time>2023-05-29T07:49:33Z</time>
      </trkpt>
      <trkpt lat="47.90493" lon="7.11534">
        <ele>1134</ele>
        <time>2023-05-29T07:49:45Z</time>
      </trkpt>
      <trkpt lat="47.90492" lon="7.11549">
        <ele>1132</ele>
        <time>2023-05-29T07:49:58Z</time>
      </trkpt>
      <trkpt lat="47.90492" lon="7.11564">
        <ele>1131</ele>
        <time>2023-05-29T07:50:08Z</time>
      </trkpt>
      <trkpt lat="47.90492" lon="7.11578">
        <ele>1129</ele>
        <time>2023-05-29T07:50:18Z</time>
      </trkpt>
      <trkpt lat="47.90488" lon="7.1159">
        <ele>1128</ele>
        <time>2023-05-29T07:50:33Z</time>
      </trkpt>
      <trkpt lat="47.90485" lon="7.11603">
        <ele>1127</ele>
        <time>2023-05-29T07:50:45Z</time>
      </trkpt>
      <trkpt lat="47.90488" lon="7.11615">
        <ele>1123</ele>
        <time>2023-05-29T07:51:50Z</time>
      </trkpt>
      <trkpt lat="47.90484" lon="7.11627">
        <ele>1122</ele>
        <time>2023-05-29T07:52:04Z</time>
      </trkpt>
      <trkpt lat="47.90482" lon="7.11641">
        <ele>1122</ele>
        <time>2023-05-29T07:52:18Z</time>
      </trkpt>
      <trkpt lat="47.90478" lon="7.11654">
        <ele>1121</ele>
        <time>2023-05-29T07:52:33Z</time>
      </trkpt>
      <trkpt lat="47.90475" lon="7.11666">
        <ele>1119</ele>
        <time>2023-05-29T07:52:45Z</time>
      </trkpt>
      <trkpt lat="47.90475" lon="7.1168">
        <ele>1118</ele>
        <time>2023-05-29T07:52:58Z</time>
      </trkpt>
      <trkpt lat="47.90475" lon="7.11695">
        <ele>1116</ele>
        <time>2023-05-29T07:53:10Z</time>
      </trkpt>
      <trkpt lat="47.90477" lon="7.11708">
        <ele>1114</ele>
        <time>2023-05-29T07:53:16Z</time>
      </trkpt>
      <trkpt lat="47.90482" lon="7.1172">
        <ele>1114</ele>
        <time>2023-05-29T07:53:23Z</time>
      </trkpt>
      <trkpt lat="47.90486" lon="7.11732">
        <ele>1112</ele>
        <time>2023-05-29T07:53:31Z</time>
      </trkpt>
      <trkpt lat="47.9049" lon="7.11745">
        <ele>1112</ele>
        <time>2023-05-29T07:53:40Z</time>
      </trkpt>
      <trkpt lat="47.90494" lon="7.11757">
        <ele>1110</ele>
        <time>2023-05-29T07:53:51Z</time>
      </trkpt>
      <trkpt lat="47.90501" lon="7.11767">
        <ele>1109</ele>
        <time>2023-05-29T07:54:01Z</time>
      </trkpt>
      <trkpt lat="47.90507" lon="7.11778">
        <ele>1108</ele>
        <time>2023-05-29T07:54:10Z</time>
      </trkpt>
      <trkpt lat="47.90512" lon="7.11789">
        <ele>1107</ele>
        <time>2023-05-29T07:54:19Z</time>
      </trkpt>
      <trkpt lat="47.90517" lon="7.11801">
        <ele>1107</ele>
        <time>2023-05-29T07:54:27Z</time>
      </trkpt>
      <trkpt lat="47.90523" lon="7.11812">
        <ele>1106</ele>
        <time>2023-05-29T07:54:36Z</time>
      </trkpt>
      <trkpt lat="47.90529" lon="7.11824">
        <ele>1106</ele>
        <time>2023-05-29T07:54:45Z</time>
      </trkpt>
      <trkpt lat="47.90535" lon="7.11834">
        <ele>1105</ele>
        <time>2023-05-29T07:54:53Z</time>
      </trkpt>
      <trkpt lat="47.90541" lon="7.11845">
        <ele>1104</ele>
        <time>2023-05-29T07:55:02Z</time>
      </trkpt>
      <trkpt lat="47.90548" lon="7.11855">
        <ele>1104</ele>
        <time>2023-05-29T07:55:13Z</time>
      </trkpt>
      <trkpt lat="47.90554" lon="7.11866">
        <ele>1103</ele>
        <time>2023-05-29T07:55:24Z</time>
      </trkpt>
      <trkpt lat="47.90562" lon="7.11875">
        <ele>1103</ele>
        <time>2023-05-29T07:55:34Z</time>
      </trkpt>
      <trkpt lat="47.90564" lon="7.11888">
        <ele>1102</ele>
        <time>2023-05-29T07:55:59Z</time>
      </trkpt>
      <trkpt lat="47.90563" lon="7.11902">
        <ele>1100</ele>
        <time>2023-05-29T07:56:11Z</time>
      </trkpt>
      <trkpt lat="47.90565" lon="7.11915">
        <ele>1099</ele>
        <time>2023-05-29T07:56:21Z</time>
      </trkpt>
      <trkpt lat="47.90568" lon="7.11929">
        <ele>1097</ele>
        <time>2023-05-29T07:56:34Z</time>
      </trkpt>
      <trkpt lat="47.9057" lon="7.11942">
        <ele>1095</ele>
        <time>2023-05-29T07:56:46Z</time>
      </trkpt>
      <trkpt lat="47.90572" lon="7.11955">
        <ele>1092</ele>
        <time>2023-05-29T07:57:01Z</time>
      </trkpt>
      <trkpt lat="47.90574" lon="7.11969">
        <ele>1090</ele>
        <time>2023-05-29T07:57:15Z</time>
      </trkpt>
      <trkpt lat="47.90576" lon="7.11983">
        <ele>1087</ele>
        <time>2023-05-29T07:57:27Z</time>
      </trkpt>
      <trkpt lat="47.90578" lon="7.11996">
        <ele>1085</ele>
        <time>2023-05-29T07:57:41Z</time>
      </trkpt>
      <trkpt lat="47.90571" lon="7.12003">
        <ele>1083</ele>
        <time>2023-05-29T07:57:54Z</time>
      </trkpt>
      <trkpt lat="47.90562" lon="7.12009">
        <ele>1078</ele>
        <time>2023-05-29T07:58:21Z</time>
      </trkpt>
      <trkpt lat="47.90564" lon="7.12022">
        <ele>1075</ele>
        <time>2023-05-29T07:58:38Z</time>
      </trkpt>
      <trkpt lat="47.90571" lon="7.12032">
        <ele>1074</ele>
        <time>2023-05-29T07:58:50Z</time>
      </trkpt>
      <trkpt lat="47.90575" lon="7.12044">
        <ele>1071</ele>
        <time>2023-05-29T07:59:04Z</time>
      </trkpt>
      <trkpt lat="47.90576" lon="7.12058">
        <ele>1068</ele>
        <time>2023-05-29T07:59:25Z</time>
      </trkpt>
      <trkpt lat="47.9058" lon="7.12071">
        <ele>1065</ele>
        <time>2023-05-29T07:59:43Z</time>
      </trkpt>
      <trkpt lat="47.90583" lon="7.12084">
        <ele>1064</ele>
        <time>2023-05-29T07:59:54Z</time>
      </trkpt>
      <trkpt lat="47.90589" lon="7.12095">
        <ele>1062</ele>
        <time>2023-05-29T08:00:09Z</time>
      </trkpt>
      <trkpt lat="47.90594" lon="7.12107">
        <ele>1060</ele>
        <time>2023-05-29T08:00:22Z</time>
      </trkpt>
      <trkpt lat="47.906" lon="7.12118">
        <ele>1059</ele>
        <time>2023-05-29T08:00:33Z</time>
      </trkpt>
      <trkpt lat="47.90605" lon="7.12128">
        <ele>1057</ele>
        <time>2023-05-29T08:00:42Z</time>
      </trkpt>
      <trkpt lat="47.90611" lon="7.1214">
        <ele>1056</ele>
        <time>2023-05-29T08:00:53Z</time>
      </trkpt>
      <trkpt lat="47.90617" lon="7.12151">
        <ele>1054</ele>
        <time>2023-05-29T08:01:04Z</time>
      </trkpt>
      <trkpt lat="47.90624" lon="7.12162">
        <ele>1053</ele>
        <time>2023-05-29T08:01:14Z</time>
      </trkpt>
      <trkpt lat="47.90627" lon="7.12175">
        <ele>1052</ele>
        <time>2023-05-29T08:01:25Z</time>
      </trkpt>
      <trkpt lat="47.90633" lon="7.12187">
        <ele>1050</ele>
        <time>2023-05-29T08:01:36Z</time>
      </trkpt>
      <trkpt lat="47.90636" lon="7.122">
        <ele>1048</ele>
        <time>2023-05-29T08:01:47Z</time>
      </trkpt>
      <trkpt lat="47.90641" lon="7.12213">
        <ele>1047</ele>
        <time>2023-05-29T08:01:58Z</time>
      </trkpt>
      <trkpt lat="47.90647" lon="7.12223">
        <ele>1045</ele>
        <time>2023-05-29T08:02:07Z</time>
      </trkpt>
      <trkpt lat="47.90654" lon="7.12232">
        <ele>1044</ele>
        <time>2023-05-29T08:02:16Z</time>
      </trkpt>
      <trkpt lat="47.9066" lon="7.12242">
        <ele>1042</ele>
        <time>2023-05-29T08:02:28Z</time>
      </trkpt>
      <trkpt lat="47.90665" lon="7.12253">
        <ele>1041</ele>
        <time>2023-05-29T08:02:39Z</time>
      </trkpt>
      <trkpt lat="47.90669" lon="7.12266">
        <ele>1038</ele>
        <time>2023-05-29T08:02:54Z</time>
      </trkpt>
      <trkpt lat="47.90676" lon="7.12276">
        <ele>1037</ele>
        <time>2023-05-29T08:03:05Z</time>
      </trkpt>
      <trkpt lat="47.90681" lon="7.12289">
        <ele>1034</ele>
        <time>2023-05-29T08:03:16Z</time>
      </trkpt>
      <trkpt lat="47.90688" lon="7.12298">
        <ele>1033</ele>
        <time>2023-05-29T08:03:26Z</time>
      </trkpt>
      <trkpt lat="47.90696" lon="7.12306">
        <ele>1031</ele>
        <time>2023-05-29T08:03:39Z</time>
      </trkpt>
      <trkpt lat="47.90701" lon="7.12317">
        <ele>1030</ele>
        <time>2023-05-29T08:03:50Z</time>
      </trkpt>
      <trkpt lat="47.90708" lon="7.12327">
        <ele>1028</ele>
        <time>2023-05-29T08:03:59Z</time>
      </trkpt>
      <trkpt lat="47.90714" lon="7.12338">
        <ele>1027</ele>
        <time>2023-05-29T08:04:08Z</time>
      </trkpt>
      <trkpt lat="47.90719" lon="7.12349">
        <ele>1026</ele>
        <time>2023-05-29T08:04:17Z</time>
      </trkpt>
      <trkpt lat="47.90723" lon="7.12361">
        <ele>1025</ele>
        <time>2023-05-29T08:04:28Z</time>
      </trkpt>
      <trkpt lat="47.90725" lon="7.12375">
        <ele>1024</ele>
        <time>2023-05-29T08:04:41Z</time>
      </trkpt>
      <trkpt lat="47.90725" lon="7.12388">
        <ele>1022</ele>
        <time>2023-05-29T08:04:54Z</time>
      </trkpt>
      <trkpt lat="47.90726" lon="7.12402">
        <ele>1020</ele>
        <time>2023-05-29T08:05:06Z</time>
      </trkpt>
      <trkpt lat="47.90728" lon="7.12415">
        <ele>1018</ele>
        <time>2023-05-29T08:05:17Z</time>
      </trkpt>
      <trkpt lat="47.90731" lon="7.12429">
        <ele>1017</ele>
        <time>2023-05-29T08:05:29Z</time>
      </trkpt>
      <trkpt lat="47.90733" lon="7.12443">
        <ele>1014</ele>
        <time>2023-05-29T08:05:42Z</time>
      </trkpt>
      <trkpt lat="47.90735" lon="7.12456">
        <ele>1013</ele>
        <time>2023-05-29T08:05:52Z</time>
      </trkpt>
      <trkpt lat="47.90734" lon="7.1247">
        <ele>1011</ele>
        <time>2023-05-29T08:06:04Z</time>
      </trkpt>
      <trkpt lat="47.90734" lon="7.12485">
        <ele>1009</ele>
        <time>2023-05-29T08:06:16Z</time>
      </trkpt>
      <trkpt lat="47.90736" lon="7.12499">
        <ele>1008</ele>
        <time>2023-05-29T08:06:27Z</time>
      </trkpt>
      <trkpt lat="47.90737" lon="7.12513">
        <ele>1006</ele>
        <time>2023-05-29T08:06:37Z</time>
      </trkpt>
      <trkpt lat="47.90737" lon="7.12526">
        <ele>1005</ele>
        <time>2023-05-29T08:06:47Z</time>
      </trkpt>
      <trkpt lat="47.90739" lon="7.1254">
        <ele>1002</ele>
        <time>2023-05-29T08:07:03Z</time>
      </trkpt>
      <trkpt lat="47.90741" lon="7.12554">
        <ele>1001</ele>
        <time>2023-05-29T08:07:15Z</time>
      </trkpt>
      <trkpt lat="47.90742" lon="7.12567">
        <ele>999</ele>
        <time>2023-05-29T08:07:26Z</time>
      </trkpt>
      <trkpt lat="47.90744" lon="7.12581">
        <ele>998</ele>
        <time>2023-05-29T08:07:36Z</time>
      </trkpt>
      <trkpt lat="47.90743" lon="7.12594">
        <ele>997</ele>
        <time>2023-05-29T08:07:48Z</time>
      </trkpt>
      <trkpt lat="47.90743" lon="7.12608">
        <ele>995</ele>
        <time>2023-05-29T08:07:58Z</time>
      </trkpt>
      <trkpt lat="47.90744" lon="7.12622">
        <ele>994</ele>
        <time>2023-05-29T08:08:10Z</time>
      </trkpt>
      <trkpt lat="47.90746" lon="7.12636">
        <ele>992</ele>
        <time>2023-05-29T08:08:21Z</time>
      </trkpt>
      <trkpt lat="47.90748" lon="7.12649">
        <ele>991</ele>
        <time>2023-05-29T08:08:30Z</time>
      </trkpt>
      <trkpt lat="47.9075" lon="7.12663">
        <ele>989</ele>
        <time>2023-05-29T08:08:40Z</time>
      </trkpt>
      <trkpt lat="47.9075" lon="7.12676">
        <ele>988</ele>
        <time>2023-05-29T08:08:50Z</time>
      </trkpt>
      <trkpt lat="47.90754" lon="7.1269">
        <ele>986</ele>
        <time>2023-05-29T08:09:00Z</time>
      </trkpt>
      <trkpt lat="47.90758" lon="7.12703">
        <ele>985</ele>
        <time>2023-05-29T08:09:10Z</time>
      </trkpt>
      <trkpt lat="47.90761" lon="7.12716">
        <ele>983</ele>
        <time>2023-05-29T08:09:22Z</time>
      </trkpt>
      <trkpt lat="47.90762" lon="7.1273">
        <ele>981</ele>
        <time>2023-05-29T08:09:40Z</time>
      </trkpt>
      <trkpt lat="47.90767" lon="7.12741">
        <ele>978</ele>
        <time>2023-05-29T08:10:02Z</time>
      </trkpt>
      <trkpt lat="47.90771" lon="7.12753">
        <ele>978</ele>
        <time>2023-05-29T08:10:16Z</time>
      </trkpt>
      <trkpt lat="47.90777" lon="7.12766">
        <ele>977</ele>
        <time>2023-05-29T08:10:30Z</time>
      </trkpt>
      <trkpt lat="47.90782" lon="7.12776">
        <ele>976</ele>
        <time>2023-05-29T08:10:41Z</time>
      </trkpt>
      <trkpt lat="47.90787" lon="7.12789">
        <ele>976</ele>
        <time>2023-05-29T08:10:51Z</time>
      </trkpt>
      <trkpt lat="47.90794" lon="7.12799">
        <ele>975</ele>
        <time>2023-05-29T08:11:01Z</time>
      </trkpt>
      <trkpt lat="47.908" lon="7.12809">
        <ele>975</ele>
        <time>2023-05-29T08:11:10Z</time>
      </trkpt>
      <trkpt lat="47.90806" lon="7.1282">
        <ele>974</ele>
        <time>2023-05-29T08:11:20Z</time>
      </trkpt>
      <trkpt lat="47.9081" lon="7.12821">
        <ele>972</ele>
        <time>2023-05-29T08:27:34Z</time>
      </trkpt>
      <trkpt lat="47.90811" lon="7.12832">
        <ele>972</ele>
        <time>2023-05-29T08:28:29Z</time>
      </trkpt>
      <trkpt lat="47.90815" lon="7.12844">
        <ele>971</ele>
        <time>2023-05-29T08:28:41Z</time>
      </trkpt>
      <trkpt lat="47.90815" lon="7.12858">
        <ele>971</ele>
        <time>2023-05-29T08:28:51Z</time>
      </trkpt>
      <trkpt lat="47.90812" lon="7.12871">
        <ele>971</ele>
        <time>2023-05-29T08:29:03Z</time>
      </trkpt>
      <trkpt lat="47.90808" lon="7.12884">
        <ele>970</ele>
        <time>2023-05-29T08:29:15Z</time>
      </trkpt>
      <trkpt lat="47.90812" lon="7.12892">
        <ele>969</ele>
        <time>2023-05-29T08:29:46Z</time>
      </trkpt>
      <trkpt lat="47.90818" lon="7.12903">
        <ele>969</ele>
        <time>2023-05-29T08:30:01Z</time>
      </trkpt>
      <trkpt lat="47.90821" lon="7.12916">
        <ele>969</ele>
        <time>2023-05-29T08:30:15Z</time>
      </trkpt>
      <trkpt lat="47.90824" lon="7.12929">
        <ele>968</ele>
        <time>2023-05-29T08:30:32Z</time>
      </trkpt>
      <trkpt lat="47.90823" lon="7.12942">
        <ele>967</ele>
        <time>2023-05-29T08:30:41Z</time>
      </trkpt>
      <trkpt lat="47.9082" lon="7.12955">
        <ele>967</ele>
        <time>2023-05-29T08:30:51Z</time>
      </trkpt>
      <trkpt lat="47.90816" lon="7.12968">
        <ele>967</ele>
        <time>2023-05-29T08:31:00Z</time>
      </trkpt>
      <trkpt lat="47.90812" lon="7.12981">
        <ele>966</ele>
        <time>2023-05-29T08:31:10Z</time>
      </trkpt>
      <trkpt lat="47.90808" lon="7.12994">
        <ele>965</ele>
        <time>2023-05-29T08:31:21Z</time>
      </trkpt>
      <trkpt lat="47.90806" lon="7.13007">
        <ele>964</ele>
        <time>2023-05-29T08:31:33Z</time>
      </trkpt>
      <trkpt lat="47.90801" lon="7.13019">
        <ele>963</ele>
        <time>2023-05-29T08:31:43Z</time>
      </trkpt>
      <trkpt lat="47.90798" lon="7.13033">
        <ele>962</ele>
        <time>2023-05-29T08:31:53Z</time>
      </trkpt>
      <trkpt lat="47.90795" lon="7.13046">
        <ele>961</ele>
        <time>2023-05-29T08:32:02Z</time>
      </trkpt>
      <trkpt lat="47.90792" lon="7.1306">
        <ele>959</ele>
        <time>2023-05-29T08:32:12Z</time>
      </trkpt>
      <trkpt lat="47.9079" lon="7.13073">
        <ele>956</ele>
        <time>2023-05-29T08:32:36Z</time>
      </trkpt>
      <trkpt lat="47.90789" lon="7.13088">
        <ele>955</ele>
        <time>2023-05-29T08:32:46Z</time>
      </trkpt>
      <trkpt lat="47.9079" lon="7.13102">
        <ele>954</ele>
        <time>2023-05-29T08:33:12Z</time>
      </trkpt>
      <trkpt lat="47.90789" lon="7.13115">
        <ele>954</ele>
        <time>2023-05-29T08:33:21Z</time>
      </trkpt>
      <trkpt lat="47.90788" lon="7.13129">
        <ele>953</ele>
        <time>2023-05-29T08:33:31Z</time>
      </trkpt>
      <trkpt lat="47.90784" lon="7.13141">
        <ele>952</ele>
        <time>2023-05-29T08:33:50Z</time>
      </trkpt>
      <trkpt lat="47.90784" lon="7.13155">
        <ele>950</ele>
        <time>2023-05-29T08:34:02Z</time>
      </trkpt>
      <trkpt lat="47.90782" lon="7.13169">
        <ele>950</ele>
        <time>2023-05-29T08:34:11Z</time>
      </trkpt>
      <trkpt lat="47.90777" lon="7.13181">
        <ele>949</ele>
        <time>2023-05-29T08:34:18Z</time>
      </trkpt>
      <trkpt lat="47.90773" lon="7.13193">
        <ele>949</ele>
        <time>2023-05-29T08:34:27Z</time>
      </trkpt>
      <trkpt lat="47.90768" lon="7.13205">
        <ele>948</ele>
        <time>2023-05-29T08:34:38Z</time>
      </trkpt>
      <trkpt lat="47.90761" lon="7.13214">
        <ele>948</ele>
        <time>2023-05-29T08:34:49Z</time>
      </trkpt>
      <trkpt lat="47.90754" lon="7.13224">
        <ele>949</ele>
        <time>2023-05-29T08:35:01Z</time>
      </trkpt>
      <trkpt lat="47.9075" lon="7.13236">
        <ele>949</ele>
        <time>2023-05-29T08:35:11Z</time>
      </trkpt>
      <trkpt lat="47.90744" lon="7.13248">
        <ele>950</ele>
        <time>2023-05-29T08:35:23Z</time>
      </trkpt>
      <trkpt lat="47.90739" lon="7.1326">
        <ele>951</ele>
        <time>2023-05-29T08:35:34Z</time>
      </trkpt>
      <trkpt lat="47.90736" lon="7.13273">
        <ele>952</ele>
        <time>2023-05-29T08:35:44Z</time>
      </trkpt>
      <trkpt lat="47.90734" lon="7.13286">
        <ele>953</ele>
        <time>2023-05-29T08:35:54Z</time>
      </trkpt>
      <trkpt lat="47.90732" lon="7.133">
        <ele>954</ele>
        <time>2023-05-29T08:36:04Z</time>
      </trkpt>
      <trkpt lat="47.9073" lon="7.13314">
        <ele>955</ele>
        <time>2023-05-29T08:36:15Z</time>
      </trkpt>
      <trkpt lat="47.90727" lon="7.13327">
        <ele>956</ele>
        <time>2023-05-29T08:36:27Z</time>
      </trkpt>
      <trkpt lat="47.90725" lon="7.1334">
        <ele>957</ele>
        <time>2023-05-29T08:36:37Z</time>
      </trkpt>
      <trkpt lat="47.90721" lon="7.13354">
        <ele>958</ele>
        <time>2023-05-29T08:36:47Z</time>
      </trkpt>
      <trkpt lat="47.90718" lon="7.13367">
        <ele>958</ele>
        <time>2023-05-29T08:36:56Z</time>
      </trkpt>
      <trkpt lat="47.90716" lon="7.13381">
        <ele>958</ele>
        <time>2023-05-29T08:37:07Z</time>
      </trkpt>
      <trkpt lat="47.90714" lon="7.13394">
        <ele>958</ele>
        <time>2023-05-29T08:37:18Z</time>
      </trkpt>
      <trkpt lat="47.90709" lon="7.13407">
        <ele>958</ele>
        <time>2023-05-29T08:37:27Z</time>
      </trkpt>
      <trkpt lat="47.90705" lon="7.1342">
        <ele>957</ele>
        <time>2023-05-29T08:37:37Z</time>
      </trkpt>
      <trkpt lat="47.90703" lon="7.13434">
        <ele>956</ele>
        <time>2023-05-29T08:37:47Z</time>
      </trkpt>
      <trkpt lat="47.907" lon="7.13448">
        <ele>956</ele>
        <time>2023-05-29T08:37:59Z</time>
      </trkpt>
      <trkpt lat="47.90697" lon="7.13461">
        <ele>954</ele>
        <time>2023-05-29T08:38:11Z</time>
      </trkpt>
      <trkpt lat="47.90697" lon="7.13475">
        <ele>950</ele>
        <time>2023-05-29T08:38:31Z</time>
      </trkpt>
      <trkpt lat="47.90695" lon="7.13488">
        <ele>949</ele>
        <time>2023-05-29T08:38:43Z</time>
      </trkpt>
      <trkpt lat="47.90691" lon="7.13501">
        <ele>947</ele>
        <time>2023-05-29T08:38:59Z</time>
      </trkpt>
      <trkpt lat="47.90687" lon="7.13514">
        <ele>944</ele>
        <time>2023-05-29T08:39:19Z</time>
      </trkpt>
      <trkpt lat="47.90682" lon="7.13526">
        <ele>942</ele>
        <time>2023-05-29T08:39:35Z</time>
      </trkpt>
      <trkpt lat="47.90678" lon="7.13538">
        <ele>940</ele>
        <time>2023-05-29T08:39:49Z</time>
      </trkpt>
      <trkpt lat="47.90675" lon="7.13551">
        <ele>938</ele>
        <time>2023-05-29T08:40:03Z</time>
      </trkpt>
      <trkpt lat="47.90672" lon="7.13565">
        <ele>935</ele>
        <time>2023-05-29T08:40:17Z</time>
      </trkpt>
      <trkpt lat="47.90668" lon="7.13577">
        <ele>933</ele>
        <time>2023-05-29T08:40:32Z</time>
      </trkpt>
      <trkpt lat="47.90664" lon="7.1359">
        <ele>931</ele>
        <time>2023-05-29T08:40:43Z</time>
      </trkpt>
      <trkpt lat="47.90663" lon="7.13603">
        <ele>929</ele>
        <time>2023-05-29T08:40:55Z</time>
      </trkpt>
      <trkpt lat="47.90663" lon="7.13617">
        <ele>927</ele>
        <time>2023-05-29T08:41:09Z</time>
      </trkpt>
      <trkpt lat="47.90662" lon="7.13631">
        <ele>924</ele>
        <time>2023-05-29T08:41:21Z</time>
      </trkpt>
      <trkpt lat="47.90661" lon="7.13645">
        <ele>923</ele>
        <time>2023-05-29T08:41:31Z</time>
      </trkpt>
      <trkpt lat="47.90661" lon="7.13658">
        <ele>918</ele>
        <time>2023-05-29T08:42:39Z</time>
      </trkpt>
      <trkpt lat="47.90668" lon="7.13666">
        <ele>918</ele>
        <time>2023-05-29T08:42:52Z</time>
      </trkpt>
      <trkpt lat="47.90675" lon="7.13676">
        <ele>918</ele>
        <time>2023-05-29T08:43:05Z</time>
      </trkpt>
      <trkpt lat="47.90681" lon="7.13686">
        <ele>917</ele>
        <time>2023-05-29T08:43:15Z</time>
      </trkpt>
      <trkpt lat="47.90686" lon="7.13699">
        <ele>916</ele>
        <time>2023-05-29T08:43:27Z</time>
      </trkpt>
      <trkpt lat="47.90692" lon="7.13709">
        <ele>916</ele>
        <time>2023-05-29T08:43:39Z</time>
      </trkpt>
      <trkpt lat="47.90699" lon="7.13718">
        <ele>915</ele>
        <time>2023-05-29T08:43:53Z</time>
      </trkpt>
      <trkpt lat="47.90703" lon="7.1373">
        <ele>914</ele>
        <time>2023-05-29T08:44:03Z</time>
      </trkpt>
      <trkpt lat="47.90706" lon="7.13743">
        <ele>913</ele>
        <time>2023-05-29T08:44:12Z</time>
      </trkpt>
      <trkpt lat="47.90708" lon="7.13757">
        <ele>913</ele>
        <time>2023-05-29T08:44:21Z</time>
      </trkpt>
      <trkpt lat="47.9071" lon="7.13771">
        <ele>913</ele>
        <time>2023-05-29T08:44:30Z</time>
      </trkpt>
      <trkpt lat="47.90713" lon="7.13785">
        <ele>912</ele>
        <time>2023-05-29T08:44:40Z</time>
      </trkpt>
      <trkpt lat="47.90715" lon="7.13798">
        <ele>912</ele>
        <time>2023-05-29T08:44:49Z</time>
      </trkpt>
      <trkpt lat="47.90717" lon="7.13812">
        <ele>911</ele>
        <time>2023-05-29T08:44:59Z</time>
      </trkpt>
      <trkpt lat="47.90716" lon="7.13826">
        <ele>911</ele>
        <time>2023-05-29T08:45:10Z</time>
      </trkpt>
      <trkpt lat="47.90714" lon="7.1384">
        <ele>910</ele>
        <time>2023-05-29T08:45:19Z</time>
      </trkpt>
      <trkpt lat="47.90714" lon="7.13854">
        <ele>909</ele>
        <time>2023-05-29T08:45:28Z</time>
      </trkpt>
      <trkpt lat="47.90715" lon="7.13868">
        <ele>909</ele>
        <time>2023-05-29T08:45:38Z</time>
      </trkpt>
      <trkpt lat="47.90717" lon="7.13881">
        <ele>908</ele>
        <time>2023-05-29T08:45:48Z</time>
      </trkpt>
      <trkpt lat="47.90722" lon="7.13892">
        <ele>908</ele>
        <time>2023-05-29T08:45:59Z</time>
      </trkpt>
      <trkpt lat="47.90725" lon="7.13907">
        <ele>907</ele>
        <time>2023-05-29T08:46:08Z</time>
      </trkpt>
      <trkpt lat="47.90728" lon="7.13921">
        <ele>906</ele>
        <time>2023-05-29T08:46:18Z</time>
      </trkpt>
      <trkpt lat="47.9073" lon="7.13934">
        <ele>906</ele>
        <time>2023-05-29T08:46:26Z</time>
      </trkpt>
      <trkpt lat="47.9073" lon="7.13948">
        <ele>905</ele>
        <time>2023-05-29T08:46:37Z</time>
      </trkpt>
      <trkpt lat="47.9073" lon="7.13962">
        <ele>906</ele>
        <time>2023-05-29T08:46:49Z</time>
      </trkpt>
      <trkpt lat="47.90731" lon="7.13976">
        <ele>906</ele>
        <time>2023-05-29T08:46:59Z</time>
      </trkpt>
      <trkpt lat="47.90734" lon="7.1399">
        <ele>907</ele>
        <time>2023-05-29T08:47:09Z</time>
      </trkpt>
      <trkpt lat="47.90736" lon="7.14004">
        <ele>908</ele>
        <time>2023-05-29T08:47:18Z</time>
      </trkpt>
      <trkpt lat="47.90737" lon="7.14017">
        <ele>908</ele>
        <time>2023-05-29T08:47:26Z</time>
      </trkpt>
      <trkpt lat="47.9074" lon="7.14031">
        <ele>909</ele>
        <time>2023-05-29T08:47:37Z</time>
      </trkpt>
      <trkpt lat="47.90741" lon="7.14044">
        <ele>909</ele>
        <time>2023-05-29T08:47:48Z</time>
      </trkpt>
      <trkpt lat="47.90747" lon="7.14056">
        <ele>909</ele>
        <time>2023-05-29T08:48:00Z</time>
      </trkpt>
      <trkpt lat="47.90755" lon="7.14055">
        <ele>908</ele>
        <time>2023-05-29T08:48:12Z</time>
      </trkpt>
      <trkpt lat="47.90764" lon="7.14057">
        <ele>908</ele>
        <time>2023-05-29T08:48:23Z</time>
      </trkpt>
      <trkpt lat="47.90772" lon="7.14062">
        <ele>908</ele>
        <time>2023-05-29T08:48:32Z</time>
      </trkpt>
      <trkpt lat="47.90781" lon="7.14065">
        <ele>907</ele>
        <time>2023-05-29T08:48:42Z</time>
      </trkpt>
      <trkpt lat="47.90791" lon="7.14068">
        <ele>908</ele>
        <time>2023-05-29T08:48:53Z</time>
      </trkpt>
      <trkpt lat="47.908" lon="7.1407">
        <ele>908</ele>
        <time>2023-05-29T08:49:04Z</time>
      </trkpt>
      <trkpt lat="47.90808" lon="7.14076">
        <ele>908</ele>
        <time>2023-05-29T08:49:15Z</time>
      </trkpt>
      <trkpt lat="47.90816" lon="7.14083">
        <ele>907</ele>
        <time>2023-05-29T08:49:27Z</time>
      </trkpt>
      <trkpt lat="47.90825" lon="7.14089">
        <ele>906</ele>
        <time>2023-05-29T08:49:38Z</time>
      </trkpt>
      <trkpt lat="47.90832" lon="7.14097">
        <ele>906</ele>
        <time>2023-05-29T08:49:47Z</time>
      </trkpt>
      <trkpt lat="47.90841" lon="7.14102">
        <ele>905</ele>
        <time>2023-05-29T08:49:56Z</time>
      </trkpt>
      <trkpt lat="47.90849" lon="7.14109">
        <ele>904</ele>
        <time>2023-05-29T08:50:07Z</time>
      </trkpt>
      <trkpt lat="47.90857" lon="7.14118">
        <ele>901</ele>
        <time>2023-05-29T08:50:22Z</time>
      </trkpt>
      <trkpt lat="47.90863" lon="7.14127">
        <ele>898</ele>
        <time>2023-05-29T08:51:04Z</time>
      </trkpt>
      <trkpt lat="47.90872" lon="7.1413">
        <ele>897</ele>
        <time>2023-05-29T08:51:19Z</time>
      </trkpt>
      <trkpt lat="47.90881" lon="7.14134">
        <ele>897</ele>
        <time>2023-05-29T08:51:29Z</time>
      </trkpt>
      <trkpt lat="47.9089" lon="7.14141">
        <ele>896</ele>
        <time>2023-05-29T08:51:39Z</time>
      </trkpt>
      <trkpt lat="47.90895" lon="7.14153">
        <ele>894</ele>
        <time>2023-05-29T08:52:20Z</time>
      </trkpt>
      <trkpt lat="47.90902" lon="7.14163">
        <ele>893</ele>
        <time>2023-05-29T08:52:31Z</time>
      </trkpt>
      <trkpt lat="47.90909" lon="7.14171">
        <ele>892</ele>
        <time>2023-05-29T08:52:44Z</time>
      </trkpt>
      <trkpt lat="47.90918" lon="7.14179">
        <ele>891</ele>
        <time>2023-05-29T08:52:55Z</time>
      </trkpt>
      <trkpt lat="47.90926" lon="7.14186">
        <ele>890</ele>
        <time>2023-05-29T08:53:04Z</time>
      </trkpt>
      <trkpt lat="47.90932" lon="7.14197">
        <ele>889</ele>
        <time>2023-05-29T08:53:14Z</time>
      </trkpt>
      <trkpt lat="47.90941" lon="7.14203">
        <ele>889</ele>
        <time>2023-05-29T08:53:25Z</time>
      </trkpt>
      <trkpt lat="47.9095" lon="7.14202">
        <ele>888</ele>
        <time>2023-05-29T08:53:35Z</time>
      </trkpt>
      <trkpt lat="47.9096" lon="7.14205">
        <ele>889</ele>
        <time>2023-05-29T08:53:45Z</time>
      </trkpt>
      <trkpt lat="47.90969" lon="7.14211">
        <ele>889</ele>
        <time>2023-05-29T08:53:55Z</time>
      </trkpt>
      <trkpt lat="47.90975" lon="7.14223">
        <ele>889</ele>
        <time>2023-05-29T08:54:05Z</time>
      </trkpt>
      <trkpt lat="47.90981" lon="7.14233">
        <ele>889</ele>
        <time>2023-05-29T08:54:17Z</time>
      </trkpt>
      <trkpt lat="47.90989" lon="7.14242">
        <ele>890</ele>
        <time>2023-05-29T08:54:29Z</time>
      </trkpt>
      <trkpt lat="47.90997" lon="7.14248">
        <ele>891</ele>
        <time>2023-05-29T08:54:39Z</time>
      </trkpt>
      <trkpt lat="47.91006" lon="7.14253">
        <ele>892</ele>
        <time>2023-05-29T08:54:51Z</time>
      </trkpt>
      <trkpt lat="47.91013" lon="7.14263">
        <ele>892</ele>
        <time>2023-05-29T08:55:01Z</time>
      </trkpt>
      <trkpt lat="47.91019" lon="7.14274">
        <ele>892</ele>
        <time>2023-05-29T08:55:09Z</time>
      </trkpt>
      <trkpt lat="47.91026" lon="7.14285">
        <ele>891</ele>
        <time>2023-05-29T08:55:18Z</time>
      </trkpt>
      <trkpt lat="47.91033" lon="7.14295">
        <ele>890</ele>
        <time>2023-05-29T08:55:28Z</time>
      </trkpt>
      <trkpt lat="47.9104" lon="7.14305">
        <ele>890</ele>
        <time>2023-05-29T08:55:38Z</time>
      </trkpt>
      <trkpt lat="47.91048" lon="7.14312">
        <ele>890</ele>
        <time>2023-05-29T08:55:49Z</time>
      </trkpt>
      <trkpt lat="47.91057" lon="7.14315">
        <ele>890</ele>
        <time>2023-05-29T08:56:01Z</time>
      </trkpt>
      <trkpt lat="47.91066" lon="7.1432">
        <ele>891</ele>
        <time>2023-05-29T08:56:14Z</time>
      </trkpt>
      <trkpt lat="47.91075" lon="7.14324">
        <ele>893</ele>
        <time>2023-05-29T08:56:30Z</time>
      </trkpt>
      <trkpt lat="47.91083" lon="7.1433">
        <ele>894</ele>
        <time>2023-05-29T08:56:44Z</time>
      </trkpt>
      <trkpt lat="47.91092" lon="7.1433">
        <ele>896</ele>
        <time>2023-05-29T08:57:03Z</time>
      </trkpt>
      <trkpt lat="47.91102" lon="7.1433">
        <ele>898</ele>
        <time>2023-05-29T08:57:15Z</time>
      </trkpt>
      <trkpt lat="47.91111" lon="7.14334">
        <ele>901</ele>
        <time>2023-05-29T08:59:07Z</time>
      </trkpt>
      <trkpt lat="47.91119" lon="7.1434">
        <ele>901</ele>
        <time>2023-05-29T08:59:35Z</time>
      </trkpt>
      <trkpt lat="47.91129" lon="7.14341">
        <ele>900</ele>
        <time>2023-05-29T08:59:47Z</time>
      </trkpt>
      <trkpt lat="47.91138" lon="7.14341">
        <ele>900</ele>
        <time>2023-05-29T08:59:59Z</time>
      </trkpt>
      <trkpt lat="47.91147" lon="7.14343">
        <ele>900</ele>
        <time>2023-05-29T09:00:10Z</time>
      </trkpt>
      <trkpt lat="47.91144" lon="7.14345">
        <ele>900</ele>
        <time>2023-05-29T09:02:31Z</time>
      </trkpt>
      <trkpt lat="47.91145" lon="7.14346">
        <ele>900</ele>
        <time>2023-05-29T09:02:51Z</time>
      </trkpt>
      <trkpt lat="47.91149" lon="7.14348">
        <ele>900</ele>
        <time>2023-05-29T09:03:25Z</time>
      </trkpt>
      <trkpt lat="47.91147" lon="7.14346">
        <ele>900</ele>
        <time>2023-05-29T09:04:12Z</time>
      </trkpt>
      <trkpt lat="47.9114" lon="7.14349">
        <ele>901</ele>
        <time>2023-05-29T09:05:51Z</time>
      </trkpt>
      <trkpt lat="47.91131" lon="7.1435">
        <ele>899</ele>
        <time>2023-05-29T09:06:34Z</time>
      </trkpt>
      <trkpt lat="47.91125" lon="7.14359">
        <ele>898</ele>
        <time>2023-05-29T09:06:45Z</time>
      </trkpt>
      <trkpt lat="47.91115" lon="7.14359">
        <ele>897</ele>
        <time>2023-05-29T09:06:57Z</time>
      </trkpt>
      <trkpt lat="47.91106" lon="7.1436">
        <ele>896</ele>
        <time>2023-05-29T09:07:07Z</time>
      </trkpt>
      <trkpt lat="47.91097" lon="7.14363">
        <ele>895</ele>
        <time>2023-05-29T09:07:20Z</time>
      </trkpt>
      <trkpt lat="47.91088" lon="7.14367">
        <ele>893</ele>
        <time>2023-05-29T09:07:33Z</time>
      </trkpt>
      <trkpt lat="47.91079" lon="7.1437">
        <ele>892</ele>
        <time>2023-05-29T09:07:42Z</time>
      </trkpt>
      <trkpt lat="47.91073" lon="7.14371">
        <ele>890</ele>
        <time>2023-05-29T09:08:00Z</time>
      </trkpt>
      <trkpt lat="47.91078" lon="7.14381">
        <ele>888</ele>
        <time>2023-05-29T09:08:20Z</time>
      </trkpt>
      <trkpt lat="47.91078" lon="7.14395">
        <ele>885</ele>
        <time>2023-05-29T09:08:36Z</time>
      </trkpt>
      <trkpt lat="47.91074" lon="7.14407">
        <ele>883</ele>
        <time>2023-05-29T09:08:47Z</time>
      </trkpt>
      <trkpt lat="47.91072" lon="7.14421">
        <ele>882</ele>
        <time>2023-05-29T09:08:58Z</time>
      </trkpt>
      <trkpt lat="47.91074" lon="7.14435">
        <ele>880</ele>
        <time>2023-05-29T09:09:09Z</time>
      </trkpt>
      <trkpt lat="47.91076" lon="7.14449">
        <ele>879</ele>
        <time>2023-05-29T09:09:19Z</time>
      </trkpt>
      <trkpt lat="47.91077" lon="7.14462">
        <ele>876</ele>
        <time>2023-05-29T09:09:31Z</time>
      </trkpt>
      <trkpt lat="47.91079" lon="7.14476">
        <ele>875</ele>
        <time>2023-05-29T09:09:41Z</time>
      </trkpt>
      <trkpt lat="47.9108" lon="7.14489">
        <ele>874</ele>
        <time>2023-05-29T09:09:53Z</time>
      </trkpt>
      <trkpt lat="47.91081" lon="7.14503">
        <ele>871</ele>
        <time>2023-05-29T09:10:06Z</time>
      </trkpt>
      <trkpt lat="47.91083" lon="7.14516">
        <ele>870</ele>
        <time>2023-05-29T09:10:19Z</time>
      </trkpt>
      <trkpt lat="47.91088" lon="7.14528">
        <ele>867</ele>
        <time>2023-05-29T09:10:32Z</time>
      </trkpt>
      <trkpt lat="47.9109" lon="7.14541">
        <ele>866</ele>
        <time>2023-05-29T09:10:42Z</time>
      </trkpt>
      <trkpt lat="47.91089" lon="7.14555">
        <ele>865</ele>
        <time>2023-05-29T09:10:51Z</time>
      </trkpt>
      <trkpt lat="47.9109" lon="7.14569">
        <ele>864</ele>
        <time>2023-05-29T09:11:02Z</time>
      </trkpt>
      <trkpt lat="47.91093" lon="7.14582">
        <ele>863</ele>
        <time>2023-05-29T09:11:11Z</time>
      </trkpt>
      <trkpt lat="47.91094" lon="7.14596">
        <ele>862</ele>
        <time>2023-05-29T09:11:21Z</time>
      </trkpt>
      <trkpt lat="47.91097" lon="7.14609">
        <ele>860</ele>
        <time>2023-05-29T09:11:33Z</time>
      </trkpt>
      <trkpt lat="47.91096" lon="7.14623">
        <ele>859</ele>
        <time>2023-05-29T09:11:41Z</time>
      </trkpt>
      <trkpt lat="47.91095" lon="7.14637">
        <ele>858</ele>
        <time>2023-05-29T09:11:53Z</time>
      </trkpt>
      <trkpt lat="47.91093" lon="7.1465">
        <ele>857</ele>
        <time>2023-05-29T09:12:03Z</time>
      </trkpt>
      <trkpt lat="47.91091" lon="7.14664">
        <ele>855</ele>
        <time>2023-05-29T09:12:13Z</time>
      </trkpt>
      <trkpt lat="47.91091" lon="7.14678">
        <ele>854</ele>
        <time>2023-05-29T09:12:23Z</time>
      </trkpt>
      <trkpt lat="47.91091" lon="7.14692">
        <ele>854</ele>
        <time>2023-05-29T09:12:32Z</time>
      </trkpt>
      <trkpt lat="47.9109" lon="7.14706">
        <ele>853</ele>
        <time>2023-05-29T09:12:41Z</time>
      </trkpt>
      <trkpt lat="47.91089" lon="7.14719">
        <ele>853</ele>
        <time>2023-05-29T09:12:49Z</time>
      </trkpt>
      <trkpt lat="47.91087" lon="7.14732">
        <ele>853</ele>
        <time>2023-05-29T09:13:00Z</time>
      </trkpt>
      <trkpt lat="47.91082" lon="7.14745">
        <ele>853</ele>
        <time>2023-05-29T09:13:32Z</time>
      </trkpt>
      <trkpt lat="47.91074" lon="7.14751">
        <ele>853</ele>
        <time>2023-05-29T09:13:48Z</time>
      </trkpt>
      <trkpt lat="47.91067" lon="7.14759">
        <ele>854</ele>
        <time>2023-05-29T09:14:08Z</time>
      </trkpt>
      <trkpt lat="47.9106" lon="7.14767">
        <ele>854</ele>
        <time>2023-05-29T09:14:19Z</time>
      </trkpt>
      <trkpt lat="47.91053" lon="7.14778">
        <ele>854</ele>
        <time>2023-05-29T09:14:29Z</time>
      </trkpt>
      <trkpt lat="47.91046" lon="7.14787">
        <ele>854</ele>
        <time>2023-05-29T09:14:40Z</time>
      </trkpt>
      <trkpt lat="47.91041" lon="7.14798">
        <ele>853</ele>
        <time>2023-05-29T09:14:51Z</time>
      </trkpt>
      <trkpt lat="47.91036" lon="7.14811">
        <ele>853</ele>
        <time>2023-05-29T09:15:02Z</time>
      </trkpt>
      <trkpt lat="47.91033" lon="7.14824">
        <ele>852</ele>
        <time>2023-05-29T09:15:11Z</time>
      </trkpt>
      <trkpt lat="47.91029" lon="7.14836">
        <ele>852</ele>
        <time>2023-05-29T09:15:20Z</time>
      </trkpt>
      <trkpt lat="47.91025" lon="7.14848">
        <ele>852</ele>
        <time>2023-05-29T09:15:29Z</time>
      </trkpt>
      <trkpt lat="47.9102" lon="7.14861">
        <ele>851</ele>
        <time>2023-05-29T09:15:39Z</time>
      </trkpt>
      <trkpt lat="47.91015" lon="7.14873">
        <ele>851</ele>
        <time>2023-05-29T09:15:48Z</time>
      </trkpt>
      <trkpt lat="47.9101" lon="7.14885">
        <ele>851</ele>
        <time>2023-05-29T09:15:59Z</time>
      </trkpt>
      <trkpt lat="47.91005" lon="7.14897">
        <ele>851</ele>
        <time>2023-05-29T09:16:09Z</time>
      </trkpt>
      <trkpt lat="47.91" lon="7.14907">
        <ele>851</ele>
        <time>2023-05-29T09:16:19Z</time>
      </trkpt>
      <trkpt lat="47.90995" lon="7.14918">
        <ele>851</ele>
        <time>2023-05-29T09:16:30Z</time>
      </trkpt>
      <trkpt lat="47.90991" lon="7.14931">
        <ele>851</ele>
        <time>2023-05-29T09:16:44Z</time>
      </trkpt>
      <trkpt lat="47.90985" lon="7.14942">
        <ele>852</ele>
        <time>2023-05-29T09:16:59Z</time>
      </trkpt>
      <trkpt lat="47.90979" lon="7.14952">
        <ele>854</ele>
        <time>2023-05-29T09:17:17Z</time>
      </trkpt>
      <trkpt lat="47.90975" lon="7.14958">
        <ele>857</ele>
        <time>2023-05-29T09:21:13Z</time>
      </trkpt>
      <trkpt lat="47.90979" lon="7.14947">
        <ele>857</ele>
        <time>2023-05-29T09:21:37Z</time>
      </trkpt>
      <trkpt lat="47.90984" lon="7.14938">
        <ele>856</ele>
        <time>2023-05-29T09:23:22Z</time>
      </trkpt>
      <trkpt lat="47.90989" lon="7.14926">
        <ele>855</ele>
        <time>2023-05-29T09:23:35Z</time>
      </trkpt>
      <trkpt lat="47.90994" lon="7.14913">
        <ele>854</ele>
        <time>2023-05-29T09:23:46Z</time>
      </trkpt>
      <trkpt lat="47.90999" lon="7.14903">
        <ele>854</ele>
        <time>2023-05-29T09:23:55Z</time>
      </trkpt>
      <trkpt lat="47.91005" lon="7.14892">
        <ele>853</ele>
        <time>2023-05-29T09:24:04Z</time>
      </trkpt>
      <trkpt lat="47.91011" lon="7.14881">
        <ele>852</ele>
        <time>2023-05-29T09:24:13Z</time>
      </trkpt>
      <trkpt lat="47.91015" lon="7.1487">
        <ele>851</ele>
        <time>2023-05-29T09:24:22Z</time>
      </trkpt>
      <trkpt lat="47.91019" lon="7.14858">
        <ele>851</ele>
        <time>2023-05-29T09:24:31Z</time>
      </trkpt>
      <trkpt lat="47.91023" lon="7.14845">
        <ele>851</ele>
        <time>2023-05-29T09:24:40Z</time>
      </trkpt>
      <trkpt lat="47.91028" lon="7.14833">
        <ele>850</ele>
        <time>2023-05-29T09:24:50Z</time>
      </trkpt>
      <trkpt lat="47.91032" lon="7.1482">
        <ele>850</ele>
        <time>2023-05-29T09:25:02Z</time>
      </trkpt>
      <trkpt lat="47.91035" lon="7.14807">
        <ele>850</ele>
        <time>2023-05-29T09:25:12Z</time>
      </trkpt>
      <trkpt lat="47.9104" lon="7.14795">
        <ele>851</ele>
        <time>2023-05-29T09:25:23Z</time>
      </trkpt>
      <trkpt lat="47.91046" lon="7.14784">
        <ele>851</ele>
        <time>2023-05-29T09:25:37Z</time>
      </trkpt>
      <trkpt lat="47.91052" lon="7.14775">
        <ele>851</ele>
        <time>2023-05-29T09:25:48Z</time>
      </trkpt>
      <trkpt lat="47.91058" lon="7.14765">
        <ele>852</ele>
        <time>2023-05-29T09:25:59Z</time>
      </trkpt>
      <trkpt lat="47.91066" lon="7.14756">
        <ele>853</ele>
        <time>2023-05-29T09:26:25Z</time>
      </trkpt>
      <trkpt lat="47.91072" lon="7.14747">
        <ele>854</ele>
        <time>2023-05-29T09:26:35Z</time>
      </trkpt>
      <trkpt lat="47.9108" lon="7.14741">
        <ele>854</ele>
        <time>2023-05-29T09:26:54Z</time>
      </trkpt>
      <trkpt lat="47.91086" lon="7.14751">
        <ele>853</ele>
        <time>2023-05-29T09:27:05Z</time>
      </trkpt>
      <trkpt lat="47.9109" lon="7.14763">
        <ele>853</ele>
        <time>2023-05-29T09:27:15Z</time>
      </trkpt>
      <trkpt lat="47.91098" lon="7.14771">
        <ele>852</ele>
        <time>2023-05-29T09:27:28Z</time>
      </trkpt>
      <trkpt lat="47.91102" lon="7.14785">
        <ele>851</ele>
        <time>2023-05-29T09:27:37Z</time>
      </trkpt>
      <trkpt lat="47.91105" lon="7.14797">
        <ele>851</ele>
        <time>2023-05-29T09:27:45Z</time>
      </trkpt>
      <trkpt lat="47.91108" lon="7.14812">
        <ele>850</ele>
        <time>2023-05-29T09:27:54Z</time>
      </trkpt>
      <trkpt lat="47.9111" lon="7.14825">
        <ele>850</ele>
        <time>2023-05-29T09:28:03Z</time>
      </trkpt>
      <trkpt lat="47.91114" lon="7.14839">
        <ele>849</ele>
        <time>2023-05-29T09:28:12Z</time>
      </trkpt>
      <trkpt lat="47.91118" lon="7.14851">
        <ele>849</ele>
        <time>2023-05-29T09:28:22Z</time>
      </trkpt>
      <trkpt lat="47.91121" lon="7.14864">
        <ele>848</ele>
        <time>2023-05-29T09:28:32Z</time>
      </trkpt>
      <trkpt lat="47.91125" lon="7.14876">
        <ele>848</ele>
        <time>2023-05-29T09:28:42Z</time>
      </trkpt>
      <trkpt lat="47.91133" lon="7.14879">
        <ele>846</ele>
        <time>2023-05-29T09:29:01Z</time>
      </trkpt>
      <trkpt lat="47.9114" lon="7.14889">
        <ele>844</ele>
        <time>2023-05-29T09:29:16Z</time>
      </trkpt>
      <trkpt lat="47.91144" lon="7.14901">
        <ele>842</ele>
        <time>2023-05-29T09:29:29Z</time>
      </trkpt>
      <trkpt lat="47.91148" lon="7.14913">
        <ele>839</ele>
        <time>2023-05-29T09:29:43Z</time>
      </trkpt>
      <trkpt lat="47.91155" lon="7.14915">
        <ele>835</ele>
        <time>2023-05-29T09:30:04Z</time>
      </trkpt>
      <trkpt lat="47.91158" lon="7.14901">
        <ele>833</ele>
        <time>2023-05-29T09:30:15Z</time>
      </trkpt>
      <trkpt lat="47.9116" lon="7.14888">
        <ele>832</ele>
        <time>2023-05-29T09:30:25Z</time>
      </trkpt>
      <trkpt lat="47.9116" lon="7.14874">
        <ele>830</ele>
        <time>2023-05-29T09:30:35Z</time>
      </trkpt>
      <trkpt lat="47.91158" lon="7.14861">
        <ele>829</ele>
        <time>2023-05-29T09:30:45Z</time>
      </trkpt>
      <trkpt lat="47.91159" lon="7.14848">
        <ele>826</ele>
        <time>2023-05-29T09:30:58Z</time>
      </trkpt>
      <trkpt lat="47.91167" lon="7.14852">
        <ele>824</ele>
        <time>2023-05-29T09:31:11Z</time>
      </trkpt>
      <trkpt lat="47.91172" lon="7.14864">
        <ele>823</ele>
        <time>2023-05-29T09:31:21Z</time>
      </trkpt>
      <trkpt lat="47.91176" lon="7.14876">
        <ele>822</ele>
        <time>2023-05-29T09:31:29Z</time>
      </trkpt>
      <trkpt lat="47.91179" lon="7.14889">
        <ele>821</ele>
        <time>2023-05-29T09:31:39Z</time>
      </trkpt>
      <trkpt lat="47.91182" lon="7.14903">
        <ele>819</ele>
        <time>2023-05-29T09:31:49Z</time>
      </trkpt>
      <trkpt lat="47.91185" lon="7.14916">
        <ele>818</ele>
        <time>2023-05-29T09:31:58Z</time>
      </trkpt>
      <trkpt lat="47.91189" lon="7.14928">
        <ele>817</ele>
        <time>2023-05-29T09:32:10Z</time>
      </trkpt>
      <trkpt lat="47.91192" lon="7.14942">
        <ele>815</ele>
        <time>2023-05-29T09:32:20Z</time>
      </trkpt>
      <trkpt lat="47.91197" lon="7.14954">
        <ele>813</ele>
        <time>2023-05-29T09:32:31Z</time>
      </trkpt>
      <trkpt lat="47.91202" lon="7.14966">
        <ele>812</ele>
        <time>2023-05-29T09:32:40Z</time>
      </trkpt>
      <trkpt lat="47.91207" lon="7.14979">
        <ele>811</ele>
        <time>2023-05-29T09:32:49Z</time>
      </trkpt>
      <trkpt lat="47.91212" lon="7.14992">
        <ele>810</ele>
        <time>2023-05-29T09:32:58Z</time>
      </trkpt>
      <trkpt lat="47.91216" lon="7.15005">
        <ele>809</ele>
        <time>2023-05-29T09:33:08Z</time>
      </trkpt>
      <trkpt lat="47.9122" lon="7.15012">
        <ele>804</ele>
        <time>2023-05-29T09:33:49Z</time>
      </trkpt>
      <trkpt lat="47.91224" lon="7.15">
        <ele>803</ele>
        <time>2023-05-29T09:34:00Z</time>
      </trkpt>
      <trkpt lat="47.91222" lon="7.14987">
        <ele>802</ele>
        <time>2023-05-29T09:34:12Z</time>
      </trkpt>
      <trkpt lat="47.91221" lon="7.14973">
        <ele>801</ele>
        <time>2023-05-29T09:34:23Z</time>
      </trkpt>
      <trkpt lat="47.91218" lon="7.14959">
        <ele>800</ele>
        <time>2023-05-29T09:34:34Z</time>
      </trkpt>
      <trkpt lat="47.91217" lon="7.14945">
        <ele>799</ele>
        <time>2023-05-29T09:34:43Z</time>
      </trkpt>
      <trkpt lat="47.91215" lon="7.14931">
        <ele>797</ele>
        <time>2023-05-29T09:34:52Z</time>
      </trkpt>
      <trkpt lat="47.91211" lon="7.14918">
        <ele>796</ele>
        <time>2023-05-29T09:35:03Z</time>
      </trkpt>
      <trkpt lat="47.91213" lon="7.14905">
        <ele>795</ele>
        <time>2023-05-29T09:35:14Z</time>
      </trkpt>
      <trkpt lat="47.91219" lon="7.14896">
        <ele>793</ele>
        <time>2023-05-29T09:35:28Z</time>
      </trkpt>
      <trkpt lat="47.91225" lon="7.14905">
        <ele>791</ele>
        <time>2023-05-29T09:35:41Z</time>
      </trkpt>
      <trkpt lat="47.91232" lon="7.14915">
        <ele>789</ele>
        <time>2023-05-29T09:35:53Z</time>
      </trkpt>
      <trkpt lat="47.91237" lon="7.14927">
        <ele>788</ele>
        <time>2023-05-29T09:36:05Z</time>
      </trkpt>
      <trkpt lat="47.91243" lon="7.14939">
        <ele>787</ele>
        <time>2023-05-29T09:36:14Z</time>
      </trkpt>
      <trkpt lat="47.91248" lon="7.1495">
        <ele>785</ele>
        <time>2023-05-29T09:36:22Z</time>
      </trkpt>
      <trkpt lat="47.91254" lon="7.14962">
        <ele>784</ele>
        <time>2023-05-29T09:36:31Z</time>
      </trkpt>
      <trkpt lat="47.91258" lon="7.14974">
        <ele>783</ele>
        <time>2023-05-29T09:36:40Z</time>
      </trkpt>
      <trkpt lat="47.91263" lon="7.14985">
        <ele>782</ele>
        <time>2023-05-29T09:36:49Z</time>
      </trkpt>
      <trkpt lat="47.91268" lon="7.14997">
        <ele>781</ele>
        <time>2023-05-29T09:36:58Z</time>
      </trkpt>
      <trkpt lat="47.91275" lon="7.15007">
        <ele>779</ele>
        <time>2023-05-29T09:37:09Z</time>
      </trkpt>
      <trkpt lat="47.9128" lon="7.15018">
        <ele>778</ele>
        <time>2023-05-29T09:37:19Z</time>
      </trkpt>
      <trkpt lat="47.91286" lon="7.1503">
        <ele>776</ele>
        <time>2023-05-29T09:37:29Z</time>
      </trkpt>
      <trkpt lat="47.91292" lon="7.15039">
        <ele>775</ele>
        <time>2023-05-29T09:37:38Z</time>
      </trkpt>
      <trkpt lat="47.91299" lon="7.15048">
        <ele>773</ele>
        <time>2023-05-29T09:37:46Z</time>
      </trkpt>
      <trkpt lat="47.91307" lon="7.15058">
        <ele>773</ele>
        <time>2023-05-29T09:37:55Z</time>
      </trkpt>
      <trkpt lat="47.91313" lon="7.15066">
        <ele>771</ele>
        <time>2023-05-29T09:38:05Z</time>
      </trkpt>
      <trkpt lat="47.91321" lon="7.15075">
        <ele>770</ele>
        <time>2023-05-29T09:38:15Z</time>
      </trkpt>
      <trkpt lat="47.91328" lon="7.15084">
        <ele>769</ele>
        <time>2023-05-29T09:38:25Z</time>
      </trkpt>
      <trkpt lat="47.91336" lon="7.15093">
        <ele>768</ele>
        <time>2023-05-29T09:38:34Z</time>
      </trkpt>
      <trkpt lat="47.91342" lon="7.15104">
        <ele>766</ele>
        <time>2023-05-29T09:38:43Z</time>
      </trkpt>
      <trkpt lat="47.91347" lon="7.15117">
        <ele>765</ele>
        <time>2023-05-29T09:38:52Z</time>
      </trkpt>
      <trkpt lat="47.91353" lon="7.15127">
        <ele>764</ele>
        <time>2023-05-29T09:39:01Z</time>
      </trkpt>
      <trkpt lat="47.91362" lon="7.15131">
        <ele>762</ele>
        <time>2023-05-29T09:39:12Z</time>
      </trkpt>
      <trkpt lat="47.91372" lon="7.15135">
        <ele>759</ele>
        <time>2023-05-29T09:39:55Z</time>
      </trkpt>
      <trkpt lat="47.9138" lon="7.15142">
        <ele>759</ele>
        <time>2023-05-29T09:40:05Z</time>
      </trkpt>
      <trkpt lat="47.91388" lon="7.15147">
        <ele>758</ele>
        <time>2023-05-29T09:40:16Z</time>
      </trkpt>
      <trkpt lat="47.91397" lon="7.15153">
        <ele>757</ele>
        <time>2023-05-29T09:40:27Z</time>
      </trkpt>
      <trkpt lat="47.91406" lon="7.1516">
        <ele>756</ele>
        <time>2023-05-29T09:40:39Z</time>
      </trkpt>
      <trkpt lat="47.91412" lon="7.1517">
        <ele>754</ele>
        <time>2023-05-29T09:40:56Z</time>
      </trkpt>
      <trkpt lat="47.91421" lon="7.15172">
        <ele>753</ele>
        <time>2023-05-29T09:41:10Z</time>
      </trkpt>
      <trkpt lat="47.9143" lon="7.15178">
        <ele>752</ele>
        <time>2023-05-29T09:41:22Z</time>
      </trkpt>
      <trkpt lat="47.91437" lon="7.15186">
        <ele>750</ele>
        <time>2023-05-29T09:41:33Z</time>
      </trkpt>
      <trkpt lat="47.91443" lon="7.15197">
        <ele>748</ele>
        <time>2023-05-29T09:41:46Z</time>
      </trkpt>
      <trkpt lat="47.91451" lon="7.15205">
        <ele>747</ele>
        <time>2023-05-29T09:41:58Z</time>
      </trkpt>
      <trkpt lat="47.91459" lon="7.15209">
        <ele>745</ele>
        <time>2023-05-29T09:42:07Z</time>
      </trkpt>
      <trkpt lat="47.91468" lon="7.15213">
        <ele>744</ele>
        <time>2023-05-29T09:42:17Z</time>
      </trkpt>
      <trkpt lat="47.91477" lon="7.15218">
        <ele>742</ele>
        <time>2023-05-29T09:42:28Z</time>
      </trkpt>
      <trkpt lat="47.91484" lon="7.15226">
        <ele>740</ele>
        <time>2023-05-29T09:42:41Z</time>
      </trkpt>
      <trkpt lat="47.91493" lon="7.1523">
        <ele>738</ele>
        <time>2023-05-29T09:42:54Z</time>
      </trkpt>
      <trkpt lat="47.91502" lon="7.15236">
        <ele>736</ele>
        <time>2023-05-29T09:43:04Z</time>
      </trkpt>
      <trkpt lat="47.91509" lon="7.15244">
        <ele>735</ele>
        <time>2023-05-29T09:43:14Z</time>
      </trkpt>
      <trkpt lat="47.91516" lon="7.15254">
        <ele>733</ele>
        <time>2023-05-29T09:43:24Z</time>
      </trkpt>
      <trkpt lat="47.91522" lon="7.15264">
        <ele>731</ele>
        <time>2023-05-29T09:43:34Z</time>
      </trkpt>
      <trkpt lat="47.91529" lon="7.15274">
        <ele>730</ele>
        <time>2023-05-29T09:43:43Z</time>
      </trkpt>
      <trkpt lat="47.91536" lon="7.15282">
        <ele>728</ele>
        <time>2023-05-29T09:43:57Z</time>
      </trkpt>
      <trkpt lat="47.91542" lon="7.15292">
        <ele>726</ele>
        <time>2023-05-29T09:44:07Z</time>
      </trkpt>
      <trkpt lat="47.91536" lon="7.15301">
        <ele>722</ele>
        <time>2023-05-29T09:45:15Z</time>
      </trkpt>
      <trkpt lat="47.91527" lon="7.15307">
        <ele>722</ele>
        <time>2023-05-29T09:45:27Z</time>
      </trkpt>
      <trkpt lat="47.91518" lon="7.1531">
        <ele>721</ele>
        <time>2023-05-29T09:45:38Z</time>
      </trkpt>
      <trkpt lat="47.91508" lon="7.15311">
        <ele>720</ele>
        <time>2023-05-29T09:45:50Z</time>
      </trkpt>
      <trkpt lat="47.91499" lon="7.15312">
        <ele>720</ele>
        <time>2023-05-29T09:46:00Z</time>
      </trkpt>
      <trkpt lat="47.9149" lon="7.15315">
        <ele>719</ele>
        <time>2023-05-29T09:46:09Z</time>
      </trkpt>
      <trkpt lat="47.91481" lon="7.15315">
        <ele>718</ele>
        <time>2023-05-29T09:46:18Z</time>
      </trkpt>
      <trkpt lat="47.91471" lon="7.15315">
        <ele>717</ele>
        <time>2023-05-29T09:46:27Z</time>
      </trkpt>
      <trkpt lat="47.91462" lon="7.15316">
        <ele>717</ele>
        <time>2023-05-29T09:46:38Z</time>
      </trkpt>
      <trkpt lat="47.91452" lon="7.15317">
        <ele>716</ele>
        <time>2023-05-29T09:46:48Z</time>
      </trkpt>
      <trkpt lat="47.91442" lon="7.15318">
        <ele>715</ele>
        <time>2023-05-29T09:46:58Z</time>
      </trkpt>
      <trkpt lat="47.91433" lon="7.15317">
        <ele>714</ele>
        <time>2023-05-29T09:47:09Z</time>
      </trkpt>
      <trkpt lat="47.91424" lon="7.15316">
        <ele>713</ele>
        <time>2023-05-29T09:47:17Z</time>
      </trkpt>
      <trkpt lat="47.91414" lon="7.15315">
        <ele>712</ele>
        <time>2023-05-29T09:47:26Z</time>
      </trkpt>
      <trkpt lat="47.91406" lon="7.15318">
        <ele>712</ele>
        <time>2023-05-29T09:47:35Z</time>
      </trkpt>
      <trkpt lat="47.91396" lon="7.15319">
        <ele>711</ele>
        <time>2023-05-29T09:47:45Z</time>
      </trkpt>
      <trkpt lat="47.91387" lon="7.15322">
        <ele>710</ele>
        <time>2023-05-29T09:47:54Z</time>
      </trkpt>
      <trkpt lat="47.91377" lon="7.15325">
        <ele>709</ele>
        <time>2023-05-29T09:48:03Z</time>
      </trkpt>
      <trkpt lat="47.91368" lon="7.15327">
        <ele>708</ele>
        <time>2023-05-29T09:48:13Z</time>
      </trkpt>
      <trkpt lat="47.91359" lon="7.1533">
        <ele>708</ele>
        <time>2023-05-29T09:48:23Z</time>
      </trkpt>
      <trkpt lat="47.9135" lon="7.15334">
        <ele>707</ele>
        <time>2023-05-29T09:48:34Z</time>
      </trkpt>
      <trkpt lat="47.91341" lon="7.15336">
        <ele>706</ele>
        <time>2023-05-29T09:48:42Z</time>
      </trkpt>
      <trkpt lat="47.91331" lon="7.15338">
        <ele>706</ele>
        <time>2023-05-29T09:48:50Z</time>
      </trkpt>
      <trkpt lat="47.91322" lon="7.15341">
        <ele>705</ele>
        <time>2023-05-29T09:49:00Z</time>
      </trkpt>
      <trkpt lat="47.91313" lon="7.15346">
        <ele>704</ele>
        <time>2023-05-29T09:49:10Z</time>
      </trkpt>
      <trkpt lat="47.91304" lon="7.1535">
        <ele>703</ele>
        <time>2023-05-29T09:49:19Z</time>
      </trkpt>
      <trkpt lat="47.91295" lon="7.15353">
        <ele>703</ele>
        <time>2023-05-29T09:49:28Z</time>
      </trkpt>
      <trkpt lat="47.91286" lon="7.15354">
        <ele>702</ele>
        <time>2023-05-29T09:49:37Z</time>
      </trkpt>
      <trkpt lat="47.91277" lon="7.15357">
        <ele>701</ele>
        <time>2023-05-29T09:49:47Z</time>
      </trkpt>
      <trkpt lat="47.91268" lon="7.15362">
        <ele>700</ele>
        <time>2023-05-29T09:49:56Z</time>
      </trkpt>
      <trkpt lat="47.91262" lon="7.15371">
        <ele>699</ele>
        <time>2023-05-29T09:50:10Z</time>
      </trkpt>
      <trkpt lat="47.9126" lon="7.15385">
        <ele>698</ele>
        <time>2023-05-29T09:50:24Z</time>
      </trkpt>
      <trkpt lat="47.91258" lon="7.15399">
        <ele>697</ele>
        <time>2023-05-29T09:50:34Z</time>
      </trkpt>
      <trkpt lat="47.91258" lon="7.15413">
        <ele>696</ele>
        <time>2023-05-29T09:50:44Z</time>
      </trkpt>
      <trkpt lat="47.91257" lon="7.15426">
        <ele>696</ele>
        <time>2023-05-29T09:50:54Z</time>
      </trkpt>
      <trkpt lat="47.91257" lon="7.1544">
        <ele>695</ele>
        <time>2023-05-29T09:51:04Z</time>
      </trkpt>
      <trkpt lat="47.91258" lon="7.15455">
        <ele>694</ele>
        <time>2023-05-29T09:51:14Z</time>
      </trkpt>
      <trkpt lat="47.91259" lon="7.15468">
        <ele>693</ele>
        <time>2023-05-29T09:51:23Z</time>
      </trkpt>
      <trkpt lat="47.91261" lon="7.15482">
        <ele>692</ele>
        <time>2023-05-29T09:51:32Z</time>
      </trkpt>
      <trkpt lat="47.91263" lon="7.15496">
        <ele>691</ele>
        <time>2023-05-29T09:51:42Z</time>
      </trkpt>
      <trkpt lat="47.91263" lon="7.15511">
        <ele>690</ele>
        <time>2023-05-29T09:51:52Z</time>
      </trkpt>
      <trkpt lat="47.91262" lon="7.15524">
        <ele>689</ele>
        <time>2023-05-29T09:52:01Z</time>
      </trkpt>
      <trkpt lat="47.91261" lon="7.15539">
        <ele>688</ele>
        <time>2023-05-29T09:52:11Z</time>
      </trkpt>
      <trkpt lat="47.9126" lon="7.15553">
        <ele>688</ele>
        <time>2023-05-29T09:52:20Z</time>
      </trkpt>
      <trkpt lat="47.91255" lon="7.15565">
        <ele>687</ele>
        <time>2023-05-29T09:52:28Z</time>
      </trkpt>
      <trkpt lat="47.91247" lon="7.15574">
        <ele>686</ele>
        <time>2023-05-29T09:52:37Z</time>
      </trkpt>
      <trkpt lat="47.91239" lon="7.15582">
        <ele>685</ele>
        <time>2023-05-29T09:52:46Z</time>
      </trkpt>
      <trkpt lat="47.91231" lon="7.1559">
        <ele>685</ele>
        <time>2023-05-29T09:52:55Z</time>
      </trkpt>
      <trkpt lat="47.91223" lon="7.15598">
        <ele>684</ele>
        <time>2023-05-29T09:53:05Z</time>
      </trkpt>
      <trkpt lat="47.91215" lon="7.15607">
        <ele>683</ele>
        <time>2023-05-29T09:53:16Z</time>
      </trkpt>
      <trkpt lat="47.91207" lon="7.15614">
        <ele>682</ele>
        <time>2023-05-29T09:53:25Z</time>
      </trkpt>
      <trkpt lat="47.912" lon="7.15624">
        <ele>682</ele>
        <time>2023-05-29T09:53:35Z</time>
      </trkpt>
      <trkpt lat="47.91195" lon="7.15636">
        <ele>681</ele>
        <time>2023-05-29T09:53:45Z</time>
      </trkpt>
      <trkpt lat="47.91189" lon="7.15647">
        <ele>680</ele>
        <time>2023-05-29T09:53:55Z</time>
      </trkpt>
      <trkpt lat="47.91181" lon="7.15655">
        <ele>679</ele>
        <time>2023-05-29T09:54:04Z</time>
      </trkpt>
      <trkpt lat="47.91172" lon="7.15661">
        <ele>678</ele>
        <time>2023-05-29T09:54:15Z</time>
      </trkpt>
      <trkpt lat="47.91165" lon="7.15669">
        <ele>677</ele>
        <time>2023-05-29T09:54:25Z</time>
      </trkpt>
      <trkpt lat="47.91158" lon="7.15678">
        <ele>676</ele>
        <time>2023-05-29T09:54:34Z</time>
      </trkpt>
      <trkpt lat="47.91153" lon="7.15689">
        <ele>675</ele>
        <time>2023-05-29T09:54:43Z</time>
      </trkpt>
      <trkpt lat="47.91149" lon="7.15702">
        <ele>674</ele>
        <time>2023-05-29T09:54:52Z</time>
      </trkpt>
      <trkpt lat="47.91144" lon="7.15713">
        <ele>673</ele>
        <time>2023-05-29T09:55:00Z</time>
      </trkpt>
      <trkpt lat="47.91137" lon="7.15724">
        <ele>672</ele>
        <time>2023-05-29T09:55:09Z</time>
      </trkpt>
      <trkpt lat="47.9113" lon="7.15733">
        <ele>671</ele>
        <time>2023-05-29T09:55:17Z</time>
      </trkpt>
      <trkpt lat="47.91122" lon="7.15741">
        <ele>671</ele>
        <time>2023-05-29T09:55:26Z</time>
      </trkpt>
      <trkpt lat="47.91115" lon="7.1575">
        <ele>670</ele>
        <time>2023-05-29T09:55:35Z</time>
      </trkpt>
      <trkpt lat="47.91107" lon="7.15759">
        <ele>669</ele>
        <time>2023-05-29T09:55:43Z</time>
      </trkpt>
      <trkpt lat="47.911" lon="7.15768">
        <ele>668</ele>
        <time>2023-05-29T09:55:52Z</time>
      </trkpt>
      <trkpt lat="47.91093" lon="7.15778">
        <ele>668</ele>
        <time>2023-05-29T09:56:03Z</time>
      </trkpt>
      <trkpt lat="47.91087" lon="7.1579">
        <ele>667</ele>
        <time>2023-05-29T09:56:14Z</time>
      </trkpt>
      <trkpt lat="47.91083" lon="7.15802">
        <ele>667</ele>
        <time>2023-05-29T09:56:25Z</time>
      </trkpt>
      <trkpt lat="47.91076" lon="7.15813">
        <ele>666</ele>
        <time>2023-05-29T09:56:36Z</time>
      </trkpt>
      <trkpt lat="47.9107" lon="7.15824">
        <ele>665</ele>
        <time>2023-05-29T09:56:48Z</time>
      </trkpt>
      <trkpt lat="47.91064" lon="7.15835">
        <ele>664</ele>
        <time>2023-05-29T09:56:58Z</time>
      </trkpt>
      <trkpt lat="47.91059" lon="7.15847">
        <ele>663</ele>
        <time>2023-05-29T09:57:10Z</time>
      </trkpt>
      <trkpt lat="47.91054" lon="7.15859">
        <ele>661</ele>
        <time>2023-05-29T09:57:21Z</time>
      </trkpt>
      <trkpt lat="47.91046" lon="7.1587">
        <ele>660</ele>
        <time>2023-05-29T09:57:50Z</time>
      </trkpt>
      <trkpt lat="47.91038" lon="7.15877">
        <ele>659</ele>
        <time>2023-05-29T09:58:02Z</time>
      </trkpt>
      <trkpt lat="47.9103" lon="7.15884">
        <ele>659</ele>
        <time>2023-05-29T09:58:12Z</time>
      </trkpt>
      <trkpt lat="47.91022" lon="7.15876">
        <ele>659</ele>
        <time>2023-05-29T09:58:23Z</time>
      </trkpt>
      <trkpt lat="47.91021" lon="7.15862">
        <ele>659</ele>
        <time>2023-05-29T09:58:34Z</time>
      </trkpt>
      <trkpt lat="47.91023" lon="7.15859">
        <ele>660</ele>
        <time>2023-05-29T10:38:28Z</time>
      </trkpt>
      <trkpt lat="47.91017" lon="7.15854">
        <ele>661</ele>
        <time>2023-05-29T10:39:30Z</time>
      </trkpt>
      <trkpt lat="47.91026" lon="7.15855">
        <ele>661</ele>
        <time>2023-05-29T10:41:05Z</time>
      </trkpt>
      <trkpt lat="47.91026" lon="7.15868">
        <ele>661</ele>
        <time>2023-05-29T10:41:33Z</time>
      </trkpt>
      <trkpt lat="47.91025" lon="7.15882">
        <ele>661</ele>
        <time>2023-05-29T10:41:43Z</time>
      </trkpt>
      <trkpt lat="47.91026" lon="7.15896">
        <ele>660</ele>
        <time>2023-05-29T10:42:06Z</time>
      </trkpt>
      <trkpt lat="47.91022" lon="7.15909">
        <ele>661</ele>
        <time>2023-05-29T10:42:20Z</time>
      </trkpt>
      <trkpt lat="47.91016" lon="7.1592">
        <ele>661</ele>
        <time>2023-05-29T10:42:34Z</time>
      </trkpt>
      <trkpt lat="47.91013" lon="7.15932">
        <ele>660</ele>
        <time>2023-05-29T10:42:47Z</time>
      </trkpt>
      <trkpt lat="47.91011" lon="7.15946">
        <ele>660</ele>
        <time>2023-05-29T10:43:00Z</time>
      </trkpt>
      <trkpt lat="47.9101" lon="7.1596">
        <ele>659</ele>
        <time>2023-05-29T10:43:12Z</time>
      </trkpt>
      <trkpt lat="47.9101" lon="7.15973">
        <ele>659</ele>
        <time>2023-05-29T10:43:25Z</time>
      </trkpt>
      <trkpt lat="47.91012" lon="7.15987">
        <ele>658</ele>
        <time>2023-05-29T10:43:35Z</time>
      </trkpt>
      <trkpt lat="47.91016" lon="7.16">
        <ele>658</ele>
        <time>2023-05-29T10:43:46Z</time>
      </trkpt>
      <trkpt lat="47.9102" lon="7.16013">
        <ele>657</ele>
        <time>2023-05-29T10:43:56Z</time>
      </trkpt>
      <trkpt lat="47.91025" lon="7.16024">
        <ele>657</ele>
        <time>2023-05-29T10:44:06Z</time>
      </trkpt>
      <trkpt lat="47.91031" lon="7.16036">
        <ele>656</ele>
        <time>2023-05-29T10:44:16Z</time>
      </trkpt>
      <trkpt lat="47.91035" lon="7.16048">
        <ele>656</ele>
        <time>2023-05-29T10:44:27Z</time>
      </trkpt>
      <trkpt lat="47.91037" lon="7.16061">
        <ele>656</ele>
        <time>2023-05-29T10:44:38Z</time>
      </trkpt>
      <trkpt lat="47.91035" lon="7.16074">
        <ele>655</ele>
        <time>2023-05-29T10:44:49Z</time>
      </trkpt>
      <trkpt lat="47.91028" lon="7.16085">
        <ele>655</ele>
        <time>2023-05-29T10:44:58Z</time>
      </trkpt>
      <trkpt lat="47.91021" lon="7.16094">
        <ele>655</ele>
        <time>2023-05-29T10:45:05Z</time>
      </trkpt>
      <trkpt lat="47.91011" lon="7.161">
        <ele>654</ele>
        <time>2023-05-29T10:45:13Z</time>
      </trkpt>
      <trkpt lat="47.91002" lon="7.16107">
        <ele>654</ele>
        <time>2023-05-29T10:45:21Z</time>
      </trkpt>
      <trkpt lat="47.90994" lon="7.16113">
        <ele>654</ele>
        <time>2023-05-29T10:45:29Z</time>
      </trkpt>
      <trkpt lat="47.90985" lon="7.16117">
        <ele>654</ele>
        <time>2023-05-29T10:45:43Z</time>
      </trkpt>
      <trkpt lat="47.90976" lon="7.16121">
        <ele>654</ele>
        <time>2023-05-29T10:45:53Z</time>
      </trkpt>
      <trkpt lat="47.90966" lon="7.16123">
        <ele>654</ele>
        <time>2023-05-29T10:46:03Z</time>
      </trkpt>
      <trkpt lat="47.90957" lon="7.16128">
        <ele>654</ele>
        <time>2023-05-29T10:46:12Z</time>
      </trkpt>
      <trkpt lat="47.90948" lon="7.16133">
        <ele>654</ele>
        <time>2023-05-29T10:46:18Z</time>
      </trkpt>
      <trkpt lat="47.90939" lon="7.16137">
        <ele>654</ele>
        <time>2023-05-29T10:46:27Z</time>
      </trkpt>
      <trkpt lat="47.9093" lon="7.16141">
        <ele>654</ele>
        <time>2023-05-29T10:46:36Z</time>
      </trkpt>
      <trkpt lat="47.90922" lon="7.16149">
        <ele>654</ele>
        <time>2023-05-29T10:46:48Z</time>
      </trkpt>
      <trkpt lat="47.90916" lon="7.16159">
        <ele>654</ele>
        <time>2023-05-29T10:47:02Z</time>
      </trkpt>
      <trkpt lat="47.9091" lon="7.1617">
        <ele>654</ele>
        <time>2023-05-29T10:47:14Z</time>
      </trkpt>
      <trkpt lat="47.90907" lon="7.16183">
        <ele>653</ele>
        <time>2023-05-29T10:47:25Z</time>
      </trkpt>
      <trkpt lat="47.90906" lon="7.16198">
        <ele>652</ele>
        <time>2023-05-29T10:47:36Z</time>
      </trkpt>
      <trkpt lat="47.90908" lon="7.16212">
        <ele>652</ele>
        <time>2023-05-29T10:47:46Z</time>
      </trkpt>
      <trkpt lat="47.90909" lon="7.16225">
        <ele>652</ele>
        <time>2023-05-29T10:47:56Z</time>
      </trkpt>
      <trkpt lat="47.90911" lon="7.16239">
        <ele>652</ele>
        <time>2023-05-29T10:48:05Z</time>
      </trkpt>
      <trkpt lat="47.90914" lon="7.16253">
        <ele>652</ele>
        <time>2023-05-29T10:48:15Z</time>
      </trkpt>
      <trkpt lat="47.90916" lon="7.16267">
        <ele>652</ele>
        <time>2023-05-29T10:48:25Z</time>
      </trkpt>
      <trkpt lat="47.90917" lon="7.16281">
        <ele>652</ele>
        <time>2023-05-29T10:48:34Z</time>
      </trkpt>
      <trkpt lat="47.90917" lon="7.16295">
        <ele>652</ele>
        <time>2023-05-29T10:48:43Z</time>
      </trkpt>
      <trkpt lat="47.90916" lon="7.16308">
        <ele>652</ele>
        <time>2023-05-29T10:48:54Z</time>
      </trkpt>
      <trkpt lat="47.90916" lon="7.16322">
        <ele>652</ele>
        <time>2023-05-29T10:49:04Z</time>
      </trkpt>
      <trkpt lat="47.90914" lon="7.16336">
        <ele>653</ele>
        <time>2023-05-29T10:49:33Z</time>
      </trkpt>
      <trkpt lat="47.90913" lon="7.1635">
        <ele>652</ele>
        <time>2023-05-29T10:49:52Z</time>
      </trkpt>
      <trkpt lat="47.90913" lon="7.16364">
        <ele>652</ele>
        <time>2023-05-29T10:50:05Z</time>
      </trkpt>
      <trkpt lat="47.9091" lon="7.16377">
        <ele>652</ele>
        <time>2023-05-29T10:50:44Z</time>
      </trkpt>
      <trkpt lat="47.90911" lon="7.16391">
        <ele>652</ele>
        <time>2023-05-29T10:50:54Z</time>
      </trkpt>
      <trkpt lat="47.90913" lon="7.16404">
        <ele>652</ele>
        <time>2023-05-29T10:51:04Z</time>
      </trkpt>
      <trkpt lat="47.90914" lon="7.16417">
        <ele>651</ele>
        <time>2023-05-29T10:51:16Z</time>
      </trkpt>
      <trkpt lat="47.90914" lon="7.16432">
        <ele>651</ele>
        <time>2023-05-29T10:51:28Z</time>
      </trkpt>
      <trkpt lat="47.90912" lon="7.16446">
        <ele>650</ele>
        <time>2023-05-29T10:51:37Z</time>
      </trkpt>
      <trkpt lat="47.90913" lon="7.16461">
        <ele>648</ele>
        <time>2023-05-29T10:51:46Z</time>
      </trkpt>
      <trkpt lat="47.90911" lon="7.16475">
        <ele>648</ele>
        <time>2023-05-29T10:51:55Z</time>
      </trkpt>
      <trkpt lat="47.90912" lon="7.16489">
        <ele>647</ele>
        <time>2023-05-29T10:52:03Z</time>
      </trkpt>
      <trkpt lat="47.90914" lon="7.16504">
        <ele>646</ele>
        <time>2023-05-29T10:52:12Z</time>
      </trkpt>
      <trkpt lat="47.90914" lon="7.16517">
        <ele>645</ele>
        <time>2023-05-29T10:52:22Z</time>
      </trkpt>
      <trkpt lat="47.90915" lon="7.16531">
        <ele>644</ele>
        <time>2023-05-29T10:52:32Z</time>
      </trkpt>
      <trkpt lat="47.90916" lon="7.16545">
        <ele>643</ele>
        <time>2023-05-29T10:52:41Z</time>
      </trkpt>
      <trkpt lat="47.90914" lon="7.16558">
        <ele>642</ele>
        <time>2023-05-29T10:52:50Z</time>
      </trkpt>
      <trkpt lat="47.9091" lon="7.16571">
        <ele>641</ele>
        <time>2023-05-29T10:52:58Z</time>
      </trkpt>
      <trkpt lat="47.90907" lon="7.16585">
        <ele>639</ele>
        <time>2023-05-29T10:53:07Z</time>
      </trkpt>
      <trkpt lat="47.90908" lon="7.16598">
        <ele>637</ele>
        <time>2023-05-29T10:53:16Z</time>
      </trkpt>
      <trkpt lat="47.90906" lon="7.16612">
        <ele>636</ele>
        <time>2023-05-29T10:53:28Z</time>
      </trkpt>
      <trkpt lat="47.90911" lon="7.16624">
        <ele>634</ele>
        <time>2023-05-29T10:53:40Z</time>
      </trkpt>
      <trkpt lat="47.90914" lon="7.16637">
        <ele>632</ele>
        <time>2023-05-29T10:53:52Z</time>
      </trkpt>
      <trkpt lat="47.90919" lon="7.16649">
        <ele>630</ele>
        <time>2023-05-29T10:54:01Z</time>
      </trkpt>
      <trkpt lat="47.90925" lon="7.1666">
        <ele>630</ele>
        <time>2023-05-29T10:54:10Z</time>
      </trkpt>
      <trkpt lat="47.90933" lon="7.1667">
        <ele>628</ele>
        <time>2023-05-29T10:54:19Z</time>
      </trkpt>
      <trkpt lat="47.90939" lon="7.1668">
        <ele>626</ele>
        <time>2023-05-29T10:54:28Z</time>
      </trkpt>
      <trkpt lat="47.90944" lon="7.16691">
        <ele>625</ele>
        <time>2023-05-29T10:54:38Z</time>
      </trkpt>
      <trkpt lat="47.9095" lon="7.16702">
        <ele>624</ele>
        <time>2023-05-29T10:54:47Z</time>
      </trkpt>
      <trkpt lat="47.90953" lon="7.16715">
        <ele>623</ele>
        <time>2023-05-29T10:54:58Z</time>
      </trkpt>
      <trkpt lat="47.90954" lon="7.16729">
        <ele>622</ele>
        <time>2023-05-29T10:55:07Z</time>
      </trkpt>
      <trkpt lat="47.90952" lon="7.16742">
        <ele>622</ele>
        <time>2023-05-29T10:55:16Z</time>
      </trkpt>
      <trkpt lat="47.90946" lon="7.16753">
        <ele>622</ele>
        <time>2023-05-29T10:55:24Z</time>
      </trkpt>
      <trkpt lat="47.90938" lon="7.16761">
        <ele>621</ele>
        <time>2023-05-29T10:55:33Z</time>
      </trkpt>
      <trkpt lat="47.90931" lon="7.1677">
        <ele>621</ele>
        <time>2023-05-29T10:55:43Z</time>
      </trkpt>
      <trkpt lat="47.90923" lon="7.16778">
        <ele>621</ele>
        <time>2023-05-29T10:55:52Z</time>
      </trkpt>
      <trkpt lat="47.90919" lon="7.16791">
        <ele>621</ele>
        <time>2023-05-29T10:56:05Z</time>
      </trkpt>
      <trkpt lat="47.90913" lon="7.16801">
        <ele>621</ele>
        <time>2023-05-29T10:56:16Z</time>
      </trkpt>
      <trkpt lat="47.90907" lon="7.16812">
        <ele>621</ele>
        <time>2023-05-29T10:56:25Z</time>
      </trkpt>
      <trkpt lat="47.90903" lon="7.16825">
        <ele>620</ele>
        <time>2023-05-29T10:56:34Z</time>
      </trkpt>
      <trkpt lat="47.909" lon="7.16838">
        <ele>619</ele>
        <time>2023-05-29T10:56:44Z</time>
      </trkpt>
      <trkpt lat="47.90895" lon="7.16851">
        <ele>618</ele>
        <time>2023-05-29T10:56:55Z</time>
      </trkpt>
      <trkpt lat="47.9089" lon="7.16863">
        <ele>617</ele>
        <time>2023-05-29T10:57:05Z</time>
      </trkpt>
      <trkpt lat="47.90887" lon="7.16876">
        <ele>615</ele>
        <time>2023-05-29T10:57:16Z</time>
      </trkpt>
      <trkpt lat="47.90883" lon="7.16889">
        <ele>614</ele>
        <time>2023-05-29T10:57:24Z</time>
      </trkpt>
      <trkpt lat="47.9088" lon="7.16902">
        <ele>613</ele>
        <time>2023-05-29T10:57:32Z</time>
      </trkpt>
      <trkpt lat="47.90879" lon="7.16916">
        <ele>612</ele>
        <time>2023-05-29T10:57:40Z</time>
      </trkpt>
      <trkpt lat="47.90879" lon="7.16929">
        <ele>611</ele>
        <time>2023-05-29T10:57:50Z</time>
      </trkpt>
      <trkpt lat="47.90881" lon="7.16943">
        <ele>610</ele>
        <time>2023-05-29T10:57:59Z</time>
      </trkpt>
      <trkpt lat="47.90883" lon="7.16957">
        <ele>609</ele>
        <time>2023-05-29T10:58:07Z</time>
      </trkpt>
      <trkpt lat="47.90886" lon="7.16971">
        <ele>608</ele>
        <time>2023-05-29T10:58:16Z</time>
      </trkpt>
      <trkpt lat="47.9089" lon="7.16984">
        <ele>608</ele>
        <time>2023-05-29T10:58:24Z</time>
      </trkpt>
      <trkpt lat="47.90894" lon="7.16997">
        <ele>607</ele>
        <time>2023-05-29T10:58:32Z</time>
      </trkpt>
      <trkpt lat="47.90898" lon="7.1701">
        <ele>607</ele>
        <time>2023-05-29T10:58:41Z</time>
      </trkpt>
      <trkpt lat="47.909" lon="7.17024">
        <ele>606</ele>
        <time>2023-05-29T10:58:51Z</time>
      </trkpt>
      <trkpt lat="47.909" lon="7.17039">
        <ele>606</ele>
        <time>2023-05-29T10:59:00Z</time>
      </trkpt>
      <trkpt lat="47.90901" lon="7.17053">
        <ele>606</ele>
        <time>2023-05-29T10:59:10Z</time>
      </trkpt>
      <trkpt lat="47.90903" lon="7.17067">
        <ele>605</ele>
        <time>2023-05-29T10:59:19Z</time>
      </trkpt>
      <trkpt lat="47.90906" lon="7.17081">
        <ele>605</ele>
        <time>2023-05-29T10:59:28Z</time>
      </trkpt>
      <trkpt lat="47.90907" lon="7.17095">
        <ele>605</ele>
        <time>2023-05-29T10:59:37Z</time>
      </trkpt>
      <trkpt lat="47.90906" lon="7.1711">
        <ele>605</ele>
        <time>2023-05-29T10:59:47Z</time>
      </trkpt>
      <trkpt lat="47.90906" lon="7.17124">
        <ele>605</ele>
        <time>2023-05-29T10:59:57Z</time>
      </trkpt>
      <trkpt lat="47.90905" lon="7.17138">
        <ele>604</ele>
        <time>2023-05-29T11:00:08Z</time>
      </trkpt>
      <trkpt lat="47.90903" lon="7.17152">
        <ele>603</ele>
        <time>2023-05-29T11:00:17Z</time>
      </trkpt>
      <trkpt lat="47.90902" lon="7.17166">
        <ele>602</ele>
        <time>2023-05-29T11:00:26Z</time>
      </trkpt>
      <trkpt lat="47.909" lon="7.1718">
        <ele>601</ele>
        <time>2023-05-29T11:00:36Z</time>
      </trkpt>
      <trkpt lat="47.90899" lon="7.17195">
        <ele>600</ele>
        <time>2023-05-29T11:00:46Z</time>
      </trkpt>
      <trkpt lat="47.90898" lon="7.17209">
        <ele>600</ele>
        <time>2023-05-29T11:00:54Z</time>
      </trkpt>
      <trkpt lat="47.90897" lon="7.17222">
        <ele>599</ele>
        <time>2023-05-29T11:01:02Z</time>
      </trkpt>
      <trkpt lat="47.90895" lon="7.17236">
        <ele>598</ele>
        <time>2023-05-29T11:01:11Z</time>
      </trkpt>
      <trkpt lat="47.90893" lon="7.1725">
        <ele>598</ele>
        <time>2023-05-29T11:01:20Z</time>
      </trkpt>
      <trkpt lat="47.90891" lon="7.17264">
        <ele>597</ele>
        <time>2023-05-29T11:01:29Z</time>
      </trkpt>
      <trkpt lat="47.90891" lon="7.17278">
        <ele>596</ele>
        <time>2023-05-29T11:01:38Z</time>
      </trkpt>
      <trkpt lat="47.90889" lon="7.17291">
        <ele>596</ele>
        <time>2023-05-29T11:01:49Z</time>
      </trkpt>
      <trkpt lat="47.90889" lon="7.17305">
        <ele>595</ele>
        <time>2023-05-29T11:02:00Z</time>
      </trkpt>
      <trkpt lat="47.90886" lon="7.17319">
        <ele>594</ele>
        <time>2023-05-29T11:02:11Z</time>
      </trkpt>
      <trkpt lat="47.90887" lon="7.17332">
        <ele>592</ele>
        <time>2023-05-29T11:02:22Z</time>
      </trkpt>
      <trkpt lat="47.90892" lon="7.17344">
        <ele>591</ele>
        <time>2023-05-29T11:02:32Z</time>
      </trkpt>
      <trkpt lat="47.90898" lon="7.17355">
        <ele>590</ele>
        <time>2023-05-29T11:02:44Z</time>
      </trkpt>
      <trkpt lat="47.90905" lon="7.17365">
        <ele>588</ele>
        <time>2023-05-29T11:02:55Z</time>
      </trkpt>
      <trkpt lat="47.90912" lon="7.17375">
        <ele>587</ele>
        <time>2023-05-29T11:03:05Z</time>
      </trkpt>
      <trkpt lat="47.90915" lon="7.17388">
        <ele>584</ele>
        <time>2023-05-29T11:03:17Z</time>
      </trkpt>
      <trkpt lat="47.90919" lon="7.174">
        <ele>583</ele>
        <time>2023-05-29T11:03:27Z</time>
      </trkpt>
      <trkpt lat="47.90921" lon="7.17414">
        <ele>582</ele>
        <time>2023-05-29T11:03:35Z</time>
      </trkpt>
      <trkpt lat="47.90919" lon="7.17429">
        <ele>581</ele>
        <time>2023-05-29T11:03:42Z</time>
      </trkpt>
      <trkpt lat="47.90917" lon="7.17443">
        <ele>580</ele>
        <time>2023-05-29T11:03:50Z</time>
      </trkpt>
      <trkpt lat="47.90914" lon="7.17455">
        <ele>579</ele>
        <time>2023-05-29T11:03:58Z</time>
      </trkpt>
      <trkpt lat="47.90909" lon="7.17469">
        <ele>578</ele>
        <time>2023-05-29T11:04:07Z</time>
      </trkpt>
      <trkpt lat="47.90905" lon="7.1748">
        <ele>578</ele>
        <time>2023-05-29T11:04:18Z</time>
      </trkpt>
      <trkpt lat="47.90899" lon="7.17492">
        <ele>578</ele>
        <time>2023-05-29T11:04:27Z</time>
      </trkpt>
      <trkpt lat="47.90895" lon="7.17506">
        <ele>577</ele>
        <time>2023-05-29T11:04:37Z</time>
      </trkpt>
      <trkpt lat="47.90894" lon="7.17519">
        <ele>577</ele>
        <time>2023-05-29T11:04:50Z</time>
      </trkpt>
      <trkpt lat="47.90896" lon="7.17534">
        <ele>577</ele>
        <time>2023-05-29T11:05:02Z</time>
      </trkpt>
      <trkpt lat="47.90898" lon="7.17547">
        <ele>578</ele>
        <time>2023-05-29T11:05:11Z</time>
      </trkpt>
      <trkpt lat="47.909" lon="7.1756">
        <ele>578</ele>
        <time>2023-05-29T11:05:20Z</time>
      </trkpt>
      <trkpt lat="47.90902" lon="7.17574">
        <ele>578</ele>
        <time>2023-05-29T11:05:30Z</time>
      </trkpt>
      <trkpt lat="47.90905" lon="7.17587">
        <ele>577</ele>
        <time>2023-05-29T11:05:38Z</time>
      </trkpt>
      <trkpt lat="47.90907" lon="7.176">
        <ele>577</ele>
        <time>2023-05-29T11:05:50Z</time>
      </trkpt>
      <trkpt lat="47.90911" lon="7.17612">
        <ele>576</ele>
        <time>2023-05-29T11:05:59Z</time>
      </trkpt>
      <trkpt lat="47.90915" lon="7.17624">
        <ele>575</ele>
        <time>2023-05-29T11:06:07Z</time>
      </trkpt>
      <trkpt lat="47.90921" lon="7.17636">
        <ele>574</ele>
        <time>2023-05-29T11:06:15Z</time>
      </trkpt>
      <trkpt lat="47.90927" lon="7.17645">
        <ele>573</ele>
        <time>2023-05-29T11:06:23Z</time>
      </trkpt>
      <trkpt lat="47.90935" lon="7.17653">
        <ele>572</ele>
        <time>2023-05-29T11:06:31Z</time>
      </trkpt>
      <trkpt lat="47.90943" lon="7.17659">
        <ele>571</ele>
        <time>2023-05-29T11:06:41Z</time>
      </trkpt>
      <trkpt lat="47.9095" lon="7.17669">
        <ele>571</ele>
        <time>2023-05-29T11:06:52Z</time>
      </trkpt>
      <trkpt lat="47.90954" lon="7.17682">
        <ele>570</ele>
        <time>2023-05-29T11:07:01Z</time>
      </trkpt>
      <trkpt lat="47.90959" lon="7.17694">
        <ele>570</ele>
        <time>2023-05-29T11:07:10Z</time>
      </trkpt>
      <trkpt lat="47.90962" lon="7.17707">
        <ele>569</ele>
        <time>2023-05-29T11:07:21Z</time>
      </trkpt>
      <trkpt lat="47.90964" lon="7.17707">
        <ele>569</ele>
        <time>2023-05-29T11:08:38Z</time>
      </trkpt>
      <trkpt lat="47.90971" lon="7.17707">
        <ele>569</ele>
        <time>2023-05-29T11:09:28Z</time>
      </trkpt>
      <trkpt lat="47.90977" lon="7.17715">
        <ele>569</ele>
        <time>2023-05-29T11:10:13Z</time>
      </trkpt>
      <trkpt lat="47.90984" lon="7.17724">
        <ele>568</ele>
        <time>2023-05-29T11:10:27Z</time>
      </trkpt>
      <trkpt lat="47.90991" lon="7.17733">
        <ele>568</ele>
        <time>2023-05-29T11:10:37Z</time>
      </trkpt>
      <trkpt lat="47.90998" lon="7.17744">
        <ele>568</ele>
        <time>2023-05-29T11:10:46Z</time>
      </trkpt>
      <trkpt lat="47.91005" lon="7.17753">
        <ele>567</ele>
        <time>2023-05-29T11:10:55Z</time>
      </trkpt>
      <trkpt lat="47.91011" lon="7.17764">
        <ele>567</ele>
        <time>2023-05-29T11:11:05Z</time>
      </trkpt>
      <trkpt lat="47.91017" lon="7.17776">
        <ele>567</ele>
        <time>2023-05-29T11:11:15Z</time>
      </trkpt>
      <trkpt lat="47.91023" lon="7.17788">
        <ele>567</ele>
        <time>2023-05-29T11:11:24Z</time>
      </trkpt>
      <trkpt lat="47.91028" lon="7.178">
        <ele>566</ele>
        <time>2023-05-29T11:11:34Z</time>
      </trkpt>
      <trkpt lat="47.91033" lon="7.17812">
        <ele>566</ele>
        <time>2023-05-29T11:11:45Z</time>
      </trkpt>
      <trkpt lat="47.91037" lon="7.17824">
        <ele>566</ele>
        <time>2023-05-29T11:11:55Z</time>
      </trkpt>
      <trkpt lat="47.91041" lon="7.17837">
        <ele>565</ele>
        <time>2023-05-29T11:12:06Z</time>
      </trkpt>
      <trkpt lat="47.91046" lon="7.17851">
        <ele>565</ele>
        <time>2023-05-29T11:12:15Z</time>
      </trkpt>
      <trkpt lat="47.91052" lon="7.17861">
        <ele>565</ele>
        <time>2023-05-29T11:12:25Z</time>
      </trkpt>
      <trkpt lat="47.91059" lon="7.17869">
        <ele>564</ele>
        <time>2023-05-29T11:12:36Z</time>
      </trkpt>
      <trkpt lat="47.91067" lon="7.17877">
        <ele>564</ele>
        <time>2023-05-29T11:12:46Z</time>
      </trkpt>
      <trkpt lat="47.91075" lon="7.17884">
        <ele>564</ele>
        <time>2023-05-29T11:12:56Z</time>
      </trkpt>
      <trkpt lat="47.91083" lon="7.17891">
        <ele>564</ele>
        <time>2023-05-29T11:13:06Z</time>
      </trkpt>
      <trkpt lat="47.91091" lon="7.17897">
        <ele>563</ele>
        <time>2023-05-29T11:13:17Z</time>
      </trkpt>
      <trkpt lat="47.911" lon="7.17905">
        <ele>563</ele>
        <time>2023-05-29T11:13:27Z</time>
      </trkpt>
      <trkpt lat="47.91107" lon="7.17913">
        <ele>563</ele>
        <time>2023-05-29T11:13:35Z</time>
      </trkpt>
      <trkpt lat="47.91114" lon="7.17923">
        <ele>562</ele>
        <time>2023-05-29T11:13:44Z</time>
      </trkpt>
      <trkpt lat="47.9112" lon="7.17933">
        <ele>562</ele>
        <time>2023-05-29T11:13:53Z</time>
      </trkpt>
      <trkpt lat="47.91126" lon="7.17943">
        <ele>561</ele>
        <time>2023-05-29T11:14:03Z</time>
      </trkpt>
      <trkpt lat="47.91134" lon="7.17951">
        <ele>560</ele>
        <time>2023-05-29T11:14:12Z</time>
      </trkpt>
      <trkpt lat="47.91142" lon="7.17959">
        <ele>560</ele>
        <time>2023-05-29T11:14:22Z</time>
      </trkpt>
      <trkpt lat="47.9115" lon="7.17967">
        <ele>559</ele>
        <time>2023-05-29T11:14:31Z</time>
      </trkpt>
      <trkpt lat="47.91157" lon="7.17976">
        <ele>559</ele>
        <time>2023-05-29T11:14:40Z</time>
      </trkpt>
      <trkpt lat="47.91166" lon="7.17984">
        <ele>558</ele>
        <time>2023-05-29T11:14:49Z</time>
      </trkpt>
      <trkpt lat="47.91174" lon="7.17993">
        <ele>557</ele>
        <time>2023-05-29T11:14:57Z</time>
      </trkpt>
      <trkpt lat="47.91181" lon="7.18">
        <ele>557</ele>
        <time>2023-05-29T11:15:07Z</time>
      </trkpt>
      <trkpt lat="47.91177" lon="7.18009">
        <ele>555</ele>
        <time>2023-05-29T11:15:44Z</time>
      </trkpt>
      <trkpt lat="47.91176" lon="7.18022">
        <ele>555</ele>
        <time>2023-05-29T11:16:00Z</time>
      </trkpt>
      <trkpt lat="47.91179" lon="7.18035">
        <ele>555</ele>
        <time>2023-05-29T11:16:13Z</time>
      </trkpt>
      <trkpt lat="47.91177" lon="7.18049">
        <ele>556</ele>
        <time>2023-05-29T11:16:22Z</time>
      </trkpt>
      <trkpt lat="47.91175" lon="7.18063">
        <ele>556</ele>
        <time>2023-05-29T11:16:32Z</time>
      </trkpt>
      <trkpt lat="47.9117" lon="7.18076">
        <ele>556</ele>
        <time>2023-05-29T11:16:42Z</time>
      </trkpt>
      <trkpt lat="47.91168" lon="7.18089">
        <ele>556</ele>
        <time>2023-05-29T11:16:52Z</time>
      </trkpt>
      <trkpt lat="47.91163" lon="7.181">
        <ele>556</ele>
        <time>2023-05-29T11:17:01Z</time>
      </trkpt>
      <trkpt lat="47.91156" lon="7.18109">
        <ele>556</ele>
        <time>2023-05-29T11:17:09Z</time>
      </trkpt>
      <trkpt lat="47.91148" lon="7.18119">
        <ele>555</ele>
        <time>2023-05-29T11:17:18Z</time>
      </trkpt>
      <trkpt lat="47.91142" lon="7.18128">
        <ele>555</ele>
        <time>2023-05-29T11:17:27Z</time>
      </trkpt>
      <trkpt lat="47.91135" lon="7.18137">
        <ele>555</ele>
        <time>2023-05-29T11:17:35Z</time>
      </trkpt>
      <trkpt lat="47.91127" lon="7.18146">
        <ele>555</ele>
        <time>2023-05-29T11:17:45Z</time>
      </trkpt>
      <trkpt lat="47.91119" lon="7.18154">
        <ele>554</ele>
        <time>2023-05-29T11:17:56Z</time>
      </trkpt>
      <trkpt lat="47.91111" lon="7.18162">
        <ele>554</ele>
        <time>2023-05-29T11:18:06Z</time>
      </trkpt>
      <trkpt lat="47.91105" lon="7.18171">
        <ele>554</ele>
        <time>2023-05-29T11:18:15Z</time>
      </trkpt>
      <trkpt lat="47.91099" lon="7.18182">
        <ele>554</ele>
        <time>2023-05-29T11:18:24Z</time>
      </trkpt>
      <trkpt lat="47.91095" lon="7.18195">
        <ele>554</ele>
        <time>2023-05-29T11:18:35Z</time>
      </trkpt>
      <trkpt lat="47.91092" lon="7.18207">
        <ele>554</ele>
        <time>2023-05-29T11:18:45Z</time>
      </trkpt>
      <trkpt lat="47.91087" lon="7.1822">
        <ele>554</ele>
        <time>2023-05-29T11:18:54Z</time>
      </trkpt>
      <trkpt lat="47.91085" lon="7.18233">
        <ele>554</ele>
        <time>2023-05-29T11:19:02Z</time>
      </trkpt>
      <trkpt lat="47.91082" lon="7.18245">
        <ele>554</ele>
        <time>2023-05-29T11:19:11Z</time>
      </trkpt>
      <trkpt lat="47.91077" lon="7.18257">
        <ele>554</ele>
        <time>2023-05-29T11:19:20Z</time>
      </trkpt>
      <trkpt lat="47.91071" lon="7.18269">
        <ele>554</ele>
        <time>2023-05-29T11:19:30Z</time>
      </trkpt>
      <trkpt lat="47.91064" lon="7.18279">
        <ele>554</ele>
        <time>2023-05-29T11:19:39Z</time>
      </trkpt>
      <trkpt lat="47.91057" lon="7.1829">
        <ele>554</ele>
        <time>2023-05-29T11:19:49Z</time>
      </trkpt>
      <trkpt lat="47.9105" lon="7.183">
        <ele>554</ele>
        <time>2023-05-29T11:19:57Z</time>
      </trkpt>
      <trkpt lat="47.91044" lon="7.1831">
        <ele>554</ele>
        <time>2023-05-29T11:20:05Z</time>
      </trkpt>
      <trkpt lat="47.91038" lon="7.1832">
        <ele>554</ele>
        <time>2023-05-29T11:20:16Z</time>
      </trkpt>
      <trkpt lat="47.91034" lon="7.18332">
        <ele>554</ele>
        <time>2023-05-29T11:20:27Z</time>
      </trkpt>
      <trkpt lat="47.91028" lon="7.18343">
        <ele>554</ele>
        <time>2023-05-29T11:20:37Z</time>
      </trkpt>
      <trkpt lat="47.91024" lon="7.18356">
        <ele>554</ele>
        <time>2023-05-29T11:20:46Z</time>
      </trkpt>
      <trkpt lat="47.9102" lon="7.18369">
        <ele>554</ele>
        <time>2023-05-29T11:20:55Z</time>
      </trkpt>
      <trkpt lat="47.91021" lon="7.18383">
        <ele>554</ele>
        <time>2023-05-29T11:21:05Z</time>
      </trkpt>
      <trkpt lat="47.91022" lon="7.18397">
        <ele>554</ele>
        <time>2023-05-29T11:21:15Z</time>
      </trkpt>
      <trkpt lat="47.91026" lon="7.18411">
        <ele>554</ele>
        <time>2023-05-29T11:21:24Z</time>
      </trkpt>
      <trkpt lat="47.91029" lon="7.18424">
        <ele>554</ele>
        <time>2023-05-29T11:21:33Z</time>
      </trkpt>
      <trkpt lat="47.91033" lon="7.18437">
        <ele>554</ele>
        <time>2023-05-29T11:21:46Z</time>
      </trkpt>
      <trkpt lat="47.91037" lon="7.18449">
        <ele>555</ele>
        <time>2023-05-29T11:21:56Z</time>
      </trkpt>
      <trkpt lat="47.91039" lon="7.18462">
        <ele>555</ele>
        <time>2023-05-29T11:22:05Z</time>
      </trkpt>
      <trkpt lat="47.9104" lon="7.18475">
        <ele>555</ele>
        <time>2023-05-29T11:22:14Z</time>
      </trkpt>
      <trkpt lat="47.91041" lon="7.18489">
        <ele>555</ele>
        <time>2023-05-29T11:22:23Z</time>
      </trkpt>
      <trkpt lat="47.91043" lon="7.18503">
        <ele>556</ele>
        <time>2023-05-29T11:22:33Z</time>
      </trkpt>
      <trkpt lat="47.91045" lon="7.18517">
        <ele>556</ele>
        <time>2023-05-29T11:22:42Z</time>
      </trkpt>
      <trkpt lat="47.91044" lon="7.18533">
        <ele>557</ele>
        <time>2023-05-29T11:23:21Z</time>
      </trkpt>
      <trkpt lat="47.91038" lon="7.18544">
        <ele>557</ele>
        <time>2023-05-29T11:25:28Z</time>
      </trkpt>
      <trkpt lat="47.91032" lon="7.18555">
        <ele>557</ele>
        <time>2023-05-29T11:25:40Z</time>
      </trkpt>
      <trkpt lat="47.91024" lon="7.18563">
        <ele>556</ele>
        <time>2023-05-29T11:25:50Z</time>
      </trkpt>
      <trkpt lat="47.91016" lon="7.18569">
        <ele>554</ele>
        <time>2023-05-29T11:25:59Z</time>
      </trkpt>
      <trkpt lat="47.91007" lon="7.18571">
        <ele>553</ele>
        <time>2023-05-29T11:26:08Z</time>
      </trkpt>
      <trkpt lat="47.90998" lon="7.1857">
        <ele>551</ele>
        <time>2023-05-29T11:26:17Z</time>
      </trkpt>
      <trkpt lat="47.90988" lon="7.18571">
        <ele>550</ele>
        <time>2023-05-29T11:26:28Z</time>
      </trkpt>
      <trkpt lat="47.90979" lon="7.18567">
        <ele>548</ele>
        <time>2023-05-29T11:26:36Z</time>
      </trkpt>
      <trkpt lat="47.90969" lon="7.18566">
        <ele>547</ele>
        <time>2023-05-29T11:26:46Z</time>
      </trkpt>
      <trkpt lat="47.9096" lon="7.18567">
        <ele>546</ele>
        <time>2023-05-29T11:26:56Z</time>
      </trkpt>
      <trkpt lat="47.90951" lon="7.18568">
        <ele>544</ele>
        <time>2023-05-29T11:27:06Z</time>
      </trkpt>
      <trkpt lat="47.90941" lon="7.1857">
        <ele>543</ele>
        <time>2023-05-29T11:27:18Z</time>
      </trkpt>
      <trkpt lat="47.90932" lon="7.18571">
        <ele>542</ele>
        <time>2023-05-29T11:27:29Z</time>
      </trkpt>
      <trkpt lat="47.90923" lon="7.18574">
        <ele>540</ele>
        <time>2023-05-29T11:27:40Z</time>
      </trkpt>
      <trkpt lat="47.90914" lon="7.18579">
        <ele>538</ele>
        <time>2023-05-29T11:27:52Z</time>
      </trkpt>
      <trkpt lat="47.90906" lon="7.18584">
        <ele>537</ele>
        <time>2023-05-29T11:28:02Z</time>
      </trkpt>
      <trkpt lat="47.90897" lon="7.18589">
        <ele>535</ele>
        <time>2023-05-29T11:28:13Z</time>
      </trkpt>
      <trkpt lat="47.90889" lon="7.18596">
        <ele>533</ele>
        <time>2023-05-29T11:28:28Z</time>
      </trkpt>
      <trkpt lat="47.90883" lon="7.18605">
        <ele>531</ele>
        <time>2023-05-29T11:28:39Z</time>
      </trkpt>
      <trkpt lat="47.9088" lon="7.18619">
        <ele>528</ele>
        <time>2023-05-29T11:28:51Z</time>
      </trkpt>
      <trkpt lat="47.90878" lon="7.18633">
        <ele>525</ele>
        <time>2023-05-29T11:29:02Z</time>
      </trkpt>
      <trkpt lat="47.90875" lon="7.18646">
        <ele>523</ele>
        <time>2023-05-29T11:29:13Z</time>
      </trkpt>
      <trkpt lat="47.90871" lon="7.18658">
        <ele>521</ele>
        <time>2023-05-29T11:29:24Z</time>
      </trkpt>
      <trkpt lat="47.90867" lon="7.18671">
        <ele>519</ele>
        <time>2023-05-29T11:29:35Z</time>
      </trkpt>
      <trkpt lat="47.9086" lon="7.18682">
        <ele>518</ele>
        <time>2023-05-29T11:29:45Z</time>
      </trkpt>
      <trkpt lat="47.90854" lon="7.18693">
        <ele>516</ele>
        <time>2023-05-29T11:29:55Z</time>
      </trkpt>
      <trkpt lat="47.9085" lon="7.18705">
        <ele>514</ele>
        <time>2023-05-29T11:30:06Z</time>
      </trkpt>
      <trkpt lat="47.90847" lon="7.18718">
        <ele>512</ele>
        <time>2023-05-29T11:30:16Z</time>
      </trkpt>
      <trkpt lat="47.90841" lon="7.18729">
        <ele>512</ele>
        <time>2023-05-29T11:30:25Z</time>
      </trkpt>
      <trkpt lat="47.90834" lon="7.18737">
        <ele>510</ele>
        <time>2023-05-29T11:30:34Z</time>
      </trkpt>
      <trkpt lat="47.90825" lon="7.18743">
        <ele>509</ele>
        <time>2023-05-29T11:30:43Z</time>
      </trkpt>
      <trkpt lat="47.90816" lon="7.18748">
        <ele>508</ele>
        <time>2023-05-29T11:30:53Z</time>
      </trkpt>
      <trkpt lat="47.90807" lon="7.18751">
        <ele>507</ele>
        <time>2023-05-29T11:31:02Z</time>
      </trkpt>
      <trkpt lat="47.90798" lon="7.18757">
        <ele>506</ele>
        <time>2023-05-29T11:31:12Z</time>
      </trkpt>
      <trkpt lat="47.90791" lon="7.18766">
        <ele>504</ele>
        <time>2023-05-29T11:31:27Z</time>
      </trkpt>
      <trkpt lat="47.90786" lon="7.1878">
        <ele>503</ele>
        <time>2023-05-29T11:31:39Z</time>
      </trkpt>
      <trkpt lat="47.90785" lon="7.18794">
        <ele>502</ele>
        <time>2023-05-29T11:31:49Z</time>
      </trkpt>
      <trkpt lat="47.90784" lon="7.18807">
        <ele>500</ele>
        <time>2023-05-29T11:32:03Z</time>
      </trkpt>
      <trkpt lat="47.90784" lon="7.1882">
        <ele>499</ele>
        <time>2023-05-29T11:32:12Z</time>
      </trkpt>
      <trkpt lat="47.90783" lon="7.18835">
        <ele>498</ele>
        <time>2023-05-29T11:32:20Z</time>
      </trkpt>
      <trkpt lat="47.90783" lon="7.18849">
        <ele>498</ele>
        <time>2023-05-29T11:32:29Z</time>
      </trkpt>
      <trkpt lat="47.90782" lon="7.18862">
        <ele>496</ele>
        <time>2023-05-29T11:32:38Z</time>
      </trkpt>
      <trkpt lat="47.90779" lon="7.18876">
        <ele>495</ele>
        <time>2023-05-29T11:32:47Z</time>
      </trkpt>
      <trkpt lat="47.90776" lon="7.1889">
        <ele>494</ele>
        <time>2023-05-29T11:32:57Z</time>
      </trkpt>
      <trkpt lat="47.90774" lon="7.18903">
        <ele>493</ele>
        <time>2023-05-29T11:33:07Z</time>
      </trkpt>
      <trkpt lat="47.90771" lon="7.18917">
        <ele>492</ele>
        <time>2023-05-29T11:33:16Z</time>
      </trkpt>
      <trkpt lat="47.90769" lon="7.1893">
        <ele>491</ele>
        <time>2023-05-29T11:33:26Z</time>
      </trkpt>
      <trkpt lat="47.90765" lon="7.18944">
        <ele>490</ele>
        <time>2023-05-29T11:33:36Z</time>
      </trkpt>
      <trkpt lat="47.90764" lon="7.18958">
        <ele>489</ele>
        <time>2023-05-29T11:33:47Z</time>
      </trkpt>
      <trkpt lat="47.90762" lon="7.18972">
        <ele>488</ele>
        <time>2023-05-29T11:34:00Z</time>
      </trkpt>
      <trkpt lat="47.90758" lon="7.18985">
        <ele>487</ele>
        <time>2023-05-29T11:34:12Z</time>
      </trkpt>
      <trkpt lat="47.90756" lon="7.18998">
        <ele>486</ele>
        <time>2023-05-29T11:34:22Z</time>
      </trkpt>
      <trkpt lat="47.90755" lon="7.19012">
        <ele>485</ele>
        <time>2023-05-29T11:34:32Z</time>
      </trkpt>
      <trkpt lat="47.90753" lon="7.19026">
        <ele>484</ele>
        <time>2023-05-29T11:34:41Z</time>
      </trkpt>
      <trkpt lat="47.90751" lon="7.1904">
        <ele>484</ele>
        <time>2023-05-29T11:34:52Z</time>
      </trkpt>
      <trkpt lat="47.90749" lon="7.19054">
        <ele>483</ele>
        <time>2023-05-29T11:35:09Z</time>
      </trkpt>
      <trkpt lat="47.90746" lon="7.19067">
        <ele>481</ele>
        <time>2023-05-29T11:35:39Z</time>
      </trkpt>
      <trkpt lat="47.9074" lon="7.19079">
        <ele>481</ele>
        <time>2023-05-29T11:35:51Z</time>
      </trkpt>
      <trkpt lat="47.90734" lon="7.19088">
        <ele>480</ele>
        <time>2023-05-29T11:36:13Z</time>
      </trkpt>
      <trkpt lat="47.90726" lon="7.19096">
        <ele>480</ele>
        <time>2023-05-29T11:36:25Z</time>
      </trkpt>
      <trkpt lat="47.90718" lon="7.19102">
        <ele>480</ele>
        <time>2023-05-29T11:36:38Z</time>
      </trkpt>
      <trkpt lat="47.90708" lon="7.19106">
        <ele>479</ele>
        <time>2023-05-29T11:37:03Z</time>
      </trkpt>
      <trkpt lat="47.90705" lon="7.19095">
        <ele>478</ele>
        <time>2023-05-29T11:40:35Z</time>
      </trkpt>
      <trkpt lat="47.90702" lon="7.19107">
        <ele>478</ele>
        <time>2023-05-29T11:40:48Z</time>
      </trkpt>
      <trkpt lat="47.90695" lon="7.19116">
        <ele>478</ele>
        <time>2023-05-29T11:40:58Z</time>
      </trkpt>
      <trkpt lat="47.90688" lon="7.19126">
        <ele>477</ele>
        <time>2023-05-29T11:41:09Z</time>
      </trkpt>
      <trkpt lat="47.9068" lon="7.19135">
        <ele>476</ele>
        <time>2023-05-29T11:41:20Z</time>
      </trkpt>
      <trkpt lat="47.90672" lon="7.19142">
        <ele>475</ele>
        <time>2023-05-29T11:41:30Z</time>
      </trkpt>
      <trkpt lat="47.90664" lon="7.19149">
        <ele>473</ele>
        <time>2023-05-29T11:41:41Z</time>
      </trkpt>
      <trkpt lat="47.90658" lon="7.19159">
        <ele>471</ele>
        <time>2023-05-29T11:41:54Z</time>
      </trkpt>
      <trkpt lat="47.90652" lon="7.19169">
        <ele>468</ele>
        <time>2023-05-29T11:42:17Z</time>
      </trkpt>
      <trkpt lat="47.90645" lon="7.1918">
        <ele>467</ele>
        <time>2023-05-29T11:42:26Z</time>
      </trkpt>
      <trkpt lat="47.90639" lon="7.1919">
        <ele>465</ele>
        <time>2023-05-29T11:42:40Z</time>
      </trkpt>
      <trkpt lat="47.90631" lon="7.19199">
        <ele>463</ele>
        <time>2023-05-29T11:42:52Z</time>
      </trkpt>
      <trkpt lat="47.90628" lon="7.19211">
        <ele>462</ele>
        <time>2023-05-29T11:43:05Z</time>
      </trkpt>
      <trkpt lat="47.90626" lon="7.19225">
        <ele>460</ele>
        <time>2023-05-29T11:43:19Z</time>
      </trkpt>
      <trkpt lat="47.90621" lon="7.19238">
        <ele>457</ele>
        <time>2023-05-29T11:43:32Z</time>
      </trkpt>
      <trkpt lat="47.90617" lon="7.19251">
        <ele>456</ele>
        <time>2023-05-29T11:43:40Z</time>
      </trkpt>
      <trkpt lat="47.90614" lon="7.19265">
        <ele>455</ele>
        <time>2023-05-29T11:43:50Z</time>
      </trkpt>
      <trkpt lat="47.90609" lon="7.19277">
        <ele>452</ele>
        <time>2023-05-29T11:44:01Z</time>
      </trkpt>
      <trkpt lat="47.90604" lon="7.19288">
        <ele>451</ele>
        <time>2023-05-29T11:44:11Z</time>
      </trkpt>
      <trkpt lat="47.90602" lon="7.19301">
        <ele>451</ele>
        <time>2023-05-29T11:44:20Z</time>
      </trkpt>
      <trkpt lat="47.90599" lon="7.19315">
        <ele>449</ele>
        <time>2023-05-29T11:44:30Z</time>
      </trkpt>
      <trkpt lat="47.90596" lon="7.19328">
        <ele>447</ele>
        <time>2023-05-29T11:44:42Z</time>
      </trkpt>
      <trkpt lat="47.90591" lon="7.19339">
        <ele>446</ele>
        <time>2023-05-29T11:44:52Z</time>
      </trkpt>
      <trkpt lat="47.90587" lon="7.19352">
        <ele>445</ele>
        <time>2023-05-29T11:45:04Z</time>
      </trkpt>
      <trkpt lat="47.90582" lon="7.19364">
        <ele>443</ele>
        <time>2023-05-29T11:45:14Z</time>
      </trkpt>
      <trkpt lat="47.90577" lon="7.19376">
        <ele>442</ele>
        <time>2023-05-29T11:45:25Z</time>
      </trkpt>
      <trkpt lat="47.90572" lon="7.19387">
        <ele>440</ele>
        <time>2023-05-29T11:45:35Z</time>
      </trkpt>
      <trkpt lat="47.90569" lon="7.19399">
        <ele>439</ele>
        <time>2023-05-29T11:45:44Z</time>
      </trkpt>
      <trkpt lat="47.90566" lon="7.19411">
        <ele>437</ele>
        <time>2023-05-29T11:45:58Z</time>
      </trkpt>
      <trkpt lat="47.90562" lon="7.19423">
        <ele>435</ele>
        <time>2023-05-29T11:46:08Z</time>
      </trkpt>
      <trkpt lat="47.90562" lon="7.19437">
        <ele>433</ele>
        <time>2023-05-29T11:46:26Z</time>
      </trkpt>
      <trkpt lat="47.90563" lon="7.19452">
        <ele>432</ele>
        <time>2023-05-29T11:46:42Z</time>
      </trkpt>
      <trkpt lat="47.90561" lon="7.19466">
        <ele>431</ele>
        <time>2023-05-29T11:46:55Z</time>
      </trkpt>
      <trkpt lat="47.90557" lon="7.19478">
        <ele>430</ele>
        <time>2023-05-29T11:47:06Z</time>
      </trkpt>
      <trkpt lat="47.90556" lon="7.19491">
        <ele>429</ele>
        <time>2023-05-29T11:47:18Z</time>
      </trkpt>
      <trkpt lat="47.90554" lon="7.19505">
        <ele>427</ele>
        <time>2023-05-29T11:47:31Z</time>
      </trkpt>
      <trkpt lat="47.90552" lon="7.19518">
        <ele>426</ele>
        <time>2023-05-29T11:47:45Z</time>
      </trkpt>
      <trkpt lat="47.90552" lon="7.19532">
        <ele>424</ele>
        <time>2023-05-29T11:47:54Z</time>
      </trkpt>
      <trkpt lat="47.9055" lon="7.19546">
        <ele>423</ele>
        <time>2023-05-29T11:48:03Z</time>
      </trkpt>
      <trkpt lat="47.90546" lon="7.19559">
        <ele>421</ele>
        <time>2023-05-29T11:48:16Z</time>
      </trkpt>
      <trkpt lat="47.90538" lon="7.19565">
        <ele>420</ele>
        <time>2023-05-29T11:48:25Z</time>
      </trkpt>
      <trkpt lat="47.90529" lon="7.19563">
        <ele>419</ele>
        <time>2023-05-29T11:48:36Z</time>
      </trkpt>
      <trkpt lat="47.9052" lon="7.19561">
        <ele>418</ele>
        <time>2023-05-29T11:48:45Z</time>
      </trkpt>
      <trkpt lat="47.9051" lon="7.19558">
        <ele>417</ele>
        <time>2023-05-29T11:48:55Z</time>
      </trkpt>
      <trkpt lat="47.90501" lon="7.19551">
        <ele>416</ele>
        <time>2023-05-29T11:49:04Z</time>
      </trkpt>
      <trkpt lat="47.90493" lon="7.19544">
        <ele>416</ele>
        <time>2023-05-29T11:49:14Z</time>
      </trkpt>
      <trkpt lat="47.90485" lon="7.19537">
        <ele>415</ele>
        <time>2023-05-29T11:49:24Z</time>
      </trkpt>
      <trkpt lat="47.90478" lon="7.19527">
        <ele>413</ele>
        <time>2023-05-29T11:49:36Z</time>
      </trkpt>
      <trkpt lat="47.90471" lon="7.19518">
        <ele>412</ele>
        <time>2023-05-29T11:49:46Z</time>
      </trkpt>
      <trkpt lat="47.90464" lon="7.19507">
        <ele>411</ele>
        <time>2023-05-29T11:49:58Z</time>
      </trkpt>
      <trkpt lat="47.9046" lon="7.19514">
        <ele>408</ele>
        <time>2023-05-29T11:50:26Z</time>
      </trkpt>
      <trkpt lat="47.90458" lon="7.19528">
        <ele>406</ele>
        <time>2023-05-29T11:50:41Z</time>
      </trkpt>
      <trkpt lat="47.90459" lon="7.19542">
        <ele>405</ele>
        <time>2023-05-29T11:50:53Z</time>
      </trkpt>
      <trkpt lat="47.90462" lon="7.19555">
        <ele>403</ele>
        <time>2023-05-29T11:51:06Z</time>
      </trkpt>
      <trkpt lat="47.90464" lon="7.19568">
        <ele>401</ele>
        <time>2023-05-29T11:51:17Z</time>
      </trkpt>
      <trkpt lat="47.90467" lon="7.19582">
        <ele>400</ele>
        <time>2023-05-29T11:51:28Z</time>
      </trkpt>
      <trkpt lat="47.90468" lon="7.19595">
        <ele>399</ele>
        <time>2023-05-29T11:51:39Z</time>
      </trkpt>
      <trkpt lat="47.90469" lon="7.19609">
        <ele>397</ele>
        <time>2023-05-29T11:51:50Z</time>
      </trkpt>
      <trkpt lat="47.90468" lon="7.19623">
        <ele>394</ele>
        <time>2023-05-29T11:52:01Z</time>
      </trkpt>
      <trkpt lat="47.9047" lon="7.19636">
        <ele>393</ele>
        <time>2023-05-29T11:52:12Z</time>
      </trkpt>
      <trkpt lat="47.90474" lon="7.19649">
        <ele>392</ele>
        <time>2023-05-29T11:52:23Z</time>
      </trkpt>
      <trkpt lat="47.90478" lon="7.19663">
        <ele>391</ele>
        <time>2023-05-29T11:52:33Z</time>
      </trkpt>
      <trkpt lat="47.90481" lon="7.19676">
        <ele>389</ele>
        <time>2023-05-29T11:52:42Z</time>
      </trkpt>
      <trkpt lat="47.90486" lon="7.19688">
        <ele>387</ele>
        <time>2023-05-29T11:53:01Z</time>
      </trkpt>
      <trkpt lat="47.90492" lon="7.197">
        <ele>387</ele>
        <time>2023-05-29T11:53:13Z</time>
      </trkpt>
      <trkpt lat="47.90495" lon="7.19713">
        <ele>386</ele>
        <time>2023-05-29T11:53:28Z</time>
      </trkpt>
      <trkpt lat="47.905" lon="7.19725">
        <ele>385</ele>
        <time>2023-05-29T11:53:41Z</time>
      </trkpt>
      <trkpt lat="47.90504" lon="7.19737">
        <ele>384</ele>
        <time>2023-05-29T11:53:54Z</time>
      </trkpt>
      <trkpt lat="47.90509" lon="7.19749">
        <ele>384</ele>
        <time>2023-05-29T11:54:05Z</time>
      </trkpt>
      <trkpt lat="47.90516" lon="7.1976">
        <ele>383</ele>
        <time>2023-05-29T11:54:15Z</time>
      </trkpt>
      <trkpt lat="47.90521" lon="7.1977">
        <ele>383</ele>
        <time>2023-05-29T11:54:23Z</time>
      </trkpt>
      <trkpt lat="47.90526" lon="7.19783">
        <ele>382</ele>
        <time>2023-05-29T11:54:33Z</time>
      </trkpt>
      <trkpt lat="47.9053" lon="7.19795">
        <ele>381</ele>
        <time>2023-05-29T11:54:43Z</time>
      </trkpt>
      <trkpt lat="47.90535" lon="7.19807">
        <ele>381</ele>
        <time>2023-05-29T11:54:53Z</time>
      </trkpt>
      <trkpt lat="47.90539" lon="7.19819">
        <ele>380</ele>
        <time>2023-05-29T11:55:03Z</time>
      </trkpt>
      <trkpt lat="47.90543" lon="7.19832">
        <ele>379</ele>
        <time>2023-05-29T11:55:14Z</time>
      </trkpt>
      <trkpt lat="47.90547" lon="7.19844">
        <ele>378</ele>
        <time>2023-05-29T11:55:24Z</time>
      </trkpt>
      <trkpt lat="47.90552" lon="7.19856">
        <ele>377</ele>
        <time>2023-05-29T11:55:35Z</time>
      </trkpt>
      <trkpt lat="47.90557" lon="7.19869">
        <ele>376</ele>
        <time>2023-05-29T11:55:46Z</time>
      </trkpt>
      <trkpt lat="47.9056" lon="7.19881">
        <ele>375</ele>
        <time>2023-05-29T11:55:57Z</time>
      </trkpt>
      <trkpt lat="47.90564" lon="7.19894">
        <ele>374</ele>
        <time>2023-05-29T11:56:07Z</time>
      </trkpt>
      <trkpt lat="47.90567" lon="7.19907">
        <ele>373</ele>
        <time>2023-05-29T11:56:18Z</time>
      </trkpt>
      <trkpt lat="47.90571" lon="7.19919">
        <ele>372</ele>
        <time>2023-05-29T11:56:30Z</time>
      </trkpt>
      <trkpt lat="47.90575" lon="7.19932">
        <ele>371</ele>
        <time>2023-05-29T11:56:41Z</time>
      </trkpt>
      <trkpt lat="47.90578" lon="7.19946">
        <ele>369</ele>
        <time>2023-05-29T11:56:52Z</time>
      </trkpt>
      <trkpt lat="47.90581" lon="7.19959">
        <ele>368</ele>
        <time>2023-05-29T11:57:03Z</time>
      </trkpt>
      <trkpt lat="47.90583" lon="7.19973">
        <ele>367</ele>
        <time>2023-05-29T11:57:14Z</time>
      </trkpt>
      <trkpt lat="47.90585" lon="7.19986">
        <ele>366</ele>
        <time>2023-05-29T11:57:25Z</time>
      </trkpt>
      <trkpt lat="47.90588" lon="7.2">
        <ele>364</ele>
        <time>2023-05-29T11:57:36Z</time>
      </trkpt>
      <trkpt lat="47.9059" lon="7.20013">
        <ele>363</ele>
        <time>2023-05-29T11:57:46Z</time>
      </trkpt>
      <trkpt lat="47.9059" lon="7.20028">
        <ele>361</ele>
        <time>2023-05-29T11:57:57Z</time>
      </trkpt>
      <trkpt lat="47.90592" lon="7.20042">
        <ele>360</ele>
        <time>2023-05-29T11:58:09Z</time>
      </trkpt>
      <trkpt lat="47.90593" lon="7.20057">
        <ele>359</ele>
        <time>2023-05-29T11:58:20Z</time>
      </trkpt>
      <trkpt lat="47.90594" lon="7.20071">
        <ele>357</ele>
        <time>2023-05-29T11:58:32Z</time>
      </trkpt>
      <trkpt lat="47.90593" lon="7.20085">
        <ele>356</ele>
        <time>2023-05-29T11:58:43Z</time>
      </trkpt>
      <trkpt lat="47.90594" lon="7.20099">
        <ele>354</ele>
        <time>2023-05-29T11:58:53Z</time>
      </trkpt>
      <trkpt lat="47.90596" lon="7.20113">
        <ele>353</ele>
        <time>2023-05-29T11:59:02Z</time>
      </trkpt>
      <trkpt lat="47.90595" lon="7.20128">
        <ele>352</ele>
        <time>2023-05-29T11:59:13Z</time>
      </trkpt>
      <trkpt lat="47.90594" lon="7.20142">
        <ele>350</ele>
        <time>2023-05-29T11:59:23Z</time>
      </trkpt>
      <trkpt lat="47.90594" lon="7.20157">
        <ele>349</ele>
        <time>2023-05-29T11:59:32Z</time>
      </trkpt>
      <trkpt lat="47.90594" lon="7.20171">
        <ele>348</ele>
        <time>2023-05-29T11:59:41Z</time>
      </trkpt>
      <trkpt lat="47.90593" lon="7.20185">
        <ele>347</ele>
        <time>2023-05-29T11:59:51Z</time>
      </trkpt>
      <trkpt lat="47.90592" lon="7.202">
        <ele>346</ele>
        <time>2023-05-29T12:00:01Z</time>
      </trkpt>
      <trkpt lat="47.90591" lon="7.20214">
        <ele>345</ele>
        <time>2023-05-29T12:00:11Z</time>
      </trkpt>
      <trkpt lat="47.9059" lon="7.20229">
        <ele>344</ele>
        <time>2023-05-29T12:00:21Z</time>
      </trkpt>
      <trkpt lat="47.9059" lon="7.20242">
        <ele>343</ele>
        <time>2023-05-29T12:00:31Z</time>
      </trkpt>
      <trkpt lat="47.9059" lon="7.20256">
        <ele>342</ele>
        <time>2023-05-29T12:00:41Z</time>
      </trkpt>
      <trkpt lat="47.90589" lon="7.20271">
        <ele>341</ele>
        <time>2023-05-29T12:00:52Z</time>
      </trkpt>
      <trkpt lat="47.90588" lon="7.20285">
        <ele>341</ele>
        <time>2023-05-29T12:01:02Z</time>
      </trkpt>
      <trkpt lat="47.90587" lon="7.20299">
        <ele>340</ele>
        <time>2023-05-29T12:01:12Z</time>
      </trkpt>
      <trkpt lat="47.90588" lon="7.20313">
        <ele>339</ele>
        <time>2023-05-29T12:01:23Z</time>
      </trkpt>
      <trkpt lat="47.90588" lon="7.20327">
        <ele>339</ele>
        <time>2023-05-29T12:01:33Z</time>
      </trkpt>
      <trkpt lat="47.90588" lon="7.20341">
        <ele>338</ele>
        <time>2023-05-29T12:01:43Z</time>
      </trkpt>
      <trkpt lat="47.90587" lon="7.20355">
        <ele>337</ele>
        <time>2023-05-29T12:01:53Z</time>
      </trkpt>
      <trkpt lat="47.90587" lon="7.20368">
        <ele>337</ele>
        <time>2023-05-29T12:02:03Z</time>
      </trkpt>
      <trkpt lat="47.90587" lon="7.20382">
        <ele>336</ele>
        <time>2023-05-29T12:02:13Z</time>
      </trkpt>
      <trkpt lat="47.90589" lon="7.20396">
        <ele>335</ele>
        <time>2023-05-29T12:02:23Z</time>
      </trkpt>
      <trkpt lat="47.90591" lon="7.20409">
        <ele>335</ele>
        <time>2023-05-29T12:02:33Z</time>
      </trkpt>
      <trkpt lat="47.90593" lon="7.20422">
        <ele>334</ele>
        <time>2023-05-29T12:02:43Z</time>
      </trkpt>
      <trkpt lat="47.90594" lon="7.20436">
        <ele>333</ele>
        <time>2023-05-29T12:02:54Z</time>
      </trkpt>
      <trkpt lat="47.90596" lon="7.20451">
        <ele>332</ele>
        <time>2023-05-29T12:03:05Z</time>
      </trkpt>
      <trkpt lat="47.90599" lon="7.20465">
        <ele>331</ele>
        <time>2023-05-29T12:03:17Z</time>
      </trkpt>
      <trkpt lat="47.90601" lon="7.20477">
        <ele>330</ele>
        <time>2023-05-29T12:03:27Z</time>
      </trkpt>
      <trkpt lat="47.90605" lon="7.20491">
        <ele>330</ele>
        <time>2023-05-29T12:03:38Z</time>
      </trkpt>
      <trkpt lat="47.90607" lon="7.20505">
        <ele>329</ele>
        <time>2023-05-29T12:03:50Z</time>
      </trkpt>
      <trkpt lat="47.90608" lon="7.20518">
        <ele>328</ele>
        <time>2023-05-29T12:04:00Z</time>
      </trkpt>
      <trkpt lat="47.9061" lon="7.20531">
        <ele>328</ele>
        <time>2023-05-29T12:04:10Z</time>
      </trkpt>
      <trkpt lat="47.90612" lon="7.20545">
        <ele>327</ele>
        <time>2023-05-29T12:04:20Z</time>
      </trkpt>
      <trkpt lat="47.90614" lon="7.20558">
        <ele>327</ele>
        <time>2023-05-29T12:04:30Z</time>
      </trkpt>
      <trkpt lat="47.90616" lon="7.20572">
        <ele>326</ele>
        <time>2023-05-29T12:04:41Z</time>
      </trkpt>
      <trkpt lat="47.90616" lon="7.20587">
        <ele>325</ele>
        <time>2023-05-29T12:04:52Z</time>
      </trkpt>
      <trkpt lat="47.90617" lon="7.20601">
        <ele>325</ele>
        <time>2023-05-29T12:05:03Z</time>
      </trkpt>
      <trkpt lat="47.9062" lon="7.20615">
        <ele>324</ele>
        <time>2023-05-29T12:05:13Z</time>
      </trkpt>
      <trkpt lat="47.90621" lon="7.20629">
        <ele>324</ele>
        <time>2023-05-29T12:05:23Z</time>
      </trkpt>
      <trkpt lat="47.9062" lon="7.20643">
        <ele>323</ele>
        <time>2023-05-29T12:05:33Z</time>
      </trkpt>
      <trkpt lat="47.90619" lon="7.20657">
        <ele>323</ele>
        <time>2023-05-29T12:05:43Z</time>
      </trkpt>
      <trkpt lat="47.90621" lon="7.2067">
        <ele>323</ele>
        <time>2023-05-29T12:05:54Z</time>
      </trkpt>
      <trkpt lat="47.90626" lon="7.20681">
        <ele>322</ele>
        <time>2023-05-29T12:06:03Z</time>
      </trkpt>
      <trkpt lat="47.90629" lon="7.20694">
        <ele>322</ele>
        <time>2023-05-29T12:06:13Z</time>
      </trkpt>
      <trkpt lat="47.90632" lon="7.20708">
        <ele>321</ele>
        <time>2023-05-29T12:06:23Z</time>
      </trkpt>
      <trkpt lat="47.90636" lon="7.2072">
        <ele>321</ele>
        <time>2023-05-29T12:06:32Z</time>
      </trkpt>
      <trkpt lat="47.90639" lon="7.20733">
        <ele>321</ele>
        <time>2023-05-29T12:06:42Z</time>
      </trkpt>
      <trkpt lat="47.90642" lon="7.20746">
        <ele>320</ele>
        <time>2023-05-29T12:06:52Z</time>
      </trkpt>
      <trkpt lat="47.90645" lon="7.20759">
        <ele>320</ele>
        <time>2023-05-29T12:07:02Z</time>
      </trkpt>
      <trkpt lat="47.90648" lon="7.20772">
        <ele>319</ele>
        <time>2023-05-29T12:07:11Z</time>
      </trkpt>
      <trkpt lat="47.90652" lon="7.20785">
        <ele>319</ele>
        <time>2023-05-29T12:07:21Z</time>
      </trkpt>
      <trkpt lat="47.90656" lon="7.20798">
        <ele>318</ele>
        <time>2023-05-29T12:07:31Z</time>
      </trkpt>
      <trkpt lat="47.9066" lon="7.2081">
        <ele>318</ele>
        <time>2023-05-29T12:07:44Z</time>
      </trkpt>
      <trkpt lat="47.90663" lon="7.20824">
        <ele>318</ele>
        <time>2023-05-29T12:07:55Z</time>
      </trkpt>
      <trkpt lat="47.90668" lon="7.20837">
        <ele>317</ele>
        <time>2023-05-29T12:08:05Z</time>
      </trkpt>
      <trkpt lat="47.90673" lon="7.20848">
        <ele>317</ele>
        <time>2023-05-29T12:08:14Z</time>
      </trkpt>
      <trkpt lat="47.90676" lon="7.20862">
        <ele>317</ele>
        <time>2023-05-29T12:08:24Z</time>
      </trkpt>
      <trkpt lat="47.90679" lon="7.20875">
        <ele>317</ele>
        <time>2023-05-29T12:08:33Z</time>
      </trkpt>
      <trkpt lat="47.90682" lon="7.20888">
        <ele>317</ele>
        <time>2023-05-29T12:08:44Z</time>
      </trkpt>
      <trkpt lat="47.90689" lon="7.20896">
        <ele>316</ele>
        <time>2023-05-29T12:08:55Z</time>
      </trkpt>
      <trkpt lat="47.90695" lon="7.20906">
        <ele>315</ele>
        <time>2023-05-29T12:09:34Z</time>
      </trkpt>
      <trkpt lat="47.90699" lon="7.2092">
        <ele>315</ele>
        <time>2023-05-29T12:09:43Z</time>
      </trkpt>
      <trkpt lat="47.90704" lon="7.20933">
        <ele>315</ele>
        <time>2023-05-29T12:09:52Z</time>
      </trkpt>
      <trkpt lat="47.90707" lon="7.20945">
        <ele>315</ele>
        <time>2023-05-29T12:10:01Z</time>
      </trkpt>
      <trkpt lat="47.90712" lon="7.20957">
        <ele>315</ele>
        <time>2023-05-29T12:10:11Z</time>
      </trkpt>
      <trkpt lat="47.90717" lon="7.20969">
        <ele>315</ele>
        <time>2023-05-29T12:10:20Z</time>
      </trkpt>
      <trkpt lat="47.90725" lon="7.20976">
        <ele>314</ele>
        <time>2023-05-29T12:10:31Z</time>
      </trkpt>
      <trkpt lat="47.90731" lon="7.20987">
        <ele>314</ele>
        <time>2023-05-29T12:10:42Z</time>
      </trkpt>
      <trkpt lat="47.90727" lon="7.20998">
        <ele>313</ele>
        <time>2023-05-29T12:10:52Z</time>
      </trkpt>
      <trkpt lat="47.90731" lon="7.21011">
        <ele>313</ele>
        <time>2023-05-29T12:11:00Z</time>
      </trkpt>
      <trkpt lat="47.90737" lon="7.21019">
        <ele>313</ele>
        <time>2023-05-29T12:11:11Z</time>
      </trkpt>
      <trkpt lat="47.90744" lon="7.21029">
        <ele>312</ele>
        <time>2023-05-29T12:11:21Z</time>
      </trkpt>
      <trkpt lat="47.9075" lon="7.21041">
        <ele>312</ele>
        <time>2023-05-29T12:11:30Z</time>
      </trkpt>
      <trkpt lat="47.90754" lon="7.21052">
        <ele>312</ele>
        <time>2023-05-29T12:11:39Z</time>
      </trkpt>
      <trkpt lat="47.90762" lon="7.21059">
        <ele>312</ele>
        <time>2023-05-29T12:11:50Z</time>
      </trkpt>
      <trkpt lat="47.90771" lon="7.21063">
        <ele>312</ele>
        <time>2023-05-29T12:12:00Z</time>
      </trkpt>
      <trkpt lat="47.90779" lon="7.21071">
        <ele>312</ele>
        <time>2023-05-29T12:12:12Z</time>
      </trkpt>
      <trkpt lat="47.90787" lon="7.21079">
        <ele>312</ele>
        <time>2023-05-29T12:12:21Z</time>
      </trkpt>
      <trkpt lat="47.90793" lon="7.21088">
        <ele>312</ele>
        <time>2023-05-29T12:12:29Z</time>
      </trkpt>
      <trkpt lat="47.90799" lon="7.21099">
        <ele>311</ele>
        <time>2023-05-29T12:12:38Z</time>
      </trkpt>
      <trkpt lat="47.90806" lon="7.21108">
        <ele>311</ele>
        <time>2023-05-29T12:12:48Z</time>
      </trkpt>
      <trkpt lat="47.90813" lon="7.21118">
        <ele>311</ele>
        <time>2023-05-29T12:12:57Z</time>
      </trkpt>
      <trkpt lat="47.90821" lon="7.21127">
        <ele>311</ele>
        <time>2023-05-29T12:13:06Z</time>
      </trkpt>
      <trkpt lat="47.90828" lon="7.21137">
        <ele>311</ele>
        <time>2023-05-29T12:13:15Z</time>
      </trkpt>
      <trkpt lat="47.90833" lon="7.21149">
        <ele>311</ele>
        <time>2023-05-29T12:13:25Z</time>
      </trkpt>
      <trkpt lat="47.90839" lon="7.21159">
        <ele>311</ele>
        <time>2023-05-29T12:13:34Z</time>
      </trkpt>
      <trkpt lat="47.90847" lon="7.2117">
        <ele>311</ele>
        <time>2023-05-29T12:13:43Z</time>
      </trkpt>
      <trkpt lat="47.90852" lon="7.21182">
        <ele>311</ele>
        <time>2023-05-29T12:13:52Z</time>
      </trkpt>
      <trkpt lat="47.90858" lon="7.21192">
        <ele>312</ele>
        <time>2023-05-29T12:14:01Z</time>
      </trkpt>
      <trkpt lat="47.90864" lon="7.21203">
        <ele>312</ele>
        <time>2023-05-29T12:14:10Z</time>
      </trkpt>
      <trkpt lat="47.90858" lon="7.21214">
        <ele>312</ele>
        <time>2023-05-29T12:14:18Z</time>
      </trkpt>
      <trkpt lat="47.90851" lon="7.21224">
        <ele>312</ele>
        <time>2023-05-29T12:14:27Z</time>
      </trkpt>
      <trkpt lat="47.90845" lon="7.21235">
        <ele>312</ele>
        <time>2023-05-29T12:14:36Z</time>
      </trkpt>
      <trkpt lat="47.90838" lon="7.21245">
        <ele>312</ele>
        <time>2023-05-29T12:14:46Z</time>
      </trkpt>
      <trkpt lat="47.90832" lon="7.21256">
        <ele>312</ele>
        <time>2023-05-29T12:14:55Z</time>
      </trkpt>
      <trkpt lat="47.90824" lon="7.21267">
        <ele>312</ele>
        <time>2023-05-29T12:15:04Z</time>
      </trkpt>
      <trkpt lat="47.90816" lon="7.21275">
        <ele>312</ele>
        <time>2023-05-29T12:15:14Z</time>
      </trkpt>
      <trkpt lat="47.90809" lon="7.21284">
        <ele>312</ele>
        <time>2023-05-29T12:15:24Z</time>
      </trkpt>
      <trkpt lat="47.90802" lon="7.21294">
        <ele>311</ele>
        <time>2023-05-29T12:15:34Z</time>
      </trkpt>
      <trkpt lat="47.90794" lon="7.21299">
        <ele>311</ele>
        <time>2023-05-29T12:15:43Z</time>
      </trkpt>
      <trkpt lat="47.90786" lon="7.21306">
        <ele>311</ele>
        <time>2023-05-29T12:15:51Z</time>
      </trkpt>
      <trkpt lat="47.90778" lon="7.21314">
        <ele>311</ele>
        <time>2023-05-29T12:16:00Z</time>
      </trkpt>
      <trkpt lat="47.90771" lon="7.21324">
        <ele>311</ele>
        <time>2023-05-29T12:16:10Z</time>
      </trkpt>
      <trkpt lat="47.90763" lon="7.21331">
        <ele>310</ele>
        <time>2023-05-29T12:16:21Z</time>
      </trkpt>
      <trkpt lat="47.90756" lon="7.2134">
        <ele>310</ele>
        <time>2023-05-29T12:16:31Z</time>
      </trkpt>
      <trkpt lat="47.90748" lon="7.21347">
        <ele>310</ele>
        <time>2023-05-29T12:16:41Z</time>
      </trkpt>
      <trkpt lat="47.90751" lon="7.21354">
        <ele>310</ele>
        <time>2023-05-29T12:17:00Z</time>
      </trkpt>
      <trkpt lat="47.90756" lon="7.21365">
        <ele>310</ele>
        <time>2023-05-29T12:17:11Z</time>
      </trkpt>
      <trkpt lat="47.90749" lon="7.21374">
        <ele>310</ele>
        <time>2023-05-29T12:17:19Z</time>
      </trkpt>
      <trkpt lat="47.90742" lon="7.21385">
        <ele>310</ele>
        <time>2023-05-29T12:17:27Z</time>
      </trkpt>
      <trkpt lat="47.90736" lon="7.21394">
        <ele>310</ele>
        <time>2023-05-29T12:17:36Z</time>
      </trkpt>
      <trkpt lat="47.90729" lon="7.21405">
        <ele>310</ele>
        <time>2023-05-29T12:17:46Z</time>
      </trkpt>
      <trkpt lat="47.90724" lon="7.21417">
        <ele>310</ele>
        <time>2023-05-29T12:17:56Z</time>
      </trkpt>
      <trkpt lat="47.90717" lon="7.21427">
        <ele>310</ele>
        <time>2023-05-29T12:18:07Z</time>
      </trkpt>
      <trkpt lat="47.90715" lon="7.21439">
        <ele>310</ele>
        <time>2023-05-29T12:18:19Z</time>
      </trkpt>
      <trkpt lat="47.90724" lon="7.21445">
        <ele>310</ele>
        <time>2023-05-29T12:18:31Z</time>
      </trkpt>
      <trkpt lat="47.90729" lon="7.21456">
        <ele>310</ele>
        <time>2023-05-29T12:18:41Z</time>
      </trkpt>
      <trkpt lat="47.90735" lon="7.21467">
        <ele>310</ele>
        <time>2023-05-29T12:18:51Z</time>
      </trkpt>
      <trkpt lat="47.9074" lon="7.21479">
        <ele>310</ele>
        <time>2023-05-29T12:19:02Z</time>
      </trkpt>
      <trkpt lat="47.90748" lon="7.21483">
        <ele>310</ele>
        <time>2023-05-29T12:19:13Z</time>
      </trkpt>
      <trkpt lat="47.90757" lon="7.21489">
        <ele>310</ele>
        <time>2023-05-29T12:19:22Z</time>
      </trkpt>
      <trkpt lat="47.90762" lon="7.215">
        <ele>310</ele>
        <time>2023-05-29T12:19:30Z</time>
      </trkpt>
      <trkpt lat="47.90768" lon="7.21511">
        <ele>310</ele>
        <time>2023-05-29T12:19:39Z</time>
      </trkpt>
      <trkpt lat="47.90772" lon="7.21523">
        <ele>310</ele>
        <time>2023-05-29T12:19:48Z</time>
      </trkpt>
      <trkpt lat="47.90765" lon="7.21532">
        <ele>310</ele>
        <time>2023-05-29T12:19:57Z</time>
      </trkpt>
      <trkpt lat="47.90758" lon="7.21542">
        <ele>310</ele>
        <time>2023-05-29T12:20:06Z</time>
      </trkpt>
      <trkpt lat="47.90749" lon="7.21549">
        <ele>310</ele>
        <time>2023-05-29T12:20:16Z</time>
      </trkpt>
      <trkpt lat="47.90742" lon="7.21558">
        <ele>310</ele>
        <time>2023-05-29T12:20:25Z</time>
      </trkpt>
      <trkpt lat="47.90734" lon="7.21565">
        <ele>310</ele>
        <time>2023-05-29T12:20:34Z</time>
      </trkpt>
      <trkpt lat="47.90726" lon="7.21571">
        <ele>310</ele>
        <time>2023-05-29T12:20:42Z</time>
      </trkpt>
      <trkpt lat="47.90717" lon="7.21579">
        <ele>310</ele>
        <time>2023-05-29T12:20:51Z</time>
      </trkpt>
      <trkpt lat="47.90709" lon="7.21586">
        <ele>310</ele>
        <time>2023-05-29T12:21:00Z</time>
      </trkpt>
      <trkpt lat="47.90713" lon="7.21599">
        <ele>310</ele>
        <time>2023-05-29T12:21:08Z</time>
      </trkpt>
      <trkpt lat="47.90718" lon="7.21611">
        <ele>310</ele>
        <time>2023-05-29T12:21:17Z</time>
      </trkpt>
      <trkpt lat="47.90725" lon="7.21621">
        <ele>310</ele>
        <time>2023-05-29T12:21:27Z</time>
      </trkpt>
      <trkpt lat="47.90733" lon="7.21623">
        <ele>310</ele>
        <time>2023-05-29T12:21:41Z</time>
      </trkpt>
      <trkpt lat="47.90738" lon="7.21621">
        <ele>310</ele>
        <time>2023-05-29T12:21:45Z</time>
      </trkpt>
    </trkseg>
  </trk>
</gpx>